<?xml version="1.0" encoding="UTF-8" standalone="no" ?>
<gpx xmlns="http://www.topografix.com/GPX/1/1" xmlns:xsi="http://www.w3.org/2001/XMLSchema-instance" xsi:schemaLocation="http://www.topografix.com/GPX/1/1 http://www.topografix.com/GPX/1/1/gpx.xsd" version="1.1" creator="VisuGPX - https://www.visugpx.com">
  <metadata>
    <name>Ornans - Nancray#01</name>
    <desc><![CDATA[Top tour !
Ornans - Foucherans - Nancray - Hôpital-du-Grosbois - Bonnevaux 
]]></desc>
  </metadata>
  <trk>
    <name><![CDATA[Ornans - Nancray ]]></name>
    <cmt><![CDATA[Ornans - Foucherans - Nancray - Hôpital-du-Grosbois - Bonnevaux ]]></cmt>
    <desc><![CDATA[Ornans - Foucherans - Nancray - Hôpital-du-Grosbois - Bonnevaux ]]></desc>
    <trkseg>
      <trkpt lat="47.10278" lon="6.15603">
        <ele>333.447</ele>
        <time>2022-10-10T12:23:00Z</time>
      </trkpt>
      <trkpt lat="47.10278" lon="6.15604">
        <ele>333.429</ele>
        <time>2022-10-10T12:23:01Z</time>
      </trkpt>
      <trkpt lat="47.10279" lon="6.156">
        <ele>333.621</ele>
        <time>2022-10-10T12:23:06Z</time>
      </trkpt>
      <trkpt lat="47.10274" lon="6.15588">
        <ele>333.209</ele>
        <time>2022-10-10T12:23:10Z</time>
      </trkpt>
      <trkpt lat="47.10272" lon="6.15585">
        <ele>333.025</ele>
        <time>2022-10-10T12:23:11Z</time>
      </trkpt>
      <trkpt lat="47.10263" lon="6.15572">
        <ele>331.825</ele>
        <time>2022-10-10T12:23:15Z</time>
      </trkpt>
      <trkpt lat="47.10261" lon="6.15567">
        <ele>331.889</ele>
        <time>2022-10-10T12:23:16Z</time>
      </trkpt>
      <trkpt lat="47.1026" lon="6.1556">
        <ele>331.663</ele>
        <time>2022-10-10T12:23:17Z</time>
      </trkpt>
      <trkpt lat="47.10259" lon="6.15554">
        <ele>331.446</ele>
        <time>2022-10-10T12:23:18Z</time>
      </trkpt>
      <trkpt lat="47.10258" lon="6.15547">
        <ele>331.472</ele>
        <time>2022-10-10T12:23:19Z</time>
      </trkpt>
      <trkpt lat="47.10257" lon="6.1554">
        <ele>331.248</ele>
        <time>2022-10-10T12:23:20Z</time>
      </trkpt>
      <trkpt lat="47.10257" lon="6.15525">
        <ele>331.278</ele>
        <time>2022-10-10T12:23:22Z</time>
      </trkpt>
      <trkpt lat="47.10258" lon="6.1551">
        <ele>331.022</ele>
        <time>2022-10-10T12:23:24Z</time>
      </trkpt>
      <trkpt lat="47.10259" lon="6.15503">
        <ele>331.088</ele>
        <time>2022-10-10T12:23:25Z</time>
      </trkpt>
      <trkpt lat="47.1026" lon="6.15495">
        <ele>331.024</ele>
        <time>2022-10-10T12:23:26Z</time>
      </trkpt>
      <trkpt lat="47.10261" lon="6.15488">
        <ele>331.226</ele>
        <time>2022-10-10T12:23:27Z</time>
      </trkpt>
      <trkpt lat="47.10275" lon="6.15405">
        <ele>331.209</ele>
        <time>2022-10-10T12:23:38Z</time>
      </trkpt>
      <trkpt lat="47.1028" lon="6.15381">
        <ele>331.059</ele>
        <time>2022-10-10T12:23:41Z</time>
      </trkpt>
      <trkpt lat="47.10288" lon="6.15357">
        <ele>330.669</ele>
        <time>2022-10-10T12:23:44Z</time>
      </trkpt>
      <trkpt lat="47.10291" lon="6.15349">
        <ele>330.293</ele>
        <time>2022-10-10T12:23:45Z</time>
      </trkpt>
      <trkpt lat="47.10297" lon="6.15335">
        <ele>328.457</ele>
        <time>2022-10-10T12:23:47Z</time>
      </trkpt>
      <trkpt lat="47.10322" lon="6.15276">
        <ele>328.07</ele>
        <time>2022-10-10T12:23:54Z</time>
      </trkpt>
      <trkpt lat="47.10329" lon="6.15262">
        <ele>327.246</ele>
        <time>2022-10-10T12:23:56Z</time>
      </trkpt>
      <trkpt lat="47.10333" lon="6.15255">
        <ele>327.082</ele>
        <time>2022-10-10T12:23:57Z</time>
      </trkpt>
      <trkpt lat="47.10338" lon="6.15246">
        <ele>326.692</ele>
        <time>2022-10-10T12:23:58Z</time>
      </trkpt>
      <trkpt lat="47.10343" lon="6.15239">
        <ele>326.486</ele>
        <time>2022-10-10T12:23:59Z</time>
      </trkpt>
      <trkpt lat="47.10347" lon="6.15233">
        <ele>326.489</ele>
        <time>2022-10-10T12:24:00Z</time>
      </trkpt>
      <trkpt lat="47.10351" lon="6.15226">
        <ele>326.406</ele>
        <time>2022-10-10T12:24:01Z</time>
      </trkpt>
      <trkpt lat="47.10355" lon="6.15219">
        <ele>326.426</ele>
        <time>2022-10-10T12:24:02Z</time>
      </trkpt>
      <trkpt lat="47.10359" lon="6.15212">
        <ele>326.409</ele>
        <time>2022-10-10T12:24:03Z</time>
      </trkpt>
      <trkpt lat="47.10363" lon="6.15206">
        <ele>326.439</ele>
        <time>2022-10-10T12:24:04Z</time>
      </trkpt>
      <trkpt lat="47.10374" lon="6.15186">
        <ele>326.079</ele>
        <time>2022-10-10T12:24:07Z</time>
      </trkpt>
      <trkpt lat="47.10377" lon="6.15179">
        <ele>326.073</ele>
        <time>2022-10-10T12:24:08Z</time>
      </trkpt>
      <trkpt lat="47.10397" lon="6.15144">
        <ele>326.487</ele>
        <time>2022-10-10T12:24:13Z</time>
      </trkpt>
      <trkpt lat="47.10403" lon="6.15129">
        <ele>327.06</ele>
        <time>2022-10-10T12:24:15Z</time>
      </trkpt>
      <trkpt lat="47.10406" lon="6.15122">
        <ele>326.496</ele>
        <time>2022-10-10T12:24:16Z</time>
      </trkpt>
      <trkpt lat="47.10409" lon="6.15114">
        <ele>326.292</ele>
        <time>2022-10-10T12:24:17Z</time>
      </trkpt>
      <trkpt lat="47.10426" lon="6.15068">
        <ele>326.292</ele>
        <time>2022-10-10T12:24:23Z</time>
      </trkpt>
      <trkpt lat="47.10434" lon="6.15044">
        <ele>326.056</ele>
        <time>2022-10-10T12:24:26Z</time>
      </trkpt>
      <trkpt lat="47.10449" lon="6.14996">
        <ele>325.654</ele>
        <time>2022-10-10T12:24:32Z</time>
      </trkpt>
      <trkpt lat="47.10452" lon="6.14988">
        <ele>325.256</ele>
        <time>2022-10-10T12:24:33Z</time>
      </trkpt>
      <trkpt lat="47.10459" lon="6.14973">
        <ele>324.411</ele>
        <time>2022-10-10T12:24:35Z</time>
      </trkpt>
      <trkpt lat="47.10462" lon="6.14965">
        <ele>324.409</ele>
        <time>2022-10-10T12:24:36Z</time>
      </trkpt>
      <trkpt lat="47.10466" lon="6.14958">
        <ele>324.446</ele>
        <time>2022-10-10T12:24:37Z</time>
      </trkpt>
      <trkpt lat="47.10478" lon="6.14938">
        <ele>325.876</ele>
        <time>2022-10-10T12:24:40Z</time>
      </trkpt>
      <trkpt lat="47.10486" lon="6.14925">
        <ele>326.03</ele>
        <time>2022-10-10T12:24:42Z</time>
      </trkpt>
      <trkpt lat="47.105" lon="6.14905">
        <ele>326.274</ele>
        <time>2022-10-10T12:24:45Z</time>
      </trkpt>
      <trkpt lat="47.10505" lon="6.14899">
        <ele>326.627</ele>
        <time>2022-10-10T12:24:46Z</time>
      </trkpt>
      <trkpt lat="47.10509" lon="6.14893">
        <ele>326.643</ele>
        <time>2022-10-10T12:24:47Z</time>
      </trkpt>
      <trkpt lat="47.10514" lon="6.14886">
        <ele>326.239</ele>
        <time>2022-10-10T12:24:48Z</time>
      </trkpt>
      <trkpt lat="47.10518" lon="6.1488">
        <ele>326.249</ele>
        <time>2022-10-10T12:24:49Z</time>
      </trkpt>
      <trkpt lat="47.10527" lon="6.14868">
        <ele>326.043</ele>
        <time>2022-10-10T12:24:51Z</time>
      </trkpt>
      <trkpt lat="47.10531" lon="6.14861">
        <ele>326.077</ele>
        <time>2022-10-10T12:24:52Z</time>
      </trkpt>
      <trkpt lat="47.10539" lon="6.14846">
        <ele>326.061</ele>
        <time>2022-10-10T12:24:54Z</time>
      </trkpt>
      <trkpt lat="47.10543" lon="6.1484">
        <ele>326.027</ele>
        <time>2022-10-10T12:24:55Z</time>
      </trkpt>
      <trkpt lat="47.10559" lon="6.14814">
        <ele>327.009</ele>
        <time>2022-10-10T12:24:59Z</time>
      </trkpt>
      <trkpt lat="47.10564" lon="6.14808">
        <ele>327.288</ele>
        <time>2022-10-10T12:25:00Z</time>
      </trkpt>
      <trkpt lat="47.10584" lon="6.14771">
        <ele>327.228</ele>
        <time>2022-10-10T12:25:05Z</time>
      </trkpt>
      <trkpt lat="47.10592" lon="6.14756">
        <ele>327.072</ele>
        <time>2022-10-10T12:25:07Z</time>
      </trkpt>
      <trkpt lat="47.10613" lon="6.14719">
        <ele>327.066</ele>
        <time>2022-10-10T12:25:12Z</time>
      </trkpt>
      <trkpt lat="47.10617" lon="6.14712">
        <ele>327.029</ele>
        <time>2022-10-10T12:25:13Z</time>
      </trkpt>
      <trkpt lat="47.10621" lon="6.14705">
        <ele>327.225</ele>
        <time>2022-10-10T12:25:14Z</time>
      </trkpt>
      <trkpt lat="47.10625" lon="6.14698">
        <ele>327.031</ele>
        <time>2022-10-10T12:25:15Z</time>
      </trkpt>
      <trkpt lat="47.10629" lon="6.14691">
        <ele>327.471</ele>
        <time>2022-10-10T12:25:16Z</time>
      </trkpt>
      <trkpt lat="47.10647" lon="6.14666">
        <ele>327.055</ele>
        <time>2022-10-10T12:25:20Z</time>
      </trkpt>
      <trkpt lat="47.10657" lon="6.14654">
        <ele>326.428</ele>
        <time>2022-10-10T12:25:22Z</time>
      </trkpt>
      <trkpt lat="47.10661" lon="6.14647">
        <ele>326.489</ele>
        <time>2022-10-10T12:25:23Z</time>
      </trkpt>
      <trkpt lat="47.10669" lon="6.14632">
        <ele>326.017</ele>
        <time>2022-10-10T12:25:25Z</time>
      </trkpt>
      <trkpt lat="47.10672" lon="6.14623">
        <ele>326.009</ele>
        <time>2022-10-10T12:25:26Z</time>
      </trkpt>
      <trkpt lat="47.10675" lon="6.14615">
        <ele>326.473</ele>
        <time>2022-10-10T12:25:27Z</time>
      </trkpt>
      <trkpt lat="47.10677" lon="6.14606">
        <ele>326.663</ele>
        <time>2022-10-10T12:25:28Z</time>
      </trkpt>
      <trkpt lat="47.1068" lon="6.14598">
        <ele>326.867</ele>
        <time>2022-10-10T12:25:29Z</time>
      </trkpt>
      <trkpt lat="47.10687" lon="6.14572">
        <ele>327.231</ele>
        <time>2022-10-10T12:25:32Z</time>
      </trkpt>
      <trkpt lat="47.10689" lon="6.14564">
        <ele>327.254</ele>
        <time>2022-10-10T12:25:33Z</time>
      </trkpt>
      <trkpt lat="47.10692" lon="6.14555">
        <ele>327.28</ele>
        <time>2022-10-10T12:25:34Z</time>
      </trkpt>
      <trkpt lat="47.10694" lon="6.14547">
        <ele>327.246</ele>
        <time>2022-10-10T12:25:35Z</time>
      </trkpt>
      <trkpt lat="47.10696" lon="6.14539">
        <ele>327.226</ele>
        <time>2022-10-10T12:25:36Z</time>
      </trkpt>
      <trkpt lat="47.10698" lon="6.1453">
        <ele>327.28</ele>
        <time>2022-10-10T12:25:37Z</time>
      </trkpt>
      <trkpt lat="47.107" lon="6.14522">
        <ele>327.626</ele>
        <time>2022-10-10T12:25:38Z</time>
      </trkpt>
      <trkpt lat="47.10703" lon="6.14514">
        <ele>327.847</ele>
        <time>2022-10-10T12:25:39Z</time>
      </trkpt>
      <trkpt lat="47.10706" lon="6.14506">
        <ele>328.011</ele>
        <time>2022-10-10T12:25:40Z</time>
      </trkpt>
      <trkpt lat="47.10708" lon="6.14498">
        <ele>328.209</ele>
        <time>2022-10-10T12:25:41Z</time>
      </trkpt>
      <trkpt lat="47.1071" lon="6.14489">
        <ele>328.263</ele>
        <time>2022-10-10T12:25:42Z</time>
      </trkpt>
      <trkpt lat="47.10711" lon="6.1448">
        <ele>328.813</ele>
        <time>2022-10-10T12:25:43Z</time>
      </trkpt>
      <trkpt lat="47.1071" lon="6.14471">
        <ele>328.837</ele>
        <time>2022-10-10T12:25:44Z</time>
      </trkpt>
      <trkpt lat="47.10709" lon="6.14462">
        <ele>328.861</ele>
        <time>2022-10-10T12:25:45Z</time>
      </trkpt>
      <trkpt lat="47.10708" lon="6.14452">
        <ele>329.064</ele>
        <time>2022-10-10T12:25:46Z</time>
      </trkpt>
      <trkpt lat="47.10706" lon="6.14443">
        <ele>328.87</ele>
        <time>2022-10-10T12:25:47Z</time>
      </trkpt>
      <trkpt lat="47.10703" lon="6.14435">
        <ele>329.076</ele>
        <time>2022-10-10T12:25:48Z</time>
      </trkpt>
      <trkpt lat="47.10696" lon="6.14419">
        <ele>329.056</ele>
        <time>2022-10-10T12:25:50Z</time>
      </trkpt>
      <trkpt lat="47.1069" lon="6.14403">
        <ele>328.84</ele>
        <time>2022-10-10T12:25:52Z</time>
      </trkpt>
      <trkpt lat="47.10687" lon="6.14395">
        <ele>328.835</ele>
        <time>2022-10-10T12:25:53Z</time>
      </trkpt>
      <trkpt lat="47.10684" lon="6.14388">
        <ele>329.086</ele>
        <time>2022-10-10T12:25:54Z</time>
      </trkpt>
      <trkpt lat="47.10681" lon="6.14379">
        <ele>329.214</ele>
        <time>2022-10-10T12:25:55Z</time>
      </trkpt>
      <trkpt lat="47.1068" lon="6.14371">
        <ele>329.209</ele>
        <time>2022-10-10T12:25:56Z</time>
      </trkpt>
      <trkpt lat="47.10679" lon="6.14362">
        <ele>329.414</ele>
        <time>2022-10-10T12:25:57Z</time>
      </trkpt>
      <trkpt lat="47.10679" lon="6.14353">
        <ele>329.634</ele>
        <time>2022-10-10T12:25:58Z</time>
      </trkpt>
      <trkpt lat="47.10679" lon="6.14344">
        <ele>330.088</ele>
        <time>2022-10-10T12:25:59Z</time>
      </trkpt>
      <trkpt lat="47.1068" lon="6.14336">
        <ele>330.022</ele>
        <time>2022-10-10T12:26:00Z</time>
      </trkpt>
      <trkpt lat="47.1068" lon="6.14327">
        <ele>330.475</ele>
        <time>2022-10-10T12:26:01Z</time>
      </trkpt>
      <trkpt lat="47.10681" lon="6.14291">
        <ele>331.071</ele>
        <time>2022-10-10T12:26:05Z</time>
      </trkpt>
      <trkpt lat="47.10682" lon="6.14282">
        <ele>331.057</ele>
        <time>2022-10-10T12:26:06Z</time>
      </trkpt>
      <trkpt lat="47.10682" lon="6.14274">
        <ele>331.067</ele>
        <time>2022-10-10T12:26:07Z</time>
      </trkpt>
      <trkpt lat="47.10682" lon="6.14265">
        <ele>331.211</ele>
        <time>2022-10-10T12:26:08Z</time>
      </trkpt>
      <trkpt lat="47.10683" lon="6.14256">
        <ele>331.436</ele>
        <time>2022-10-10T12:26:09Z</time>
      </trkpt>
      <trkpt lat="47.10683" lon="6.14248">
        <ele>331.617</ele>
        <time>2022-10-10T12:26:10Z</time>
      </trkpt>
      <trkpt lat="47.10683" lon="6.14239">
        <ele>331.818</ele>
        <time>2022-10-10T12:26:11Z</time>
      </trkpt>
      <trkpt lat="47.10683" lon="6.1423">
        <ele>331.809</ele>
        <time>2022-10-10T12:26:12Z</time>
      </trkpt>
      <trkpt lat="47.10683" lon="6.14221">
        <ele>331.874</ele>
        <time>2022-10-10T12:26:13Z</time>
      </trkpt>
      <trkpt lat="47.10683" lon="6.14213">
        <ele>332.044</ele>
        <time>2022-10-10T12:26:14Z</time>
      </trkpt>
      <trkpt lat="47.10683" lon="6.14204">
        <ele>332.068</ele>
        <time>2022-10-10T12:26:15Z</time>
      </trkpt>
      <trkpt lat="47.10683" lon="6.14195">
        <ele>332.272</ele>
        <time>2022-10-10T12:26:16Z</time>
      </trkpt>
      <trkpt lat="47.10683" lon="6.14186">
        <ele>332.645</ele>
        <time>2022-10-10T12:26:17Z</time>
      </trkpt>
      <trkpt lat="47.10683" lon="6.14177">
        <ele>332.661</ele>
        <time>2022-10-10T12:26:18Z</time>
      </trkpt>
      <trkpt lat="47.10683" lon="6.14169">
        <ele>333.027</ele>
        <time>2022-10-10T12:26:19Z</time>
      </trkpt>
      <trkpt lat="47.10683" lon="6.1416">
        <ele>333.287</ele>
        <time>2022-10-10T12:26:20Z</time>
      </trkpt>
      <trkpt lat="47.10682" lon="6.14151">
        <ele>333.471</ele>
        <time>2022-10-10T12:26:21Z</time>
      </trkpt>
      <trkpt lat="47.10682" lon="6.14142">
        <ele>334.013</ele>
        <time>2022-10-10T12:26:22Z</time>
      </trkpt>
      <trkpt lat="47.10682" lon="6.14134">
        <ele>334.043</ele>
        <time>2022-10-10T12:26:23Z</time>
      </trkpt>
      <trkpt lat="47.10681" lon="6.14127">
        <ele>334.207</ele>
        <time>2022-10-10T12:26:24Z</time>
      </trkpt>
      <trkpt lat="47.10681" lon="6.14117">
        <ele>334.609</ele>
        <time>2022-10-10T12:26:25Z</time>
      </trkpt>
      <trkpt lat="47.1068" lon="6.14108">
        <ele>335.032</ele>
        <time>2022-10-10T12:26:26Z</time>
      </trkpt>
      <trkpt lat="47.10679" lon="6.14101">
        <ele>335.022</ele>
        <time>2022-10-10T12:26:27Z</time>
      </trkpt>
      <trkpt lat="47.10678" lon="6.14094">
        <ele>335.876</ele>
        <time>2022-10-10T12:26:28Z</time>
      </trkpt>
      <trkpt lat="47.10677" lon="6.14088">
        <ele>336.02</ele>
        <time>2022-10-10T12:26:29Z</time>
      </trkpt>
      <trkpt lat="47.10676" lon="6.14081">
        <ele>336.233</ele>
        <time>2022-10-10T12:26:30Z</time>
      </trkpt>
      <trkpt lat="47.10675" lon="6.14074">
        <ele>336.229</ele>
        <time>2022-10-10T12:26:31Z</time>
      </trkpt>
      <trkpt lat="47.10675" lon="6.14067">
        <ele>336.665</ele>
        <time>2022-10-10T12:26:32Z</time>
      </trkpt>
      <trkpt lat="47.10674" lon="6.1406">
        <ele>336.815</ele>
        <time>2022-10-10T12:26:33Z</time>
      </trkpt>
      <trkpt lat="47.10672" lon="6.14052">
        <ele>337.289</ele>
        <time>2022-10-10T12:26:34Z</time>
      </trkpt>
      <trkpt lat="47.10671" lon="6.14044">
        <ele>337.278</ele>
        <time>2022-10-10T12:26:35Z</time>
      </trkpt>
      <trkpt lat="47.1067" lon="6.14036">
        <ele>337.433</ele>
        <time>2022-10-10T12:26:36Z</time>
      </trkpt>
      <trkpt lat="47.10669" lon="6.14027">
        <ele>337.226</ele>
        <time>2022-10-10T12:26:37Z</time>
      </trkpt>
      <trkpt lat="47.10668" lon="6.14018">
        <ele>337.009</ele>
        <time>2022-10-10T12:26:38Z</time>
      </trkpt>
      <trkpt lat="47.10667" lon="6.14009">
        <ele>337.038</ele>
        <time>2022-10-10T12:26:39Z</time>
      </trkpt>
      <trkpt lat="47.10666" lon="6.14">
        <ele>337.068</ele>
        <time>2022-10-10T12:26:40Z</time>
      </trkpt>
      <trkpt lat="47.10664" lon="6.1399">
        <ele>336.892</ele>
        <time>2022-10-10T12:26:41Z</time>
      </trkpt>
      <trkpt lat="47.10663" lon="6.13981">
        <ele>336.676</ele>
        <time>2022-10-10T12:26:42Z</time>
      </trkpt>
      <trkpt lat="47.10662" lon="6.13971">
        <ele>336.669</ele>
        <time>2022-10-10T12:26:43Z</time>
      </trkpt>
      <trkpt lat="47.10661" lon="6.13962">
        <ele>336.665</ele>
        <time>2022-10-10T12:26:44Z</time>
      </trkpt>
      <trkpt lat="47.1066" lon="6.13953">
        <ele>336.631</ele>
        <time>2022-10-10T12:26:45Z</time>
      </trkpt>
      <trkpt lat="47.10659" lon="6.13944">
        <ele>336.661</ele>
        <time>2022-10-10T12:26:46Z</time>
      </trkpt>
      <trkpt lat="47.10658" lon="6.13934">
        <ele>336.465</ele>
        <time>2022-10-10T12:26:47Z</time>
      </trkpt>
      <trkpt lat="47.10657" lon="6.13924">
        <ele>334.891</ele>
        <time>2022-10-10T12:26:48Z</time>
      </trkpt>
      <trkpt lat="47.10656" lon="6.13915">
        <ele>334.881</ele>
        <time>2022-10-10T12:26:49Z</time>
      </trkpt>
      <trkpt lat="47.10655" lon="6.13906">
        <ele>334.819</ele>
        <time>2022-10-10T12:26:50Z</time>
      </trkpt>
      <trkpt lat="47.10654" lon="6.13897">
        <ele>334.209</ele>
        <time>2022-10-10T12:26:51Z</time>
      </trkpt>
      <trkpt lat="47.10653" lon="6.13888">
        <ele>334.25</ele>
        <time>2022-10-10T12:26:52Z</time>
      </trkpt>
      <trkpt lat="47.10651" lon="6.13879">
        <ele>334.04</ele>
        <time>2022-10-10T12:26:53Z</time>
      </trkpt>
      <trkpt lat="47.10651" lon="6.1387">
        <ele>334.094</ele>
        <time>2022-10-10T12:26:54Z</time>
      </trkpt>
      <trkpt lat="47.1065" lon="6.13861">
        <ele>334.848</ele>
        <time>2022-10-10T12:26:55Z</time>
      </trkpt>
      <trkpt lat="47.1065" lon="6.13843">
        <ele>335.231</ele>
        <time>2022-10-10T12:26:57Z</time>
      </trkpt>
      <trkpt lat="47.10651" lon="6.13834">
        <ele>335.437</ele>
        <time>2022-10-10T12:26:58Z</time>
      </trkpt>
      <trkpt lat="47.10652" lon="6.13825">
        <ele>335.423</ele>
        <time>2022-10-10T12:26:59Z</time>
      </trkpt>
      <trkpt lat="47.10653" lon="6.13816">
        <ele>335.643</ele>
        <time>2022-10-10T12:27:00Z</time>
      </trkpt>
      <trkpt lat="47.10655" lon="6.13808">
        <ele>336.247</ele>
        <time>2022-10-10T12:27:01Z</time>
      </trkpt>
      <trkpt lat="47.10661" lon="6.13785">
        <ele>336.662</ele>
        <time>2022-10-10T12:27:04Z</time>
      </trkpt>
      <trkpt lat="47.10664" lon="6.13777">
        <ele>336.683</ele>
        <time>2022-10-10T12:27:05Z</time>
      </trkpt>
      <trkpt lat="47.10668" lon="6.13771">
        <ele>337.011</ele>
        <time>2022-10-10T12:27:06Z</time>
      </trkpt>
      <trkpt lat="47.10673" lon="6.13767">
        <ele>337.609</ele>
        <time>2022-10-10T12:27:07Z</time>
      </trkpt>
      <trkpt lat="47.10678" lon="6.13761">
        <ele>338.247</ele>
        <time>2022-10-10T12:27:08Z</time>
      </trkpt>
      <trkpt lat="47.10682" lon="6.13755">
        <ele>338.887</ele>
        <time>2022-10-10T12:27:09Z</time>
      </trkpt>
      <trkpt lat="47.10684" lon="6.13748">
        <ele>338.861</ele>
        <time>2022-10-10T12:27:10Z</time>
      </trkpt>
      <trkpt lat="47.10685" lon="6.1374">
        <ele>338.845</ele>
        <time>2022-10-10T12:27:11Z</time>
      </trkpt>
      <trkpt lat="47.10685" lon="6.13732">
        <ele>338.878</ele>
        <time>2022-10-10T12:27:12Z</time>
      </trkpt>
      <trkpt lat="47.10683" lon="6.13723">
        <ele>338.014</ele>
        <time>2022-10-10T12:27:13Z</time>
      </trkpt>
      <trkpt lat="47.1068" lon="6.13716">
        <ele>338.03</ele>
        <time>2022-10-10T12:27:14Z</time>
      </trkpt>
      <trkpt lat="47.10678" lon="6.13707">
        <ele>338.05</ele>
        <time>2022-10-10T12:27:15Z</time>
      </trkpt>
      <trkpt lat="47.10676" lon="6.13699">
        <ele>338.034</ele>
        <time>2022-10-10T12:27:16Z</time>
      </trkpt>
      <trkpt lat="47.10674" lon="6.1369">
        <ele>338.626</ele>
        <time>2022-10-10T12:27:17Z</time>
      </trkpt>
      <trkpt lat="47.10671" lon="6.13682">
        <ele>338.647</ele>
        <time>2022-10-10T12:27:18Z</time>
      </trkpt>
      <trkpt lat="47.10668" lon="6.13674">
        <ele>338.811</ele>
        <time>2022-10-10T12:27:19Z</time>
      </trkpt>
      <trkpt lat="47.10665" lon="6.13666">
        <ele>338.809</ele>
        <time>2022-10-10T12:27:20Z</time>
      </trkpt>
      <trkpt lat="47.10661" lon="6.13658">
        <ele>339.013</ele>
        <time>2022-10-10T12:27:21Z</time>
      </trkpt>
      <trkpt lat="47.10657" lon="6.13649">
        <ele>339.023</ele>
        <time>2022-10-10T12:27:22Z</time>
      </trkpt>
      <trkpt lat="47.10654" lon="6.13643">
        <ele>339.077</ele>
        <time>2022-10-10T12:27:23Z</time>
      </trkpt>
      <trkpt lat="47.10651" lon="6.13635">
        <ele>338.661</ele>
        <time>2022-10-10T12:27:24Z</time>
      </trkpt>
      <trkpt lat="47.10647" lon="6.13627">
        <ele>339.074</ele>
        <time>2022-10-10T12:27:25Z</time>
      </trkpt>
      <trkpt lat="47.10644" lon="6.13619">
        <ele>339.23</ele>
        <time>2022-10-10T12:27:26Z</time>
      </trkpt>
      <trkpt lat="47.10641" lon="6.13611">
        <ele>339.616</ele>
        <time>2022-10-10T12:27:27Z</time>
      </trkpt>
      <trkpt lat="47.10638" lon="6.13603">
        <ele>339.686</ele>
        <time>2022-10-10T12:27:28Z</time>
      </trkpt>
      <trkpt lat="47.10635" lon="6.13594">
        <ele>339.68</ele>
        <time>2022-10-10T12:27:29Z</time>
      </trkpt>
      <trkpt lat="47.10633" lon="6.13586">
        <ele>339.654</ele>
        <time>2022-10-10T12:27:30Z</time>
      </trkpt>
      <trkpt lat="47.10631" lon="6.13578">
        <ele>339.656</ele>
        <time>2022-10-10T12:27:31Z</time>
      </trkpt>
      <trkpt lat="47.10626" lon="6.13552">
        <ele>339.811</ele>
        <time>2022-10-10T12:27:34Z</time>
      </trkpt>
      <trkpt lat="47.10624" lon="6.13543">
        <ele>340.009</ele>
        <time>2022-10-10T12:27:35Z</time>
      </trkpt>
      <trkpt lat="47.10614" lon="6.13511">
        <ele>341.426</ele>
        <time>2022-10-10T12:27:39Z</time>
      </trkpt>
      <trkpt lat="47.10611" lon="6.13504">
        <ele>341.676</ele>
        <time>2022-10-10T12:27:40Z</time>
      </trkpt>
      <trkpt lat="47.10607" lon="6.13496">
        <ele>341.64</ele>
        <time>2022-10-10T12:27:41Z</time>
      </trkpt>
      <trkpt lat="47.10604" lon="6.13489">
        <ele>341.884</ele>
        <time>2022-10-10T12:27:42Z</time>
      </trkpt>
      <trkpt lat="47.106" lon="6.13482">
        <ele>342.077</ele>
        <time>2022-10-10T12:27:43Z</time>
      </trkpt>
      <trkpt lat="47.10597" lon="6.13475">
        <ele>342.053</ele>
        <time>2022-10-10T12:27:44Z</time>
      </trkpt>
      <trkpt lat="47.10594" lon="6.13467">
        <ele>342.299</ele>
        <time>2022-10-10T12:27:45Z</time>
      </trkpt>
      <trkpt lat="47.10591" lon="6.1346">
        <ele>342.259</ele>
        <time>2022-10-10T12:27:46Z</time>
      </trkpt>
      <trkpt lat="47.10587" lon="6.13453">
        <ele>342.283</ele>
        <time>2022-10-10T12:27:47Z</time>
      </trkpt>
      <trkpt lat="47.10584" lon="6.13446">
        <ele>342.487</ele>
        <time>2022-10-10T12:27:48Z</time>
      </trkpt>
      <trkpt lat="47.1058" lon="6.13439">
        <ele>343.442</ele>
        <time>2022-10-10T12:27:49Z</time>
      </trkpt>
      <trkpt lat="47.10576" lon="6.13432">
        <ele>343.626</ele>
        <time>2022-10-10T12:27:50Z</time>
      </trkpt>
      <trkpt lat="47.10573" lon="6.13425">
        <ele>343.609</ele>
        <time>2022-10-10T12:27:51Z</time>
      </trkpt>
      <trkpt lat="47.1057" lon="6.13417">
        <ele>343.659</ele>
        <time>2022-10-10T12:27:52Z</time>
      </trkpt>
      <trkpt lat="47.10567" lon="6.1341">
        <ele>344.099</ele>
        <time>2022-10-10T12:27:53Z</time>
      </trkpt>
      <trkpt lat="47.10562" lon="6.13401">
        <ele>344.083</ele>
        <time>2022-10-10T12:27:54Z</time>
      </trkpt>
      <trkpt lat="47.1056" lon="6.13396">
        <ele>344.047</ele>
        <time>2022-10-10T12:27:55Z</time>
      </trkpt>
      <trkpt lat="47.10556" lon="6.13389">
        <ele>344.24</ele>
        <time>2022-10-10T12:27:56Z</time>
      </trkpt>
      <trkpt lat="47.10553" lon="6.13381">
        <ele>344.866</ele>
        <time>2022-10-10T12:27:57Z</time>
      </trkpt>
      <trkpt lat="47.1055" lon="6.13374">
        <ele>345.032</ele>
        <time>2022-10-10T12:27:58Z</time>
      </trkpt>
      <trkpt lat="47.10546" lon="6.13367">
        <ele>345.062</ele>
        <time>2022-10-10T12:27:59Z</time>
      </trkpt>
      <trkpt lat="47.10543" lon="6.13359">
        <ele>345.226</ele>
        <time>2022-10-10T12:28:00Z</time>
      </trkpt>
      <trkpt lat="47.10539" lon="6.13352">
        <ele>345.252</ele>
        <time>2022-10-10T12:28:01Z</time>
      </trkpt>
      <trkpt lat="47.10536" lon="6.13344">
        <ele>345.253</ele>
        <time>2022-10-10T12:28:02Z</time>
      </trkpt>
      <trkpt lat="47.10533" lon="6.13337">
        <ele>345.408</ele>
        <time>2022-10-10T12:28:03Z</time>
      </trkpt>
      <trkpt lat="47.1053" lon="6.13329">
        <ele>345.609</ele>
        <time>2022-10-10T12:28:04Z</time>
      </trkpt>
      <trkpt lat="47.10527" lon="6.13321">
        <ele>346.066</ele>
        <time>2022-10-10T12:28:05Z</time>
      </trkpt>
      <trkpt lat="47.10524" lon="6.13313">
        <ele>346.046</ele>
        <time>2022-10-10T12:28:06Z</time>
      </trkpt>
      <trkpt lat="47.10521" lon="6.13305">
        <ele>346.08</ele>
        <time>2022-10-10T12:28:07Z</time>
      </trkpt>
      <trkpt lat="47.10518" lon="6.13298">
        <ele>346.084</ele>
        <time>2022-10-10T12:28:08Z</time>
      </trkpt>
      <trkpt lat="47.10516" lon="6.1329">
        <ele>346.257</ele>
        <time>2022-10-10T12:28:09Z</time>
      </trkpt>
      <trkpt lat="47.10513" lon="6.13282">
        <ele>346.643</ele>
        <time>2022-10-10T12:28:10Z</time>
      </trkpt>
      <trkpt lat="47.1051" lon="6.13275">
        <ele>347.249</ele>
        <time>2022-10-10T12:28:11Z</time>
      </trkpt>
      <trkpt lat="47.10507" lon="6.13267">
        <ele>347.259</ele>
        <time>2022-10-10T12:28:12Z</time>
      </trkpt>
      <trkpt lat="47.10504" lon="6.13259">
        <ele>347.213</ele>
        <time>2022-10-10T12:28:13Z</time>
      </trkpt>
      <trkpt lat="47.10501" lon="6.13251">
        <ele>347.275</ele>
        <time>2022-10-10T12:28:14Z</time>
      </trkpt>
      <trkpt lat="47.10498" lon="6.13243">
        <ele>347.428</ele>
        <time>2022-10-10T12:28:15Z</time>
      </trkpt>
      <trkpt lat="47.10496" lon="6.13235">
        <ele>347.62</ele>
        <time>2022-10-10T12:28:16Z</time>
      </trkpt>
      <trkpt lat="47.10493" lon="6.13227">
        <ele>347.809</ele>
        <time>2022-10-10T12:28:17Z</time>
      </trkpt>
      <trkpt lat="47.1049" lon="6.13217">
        <ele>348.098</ele>
        <time>2022-10-10T12:28:18Z</time>
      </trkpt>
      <trkpt lat="47.10489" lon="6.13208">
        <ele>348.488</ele>
        <time>2022-10-10T12:28:19Z</time>
      </trkpt>
      <trkpt lat="47.10488" lon="6.132">
        <ele>348.462</ele>
        <time>2022-10-10T12:28:20Z</time>
      </trkpt>
      <trkpt lat="47.10487" lon="6.13193">
        <ele>348.666</ele>
        <time>2022-10-10T12:28:21Z</time>
      </trkpt>
      <trkpt lat="47.10487" lon="6.13184">
        <ele>348.689</ele>
        <time>2022-10-10T12:28:22Z</time>
      </trkpt>
      <trkpt lat="47.10487" lon="6.13175">
        <ele>348.845</ele>
        <time>2022-10-10T12:28:23Z</time>
      </trkpt>
      <trkpt lat="47.10487" lon="6.13166">
        <ele>349.011</ele>
        <time>2022-10-10T12:28:24Z</time>
      </trkpt>
      <trkpt lat="47.10488" lon="6.13157">
        <ele>349.071</ele>
        <time>2022-10-10T12:28:25Z</time>
      </trkpt>
      <trkpt lat="47.10489" lon="6.13148">
        <ele>349.635</ele>
        <time>2022-10-10T12:28:26Z</time>
      </trkpt>
      <trkpt lat="47.1049" lon="6.13139">
        <ele>349.644</ele>
        <time>2022-10-10T12:28:27Z</time>
      </trkpt>
      <trkpt lat="47.10493" lon="6.13131">
        <ele>349.605</ele>
        <time>2022-10-10T12:28:28Z</time>
      </trkpt>
      <trkpt lat="47.10495" lon="6.13123">
        <ele>349.815</ele>
        <time>2022-10-10T12:28:29Z</time>
      </trkpt>
      <trkpt lat="47.10498" lon="6.13115">
        <ele>349.809</ele>
        <time>2022-10-10T12:28:30Z</time>
      </trkpt>
      <trkpt lat="47.10501" lon="6.13107">
        <ele>350.455</ele>
        <time>2022-10-10T12:28:31Z</time>
      </trkpt>
      <trkpt lat="47.10505" lon="6.131">
        <ele>350.415</ele>
        <time>2022-10-10T12:28:32Z</time>
      </trkpt>
      <trkpt lat="47.10509" lon="6.13093">
        <ele>350.459</ele>
        <time>2022-10-10T12:28:33Z</time>
      </trkpt>
      <trkpt lat="47.10513" lon="6.13087">
        <ele>350.463</ele>
        <time>2022-10-10T12:28:34Z</time>
      </trkpt>
      <trkpt lat="47.10518" lon="6.13081">
        <ele>350.436</ele>
        <time>2022-10-10T12:28:35Z</time>
      </trkpt>
      <trkpt lat="47.10522" lon="6.13076">
        <ele>351.422</ele>
        <time>2022-10-10T12:28:36Z</time>
      </trkpt>
      <trkpt lat="47.10527" lon="6.1307">
        <ele>351.678</ele>
        <time>2022-10-10T12:28:37Z</time>
      </trkpt>
      <trkpt lat="47.10532" lon="6.13065">
        <ele>351.888</ele>
        <time>2022-10-10T12:28:38Z</time>
      </trkpt>
      <trkpt lat="47.10537" lon="6.13059">
        <ele>352.082</ele>
        <time>2022-10-10T12:28:39Z</time>
      </trkpt>
      <trkpt lat="47.10541" lon="6.13053">
        <ele>352.258</ele>
        <time>2022-10-10T12:28:40Z</time>
      </trkpt>
      <trkpt lat="47.10546" lon="6.13048">
        <ele>352.252</ele>
        <time>2022-10-10T12:28:41Z</time>
      </trkpt>
      <trkpt lat="47.10551" lon="6.13042">
        <ele>352.217</ele>
        <time>2022-10-10T12:28:42Z</time>
      </trkpt>
      <trkpt lat="47.10556" lon="6.13037">
        <ele>352.209</ele>
        <time>2022-10-10T12:28:43Z</time>
      </trkpt>
      <trkpt lat="47.10561" lon="6.13031">
        <ele>352.226</ele>
        <time>2022-10-10T12:28:44Z</time>
      </trkpt>
      <trkpt lat="47.10565" lon="6.13025">
        <ele>352.456</ele>
        <time>2022-10-10T12:28:45Z</time>
      </trkpt>
      <trkpt lat="47.1057" lon="6.13019">
        <ele>353.27</ele>
        <time>2022-10-10T12:28:46Z</time>
      </trkpt>
      <trkpt lat="47.10575" lon="6.13014">
        <ele>353.244</ele>
        <time>2022-10-10T12:28:47Z</time>
      </trkpt>
      <trkpt lat="47.1058" lon="6.13008">
        <ele>353.237</ele>
        <time>2022-10-10T12:28:48Z</time>
      </trkpt>
      <trkpt lat="47.10585" lon="6.13003">
        <ele>353.293</ele>
        <time>2022-10-10T12:28:49Z</time>
      </trkpt>
      <trkpt lat="47.1059" lon="6.12997">
        <ele>353.239</ele>
        <time>2022-10-10T12:28:50Z</time>
      </trkpt>
      <trkpt lat="47.10595" lon="6.12991">
        <ele>353.289</ele>
        <time>2022-10-10T12:28:51Z</time>
      </trkpt>
      <trkpt lat="47.106" lon="6.12985">
        <ele>352.813</ele>
        <time>2022-10-10T12:28:52Z</time>
      </trkpt>
      <trkpt lat="47.10605" lon="6.12978">
        <ele>352.876</ele>
        <time>2022-10-10T12:28:53Z</time>
      </trkpt>
      <trkpt lat="47.1061" lon="6.12972">
        <ele>352.89</ele>
        <time>2022-10-10T12:28:54Z</time>
      </trkpt>
      <trkpt lat="47.10615" lon="6.12967">
        <ele>353.419</ele>
        <time>2022-10-10T12:28:55Z</time>
      </trkpt>
      <trkpt lat="47.1062" lon="6.12962">
        <ele>353.409</ele>
        <time>2022-10-10T12:28:56Z</time>
      </trkpt>
      <trkpt lat="47.10625" lon="6.12956">
        <ele>353.478</ele>
        <time>2022-10-10T12:28:57Z</time>
      </trkpt>
      <trkpt lat="47.1063" lon="6.12949">
        <ele>353.428</ele>
        <time>2022-10-10T12:28:58Z</time>
      </trkpt>
      <trkpt lat="47.10635" lon="6.12943">
        <ele>353.472</ele>
        <time>2022-10-10T12:28:59Z</time>
      </trkpt>
      <trkpt lat="47.1064" lon="6.12937">
        <ele>353.076</ele>
        <time>2022-10-10T12:29:00Z</time>
      </trkpt>
      <trkpt lat="47.10645" lon="6.12931">
        <ele>353.039</ele>
        <time>2022-10-10T12:29:01Z</time>
      </trkpt>
      <trkpt lat="47.1065" lon="6.12925">
        <ele>353.045</ele>
        <time>2022-10-10T12:29:02Z</time>
      </trkpt>
      <trkpt lat="47.10681" lon="6.12889">
        <ele>353.091</ele>
        <time>2022-10-10T12:29:08Z</time>
      </trkpt>
      <trkpt lat="47.10697" lon="6.12871">
        <ele>352.481</ele>
        <time>2022-10-10T12:29:11Z</time>
      </trkpt>
      <trkpt lat="47.10718" lon="6.12845">
        <ele>351.865</ele>
        <time>2022-10-10T12:29:15Z</time>
      </trkpt>
      <trkpt lat="47.10722" lon="6.1284">
        <ele>351.435</ele>
        <time>2022-10-10T12:29:16Z</time>
      </trkpt>
      <trkpt lat="47.10728" lon="6.12833">
        <ele>351.286</ele>
        <time>2022-10-10T12:29:17Z</time>
      </trkpt>
      <trkpt lat="47.10733" lon="6.12828">
        <ele>350.814</ele>
        <time>2022-10-10T12:29:18Z</time>
      </trkpt>
      <trkpt lat="47.10738" lon="6.12822">
        <ele>350.809</ele>
        <time>2022-10-10T12:29:19Z</time>
      </trkpt>
      <trkpt lat="47.10742" lon="6.12818">
        <ele>350.864</ele>
        <time>2022-10-10T12:29:20Z</time>
      </trkpt>
      <trkpt lat="47.10747" lon="6.12812">
        <ele>350.664</ele>
        <time>2022-10-10T12:29:21Z</time>
      </trkpt>
      <trkpt lat="47.10751" lon="6.12807">
        <ele>350.048</ele>
        <time>2022-10-10T12:29:22Z</time>
      </trkpt>
      <trkpt lat="47.10756" lon="6.128">
        <ele>350.022</ele>
        <time>2022-10-10T12:29:23Z</time>
      </trkpt>
      <trkpt lat="47.10765" lon="6.1279">
        <ele>349.855</ele>
        <time>2022-10-10T12:29:25Z</time>
      </trkpt>
      <trkpt lat="47.10773" lon="6.12781">
        <ele>349.411</ele>
        <time>2022-10-10T12:29:27Z</time>
      </trkpt>
      <trkpt lat="47.10778" lon="6.12776">
        <ele>349.237</ele>
        <time>2022-10-10T12:29:28Z</time>
      </trkpt>
      <trkpt lat="47.10782" lon="6.12771">
        <ele>349.267</ele>
        <time>2022-10-10T12:29:29Z</time>
      </trkpt>
      <trkpt lat="47.10786" lon="6.12766">
        <ele>349.241</ele>
        <time>2022-10-10T12:29:30Z</time>
      </trkpt>
      <trkpt lat="47.1079" lon="6.12761">
        <ele>349.267</ele>
        <time>2022-10-10T12:29:31Z</time>
      </trkpt>
      <trkpt lat="47.10803" lon="6.12748">
        <ele>349.281</ele>
        <time>2022-10-10T12:29:34Z</time>
      </trkpt>
      <trkpt lat="47.10808" lon="6.12742">
        <ele>348.419</ele>
        <time>2022-10-10T12:29:35Z</time>
      </trkpt>
      <trkpt lat="47.10812" lon="6.12738">
        <ele>348.409</ele>
        <time>2022-10-10T12:29:36Z</time>
      </trkpt>
      <trkpt lat="47.10817" lon="6.12732">
        <ele>347.447</ele>
        <time>2022-10-10T12:29:37Z</time>
      </trkpt>
      <trkpt lat="47.10826" lon="6.1272">
        <ele>347.037</ele>
        <time>2022-10-10T12:29:39Z</time>
      </trkpt>
      <trkpt lat="47.10836" lon="6.12708">
        <ele>346.881</ele>
        <time>2022-10-10T12:29:41Z</time>
      </trkpt>
      <trkpt lat="47.10847" lon="6.12695">
        <ele>346.655</ele>
        <time>2022-10-10T12:29:43Z</time>
      </trkpt>
      <trkpt lat="47.10852" lon="6.12689">
        <ele>346.678</ele>
        <time>2022-10-10T12:29:44Z</time>
      </trkpt>
      <trkpt lat="47.10883" lon="6.12653">
        <ele>345.674</ele>
        <time>2022-10-10T12:29:50Z</time>
      </trkpt>
      <trkpt lat="47.10894" lon="6.1264">
        <ele>344.68</ele>
        <time>2022-10-10T12:29:52Z</time>
      </trkpt>
      <trkpt lat="47.10909" lon="6.12622">
        <ele>344.63</ele>
        <time>2022-10-10T12:29:55Z</time>
      </trkpt>
      <trkpt lat="47.1092" lon="6.1261">
        <ele>344.684</ele>
        <time>2022-10-10T12:29:57Z</time>
      </trkpt>
      <trkpt lat="47.10926" lon="6.12605">
        <ele>343.825</ele>
        <time>2022-10-10T12:29:58Z</time>
      </trkpt>
      <trkpt lat="47.10932" lon="6.12601">
        <ele>343.826</ele>
        <time>2022-10-10T12:29:59Z</time>
      </trkpt>
      <trkpt lat="47.10938" lon="6.12597">
        <ele>343.808</ele>
        <time>2022-10-10T12:30:00Z</time>
      </trkpt>
      <trkpt lat="47.10942" lon="6.12592">
        <ele>343.809</ele>
        <time>2022-10-10T12:30:01Z</time>
      </trkpt>
      <trkpt lat="47.10945" lon="6.12585">
        <ele>343.843</ele>
        <time>2022-10-10T12:30:02Z</time>
      </trkpt>
      <trkpt lat="47.10946" lon="6.12576">
        <ele>343.853</ele>
        <time>2022-10-10T12:30:03Z</time>
      </trkpt>
      <trkpt lat="47.10948" lon="6.12558">
        <ele>343.837</ele>
        <time>2022-10-10T12:30:05Z</time>
      </trkpt>
      <trkpt lat="47.1095" lon="6.12549">
        <ele>342.861</ele>
        <time>2022-10-10T12:30:06Z</time>
      </trkpt>
      <trkpt lat="47.10953" lon="6.1254">
        <ele>342.694</ele>
        <time>2022-10-10T12:30:07Z</time>
      </trkpt>
      <trkpt lat="47.10957" lon="6.12533">
        <ele>342.06</ele>
        <time>2022-10-10T12:30:08Z</time>
      </trkpt>
      <trkpt lat="47.10962" lon="6.12526">
        <ele>341.446</ele>
        <time>2022-10-10T12:30:09Z</time>
      </trkpt>
      <trkpt lat="47.10976" lon="6.12505">
        <ele>341.236</ele>
        <time>2022-10-10T12:30:12Z</time>
      </trkpt>
      <trkpt lat="47.10981" lon="6.12498">
        <ele>341.21</ele>
        <time>2022-10-10T12:30:13Z</time>
      </trkpt>
      <trkpt lat="47.10986" lon="6.12491">
        <ele>341.234</ele>
        <time>2022-10-10T12:30:14Z</time>
      </trkpt>
      <trkpt lat="47.1099" lon="6.12484">
        <ele>341.255</ele>
        <time>2022-10-10T12:30:15Z</time>
      </trkpt>
      <trkpt lat="47.10994" lon="6.12477">
        <ele>341.61</ele>
        <time>2022-10-10T12:30:16Z</time>
      </trkpt>
      <trkpt lat="47.10998" lon="6.12469">
        <ele>341.609</ele>
        <time>2022-10-10T12:30:17Z</time>
      </trkpt>
      <trkpt lat="47.11002" lon="6.12463">
        <ele>341.894</ele>
        <time>2022-10-10T12:30:18Z</time>
      </trkpt>
      <trkpt lat="47.11009" lon="6.1245">
        <ele>342.634</ele>
        <time>2022-10-10T12:30:20Z</time>
      </trkpt>
      <trkpt lat="47.11013" lon="6.12442">
        <ele>342.838</ele>
        <time>2022-10-10T12:30:21Z</time>
      </trkpt>
      <trkpt lat="47.11016" lon="6.12435">
        <ele>342.872</ele>
        <time>2022-10-10T12:30:22Z</time>
      </trkpt>
      <trkpt lat="47.11046" lon="6.12364">
        <ele>342.485</ele>
        <time>2022-10-10T12:30:31Z</time>
      </trkpt>
      <trkpt lat="47.11054" lon="6.12348">
        <ele>342.431</ele>
        <time>2022-10-10T12:30:33Z</time>
      </trkpt>
      <trkpt lat="47.11057" lon="6.12341">
        <ele>342.457</ele>
        <time>2022-10-10T12:30:34Z</time>
      </trkpt>
      <trkpt lat="47.11061" lon="6.12333">
        <ele>342.247</ele>
        <time>2022-10-10T12:30:35Z</time>
      </trkpt>
      <trkpt lat="47.11091" lon="6.12258">
        <ele>342.681</ele>
        <time>2022-10-10T12:30:44Z</time>
      </trkpt>
      <trkpt lat="47.11093" lon="6.1225">
        <ele>342.854</ele>
        <time>2022-10-10T12:30:45Z</time>
      </trkpt>
      <trkpt lat="47.11098" lon="6.12232">
        <ele>342.856</ele>
        <time>2022-10-10T12:30:47Z</time>
      </trkpt>
      <trkpt lat="47.111" lon="6.12225">
        <ele>342.811</ele>
        <time>2022-10-10T12:30:48Z</time>
      </trkpt>
      <trkpt lat="47.11102" lon="6.12214">
        <ele>342.809</ele>
        <time>2022-10-10T12:30:49Z</time>
      </trkpt>
      <trkpt lat="47.11107" lon="6.12196">
        <ele>342.636</ele>
        <time>2022-10-10T12:30:51Z</time>
      </trkpt>
      <trkpt lat="47.11114" lon="6.12162">
        <ele>342.886</ele>
        <time>2022-10-10T12:30:55Z</time>
      </trkpt>
      <trkpt lat="47.11116" lon="6.12153">
        <ele>342.87</ele>
        <time>2022-10-10T12:30:56Z</time>
      </trkpt>
      <trkpt lat="47.11119" lon="6.12134">
        <ele>342.834</ele>
        <time>2022-10-10T12:30:58Z</time>
      </trkpt>
      <trkpt lat="47.11121" lon="6.12125">
        <ele>342.837</ele>
        <time>2022-10-10T12:30:59Z</time>
      </trkpt>
      <trkpt lat="47.11123" lon="6.12116">
        <ele>342.633</ele>
        <time>2022-10-10T12:31:00Z</time>
      </trkpt>
      <trkpt lat="47.11131" lon="6.1208">
        <ele>342.649</ele>
        <time>2022-10-10T12:31:04Z</time>
      </trkpt>
      <trkpt lat="47.11138" lon="6.12043">
        <ele>342.699</ele>
        <time>2022-10-10T12:31:08Z</time>
      </trkpt>
      <trkpt lat="47.11144" lon="6.12017">
        <ele>342.653</ele>
        <time>2022-10-10T12:31:11Z</time>
      </trkpt>
      <trkpt lat="47.11152" lon="6.11981">
        <ele>342.449</ele>
        <time>2022-10-10T12:31:15Z</time>
      </trkpt>
      <trkpt lat="47.11154" lon="6.1197">
        <ele>342.402</ele>
        <time>2022-10-10T12:31:16Z</time>
      </trkpt>
      <trkpt lat="47.11157" lon="6.11954">
        <ele>342.422</ele>
        <time>2022-10-10T12:31:18Z</time>
      </trkpt>
      <trkpt lat="47.1116" lon="6.11944">
        <ele>342.609</ele>
        <time>2022-10-10T12:31:19Z</time>
      </trkpt>
      <trkpt lat="47.11161" lon="6.11937">
        <ele>342.425</ele>
        <time>2022-10-10T12:31:20Z</time>
      </trkpt>
      <trkpt lat="47.11164" lon="6.11927">
        <ele>342.435</ele>
        <time>2022-10-10T12:31:21Z</time>
      </trkpt>
      <trkpt lat="47.11171" lon="6.11903">
        <ele>342.639</ele>
        <time>2022-10-10T12:31:24Z</time>
      </trkpt>
      <trkpt lat="47.11173" lon="6.11894">
        <ele>342.643</ele>
        <time>2022-10-10T12:31:25Z</time>
      </trkpt>
      <trkpt lat="47.11175" lon="6.11876">
        <ele>342.816</ele>
        <time>2022-10-10T12:31:27Z</time>
      </trkpt>
      <trkpt lat="47.11177" lon="6.11867">
        <ele>342.822</ele>
        <time>2022-10-10T12:31:28Z</time>
      </trkpt>
      <trkpt lat="47.11178" lon="6.11858">
        <ele>342.648</ele>
        <time>2022-10-10T12:31:29Z</time>
      </trkpt>
      <trkpt lat="47.11182" lon="6.1183">
        <ele>342.838</ele>
        <time>2022-10-10T12:31:32Z</time>
      </trkpt>
      <trkpt lat="47.11184" lon="6.1182">
        <ele>342.862</ele>
        <time>2022-10-10T12:31:33Z</time>
      </trkpt>
      <trkpt lat="47.11185" lon="6.11814">
        <ele>343.224</ele>
        <time>2022-10-10T12:31:34Z</time>
      </trkpt>
      <trkpt lat="47.11187" lon="6.11807">
        <ele>344.204</ele>
        <time>2022-10-10T12:31:35Z</time>
      </trkpt>
      <trkpt lat="47.11189" lon="6.11801">
        <ele>344.414</ele>
        <time>2022-10-10T12:31:36Z</time>
      </trkpt>
      <trkpt lat="47.11191" lon="6.11796">
        <ele>345.409</ele>
        <time>2022-10-10T12:31:37Z</time>
      </trkpt>
      <trkpt lat="47.11193" lon="6.11791">
        <ele>345.483</ele>
        <time>2022-10-10T12:31:38Z</time>
      </trkpt>
      <trkpt lat="47.11196" lon="6.11784">
        <ele>345.433</ele>
        <time>2022-10-10T12:31:39Z</time>
      </trkpt>
      <trkpt lat="47.11202" lon="6.11765">
        <ele>344.657</ele>
        <time>2022-10-10T12:31:42Z</time>
      </trkpt>
      <trkpt lat="47.11205" lon="6.11756">
        <ele>343.631</ele>
        <time>2022-10-10T12:31:43Z</time>
      </trkpt>
      <trkpt lat="47.11209" lon="6.11748">
        <ele>342.854</ele>
        <time>2022-10-10T12:31:44Z</time>
      </trkpt>
      <trkpt lat="47.11216" lon="6.11732">
        <ele>342.67</ele>
        <time>2022-10-10T12:31:46Z</time>
      </trkpt>
      <trkpt lat="47.11219" lon="6.11725">
        <ele>342.626</ele>
        <time>2022-10-10T12:31:47Z</time>
      </trkpt>
      <trkpt lat="47.11236" lon="6.11693">
        <ele>342.626</ele>
        <time>2022-10-10T12:31:51Z</time>
      </trkpt>
      <trkpt lat="47.11243" lon="6.1168">
        <ele>342.65</ele>
        <time>2022-10-10T12:31:53Z</time>
      </trkpt>
      <trkpt lat="47.11248" lon="6.11673">
        <ele>342.648</ele>
        <time>2022-10-10T12:31:54Z</time>
      </trkpt>
      <trkpt lat="47.11266" lon="6.11647">
        <ele>342.461</ele>
        <time>2022-10-10T12:31:58Z</time>
      </trkpt>
      <trkpt lat="47.11271" lon="6.11641">
        <ele>342.417</ele>
        <time>2022-10-10T12:31:59Z</time>
      </trkpt>
      <trkpt lat="47.11276" lon="6.11636">
        <ele>342.409</ele>
        <time>2022-10-10T12:32:00Z</time>
      </trkpt>
      <trkpt lat="47.11286" lon="6.11625">
        <ele>342.885</ele>
        <time>2022-10-10T12:32:02Z</time>
      </trkpt>
      <trkpt lat="47.11297" lon="6.11615">
        <ele>343.885</ele>
        <time>2022-10-10T12:32:04Z</time>
      </trkpt>
      <trkpt lat="47.11314" lon="6.11602">
        <ele>344.069</ele>
        <time>2022-10-10T12:32:07Z</time>
      </trkpt>
      <trkpt lat="47.1132" lon="6.11598">
        <ele>344.043</ele>
        <time>2022-10-10T12:32:08Z</time>
      </trkpt>
      <trkpt lat="47.11343" lon="6.11582">
        <ele>345.236</ele>
        <time>2022-10-10T12:32:12Z</time>
      </trkpt>
      <trkpt lat="47.11361" lon="6.11574">
        <ele>345.282</ele>
        <time>2022-10-10T12:32:15Z</time>
      </trkpt>
      <trkpt lat="47.1138" lon="6.11568">
        <ele>344.818</ele>
        <time>2022-10-10T12:32:18Z</time>
      </trkpt>
      <trkpt lat="47.11411" lon="6.11561">
        <ele>344.868</ele>
        <time>2022-10-10T12:32:23Z</time>
      </trkpt>
      <trkpt lat="47.11455" lon="6.1156">
        <ele>345.022</ele>
        <time>2022-10-10T12:32:30Z</time>
      </trkpt>
      <trkpt lat="47.11462" lon="6.1156">
        <ele>345.277</ele>
        <time>2022-10-10T12:32:31Z</time>
      </trkpt>
      <trkpt lat="47.11468" lon="6.11561">
        <ele>345.661</ele>
        <time>2022-10-10T12:32:32Z</time>
      </trkpt>
      <trkpt lat="47.11474" lon="6.11562">
        <ele>346.227</ele>
        <time>2022-10-10T12:32:33Z</time>
      </trkpt>
      <trkpt lat="47.11517" lon="6.11576">
        <ele>347.009</ele>
        <time>2022-10-10T12:32:40Z</time>
      </trkpt>
      <trkpt lat="47.11524" lon="6.11578">
        <ele>347.228</ele>
        <time>2022-10-10T12:32:41Z</time>
      </trkpt>
      <trkpt lat="47.1153" lon="6.11581">
        <ele>347.648</ele>
        <time>2022-10-10T12:32:42Z</time>
      </trkpt>
      <trkpt lat="47.11536" lon="6.11584">
        <ele>347.642</ele>
        <time>2022-10-10T12:32:43Z</time>
      </trkpt>
      <trkpt lat="47.11542" lon="6.11587">
        <ele>347.876</ele>
        <time>2022-10-10T12:32:44Z</time>
      </trkpt>
      <trkpt lat="47.11548" lon="6.1159">
        <ele>348.259</ele>
        <time>2022-10-10T12:32:45Z</time>
      </trkpt>
      <trkpt lat="47.11554" lon="6.11593">
        <ele>348.215</ele>
        <time>2022-10-10T12:32:46Z</time>
      </trkpt>
      <trkpt lat="47.1156" lon="6.11597">
        <ele>348.281</ele>
        <time>2022-10-10T12:32:47Z</time>
      </trkpt>
      <trkpt lat="47.11565" lon="6.116">
        <ele>348.231</ele>
        <time>2022-10-10T12:32:48Z</time>
      </trkpt>
      <trkpt lat="47.1157" lon="6.11604">
        <ele>348.425</ele>
        <time>2022-10-10T12:32:49Z</time>
      </trkpt>
      <trkpt lat="47.11575" lon="6.11608">
        <ele>348.642</ele>
        <time>2022-10-10T12:32:50Z</time>
      </trkpt>
      <trkpt lat="47.1158" lon="6.11613">
        <ele>348.622</ele>
        <time>2022-10-10T12:32:51Z</time>
      </trkpt>
      <trkpt lat="47.11585" lon="6.11618">
        <ele>348.614</ele>
        <time>2022-10-10T12:32:52Z</time>
      </trkpt>
      <trkpt lat="47.11591" lon="6.11622">
        <ele>348.609</ele>
        <time>2022-10-10T12:32:53Z</time>
      </trkpt>
      <trkpt lat="47.11596" lon="6.11627">
        <ele>348.895</ele>
        <time>2022-10-10T12:32:54Z</time>
      </trkpt>
      <trkpt lat="47.11602" lon="6.11632">
        <ele>349.095</ele>
        <time>2022-10-10T12:32:55Z</time>
      </trkpt>
      <trkpt lat="47.11607" lon="6.11636">
        <ele>349.069</ele>
        <time>2022-10-10T12:32:56Z</time>
      </trkpt>
      <trkpt lat="47.11613" lon="6.11641">
        <ele>349.013</ele>
        <time>2022-10-10T12:32:57Z</time>
      </trkpt>
      <trkpt lat="47.11618" lon="6.11646">
        <ele>349.256</ele>
        <time>2022-10-10T12:32:58Z</time>
      </trkpt>
      <trkpt lat="47.11623" lon="6.11651">
        <ele>349.272</ele>
        <time>2022-10-10T12:32:59Z</time>
      </trkpt>
      <trkpt lat="47.11628" lon="6.11656">
        <ele>349.868</ele>
        <time>2022-10-10T12:33:00Z</time>
      </trkpt>
      <trkpt lat="47.11634" lon="6.11661">
        <ele>349.838</ele>
        <time>2022-10-10T12:33:01Z</time>
      </trkpt>
      <trkpt lat="47.11639" lon="6.11666">
        <ele>350.292</ele>
        <time>2022-10-10T12:33:02Z</time>
      </trkpt>
      <trkpt lat="47.11645" lon="6.11671">
        <ele>350.277</ele>
        <time>2022-10-10T12:33:03Z</time>
      </trkpt>
      <trkpt lat="47.1165" lon="6.11676">
        <ele>350.261</ele>
        <time>2022-10-10T12:33:04Z</time>
      </trkpt>
      <trkpt lat="47.11655" lon="6.11681">
        <ele>350.627</ele>
        <time>2022-10-10T12:33:05Z</time>
      </trkpt>
      <trkpt lat="47.1166" lon="6.11686">
        <ele>350.809</ele>
        <time>2022-10-10T12:33:06Z</time>
      </trkpt>
      <trkpt lat="47.11665" lon="6.11691">
        <ele>350.858</ele>
        <time>2022-10-10T12:33:07Z</time>
      </trkpt>
      <trkpt lat="47.11671" lon="6.11696">
        <ele>351.268</ele>
        <time>2022-10-10T12:33:08Z</time>
      </trkpt>
      <trkpt lat="47.11676" lon="6.11701">
        <ele>351.262</ele>
        <time>2022-10-10T12:33:09Z</time>
      </trkpt>
      <trkpt lat="47.11681" lon="6.11706">
        <ele>351.686</ele>
        <time>2022-10-10T12:33:10Z</time>
      </trkpt>
      <trkpt lat="47.11687" lon="6.11711">
        <ele>351.639</ele>
        <time>2022-10-10T12:33:11Z</time>
      </trkpt>
      <trkpt lat="47.11692" lon="6.11716">
        <ele>351.685</ele>
        <time>2022-10-10T12:33:12Z</time>
      </trkpt>
      <trkpt lat="47.11696" lon="6.11721">
        <ele>351.841</ele>
        <time>2022-10-10T12:33:13Z</time>
      </trkpt>
      <trkpt lat="47.11701" lon="6.11726">
        <ele>352.241</ele>
        <time>2022-10-10T12:33:14Z</time>
      </trkpt>
      <trkpt lat="47.11707" lon="6.11732">
        <ele>352.485</ele>
        <time>2022-10-10T12:33:15Z</time>
      </trkpt>
      <trkpt lat="47.11712" lon="6.11736">
        <ele>352.468</ele>
        <time>2022-10-10T12:33:16Z</time>
      </trkpt>
      <trkpt lat="47.11718" lon="6.11741">
        <ele>352.642</ele>
        <time>2022-10-10T12:33:17Z</time>
      </trkpt>
      <trkpt lat="47.11723" lon="6.11746">
        <ele>352.826</ele>
        <time>2022-10-10T12:33:18Z</time>
      </trkpt>
      <trkpt lat="47.11728" lon="6.11751">
        <ele>352.809</ele>
        <time>2022-10-10T12:33:19Z</time>
      </trkpt>
      <trkpt lat="47.11733" lon="6.11756">
        <ele>352.827</ele>
        <time>2022-10-10T12:33:20Z</time>
      </trkpt>
      <trkpt lat="47.11738" lon="6.11761">
        <ele>353.487</ele>
        <time>2022-10-10T12:33:21Z</time>
      </trkpt>
      <trkpt lat="47.11743" lon="6.11765">
        <ele>353.431</ele>
        <time>2022-10-10T12:33:22Z</time>
      </trkpt>
      <trkpt lat="47.11748" lon="6.1177">
        <ele>353.625</ele>
        <time>2022-10-10T12:33:23Z</time>
      </trkpt>
      <trkpt lat="47.11752" lon="6.11774">
        <ele>353.688</ele>
        <time>2022-10-10T12:33:24Z</time>
      </trkpt>
      <trkpt lat="47.11759" lon="6.11779">
        <ele>353.684</ele>
        <time>2022-10-10T12:33:25Z</time>
      </trkpt>
      <trkpt lat="47.11765" lon="6.11783">
        <ele>354.08</ele>
        <time>2022-10-10T12:33:26Z</time>
      </trkpt>
      <trkpt lat="47.1177" lon="6.11786">
        <ele>354.29</ele>
        <time>2022-10-10T12:33:27Z</time>
      </trkpt>
      <trkpt lat="47.11775" lon="6.11789">
        <ele>354.844</ele>
        <time>2022-10-10T12:33:28Z</time>
      </trkpt>
      <trkpt lat="47.11781" lon="6.11793">
        <ele>355.063</ele>
        <time>2022-10-10T12:33:29Z</time>
      </trkpt>
      <trkpt lat="47.11788" lon="6.11797">
        <ele>355.244</ele>
        <time>2022-10-10T12:33:30Z</time>
      </trkpt>
      <trkpt lat="47.11794" lon="6.11799">
        <ele>355.418</ele>
        <time>2022-10-10T12:33:31Z</time>
      </trkpt>
      <trkpt lat="47.118" lon="6.11801">
        <ele>355.409</ele>
        <time>2022-10-10T12:33:32Z</time>
      </trkpt>
      <trkpt lat="47.11805" lon="6.11803">
        <ele>355.637</ele>
        <time>2022-10-10T12:33:33Z</time>
      </trkpt>
      <trkpt lat="47.11811" lon="6.11806">
        <ele>355.897</ele>
        <time>2022-10-10T12:33:34Z</time>
      </trkpt>
      <trkpt lat="47.11818" lon="6.11809">
        <ele>356.041</ele>
        <time>2022-10-10T12:33:35Z</time>
      </trkpt>
      <trkpt lat="47.11823" lon="6.11812">
        <ele>356.265</ele>
        <time>2022-10-10T12:33:36Z</time>
      </trkpt>
      <trkpt lat="47.1183" lon="6.11815">
        <ele>356.268</ele>
        <time>2022-10-10T12:33:37Z</time>
      </trkpt>
      <trkpt lat="47.11835" lon="6.11817">
        <ele>356.684</ele>
        <time>2022-10-10T12:33:38Z</time>
      </trkpt>
      <trkpt lat="47.11841" lon="6.11819">
        <ele>357.22</ele>
        <time>2022-10-10T12:33:39Z</time>
      </trkpt>
      <trkpt lat="47.11847" lon="6.11822">
        <ele>357.47</ele>
        <time>2022-10-10T12:33:40Z</time>
      </trkpt>
      <trkpt lat="47.11855" lon="6.11826">
        <ele>357.884</ele>
        <time>2022-10-10T12:33:41Z</time>
      </trkpt>
      <trkpt lat="47.11861" lon="6.11828">
        <ele>358.023</ele>
        <time>2022-10-10T12:33:42Z</time>
      </trkpt>
      <trkpt lat="47.11865" lon="6.1183">
        <ele>358.083</ele>
        <time>2022-10-10T12:33:43Z</time>
      </trkpt>
      <trkpt lat="47.11872" lon="6.11833">
        <ele>358.011</ele>
        <time>2022-10-10T12:33:44Z</time>
      </trkpt>
      <trkpt lat="47.11878" lon="6.11837">
        <ele>358.209</ele>
        <time>2022-10-10T12:33:45Z</time>
      </trkpt>
      <trkpt lat="47.11884" lon="6.11839">
        <ele>358.223</ele>
        <time>2022-10-10T12:33:46Z</time>
      </trkpt>
      <trkpt lat="47.1189" lon="6.11842">
        <ele>358.233</ele>
        <time>2022-10-10T12:33:47Z</time>
      </trkpt>
      <trkpt lat="47.11896" lon="6.11846">
        <ele>358.677</ele>
        <time>2022-10-10T12:33:48Z</time>
      </trkpt>
      <trkpt lat="47.11902" lon="6.11849">
        <ele>358.651</ele>
        <time>2022-10-10T12:33:49Z</time>
      </trkpt>
      <trkpt lat="47.11908" lon="6.11853">
        <ele>359.044</ele>
        <time>2022-10-10T12:33:50Z</time>
      </trkpt>
      <trkpt lat="47.11914" lon="6.11857">
        <ele>359.06</ele>
        <time>2022-10-10T12:33:51Z</time>
      </trkpt>
      <trkpt lat="47.11919" lon="6.1186">
        <ele>359.286</ele>
        <time>2022-10-10T12:33:52Z</time>
      </trkpt>
      <trkpt lat="47.11925" lon="6.11865">
        <ele>359.426</ele>
        <time>2022-10-10T12:33:53Z</time>
      </trkpt>
      <trkpt lat="47.11931" lon="6.11869">
        <ele>359.45</ele>
        <time>2022-10-10T12:33:54Z</time>
      </trkpt>
      <trkpt lat="47.11937" lon="6.11874">
        <ele>359.463</ele>
        <time>2022-10-10T12:33:55Z</time>
      </trkpt>
      <trkpt lat="47.11942" lon="6.11879">
        <ele>359.644</ele>
        <time>2022-10-10T12:33:56Z</time>
      </trkpt>
      <trkpt lat="47.11948" lon="6.11883">
        <ele>359.618</ele>
        <time>2022-10-10T12:33:57Z</time>
      </trkpt>
      <trkpt lat="47.11953" lon="6.11888">
        <ele>359.609</ele>
        <time>2022-10-10T12:33:58Z</time>
      </trkpt>
      <trkpt lat="47.11958" lon="6.11894">
        <ele>359.817</ele>
        <time>2022-10-10T12:33:59Z</time>
      </trkpt>
      <trkpt lat="47.11963" lon="6.11899">
        <ele>359.867</ele>
        <time>2022-10-10T12:34:00Z</time>
      </trkpt>
      <trkpt lat="47.11968" lon="6.11905">
        <ele>360.241</ele>
        <time>2022-10-10T12:34:01Z</time>
      </trkpt>
      <trkpt lat="47.11973" lon="6.11912">
        <ele>360.245</ele>
        <time>2022-10-10T12:34:02Z</time>
      </trkpt>
      <trkpt lat="47.11978" lon="6.11918">
        <ele>360.248</ele>
        <time>2022-10-10T12:34:03Z</time>
      </trkpt>
      <trkpt lat="47.11983" lon="6.11924">
        <ele>360.434</ele>
        <time>2022-10-10T12:34:04Z</time>
      </trkpt>
      <trkpt lat="47.11987" lon="6.11931">
        <ele>360.81</ele>
        <time>2022-10-10T12:34:05Z</time>
      </trkpt>
      <trkpt lat="47.11992" lon="6.11937">
        <ele>361.28</ele>
        <time>2022-10-10T12:34:06Z</time>
      </trkpt>
      <trkpt lat="47.11996" lon="6.11944">
        <ele>361.464</ele>
        <time>2022-10-10T12:34:07Z</time>
      </trkpt>
      <trkpt lat="47.12" lon="6.1195">
        <ele>362.026</ele>
        <time>2022-10-10T12:34:08Z</time>
      </trkpt>
      <trkpt lat="47.12005" lon="6.11957">
        <ele>362.047</ele>
        <time>2022-10-10T12:34:09Z</time>
      </trkpt>
      <trkpt lat="47.12009" lon="6.11964">
        <ele>362.411</ele>
        <time>2022-10-10T12:34:10Z</time>
      </trkpt>
      <trkpt lat="47.12013" lon="6.11971">
        <ele>362.609</ele>
        <time>2022-10-10T12:34:11Z</time>
      </trkpt>
      <trkpt lat="47.12017" lon="6.11978">
        <ele>362.833</ele>
        <time>2022-10-10T12:34:12Z</time>
      </trkpt>
      <trkpt lat="47.12021" lon="6.11984">
        <ele>362.873</ele>
        <time>2022-10-10T12:34:13Z</time>
      </trkpt>
      <trkpt lat="47.12025" lon="6.11991">
        <ele>363.067</ele>
        <time>2022-10-10T12:34:14Z</time>
      </trkpt>
      <trkpt lat="47.1203" lon="6.11998">
        <ele>363.091</ele>
        <time>2022-10-10T12:34:15Z</time>
      </trkpt>
      <trkpt lat="47.12034" lon="6.12004">
        <ele>363.284</ele>
        <time>2022-10-10T12:34:16Z</time>
      </trkpt>
      <trkpt lat="47.12038" lon="6.1201">
        <ele>363.65</ele>
        <time>2022-10-10T12:34:17Z</time>
      </trkpt>
      <trkpt lat="47.12043" lon="6.12017">
        <ele>363.856</ele>
        <time>2022-10-10T12:34:18Z</time>
      </trkpt>
      <trkpt lat="47.12047" lon="6.12023">
        <ele>364.446</ele>
        <time>2022-10-10T12:34:19Z</time>
      </trkpt>
      <trkpt lat="47.12052" lon="6.1203">
        <ele>364.44</ele>
        <time>2022-10-10T12:34:20Z</time>
      </trkpt>
      <trkpt lat="47.12056" lon="6.12036">
        <ele>364.818</ele>
        <time>2022-10-10T12:34:21Z</time>
      </trkpt>
      <trkpt lat="47.12061" lon="6.12042">
        <ele>365.098</ele>
        <time>2022-10-10T12:34:22Z</time>
      </trkpt>
      <trkpt lat="47.12066" lon="6.12048">
        <ele>365.217</ele>
        <time>2022-10-10T12:34:23Z</time>
      </trkpt>
      <trkpt lat="47.12071" lon="6.12054">
        <ele>365.209</ele>
        <time>2022-10-10T12:34:24Z</time>
      </trkpt>
      <trkpt lat="47.12075" lon="6.1206">
        <ele>365.232</ele>
        <time>2022-10-10T12:34:25Z</time>
      </trkpt>
      <trkpt lat="47.1208" lon="6.12065">
        <ele>365.632</ele>
        <time>2022-10-10T12:34:26Z</time>
      </trkpt>
      <trkpt lat="47.12085" lon="6.1207">
        <ele>365.886</ele>
        <time>2022-10-10T12:34:27Z</time>
      </trkpt>
      <trkpt lat="47.12091" lon="6.12075">
        <ele>365.87</ele>
        <time>2022-10-10T12:34:28Z</time>
      </trkpt>
      <trkpt lat="47.12098" lon="6.1208">
        <ele>366.253</ele>
        <time>2022-10-10T12:34:29Z</time>
      </trkpt>
      <trkpt lat="47.12104" lon="6.12085">
        <ele>366.669</ele>
        <time>2022-10-10T12:34:30Z</time>
      </trkpt>
      <trkpt lat="47.12109" lon="6.1209">
        <ele>366.635</ele>
        <time>2022-10-10T12:34:31Z</time>
      </trkpt>
      <trkpt lat="47.12115" lon="6.12094">
        <ele>366.835</ele>
        <time>2022-10-10T12:34:32Z</time>
      </trkpt>
      <trkpt lat="47.1212" lon="6.12099">
        <ele>366.879</ele>
        <time>2022-10-10T12:34:33Z</time>
      </trkpt>
      <trkpt lat="47.12126" lon="6.12103">
        <ele>367.282</ele>
        <time>2022-10-10T12:34:34Z</time>
      </trkpt>
      <trkpt lat="47.1213" lon="6.12106">
        <ele>367.443</ele>
        <time>2022-10-10T12:34:35Z</time>
      </trkpt>
      <trkpt lat="47.12137" lon="6.1211">
        <ele>367.617</ele>
        <time>2022-10-10T12:34:36Z</time>
      </trkpt>
      <trkpt lat="47.12143" lon="6.12114">
        <ele>368.009</ele>
        <time>2022-10-10T12:34:37Z</time>
      </trkpt>
      <trkpt lat="47.12149" lon="6.12117">
        <ele>368.059</ele>
        <time>2022-10-10T12:34:38Z</time>
      </trkpt>
      <trkpt lat="47.12155" lon="6.12121">
        <ele>368.249</ele>
        <time>2022-10-10T12:34:39Z</time>
      </trkpt>
      <trkpt lat="47.1216" lon="6.12123">
        <ele>368.253</ele>
        <time>2022-10-10T12:34:40Z</time>
      </trkpt>
      <trkpt lat="47.12167" lon="6.12126">
        <ele>368.227</ele>
        <time>2022-10-10T12:34:41Z</time>
      </trkpt>
      <trkpt lat="47.12173" lon="6.12128">
        <ele>368.26</ele>
        <time>2022-10-10T12:34:42Z</time>
      </trkpt>
      <trkpt lat="47.12178" lon="6.12129">
        <ele>368.276</ele>
        <time>2022-10-10T12:34:43Z</time>
      </trkpt>
      <trkpt lat="47.12185" lon="6.12131">
        <ele>368.262</ele>
        <time>2022-10-10T12:34:44Z</time>
      </trkpt>
      <trkpt lat="47.12191" lon="6.12132">
        <ele>368.212</ele>
        <time>2022-10-10T12:34:45Z</time>
      </trkpt>
      <trkpt lat="47.12198" lon="6.12134">
        <ele>368.246</ele>
        <time>2022-10-10T12:34:46Z</time>
      </trkpt>
      <trkpt lat="47.12204" lon="6.12135">
        <ele>368.216</ele>
        <time>2022-10-10T12:34:47Z</time>
      </trkpt>
      <trkpt lat="47.1221" lon="6.12136">
        <ele>368.476</ele>
        <time>2022-10-10T12:34:48Z</time>
      </trkpt>
      <trkpt lat="47.12215" lon="6.12137">
        <ele>368.613</ele>
        <time>2022-10-10T12:34:49Z</time>
      </trkpt>
      <trkpt lat="47.12221" lon="6.12137">
        <ele>369.009</ele>
        <time>2022-10-10T12:34:50Z</time>
      </trkpt>
      <trkpt lat="47.12227" lon="6.12138">
        <ele>369.222</ele>
        <time>2022-10-10T12:34:51Z</time>
      </trkpt>
      <trkpt lat="47.12235" lon="6.12139">
        <ele>369.262</ele>
        <time>2022-10-10T12:34:52Z</time>
      </trkpt>
      <trkpt lat="47.12241" lon="6.12139">
        <ele>369.496</ele>
        <time>2022-10-10T12:34:53Z</time>
      </trkpt>
      <trkpt lat="47.12246" lon="6.12139">
        <ele>369.46</ele>
        <time>2022-10-10T12:34:54Z</time>
      </trkpt>
      <trkpt lat="47.12254" lon="6.1214">
        <ele>369.653</ele>
        <time>2022-10-10T12:34:55Z</time>
      </trkpt>
      <trkpt lat="47.12259" lon="6.12141">
        <ele>369.859</ele>
        <time>2022-10-10T12:34:56Z</time>
      </trkpt>
      <trkpt lat="47.12265" lon="6.12142">
        <ele>369.865</ele>
        <time>2022-10-10T12:34:57Z</time>
      </trkpt>
      <trkpt lat="47.12271" lon="6.12142">
        <ele>370.425</ele>
        <time>2022-10-10T12:34:58Z</time>
      </trkpt>
      <trkpt lat="47.12277" lon="6.12143">
        <ele>370.489</ele>
        <time>2022-10-10T12:34:59Z</time>
      </trkpt>
      <trkpt lat="47.12283" lon="6.12144">
        <ele>370.647</ele>
        <time>2022-10-10T12:35:00Z</time>
      </trkpt>
      <trkpt lat="47.12291" lon="6.12145">
        <ele>370.829</ele>
        <time>2022-10-10T12:35:01Z</time>
      </trkpt>
      <trkpt lat="47.12297" lon="6.12146">
        <ele>371.021</ele>
        <time>2022-10-10T12:35:02Z</time>
      </trkpt>
      <trkpt lat="47.12304" lon="6.12147">
        <ele>371.209</ele>
        <time>2022-10-10T12:35:03Z</time>
      </trkpt>
      <trkpt lat="47.1231" lon="6.12149">
        <ele>371.465</ele>
        <time>2022-10-10T12:35:04Z</time>
      </trkpt>
      <trkpt lat="47.12315" lon="6.1215">
        <ele>371.485</ele>
        <time>2022-10-10T12:35:05Z</time>
      </trkpt>
      <trkpt lat="47.12321" lon="6.12152">
        <ele>371.829</ele>
        <time>2022-10-10T12:35:06Z</time>
      </trkpt>
      <trkpt lat="47.12327" lon="6.12154">
        <ele>372.023</ele>
        <time>2022-10-10T12:35:07Z</time>
      </trkpt>
      <trkpt lat="47.12333" lon="6.12156">
        <ele>372.476</ele>
        <time>2022-10-10T12:35:08Z</time>
      </trkpt>
      <trkpt lat="47.12339" lon="6.12158">
        <ele>372.662</ele>
        <time>2022-10-10T12:35:09Z</time>
      </trkpt>
      <trkpt lat="47.12345" lon="6.1216">
        <ele>372.628</ele>
        <time>2022-10-10T12:35:10Z</time>
      </trkpt>
      <trkpt lat="47.12351" lon="6.12163">
        <ele>372.648</ele>
        <time>2022-10-10T12:35:11Z</time>
      </trkpt>
      <trkpt lat="47.12358" lon="6.12166">
        <ele>372.812</ele>
        <time>2022-10-10T12:35:12Z</time>
      </trkpt>
      <trkpt lat="47.12363" lon="6.12169">
        <ele>373.023</ele>
        <time>2022-10-10T12:35:13Z</time>
      </trkpt>
      <trkpt lat="47.1237" lon="6.12173">
        <ele>373.283</ele>
        <time>2022-10-10T12:35:14Z</time>
      </trkpt>
      <trkpt lat="47.12375" lon="6.12176">
        <ele>373.611</ele>
        <time>2022-10-10T12:35:15Z</time>
      </trkpt>
      <trkpt lat="47.12381" lon="6.12179">
        <ele>373.609</ele>
        <time>2022-10-10T12:35:16Z</time>
      </trkpt>
      <trkpt lat="47.12387" lon="6.12183">
        <ele>373.863</ele>
        <time>2022-10-10T12:35:17Z</time>
      </trkpt>
      <trkpt lat="47.12393" lon="6.12187">
        <ele>374.013</ele>
        <time>2022-10-10T12:35:18Z</time>
      </trkpt>
      <trkpt lat="47.12399" lon="6.12191">
        <ele>374.297</ele>
        <time>2022-10-10T12:35:19Z</time>
      </trkpt>
      <trkpt lat="47.12404" lon="6.12196">
        <ele>374.421</ele>
        <time>2022-10-10T12:35:20Z</time>
      </trkpt>
      <trkpt lat="47.1241" lon="6.122">
        <ele>374.684</ele>
        <time>2022-10-10T12:35:21Z</time>
      </trkpt>
      <trkpt lat="47.12415" lon="6.12205">
        <ele>374.64</ele>
        <time>2022-10-10T12:35:22Z</time>
      </trkpt>
      <trkpt lat="47.1242" lon="6.1221">
        <ele>375.256</ele>
        <time>2022-10-10T12:35:23Z</time>
      </trkpt>
      <trkpt lat="47.12425" lon="6.12215">
        <ele>375.436</ele>
        <time>2022-10-10T12:35:24Z</time>
      </trkpt>
      <trkpt lat="47.12431" lon="6.12221">
        <ele>375.62</ele>
        <time>2022-10-10T12:35:25Z</time>
      </trkpt>
      <trkpt lat="47.12436" lon="6.12226">
        <ele>375.685</ele>
        <time>2022-10-10T12:35:26Z</time>
      </trkpt>
      <trkpt lat="47.12441" lon="6.12232">
        <ele>375.689</ele>
        <time>2022-10-10T12:35:27Z</time>
      </trkpt>
      <trkpt lat="47.12446" lon="6.12237">
        <ele>375.817</ele>
        <time>2022-10-10T12:35:28Z</time>
      </trkpt>
      <trkpt lat="47.12451" lon="6.12243">
        <ele>376.009</ele>
        <time>2022-10-10T12:35:29Z</time>
      </trkpt>
      <trkpt lat="47.12456" lon="6.12249">
        <ele>376.239</ele>
        <time>2022-10-10T12:35:30Z</time>
      </trkpt>
      <trkpt lat="47.12461" lon="6.12254">
        <ele>376.229</ele>
        <time>2022-10-10T12:35:31Z</time>
      </trkpt>
      <trkpt lat="47.12466" lon="6.1226">
        <ele>376.283</ele>
        <time>2022-10-10T12:35:32Z</time>
      </trkpt>
      <trkpt lat="47.12471" lon="6.12266">
        <ele>377.077</ele>
        <time>2022-10-10T12:35:33Z</time>
      </trkpt>
      <trkpt lat="47.12476" lon="6.12271">
        <ele>377.08</ele>
        <time>2022-10-10T12:35:34Z</time>
      </trkpt>
      <trkpt lat="47.12481" lon="6.12277">
        <ele>377.026</ele>
        <time>2022-10-10T12:35:35Z</time>
      </trkpt>
      <trkpt lat="47.12486" lon="6.12282">
        <ele>377.262</ele>
        <time>2022-10-10T12:35:36Z</time>
      </trkpt>
      <trkpt lat="47.12491" lon="6.12287">
        <ele>377.272</ele>
        <time>2022-10-10T12:35:37Z</time>
      </trkpt>
      <trkpt lat="47.12496" lon="6.12292">
        <ele>377.436</ele>
        <time>2022-10-10T12:35:38Z</time>
      </trkpt>
      <trkpt lat="47.12501" lon="6.12297">
        <ele>377.444</ele>
        <time>2022-10-10T12:35:39Z</time>
      </trkpt>
      <trkpt lat="47.12506" lon="6.12302">
        <ele>377.605</ele>
        <time>2022-10-10T12:35:40Z</time>
      </trkpt>
      <trkpt lat="47.12512" lon="6.12306">
        <ele>377.815</ele>
        <time>2022-10-10T12:35:41Z</time>
      </trkpt>
      <trkpt lat="47.12517" lon="6.1231">
        <ele>377.809</ele>
        <time>2022-10-10T12:35:42Z</time>
      </trkpt>
      <trkpt lat="47.12522" lon="6.12315">
        <ele>378.065</ele>
        <time>2022-10-10T12:35:43Z</time>
      </trkpt>
      <trkpt lat="47.12528" lon="6.12319">
        <ele>378.225</ele>
        <time>2022-10-10T12:35:44Z</time>
      </trkpt>
      <trkpt lat="47.12534" lon="6.12322">
        <ele>378.469</ele>
        <time>2022-10-10T12:35:45Z</time>
      </trkpt>
      <trkpt lat="47.12539" lon="6.12326">
        <ele>378.693</ele>
        <time>2022-10-10T12:35:46Z</time>
      </trkpt>
      <trkpt lat="47.12545" lon="6.1233">
        <ele>378.866</ele>
        <time>2022-10-10T12:35:47Z</time>
      </trkpt>
      <trkpt lat="47.12551" lon="6.12333">
        <ele>379.242</ele>
        <time>2022-10-10T12:35:48Z</time>
      </trkpt>
      <trkpt lat="47.12557" lon="6.12336">
        <ele>379.438</ele>
        <time>2022-10-10T12:35:49Z</time>
      </trkpt>
      <trkpt lat="47.12563" lon="6.12339">
        <ele>379.478</ele>
        <time>2022-10-10T12:35:50Z</time>
      </trkpt>
      <trkpt lat="47.12568" lon="6.12342">
        <ele>379.852</ele>
        <time>2022-10-10T12:35:51Z</time>
      </trkpt>
      <trkpt lat="47.12573" lon="6.12346">
        <ele>380.063</ele>
        <time>2022-10-10T12:35:52Z</time>
      </trkpt>
      <trkpt lat="47.12579" lon="6.12349">
        <ele>380.644</ele>
        <time>2022-10-10T12:35:53Z</time>
      </trkpt>
      <trkpt lat="47.12585" lon="6.12353">
        <ele>381.018</ele>
        <time>2022-10-10T12:35:54Z</time>
      </trkpt>
      <trkpt lat="47.1259" lon="6.12356">
        <ele>381.009</ele>
        <time>2022-10-10T12:35:55Z</time>
      </trkpt>
      <trkpt lat="47.12597" lon="6.1236">
        <ele>381.087</ele>
        <time>2022-10-10T12:35:56Z</time>
      </trkpt>
      <trkpt lat="47.12603" lon="6.12363">
        <ele>381.677</ele>
        <time>2022-10-10T12:35:57Z</time>
      </trkpt>
      <trkpt lat="47.12608" lon="6.12365">
        <ele>381.651</ele>
        <time>2022-10-10T12:35:58Z</time>
      </trkpt>
      <trkpt lat="47.12614" lon="6.12368">
        <ele>381.835</ele>
        <time>2022-10-10T12:35:59Z</time>
      </trkpt>
      <trkpt lat="47.1262" lon="6.12371">
        <ele>382.048</ele>
        <time>2022-10-10T12:36:00Z</time>
      </trkpt>
      <trkpt lat="47.12626" lon="6.12373">
        <ele>382.264</ele>
        <time>2022-10-10T12:36:01Z</time>
      </trkpt>
      <trkpt lat="47.12632" lon="6.12375">
        <ele>382.25</ele>
        <time>2022-10-10T12:36:02Z</time>
      </trkpt>
      <trkpt lat="47.12638" lon="6.12378">
        <ele>382.26</ele>
        <time>2022-10-10T12:36:03Z</time>
      </trkpt>
      <trkpt lat="47.12644" lon="6.12381">
        <ele>382.264</ele>
        <time>2022-10-10T12:36:04Z</time>
      </trkpt>
      <trkpt lat="47.12652" lon="6.12383">
        <ele>382.648</ele>
        <time>2022-10-10T12:36:05Z</time>
      </trkpt>
      <trkpt lat="47.12657" lon="6.12385">
        <ele>382.661</ele>
        <time>2022-10-10T12:36:06Z</time>
      </trkpt>
      <trkpt lat="47.12663" lon="6.12386">
        <ele>382.617</ele>
        <time>2022-10-10T12:36:07Z</time>
      </trkpt>
      <trkpt lat="47.12669" lon="6.12388">
        <ele>382.809</ele>
        <time>2022-10-10T12:36:08Z</time>
      </trkpt>
      <trkpt lat="47.12675" lon="6.1239">
        <ele>383.035</ele>
        <time>2022-10-10T12:36:09Z</time>
      </trkpt>
      <trkpt lat="47.12681" lon="6.12391">
        <ele>383.265</ele>
        <time>2022-10-10T12:36:10Z</time>
      </trkpt>
      <trkpt lat="47.12687" lon="6.12393">
        <ele>383.439</ele>
        <time>2022-10-10T12:36:11Z</time>
      </trkpt>
      <trkpt lat="47.12694" lon="6.12395">
        <ele>383.623</ele>
        <time>2022-10-10T12:36:12Z</time>
      </trkpt>
      <trkpt lat="47.12699" lon="6.12396">
        <ele>383.826</ele>
        <time>2022-10-10T12:36:13Z</time>
      </trkpt>
      <trkpt lat="47.12705" lon="6.12398">
        <ele>384.012</ele>
        <time>2022-10-10T12:36:14Z</time>
      </trkpt>
      <trkpt lat="47.12711" lon="6.124">
        <ele>384.248</ele>
        <time>2022-10-10T12:36:15Z</time>
      </trkpt>
      <trkpt lat="47.12716" lon="6.12402">
        <ele>384.888</ele>
        <time>2022-10-10T12:36:16Z</time>
      </trkpt>
      <trkpt lat="47.12721" lon="6.12404">
        <ele>385.232</ele>
        <time>2022-10-10T12:36:17Z</time>
      </trkpt>
      <trkpt lat="47.12725" lon="6.12406">
        <ele>385.669</ele>
        <time>2022-10-10T12:36:18Z</time>
      </trkpt>
      <trkpt lat="47.12729" lon="6.12409">
        <ele>385.804</ele>
        <time>2022-10-10T12:36:19Z</time>
      </trkpt>
      <trkpt lat="47.12733" lon="6.12412">
        <ele>386.224</ele>
        <time>2022-10-10T12:36:20Z</time>
      </trkpt>
      <trkpt lat="47.12735" lon="6.12415">
        <ele>386.409</ele>
        <time>2022-10-10T12:36:21Z</time>
      </trkpt>
      <trkpt lat="47.12738" lon="6.12419">
        <ele>386.887</ele>
        <time>2022-10-10T12:36:22Z</time>
      </trkpt>
      <trkpt lat="47.1274" lon="6.12424">
        <ele>386.867</ele>
        <time>2022-10-10T12:36:23Z</time>
      </trkpt>
      <trkpt lat="47.12742" lon="6.12427">
        <ele>386.861</ele>
        <time>2022-10-10T12:36:24Z</time>
      </trkpt>
      <trkpt lat="47.12745" lon="6.12429">
        <ele>386.895</ele>
        <time>2022-10-10T12:36:25Z</time>
      </trkpt>
      <trkpt lat="47.12748" lon="6.12428">
        <ele>386.828</ele>
        <time>2022-10-10T12:36:26Z</time>
      </trkpt>
      <trkpt lat="47.12752" lon="6.12425">
        <ele>386.854</ele>
        <time>2022-10-10T12:36:27Z</time>
      </trkpt>
      <trkpt lat="47.12757" lon="6.12423">
        <ele>387.07</ele>
        <time>2022-10-10T12:36:28Z</time>
      </trkpt>
      <trkpt lat="47.12761" lon="6.1242">
        <ele>387.03</ele>
        <time>2022-10-10T12:36:29Z</time>
      </trkpt>
      <trkpt lat="47.12766" lon="6.12419">
        <ele>387.034</ele>
        <time>2022-10-10T12:36:30Z</time>
      </trkpt>
      <trkpt lat="47.12771" lon="6.1242">
        <ele>387.036</ele>
        <time>2022-10-10T12:36:31Z</time>
      </trkpt>
      <trkpt lat="47.12777" lon="6.12421">
        <ele>387.017</ele>
        <time>2022-10-10T12:36:32Z</time>
      </trkpt>
      <trkpt lat="47.12782" lon="6.12423">
        <ele>387.018</ele>
        <time>2022-10-10T12:36:33Z</time>
      </trkpt>
      <trkpt lat="47.12788" lon="6.12425">
        <ele>387.009</ele>
        <time>2022-10-10T12:36:34Z</time>
      </trkpt>
      <trkpt lat="47.12793" lon="6.12427">
        <ele>387.244</ele>
        <time>2022-10-10T12:36:35Z</time>
      </trkpt>
      <trkpt lat="47.12799" lon="6.1243">
        <ele>387.444</ele>
        <time>2022-10-10T12:36:36Z</time>
      </trkpt>
      <trkpt lat="47.12804" lon="6.12432">
        <ele>387.468</ele>
        <time>2022-10-10T12:36:37Z</time>
      </trkpt>
      <trkpt lat="47.1281" lon="6.12435">
        <ele>387.832</ele>
        <time>2022-10-10T12:36:38Z</time>
      </trkpt>
      <trkpt lat="47.12816" lon="6.12439">
        <ele>388.035</ele>
        <time>2022-10-10T12:36:39Z</time>
      </trkpt>
      <trkpt lat="47.12821" lon="6.12442">
        <ele>388.251</ele>
        <time>2022-10-10T12:36:40Z</time>
      </trkpt>
      <trkpt lat="47.12826" lon="6.12446">
        <ele>388.247</ele>
        <time>2022-10-10T12:36:41Z</time>
      </trkpt>
      <trkpt lat="47.12832" lon="6.12449">
        <ele>388.877</ele>
        <time>2022-10-10T12:36:42Z</time>
      </trkpt>
      <trkpt lat="47.12837" lon="6.12453">
        <ele>388.861</ele>
        <time>2022-10-10T12:36:43Z</time>
      </trkpt>
      <trkpt lat="47.12842" lon="6.12457">
        <ele>388.828</ele>
        <time>2022-10-10T12:36:44Z</time>
      </trkpt>
      <trkpt lat="47.12848" lon="6.12461">
        <ele>388.889</ele>
        <time>2022-10-10T12:36:45Z</time>
      </trkpt>
      <trkpt lat="47.12853" lon="6.12466">
        <ele>389.017</ele>
        <time>2022-10-10T12:36:46Z</time>
      </trkpt>
      <trkpt lat="47.12858" lon="6.12471">
        <ele>389.209</ele>
        <time>2022-10-10T12:36:47Z</time>
      </trkpt>
      <trkpt lat="47.12863" lon="6.12475">
        <ele>389.263</ele>
        <time>2022-10-10T12:36:48Z</time>
      </trkpt>
      <trkpt lat="47.12868" lon="6.1248">
        <ele>389.493</ele>
        <time>2022-10-10T12:36:49Z</time>
      </trkpt>
      <trkpt lat="47.12873" lon="6.12485">
        <ele>389.657</ele>
        <time>2022-10-10T12:36:50Z</time>
      </trkpt>
      <trkpt lat="47.12877" lon="6.1249">
        <ele>389.631</ele>
        <time>2022-10-10T12:36:51Z</time>
      </trkpt>
      <trkpt lat="47.12882" lon="6.12496">
        <ele>389.654</ele>
        <time>2022-10-10T12:36:52Z</time>
      </trkpt>
      <trkpt lat="47.12887" lon="6.12502">
        <ele>389.62</ele>
        <time>2022-10-10T12:36:53Z</time>
      </trkpt>
      <trkpt lat="47.12892" lon="6.12507">
        <ele>389.856</ele>
        <time>2022-10-10T12:36:54Z</time>
      </trkpt>
      <trkpt lat="47.12896" lon="6.12513">
        <ele>389.876</ele>
        <time>2022-10-10T12:36:55Z</time>
      </trkpt>
      <trkpt lat="47.12901" lon="6.12519">
        <ele>389.88</ele>
        <time>2022-10-10T12:36:56Z</time>
      </trkpt>
      <trkpt lat="47.12905" lon="6.12525">
        <ele>389.882</ele>
        <time>2022-10-10T12:36:57Z</time>
      </trkpt>
      <trkpt lat="47.12909" lon="6.12532">
        <ele>390.243</ele>
        <time>2022-10-10T12:36:58Z</time>
      </trkpt>
      <trkpt lat="47.12913" lon="6.12538">
        <ele>390.417</ele>
        <time>2022-10-10T12:36:59Z</time>
      </trkpt>
      <trkpt lat="47.12918" lon="6.12544">
        <ele>390.409</ele>
        <time>2022-10-10T12:37:00Z</time>
      </trkpt>
      <trkpt lat="47.12922" lon="6.1255">
        <ele>390.859</ele>
        <time>2022-10-10T12:37:01Z</time>
      </trkpt>
      <trkpt lat="47.12926" lon="6.12557">
        <ele>391.059</ele>
        <time>2022-10-10T12:37:02Z</time>
      </trkpt>
      <trkpt lat="47.12929" lon="6.12563">
        <ele>391.273</ele>
        <time>2022-10-10T12:37:03Z</time>
      </trkpt>
      <trkpt lat="47.12933" lon="6.1257">
        <ele>391.487</ele>
        <time>2022-10-10T12:37:04Z</time>
      </trkpt>
      <trkpt lat="47.12937" lon="6.12577">
        <ele>391.83</ele>
        <time>2022-10-10T12:37:05Z</time>
      </trkpt>
      <trkpt lat="47.12941" lon="6.12584">
        <ele>392.296</ele>
        <time>2022-10-10T12:37:06Z</time>
      </trkpt>
      <trkpt lat="47.12945" lon="6.1259">
        <ele>392.482</ele>
        <time>2022-10-10T12:37:07Z</time>
      </trkpt>
      <trkpt lat="47.12949" lon="6.12597">
        <ele>392.882</ele>
        <time>2022-10-10T12:37:08Z</time>
      </trkpt>
      <trkpt lat="47.12953" lon="6.12604">
        <ele>392.836</ele>
        <time>2022-10-10T12:37:09Z</time>
      </trkpt>
      <trkpt lat="47.12957" lon="6.12611">
        <ele>392.847</ele>
        <time>2022-10-10T12:37:10Z</time>
      </trkpt>
      <trkpt lat="47.1296" lon="6.12617">
        <ele>393.029</ele>
        <time>2022-10-10T12:37:11Z</time>
      </trkpt>
      <trkpt lat="47.12964" lon="6.12624">
        <ele>393.021</ele>
        <time>2022-10-10T12:37:12Z</time>
      </trkpt>
      <trkpt lat="47.12968" lon="6.12631">
        <ele>393.009</ele>
        <time>2022-10-10T12:37:13Z</time>
      </trkpt>
      <trkpt lat="47.12971" lon="6.12638">
        <ele>393.475</ele>
        <time>2022-10-10T12:37:14Z</time>
      </trkpt>
      <trkpt lat="47.12975" lon="6.12644">
        <ele>393.875</ele>
        <time>2022-10-10T12:37:15Z</time>
      </trkpt>
      <trkpt lat="47.1298" lon="6.12649">
        <ele>394.089</ele>
        <time>2022-10-10T12:37:16Z</time>
      </trkpt>
      <trkpt lat="47.12984" lon="6.12655">
        <ele>394.033</ele>
        <time>2022-10-10T12:37:17Z</time>
      </trkpt>
      <trkpt lat="47.12989" lon="6.12661">
        <ele>394.476</ele>
        <time>2022-10-10T12:37:18Z</time>
      </trkpt>
      <trkpt lat="47.12993" lon="6.12668">
        <ele>394.422</ele>
        <time>2022-10-10T12:37:19Z</time>
      </trkpt>
      <trkpt lat="47.12997" lon="6.12674">
        <ele>394.458</ele>
        <time>2022-10-10T12:37:20Z</time>
      </trkpt>
      <trkpt lat="47.13002" lon="6.1268">
        <ele>394.468</ele>
        <time>2022-10-10T12:37:21Z</time>
      </trkpt>
      <trkpt lat="47.13006" lon="6.12686">
        <ele>394.852</ele>
        <time>2022-10-10T12:37:22Z</time>
      </trkpt>
      <trkpt lat="47.13011" lon="6.12692">
        <ele>395.031</ele>
        <time>2022-10-10T12:37:23Z</time>
      </trkpt>
      <trkpt lat="47.13015" lon="6.12698">
        <ele>395.061</ele>
        <time>2022-10-10T12:37:24Z</time>
      </trkpt>
      <trkpt lat="47.1302" lon="6.12705">
        <ele>395.207</ele>
        <time>2022-10-10T12:37:25Z</time>
      </trkpt>
      <trkpt lat="47.13024" lon="6.1271">
        <ele>395.609</ele>
        <time>2022-10-10T12:37:26Z</time>
      </trkpt>
      <trkpt lat="47.13028" lon="6.12716">
        <ele>396.034</ele>
        <time>2022-10-10T12:37:27Z</time>
      </trkpt>
      <trkpt lat="47.13033" lon="6.12722">
        <ele>396.064</ele>
        <time>2022-10-10T12:37:28Z</time>
      </trkpt>
      <trkpt lat="47.13038" lon="6.12729">
        <ele>396.468</ele>
        <time>2022-10-10T12:37:29Z</time>
      </trkpt>
      <trkpt lat="47.13043" lon="6.12736">
        <ele>396.462</ele>
        <time>2022-10-10T12:37:30Z</time>
      </trkpt>
      <trkpt lat="47.13047" lon="6.12742">
        <ele>396.465</ele>
        <time>2022-10-10T12:37:31Z</time>
      </trkpt>
      <trkpt lat="47.13052" lon="6.12747">
        <ele>396.441</ele>
        <time>2022-10-10T12:37:32Z</time>
      </trkpt>
      <trkpt lat="47.13057" lon="6.12753">
        <ele>396.857</ele>
        <time>2022-10-10T12:37:33Z</time>
      </trkpt>
      <trkpt lat="47.13061" lon="6.12758">
        <ele>397.027</ele>
        <time>2022-10-10T12:37:34Z</time>
      </trkpt>
      <trkpt lat="47.13067" lon="6.12766">
        <ele>397.061</ele>
        <time>2022-10-10T12:37:35Z</time>
      </trkpt>
      <trkpt lat="47.13072" lon="6.12772">
        <ele>397.035</ele>
        <time>2022-10-10T12:37:36Z</time>
      </trkpt>
      <trkpt lat="47.13076" lon="6.12778">
        <ele>397.486</ele>
        <time>2022-10-10T12:37:37Z</time>
      </trkpt>
      <trkpt lat="47.13081" lon="6.12784">
        <ele>397.414</ele>
        <time>2022-10-10T12:37:38Z</time>
      </trkpt>
      <trkpt lat="47.13086" lon="6.1279">
        <ele>397.609</ele>
        <time>2022-10-10T12:37:39Z</time>
      </trkpt>
      <trkpt lat="47.13091" lon="6.12796">
        <ele>398.234</ele>
        <time>2022-10-10T12:37:40Z</time>
      </trkpt>
      <trkpt lat="47.13095" lon="6.12802">
        <ele>398.464</ele>
        <time>2022-10-10T12:37:41Z</time>
      </trkpt>
      <trkpt lat="47.13099" lon="6.12808">
        <ele>398.468</ele>
        <time>2022-10-10T12:37:42Z</time>
      </trkpt>
      <trkpt lat="47.13104" lon="6.12814">
        <ele>398.482</ele>
        <time>2022-10-10T12:37:43Z</time>
      </trkpt>
      <trkpt lat="47.13109" lon="6.12819">
        <ele>398.445</ele>
        <time>2022-10-10T12:37:44Z</time>
      </trkpt>
      <trkpt lat="47.13114" lon="6.12823">
        <ele>399.081</ele>
        <time>2022-10-10T12:37:45Z</time>
      </trkpt>
      <trkpt lat="47.13119" lon="6.12828">
        <ele>399.027</ele>
        <time>2022-10-10T12:37:46Z</time>
      </trkpt>
      <trkpt lat="47.13123" lon="6.12833">
        <ele>399.257</ele>
        <time>2022-10-10T12:37:47Z</time>
      </trkpt>
      <trkpt lat="47.13128" lon="6.12837">
        <ele>399.481</ele>
        <time>2022-10-10T12:37:48Z</time>
      </trkpt>
      <trkpt lat="47.13133" lon="6.12841">
        <ele>399.626</ele>
        <time>2022-10-10T12:37:49Z</time>
      </trkpt>
      <trkpt lat="47.13139" lon="6.12846">
        <ele>399.647</ele>
        <time>2022-10-10T12:37:50Z</time>
      </trkpt>
      <trkpt lat="47.13144" lon="6.1285">
        <ele>400.011</ele>
        <time>2022-10-10T12:37:51Z</time>
      </trkpt>
      <trkpt lat="47.1315" lon="6.12853">
        <ele>400.409</ele>
        <time>2022-10-10T12:37:52Z</time>
      </trkpt>
      <trkpt lat="47.13156" lon="6.12855">
        <ele>400.443</ele>
        <time>2022-10-10T12:37:53Z</time>
      </trkpt>
      <trkpt lat="47.13162" lon="6.12858">
        <ele>401.013</ele>
        <time>2022-10-10T12:37:54Z</time>
      </trkpt>
      <trkpt lat="47.13168" lon="6.12861">
        <ele>401.057</ele>
        <time>2022-10-10T12:37:55Z</time>
      </trkpt>
      <trkpt lat="47.13173" lon="6.12863">
        <ele>401.041</ele>
        <time>2022-10-10T12:37:56Z</time>
      </trkpt>
      <trkpt lat="47.13179" lon="6.12865">
        <ele>401.224</ele>
        <time>2022-10-10T12:37:57Z</time>
      </trkpt>
      <trkpt lat="47.13185" lon="6.12867">
        <ele>401.42</ele>
        <time>2022-10-10T12:37:58Z</time>
      </trkpt>
      <trkpt lat="47.13191" lon="6.12868">
        <ele>401.816</ele>
        <time>2022-10-10T12:37:59Z</time>
      </trkpt>
      <trkpt lat="47.13197" lon="6.1287">
        <ele>402.096</ele>
        <time>2022-10-10T12:38:00Z</time>
      </trkpt>
      <trkpt lat="47.13202" lon="6.12873">
        <ele>402.02</ele>
        <time>2022-10-10T12:38:01Z</time>
      </trkpt>
      <trkpt lat="47.13207" lon="6.12876">
        <ele>402.063</ele>
        <time>2022-10-10T12:38:02Z</time>
      </trkpt>
      <trkpt lat="47.13213" lon="6.12879">
        <ele>402.044</ele>
        <time>2022-10-10T12:38:03Z</time>
      </trkpt>
      <trkpt lat="47.13219" lon="6.12881">
        <ele>402.018</ele>
        <time>2022-10-10T12:38:04Z</time>
      </trkpt>
      <trkpt lat="47.13225" lon="6.12885">
        <ele>402.009</ele>
        <time>2022-10-10T12:38:05Z</time>
      </trkpt>
      <trkpt lat="47.13231" lon="6.12887">
        <ele>402.057</ele>
        <time>2022-10-10T12:38:06Z</time>
      </trkpt>
      <trkpt lat="47.13237" lon="6.1289">
        <ele>402.067</ele>
        <time>2022-10-10T12:38:07Z</time>
      </trkpt>
      <trkpt lat="47.13243" lon="6.12893">
        <ele>402.051</ele>
        <time>2022-10-10T12:38:08Z</time>
      </trkpt>
      <trkpt lat="47.13249" lon="6.12895">
        <ele>402.225</ele>
        <time>2022-10-10T12:38:09Z</time>
      </trkpt>
      <trkpt lat="47.13255" lon="6.12898">
        <ele>402.498</ele>
        <time>2022-10-10T12:38:10Z</time>
      </trkpt>
      <trkpt lat="47.13261" lon="6.129">
        <ele>402.474</ele>
        <time>2022-10-10T12:38:11Z</time>
      </trkpt>
      <trkpt lat="47.13267" lon="6.12903">
        <ele>402.62</ele>
        <time>2022-10-10T12:38:12Z</time>
      </trkpt>
      <trkpt lat="47.13273" lon="6.12906">
        <ele>402.61</ele>
        <time>2022-10-10T12:38:13Z</time>
      </trkpt>
      <trkpt lat="47.13279" lon="6.1291">
        <ele>402.694</ele>
        <time>2022-10-10T12:38:14Z</time>
      </trkpt>
      <trkpt lat="47.13285" lon="6.12913">
        <ele>402.635</ele>
        <time>2022-10-10T12:38:15Z</time>
      </trkpt>
      <trkpt lat="47.13291" lon="6.12916">
        <ele>403.086</ele>
        <time>2022-10-10T12:38:16Z</time>
      </trkpt>
      <trkpt lat="47.13297" lon="6.1292">
        <ele>403.214</ele>
        <time>2022-10-10T12:38:17Z</time>
      </trkpt>
      <trkpt lat="47.13301" lon="6.12924">
        <ele>403.209</ele>
        <time>2022-10-10T12:38:18Z</time>
      </trkpt>
      <trkpt lat="47.13308" lon="6.12929">
        <ele>403.494</ele>
        <time>2022-10-10T12:38:19Z</time>
      </trkpt>
      <trkpt lat="47.13312" lon="6.12932">
        <ele>403.674</ele>
        <time>2022-10-10T12:38:20Z</time>
      </trkpt>
      <trkpt lat="47.13318" lon="6.12938">
        <ele>403.648</ele>
        <time>2022-10-10T12:38:21Z</time>
      </trkpt>
      <trkpt lat="47.13323" lon="6.12942">
        <ele>403.632</ele>
        <time>2022-10-10T12:38:22Z</time>
      </trkpt>
      <trkpt lat="47.13328" lon="6.12947">
        <ele>404.415</ele>
        <time>2022-10-10T12:38:23Z</time>
      </trkpt>
      <trkpt lat="47.13332" lon="6.12951">
        <ele>404.661</ele>
        <time>2022-10-10T12:38:24Z</time>
      </trkpt>
      <trkpt lat="47.13338" lon="6.12957">
        <ele>405.077</ele>
        <time>2022-10-10T12:38:25Z</time>
      </trkpt>
      <trkpt lat="47.13343" lon="6.12962">
        <ele>405.247</ele>
        <time>2022-10-10T12:38:26Z</time>
      </trkpt>
      <trkpt lat="47.13349" lon="6.12967">
        <ele>405.681</ele>
        <time>2022-10-10T12:38:27Z</time>
      </trkpt>
      <trkpt lat="47.13354" lon="6.12972">
        <ele>405.838</ele>
        <time>2022-10-10T12:38:28Z</time>
      </trkpt>
      <trkpt lat="47.13358" lon="6.12976">
        <ele>406.27</ele>
        <time>2022-10-10T12:38:29Z</time>
      </trkpt>
      <trkpt lat="47.13362" lon="6.12981">
        <ele>406.417</ele>
        <time>2022-10-10T12:38:30Z</time>
      </trkpt>
      <trkpt lat="47.13366" lon="6.12985">
        <ele>406.409</ele>
        <time>2022-10-10T12:38:31Z</time>
      </trkpt>
      <trkpt lat="47.13369" lon="6.12989">
        <ele>407.034</ele>
        <time>2022-10-10T12:38:32Z</time>
      </trkpt>
      <trkpt lat="47.13372" lon="6.12992">
        <ele>407.434</ele>
        <time>2022-10-10T12:38:33Z</time>
      </trkpt>
      <trkpt lat="47.13374" lon="6.12993">
        <ele>407.868</ele>
        <time>2022-10-10T12:38:34Z</time>
      </trkpt>
      <trkpt lat="47.13376" lon="6.12991">
        <ele>408.062</ele>
        <time>2022-10-10T12:38:35Z</time>
      </trkpt>
      <trkpt lat="47.13375" lon="6.12986">
        <ele>408.025</ele>
        <time>2022-10-10T12:38:36Z</time>
      </trkpt>
      <trkpt lat="47.13373" lon="6.12979">
        <ele>408.261</ele>
        <time>2022-10-10T12:38:37Z</time>
      </trkpt>
      <trkpt lat="47.13371" lon="6.12972">
        <ele>408.457</ele>
        <time>2022-10-10T12:38:38Z</time>
      </trkpt>
      <trkpt lat="47.13368" lon="6.12965">
        <ele>408.457</ele>
        <time>2022-10-10T12:38:39Z</time>
      </trkpt>
      <trkpt lat="47.13365" lon="6.12958">
        <ele>408.631</ele>
        <time>2022-10-10T12:38:40Z</time>
      </trkpt>
      <trkpt lat="47.13362" lon="6.12952">
        <ele>408.629</ele>
        <time>2022-10-10T12:38:41Z</time>
      </trkpt>
      <trkpt lat="47.13358" lon="6.12946">
        <ele>409</ele>
        <time>2022-10-10T12:38:42Z</time>
      </trkpt>
      <trkpt lat="47.13355" lon="6.1294">
        <ele>409.22</ele>
        <time>2022-10-10T12:38:43Z</time>
      </trkpt>
      <trkpt lat="47.13351" lon="6.12933">
        <ele>409.609</ele>
        <time>2022-10-10T12:38:44Z</time>
      </trkpt>
      <trkpt lat="47.13347" lon="6.12927">
        <ele>410.253</ele>
        <time>2022-10-10T12:38:45Z</time>
      </trkpt>
      <trkpt lat="47.13344" lon="6.12921">
        <ele>410.863</ele>
        <time>2022-10-10T12:38:46Z</time>
      </trkpt>
      <trkpt lat="47.1334" lon="6.12915">
        <ele>410.877</ele>
        <time>2022-10-10T12:38:47Z</time>
      </trkpt>
      <trkpt lat="47.13336" lon="6.12909">
        <ele>410.871</ele>
        <time>2022-10-10T12:38:48Z</time>
      </trkpt>
      <trkpt lat="47.13332" lon="6.12902">
        <ele>411.284</ele>
        <time>2022-10-10T12:38:49Z</time>
      </trkpt>
      <trkpt lat="47.13329" lon="6.12897">
        <ele>411.45</ele>
        <time>2022-10-10T12:38:50Z</time>
      </trkpt>
      <trkpt lat="47.13325" lon="6.12889">
        <ele>411.656</ele>
        <time>2022-10-10T12:38:51Z</time>
      </trkpt>
      <trkpt lat="47.13322" lon="6.12881">
        <ele>411.836</ele>
        <time>2022-10-10T12:38:52Z</time>
      </trkpt>
      <trkpt lat="47.13318" lon="6.12875">
        <ele>412.42</ele>
        <time>2022-10-10T12:38:53Z</time>
      </trkpt>
      <trkpt lat="47.13314" lon="6.12869">
        <ele>412.692</ele>
        <time>2022-10-10T12:38:54Z</time>
      </trkpt>
      <trkpt lat="47.13311" lon="6.12863">
        <ele>412.673</ele>
        <time>2022-10-10T12:38:55Z</time>
      </trkpt>
      <trkpt lat="47.13307" lon="6.12857">
        <ele>413.42</ele>
        <time>2022-10-10T12:38:56Z</time>
      </trkpt>
      <trkpt lat="47.13304" lon="6.12852">
        <ele>413.809</ele>
        <time>2022-10-10T12:38:57Z</time>
      </trkpt>
      <trkpt lat="47.133" lon="6.12847">
        <ele>414.42</ele>
        <time>2022-10-10T12:38:58Z</time>
      </trkpt>
      <trkpt lat="47.13297" lon="6.12843">
        <ele>414.89</ele>
        <time>2022-10-10T12:38:59Z</time>
      </trkpt>
      <trkpt lat="47.13294" lon="6.1284">
        <ele>414.844</ele>
        <time>2022-10-10T12:39:00Z</time>
      </trkpt>
      <trkpt lat="47.13292" lon="6.12836">
        <ele>415.078</ele>
        <time>2022-10-10T12:39:01Z</time>
      </trkpt>
      <trkpt lat="47.13292" lon="6.12832">
        <ele>415.461</ele>
        <time>2022-10-10T12:39:02Z</time>
      </trkpt>
      <trkpt lat="47.13294" lon="6.1283">
        <ele>415.847</ele>
        <time>2022-10-10T12:39:03Z</time>
      </trkpt>
      <trkpt lat="47.13296" lon="6.1283">
        <ele>415.873</ele>
        <time>2022-10-10T12:39:04Z</time>
      </trkpt>
      <trkpt lat="47.133" lon="6.12833">
        <ele>415.823</ele>
        <time>2022-10-10T12:39:05Z</time>
      </trkpt>
      <trkpt lat="47.13302" lon="6.12835">
        <ele>415.847</ele>
        <time>2022-10-10T12:39:06Z</time>
      </trkpt>
      <trkpt lat="47.13305" lon="6.12838">
        <ele>415.488</ele>
        <time>2022-10-10T12:39:07Z</time>
      </trkpt>
      <trkpt lat="47.13307" lon="6.12841">
        <ele>415.424</ele>
        <time>2022-10-10T12:39:08Z</time>
      </trkpt>
      <trkpt lat="47.1331" lon="6.12843">
        <ele>415.426</ele>
        <time>2022-10-10T12:39:09Z</time>
      </trkpt>
      <trkpt lat="47.13314" lon="6.12846">
        <ele>415.209</ele>
        <time>2022-10-10T12:39:10Z</time>
      </trkpt>
      <trkpt lat="47.13316" lon="6.1285">
        <ele>415.249</ele>
        <time>2022-10-10T12:39:11Z</time>
      </trkpt>
      <trkpt lat="47.13319" lon="6.12854">
        <ele>415.259</ele>
        <time>2022-10-10T12:39:12Z</time>
      </trkpt>
      <trkpt lat="47.13321" lon="6.12857">
        <ele>415.273</ele>
        <time>2022-10-10T12:39:13Z</time>
      </trkpt>
      <trkpt lat="47.13323" lon="6.1286">
        <ele>415.227</ele>
        <time>2022-10-10T12:39:14Z</time>
      </trkpt>
      <trkpt lat="47.13326" lon="6.12863">
        <ele>415.27</ele>
        <time>2022-10-10T12:39:15Z</time>
      </trkpt>
      <trkpt lat="47.13328" lon="6.12867">
        <ele>415.236</ele>
        <time>2022-10-10T12:39:16Z</time>
      </trkpt>
      <trkpt lat="47.1333" lon="6.12872">
        <ele>415.262</ele>
        <time>2022-10-10T12:39:17Z</time>
      </trkpt>
      <trkpt lat="47.13331" lon="6.12876">
        <ele>415.022</ele>
        <time>2022-10-10T12:39:18Z</time>
      </trkpt>
      <trkpt lat="47.13333" lon="6.12881">
        <ele>415.026</ele>
        <time>2022-10-10T12:39:19Z</time>
      </trkpt>
      <trkpt lat="47.13336" lon="6.12885">
        <ele>415.038</ele>
        <time>2022-10-10T12:39:20Z</time>
      </trkpt>
      <trkpt lat="47.13339" lon="6.12889">
        <ele>414.67</ele>
        <time>2022-10-10T12:39:21Z</time>
      </trkpt>
      <trkpt lat="47.13344" lon="6.12898">
        <ele>414.217</ele>
        <time>2022-10-10T12:39:23Z</time>
      </trkpt>
      <trkpt lat="47.13346" lon="6.12902">
        <ele>414.209</ele>
        <time>2022-10-10T12:39:24Z</time>
      </trkpt>
      <trkpt lat="47.13349" lon="6.12906">
        <ele>414.014</ele>
        <time>2022-10-10T12:39:25Z</time>
      </trkpt>
      <trkpt lat="47.13352" lon="6.12909">
        <ele>413.874</ele>
        <time>2022-10-10T12:39:26Z</time>
      </trkpt>
      <trkpt lat="47.1336" lon="6.12919">
        <ele>413.428</ele>
        <time>2022-10-10T12:39:28Z</time>
      </trkpt>
      <trkpt lat="47.13364" lon="6.12924">
        <ele>413.422</ele>
        <time>2022-10-10T12:39:29Z</time>
      </trkpt>
      <trkpt lat="47.13367" lon="6.12929">
        <ele>413.455</ele>
        <time>2022-10-10T12:39:30Z</time>
      </trkpt>
      <trkpt lat="47.13369" lon="6.12933">
        <ele>413.451</ele>
        <time>2022-10-10T12:39:31Z</time>
      </trkpt>
      <trkpt lat="47.13371" lon="6.12937">
        <ele>413.897</ele>
        <time>2022-10-10T12:39:32Z</time>
      </trkpt>
      <trkpt lat="47.13374" lon="6.12942">
        <ele>414.057</ele>
        <time>2022-10-10T12:39:33Z</time>
      </trkpt>
      <trkpt lat="47.13381" lon="6.12951">
        <ele>414.261</ele>
        <time>2022-10-10T12:39:35Z</time>
      </trkpt>
      <trkpt lat="47.13384" lon="6.12955">
        <ele>414.226</ele>
        <time>2022-10-10T12:39:36Z</time>
      </trkpt>
      <trkpt lat="47.13387" lon="6.1296">
        <ele>414.847</ele>
        <time>2022-10-10T12:39:37Z</time>
      </trkpt>
      <trkpt lat="47.1339" lon="6.12965">
        <ele>415.211</ele>
        <time>2022-10-10T12:39:38Z</time>
      </trkpt>
      <trkpt lat="47.13393" lon="6.1297">
        <ele>415.809</ele>
        <time>2022-10-10T12:39:39Z</time>
      </trkpt>
      <trkpt lat="47.13396" lon="6.12975">
        <ele>416.043</ele>
        <time>2022-10-10T12:39:40Z</time>
      </trkpt>
      <trkpt lat="47.13398" lon="6.1298">
        <ele>416.423</ele>
        <time>2022-10-10T12:39:41Z</time>
      </trkpt>
      <trkpt lat="47.13406" lon="6.12997">
        <ele>416.817</ele>
        <time>2022-10-10T12:39:44Z</time>
      </trkpt>
      <trkpt lat="47.13408" lon="6.13003">
        <ele>416.891</ele>
        <time>2022-10-10T12:39:45Z</time>
      </trkpt>
      <trkpt lat="47.1341" lon="6.13007">
        <ele>417.044</ele>
        <time>2022-10-10T12:39:46Z</time>
      </trkpt>
      <trkpt lat="47.13411" lon="6.13012">
        <ele>417.03</ele>
        <time>2022-10-10T12:39:47Z</time>
      </trkpt>
      <trkpt lat="47.13413" lon="6.13017">
        <ele>417.016</ele>
        <time>2022-10-10T12:39:48Z</time>
      </trkpt>
      <trkpt lat="47.13414" lon="6.13022">
        <ele>417.076</ele>
        <time>2022-10-10T12:39:49Z</time>
      </trkpt>
      <trkpt lat="47.13417" lon="6.13027">
        <ele>417.25</ele>
        <time>2022-10-10T12:39:50Z</time>
      </trkpt>
      <trkpt lat="47.13418" lon="6.1303">
        <ele>417.228</ele>
        <time>2022-10-10T12:39:51Z</time>
      </trkpt>
      <trkpt lat="47.1342" lon="6.13034">
        <ele>417.289</ele>
        <time>2022-10-10T12:39:52Z</time>
      </trkpt>
      <trkpt lat="47.13422" lon="6.13037">
        <ele>418.017</ele>
        <time>2022-10-10T12:39:53Z</time>
      </trkpt>
      <trkpt lat="47.13422" lon="6.13038">
        <ele>418.209</ele>
        <time>2022-10-10T12:39:54Z</time>
      </trkpt>
      <trkpt lat="47.13423" lon="6.1304">
        <ele>418.243</ele>
        <time>2022-10-10T12:39:55Z</time>
      </trkpt>
      <trkpt lat="47.13424" lon="6.13041">
        <ele>418.243</ele>
        <time>2022-10-10T12:39:56Z</time>
      </trkpt>
      <trkpt lat="47.13424" lon="6.13044">
        <ele>418.267</ele>
        <time>2022-10-10T12:39:57Z</time>
      </trkpt>
      <trkpt lat="47.13425" lon="6.13049">
        <ele>418.031</ele>
        <time>2022-10-10T12:39:58Z</time>
      </trkpt>
      <trkpt lat="47.13427" lon="6.13053">
        <ele>418.034</ele>
        <time>2022-10-10T12:39:59Z</time>
      </trkpt>
      <trkpt lat="47.13428" lon="6.13057">
        <ele>418.04</ele>
        <time>2022-10-10T12:40:00Z</time>
      </trkpt>
      <trkpt lat="47.1343" lon="6.13061">
        <ele>418.016</ele>
        <time>2022-10-10T12:40:01Z</time>
      </trkpt>
      <trkpt lat="47.13431" lon="6.13065">
        <ele>418.046</ele>
        <time>2022-10-10T12:40:02Z</time>
      </trkpt>
      <trkpt lat="47.13433" lon="6.13068">
        <ele>418.02</ele>
        <time>2022-10-10T12:40:03Z</time>
      </trkpt>
      <trkpt lat="47.13435" lon="6.13073">
        <ele>418.056</ele>
        <time>2022-10-10T12:40:04Z</time>
      </trkpt>
      <trkpt lat="47.13436" lon="6.13076">
        <ele>418.059</ele>
        <time>2022-10-10T12:40:05Z</time>
      </trkpt>
      <trkpt lat="47.13438" lon="6.13079">
        <ele>418.614</ele>
        <time>2022-10-10T12:40:06Z</time>
      </trkpt>
      <trkpt lat="47.13448" lon="6.13095">
        <ele>418.809</ele>
        <time>2022-10-10T12:40:10Z</time>
      </trkpt>
      <trkpt lat="47.1345" lon="6.13098">
        <ele>419.286</ele>
        <time>2022-10-10T12:40:11Z</time>
      </trkpt>
      <trkpt lat="47.13451" lon="6.13104">
        <ele>419.246</ele>
        <time>2022-10-10T12:40:12Z</time>
      </trkpt>
      <trkpt lat="47.13457" lon="6.13118">
        <ele>419.46</ele>
        <time>2022-10-10T12:40:15Z</time>
      </trkpt>
      <trkpt lat="47.1346" lon="6.13127">
        <ele>419.424</ele>
        <time>2022-10-10T12:40:17Z</time>
      </trkpt>
      <trkpt lat="47.13463" lon="6.13137">
        <ele>419.277</ele>
        <time>2022-10-10T12:40:19Z</time>
      </trkpt>
      <trkpt lat="47.13464" lon="6.13142">
        <ele>419.023</ele>
        <time>2022-10-10T12:40:20Z</time>
      </trkpt>
      <trkpt lat="47.13466" lon="6.13146">
        <ele>419.079</ele>
        <time>2022-10-10T12:40:21Z</time>
      </trkpt>
      <trkpt lat="47.13468" lon="6.13152">
        <ele>419.099</ele>
        <time>2022-10-10T12:40:22Z</time>
      </trkpt>
      <trkpt lat="47.1347" lon="6.13156">
        <ele>418.833</ele>
        <time>2022-10-10T12:40:23Z</time>
      </trkpt>
      <trkpt lat="47.13472" lon="6.1316">
        <ele>418.837</ele>
        <time>2022-10-10T12:40:24Z</time>
      </trkpt>
      <trkpt lat="47.13476" lon="6.13169">
        <ele>418.849</ele>
        <time>2022-10-10T12:40:26Z</time>
      </trkpt>
      <trkpt lat="47.1348" lon="6.13176">
        <ele>418.813</ele>
        <time>2022-10-10T12:40:28Z</time>
      </trkpt>
      <trkpt lat="47.13482" lon="6.1318">
        <ele>418.809</ele>
        <time>2022-10-10T12:40:29Z</time>
      </trkpt>
      <trkpt lat="47.13487" lon="6.1319">
        <ele>418.824</ele>
        <time>2022-10-10T12:40:31Z</time>
      </trkpt>
      <trkpt lat="47.13495" lon="6.13211">
        <ele>418.694</ele>
        <time>2022-10-10T12:40:35Z</time>
      </trkpt>
      <trkpt lat="47.13497" lon="6.13216">
        <ele>418.668</ele>
        <time>2022-10-10T12:40:36Z</time>
      </trkpt>
      <trkpt lat="47.13499" lon="6.13219">
        <ele>418.442</ele>
        <time>2022-10-10T12:40:37Z</time>
      </trkpt>
      <trkpt lat="47.13504" lon="6.13229">
        <ele>418.615</ele>
        <time>2022-10-10T12:40:39Z</time>
      </trkpt>
      <trkpt lat="47.13506" lon="6.13234">
        <ele>418.631</ele>
        <time>2022-10-10T12:40:40Z</time>
      </trkpt>
      <trkpt lat="47.13508" lon="6.13239">
        <ele>418.687</ele>
        <time>2022-10-10T12:40:41Z</time>
      </trkpt>
      <trkpt lat="47.13512" lon="6.13245">
        <ele>418.877</ele>
        <time>2022-10-10T12:40:43Z</time>
      </trkpt>
      <trkpt lat="47.13516" lon="6.13252">
        <ele>419.081</ele>
        <time>2022-10-10T12:40:45Z</time>
      </trkpt>
      <trkpt lat="47.13517" lon="6.13257">
        <ele>419.221</ele>
        <time>2022-10-10T12:40:46Z</time>
      </trkpt>
      <trkpt lat="47.13518" lon="6.13262">
        <ele>419.241</ele>
        <time>2022-10-10T12:40:47Z</time>
      </trkpt>
      <trkpt lat="47.13519" lon="6.13265">
        <ele>419.805</ele>
        <time>2022-10-10T12:40:48Z</time>
      </trkpt>
      <trkpt lat="47.13521" lon="6.13269">
        <ele>420.009</ele>
        <time>2022-10-10T12:40:49Z</time>
      </trkpt>
      <trkpt lat="47.13523" lon="6.13272">
        <ele>420.433</ele>
        <time>2022-10-10T12:40:50Z</time>
      </trkpt>
      <trkpt lat="47.13529" lon="6.13281">
        <ele>420.483</ele>
        <time>2022-10-10T12:40:53Z</time>
      </trkpt>
      <trkpt lat="47.13533" lon="6.13288">
        <ele>420.467</ele>
        <time>2022-10-10T12:40:55Z</time>
      </trkpt>
      <trkpt lat="47.13544" lon="6.13306">
        <ele>420.641</ele>
        <time>2022-10-10T12:41:00Z</time>
      </trkpt>
      <trkpt lat="47.13546" lon="6.1331">
        <ele>420.624</ele>
        <time>2022-10-10T12:41:01Z</time>
      </trkpt>
      <trkpt lat="47.13548" lon="6.13314">
        <ele>420.82</ele>
        <time>2022-10-10T12:41:02Z</time>
      </trkpt>
      <trkpt lat="47.13551" lon="6.13318">
        <ele>420.896</ele>
        <time>2022-10-10T12:41:03Z</time>
      </trkpt>
      <trkpt lat="47.13561" lon="6.13342">
        <ele>421.636</ele>
        <time>2022-10-10T12:41:09Z</time>
      </trkpt>
      <trkpt lat="47.13563" lon="6.13346">
        <ele>421.63</ele>
        <time>2022-10-10T12:41:10Z</time>
      </trkpt>
      <trkpt lat="47.13566" lon="6.13355">
        <ele>421.439</ele>
        <time>2022-10-10T12:41:12Z</time>
      </trkpt>
      <trkpt lat="47.13571" lon="6.13364">
        <ele>421.201</ele>
        <time>2022-10-10T12:41:14Z</time>
      </trkpt>
      <trkpt lat="47.13573" lon="6.13369">
        <ele>421.021</ele>
        <time>2022-10-10T12:41:15Z</time>
      </trkpt>
      <trkpt lat="47.13575" lon="6.13375">
        <ele>421.009</ele>
        <time>2022-10-10T12:41:16Z</time>
      </trkpt>
      <trkpt lat="47.13577" lon="6.1338">
        <ele>421.024</ele>
        <time>2022-10-10T12:41:17Z</time>
      </trkpt>
      <trkpt lat="47.13579" lon="6.13384">
        <ele>421.064</ele>
        <time>2022-10-10T12:41:18Z</time>
      </trkpt>
      <trkpt lat="47.13582" lon="6.13389">
        <ele>421.238</ele>
        <time>2022-10-10T12:41:19Z</time>
      </trkpt>
      <trkpt lat="47.13583" lon="6.13394">
        <ele>421.472</ele>
        <time>2022-10-10T12:41:20Z</time>
      </trkpt>
      <trkpt lat="47.13588" lon="6.13408">
        <ele>422.445</ele>
        <time>2022-10-10T12:41:23Z</time>
      </trkpt>
      <trkpt lat="47.1359" lon="6.13413">
        <ele>422.451</ele>
        <time>2022-10-10T12:41:24Z</time>
      </trkpt>
      <trkpt lat="47.13591" lon="6.13417">
        <ele>423.277</ele>
        <time>2022-10-10T12:41:25Z</time>
      </trkpt>
      <trkpt lat="47.13592" lon="6.13421">
        <ele>423.267</ele>
        <time>2022-10-10T12:41:26Z</time>
      </trkpt>
      <trkpt lat="47.13595" lon="6.1343">
        <ele>424.491</ele>
        <time>2022-10-10T12:41:28Z</time>
      </trkpt>
      <trkpt lat="47.13596" lon="6.13435">
        <ele>424.454</ele>
        <time>2022-10-10T12:41:29Z</time>
      </trkpt>
      <trkpt lat="47.13598" lon="6.13439">
        <ele>425.056</ele>
        <time>2022-10-10T12:41:30Z</time>
      </trkpt>
      <trkpt lat="47.136" lon="6.13444">
        <ele>425.011</ele>
        <time>2022-10-10T12:41:31Z</time>
      </trkpt>
      <trkpt lat="47.13601" lon="6.13448">
        <ele>425.009</ele>
        <time>2022-10-10T12:41:32Z</time>
      </trkpt>
      <trkpt lat="47.13602" lon="6.13453">
        <ele>425.076</ele>
        <time>2022-10-10T12:41:33Z</time>
      </trkpt>
      <trkpt lat="47.13603" lon="6.13457">
        <ele>425.666</ele>
        <time>2022-10-10T12:41:34Z</time>
      </trkpt>
      <trkpt lat="47.13605" lon="6.13462">
        <ele>425.83</ele>
        <time>2022-10-10T12:41:35Z</time>
      </trkpt>
      <trkpt lat="47.13606" lon="6.13466">
        <ele>425.834</ele>
        <time>2022-10-10T12:41:36Z</time>
      </trkpt>
      <trkpt lat="47.13608" lon="6.1347">
        <ele>426.437</ele>
        <time>2022-10-10T12:41:37Z</time>
      </trkpt>
      <trkpt lat="47.13609" lon="6.13475">
        <ele>426.653</ele>
        <time>2022-10-10T12:41:38Z</time>
      </trkpt>
      <trkpt lat="47.1361" lon="6.13479">
        <ele>426.629</ele>
        <time>2022-10-10T12:41:39Z</time>
      </trkpt>
      <trkpt lat="47.13611" lon="6.13483">
        <ele>427.029</ele>
        <time>2022-10-10T12:41:40Z</time>
      </trkpt>
      <trkpt lat="47.13612" lon="6.13489">
        <ele>427.413</ele>
        <time>2022-10-10T12:41:41Z</time>
      </trkpt>
      <trkpt lat="47.13612" lon="6.13494">
        <ele>427.632</ele>
        <time>2022-10-10T12:41:42Z</time>
      </trkpt>
      <trkpt lat="47.13613" lon="6.13499">
        <ele>427.892</ele>
        <time>2022-10-10T12:41:43Z</time>
      </trkpt>
      <trkpt lat="47.13613" lon="6.13504">
        <ele>428.011</ele>
        <time>2022-10-10T12:41:44Z</time>
      </trkpt>
      <trkpt lat="47.13614" lon="6.13509">
        <ele>428.209</ele>
        <time>2022-10-10T12:41:45Z</time>
      </trkpt>
      <trkpt lat="47.13614" lon="6.13515">
        <ele>428.624</ele>
        <time>2022-10-10T12:41:46Z</time>
      </trkpt>
      <trkpt lat="47.13615" lon="6.13521">
        <ele>428.834</ele>
        <time>2022-10-10T12:41:47Z</time>
      </trkpt>
      <trkpt lat="47.13616" lon="6.13526">
        <ele>429.018</ele>
        <time>2022-10-10T12:41:48Z</time>
      </trkpt>
      <trkpt lat="47.13617" lon="6.1353">
        <ele>429.022</ele>
        <time>2022-10-10T12:41:49Z</time>
      </trkpt>
      <trkpt lat="47.13618" lon="6.13534">
        <ele>429.235</ele>
        <time>2022-10-10T12:41:50Z</time>
      </trkpt>
      <trkpt lat="47.13619" lon="6.13537">
        <ele>429.871</ele>
        <time>2022-10-10T12:41:51Z</time>
      </trkpt>
      <trkpt lat="47.13621" lon="6.13541">
        <ele>430.667</ele>
        <time>2022-10-10T12:41:52Z</time>
      </trkpt>
      <trkpt lat="47.13621" lon="6.13544">
        <ele>430.627</ele>
        <time>2022-10-10T12:41:53Z</time>
      </trkpt>
      <trkpt lat="47.13623" lon="6.13548">
        <ele>431.451</ele>
        <time>2022-10-10T12:41:54Z</time>
      </trkpt>
      <trkpt lat="47.13624" lon="6.13551">
        <ele>432.015</ele>
        <time>2022-10-10T12:41:55Z</time>
      </trkpt>
      <trkpt lat="47.13625" lon="6.13555">
        <ele>432.265</ele>
        <time>2022-10-10T12:41:56Z</time>
      </trkpt>
      <trkpt lat="47.13627" lon="6.13558">
        <ele>432.611</ele>
        <time>2022-10-10T12:41:57Z</time>
      </trkpt>
      <trkpt lat="47.13628" lon="6.13562">
        <ele>433.009</ele>
        <time>2022-10-10T12:41:58Z</time>
      </trkpt>
      <trkpt lat="47.13629" lon="6.13565">
        <ele>433.422</ele>
        <time>2022-10-10T12:41:59Z</time>
      </trkpt>
      <trkpt lat="47.13629" lon="6.13569">
        <ele>433.662</ele>
        <time>2022-10-10T12:42:00Z</time>
      </trkpt>
      <trkpt lat="47.1363" lon="6.13572">
        <ele>433.856</ele>
        <time>2022-10-10T12:42:01Z</time>
      </trkpt>
      <trkpt lat="47.1363" lon="6.13576">
        <ele>434.26</ele>
        <time>2022-10-10T12:42:02Z</time>
      </trkpt>
      <trkpt lat="47.13631" lon="6.1358">
        <ele>435.063</ele>
        <time>2022-10-10T12:42:03Z</time>
      </trkpt>
      <trkpt lat="47.13632" lon="6.13585">
        <ele>435.649</ele>
        <time>2022-10-10T12:42:04Z</time>
      </trkpt>
      <trkpt lat="47.13633" lon="6.13588">
        <ele>436.625</ele>
        <time>2022-10-10T12:42:05Z</time>
      </trkpt>
      <trkpt lat="47.13634" lon="6.13592">
        <ele>436.685</ele>
        <time>2022-10-10T12:42:06Z</time>
      </trkpt>
      <trkpt lat="47.13635" lon="6.13595">
        <ele>437.849</ele>
        <time>2022-10-10T12:42:07Z</time>
      </trkpt>
      <trkpt lat="47.13636" lon="6.13598">
        <ele>438.071</ele>
        <time>2022-10-10T12:42:08Z</time>
      </trkpt>
      <trkpt lat="47.13637" lon="6.13601">
        <ele>438.241</ele>
        <time>2022-10-10T12:42:09Z</time>
      </trkpt>
      <trkpt lat="47.13638" lon="6.13603">
        <ele>438.815</ele>
        <time>2022-10-10T12:42:10Z</time>
      </trkpt>
      <trkpt lat="47.13638" lon="6.13606">
        <ele>439.409</ele>
        <time>2022-10-10T12:42:11Z</time>
      </trkpt>
      <trkpt lat="47.13639" lon="6.13609">
        <ele>440.078</ele>
        <time>2022-10-10T12:42:12Z</time>
      </trkpt>
      <trkpt lat="47.13639" lon="6.13612">
        <ele>440.258</ele>
        <time>2022-10-10T12:42:13Z</time>
      </trkpt>
      <trkpt lat="47.1364" lon="6.13615">
        <ele>440.822</ele>
        <time>2022-10-10T12:42:14Z</time>
      </trkpt>
      <trkpt lat="47.1364" lon="6.13618">
        <ele>442.476</ele>
        <time>2022-10-10T12:42:15Z</time>
      </trkpt>
      <trkpt lat="47.1364" lon="6.13621">
        <ele>442.469</ele>
        <time>2022-10-10T12:42:16Z</time>
      </trkpt>
      <trkpt lat="47.13641" lon="6.13625">
        <ele>442.675</ele>
        <time>2022-10-10T12:42:17Z</time>
      </trkpt>
      <trkpt lat="47.13642" lon="6.13628">
        <ele>443.021</ele>
        <time>2022-10-10T12:42:18Z</time>
      </trkpt>
      <trkpt lat="47.13644" lon="6.13631">
        <ele>444.051</ele>
        <time>2022-10-10T12:42:19Z</time>
      </trkpt>
      <trkpt lat="47.13645" lon="6.13634">
        <ele>445.415</ele>
        <time>2022-10-10T12:42:20Z</time>
      </trkpt>
      <trkpt lat="47.13646" lon="6.13638">
        <ele>445.417</ele>
        <time>2022-10-10T12:42:21Z</time>
      </trkpt>
      <trkpt lat="47.13647" lon="6.1364">
        <ele>445.487</ele>
        <time>2022-10-10T12:42:22Z</time>
      </trkpt>
      <trkpt lat="47.13647" lon="6.13643">
        <ele>446.015</ele>
        <time>2022-10-10T12:42:23Z</time>
      </trkpt>
      <trkpt lat="47.13648" lon="6.13646">
        <ele>447.009</ele>
        <time>2022-10-10T12:42:24Z</time>
      </trkpt>
      <trkpt lat="47.13649" lon="6.13649">
        <ele>447.222</ele>
        <time>2022-10-10T12:42:25Z</time>
      </trkpt>
      <trkpt lat="47.13651" lon="6.13652">
        <ele>447.462</ele>
        <time>2022-10-10T12:42:26Z</time>
      </trkpt>
      <trkpt lat="47.13652" lon="6.13655">
        <ele>448.296</ele>
        <time>2022-10-10T12:42:27Z</time>
      </trkpt>
      <trkpt lat="47.13654" lon="6.13658">
        <ele>449.25</ele>
        <time>2022-10-10T12:42:28Z</time>
      </trkpt>
      <trkpt lat="47.13655" lon="6.13661">
        <ele>449.673</ele>
        <time>2022-10-10T12:42:29Z</time>
      </trkpt>
      <trkpt lat="47.13656" lon="6.13663">
        <ele>450.839</ele>
        <time>2022-10-10T12:42:30Z</time>
      </trkpt>
      <trkpt lat="47.13657" lon="6.13666">
        <ele>451.475</ele>
        <time>2022-10-10T12:42:31Z</time>
      </trkpt>
      <trkpt lat="47.13659" lon="6.13669">
        <ele>451.475</ele>
        <time>2022-10-10T12:42:32Z</time>
      </trkpt>
      <trkpt lat="47.1366" lon="6.13671">
        <ele>452.049</ele>
        <time>2022-10-10T12:42:33Z</time>
      </trkpt>
      <trkpt lat="47.13661" lon="6.13674">
        <ele>452.851</ele>
        <time>2022-10-10T12:42:34Z</time>
      </trkpt>
      <trkpt lat="47.13662" lon="6.13676">
        <ele>453.201</ele>
        <time>2022-10-10T12:42:35Z</time>
      </trkpt>
      <trkpt lat="47.13664" lon="6.13678">
        <ele>453.611</ele>
        <time>2022-10-10T12:42:36Z</time>
      </trkpt>
      <trkpt lat="47.13665" lon="6.1368">
        <ele>454.409</ele>
        <time>2022-10-10T12:42:37Z</time>
      </trkpt>
      <trkpt lat="47.13666" lon="6.13683">
        <ele>454.626</ele>
        <time>2022-10-10T12:42:38Z</time>
      </trkpt>
      <trkpt lat="47.13667" lon="6.13685">
        <ele>455.256</ele>
        <time>2022-10-10T12:42:39Z</time>
      </trkpt>
      <trkpt lat="47.13669" lon="6.13688">
        <ele>455.46</ele>
        <time>2022-10-10T12:42:40Z</time>
      </trkpt>
      <trkpt lat="47.1367" lon="6.13691">
        <ele>456.234</ele>
        <time>2022-10-10T12:42:41Z</time>
      </trkpt>
      <trkpt lat="47.13671" lon="6.13693">
        <ele>456.497</ele>
        <time>2022-10-10T12:42:42Z</time>
      </trkpt>
      <trkpt lat="47.13672" lon="6.13695">
        <ele>457.093</ele>
        <time>2022-10-10T12:42:43Z</time>
      </trkpt>
      <trkpt lat="47.13673" lon="6.13697">
        <ele>457.039</ele>
        <time>2022-10-10T12:42:44Z</time>
      </trkpt>
      <trkpt lat="47.13674" lon="6.13699">
        <ele>458.029</ele>
        <time>2022-10-10T12:42:45Z</time>
      </trkpt>
      <trkpt lat="47.13676" lon="6.13701">
        <ele>458.253</ele>
        <time>2022-10-10T12:42:46Z</time>
      </trkpt>
      <trkpt lat="47.13677" lon="6.13703">
        <ele>458.857</ele>
        <time>2022-10-10T12:42:47Z</time>
      </trkpt>
      <trkpt lat="47.13679" lon="6.13705">
        <ele>459.6</ele>
        <time>2022-10-10T12:42:48Z</time>
      </trkpt>
      <trkpt lat="47.1368" lon="6.13706">
        <ele>460.42</ele>
        <time>2022-10-10T12:42:49Z</time>
      </trkpt>
      <trkpt lat="47.13681" lon="6.13707">
        <ele>461.009</ele>
        <time>2022-10-10T12:42:50Z</time>
      </trkpt>
      <trkpt lat="47.13682" lon="6.1371">
        <ele>461.246</ele>
        <time>2022-10-10T12:42:51Z</time>
      </trkpt>
      <trkpt lat="47.13683" lon="6.13713">
        <ele>461.626</ele>
        <time>2022-10-10T12:42:52Z</time>
      </trkpt>
      <trkpt lat="47.13685" lon="6.13716">
        <ele>462.43</ele>
        <time>2022-10-10T12:42:53Z</time>
      </trkpt>
      <trkpt lat="47.13684" lon="6.13718">
        <ele>462.864</ele>
        <time>2022-10-10T12:42:54Z</time>
      </trkpt>
      <trkpt lat="47.13685" lon="6.1372">
        <ele>463.217</ele>
        <time>2022-10-10T12:42:55Z</time>
      </trkpt>
      <trkpt lat="47.13686" lon="6.13722">
        <ele>463.853</ele>
        <time>2022-10-10T12:42:56Z</time>
      </trkpt>
      <trkpt lat="47.13687" lon="6.13724">
        <ele>463.879</ele>
        <time>2022-10-10T12:42:57Z</time>
      </trkpt>
      <trkpt lat="47.13688" lon="6.13727">
        <ele>464.239</ele>
        <time>2022-10-10T12:42:58Z</time>
      </trkpt>
      <trkpt lat="47.13689" lon="6.13728">
        <ele>464.683</ele>
        <time>2022-10-10T12:42:59Z</time>
      </trkpt>
      <trkpt lat="47.1369" lon="6.1373">
        <ele>465.092</ele>
        <time>2022-10-10T12:43:00Z</time>
      </trkpt>
      <trkpt lat="47.13691" lon="6.13731">
        <ele>465.873</ele>
        <time>2022-10-10T12:43:01Z</time>
      </trkpt>
      <trkpt lat="47.13693" lon="6.13733">
        <ele>466.02</ele>
        <time>2022-10-10T12:43:02Z</time>
      </trkpt>
      <trkpt lat="47.13694" lon="6.13735">
        <ele>466.009</ele>
        <time>2022-10-10T12:43:03Z</time>
      </trkpt>
      <trkpt lat="47.13696" lon="6.13736">
        <ele>466.25</ele>
        <time>2022-10-10T12:43:04Z</time>
      </trkpt>
      <trkpt lat="47.13697" lon="6.13737">
        <ele>467.05</ele>
        <time>2022-10-10T12:43:05Z</time>
      </trkpt>
      <trkpt lat="47.13699" lon="6.13738">
        <ele>467.434</ele>
        <time>2022-10-10T12:43:06Z</time>
      </trkpt>
      <trkpt lat="47.13701" lon="6.13739">
        <ele>467.898</ele>
        <time>2022-10-10T12:43:07Z</time>
      </trkpt>
      <trkpt lat="47.13703" lon="6.13739">
        <ele>468.051</ele>
        <time>2022-10-10T12:43:08Z</time>
      </trkpt>
      <trkpt lat="47.13704" lon="6.1374">
        <ele>468.677</ele>
        <time>2022-10-10T12:43:09Z</time>
      </trkpt>
      <trkpt lat="47.13706" lon="6.1374">
        <ele>469.063</ele>
        <time>2022-10-10T12:43:10Z</time>
      </trkpt>
      <trkpt lat="47.13708" lon="6.1374">
        <ele>469.633</ele>
        <time>2022-10-10T12:43:11Z</time>
      </trkpt>
      <trkpt lat="47.13709" lon="6.1374">
        <ele>470.677</ele>
        <time>2022-10-10T12:43:12Z</time>
      </trkpt>
      <trkpt lat="47.13711" lon="6.13741">
        <ele>471.036</ele>
        <time>2022-10-10T12:43:13Z</time>
      </trkpt>
      <trkpt lat="47.13713" lon="6.13741">
        <ele>471.017</ele>
        <time>2022-10-10T12:43:14Z</time>
      </trkpt>
      <trkpt lat="47.13715" lon="6.13741">
        <ele>471.618</ele>
        <time>2022-10-10T12:43:15Z</time>
      </trkpt>
      <trkpt lat="47.13716" lon="6.13741">
        <ele>472.409</ele>
        <time>2022-10-10T12:43:16Z</time>
      </trkpt>
      <trkpt lat="47.13717" lon="6.1374">
        <ele>472.864</ele>
        <time>2022-10-10T12:43:17Z</time>
      </trkpt>
      <trkpt lat="47.13719" lon="6.13739">
        <ele>473.424</ele>
        <time>2022-10-10T12:43:18Z</time>
      </trkpt>
      <trkpt lat="47.13721" lon="6.13738">
        <ele>473.468</ele>
        <time>2022-10-10T12:43:19Z</time>
      </trkpt>
      <trkpt lat="47.13722" lon="6.13737">
        <ele>473.862</ele>
        <time>2022-10-10T12:43:20Z</time>
      </trkpt>
      <trkpt lat="47.13724" lon="6.13736">
        <ele>474.215</ele>
        <time>2022-10-10T12:43:21Z</time>
      </trkpt>
      <trkpt lat="47.13726" lon="6.13735">
        <ele>475.041</ele>
        <time>2022-10-10T12:43:22Z</time>
      </trkpt>
      <trkpt lat="47.13727" lon="6.13734">
        <ele>475.437</ele>
        <time>2022-10-10T12:43:23Z</time>
      </trkpt>
      <trkpt lat="47.1373" lon="6.13733">
        <ele>475.857</ele>
        <time>2022-10-10T12:43:24Z</time>
      </trkpt>
      <trkpt lat="47.13731" lon="6.13731">
        <ele>476.091</ele>
        <time>2022-10-10T12:43:25Z</time>
      </trkpt>
      <trkpt lat="47.13733" lon="6.1373">
        <ele>476.652</ele>
        <time>2022-10-10T12:43:26Z</time>
      </trkpt>
      <trkpt lat="47.13736" lon="6.13729">
        <ele>476.853</ele>
        <time>2022-10-10T12:43:27Z</time>
      </trkpt>
      <trkpt lat="47.13738" lon="6.13729">
        <ele>477.608</ele>
        <time>2022-10-10T12:43:28Z</time>
      </trkpt>
      <trkpt lat="47.13741" lon="6.13729">
        <ele>477.809</ele>
        <time>2022-10-10T12:43:29Z</time>
      </trkpt>
      <trkpt lat="47.13743" lon="6.13728">
        <ele>478.236</ele>
        <time>2022-10-10T12:43:30Z</time>
      </trkpt>
      <trkpt lat="47.13745" lon="6.13728">
        <ele>478.626</ele>
        <time>2022-10-10T12:43:31Z</time>
      </trkpt>
      <trkpt lat="47.13747" lon="6.13727">
        <ele>479.42</ele>
        <time>2022-10-10T12:43:32Z</time>
      </trkpt>
      <trkpt lat="47.13749" lon="6.13727">
        <ele>479.864</ele>
        <time>2022-10-10T12:43:33Z</time>
      </trkpt>
      <trkpt lat="47.13752" lon="6.13727">
        <ele>480.237</ele>
        <time>2022-10-10T12:43:34Z</time>
      </trkpt>
      <trkpt lat="47.13754" lon="6.13727">
        <ele>480.633</ele>
        <time>2022-10-10T12:43:35Z</time>
      </trkpt>
      <trkpt lat="47.13756" lon="6.13727">
        <ele>480.639</ele>
        <time>2022-10-10T12:43:36Z</time>
      </trkpt>
      <trkpt lat="47.13758" lon="6.13729">
        <ele>481.249</ele>
        <time>2022-10-10T12:43:37Z</time>
      </trkpt>
      <trkpt lat="47.13759" lon="6.1373">
        <ele>481.813</ele>
        <time>2022-10-10T12:43:38Z</time>
      </trkpt>
      <trkpt lat="47.13761" lon="6.13732">
        <ele>482.472</ele>
        <time>2022-10-10T12:43:39Z</time>
      </trkpt>
      <trkpt lat="47.13762" lon="6.13734">
        <ele>482.613</ele>
        <time>2022-10-10T12:43:40Z</time>
      </trkpt>
      <trkpt lat="47.13764" lon="6.13735">
        <ele>482.614</ele>
        <time>2022-10-10T12:43:41Z</time>
      </trkpt>
      <trkpt lat="47.13766" lon="6.13738">
        <ele>483.609</ele>
        <time>2022-10-10T12:43:42Z</time>
      </trkpt>
      <trkpt lat="47.13768" lon="6.1374">
        <ele>483.848</ele>
        <time>2022-10-10T12:43:43Z</time>
      </trkpt>
      <trkpt lat="47.13769" lon="6.13743">
        <ele>484.048</ele>
        <time>2022-10-10T12:43:44Z</time>
      </trkpt>
      <trkpt lat="47.13771" lon="6.13744">
        <ele>484.262</ele>
        <time>2022-10-10T12:43:45Z</time>
      </trkpt>
      <trkpt lat="47.13772" lon="6.13747">
        <ele>484.896</ele>
        <time>2022-10-10T12:43:46Z</time>
      </trkpt>
      <trkpt lat="47.13774" lon="6.13751">
        <ele>485.059</ele>
        <time>2022-10-10T12:43:47Z</time>
      </trkpt>
      <trkpt lat="47.13776" lon="6.13754">
        <ele>485.295</ele>
        <time>2022-10-10T12:43:48Z</time>
      </trkpt>
      <trkpt lat="47.13779" lon="6.13757">
        <ele>485.221</ele>
        <time>2022-10-10T12:43:49Z</time>
      </trkpt>
      <trkpt lat="47.13781" lon="6.1376">
        <ele>485.221</ele>
        <time>2022-10-10T12:43:50Z</time>
      </trkpt>
      <trkpt lat="47.13782" lon="6.13762">
        <ele>485.275</ele>
        <time>2022-10-10T12:43:51Z</time>
      </trkpt>
      <trkpt lat="47.13783" lon="6.13765">
        <ele>485.243</ele>
        <time>2022-10-10T12:43:52Z</time>
      </trkpt>
      <trkpt lat="47.13785" lon="6.13768">
        <ele>485.664</ele>
        <time>2022-10-10T12:43:53Z</time>
      </trkpt>
      <trkpt lat="47.13787" lon="6.13771">
        <ele>485.61</ele>
        <time>2022-10-10T12:43:54Z</time>
      </trkpt>
      <trkpt lat="47.13789" lon="6.13773">
        <ele>486.009</ele>
        <time>2022-10-10T12:43:55Z</time>
      </trkpt>
      <trkpt lat="47.13791" lon="6.13776">
        <ele>486.285</ele>
        <time>2022-10-10T12:43:56Z</time>
      </trkpt>
      <trkpt lat="47.13793" lon="6.1378">
        <ele>486.225</ele>
        <time>2022-10-10T12:43:57Z</time>
      </trkpt>
      <trkpt lat="47.13794" lon="6.13784">
        <ele>486.649</ele>
        <time>2022-10-10T12:43:58Z</time>
      </trkpt>
      <trkpt lat="47.13796" lon="6.13787">
        <ele>487.423</ele>
        <time>2022-10-10T12:43:59Z</time>
      </trkpt>
      <trkpt lat="47.13798" lon="6.13791">
        <ele>487.476</ele>
        <time>2022-10-10T12:44:00Z</time>
      </trkpt>
      <trkpt lat="47.138" lon="6.13795">
        <ele>487.622</ele>
        <time>2022-10-10T12:44:01Z</time>
      </trkpt>
      <trkpt lat="47.13803" lon="6.13799">
        <ele>488.248</ele>
        <time>2022-10-10T12:44:02Z</time>
      </trkpt>
      <trkpt lat="47.13805" lon="6.13802">
        <ele>488.498</ele>
        <time>2022-10-10T12:44:03Z</time>
      </trkpt>
      <trkpt lat="47.13808" lon="6.13805">
        <ele>488.612</ele>
        <time>2022-10-10T12:44:04Z</time>
      </trkpt>
      <trkpt lat="47.13811" lon="6.13808">
        <ele>488.657</ele>
        <time>2022-10-10T12:44:05Z</time>
      </trkpt>
      <trkpt lat="47.13813" lon="6.1381">
        <ele>489.2</ele>
        <time>2022-10-10T12:44:06Z</time>
      </trkpt>
      <trkpt lat="47.13814" lon="6.13812">
        <ele>489.62</ele>
        <time>2022-10-10T12:44:07Z</time>
      </trkpt>
      <trkpt lat="47.13814" lon="6.13815">
        <ele>489.809</ele>
        <time>2022-10-10T12:44:08Z</time>
      </trkpt>
      <trkpt lat="47.13816" lon="6.13817">
        <ele>490.026</ele>
        <time>2022-10-10T12:44:09Z</time>
      </trkpt>
      <trkpt lat="47.1382" lon="6.13818">
        <ele>490.656</ele>
        <time>2022-10-10T12:44:10Z</time>
      </trkpt>
      <trkpt lat="47.13823" lon="6.13821">
        <ele>490.65</ele>
        <time>2022-10-10T12:44:11Z</time>
      </trkpt>
      <trkpt lat="47.13825" lon="6.13824">
        <ele>491.074</ele>
        <time>2022-10-10T12:44:12Z</time>
      </trkpt>
      <trkpt lat="47.13828" lon="6.13827">
        <ele>491.447</ele>
        <time>2022-10-10T12:44:13Z</time>
      </trkpt>
      <trkpt lat="47.13828" lon="6.13831">
        <ele>491.663</ele>
        <time>2022-10-10T12:44:14Z</time>
      </trkpt>
      <trkpt lat="47.1383" lon="6.13835">
        <ele>491.839</ele>
        <time>2022-10-10T12:44:15Z</time>
      </trkpt>
      <trkpt lat="47.13832" lon="6.13838">
        <ele>491.849</ele>
        <time>2022-10-10T12:44:16Z</time>
      </trkpt>
      <trkpt lat="47.13835" lon="6.13842">
        <ele>492.483</ele>
        <time>2022-10-10T12:44:17Z</time>
      </trkpt>
      <trkpt lat="47.13836" lon="6.13845">
        <ele>492.676</ele>
        <time>2022-10-10T12:44:18Z</time>
      </trkpt>
      <trkpt lat="47.13838" lon="6.13849">
        <ele>492.69</ele>
        <time>2022-10-10T12:44:19Z</time>
      </trkpt>
      <trkpt lat="47.1384" lon="6.13854">
        <ele>493.019</ele>
        <time>2022-10-10T12:44:20Z</time>
      </trkpt>
      <trkpt lat="47.13842" lon="6.13857">
        <ele>493.009</ele>
        <time>2022-10-10T12:44:21Z</time>
      </trkpt>
      <trkpt lat="47.13841" lon="6.1386">
        <ele>493.428</ele>
        <time>2022-10-10T12:44:22Z</time>
      </trkpt>
      <trkpt lat="47.13841" lon="6.13862">
        <ele>493.438</ele>
        <time>2022-10-10T12:44:23Z</time>
      </trkpt>
      <trkpt lat="47.13842" lon="6.13864">
        <ele>493.812</ele>
        <time>2022-10-10T12:44:24Z</time>
      </trkpt>
      <trkpt lat="47.13845" lon="6.13867">
        <ele>494.056</ele>
        <time>2022-10-10T12:44:25Z</time>
      </trkpt>
      <trkpt lat="47.13848" lon="6.13869">
        <ele>494.049</ele>
        <time>2022-10-10T12:44:26Z</time>
      </trkpt>
      <trkpt lat="47.13851" lon="6.13871">
        <ele>494.025</ele>
        <time>2022-10-10T12:44:27Z</time>
      </trkpt>
      <trkpt lat="47.13855" lon="6.13874">
        <ele>494.041</ele>
        <time>2022-10-10T12:44:28Z</time>
      </trkpt>
      <trkpt lat="47.13858" lon="6.13878">
        <ele>494.031</ele>
        <time>2022-10-10T12:44:29Z</time>
      </trkpt>
      <trkpt lat="47.13861" lon="6.1388">
        <ele>494.035</ele>
        <time>2022-10-10T12:44:30Z</time>
      </trkpt>
      <trkpt lat="47.13864" lon="6.13883">
        <ele>494.034</ele>
        <time>2022-10-10T12:44:31Z</time>
      </trkpt>
      <trkpt lat="47.13865" lon="6.13885">
        <ele>494.055</ele>
        <time>2022-10-10T12:44:32Z</time>
      </trkpt>
      <trkpt lat="47.13868" lon="6.13887">
        <ele>494.01</ele>
        <time>2022-10-10T12:44:33Z</time>
      </trkpt>
      <trkpt lat="47.1387" lon="6.13889">
        <ele>494.209</ele>
        <time>2022-10-10T12:44:34Z</time>
      </trkpt>
      <trkpt lat="47.13874" lon="6.1389">
        <ele>494.214</ele>
        <time>2022-10-10T12:44:35Z</time>
      </trkpt>
      <trkpt lat="47.13877" lon="6.13891">
        <ele>494.244</ele>
        <time>2022-10-10T12:44:36Z</time>
      </trkpt>
      <trkpt lat="47.13879" lon="6.13893">
        <ele>494.468</ele>
        <time>2022-10-10T12:44:37Z</time>
      </trkpt>
      <trkpt lat="47.13882" lon="6.13894">
        <ele>494.442</ele>
        <time>2022-10-10T12:44:38Z</time>
      </trkpt>
      <trkpt lat="47.13885" lon="6.13896">
        <ele>495.045</ele>
        <time>2022-10-10T12:44:39Z</time>
      </trkpt>
      <trkpt lat="47.13887" lon="6.13898">
        <ele>495.051</ele>
        <time>2022-10-10T12:44:40Z</time>
      </trkpt>
      <trkpt lat="47.13891" lon="6.13899">
        <ele>495.437</ele>
        <time>2022-10-10T12:44:41Z</time>
      </trkpt>
      <trkpt lat="47.13894" lon="6.139">
        <ele>495.667</ele>
        <time>2022-10-10T12:44:42Z</time>
      </trkpt>
      <trkpt lat="47.13897" lon="6.13901">
        <ele>495.811</ele>
        <time>2022-10-10T12:44:43Z</time>
      </trkpt>
      <trkpt lat="47.139" lon="6.13901">
        <ele>495.878</ele>
        <time>2022-10-10T12:44:44Z</time>
      </trkpt>
      <trkpt lat="47.13903" lon="6.13902">
        <ele>495.833</ele>
        <time>2022-10-10T12:44:45Z</time>
      </trkpt>
      <trkpt lat="47.13906" lon="6.13902">
        <ele>495.826</ele>
        <time>2022-10-10T12:44:46Z</time>
      </trkpt>
      <trkpt lat="47.13908" lon="6.13901">
        <ele>496.009</ele>
        <time>2022-10-10T12:44:47Z</time>
      </trkpt>
      <trkpt lat="47.1391" lon="6.139">
        <ele>496.068</ele>
        <time>2022-10-10T12:44:48Z</time>
      </trkpt>
      <trkpt lat="47.13913" lon="6.13898">
        <ele>496.058</ele>
        <time>2022-10-10T12:44:49Z</time>
      </trkpt>
      <trkpt lat="47.13915" lon="6.13897">
        <ele>496.262</ele>
        <time>2022-10-10T12:44:50Z</time>
      </trkpt>
      <trkpt lat="47.13917" lon="6.13895">
        <ele>496.256</ele>
        <time>2022-10-10T12:44:51Z</time>
      </trkpt>
      <trkpt lat="47.1392" lon="6.13894">
        <ele>496.029</ele>
        <time>2022-10-10T12:44:52Z</time>
      </trkpt>
      <trkpt lat="47.13923" lon="6.13893">
        <ele>496.265</ele>
        <time>2022-10-10T12:44:53Z</time>
      </trkpt>
      <trkpt lat="47.13927" lon="6.13892">
        <ele>496.031</ele>
        <time>2022-10-10T12:44:54Z</time>
      </trkpt>
      <trkpt lat="47.13931" lon="6.1389">
        <ele>496.081</ele>
        <time>2022-10-10T12:44:55Z</time>
      </trkpt>
      <trkpt lat="47.13935" lon="6.13889">
        <ele>496.225</ele>
        <time>2022-10-10T12:44:56Z</time>
      </trkpt>
      <trkpt lat="47.1394" lon="6.13888">
        <ele>496.279</ele>
        <time>2022-10-10T12:44:57Z</time>
      </trkpt>
      <trkpt lat="47.13944" lon="6.13887">
        <ele>496.205</ele>
        <time>2022-10-10T12:44:58Z</time>
      </trkpt>
      <trkpt lat="47.13949" lon="6.13887">
        <ele>496.225</ele>
        <time>2022-10-10T12:44:59Z</time>
      </trkpt>
      <trkpt lat="47.13953" lon="6.13886">
        <ele>496.209</ele>
        <time>2022-10-10T12:45:00Z</time>
      </trkpt>
      <trkpt lat="47.13965" lon="6.13884">
        <ele>496.448</ele>
        <time>2022-10-10T12:45:03Z</time>
      </trkpt>
      <trkpt lat="47.1397" lon="6.13884">
        <ele>496.428</ele>
        <time>2022-10-10T12:45:04Z</time>
      </trkpt>
      <trkpt lat="47.1398" lon="6.13882">
        <ele>497.282</ele>
        <time>2022-10-10T12:45:06Z</time>
      </trkpt>
      <trkpt lat="47.1399" lon="6.13879">
        <ele>497.866</ele>
        <time>2022-10-10T12:45:09Z</time>
      </trkpt>
      <trkpt lat="47.13994" lon="6.13878">
        <ele>498.439</ele>
        <time>2022-10-10T12:45:10Z</time>
      </trkpt>
      <trkpt lat="47.13998" lon="6.13877">
        <ele>498.675</ele>
        <time>2022-10-10T12:45:11Z</time>
      </trkpt>
      <trkpt lat="47.14001" lon="6.13877">
        <ele>498.841</ele>
        <time>2022-10-10T12:45:12Z</time>
      </trkpt>
      <trkpt lat="47.14005" lon="6.13876">
        <ele>499.251</ele>
        <time>2022-10-10T12:45:13Z</time>
      </trkpt>
      <trkpt lat="47.14009" lon="6.13876">
        <ele>499.695</ele>
        <time>2022-10-10T12:45:14Z</time>
      </trkpt>
      <trkpt lat="47.14013" lon="6.13877">
        <ele>500.034</ele>
        <time>2022-10-10T12:45:15Z</time>
      </trkpt>
      <trkpt lat="47.14017" lon="6.13877">
        <ele>500.255</ele>
        <time>2022-10-10T12:45:16Z</time>
      </trkpt>
      <trkpt lat="47.14021" lon="6.13878">
        <ele>500.81</ele>
        <time>2022-10-10T12:45:17Z</time>
      </trkpt>
      <trkpt lat="47.14024" lon="6.13879">
        <ele>502.009</ele>
        <time>2022-10-10T12:45:18Z</time>
      </trkpt>
      <trkpt lat="47.14027" lon="6.1388">
        <ele>502.454</ele>
        <time>2022-10-10T12:45:19Z</time>
      </trkpt>
      <trkpt lat="47.1403" lon="6.13881">
        <ele>502.464</ele>
        <time>2022-10-10T12:45:20Z</time>
      </trkpt>
      <trkpt lat="47.14033" lon="6.13883">
        <ele>502.858</ele>
        <time>2022-10-10T12:45:21Z</time>
      </trkpt>
      <trkpt lat="47.14035" lon="6.13884">
        <ele>504.072</ele>
        <time>2022-10-10T12:45:22Z</time>
      </trkpt>
      <trkpt lat="47.14038" lon="6.13885">
        <ele>504.025</ele>
        <time>2022-10-10T12:45:23Z</time>
      </trkpt>
      <trkpt lat="47.14041" lon="6.13886">
        <ele>504.281</ele>
        <time>2022-10-10T12:45:24Z</time>
      </trkpt>
      <trkpt lat="47.14045" lon="6.13887">
        <ele>504.637</ele>
        <time>2022-10-10T12:45:25Z</time>
      </trkpt>
      <trkpt lat="47.14048" lon="6.13887">
        <ele>505.047</ele>
        <time>2022-10-10T12:45:26Z</time>
      </trkpt>
      <trkpt lat="47.14051" lon="6.13886">
        <ele>505.231</ele>
        <time>2022-10-10T12:45:27Z</time>
      </trkpt>
      <trkpt lat="47.14055" lon="6.13886">
        <ele>505.421</ele>
        <time>2022-10-10T12:45:28Z</time>
      </trkpt>
      <trkpt lat="47.14059" lon="6.13885">
        <ele>505.441</ele>
        <time>2022-10-10T12:45:29Z</time>
      </trkpt>
      <trkpt lat="47.14063" lon="6.13885">
        <ele>506.205</ele>
        <time>2022-10-10T12:45:30Z</time>
      </trkpt>
      <trkpt lat="47.14067" lon="6.13886">
        <ele>506.409</ele>
        <time>2022-10-10T12:45:31Z</time>
      </trkpt>
      <trkpt lat="47.14071" lon="6.13887">
        <ele>506.483</ele>
        <time>2022-10-10T12:45:32Z</time>
      </trkpt>
      <trkpt lat="47.14075" lon="6.13887">
        <ele>506.843</ele>
        <time>2022-10-10T12:45:33Z</time>
      </trkpt>
      <trkpt lat="47.14079" lon="6.13888">
        <ele>506.857</ele>
        <time>2022-10-10T12:45:34Z</time>
      </trkpt>
      <trkpt lat="47.14083" lon="6.13888">
        <ele>507.481</ele>
        <time>2022-10-10T12:45:35Z</time>
      </trkpt>
      <trkpt lat="47.14087" lon="6.13889">
        <ele>507.444</ele>
        <time>2022-10-10T12:45:36Z</time>
      </trkpt>
      <trkpt lat="47.14092" lon="6.13888">
        <ele>507.86</ele>
        <time>2022-10-10T12:45:37Z</time>
      </trkpt>
      <trkpt lat="47.14096" lon="6.13889">
        <ele>507.826</ele>
        <time>2022-10-10T12:45:38Z</time>
      </trkpt>
      <trkpt lat="47.14101" lon="6.13888">
        <ele>507.886</ele>
        <time>2022-10-10T12:45:39Z</time>
      </trkpt>
      <trkpt lat="47.14106" lon="6.13888">
        <ele>508.24</ele>
        <time>2022-10-10T12:45:40Z</time>
      </trkpt>
      <trkpt lat="47.1411" lon="6.13888">
        <ele>508.483</ele>
        <time>2022-10-10T12:45:41Z</time>
      </trkpt>
      <trkpt lat="47.14115" lon="6.13888">
        <ele>509.425</ele>
        <time>2022-10-10T12:45:42Z</time>
      </trkpt>
      <trkpt lat="47.14119" lon="6.13888">
        <ele>509.417</ele>
        <time>2022-10-10T12:45:43Z</time>
      </trkpt>
      <trkpt lat="47.14124" lon="6.13888">
        <ele>509.609</ele>
        <time>2022-10-10T12:45:44Z</time>
      </trkpt>
      <trkpt lat="47.14128" lon="6.13887">
        <ele>509.639</ele>
        <time>2022-10-10T12:45:45Z</time>
      </trkpt>
      <trkpt lat="47.14133" lon="6.13886">
        <ele>509.639</ele>
        <time>2022-10-10T12:45:46Z</time>
      </trkpt>
      <trkpt lat="47.14138" lon="6.13886">
        <ele>509.653</ele>
        <time>2022-10-10T12:45:47Z</time>
      </trkpt>
      <trkpt lat="47.14144" lon="6.13885">
        <ele>509.667</ele>
        <time>2022-10-10T12:45:48Z</time>
      </trkpt>
      <trkpt lat="47.14149" lon="6.13885">
        <ele>509.65</ele>
        <time>2022-10-10T12:45:49Z</time>
      </trkpt>
      <trkpt lat="47.14155" lon="6.13884">
        <ele>509.626</ele>
        <time>2022-10-10T12:45:50Z</time>
      </trkpt>
      <trkpt lat="47.14161" lon="6.13883">
        <ele>509.482</ele>
        <time>2022-10-10T12:45:51Z</time>
      </trkpt>
      <trkpt lat="47.14167" lon="6.13882">
        <ele>509.232</ele>
        <time>2022-10-10T12:45:52Z</time>
      </trkpt>
      <trkpt lat="47.14173" lon="6.13881">
        <ele>509.096</ele>
        <time>2022-10-10T12:45:53Z</time>
      </trkpt>
      <trkpt lat="47.14178" lon="6.1388">
        <ele>509.035</ele>
        <time>2022-10-10T12:45:54Z</time>
      </trkpt>
      <trkpt lat="47.14184" lon="6.13879">
        <ele>509.086</ele>
        <time>2022-10-10T12:45:55Z</time>
      </trkpt>
      <trkpt lat="47.1419" lon="6.13878">
        <ele>509.014</ele>
        <time>2022-10-10T12:45:56Z</time>
      </trkpt>
      <trkpt lat="47.14195" lon="6.13877">
        <ele>509.009</ele>
        <time>2022-10-10T12:45:57Z</time>
      </trkpt>
      <trkpt lat="47.14201" lon="6.13876">
        <ele>509.244</ele>
        <time>2022-10-10T12:45:58Z</time>
      </trkpt>
      <trkpt lat="47.14206" lon="6.13875">
        <ele>510.094</ele>
        <time>2022-10-10T12:45:59Z</time>
      </trkpt>
      <trkpt lat="47.14212" lon="6.13874">
        <ele>510.678</ele>
        <time>2022-10-10T12:46:00Z</time>
      </trkpt>
      <trkpt lat="47.14217" lon="6.13873">
        <ele>510.672</ele>
        <time>2022-10-10T12:46:01Z</time>
      </trkpt>
      <trkpt lat="47.14222" lon="6.13872">
        <ele>510.635</ele>
        <time>2022-10-10T12:46:02Z</time>
      </trkpt>
      <trkpt lat="47.14227" lon="6.13871">
        <ele>510.841</ele>
        <time>2022-10-10T12:46:03Z</time>
      </trkpt>
      <trkpt lat="47.14232" lon="6.1387">
        <ele>510.857</ele>
        <time>2022-10-10T12:46:04Z</time>
      </trkpt>
      <trkpt lat="47.14237" lon="6.13869">
        <ele>511.247</ele>
        <time>2022-10-10T12:46:05Z</time>
      </trkpt>
      <trkpt lat="47.14242" lon="6.13868">
        <ele>511.421</ele>
        <time>2022-10-10T12:46:06Z</time>
      </trkpt>
      <trkpt lat="47.14247" lon="6.13867">
        <ele>511.463</ele>
        <time>2022-10-10T12:46:07Z</time>
      </trkpt>
      <trkpt lat="47.14253" lon="6.13865">
        <ele>512.444</ele>
        <time>2022-10-10T12:46:08Z</time>
      </trkpt>
      <trkpt lat="47.14257" lon="6.13864">
        <ele>513.018</ele>
        <time>2022-10-10T12:46:09Z</time>
      </trkpt>
      <trkpt lat="47.14262" lon="6.13863">
        <ele>513.409</ele>
        <time>2022-10-10T12:46:10Z</time>
      </trkpt>
      <trkpt lat="47.14267" lon="6.13862">
        <ele>513.477</ele>
        <time>2022-10-10T12:46:11Z</time>
      </trkpt>
      <trkpt lat="47.14272" lon="6.13861">
        <ele>513.647</ele>
        <time>2022-10-10T12:46:12Z</time>
      </trkpt>
      <trkpt lat="47.14277" lon="6.1386">
        <ele>514.021</ele>
        <time>2022-10-10T12:46:13Z</time>
      </trkpt>
      <trkpt lat="47.14282" lon="6.13859">
        <ele>514.455</ele>
        <time>2022-10-10T12:46:14Z</time>
      </trkpt>
      <trkpt lat="47.14286" lon="6.13858">
        <ele>514.838</ele>
        <time>2022-10-10T12:46:15Z</time>
      </trkpt>
      <trkpt lat="47.1429" lon="6.13857">
        <ele>515.434</ele>
        <time>2022-10-10T12:46:16Z</time>
      </trkpt>
      <trkpt lat="47.14296" lon="6.13856">
        <ele>515.43</ele>
        <time>2022-10-10T12:46:17Z</time>
      </trkpt>
      <trkpt lat="47.14299" lon="6.13856">
        <ele>516.42</ele>
        <time>2022-10-10T12:46:18Z</time>
      </trkpt>
      <trkpt lat="47.14304" lon="6.13856">
        <ele>516.884</ele>
        <time>2022-10-10T12:46:19Z</time>
      </trkpt>
      <trkpt lat="47.14309" lon="6.13855">
        <ele>516.862</ele>
        <time>2022-10-10T12:46:20Z</time>
      </trkpt>
      <trkpt lat="47.14314" lon="6.13855">
        <ele>517.683</ele>
        <time>2022-10-10T12:46:21Z</time>
      </trkpt>
      <trkpt lat="47.14319" lon="6.13856">
        <ele>518.011</ele>
        <time>2022-10-10T12:46:22Z</time>
      </trkpt>
      <trkpt lat="47.14324" lon="6.13856">
        <ele>518.609</ele>
        <time>2022-10-10T12:46:23Z</time>
      </trkpt>
      <trkpt lat="47.14329" lon="6.13857">
        <ele>519.267</ele>
        <time>2022-10-10T12:46:24Z</time>
      </trkpt>
      <trkpt lat="47.14332" lon="6.13858">
        <ele>519.247</ele>
        <time>2022-10-10T12:46:25Z</time>
      </trkpt>
      <trkpt lat="47.14338" lon="6.13859">
        <ele>519.621</ele>
        <time>2022-10-10T12:46:26Z</time>
      </trkpt>
      <trkpt lat="47.14343" lon="6.1386">
        <ele>520.095</ele>
        <time>2022-10-10T12:46:27Z</time>
      </trkpt>
      <trkpt lat="47.14347" lon="6.13861">
        <ele>520.428</ele>
        <time>2022-10-10T12:46:28Z</time>
      </trkpt>
      <trkpt lat="47.14352" lon="6.13863">
        <ele>521.074</ele>
        <time>2022-10-10T12:46:29Z</time>
      </trkpt>
      <trkpt lat="47.14355" lon="6.13863">
        <ele>522.04</ele>
        <time>2022-10-10T12:46:30Z</time>
      </trkpt>
      <trkpt lat="47.1436" lon="6.13864">
        <ele>522.42</ele>
        <time>2022-10-10T12:46:31Z</time>
      </trkpt>
      <trkpt lat="47.14364" lon="6.13865">
        <ele>523.024</ele>
        <time>2022-10-10T12:46:32Z</time>
      </trkpt>
      <trkpt lat="47.14367" lon="6.13865">
        <ele>523.226</ele>
        <time>2022-10-10T12:46:33Z</time>
      </trkpt>
      <trkpt lat="47.14371" lon="6.13865">
        <ele>523.847</ele>
        <time>2022-10-10T12:46:34Z</time>
      </trkpt>
      <trkpt lat="47.14376" lon="6.13865">
        <ele>524.011</ele>
        <time>2022-10-10T12:46:35Z</time>
      </trkpt>
      <trkpt lat="47.14381" lon="6.13864">
        <ele>524.809</ele>
        <time>2022-10-10T12:46:36Z</time>
      </trkpt>
      <trkpt lat="47.14385" lon="6.13864">
        <ele>525.243</ele>
        <time>2022-10-10T12:46:37Z</time>
      </trkpt>
      <trkpt lat="47.14388" lon="6.13863">
        <ele>525.843</ele>
        <time>2022-10-10T12:46:38Z</time>
      </trkpt>
      <trkpt lat="47.14393" lon="6.13863">
        <ele>526.057</ele>
        <time>2022-10-10T12:46:39Z</time>
      </trkpt>
      <trkpt lat="47.14398" lon="6.13863">
        <ele>526.251</ele>
        <time>2022-10-10T12:46:40Z</time>
      </trkpt>
      <trkpt lat="47.14402" lon="6.13863">
        <ele>526.414</ele>
        <time>2022-10-10T12:46:41Z</time>
      </trkpt>
      <trkpt lat="47.14407" lon="6.13864">
        <ele>526.68</ele>
        <time>2022-10-10T12:46:42Z</time>
      </trkpt>
      <trkpt lat="47.14412" lon="6.13864">
        <ele>526.666</ele>
        <time>2022-10-10T12:46:43Z</time>
      </trkpt>
      <trkpt lat="47.14417" lon="6.13864">
        <ele>527.246</ele>
        <time>2022-10-10T12:46:44Z</time>
      </trkpt>
      <trkpt lat="47.14422" lon="6.13863">
        <ele>527.44</ele>
        <time>2022-10-10T12:46:45Z</time>
      </trkpt>
      <trkpt lat="47.14427" lon="6.13863">
        <ele>527.489</ele>
        <time>2022-10-10T12:46:46Z</time>
      </trkpt>
      <trkpt lat="47.14432" lon="6.13864">
        <ele>527.606</ele>
        <time>2022-10-10T12:46:47Z</time>
      </trkpt>
      <trkpt lat="47.14438" lon="6.13864">
        <ele>528.226</ele>
        <time>2022-10-10T12:46:48Z</time>
      </trkpt>
      <trkpt lat="47.14444" lon="6.13865">
        <ele>528.209</ele>
        <time>2022-10-10T12:46:49Z</time>
      </trkpt>
      <trkpt lat="47.14449" lon="6.13865">
        <ele>528.239</ele>
        <time>2022-10-10T12:46:50Z</time>
      </trkpt>
      <trkpt lat="47.14455" lon="6.13866">
        <ele>528.269</ele>
        <time>2022-10-10T12:46:51Z</time>
      </trkpt>
      <trkpt lat="47.14461" lon="6.13866">
        <ele>528.033</ele>
        <time>2022-10-10T12:46:52Z</time>
      </trkpt>
      <trkpt lat="47.14467" lon="6.13867">
        <ele>527.867</ele>
        <time>2022-10-10T12:46:53Z</time>
      </trkpt>
      <trkpt lat="47.14473" lon="6.13868">
        <ele>527.84</ele>
        <time>2022-10-10T12:46:54Z</time>
      </trkpt>
      <trkpt lat="47.1448" lon="6.1387">
        <ele>527.876</ele>
        <time>2022-10-10T12:46:55Z</time>
      </trkpt>
      <trkpt lat="47.14486" lon="6.13871">
        <ele>527.872</ele>
        <time>2022-10-10T12:46:56Z</time>
      </trkpt>
      <trkpt lat="47.14492" lon="6.13873">
        <ele>528.292</ele>
        <time>2022-10-10T12:46:57Z</time>
      </trkpt>
      <trkpt lat="47.14498" lon="6.13874">
        <ele>528.236</ele>
        <time>2022-10-10T12:46:58Z</time>
      </trkpt>
      <trkpt lat="47.14504" lon="6.13874">
        <ele>528.222</ele>
        <time>2022-10-10T12:46:59Z</time>
      </trkpt>
      <trkpt lat="47.1451" lon="6.13874">
        <ele>528.262</ele>
        <time>2022-10-10T12:47:00Z</time>
      </trkpt>
      <trkpt lat="47.14516" lon="6.13874">
        <ele>528.208</ele>
        <time>2022-10-10T12:47:01Z</time>
      </trkpt>
      <trkpt lat="47.14522" lon="6.13873">
        <ele>527.409</ele>
        <time>2022-10-10T12:47:02Z</time>
      </trkpt>
      <trkpt lat="47.14528" lon="6.13872">
        <ele>527.423</ele>
        <time>2022-10-10T12:47:03Z</time>
      </trkpt>
      <trkpt lat="47.14534" lon="6.13871">
        <ele>527.483</ele>
        <time>2022-10-10T12:47:04Z</time>
      </trkpt>
      <trkpt lat="47.14541" lon="6.1387">
        <ele>527.457</ele>
        <time>2022-10-10T12:47:05Z</time>
      </trkpt>
      <trkpt lat="47.14547" lon="6.1387">
        <ele>527.291</ele>
        <time>2022-10-10T12:47:06Z</time>
      </trkpt>
      <trkpt lat="47.14553" lon="6.13869">
        <ele>527.234</ele>
        <time>2022-10-10T12:47:07Z</time>
      </trkpt>
      <trkpt lat="47.14559" lon="6.13868">
        <ele>527.21</ele>
        <time>2022-10-10T12:47:08Z</time>
      </trkpt>
      <trkpt lat="47.14579" lon="6.13866">
        <ele>527.066</ele>
        <time>2022-10-10T12:47:11Z</time>
      </trkpt>
      <trkpt lat="47.14586" lon="6.13865">
        <ele>525.666</ele>
        <time>2022-10-10T12:47:12Z</time>
      </trkpt>
      <trkpt lat="47.14617" lon="6.13864">
        <ele>522.43</ele>
        <time>2022-10-10T12:47:16Z</time>
      </trkpt>
      <trkpt lat="47.14634" lon="6.13863">
        <ele>521.889</ele>
        <time>2022-10-10T12:47:18Z</time>
      </trkpt>
      <trkpt lat="47.14643" lon="6.13863">
        <ele>521.406</ele>
        <time>2022-10-10T12:47:19Z</time>
      </trkpt>
      <trkpt lat="47.14651" lon="6.13863">
        <ele>521.426</ele>
        <time>2022-10-10T12:47:20Z</time>
      </trkpt>
      <trkpt lat="47.14659" lon="6.13863">
        <ele>521.409</ele>
        <time>2022-10-10T12:47:21Z</time>
      </trkpt>
      <trkpt lat="47.14667" lon="6.13862">
        <ele>521.659</ele>
        <time>2022-10-10T12:47:22Z</time>
      </trkpt>
      <trkpt lat="47.14674" lon="6.13862">
        <ele>521.889</ele>
        <time>2022-10-10T12:47:23Z</time>
      </trkpt>
      <trkpt lat="47.14682" lon="6.13862">
        <ele>521.883</ele>
        <time>2022-10-10T12:47:24Z</time>
      </trkpt>
      <trkpt lat="47.14688" lon="6.13862">
        <ele>521.827</ele>
        <time>2022-10-10T12:47:25Z</time>
      </trkpt>
      <trkpt lat="47.14694" lon="6.13861">
        <ele>522.86</ele>
        <time>2022-10-10T12:47:26Z</time>
      </trkpt>
      <trkpt lat="47.147" lon="6.13861">
        <ele>523.246</ele>
        <time>2022-10-10T12:47:27Z</time>
      </trkpt>
      <trkpt lat="47.14706" lon="6.13861">
        <ele>523.492</ele>
        <time>2022-10-10T12:47:28Z</time>
      </trkpt>
      <trkpt lat="47.14712" lon="6.13861">
        <ele>523.812</ele>
        <time>2022-10-10T12:47:29Z</time>
      </trkpt>
      <trkpt lat="47.14723" lon="6.1386">
        <ele>524.296</ele>
        <time>2022-10-10T12:47:31Z</time>
      </trkpt>
      <trkpt lat="47.14729" lon="6.1386">
        <ele>524.643</ele>
        <time>2022-10-10T12:47:32Z</time>
      </trkpt>
      <trkpt lat="47.14735" lon="6.1386">
        <ele>524.664</ele>
        <time>2022-10-10T12:47:33Z</time>
      </trkpt>
      <trkpt lat="47.14746" lon="6.1386">
        <ele>525.81</ele>
        <time>2022-10-10T12:47:35Z</time>
      </trkpt>
      <trkpt lat="47.14752" lon="6.1386">
        <ele>526.009</ele>
        <time>2022-10-10T12:47:36Z</time>
      </trkpt>
      <trkpt lat="47.1477" lon="6.13858">
        <ele>526.885</ele>
        <time>2022-10-10T12:47:39Z</time>
      </trkpt>
      <trkpt lat="47.14789" lon="6.13858">
        <ele>527.415</ele>
        <time>2022-10-10T12:47:42Z</time>
      </trkpt>
      <trkpt lat="47.14795" lon="6.13857">
        <ele>528.089</ele>
        <time>2022-10-10T12:47:43Z</time>
      </trkpt>
      <trkpt lat="47.14801" lon="6.13857">
        <ele>528.453</ele>
        <time>2022-10-10T12:47:44Z</time>
      </trkpt>
      <trkpt lat="47.14807" lon="6.13857">
        <ele>528.466</ele>
        <time>2022-10-10T12:47:45Z</time>
      </trkpt>
      <trkpt lat="47.14813" lon="6.13857">
        <ele>528.452</ele>
        <time>2022-10-10T12:47:46Z</time>
      </trkpt>
      <trkpt lat="47.1482" lon="6.13857">
        <ele>528.428</ele>
        <time>2022-10-10T12:47:47Z</time>
      </trkpt>
      <trkpt lat="47.14826" lon="6.13856">
        <ele>528.478</ele>
        <time>2022-10-10T12:47:48Z</time>
      </trkpt>
      <trkpt lat="47.14833" lon="6.13856">
        <ele>528.632</ele>
        <time>2022-10-10T12:47:49Z</time>
      </trkpt>
      <trkpt lat="47.14839" lon="6.13856">
        <ele>528.668</ele>
        <time>2022-10-10T12:47:50Z</time>
      </trkpt>
      <trkpt lat="47.14845" lon="6.13856">
        <ele>528.842</ele>
        <time>2022-10-10T12:47:51Z</time>
      </trkpt>
      <trkpt lat="47.14852" lon="6.13856">
        <ele>528.826</ele>
        <time>2022-10-10T12:47:52Z</time>
      </trkpt>
      <trkpt lat="47.14858" lon="6.13855">
        <ele>528.809</ele>
        <time>2022-10-10T12:47:53Z</time>
      </trkpt>
      <trkpt lat="47.14865" lon="6.13855">
        <ele>528.877</ele>
        <time>2022-10-10T12:47:54Z</time>
      </trkpt>
      <trkpt lat="47.14871" lon="6.13854">
        <ele>528.857</ele>
        <time>2022-10-10T12:47:55Z</time>
      </trkpt>
      <trkpt lat="47.14878" lon="6.13854">
        <ele>528.881</ele>
        <time>2022-10-10T12:47:56Z</time>
      </trkpt>
      <trkpt lat="47.14885" lon="6.13854">
        <ele>528.865</ele>
        <time>2022-10-10T12:47:57Z</time>
      </trkpt>
      <trkpt lat="47.14891" lon="6.13853">
        <ele>528.618</ele>
        <time>2022-10-10T12:47:58Z</time>
      </trkpt>
      <trkpt lat="47.14897" lon="6.13853">
        <ele>528.694</ele>
        <time>2022-10-10T12:47:59Z</time>
      </trkpt>
      <trkpt lat="47.14904" lon="6.13853">
        <ele>528.69</ele>
        <time>2022-10-10T12:48:00Z</time>
      </trkpt>
      <trkpt lat="47.1491" lon="6.13852">
        <ele>528.81</ele>
        <time>2022-10-10T12:48:01Z</time>
      </trkpt>
      <trkpt lat="47.14916" lon="6.13852">
        <ele>528.844</ele>
        <time>2022-10-10T12:48:02Z</time>
      </trkpt>
      <trkpt lat="47.14922" lon="6.13852">
        <ele>528.843</ele>
        <time>2022-10-10T12:48:03Z</time>
      </trkpt>
      <trkpt lat="47.14929" lon="6.13852">
        <ele>528.664</ele>
        <time>2022-10-10T12:48:04Z</time>
      </trkpt>
      <trkpt lat="47.14935" lon="6.13852">
        <ele>528.61</ele>
        <time>2022-10-10T12:48:05Z</time>
      </trkpt>
      <trkpt lat="47.14948" lon="6.13852">
        <ele>528.609</ele>
        <time>2022-10-10T12:48:07Z</time>
      </trkpt>
      <trkpt lat="47.14954" lon="6.13852">
        <ele>528.095</ele>
        <time>2022-10-10T12:48:08Z</time>
      </trkpt>
      <trkpt lat="47.14967" lon="6.13854">
        <ele>528.465</ele>
        <time>2022-10-10T12:48:10Z</time>
      </trkpt>
      <trkpt lat="47.14973" lon="6.13855">
        <ele>528.479</ele>
        <time>2022-10-10T12:48:11Z</time>
      </trkpt>
      <trkpt lat="47.14979" lon="6.13856">
        <ele>528.463</ele>
        <time>2022-10-10T12:48:12Z</time>
      </trkpt>
      <trkpt lat="47.14985" lon="6.13857">
        <ele>528.826</ele>
        <time>2022-10-10T12:48:13Z</time>
      </trkpt>
      <trkpt lat="47.14991" lon="6.13858">
        <ele>529.032</ele>
        <time>2022-10-10T12:48:14Z</time>
      </trkpt>
      <trkpt lat="47.15008" lon="6.1386">
        <ele>530.478</ele>
        <time>2022-10-10T12:48:17Z</time>
      </trkpt>
      <trkpt lat="47.15026" lon="6.1386">
        <ele>530.838</ele>
        <time>2022-10-10T12:48:20Z</time>
      </trkpt>
      <trkpt lat="47.1505" lon="6.13857">
        <ele>531.272</ele>
        <time>2022-10-10T12:48:24Z</time>
      </trkpt>
      <trkpt lat="47.15056" lon="6.13857">
        <ele>531.261</ele>
        <time>2022-10-10T12:48:25Z</time>
      </trkpt>
      <trkpt lat="47.15062" lon="6.13856">
        <ele>531.221</ele>
        <time>2022-10-10T12:48:26Z</time>
      </trkpt>
      <trkpt lat="47.15068" lon="6.13855">
        <ele>531.213</ele>
        <time>2022-10-10T12:48:27Z</time>
      </trkpt>
      <trkpt lat="47.15074" lon="6.13853">
        <ele>531.209</ele>
        <time>2022-10-10T12:48:28Z</time>
      </trkpt>
      <trkpt lat="47.1508" lon="6.13852">
        <ele>531.267</ele>
        <time>2022-10-10T12:48:29Z</time>
      </trkpt>
      <trkpt lat="47.15086" lon="6.13851">
        <ele>530.657</ele>
        <time>2022-10-10T12:48:30Z</time>
      </trkpt>
      <trkpt lat="47.15092" lon="6.13849">
        <ele>530.611</ele>
        <time>2022-10-10T12:48:31Z</time>
      </trkpt>
      <trkpt lat="47.15098" lon="6.13848">
        <ele>530.435</ele>
        <time>2022-10-10T12:48:32Z</time>
      </trkpt>
      <trkpt lat="47.15152" lon="6.13833">
        <ele>530.818</ele>
        <time>2022-10-10T12:48:41Z</time>
      </trkpt>
      <trkpt lat="47.15158" lon="6.13831">
        <ele>531.294</ele>
        <time>2022-10-10T12:48:42Z</time>
      </trkpt>
      <trkpt lat="47.15175" lon="6.13825">
        <ele>531.27</ele>
        <time>2022-10-10T12:48:45Z</time>
      </trkpt>
      <trkpt lat="47.15181" lon="6.13823">
        <ele>531.28</ele>
        <time>2022-10-10T12:48:46Z</time>
      </trkpt>
      <trkpt lat="47.15187" lon="6.1382">
        <ele>531.424</ele>
        <time>2022-10-10T12:48:47Z</time>
      </trkpt>
      <trkpt lat="47.15205" lon="6.13813">
        <ele>532.854</ele>
        <time>2022-10-10T12:48:50Z</time>
      </trkpt>
      <trkpt lat="47.15222" lon="6.13806">
        <ele>533.256</ele>
        <time>2022-10-10T12:48:53Z</time>
      </trkpt>
      <trkpt lat="47.15234" lon="6.13801">
        <ele>534.211</ele>
        <time>2022-10-10T12:48:55Z</time>
      </trkpt>
      <trkpt lat="47.1524" lon="6.13799">
        <ele>534.209</ele>
        <time>2022-10-10T12:48:56Z</time>
      </trkpt>
      <trkpt lat="47.15246" lon="6.13796">
        <ele>534.446</ele>
        <time>2022-10-10T12:48:57Z</time>
      </trkpt>
      <trkpt lat="47.15251" lon="6.13794">
        <ele>535.066</ele>
        <time>2022-10-10T12:48:58Z</time>
      </trkpt>
      <trkpt lat="47.15257" lon="6.13793">
        <ele>535.07</ele>
        <time>2022-10-10T12:48:59Z</time>
      </trkpt>
      <trkpt lat="47.15263" lon="6.13791">
        <ele>535.234</ele>
        <time>2022-10-10T12:49:00Z</time>
      </trkpt>
      <trkpt lat="47.1527" lon="6.13789">
        <ele>535.217</ele>
        <time>2022-10-10T12:49:01Z</time>
      </trkpt>
      <trkpt lat="47.15275" lon="6.13788">
        <ele>535.643</ele>
        <time>2022-10-10T12:49:02Z</time>
      </trkpt>
      <trkpt lat="47.15281" lon="6.13787">
        <ele>536.069</ele>
        <time>2022-10-10T12:49:03Z</time>
      </trkpt>
      <trkpt lat="47.15287" lon="6.13785">
        <ele>536.279</ele>
        <time>2022-10-10T12:49:04Z</time>
      </trkpt>
      <trkpt lat="47.15293" lon="6.13784">
        <ele>536.233</ele>
        <time>2022-10-10T12:49:05Z</time>
      </trkpt>
      <trkpt lat="47.15299" lon="6.13783">
        <ele>536.453</ele>
        <time>2022-10-10T12:49:06Z</time>
      </trkpt>
      <trkpt lat="47.15305" lon="6.13781">
        <ele>536.804</ele>
        <time>2022-10-10T12:49:07Z</time>
      </trkpt>
      <trkpt lat="47.1531" lon="6.1378">
        <ele>536.814</ele>
        <time>2022-10-10T12:49:08Z</time>
      </trkpt>
      <trkpt lat="47.15316" lon="6.13779">
        <ele>537.609</ele>
        <time>2022-10-10T12:49:09Z</time>
      </trkpt>
      <trkpt lat="47.15322" lon="6.13777">
        <ele>538.046</ele>
        <time>2022-10-10T12:49:10Z</time>
      </trkpt>
      <trkpt lat="47.15328" lon="6.13776">
        <ele>538.046</ele>
        <time>2022-10-10T12:49:11Z</time>
      </trkpt>
      <trkpt lat="47.15334" lon="6.13774">
        <ele>538.25</ele>
        <time>2022-10-10T12:49:12Z</time>
      </trkpt>
      <trkpt lat="47.1534" lon="6.13773">
        <ele>538.264</ele>
        <time>2022-10-10T12:49:13Z</time>
      </trkpt>
      <trkpt lat="47.15346" lon="6.13772">
        <ele>538.837</ele>
        <time>2022-10-10T12:49:14Z</time>
      </trkpt>
      <trkpt lat="47.15352" lon="6.1377">
        <ele>539.223</ele>
        <time>2022-10-10T12:49:15Z</time>
      </trkpt>
      <trkpt lat="47.15358" lon="6.13769">
        <ele>539.239</ele>
        <time>2022-10-10T12:49:16Z</time>
      </trkpt>
      <trkpt lat="47.15364" lon="6.13768">
        <ele>539.699</ele>
        <time>2022-10-10T12:49:17Z</time>
      </trkpt>
      <trkpt lat="47.1537" lon="6.13767">
        <ele>539.623</ele>
        <time>2022-10-10T12:49:18Z</time>
      </trkpt>
      <trkpt lat="47.15376" lon="6.13765">
        <ele>539.829</ele>
        <time>2022-10-10T12:49:19Z</time>
      </trkpt>
      <trkpt lat="47.15382" lon="6.13764">
        <ele>540.4</ele>
        <time>2022-10-10T12:49:20Z</time>
      </trkpt>
      <trkpt lat="47.15388" lon="6.13763">
        <ele>540.62</ele>
        <time>2022-10-10T12:49:21Z</time>
      </trkpt>
      <trkpt lat="47.15394" lon="6.13762">
        <ele>540.809</ele>
        <time>2022-10-10T12:49:22Z</time>
      </trkpt>
      <trkpt lat="47.15401" lon="6.13761">
        <ele>541.273</ele>
        <time>2022-10-10T12:49:23Z</time>
      </trkpt>
      <trkpt lat="47.15407" lon="6.13759">
        <ele>541.253</ele>
        <time>2022-10-10T12:49:24Z</time>
      </trkpt>
      <trkpt lat="47.15413" lon="6.13758">
        <ele>541.237</ele>
        <time>2022-10-10T12:49:25Z</time>
      </trkpt>
      <trkpt lat="47.15419" lon="6.13756">
        <ele>541.451</ele>
        <time>2022-10-10T12:49:26Z</time>
      </trkpt>
      <trkpt lat="47.15425" lon="6.13754">
        <ele>541.444</ele>
        <time>2022-10-10T12:49:27Z</time>
      </trkpt>
      <trkpt lat="47.15431" lon="6.13752">
        <ele>541.46</ele>
        <time>2022-10-10T12:49:28Z</time>
      </trkpt>
      <trkpt lat="47.15437" lon="6.1375">
        <ele>541.676</ele>
        <time>2022-10-10T12:49:29Z</time>
      </trkpt>
      <trkpt lat="47.15443" lon="6.13747">
        <ele>541.656</ele>
        <time>2022-10-10T12:49:30Z</time>
      </trkpt>
      <trkpt lat="47.15449" lon="6.13744">
        <ele>541.86</ele>
        <time>2022-10-10T12:49:31Z</time>
      </trkpt>
      <trkpt lat="47.15455" lon="6.13741">
        <ele>541.859</ele>
        <time>2022-10-10T12:49:32Z</time>
      </trkpt>
      <trkpt lat="47.1546" lon="6.13738">
        <ele>541.803</ele>
        <time>2022-10-10T12:49:33Z</time>
      </trkpt>
      <trkpt lat="47.15466" lon="6.13735">
        <ele>542.023</ele>
        <time>2022-10-10T12:49:34Z</time>
      </trkpt>
      <trkpt lat="47.15472" lon="6.13732">
        <ele>543.009</ele>
        <time>2022-10-10T12:49:35Z</time>
      </trkpt>
      <trkpt lat="47.15477" lon="6.13728">
        <ele>543.046</ele>
        <time>2022-10-10T12:49:36Z</time>
      </trkpt>
      <trkpt lat="47.15482" lon="6.13725">
        <ele>543.256</ele>
        <time>2022-10-10T12:49:37Z</time>
      </trkpt>
      <trkpt lat="47.15488" lon="6.13721">
        <ele>543.67</ele>
        <time>2022-10-10T12:49:38Z</time>
      </trkpt>
      <trkpt lat="47.15493" lon="6.13717">
        <ele>543.684</ele>
        <time>2022-10-10T12:49:39Z</time>
      </trkpt>
      <trkpt lat="47.15499" lon="6.13714">
        <ele>544.077</ele>
        <time>2022-10-10T12:49:40Z</time>
      </trkpt>
      <trkpt lat="47.15504" lon="6.1371">
        <ele>544.883</ele>
        <time>2022-10-10T12:49:41Z</time>
      </trkpt>
      <trkpt lat="47.15509" lon="6.13706">
        <ele>545.229</ele>
        <time>2022-10-10T12:49:42Z</time>
      </trkpt>
      <trkpt lat="47.15514" lon="6.13702">
        <ele>545.269</ele>
        <time>2022-10-10T12:49:43Z</time>
      </trkpt>
      <trkpt lat="47.15519" lon="6.13698">
        <ele>546.073</ele>
        <time>2022-10-10T12:49:44Z</time>
      </trkpt>
      <trkpt lat="47.15524" lon="6.13695">
        <ele>546.213</ele>
        <time>2022-10-10T12:49:45Z</time>
      </trkpt>
      <trkpt lat="47.15529" lon="6.13691">
        <ele>546.443</ele>
        <time>2022-10-10T12:49:46Z</time>
      </trkpt>
      <trkpt lat="47.15534" lon="6.13688">
        <ele>548.007</ele>
        <time>2022-10-10T12:49:47Z</time>
      </trkpt>
      <trkpt lat="47.1554" lon="6.13686">
        <ele>548.609</ele>
        <time>2022-10-10T12:49:48Z</time>
      </trkpt>
      <trkpt lat="47.15545" lon="6.13684">
        <ele>548.842</ele>
        <time>2022-10-10T12:49:49Z</time>
      </trkpt>
      <trkpt lat="47.15551" lon="6.13682">
        <ele>549.412</ele>
        <time>2022-10-10T12:49:50Z</time>
      </trkpt>
      <trkpt lat="47.15556" lon="6.13681">
        <ele>549.676</ele>
        <time>2022-10-10T12:49:51Z</time>
      </trkpt>
      <trkpt lat="47.15562" lon="6.13679">
        <ele>550.25</ele>
        <time>2022-10-10T12:49:52Z</time>
      </trkpt>
      <trkpt lat="47.15567" lon="6.13677">
        <ele>550.283</ele>
        <time>2022-10-10T12:49:53Z</time>
      </trkpt>
      <trkpt lat="47.15573" lon="6.13676">
        <ele>550.499</ele>
        <time>2022-10-10T12:49:54Z</time>
      </trkpt>
      <trkpt lat="47.15579" lon="6.13675">
        <ele>550.475</ele>
        <time>2022-10-10T12:49:55Z</time>
      </trkpt>
      <trkpt lat="47.15585" lon="6.13674">
        <ele>550.455</ele>
        <time>2022-10-10T12:49:56Z</time>
      </trkpt>
      <trkpt lat="47.15591" lon="6.13674">
        <ele>550.479</ele>
        <time>2022-10-10T12:49:57Z</time>
      </trkpt>
      <trkpt lat="47.15597" lon="6.13674">
        <ele>550.653</ele>
        <time>2022-10-10T12:49:58Z</time>
      </trkpt>
      <trkpt lat="47.15603" lon="6.13674">
        <ele>551.004</ele>
        <time>2022-10-10T12:49:59Z</time>
      </trkpt>
      <trkpt lat="47.15609" lon="6.13674">
        <ele>551.214</ele>
        <time>2022-10-10T12:50:00Z</time>
      </trkpt>
      <trkpt lat="47.15614" lon="6.13675">
        <ele>551.609</ele>
        <time>2022-10-10T12:50:01Z</time>
      </trkpt>
      <trkpt lat="47.1562" lon="6.13676">
        <ele>552.666</ele>
        <time>2022-10-10T12:50:02Z</time>
      </trkpt>
      <trkpt lat="47.15625" lon="6.13678">
        <ele>553.246</ele>
        <time>2022-10-10T12:50:03Z</time>
      </trkpt>
      <trkpt lat="47.15632" lon="6.13679">
        <ele>554.06</ele>
        <time>2022-10-10T12:50:04Z</time>
      </trkpt>
      <trkpt lat="47.15637" lon="6.13681">
        <ele>554.674</ele>
        <time>2022-10-10T12:50:05Z</time>
      </trkpt>
      <trkpt lat="47.15642" lon="6.13682">
        <ele>554.677</ele>
        <time>2022-10-10T12:50:06Z</time>
      </trkpt>
      <trkpt lat="47.15648" lon="6.13684">
        <ele>555.833</ele>
        <time>2022-10-10T12:50:07Z</time>
      </trkpt>
      <trkpt lat="47.15654" lon="6.13686">
        <ele>556.069</ele>
        <time>2022-10-10T12:50:08Z</time>
      </trkpt>
      <trkpt lat="47.15659" lon="6.13687">
        <ele>556.089</ele>
        <time>2022-10-10T12:50:09Z</time>
      </trkpt>
      <trkpt lat="47.15663" lon="6.13687">
        <ele>556.063</ele>
        <time>2022-10-10T12:50:10Z</time>
      </trkpt>
      <trkpt lat="47.15669" lon="6.13687">
        <ele>556.845</ele>
        <time>2022-10-10T12:50:11Z</time>
      </trkpt>
      <trkpt lat="47.15674" lon="6.13688">
        <ele>557.047</ele>
        <time>2022-10-10T12:50:12Z</time>
      </trkpt>
      <trkpt lat="47.1568" lon="6.13688">
        <ele>558.011</ele>
        <time>2022-10-10T12:50:13Z</time>
      </trkpt>
      <trkpt lat="47.15686" lon="6.13689">
        <ele>558.009</ele>
        <time>2022-10-10T12:50:14Z</time>
      </trkpt>
      <trkpt lat="47.1569" lon="6.13689">
        <ele>558.235</ele>
        <time>2022-10-10T12:50:15Z</time>
      </trkpt>
      <trkpt lat="47.15696" lon="6.1369">
        <ele>558.215</ele>
        <time>2022-10-10T12:50:16Z</time>
      </trkpt>
      <trkpt lat="47.15701" lon="6.1369">
        <ele>558.029</ele>
        <time>2022-10-10T12:50:17Z</time>
      </trkpt>
      <trkpt lat="47.15705" lon="6.1369">
        <ele>557.643</ele>
        <time>2022-10-10T12:50:18Z</time>
      </trkpt>
      <trkpt lat="47.15709" lon="6.13689">
        <ele>557.656</ele>
        <time>2022-10-10T12:50:19Z</time>
      </trkpt>
      <trkpt lat="47.15713" lon="6.13688">
        <ele>557.492</ele>
        <time>2022-10-10T12:50:20Z</time>
      </trkpt>
      <trkpt lat="47.15716" lon="6.13686">
        <ele>557.068</ele>
        <time>2022-10-10T12:50:21Z</time>
      </trkpt>
      <trkpt lat="47.15718" lon="6.13681">
        <ele>556.228</ele>
        <time>2022-10-10T12:50:22Z</time>
      </trkpt>
      <trkpt lat="47.1572" lon="6.13674">
        <ele>555.862</ele>
        <time>2022-10-10T12:50:23Z</time>
      </trkpt>
      <trkpt lat="47.15721" lon="6.13669">
        <ele>554.831</ele>
        <time>2022-10-10T12:50:24Z</time>
      </trkpt>
      <trkpt lat="47.15723" lon="6.13659">
        <ele>554.661</ele>
        <time>2022-10-10T12:50:25Z</time>
      </trkpt>
      <trkpt lat="47.15723" lon="6.13651">
        <ele>554.007</ele>
        <time>2022-10-10T12:50:26Z</time>
      </trkpt>
      <trkpt lat="47.15723" lon="6.13644">
        <ele>552.809</ele>
        <time>2022-10-10T12:50:27Z</time>
      </trkpt>
      <trkpt lat="47.15723" lon="6.13635">
        <ele>552.044</ele>
        <time>2022-10-10T12:50:28Z</time>
      </trkpt>
      <trkpt lat="47.15724" lon="6.13625">
        <ele>552.054</ele>
        <time>2022-10-10T12:50:29Z</time>
      </trkpt>
      <trkpt lat="47.15726" lon="6.13613">
        <ele>551.448</ele>
        <time>2022-10-10T12:50:30Z</time>
      </trkpt>
      <trkpt lat="47.15731" lon="6.13593">
        <ele>550.032</ele>
        <time>2022-10-10T12:50:32Z</time>
      </trkpt>
      <trkpt lat="47.15734" lon="6.13584">
        <ele>549.895</ele>
        <time>2022-10-10T12:50:33Z</time>
      </trkpt>
      <trkpt lat="47.15737" lon="6.1357">
        <ele>547.431</ele>
        <time>2022-10-10T12:50:34Z</time>
      </trkpt>
      <trkpt lat="47.15739" lon="6.13558">
        <ele>547.497</ele>
        <time>2022-10-10T12:50:35Z</time>
      </trkpt>
      <trkpt lat="47.1574" lon="6.13548">
        <ele>546.497</ele>
        <time>2022-10-10T12:50:36Z</time>
      </trkpt>
      <trkpt lat="47.1574" lon="6.13535">
        <ele>546.041</ele>
        <time>2022-10-10T12:50:37Z</time>
      </trkpt>
      <trkpt lat="47.1574" lon="6.13523">
        <ele>544.046</ele>
        <time>2022-10-10T12:50:38Z</time>
      </trkpt>
      <trkpt lat="47.15739" lon="6.1351">
        <ele>542.888</ele>
        <time>2022-10-10T12:50:39Z</time>
      </trkpt>
      <trkpt lat="47.15735" lon="6.13472">
        <ele>541.216</ele>
        <time>2022-10-10T12:50:42Z</time>
      </trkpt>
      <trkpt lat="47.15734" lon="6.13458">
        <ele>540.009</ele>
        <time>2022-10-10T12:50:43Z</time>
      </trkpt>
      <trkpt lat="47.15731" lon="6.13429">
        <ele>538.895</ele>
        <time>2022-10-10T12:50:45Z</time>
      </trkpt>
      <trkpt lat="47.15731" lon="6.13418">
        <ele>537.485</ele>
        <time>2022-10-10T12:50:46Z</time>
      </trkpt>
      <trkpt lat="47.15732" lon="6.13404">
        <ele>538.019</ele>
        <time>2022-10-10T12:50:47Z</time>
      </trkpt>
      <trkpt lat="47.15733" lon="6.13391">
        <ele>538.053</ele>
        <time>2022-10-10T12:50:48Z</time>
      </trkpt>
      <trkpt lat="47.15731" lon="6.1336">
        <ele>536.456</ele>
        <time>2022-10-10T12:50:50Z</time>
      </trkpt>
      <trkpt lat="47.15731" lon="6.13348">
        <ele>536.232</ele>
        <time>2022-10-10T12:50:51Z</time>
      </trkpt>
      <trkpt lat="47.1573" lon="6.13332">
        <ele>535.828</ele>
        <time>2022-10-10T12:50:52Z</time>
      </trkpt>
      <trkpt lat="47.15729" lon="6.13318">
        <ele>535.078</ele>
        <time>2022-10-10T12:50:53Z</time>
      </trkpt>
      <trkpt lat="47.15728" lon="6.13304">
        <ele>533.432</ele>
        <time>2022-10-10T12:50:54Z</time>
      </trkpt>
      <trkpt lat="47.15727" lon="6.13294">
        <ele>533.468</ele>
        <time>2022-10-10T12:50:55Z</time>
      </trkpt>
      <trkpt lat="47.15727" lon="6.13281">
        <ele>533.442</ele>
        <time>2022-10-10T12:50:56Z</time>
      </trkpt>
      <trkpt lat="47.15726" lon="6.13266">
        <ele>533.426</ele>
        <time>2022-10-10T12:50:57Z</time>
      </trkpt>
      <trkpt lat="47.15725" lon="6.13255">
        <ele>534.009</ele>
        <time>2022-10-10T12:50:58Z</time>
      </trkpt>
      <trkpt lat="47.15724" lon="6.13243">
        <ele>534.667</ele>
        <time>2022-10-10T12:50:59Z</time>
      </trkpt>
      <trkpt lat="47.15724" lon="6.13235">
        <ele>534.637</ele>
        <time>2022-10-10T12:51:00Z</time>
      </trkpt>
      <trkpt lat="47.15723" lon="6.13223">
        <ele>535.451</ele>
        <time>2022-10-10T12:51:01Z</time>
      </trkpt>
      <trkpt lat="47.15722" lon="6.13213">
        <ele>535.635</ele>
        <time>2022-10-10T12:51:02Z</time>
      </trkpt>
      <trkpt lat="47.15722" lon="6.13205">
        <ele>535.658</ele>
        <time>2022-10-10T12:51:03Z</time>
      </trkpt>
      <trkpt lat="47.15721" lon="6.13196">
        <ele>535.424</ele>
        <time>2022-10-10T12:51:04Z</time>
      </trkpt>
      <trkpt lat="47.15721" lon="6.13186">
        <ele>535.86</ele>
        <time>2022-10-10T12:51:05Z</time>
      </trkpt>
      <trkpt lat="47.15721" lon="6.13177">
        <ele>536.03</ele>
        <time>2022-10-10T12:51:06Z</time>
      </trkpt>
      <trkpt lat="47.1572" lon="6.13167">
        <ele>536.214</ele>
        <time>2022-10-10T12:51:07Z</time>
      </trkpt>
      <trkpt lat="47.15719" lon="6.13158">
        <ele>536.489</ele>
        <time>2022-10-10T12:51:08Z</time>
      </trkpt>
      <trkpt lat="47.15719" lon="6.13152">
        <ele>536.406</ele>
        <time>2022-10-10T12:51:09Z</time>
      </trkpt>
      <trkpt lat="47.15718" lon="6.13142">
        <ele>536.426</ele>
        <time>2022-10-10T12:51:10Z</time>
      </trkpt>
      <trkpt lat="47.15718" lon="6.13134">
        <ele>536.609</ele>
        <time>2022-10-10T12:51:11Z</time>
      </trkpt>
      <trkpt lat="47.15718" lon="6.13125">
        <ele>536.659</ele>
        <time>2022-10-10T12:51:12Z</time>
      </trkpt>
      <trkpt lat="47.15717" lon="6.13117">
        <ele>536.619</ele>
        <time>2022-10-10T12:51:13Z</time>
      </trkpt>
      <trkpt lat="47.15717" lon="6.1311">
        <ele>536.693</ele>
        <time>2022-10-10T12:51:14Z</time>
      </trkpt>
      <trkpt lat="47.15711" lon="6.13069">
        <ele>536.257</ele>
        <time>2022-10-10T12:51:19Z</time>
      </trkpt>
      <trkpt lat="47.15697" lon="6.13005">
        <ele>534.44</ele>
        <time>2022-10-10T12:51:26Z</time>
      </trkpt>
      <trkpt lat="47.15693" lon="6.12985">
        <ele>534.036</ele>
        <time>2022-10-10T12:51:28Z</time>
      </trkpt>
      <trkpt lat="47.15689" lon="6.12965">
        <ele>533.282</ele>
        <time>2022-10-10T12:51:30Z</time>
      </trkpt>
      <trkpt lat="47.15681" lon="6.12936">
        <ele>531.422</ele>
        <time>2022-10-10T12:51:33Z</time>
      </trkpt>
      <trkpt lat="47.15678" lon="6.12923">
        <ele>531.266</ele>
        <time>2022-10-10T12:51:34Z</time>
      </trkpt>
      <trkpt lat="47.15676" lon="6.12912">
        <ele>530.441</ele>
        <time>2022-10-10T12:51:35Z</time>
      </trkpt>
      <trkpt lat="47.15675" lon="6.12904">
        <ele>530.481</ele>
        <time>2022-10-10T12:51:36Z</time>
      </trkpt>
      <trkpt lat="47.15672" lon="6.12892">
        <ele>530.409</ele>
        <time>2022-10-10T12:51:37Z</time>
      </trkpt>
      <trkpt lat="47.1567" lon="6.12882">
        <ele>530.409</ele>
        <time>2022-10-10T12:51:38Z</time>
      </trkpt>
      <trkpt lat="47.15668" lon="6.12873">
        <ele>531.045</ele>
        <time>2022-10-10T12:51:39Z</time>
      </trkpt>
      <trkpt lat="47.15667" lon="6.12866">
        <ele>531.265</ele>
        <time>2022-10-10T12:51:40Z</time>
      </trkpt>
      <trkpt lat="47.15665" lon="6.12858">
        <ele>532.259</ele>
        <time>2022-10-10T12:51:41Z</time>
      </trkpt>
      <trkpt lat="47.15663" lon="6.12852">
        <ele>533.453</ele>
        <time>2022-10-10T12:51:42Z</time>
      </trkpt>
      <trkpt lat="47.15662" lon="6.12846">
        <ele>534.656</ele>
        <time>2022-10-10T12:51:43Z</time>
      </trkpt>
      <trkpt lat="47.15661" lon="6.1284">
        <ele>534.662</ele>
        <time>2022-10-10T12:51:44Z</time>
      </trkpt>
      <trkpt lat="47.1566" lon="6.12834">
        <ele>535.288</ele>
        <time>2022-10-10T12:51:45Z</time>
      </trkpt>
      <trkpt lat="47.15659" lon="6.12828">
        <ele>535.268</ele>
        <time>2022-10-10T12:51:46Z</time>
      </trkpt>
      <trkpt lat="47.15654" lon="6.12809">
        <ele>536.252</ele>
        <time>2022-10-10T12:51:49Z</time>
      </trkpt>
      <trkpt lat="47.15652" lon="6.12801">
        <ele>536.254</ele>
        <time>2022-10-10T12:51:50Z</time>
      </trkpt>
      <trkpt lat="47.1565" lon="6.12795">
        <ele>536.256</ele>
        <time>2022-10-10T12:51:51Z</time>
      </trkpt>
      <trkpt lat="47.15649" lon="6.12789">
        <ele>536.211</ele>
        <time>2022-10-10T12:51:52Z</time>
      </trkpt>
      <trkpt lat="47.15647" lon="6.12783">
        <ele>536.409</ele>
        <time>2022-10-10T12:51:53Z</time>
      </trkpt>
      <trkpt lat="47.15646" lon="6.12778">
        <ele>536.856</ele>
        <time>2022-10-10T12:51:54Z</time>
      </trkpt>
      <trkpt lat="47.15646" lon="6.12772">
        <ele>537.876</ele>
        <time>2022-10-10T12:51:55Z</time>
      </trkpt>
      <trkpt lat="47.15646" lon="6.12767">
        <ele>538.63</ele>
        <time>2022-10-10T12:51:56Z</time>
      </trkpt>
      <trkpt lat="47.15648" lon="6.12764">
        <ele>539.284</ele>
        <time>2022-10-10T12:51:57Z</time>
      </trkpt>
      <trkpt lat="47.15651" lon="6.12761">
        <ele>539.627</ele>
        <time>2022-10-10T12:51:58Z</time>
      </trkpt>
      <trkpt lat="47.15654" lon="6.12759">
        <ele>539.643</ele>
        <time>2022-10-10T12:51:59Z</time>
      </trkpt>
      <trkpt lat="47.15657" lon="6.12756">
        <ele>540.229</ele>
        <time>2022-10-10T12:52:00Z</time>
      </trkpt>
      <trkpt lat="47.15661" lon="6.12754">
        <ele>540.489</ele>
        <time>2022-10-10T12:52:01Z</time>
      </trkpt>
      <trkpt lat="47.15664" lon="6.12752">
        <ele>541.223</ele>
        <time>2022-10-10T12:52:02Z</time>
      </trkpt>
      <trkpt lat="47.15667" lon="6.12751">
        <ele>541.659</ele>
        <time>2022-10-10T12:52:03Z</time>
      </trkpt>
      <trkpt lat="47.15671" lon="6.1275">
        <ele>542.403</ele>
        <time>2022-10-10T12:52:04Z</time>
      </trkpt>
      <trkpt lat="47.15675" lon="6.12751">
        <ele>542.423</ele>
        <time>2022-10-10T12:52:05Z</time>
      </trkpt>
      <trkpt lat="47.15679" lon="6.12751">
        <ele>542.809</ele>
        <time>2022-10-10T12:52:06Z</time>
      </trkpt>
      <trkpt lat="47.15683" lon="6.12753">
        <ele>542.846</ele>
        <time>2022-10-10T12:52:07Z</time>
      </trkpt>
      <trkpt lat="47.15687" lon="6.12754">
        <ele>543.416</ele>
        <time>2022-10-10T12:52:08Z</time>
      </trkpt>
      <trkpt lat="47.15691" lon="6.12757">
        <ele>543.69</ele>
        <time>2022-10-10T12:52:09Z</time>
      </trkpt>
      <trkpt lat="47.15694" lon="6.12759">
        <ele>543.664</ele>
        <time>2022-10-10T12:52:10Z</time>
      </trkpt>
      <trkpt lat="47.15697" lon="6.12761">
        <ele>543.647</ele>
        <time>2022-10-10T12:52:11Z</time>
      </trkpt>
      <trkpt lat="47.157" lon="6.12762">
        <ele>543.853</ele>
        <time>2022-10-10T12:52:12Z</time>
      </trkpt>
      <trkpt lat="47.15703" lon="6.12761">
        <ele>543.889</ele>
        <time>2022-10-10T12:52:13Z</time>
      </trkpt>
      <trkpt lat="47.15706" lon="6.12757">
        <ele>543.849</ele>
        <time>2022-10-10T12:52:14Z</time>
      </trkpt>
      <trkpt lat="47.15708" lon="6.12754">
        <ele>544.633</ele>
        <time>2022-10-10T12:52:15Z</time>
      </trkpt>
      <trkpt lat="47.15711" lon="6.1275">
        <ele>544.649</ele>
        <time>2022-10-10T12:52:16Z</time>
      </trkpt>
      <trkpt lat="47.15713" lon="6.12747">
        <ele>544.602</ele>
        <time>2022-10-10T12:52:17Z</time>
      </trkpt>
      <trkpt lat="47.15715" lon="6.12743">
        <ele>545.622</ele>
        <time>2022-10-10T12:52:18Z</time>
      </trkpt>
      <trkpt lat="47.15717" lon="6.12738">
        <ele>546.209</ele>
        <time>2022-10-10T12:52:19Z</time>
      </trkpt>
      <trkpt lat="47.15718" lon="6.12733">
        <ele>546.445</ele>
        <time>2022-10-10T12:52:20Z</time>
      </trkpt>
      <trkpt lat="47.1572" lon="6.12729">
        <ele>546.825</ele>
        <time>2022-10-10T12:52:21Z</time>
      </trkpt>
      <trkpt lat="47.15722" lon="6.12724">
        <ele>547.049</ele>
        <time>2022-10-10T12:52:22Z</time>
      </trkpt>
      <trkpt lat="47.15725" lon="6.1272">
        <ele>548.043</ele>
        <time>2022-10-10T12:52:23Z</time>
      </trkpt>
      <trkpt lat="47.15727" lon="6.12717">
        <ele>548.286</ele>
        <time>2022-10-10T12:52:24Z</time>
      </trkpt>
      <trkpt lat="47.1573" lon="6.12714">
        <ele>548.452</ele>
        <time>2022-10-10T12:52:25Z</time>
      </trkpt>
      <trkpt lat="47.15733" lon="6.12709">
        <ele>548.468</ele>
        <time>2022-10-10T12:52:26Z</time>
      </trkpt>
      <trkpt lat="47.15737" lon="6.12706">
        <ele>548.458</ele>
        <time>2022-10-10T12:52:27Z</time>
      </trkpt>
      <trkpt lat="47.15741" lon="6.12702">
        <ele>548.662</ele>
        <time>2022-10-10T12:52:28Z</time>
      </trkpt>
      <trkpt lat="47.15743" lon="6.12699">
        <ele>548.674</ele>
        <time>2022-10-10T12:52:29Z</time>
      </trkpt>
      <trkpt lat="47.15745" lon="6.12695">
        <ele>548.656</ele>
        <time>2022-10-10T12:52:30Z</time>
      </trkpt>
      <trkpt lat="47.15748" lon="6.12689">
        <ele>548.621</ele>
        <time>2022-10-10T12:52:31Z</time>
      </trkpt>
      <trkpt lat="47.15751" lon="6.12683">
        <ele>548.609</ele>
        <time>2022-10-10T12:52:32Z</time>
      </trkpt>
      <trkpt lat="47.15754" lon="6.12678">
        <ele>548.628</ele>
        <time>2022-10-10T12:52:33Z</time>
      </trkpt>
      <trkpt lat="47.15757" lon="6.12674">
        <ele>548.628</ele>
        <time>2022-10-10T12:52:34Z</time>
      </trkpt>
      <trkpt lat="47.15761" lon="6.1267">
        <ele>548.682</ele>
        <time>2022-10-10T12:52:35Z</time>
      </trkpt>
      <trkpt lat="47.15765" lon="6.12667">
        <ele>548.656</ele>
        <time>2022-10-10T12:52:36Z</time>
      </trkpt>
      <trkpt lat="47.15768" lon="6.12664">
        <ele>548.429</ele>
        <time>2022-10-10T12:52:37Z</time>
      </trkpt>
      <trkpt lat="47.15771" lon="6.12661">
        <ele>548.455</ele>
        <time>2022-10-10T12:52:38Z</time>
      </trkpt>
      <trkpt lat="47.15774" lon="6.12657">
        <ele>548.461</ele>
        <time>2022-10-10T12:52:39Z</time>
      </trkpt>
      <trkpt lat="47.15777" lon="6.1265">
        <ele>548.461</ele>
        <time>2022-10-10T12:52:40Z</time>
      </trkpt>
      <trkpt lat="47.1578" lon="6.12644">
        <ele>547.845</ele>
        <time>2022-10-10T12:52:41Z</time>
      </trkpt>
      <trkpt lat="47.15782" lon="6.12638">
        <ele>547.657</ele>
        <time>2022-10-10T12:52:42Z</time>
      </trkpt>
      <trkpt lat="47.15785" lon="6.12633">
        <ele>546.8</ele>
        <time>2022-10-10T12:52:43Z</time>
      </trkpt>
      <trkpt lat="47.15791" lon="6.12629">
        <ele>546.62</ele>
        <time>2022-10-10T12:52:44Z</time>
      </trkpt>
      <trkpt lat="47.15796" lon="6.12627">
        <ele>546.409</ele>
        <time>2022-10-10T12:52:45Z</time>
      </trkpt>
      <trkpt lat="47.15801" lon="6.12626">
        <ele>546.276</ele>
        <time>2022-10-10T12:52:46Z</time>
      </trkpt>
      <trkpt lat="47.15807" lon="6.12625">
        <ele>546.246</ele>
        <time>2022-10-10T12:52:47Z</time>
      </trkpt>
      <trkpt lat="47.15811" lon="6.12625">
        <ele>546.04</ele>
        <time>2022-10-10T12:52:48Z</time>
      </trkpt>
      <trkpt lat="47.15818" lon="6.12624">
        <ele>545.864</ele>
        <time>2022-10-10T12:52:49Z</time>
      </trkpt>
      <trkpt lat="47.15824" lon="6.12623">
        <ele>546.267</ele>
        <time>2022-10-10T12:52:50Z</time>
      </trkpt>
      <trkpt lat="47.15829" lon="6.12622">
        <ele>546.273</ele>
        <time>2022-10-10T12:52:51Z</time>
      </trkpt>
      <trkpt lat="47.15834" lon="6.12622">
        <ele>546.269</ele>
        <time>2022-10-10T12:52:52Z</time>
      </trkpt>
      <trkpt lat="47.15838" lon="6.12621">
        <ele>546.229</ele>
        <time>2022-10-10T12:52:53Z</time>
      </trkpt>
      <trkpt lat="47.15842" lon="6.12621">
        <ele>547.063</ele>
        <time>2022-10-10T12:52:54Z</time>
      </trkpt>
      <trkpt lat="47.15846" lon="6.12621">
        <ele>547.437</ele>
        <time>2022-10-10T12:52:55Z</time>
      </trkpt>
      <trkpt lat="47.15852" lon="6.1262">
        <ele>547.649</ele>
        <time>2022-10-10T12:52:57Z</time>
      </trkpt>
      <trkpt lat="47.15856" lon="6.12619">
        <ele>548.013</ele>
        <time>2022-10-10T12:52:58Z</time>
      </trkpt>
      <trkpt lat="47.1586" lon="6.12619">
        <ele>548.009</ele>
        <time>2022-10-10T12:52:59Z</time>
      </trkpt>
      <trkpt lat="47.15864" lon="6.1262">
        <ele>548.074</ele>
        <time>2022-10-10T12:53:00Z</time>
      </trkpt>
      <trkpt lat="47.15867" lon="6.12621">
        <ele>548.244</ele>
        <time>2022-10-10T12:53:01Z</time>
      </trkpt>
      <trkpt lat="47.15871" lon="6.12623">
        <ele>548.238</ele>
        <time>2022-10-10T12:53:02Z</time>
      </trkpt>
      <trkpt lat="47.15896" lon="6.12643">
        <ele>548.622</ele>
        <time>2022-10-10T12:53:09Z</time>
      </trkpt>
      <trkpt lat="47.15899" lon="6.12646">
        <ele>548.655</ele>
        <time>2022-10-10T12:53:10Z</time>
      </trkpt>
      <trkpt lat="47.15907" lon="6.12655">
        <ele>549.211</ele>
        <time>2022-10-10T12:53:12Z</time>
      </trkpt>
      <trkpt lat="47.15923" lon="6.12672">
        <ele>549.227</ele>
        <time>2022-10-10T12:53:16Z</time>
      </trkpt>
      <trkpt lat="47.15941" lon="6.12688">
        <ele>549.047</ele>
        <time>2022-10-10T12:53:20Z</time>
      </trkpt>
      <trkpt lat="47.15946" lon="6.12692">
        <ele>549.211</ele>
        <time>2022-10-10T12:53:21Z</time>
      </trkpt>
      <trkpt lat="47.1595" lon="6.12696">
        <ele>549.214</ele>
        <time>2022-10-10T12:53:22Z</time>
      </trkpt>
      <trkpt lat="47.15955" lon="6.127">
        <ele>549.254</ele>
        <time>2022-10-10T12:53:23Z</time>
      </trkpt>
      <trkpt lat="47.15963" lon="6.12708">
        <ele>549.209</ele>
        <time>2022-10-10T12:53:25Z</time>
      </trkpt>
      <trkpt lat="47.15967" lon="6.12712">
        <ele>549.209</ele>
        <time>2022-10-10T12:53:26Z</time>
      </trkpt>
      <trkpt lat="47.15983" lon="6.12727">
        <ele>549.092</ele>
        <time>2022-10-10T12:53:30Z</time>
      </trkpt>
      <trkpt lat="47.15988" lon="6.12732">
        <ele>549.072</ele>
        <time>2022-10-10T12:53:31Z</time>
      </trkpt>
      <trkpt lat="47.15991" lon="6.12736">
        <ele>549.026</ele>
        <time>2022-10-10T12:53:32Z</time>
      </trkpt>
      <trkpt lat="47.15994" lon="6.12739">
        <ele>549.02</ele>
        <time>2022-10-10T12:53:33Z</time>
      </trkpt>
      <trkpt lat="47.15996" lon="6.12742">
        <ele>549.243</ele>
        <time>2022-10-10T12:53:34Z</time>
      </trkpt>
      <trkpt lat="47.15999" lon="6.12744">
        <ele>549.219</ele>
        <time>2022-10-10T12:53:35Z</time>
      </trkpt>
      <trkpt lat="47.15999" lon="6.12744">
        <ele>549.265</ele>
        <time>2022-10-10T12:53:36Z</time>
      </trkpt>
      <trkpt lat="47.15999" lon="6.12744">
        <ele>549.265</ele>
        <time>2022-10-10T12:53:37Z</time>
      </trkpt>
      <trkpt lat="47.16" lon="6.12743">
        <ele>549.229</ele>
        <time>2022-10-10T12:53:39Z</time>
      </trkpt>
      <trkpt lat="47.16002" lon="6.12741">
        <ele>548.832</ele>
        <time>2022-10-10T12:53:40Z</time>
      </trkpt>
      <trkpt lat="47.16003" lon="6.12738">
        <ele>548.692</ele>
        <time>2022-10-10T12:53:41Z</time>
      </trkpt>
      <trkpt lat="47.16003" lon="6.12734">
        <ele>548.611</ele>
        <time>2022-10-10T12:53:42Z</time>
      </trkpt>
      <trkpt lat="47.16003" lon="6.12729">
        <ele>548.209</ele>
        <time>2022-10-10T12:53:43Z</time>
      </trkpt>
      <trkpt lat="47.16003" lon="6.12724">
        <ele>548.064</ele>
        <time>2022-10-10T12:53:44Z</time>
      </trkpt>
      <trkpt lat="47.16005" lon="6.12719">
        <ele>547.624</ele>
        <time>2022-10-10T12:53:45Z</time>
      </trkpt>
      <trkpt lat="47.16009" lon="6.12714">
        <ele>547.438</ele>
        <time>2022-10-10T12:53:46Z</time>
      </trkpt>
      <trkpt lat="47.16013" lon="6.12708">
        <ele>546.412</ele>
        <time>2022-10-10T12:53:47Z</time>
      </trkpt>
      <trkpt lat="47.16017" lon="6.12701">
        <ele>545.235</ele>
        <time>2022-10-10T12:53:48Z</time>
      </trkpt>
      <trkpt lat="47.16021" lon="6.12694">
        <ele>544.281</ele>
        <time>2022-10-10T12:53:49Z</time>
      </trkpt>
      <trkpt lat="47.1603" lon="6.1268">
        <ele>541.827</ele>
        <time>2022-10-10T12:53:51Z</time>
      </trkpt>
      <trkpt lat="47.16039" lon="6.12663">
        <ele>541.427</ele>
        <time>2022-10-10T12:53:53Z</time>
      </trkpt>
      <trkpt lat="47.16043" lon="6.12658">
        <ele>541.421</ele>
        <time>2022-10-10T12:53:54Z</time>
      </trkpt>
      <trkpt lat="47.16046" lon="6.12651">
        <ele>541.446</ele>
        <time>2022-10-10T12:53:55Z</time>
      </trkpt>
      <trkpt lat="47.1605" lon="6.12645">
        <ele>541.288</ele>
        <time>2022-10-10T12:53:56Z</time>
      </trkpt>
      <trkpt lat="47.16054" lon="6.12638">
        <ele>541.016</ele>
        <time>2022-10-10T12:53:57Z</time>
      </trkpt>
      <trkpt lat="47.16057" lon="6.12633">
        <ele>540.809</ele>
        <time>2022-10-10T12:53:58Z</time>
      </trkpt>
      <trkpt lat="47.16059" lon="6.12627">
        <ele>540.465</ele>
        <time>2022-10-10T12:53:59Z</time>
      </trkpt>
      <trkpt lat="47.16061" lon="6.12624">
        <ele>540.075</ele>
        <time>2022-10-10T12:54:00Z</time>
      </trkpt>
      <trkpt lat="47.16062" lon="6.12619">
        <ele>540.079</ele>
        <time>2022-10-10T12:54:01Z</time>
      </trkpt>
      <trkpt lat="47.16064" lon="6.12617">
        <ele>539.843</ele>
        <time>2022-10-10T12:54:02Z</time>
      </trkpt>
      <trkpt lat="47.16066" lon="6.12614">
        <ele>539.646</ele>
        <time>2022-10-10T12:54:03Z</time>
      </trkpt>
      <trkpt lat="47.16068" lon="6.12613">
        <ele>539.652</ele>
        <time>2022-10-10T12:54:04Z</time>
      </trkpt>
      <trkpt lat="47.16072" lon="6.12611">
        <ele>539.248</ele>
        <time>2022-10-10T12:54:05Z</time>
      </trkpt>
      <trkpt lat="47.16076" lon="6.12611">
        <ele>538.418</ele>
        <time>2022-10-10T12:54:06Z</time>
      </trkpt>
      <trkpt lat="47.1608" lon="6.1261">
        <ele>537.662</ele>
        <time>2022-10-10T12:54:07Z</time>
      </trkpt>
      <trkpt lat="47.16086" lon="6.1261">
        <ele>536.832</ele>
        <time>2022-10-10T12:54:08Z</time>
      </trkpt>
      <trkpt lat="47.16098" lon="6.12606">
        <ele>535.492</ele>
        <time>2022-10-10T12:54:10Z</time>
      </trkpt>
      <trkpt lat="47.16104" lon="6.12605">
        <ele>534.811</ele>
        <time>2022-10-10T12:54:11Z</time>
      </trkpt>
      <trkpt lat="47.16109" lon="6.12605">
        <ele>534.609</ele>
        <time>2022-10-10T12:54:12Z</time>
      </trkpt>
      <trkpt lat="47.16115" lon="6.12606">
        <ele>534.224</ele>
        <time>2022-10-10T12:54:13Z</time>
      </trkpt>
      <trkpt lat="47.16121" lon="6.12607">
        <ele>533.654</ele>
        <time>2022-10-10T12:54:14Z</time>
      </trkpt>
      <trkpt lat="47.16127" lon="6.12607">
        <ele>533.628</ele>
        <time>2022-10-10T12:54:15Z</time>
      </trkpt>
      <trkpt lat="47.16131" lon="6.12606">
        <ele>533.442</ele>
        <time>2022-10-10T12:54:16Z</time>
      </trkpt>
      <trkpt lat="47.16137" lon="6.12604">
        <ele>532.445</ele>
        <time>2022-10-10T12:54:17Z</time>
      </trkpt>
      <trkpt lat="47.16142" lon="6.12602">
        <ele>532.061</ele>
        <time>2022-10-10T12:54:18Z</time>
      </trkpt>
      <trkpt lat="47.16149" lon="6.12599">
        <ele>531.687</ele>
        <time>2022-10-10T12:54:19Z</time>
      </trkpt>
      <trkpt lat="47.16154" lon="6.12597">
        <ele>530.697</ele>
        <time>2022-10-10T12:54:20Z</time>
      </trkpt>
      <trkpt lat="47.1616" lon="6.12598">
        <ele>530.211</ele>
        <time>2022-10-10T12:54:21Z</time>
      </trkpt>
      <trkpt lat="47.16164" lon="6.12598">
        <ele>530.296</ele>
        <time>2022-10-10T12:54:22Z</time>
      </trkpt>
      <trkpt lat="47.16169" lon="6.12599">
        <ele>530.231</ele>
        <time>2022-10-10T12:54:23Z</time>
      </trkpt>
      <trkpt lat="47.16175" lon="6.12602">
        <ele>530.224</ele>
        <time>2022-10-10T12:54:24Z</time>
      </trkpt>
      <trkpt lat="47.1618" lon="6.12606">
        <ele>530.009</ele>
        <time>2022-10-10T12:54:25Z</time>
      </trkpt>
      <trkpt lat="47.16185" lon="6.12611">
        <ele>529.85</ele>
        <time>2022-10-10T12:54:26Z</time>
      </trkpt>
      <trkpt lat="47.16188" lon="6.12615">
        <ele>529.85</ele>
        <time>2022-10-10T12:54:27Z</time>
      </trkpt>
      <trkpt lat="47.16193" lon="6.1262">
        <ele>529.854</ele>
        <time>2022-10-10T12:54:28Z</time>
      </trkpt>
      <trkpt lat="47.16197" lon="6.12625">
        <ele>529.648</ele>
        <time>2022-10-10T12:54:29Z</time>
      </trkpt>
      <trkpt lat="47.162" lon="6.1263">
        <ele>529.421</ele>
        <time>2022-10-10T12:54:30Z</time>
      </trkpt>
      <trkpt lat="47.16205" lon="6.12634">
        <ele>528.867</ele>
        <time>2022-10-10T12:54:31Z</time>
      </trkpt>
      <trkpt lat="47.1622" lon="6.12648">
        <ele>528.613</ele>
        <time>2022-10-10T12:54:34Z</time>
      </trkpt>
      <trkpt lat="47.16224" lon="6.12651">
        <ele>528.443</ele>
        <time>2022-10-10T12:54:35Z</time>
      </trkpt>
      <trkpt lat="47.16226" lon="6.12653">
        <ele>528.427</ele>
        <time>2022-10-10T12:54:36Z</time>
      </trkpt>
      <trkpt lat="47.1623" lon="6.12655">
        <ele>528.273</ele>
        <time>2022-10-10T12:54:37Z</time>
      </trkpt>
      <trkpt lat="47.16232" lon="6.12655">
        <ele>528.085</ele>
        <time>2022-10-10T12:54:38Z</time>
      </trkpt>
      <trkpt lat="47.16234" lon="6.12655">
        <ele>528.013</ele>
        <time>2022-10-10T12:54:39Z</time>
      </trkpt>
      <trkpt lat="47.16235" lon="6.12656">
        <ele>528.009</ele>
        <time>2022-10-10T12:54:40Z</time>
      </trkpt>
      <trkpt lat="47.16235" lon="6.12656">
        <ele>528.068</ele>
        <time>2022-10-10T12:54:41Z</time>
      </trkpt>
      <trkpt lat="47.16235" lon="6.12655">
        <ele>527.838</ele>
        <time>2022-10-10T12:54:42Z</time>
      </trkpt>
      <trkpt lat="47.16236" lon="6.12653">
        <ele>527.852</ele>
        <time>2022-10-10T12:54:43Z</time>
      </trkpt>
      <trkpt lat="47.16239" lon="6.12648">
        <ele>526.466</ele>
        <time>2022-10-10T12:54:45Z</time>
      </trkpt>
      <trkpt lat="47.16241" lon="6.12644">
        <ele>526.049</ele>
        <time>2022-10-10T12:54:46Z</time>
      </trkpt>
      <trkpt lat="47.16243" lon="6.12642">
        <ele>525.465</ele>
        <time>2022-10-10T12:54:47Z</time>
      </trkpt>
      <trkpt lat="47.16244" lon="6.12639">
        <ele>525.471</ele>
        <time>2022-10-10T12:54:48Z</time>
      </trkpt>
      <trkpt lat="47.16247" lon="6.12634">
        <ele>524.211</ele>
        <time>2022-10-10T12:54:50Z</time>
      </trkpt>
      <trkpt lat="47.16249" lon="6.12631">
        <ele>523.485</ele>
        <time>2022-10-10T12:54:51Z</time>
      </trkpt>
      <trkpt lat="47.16252" lon="6.12629">
        <ele>523.231</ele>
        <time>2022-10-10T12:54:52Z</time>
      </trkpt>
      <trkpt lat="47.16253" lon="6.12626">
        <ele>522.861</ele>
        <time>2022-10-10T12:54:53Z</time>
      </trkpt>
      <trkpt lat="47.16254" lon="6.12623">
        <ele>521.607</ele>
        <time>2022-10-10T12:54:54Z</time>
      </trkpt>
      <trkpt lat="47.16255" lon="6.12619">
        <ele>521.609</ele>
        <time>2022-10-10T12:54:55Z</time>
      </trkpt>
      <trkpt lat="47.16257" lon="6.12616">
        <ele>521.444</ele>
        <time>2022-10-10T12:54:56Z</time>
      </trkpt>
      <trkpt lat="47.16261" lon="6.12606">
        <ele>520.474</ele>
        <time>2022-10-10T12:54:59Z</time>
      </trkpt>
      <trkpt lat="47.16264" lon="6.12595">
        <ele>519.828</ele>
        <time>2022-10-10T12:55:01Z</time>
      </trkpt>
      <trkpt lat="47.16266" lon="6.1259">
        <ele>519.862</ele>
        <time>2022-10-10T12:55:02Z</time>
      </trkpt>
      <trkpt lat="47.16267" lon="6.12586">
        <ele>519.855</ele>
        <time>2022-10-10T12:55:03Z</time>
      </trkpt>
      <trkpt lat="47.1627" lon="6.12578">
        <ele>520.281</ele>
        <time>2022-10-10T12:55:05Z</time>
      </trkpt>
      <trkpt lat="47.16272" lon="6.12574">
        <ele>520.427</ele>
        <time>2022-10-10T12:55:06Z</time>
      </trkpt>
      <trkpt lat="47.16274" lon="6.1257">
        <ele>520.697</ele>
        <time>2022-10-10T12:55:07Z</time>
      </trkpt>
      <trkpt lat="47.16275" lon="6.12566">
        <ele>521.861</ele>
        <time>2022-10-10T12:55:08Z</time>
      </trkpt>
      <trkpt lat="47.16279" lon="6.12559">
        <ele>521.883</ele>
        <time>2022-10-10T12:55:10Z</time>
      </trkpt>
      <trkpt lat="47.16282" lon="6.12554">
        <ele>522.625</ele>
        <time>2022-10-10T12:55:12Z</time>
      </trkpt>
      <trkpt lat="47.16284" lon="6.12551">
        <ele>522.817</ele>
        <time>2022-10-10T12:55:13Z</time>
      </trkpt>
      <trkpt lat="47.16286" lon="6.12549">
        <ele>523.609</ele>
        <time>2022-10-10T12:55:14Z</time>
      </trkpt>
      <trkpt lat="47.16287" lon="6.12547">
        <ele>523.649</ele>
        <time>2022-10-10T12:55:15Z</time>
      </trkpt>
      <trkpt lat="47.16289" lon="6.12546">
        <ele>523.889</ele>
        <time>2022-10-10T12:55:16Z</time>
      </trkpt>
      <trkpt lat="47.16291" lon="6.12544">
        <ele>524.023</ele>
        <time>2022-10-10T12:55:17Z</time>
      </trkpt>
      <trkpt lat="47.16293" lon="6.12542">
        <ele>524.057</ele>
        <time>2022-10-10T12:55:18Z</time>
      </trkpt>
      <trkpt lat="47.16295" lon="6.12539">
        <ele>524.48</ele>
        <time>2022-10-10T12:55:19Z</time>
      </trkpt>
      <trkpt lat="47.16297" lon="6.12537">
        <ele>524.826</ele>
        <time>2022-10-10T12:55:20Z</time>
      </trkpt>
      <trkpt lat="47.16299" lon="6.12535">
        <ele>525.042</ele>
        <time>2022-10-10T12:55:21Z</time>
      </trkpt>
      <trkpt lat="47.163" lon="6.12533">
        <ele>525.882</ele>
        <time>2022-10-10T12:55:22Z</time>
      </trkpt>
      <trkpt lat="47.16304" lon="6.1253">
        <ele>526.886</ele>
        <time>2022-10-10T12:55:24Z</time>
      </trkpt>
      <trkpt lat="47.16306" lon="6.12528">
        <ele>526.873</ele>
        <time>2022-10-10T12:55:25Z</time>
      </trkpt>
      <trkpt lat="47.16308" lon="6.12527">
        <ele>527.685</ele>
        <time>2022-10-10T12:55:26Z</time>
      </trkpt>
      <trkpt lat="47.16309" lon="6.12526">
        <ele>528.413</ele>
        <time>2022-10-10T12:55:27Z</time>
      </trkpt>
      <trkpt lat="47.16311" lon="6.12525">
        <ele>528.809</ele>
        <time>2022-10-10T12:55:28Z</time>
      </trkpt>
      <trkpt lat="47.16313" lon="6.12523">
        <ele>529.898</ele>
        <time>2022-10-10T12:55:29Z</time>
      </trkpt>
      <trkpt lat="47.16315" lon="6.12522">
        <ele>530.088</ele>
        <time>2022-10-10T12:55:30Z</time>
      </trkpt>
      <trkpt lat="47.16317" lon="6.12521">
        <ele>530.252</ele>
        <time>2022-10-10T12:55:31Z</time>
      </trkpt>
      <trkpt lat="47.16318" lon="6.1252">
        <ele>531.426</ele>
        <time>2022-10-10T12:55:32Z</time>
      </trkpt>
      <trkpt lat="47.1632" lon="6.12519">
        <ele>532.249</ele>
        <time>2022-10-10T12:55:33Z</time>
      </trkpt>
      <trkpt lat="47.16322" lon="6.12517">
        <ele>532.885</ele>
        <time>2022-10-10T12:55:34Z</time>
      </trkpt>
      <trkpt lat="47.16325" lon="6.12516">
        <ele>533.041</ele>
        <time>2022-10-10T12:55:35Z</time>
      </trkpt>
      <trkpt lat="47.16326" lon="6.12515">
        <ele>533.681</ele>
        <time>2022-10-10T12:55:36Z</time>
      </trkpt>
      <trkpt lat="47.16329" lon="6.12512">
        <ele>534.055</ele>
        <time>2022-10-10T12:55:37Z</time>
      </trkpt>
      <trkpt lat="47.16332" lon="6.1251">
        <ele>535.043</ele>
        <time>2022-10-10T12:55:38Z</time>
      </trkpt>
      <trkpt lat="47.16334" lon="6.12509">
        <ele>535.064</ele>
        <time>2022-10-10T12:55:39Z</time>
      </trkpt>
      <trkpt lat="47.16336" lon="6.12507">
        <ele>535.41</ele>
        <time>2022-10-10T12:55:40Z</time>
      </trkpt>
      <trkpt lat="47.16338" lon="6.12505">
        <ele>536.009</ele>
        <time>2022-10-10T12:55:41Z</time>
      </trkpt>
      <trkpt lat="47.16341" lon="6.12503">
        <ele>536.455</ele>
        <time>2022-10-10T12:55:42Z</time>
      </trkpt>
      <trkpt lat="47.16343" lon="6.12502">
        <ele>536.685</ele>
        <time>2022-10-10T12:55:43Z</time>
      </trkpt>
      <trkpt lat="47.16345" lon="6.12501">
        <ele>537.039</ele>
        <time>2022-10-10T12:55:44Z</time>
      </trkpt>
      <trkpt lat="47.16347" lon="6.12499">
        <ele>537.453</ele>
        <time>2022-10-10T12:55:45Z</time>
      </trkpt>
      <trkpt lat="47.16349" lon="6.12498">
        <ele>537.626</ele>
        <time>2022-10-10T12:55:46Z</time>
      </trkpt>
      <trkpt lat="47.16351" lon="6.12497">
        <ele>538.242</ele>
        <time>2022-10-10T12:55:47Z</time>
      </trkpt>
      <trkpt lat="47.16353" lon="6.12496">
        <ele>538.868</ele>
        <time>2022-10-10T12:55:48Z</time>
      </trkpt>
      <trkpt lat="47.16356" lon="6.12494">
        <ele>539.028</ele>
        <time>2022-10-10T12:55:49Z</time>
      </trkpt>
      <trkpt lat="47.16358" lon="6.12491">
        <ele>539.082</ele>
        <time>2022-10-10T12:55:50Z</time>
      </trkpt>
      <trkpt lat="47.16361" lon="6.12487">
        <ele>539.023</ele>
        <time>2022-10-10T12:55:51Z</time>
      </trkpt>
      <trkpt lat="47.16363" lon="6.12484">
        <ele>539.083</ele>
        <time>2022-10-10T12:55:52Z</time>
      </trkpt>
      <trkpt lat="47.16366" lon="6.12483">
        <ele>539.211</ele>
        <time>2022-10-10T12:55:53Z</time>
      </trkpt>
      <trkpt lat="47.16369" lon="6.12482">
        <ele>539.209</ele>
        <time>2022-10-10T12:55:54Z</time>
      </trkpt>
      <trkpt lat="47.16372" lon="6.12482">
        <ele>539.253</ele>
        <time>2022-10-10T12:55:55Z</time>
      </trkpt>
      <trkpt lat="47.16375" lon="6.12481">
        <ele>539.263</ele>
        <time>2022-10-10T12:55:56Z</time>
      </trkpt>
      <trkpt lat="47.16378" lon="6.1248">
        <ele>539.217</ele>
        <time>2022-10-10T12:55:57Z</time>
      </trkpt>
      <trkpt lat="47.1638" lon="6.1248">
        <ele>539.251</ele>
        <time>2022-10-10T12:55:58Z</time>
      </trkpt>
      <trkpt lat="47.16383" lon="6.12479">
        <ele>539.254</ele>
        <time>2022-10-10T12:55:59Z</time>
      </trkpt>
      <trkpt lat="47.16387" lon="6.12478">
        <ele>539.24</ele>
        <time>2022-10-10T12:56:00Z</time>
      </trkpt>
      <trkpt lat="47.16391" lon="6.12476">
        <ele>539.046</ele>
        <time>2022-10-10T12:56:01Z</time>
      </trkpt>
      <trkpt lat="47.16394" lon="6.12476">
        <ele>539.016</ele>
        <time>2022-10-10T12:56:02Z</time>
      </trkpt>
      <trkpt lat="47.16399" lon="6.12475">
        <ele>538.87</ele>
        <time>2022-10-10T12:56:03Z</time>
      </trkpt>
      <trkpt lat="47.16402" lon="6.12474">
        <ele>538.663</ele>
        <time>2022-10-10T12:56:04Z</time>
      </trkpt>
      <trkpt lat="47.16406" lon="6.12472">
        <ele>538.644</ele>
        <time>2022-10-10T12:56:05Z</time>
      </trkpt>
      <trkpt lat="47.1641" lon="6.1247">
        <ele>538.218</ele>
        <time>2022-10-10T12:56:06Z</time>
      </trkpt>
      <trkpt lat="47.16414" lon="6.1247">
        <ele>538.009</ele>
        <time>2022-10-10T12:56:07Z</time>
      </trkpt>
      <trkpt lat="47.16418" lon="6.12469">
        <ele>538.037</ele>
        <time>2022-10-10T12:56:08Z</time>
      </trkpt>
      <trkpt lat="47.16423" lon="6.12471">
        <ele>537.887</ele>
        <time>2022-10-10T12:56:09Z</time>
      </trkpt>
      <trkpt lat="47.16427" lon="6.12473">
        <ele>537.841</ele>
        <time>2022-10-10T12:56:10Z</time>
      </trkpt>
      <trkpt lat="47.16432" lon="6.12469">
        <ele>537.275</ele>
        <time>2022-10-10T12:56:11Z</time>
      </trkpt>
      <trkpt lat="47.16437" lon="6.12468">
        <ele>537.248</ele>
        <time>2022-10-10T12:56:12Z</time>
      </trkpt>
      <trkpt lat="47.16442" lon="6.12466">
        <ele>537.284</ele>
        <time>2022-10-10T12:56:13Z</time>
      </trkpt>
      <trkpt lat="47.16446" lon="6.12465">
        <ele>537.29</ele>
        <time>2022-10-10T12:56:14Z</time>
      </trkpt>
      <trkpt lat="47.16448" lon="6.12463">
        <ele>537.28</ele>
        <time>2022-10-10T12:56:15Z</time>
      </trkpt>
      <trkpt lat="47.16455" lon="6.12461">
        <ele>537.294</ele>
        <time>2022-10-10T12:56:17Z</time>
      </trkpt>
      <trkpt lat="47.16459" lon="6.12461">
        <ele>536.898</ele>
        <time>2022-10-10T12:56:18Z</time>
      </trkpt>
      <trkpt lat="47.16467" lon="6.12463">
        <ele>536.015</ele>
        <time>2022-10-10T12:56:20Z</time>
      </trkpt>
      <trkpt lat="47.16479" lon="6.12461">
        <ele>535.826</ele>
        <time>2022-10-10T12:56:23Z</time>
      </trkpt>
      <trkpt lat="47.16493" lon="6.12456">
        <ele>535.009</ele>
        <time>2022-10-10T12:56:26Z</time>
      </trkpt>
      <trkpt lat="47.16496" lon="6.12456">
        <ele>535.04</ele>
        <time>2022-10-10T12:56:27Z</time>
      </trkpt>
      <trkpt lat="47.165" lon="6.12457">
        <ele>534.87</ele>
        <time>2022-10-10T12:56:28Z</time>
      </trkpt>
      <trkpt lat="47.16504" lon="6.12456">
        <ele>534.684</ele>
        <time>2022-10-10T12:56:29Z</time>
      </trkpt>
      <trkpt lat="47.16517" lon="6.12452">
        <ele>534.088</ele>
        <time>2022-10-10T12:56:32Z</time>
      </trkpt>
      <trkpt lat="47.16521" lon="6.12451">
        <ele>534.011</ele>
        <time>2022-10-10T12:56:33Z</time>
      </trkpt>
      <trkpt lat="47.1653" lon="6.12447">
        <ele>533.857</ele>
        <time>2022-10-10T12:56:35Z</time>
      </trkpt>
      <trkpt lat="47.16534" lon="6.12446">
        <ele>533.873</ele>
        <time>2022-10-10T12:56:36Z</time>
      </trkpt>
      <trkpt lat="47.16538" lon="6.12446">
        <ele>533.623</ele>
        <time>2022-10-10T12:56:37Z</time>
      </trkpt>
      <trkpt lat="47.16545" lon="6.12446">
        <ele>533.447</ele>
        <time>2022-10-10T12:56:39Z</time>
      </trkpt>
      <trkpt lat="47.16549" lon="6.12444">
        <ele>533.024</ele>
        <time>2022-10-10T12:56:40Z</time>
      </trkpt>
      <trkpt lat="47.16558" lon="6.12443">
        <ele>533.004</ele>
        <time>2022-10-10T12:56:42Z</time>
      </trkpt>
      <trkpt lat="47.16562" lon="6.12442">
        <ele>532.814</ele>
        <time>2022-10-10T12:56:43Z</time>
      </trkpt>
      <trkpt lat="47.1657" lon="6.12441">
        <ele>532.609</ele>
        <time>2022-10-10T12:56:45Z</time>
      </trkpt>
      <trkpt lat="47.16582" lon="6.12439">
        <ele>532.483</ele>
        <time>2022-10-10T12:56:48Z</time>
      </trkpt>
      <trkpt lat="47.16586" lon="6.12439">
        <ele>532.473</ele>
        <time>2022-10-10T12:56:49Z</time>
      </trkpt>
      <trkpt lat="47.1659" lon="6.12438">
        <ele>532.237</ele>
        <time>2022-10-10T12:56:50Z</time>
      </trkpt>
      <trkpt lat="47.16595" lon="6.12437">
        <ele>532.031</ele>
        <time>2022-10-10T12:56:51Z</time>
      </trkpt>
      <trkpt lat="47.16599" lon="6.12435">
        <ele>532.054</ele>
        <time>2022-10-10T12:56:52Z</time>
      </trkpt>
      <trkpt lat="47.16602" lon="6.12434">
        <ele>532.08</ele>
        <time>2022-10-10T12:56:53Z</time>
      </trkpt>
      <trkpt lat="47.16606" lon="6.12433">
        <ele>532.076</ele>
        <time>2022-10-10T12:56:54Z</time>
      </trkpt>
      <trkpt lat="47.16609" lon="6.12432">
        <ele>532.016</ele>
        <time>2022-10-10T12:56:55Z</time>
      </trkpt>
      <trkpt lat="47.16611" lon="6.12433">
        <ele>532.05</ele>
        <time>2022-10-10T12:56:56Z</time>
      </trkpt>
      <trkpt lat="47.16617" lon="6.12452">
        <ele>532.076</ele>
        <time>2022-10-10T12:57:00Z</time>
      </trkpt>
      <trkpt lat="47.16619" lon="6.12457">
        <ele>532.09</ele>
        <time>2022-10-10T12:57:01Z</time>
      </trkpt>
      <trkpt lat="47.16625" lon="6.12483">
        <ele>532.019</ele>
        <time>2022-10-10T12:57:05Z</time>
      </trkpt>
      <trkpt lat="47.16628" lon="6.1249">
        <ele>532.009</ele>
        <time>2022-10-10T12:57:06Z</time>
      </trkpt>
      <trkpt lat="47.16634" lon="6.12503">
        <ele>531.648</ele>
        <time>2022-10-10T12:57:08Z</time>
      </trkpt>
      <trkpt lat="47.16641" lon="6.1252">
        <ele>530.638</ele>
        <time>2022-10-10T12:57:10Z</time>
      </trkpt>
      <trkpt lat="47.16642" lon="6.12529">
        <ele>530.672</ele>
        <time>2022-10-10T12:57:11Z</time>
      </trkpt>
      <trkpt lat="47.16645" lon="6.12536">
        <ele>530.686</ele>
        <time>2022-10-10T12:57:12Z</time>
      </trkpt>
      <trkpt lat="47.16646" lon="6.12544">
        <ele>530.619</ele>
        <time>2022-10-10T12:57:13Z</time>
      </trkpt>
      <trkpt lat="47.16648" lon="6.12551">
        <ele>530.875</ele>
        <time>2022-10-10T12:57:14Z</time>
      </trkpt>
      <trkpt lat="47.16651" lon="6.12567">
        <ele>531.211</ele>
        <time>2022-10-10T12:57:16Z</time>
      </trkpt>
      <trkpt lat="47.16652" lon="6.12573">
        <ele>531.451</ele>
        <time>2022-10-10T12:57:17Z</time>
      </trkpt>
      <trkpt lat="47.16656" lon="6.12589">
        <ele>532.035</ele>
        <time>2022-10-10T12:57:19Z</time>
      </trkpt>
      <trkpt lat="47.16659" lon="6.12605">
        <ele>532.053</ele>
        <time>2022-10-10T12:57:21Z</time>
      </trkpt>
      <trkpt lat="47.16663" lon="6.12621">
        <ele>532.404</ele>
        <time>2022-10-10T12:57:23Z</time>
      </trkpt>
      <trkpt lat="47.16667" lon="6.12637">
        <ele>533.014</ele>
        <time>2022-10-10T12:57:25Z</time>
      </trkpt>
      <trkpt lat="47.16669" lon="6.12653">
        <ele>533.009</ele>
        <time>2022-10-10T12:57:27Z</time>
      </trkpt>
      <trkpt lat="47.16671" lon="6.12661">
        <ele>533.256</ele>
        <time>2022-10-10T12:57:28Z</time>
      </trkpt>
      <trkpt lat="47.16673" lon="6.12669">
        <ele>533.826</ele>
        <time>2022-10-10T12:57:29Z</time>
      </trkpt>
      <trkpt lat="47.16675" lon="6.12676">
        <ele>534.06</ele>
        <time>2022-10-10T12:57:30Z</time>
      </trkpt>
      <trkpt lat="47.16679" lon="6.12698">
        <ele>535.274</ele>
        <time>2022-10-10T12:57:33Z</time>
      </trkpt>
      <trkpt lat="47.16681" lon="6.12705">
        <ele>535.247</ele>
        <time>2022-10-10T12:57:34Z</time>
      </trkpt>
      <trkpt lat="47.16682" lon="6.12713">
        <ele>535.823</ele>
        <time>2022-10-10T12:57:35Z</time>
      </trkpt>
      <trkpt lat="47.16684" lon="6.12721">
        <ele>536.089</ele>
        <time>2022-10-10T12:57:36Z</time>
      </trkpt>
      <trkpt lat="47.16685" lon="6.12727">
        <ele>536.079</ele>
        <time>2022-10-10T12:57:37Z</time>
      </trkpt>
      <trkpt lat="47.16686" lon="6.12733">
        <ele>536.833</ele>
        <time>2022-10-10T12:57:38Z</time>
      </trkpt>
      <trkpt lat="47.16688" lon="6.12741">
        <ele>537.082</ele>
        <time>2022-10-10T12:57:39Z</time>
      </trkpt>
      <trkpt lat="47.1669" lon="6.12748">
        <ele>537.243</ele>
        <time>2022-10-10T12:57:40Z</time>
      </trkpt>
      <trkpt lat="47.16693" lon="6.12756">
        <ele>537.417</ele>
        <time>2022-10-10T12:57:41Z</time>
      </trkpt>
      <trkpt lat="47.16694" lon="6.12763">
        <ele>537.409</ele>
        <time>2022-10-10T12:57:42Z</time>
      </trkpt>
      <trkpt lat="47.16697" lon="6.12771">
        <ele>537.899</ele>
        <time>2022-10-10T12:57:43Z</time>
      </trkpt>
      <trkpt lat="47.16699" lon="6.12779">
        <ele>537.839</ele>
        <time>2022-10-10T12:57:44Z</time>
      </trkpt>
      <trkpt lat="47.16701" lon="6.12787">
        <ele>538.243</ele>
        <time>2022-10-10T12:57:45Z</time>
      </trkpt>
      <trkpt lat="47.16702" lon="6.12794">
        <ele>538.457</ele>
        <time>2022-10-10T12:57:46Z</time>
      </trkpt>
      <trkpt lat="47.16703" lon="6.12801">
        <ele>538.42</ele>
        <time>2022-10-10T12:57:47Z</time>
      </trkpt>
      <trkpt lat="47.16706" lon="6.1281">
        <ele>539.296</ele>
        <time>2022-10-10T12:57:48Z</time>
      </trkpt>
      <trkpt lat="47.16706" lon="6.12818">
        <ele>539.652</ele>
        <time>2022-10-10T12:57:49Z</time>
      </trkpt>
      <trkpt lat="47.16707" lon="6.12825">
        <ele>540.212</ele>
        <time>2022-10-10T12:57:50Z</time>
      </trkpt>
      <trkpt lat="47.16709" lon="6.12833">
        <ele>540.256</ele>
        <time>2022-10-10T12:57:51Z</time>
      </trkpt>
      <trkpt lat="47.16712" lon="6.12841">
        <ele>540.465</ele>
        <time>2022-10-10T12:57:52Z</time>
      </trkpt>
      <trkpt lat="47.16714" lon="6.12849">
        <ele>540.868</ele>
        <time>2022-10-10T12:57:53Z</time>
      </trkpt>
      <trkpt lat="47.16714" lon="6.12857">
        <ele>541.014</ele>
        <time>2022-10-10T12:57:54Z</time>
      </trkpt>
      <trkpt lat="47.16717" lon="6.12863">
        <ele>541.009</ele>
        <time>2022-10-10T12:57:55Z</time>
      </trkpt>
      <trkpt lat="47.16719" lon="6.12869">
        <ele>541.427</ele>
        <time>2022-10-10T12:57:56Z</time>
      </trkpt>
      <trkpt lat="47.1672" lon="6.12873">
        <ele>541.427</ele>
        <time>2022-10-10T12:57:57Z</time>
      </trkpt>
      <trkpt lat="47.16721" lon="6.12882">
        <ele>541.841</ele>
        <time>2022-10-10T12:57:58Z</time>
      </trkpt>
      <trkpt lat="47.16722" lon="6.1289">
        <ele>542.425</ele>
        <time>2022-10-10T12:57:59Z</time>
      </trkpt>
      <trkpt lat="47.16723" lon="6.12896">
        <ele>542.628</ele>
        <time>2022-10-10T12:58:00Z</time>
      </trkpt>
      <trkpt lat="47.16725" lon="6.12903">
        <ele>542.634</ele>
        <time>2022-10-10T12:58:01Z</time>
      </trkpt>
      <trkpt lat="47.16726" lon="6.12911">
        <ele>543.03</ele>
        <time>2022-10-10T12:58:02Z</time>
      </trkpt>
      <trkpt lat="47.16727" lon="6.12919">
        <ele>543.03</ele>
        <time>2022-10-10T12:58:03Z</time>
      </trkpt>
      <trkpt lat="47.16729" lon="6.12926">
        <ele>543.044</ele>
        <time>2022-10-10T12:58:04Z</time>
      </trkpt>
      <trkpt lat="47.16731" lon="6.12934">
        <ele>543.663</ele>
        <time>2022-10-10T12:58:05Z</time>
      </trkpt>
      <trkpt lat="47.16734" lon="6.12942">
        <ele>543.844</ele>
        <time>2022-10-10T12:58:06Z</time>
      </trkpt>
      <trkpt lat="47.16736" lon="6.12951">
        <ele>544.218</ele>
        <time>2022-10-10T12:58:07Z</time>
      </trkpt>
      <trkpt lat="47.16738" lon="6.12958">
        <ele>544.409</ele>
        <time>2022-10-10T12:58:08Z</time>
      </trkpt>
      <trkpt lat="47.1674" lon="6.12965">
        <ele>544.487</ele>
        <time>2022-10-10T12:58:09Z</time>
      </trkpt>
      <trkpt lat="47.16742" lon="6.12971">
        <ele>544.887</ele>
        <time>2022-10-10T12:58:10Z</time>
      </trkpt>
      <trkpt lat="47.16744" lon="6.12979">
        <ele>545.051</ele>
        <time>2022-10-10T12:58:11Z</time>
      </trkpt>
      <trkpt lat="47.16745" lon="6.12985">
        <ele>545.265</ele>
        <time>2022-10-10T12:58:12Z</time>
      </trkpt>
      <trkpt lat="47.16747" lon="6.12991">
        <ele>545.618</ele>
        <time>2022-10-10T12:58:13Z</time>
      </trkpt>
      <trkpt lat="47.16747" lon="6.12996">
        <ele>545.814</ele>
        <time>2022-10-10T12:58:14Z</time>
      </trkpt>
      <trkpt lat="47.16748" lon="6.13001">
        <ele>546.08</ele>
        <time>2022-10-10T12:58:15Z</time>
      </trkpt>
      <trkpt lat="47.16749" lon="6.13005">
        <ele>546.07</ele>
        <time>2022-10-10T12:58:16Z</time>
      </trkpt>
      <trkpt lat="47.16752" lon="6.13009">
        <ele>546.234</ele>
        <time>2022-10-10T12:58:17Z</time>
      </trkpt>
      <trkpt lat="47.16756" lon="6.13012">
        <ele>546.485</ele>
        <time>2022-10-10T12:58:18Z</time>
      </trkpt>
      <trkpt lat="47.1676" lon="6.13013">
        <ele>546.489</ele>
        <time>2022-10-10T12:58:19Z</time>
      </trkpt>
      <trkpt lat="47.16765" lon="6.13013">
        <ele>546.417</ele>
        <time>2022-10-10T12:58:20Z</time>
      </trkpt>
      <trkpt lat="47.16771" lon="6.13013">
        <ele>546.409</ele>
        <time>2022-10-10T12:58:21Z</time>
      </trkpt>
      <trkpt lat="47.16776" lon="6.13012">
        <ele>546.039</ele>
        <time>2022-10-10T12:58:22Z</time>
      </trkpt>
      <trkpt lat="47.16781" lon="6.13012">
        <ele>546.019</ele>
        <time>2022-10-10T12:58:23Z</time>
      </trkpt>
      <trkpt lat="47.16785" lon="6.13012">
        <ele>546.053</ele>
        <time>2022-10-10T12:58:24Z</time>
      </trkpt>
      <trkpt lat="47.1679" lon="6.13012">
        <ele>545.877</ele>
        <time>2022-10-10T12:58:25Z</time>
      </trkpt>
      <trkpt lat="47.16796" lon="6.13011">
        <ele>545.81</ele>
        <time>2022-10-10T12:58:26Z</time>
      </trkpt>
      <trkpt lat="47.16801" lon="6.1301">
        <ele>545.666</ele>
        <time>2022-10-10T12:58:27Z</time>
      </trkpt>
      <trkpt lat="47.16806" lon="6.13008">
        <ele>545.632</ele>
        <time>2022-10-10T12:58:28Z</time>
      </trkpt>
      <trkpt lat="47.16811" lon="6.13007">
        <ele>545.622</ele>
        <time>2022-10-10T12:58:29Z</time>
      </trkpt>
      <trkpt lat="47.16816" lon="6.13006">
        <ele>545.296</ele>
        <time>2022-10-10T12:58:30Z</time>
      </trkpt>
      <trkpt lat="47.16822" lon="6.13004">
        <ele>545.236</ele>
        <time>2022-10-10T12:58:31Z</time>
      </trkpt>
      <trkpt lat="47.16828" lon="6.13003">
        <ele>545.017</ele>
        <time>2022-10-10T12:58:32Z</time>
      </trkpt>
      <trkpt lat="47.16833" lon="6.13001">
        <ele>544.818</ele>
        <time>2022-10-10T12:58:33Z</time>
      </trkpt>
      <trkpt lat="47.16845" lon="6.12997">
        <ele>544.409</ele>
        <time>2022-10-10T12:58:35Z</time>
      </trkpt>
      <trkpt lat="47.16851" lon="6.12994">
        <ele>543.834</ele>
        <time>2022-10-10T12:58:36Z</time>
      </trkpt>
      <trkpt lat="47.16864" lon="6.12988">
        <ele>542.274</ele>
        <time>2022-10-10T12:58:38Z</time>
      </trkpt>
      <trkpt lat="47.16872" lon="6.12985">
        <ele>541.888</ele>
        <time>2022-10-10T12:58:39Z</time>
      </trkpt>
      <trkpt lat="47.16879" lon="6.12984">
        <ele>540.872</ele>
        <time>2022-10-10T12:58:40Z</time>
      </trkpt>
      <trkpt lat="47.16887" lon="6.12982">
        <ele>540.865</ele>
        <time>2022-10-10T12:58:41Z</time>
      </trkpt>
      <trkpt lat="47.16902" lon="6.12978">
        <ele>540.841</ele>
        <time>2022-10-10T12:58:43Z</time>
      </trkpt>
      <trkpt lat="47.16925" lon="6.12968">
        <ele>540.037</ele>
        <time>2022-10-10T12:58:46Z</time>
      </trkpt>
      <trkpt lat="47.16933" lon="6.12963">
        <ele>537.667</ele>
        <time>2022-10-10T12:58:47Z</time>
      </trkpt>
      <trkpt lat="47.1694" lon="6.12958">
        <ele>536.631</ele>
        <time>2022-10-10T12:58:48Z</time>
      </trkpt>
      <trkpt lat="47.16957" lon="6.12947">
        <ele>535.445</ele>
        <time>2022-10-10T12:58:50Z</time>
      </trkpt>
      <trkpt lat="47.16965" lon="6.12942">
        <ele>534.847</ele>
        <time>2022-10-10T12:58:51Z</time>
      </trkpt>
      <trkpt lat="47.16973" lon="6.12936">
        <ele>534.811</ele>
        <time>2022-10-10T12:58:52Z</time>
      </trkpt>
      <trkpt lat="47.16982" lon="6.12931">
        <ele>533.809</ele>
        <time>2022-10-10T12:58:53Z</time>
      </trkpt>
      <trkpt lat="47.1699" lon="6.12925">
        <ele>533.645</ele>
        <time>2022-10-10T12:58:54Z</time>
      </trkpt>
      <trkpt lat="47.16997" lon="6.1292">
        <ele>533.665</ele>
        <time>2022-10-10T12:58:55Z</time>
      </trkpt>
      <trkpt lat="47.17005" lon="6.12914">
        <ele>533.699</ele>
        <time>2022-10-10T12:58:56Z</time>
      </trkpt>
      <trkpt lat="47.17012" lon="6.12909">
        <ele>532.083</ele>
        <time>2022-10-10T12:58:57Z</time>
      </trkpt>
      <trkpt lat="47.1702" lon="6.12905">
        <ele>532.016</ele>
        <time>2022-10-10T12:58:58Z</time>
      </trkpt>
      <trkpt lat="47.17027" lon="6.12901">
        <ele>531.842</ele>
        <time>2022-10-10T12:58:59Z</time>
      </trkpt>
      <trkpt lat="47.17034" lon="6.12897">
        <ele>532.068</ele>
        <time>2022-10-10T12:59:00Z</time>
      </trkpt>
      <trkpt lat="47.17041" lon="6.12893">
        <ele>532.448</ele>
        <time>2022-10-10T12:59:01Z</time>
      </trkpt>
      <trkpt lat="47.17083" lon="6.12868">
        <ele>531.682</ele>
        <time>2022-10-10T12:59:07Z</time>
      </trkpt>
      <trkpt lat="47.17097" lon="6.12858">
        <ele>531.047</ele>
        <time>2022-10-10T12:59:09Z</time>
      </trkpt>
      <trkpt lat="47.17127" lon="6.12839">
        <ele>529.829</ele>
        <time>2022-10-10T12:59:13Z</time>
      </trkpt>
      <trkpt lat="47.17149" lon="6.12825">
        <ele>527.621</ele>
        <time>2022-10-10T12:59:16Z</time>
      </trkpt>
      <trkpt lat="47.17157" lon="6.12819">
        <ele>527.609</ele>
        <time>2022-10-10T12:59:17Z</time>
      </trkpt>
      <trkpt lat="47.1718" lon="6.12802">
        <ele>525.855</ele>
        <time>2022-10-10T12:59:20Z</time>
      </trkpt>
      <trkpt lat="47.17196" lon="6.12789">
        <ele>524.625</ele>
        <time>2022-10-10T12:59:22Z</time>
      </trkpt>
      <trkpt lat="47.17202" lon="6.12781">
        <ele>524.249</ele>
        <time>2022-10-10T12:59:23Z</time>
      </trkpt>
      <trkpt lat="47.17209" lon="6.12773">
        <ele>524.033</ele>
        <time>2022-10-10T12:59:24Z</time>
      </trkpt>
      <trkpt lat="47.17215" lon="6.12765">
        <ele>523.236</ele>
        <time>2022-10-10T12:59:25Z</time>
      </trkpt>
      <trkpt lat="47.17221" lon="6.12756">
        <ele>523.082</ele>
        <time>2022-10-10T12:59:26Z</time>
      </trkpt>
      <trkpt lat="47.17239" lon="6.1273">
        <ele>522.628</ele>
        <time>2022-10-10T12:59:29Z</time>
      </trkpt>
      <trkpt lat="47.17244" lon="6.12721">
        <ele>522.668</ele>
        <time>2022-10-10T12:59:30Z</time>
      </trkpt>
      <trkpt lat="47.17255" lon="6.12701">
        <ele>522.642</ele>
        <time>2022-10-10T12:59:32Z</time>
      </trkpt>
      <trkpt lat="47.17261" lon="6.12692">
        <ele>522.636</ele>
        <time>2022-10-10T12:59:33Z</time>
      </trkpt>
      <trkpt lat="47.17267" lon="6.12683">
        <ele>522.617</ele>
        <time>2022-10-10T12:59:34Z</time>
      </trkpt>
      <trkpt lat="47.17273" lon="6.12675">
        <ele>519.218</ele>
        <time>2022-10-10T12:59:35Z</time>
      </trkpt>
      <trkpt lat="47.17279" lon="6.12668">
        <ele>518.609</ele>
        <time>2022-10-10T12:59:36Z</time>
      </trkpt>
      <trkpt lat="47.17285" lon="6.12661">
        <ele>518.474</ele>
        <time>2022-10-10T12:59:37Z</time>
      </trkpt>
      <trkpt lat="47.17292" lon="6.12654">
        <ele>518.454</ele>
        <time>2022-10-10T12:59:38Z</time>
      </trkpt>
      <trkpt lat="47.17299" lon="6.12649">
        <ele>518.488</ele>
        <time>2022-10-10T12:59:39Z</time>
      </trkpt>
      <trkpt lat="47.17312" lon="6.12639">
        <ele>518.472</ele>
        <time>2022-10-10T12:59:41Z</time>
      </trkpt>
      <trkpt lat="47.17319" lon="6.12634">
        <ele>518.635</ele>
        <time>2022-10-10T12:59:42Z</time>
      </trkpt>
      <trkpt lat="47.17326" lon="6.12629">
        <ele>518.641</ele>
        <time>2022-10-10T12:59:43Z</time>
      </trkpt>
      <trkpt lat="47.17333" lon="6.12624">
        <ele>518.877</ele>
        <time>2022-10-10T12:59:44Z</time>
      </trkpt>
      <trkpt lat="47.17339" lon="6.1262">
        <ele>518.837</ele>
        <time>2022-10-10T12:59:45Z</time>
      </trkpt>
      <trkpt lat="47.17346" lon="6.12615">
        <ele>518.631</ele>
        <time>2022-10-10T12:59:46Z</time>
      </trkpt>
      <trkpt lat="47.17353" lon="6.1261">
        <ele>518.447</ele>
        <time>2022-10-10T12:59:47Z</time>
      </trkpt>
      <trkpt lat="47.17359" lon="6.12606">
        <ele>518.429</ele>
        <time>2022-10-10T12:59:48Z</time>
      </trkpt>
      <trkpt lat="47.17365" lon="6.12601">
        <ele>518.421</ele>
        <time>2022-10-10T12:59:49Z</time>
      </trkpt>
      <trkpt lat="47.17371" lon="6.12597">
        <ele>518.409</ele>
        <time>2022-10-10T12:59:50Z</time>
      </trkpt>
      <trkpt lat="47.17378" lon="6.12592">
        <ele>518.455</ele>
        <time>2022-10-10T12:59:51Z</time>
      </trkpt>
      <trkpt lat="47.17383" lon="6.12588">
        <ele>518.425</ele>
        <time>2022-10-10T12:59:52Z</time>
      </trkpt>
      <trkpt lat="47.17389" lon="6.12584">
        <ele>518.669</ele>
        <time>2022-10-10T12:59:53Z</time>
      </trkpt>
      <trkpt lat="47.17395" lon="6.12579">
        <ele>518.613</ele>
        <time>2022-10-10T12:59:54Z</time>
      </trkpt>
      <trkpt lat="47.17413" lon="6.12567">
        <ele>519.036</ele>
        <time>2022-10-10T12:59:57Z</time>
      </trkpt>
      <trkpt lat="47.17419" lon="6.12563">
        <ele>519.072</ele>
        <time>2022-10-10T12:59:58Z</time>
      </trkpt>
      <trkpt lat="47.1743" lon="6.12554">
        <ele>519.068</ele>
        <time>2022-10-10T13:00:00Z</time>
      </trkpt>
      <trkpt lat="47.17442" lon="6.12546">
        <ele>519.028</ele>
        <time>2022-10-10T13:00:02Z</time>
      </trkpt>
      <trkpt lat="47.17447" lon="6.12542">
        <ele>519.032</ele>
        <time>2022-10-10T13:00:03Z</time>
      </trkpt>
      <trkpt lat="47.17453" lon="6.12538">
        <ele>519.052</ele>
        <time>2022-10-10T13:00:04Z</time>
      </trkpt>
      <trkpt lat="47.17458" lon="6.12534">
        <ele>519.053</ele>
        <time>2022-10-10T13:00:05Z</time>
      </trkpt>
      <trkpt lat="47.17463" lon="6.1253">
        <ele>519.408</ele>
        <time>2022-10-10T13:00:06Z</time>
      </trkpt>
      <trkpt lat="47.17467" lon="6.12527">
        <ele>520.209</ele>
        <time>2022-10-10T13:00:07Z</time>
      </trkpt>
      <trkpt lat="47.17471" lon="6.12525">
        <ele>520.466</ele>
        <time>2022-10-10T13:00:08Z</time>
      </trkpt>
      <trkpt lat="47.17475" lon="6.12527">
        <ele>520.466</ele>
        <time>2022-10-10T13:00:09Z</time>
      </trkpt>
      <trkpt lat="47.17477" lon="6.12531">
        <ele>520.24</ele>
        <time>2022-10-10T13:00:10Z</time>
      </trkpt>
      <trkpt lat="47.17482" lon="6.12542">
        <ele>520.424</ele>
        <time>2022-10-10T13:00:12Z</time>
      </trkpt>
      <trkpt lat="47.17487" lon="6.12554">
        <ele>520.867</ele>
        <time>2022-10-10T13:00:14Z</time>
      </trkpt>
      <trkpt lat="47.17489" lon="6.1256">
        <ele>520.233</ele>
        <time>2022-10-10T13:00:15Z</time>
      </trkpt>
      <trkpt lat="47.17506" lon="6.12596">
        <ele>519.429</ele>
        <time>2022-10-10T13:00:21Z</time>
      </trkpt>
      <trkpt lat="47.17512" lon="6.12608">
        <ele>519.269</ele>
        <time>2022-10-10T13:00:23Z</time>
      </trkpt>
      <trkpt lat="47.17515" lon="6.12614">
        <ele>519.283</ele>
        <time>2022-10-10T13:00:24Z</time>
      </trkpt>
      <trkpt lat="47.17519" lon="6.12619">
        <ele>518.853</ele>
        <time>2022-10-10T13:00:25Z</time>
      </trkpt>
      <trkpt lat="47.17522" lon="6.12623">
        <ele>518.404</ele>
        <time>2022-10-10T13:00:26Z</time>
      </trkpt>
      <trkpt lat="47.17526" lon="6.12626">
        <ele>518.014</ele>
        <time>2022-10-10T13:00:27Z</time>
      </trkpt>
      <trkpt lat="47.17531" lon="6.12628">
        <ele>518.009</ele>
        <time>2022-10-10T13:00:28Z</time>
      </trkpt>
      <trkpt lat="47.17536" lon="6.12631">
        <ele>517.656</ele>
        <time>2022-10-10T13:00:29Z</time>
      </trkpt>
      <trkpt lat="47.17541" lon="6.12634">
        <ele>517.476</ele>
        <time>2022-10-10T13:00:30Z</time>
      </trkpt>
      <trkpt lat="47.17551" lon="6.12639">
        <ele>517.48</ele>
        <time>2022-10-10T13:00:32Z</time>
      </trkpt>
      <trkpt lat="47.17556" lon="6.12642">
        <ele>517.464</ele>
        <time>2022-10-10T13:00:33Z</time>
      </trkpt>
      <trkpt lat="47.17561" lon="6.12644">
        <ele>517.037</ele>
        <time>2022-10-10T13:00:34Z</time>
      </trkpt>
      <trkpt lat="47.17566" lon="6.12646">
        <ele>516.623</ele>
        <time>2022-10-10T13:00:35Z</time>
      </trkpt>
      <trkpt lat="47.1757" lon="6.12647">
        <ele>516.629</ele>
        <time>2022-10-10T13:00:36Z</time>
      </trkpt>
      <trkpt lat="47.1758" lon="6.12647">
        <ele>516.449</ele>
        <time>2022-10-10T13:00:38Z</time>
      </trkpt>
      <trkpt lat="47.17621" lon="6.12644">
        <ele>516.273</ele>
        <time>2022-10-10T13:00:46Z</time>
      </trkpt>
      <trkpt lat="47.17625" lon="6.12643">
        <ele>516.687</ele>
        <time>2022-10-10T13:00:47Z</time>
      </trkpt>
      <trkpt lat="47.17629" lon="6.12642">
        <ele>516.842</ele>
        <time>2022-10-10T13:00:48Z</time>
      </trkpt>
      <trkpt lat="47.17634" lon="6.12641">
        <ele>516.826</ele>
        <time>2022-10-10T13:00:49Z</time>
      </trkpt>
      <trkpt lat="47.17638" lon="6.12639">
        <ele>516.809</ele>
        <time>2022-10-10T13:00:50Z</time>
      </trkpt>
      <trkpt lat="47.17643" lon="6.12639">
        <ele>517.069</ele>
        <time>2022-10-10T13:00:51Z</time>
      </trkpt>
      <trkpt lat="47.17647" lon="6.12641">
        <ele>517.689</ele>
        <time>2022-10-10T13:00:52Z</time>
      </trkpt>
      <trkpt lat="47.1765" lon="6.12642">
        <ele>518.083</ele>
        <time>2022-10-10T13:00:53Z</time>
      </trkpt>
      <trkpt lat="47.17659" lon="6.12642">
        <ele>518.477</ele>
        <time>2022-10-10T13:00:56Z</time>
      </trkpt>
      <trkpt lat="47.17671" lon="6.12642">
        <ele>517.43</ele>
        <time>2022-10-10T13:00:59Z</time>
      </trkpt>
      <trkpt lat="47.17675" lon="6.12639">
        <ele>517.426</ele>
        <time>2022-10-10T13:01:00Z</time>
      </trkpt>
      <trkpt lat="47.17679" lon="6.12635">
        <ele>517.442</ele>
        <time>2022-10-10T13:01:01Z</time>
      </trkpt>
      <trkpt lat="47.17682" lon="6.12631">
        <ele>517.442</ele>
        <time>2022-10-10T13:01:02Z</time>
      </trkpt>
      <trkpt lat="47.17686" lon="6.12627">
        <ele>517.466</ele>
        <time>2022-10-10T13:01:03Z</time>
      </trkpt>
      <trkpt lat="47.17693" lon="6.12618">
        <ele>517.827</ele>
        <time>2022-10-10T13:01:05Z</time>
      </trkpt>
      <trkpt lat="47.17697" lon="6.12614">
        <ele>517.868</ele>
        <time>2022-10-10T13:01:06Z</time>
      </trkpt>
      <trkpt lat="47.17704" lon="6.12606">
        <ele>517.814</ele>
        <time>2022-10-10T13:01:08Z</time>
      </trkpt>
      <trkpt lat="47.17714" lon="6.12592">
        <ele>518.009</ele>
        <time>2022-10-10T13:01:11Z</time>
      </trkpt>
      <trkpt lat="47.17718" lon="6.12588">
        <ele>518.063</ele>
        <time>2022-10-10T13:01:12Z</time>
      </trkpt>
      <trkpt lat="47.17721" lon="6.12583">
        <ele>518.043</ele>
        <time>2022-10-10T13:01:13Z</time>
      </trkpt>
      <trkpt lat="47.17725" lon="6.12579">
        <ele>517.867</ele>
        <time>2022-10-10T13:01:14Z</time>
      </trkpt>
      <trkpt lat="47.17729" lon="6.12575">
        <ele>517.481</ele>
        <time>2022-10-10T13:01:15Z</time>
      </trkpt>
      <trkpt lat="47.17732" lon="6.12571">
        <ele>517.464</ele>
        <time>2022-10-10T13:01:16Z</time>
      </trkpt>
      <trkpt lat="47.17736" lon="6.12568">
        <ele>517.27</ele>
        <time>2022-10-10T13:01:17Z</time>
      </trkpt>
      <trkpt lat="47.17739" lon="6.12565">
        <ele>517.286</ele>
        <time>2022-10-10T13:01:18Z</time>
      </trkpt>
      <trkpt lat="47.17742" lon="6.12563">
        <ele>517.226</ele>
        <time>2022-10-10T13:01:19Z</time>
      </trkpt>
      <trkpt lat="47.17746" lon="6.12559">
        <ele>517.29</ele>
        <time>2022-10-10T13:01:20Z</time>
      </trkpt>
      <trkpt lat="47.17749" lon="6.12556">
        <ele>517.044</ele>
        <time>2022-10-10T13:01:21Z</time>
      </trkpt>
      <trkpt lat="47.17753" lon="6.12554">
        <ele>516.605</ele>
        <time>2022-10-10T13:01:22Z</time>
      </trkpt>
      <trkpt lat="47.17757" lon="6.12552">
        <ele>516.015</ele>
        <time>2022-10-10T13:01:23Z</time>
      </trkpt>
      <trkpt lat="47.17765" lon="6.1255">
        <ele>515.009</ele>
        <time>2022-10-10T13:01:25Z</time>
      </trkpt>
      <trkpt lat="47.17769" lon="6.12549">
        <ele>515.025</ele>
        <time>2022-10-10T13:01:26Z</time>
      </trkpt>
      <trkpt lat="47.17773" lon="6.12548">
        <ele>513.215</ele>
        <time>2022-10-10T13:01:27Z</time>
      </trkpt>
      <trkpt lat="47.17777" lon="6.12547">
        <ele>512.039</ele>
        <time>2022-10-10T13:01:28Z</time>
      </trkpt>
      <trkpt lat="47.17781" lon="6.12546">
        <ele>512.053</ele>
        <time>2022-10-10T13:01:29Z</time>
      </trkpt>
      <trkpt lat="47.17785" lon="6.12545">
        <ele>511.066</ele>
        <time>2022-10-10T13:01:30Z</time>
      </trkpt>
      <trkpt lat="47.17789" lon="6.12543">
        <ele>509.422</ele>
        <time>2022-10-10T13:01:31Z</time>
      </trkpt>
      <trkpt lat="47.17792" lon="6.12539">
        <ele>509.298</ele>
        <time>2022-10-10T13:01:32Z</time>
      </trkpt>
      <trkpt lat="47.17796" lon="6.12535">
        <ele>509.278</ele>
        <time>2022-10-10T13:01:33Z</time>
      </trkpt>
      <trkpt lat="47.17799" lon="6.1253">
        <ele>507.482</ele>
        <time>2022-10-10T13:01:34Z</time>
      </trkpt>
      <trkpt lat="47.17805" lon="6.12521">
        <ele>506.084</ele>
        <time>2022-10-10T13:01:36Z</time>
      </trkpt>
      <trkpt lat="47.17809" lon="6.12516">
        <ele>504.407</ele>
        <time>2022-10-10T13:01:37Z</time>
      </trkpt>
      <trkpt lat="47.17813" lon="6.12512">
        <ele>504.017</ele>
        <time>2022-10-10T13:01:38Z</time>
      </trkpt>
      <trkpt lat="47.17817" lon="6.12509">
        <ele>503.809</ele>
        <time>2022-10-10T13:01:39Z</time>
      </trkpt>
      <trkpt lat="47.17821" lon="6.12507">
        <ele>502.639</ele>
        <time>2022-10-10T13:01:40Z</time>
      </trkpt>
      <trkpt lat="47.17825" lon="6.12505">
        <ele>502.289</ele>
        <time>2022-10-10T13:01:41Z</time>
      </trkpt>
      <trkpt lat="47.17828" lon="6.12504">
        <ele>502.083</ele>
        <time>2022-10-10T13:01:42Z</time>
      </trkpt>
      <trkpt lat="47.1783" lon="6.12503">
        <ele>501.847</ele>
        <time>2022-10-10T13:01:43Z</time>
      </trkpt>
      <trkpt lat="47.17832" lon="6.12503">
        <ele>501.26</ele>
        <time>2022-10-10T13:01:44Z</time>
      </trkpt>
      <trkpt lat="47.17835" lon="6.12505">
        <ele>501.086</ele>
        <time>2022-10-10T13:01:45Z</time>
      </trkpt>
      <trkpt lat="47.17836" lon="6.12505">
        <ele>500.862</ele>
        <time>2022-10-10T13:01:46Z</time>
      </trkpt>
      <trkpt lat="47.17836" lon="6.12505">
        <ele>500.812</ele>
        <time>2022-10-10T13:01:47Z</time>
      </trkpt>
      <trkpt lat="47.17836" lon="6.12505">
        <ele>500.816</ele>
        <time>2022-10-10T13:01:48Z</time>
      </trkpt>
      <trkpt lat="47.17836" lon="6.12505">
        <ele>500.822</ele>
        <time>2022-10-10T13:01:49Z</time>
      </trkpt>
      <trkpt lat="47.17836" lon="6.12505">
        <ele>500.862</ele>
        <time>2022-10-10T13:01:50Z</time>
      </trkpt>
      <trkpt lat="47.17836" lon="6.12505">
        <ele>500.608</ele>
        <time>2022-10-10T13:01:51Z</time>
      </trkpt>
      <trkpt lat="47.17836" lon="6.12505">
        <ele>500.609</ele>
        <time>2022-10-10T13:01:52Z</time>
      </trkpt>
      <trkpt lat="47.17838" lon="6.12502">
        <ele>500.043</ele>
        <time>2022-10-10T13:01:57Z</time>
      </trkpt>
      <trkpt lat="47.17838" lon="6.12502">
        <ele>499.853</ele>
        <time>2022-10-10T13:01:58Z</time>
      </trkpt>
      <trkpt lat="47.17838" lon="6.12502">
        <ele>499.847</ele>
        <time>2022-10-10T13:01:59Z</time>
      </trkpt>
      <trkpt lat="47.1784" lon="6.12505">
        <ele>499.651</ele>
        <time>2022-10-10T13:02:03Z</time>
      </trkpt>
      <trkpt lat="47.17841" lon="6.12507">
        <ele>499.634</ele>
        <time>2022-10-10T13:02:04Z</time>
      </trkpt>
      <trkpt lat="47.17842" lon="6.1251">
        <ele>499.45</ele>
        <time>2022-10-10T13:02:05Z</time>
      </trkpt>
      <trkpt lat="47.17847" lon="6.12519">
        <ele>498.066</ele>
        <time>2022-10-10T13:02:07Z</time>
      </trkpt>
      <trkpt lat="47.1785" lon="6.12524">
        <ele>497.226</ele>
        <time>2022-10-10T13:02:08Z</time>
      </trkpt>
      <trkpt lat="47.17854" lon="6.1253">
        <ele>495.86</ele>
        <time>2022-10-10T13:02:09Z</time>
      </trkpt>
      <trkpt lat="47.17857" lon="6.12536">
        <ele>495.252</ele>
        <time>2022-10-10T13:02:10Z</time>
      </trkpt>
      <trkpt lat="47.17861" lon="6.12542">
        <ele>494.453</ele>
        <time>2022-10-10T13:02:11Z</time>
      </trkpt>
      <trkpt lat="47.17863" lon="6.12549">
        <ele>493.808</ele>
        <time>2022-10-10T13:02:12Z</time>
      </trkpt>
      <trkpt lat="47.17865" lon="6.12555">
        <ele>493.409</ele>
        <time>2022-10-10T13:02:13Z</time>
      </trkpt>
      <trkpt lat="47.17866" lon="6.12561">
        <ele>492.466</ele>
        <time>2022-10-10T13:02:14Z</time>
      </trkpt>
      <trkpt lat="47.17867" lon="6.12568">
        <ele>492.276</ele>
        <time>2022-10-10T13:02:15Z</time>
      </trkpt>
      <trkpt lat="47.17867" lon="6.12582">
        <ele>491.07</ele>
        <time>2022-10-10T13:02:17Z</time>
      </trkpt>
      <trkpt lat="47.17867" lon="6.12588">
        <ele>490.474</ele>
        <time>2022-10-10T13:02:18Z</time>
      </trkpt>
      <trkpt lat="47.17868" lon="6.12595">
        <ele>490.217</ele>
        <time>2022-10-10T13:02:19Z</time>
      </trkpt>
      <trkpt lat="47.17869" lon="6.12601">
        <ele>490.243</ele>
        <time>2022-10-10T13:02:20Z</time>
      </trkpt>
      <trkpt lat="47.17869" lon="6.12607">
        <ele>490.099</ele>
        <time>2022-10-10T13:02:21Z</time>
      </trkpt>
      <trkpt lat="47.17869" lon="6.12613">
        <ele>489.079</ele>
        <time>2022-10-10T13:02:22Z</time>
      </trkpt>
      <trkpt lat="47.17869" lon="6.12618">
        <ele>489.023</ele>
        <time>2022-10-10T13:02:23Z</time>
      </trkpt>
      <trkpt lat="47.17869" lon="6.12624">
        <ele>489.069</ele>
        <time>2022-10-10T13:02:24Z</time>
      </trkpt>
      <trkpt lat="47.17869" lon="6.12628">
        <ele>489.004</ele>
        <time>2022-10-10T13:02:25Z</time>
      </trkpt>
      <trkpt lat="47.17869" lon="6.12632">
        <ele>489.024</ele>
        <time>2022-10-10T13:02:26Z</time>
      </trkpt>
      <trkpt lat="47.17869" lon="6.12634">
        <ele>489.009</ele>
        <time>2022-10-10T13:02:27Z</time>
      </trkpt>
      <trkpt lat="47.17869" lon="6.12634">
        <ele>489.037</ele>
        <time>2022-10-10T13:02:28Z</time>
      </trkpt>
      <trkpt lat="47.17869" lon="6.12634">
        <ele>489.087</ele>
        <time>2022-10-10T13:02:29Z</time>
      </trkpt>
      <trkpt lat="47.17869" lon="6.12634">
        <ele>489.091</ele>
        <time>2022-10-10T13:02:30Z</time>
      </trkpt>
      <trkpt lat="47.17868" lon="6.12628">
        <ele>489.075</ele>
        <time>2022-10-10T13:02:38Z</time>
      </trkpt>
      <trkpt lat="47.17868" lon="6.12624">
        <ele>489.028</ele>
        <time>2022-10-10T13:02:40Z</time>
      </trkpt>
      <trkpt lat="47.17868" lon="6.12623">
        <ele>489.054</ele>
        <time>2022-10-10T13:02:41Z</time>
      </trkpt>
      <trkpt lat="47.17869" lon="6.12622">
        <ele>489.03</ele>
        <time>2022-10-10T13:02:42Z</time>
      </trkpt>
      <trkpt lat="47.1787" lon="6.12621">
        <ele>489.03</ele>
        <time>2022-10-10T13:02:43Z</time>
      </trkpt>
      <trkpt lat="47.17871" lon="6.12619">
        <ele>489.024</ele>
        <time>2022-10-10T13:02:44Z</time>
      </trkpt>
      <trkpt lat="47.17872" lon="6.12618">
        <ele>489.023</ele>
        <time>2022-10-10T13:02:45Z</time>
      </trkpt>
      <trkpt lat="47.17872" lon="6.12618">
        <ele>489.283</ele>
        <time>2022-10-10T13:02:46Z</time>
      </trkpt>
      <trkpt lat="47.17872" lon="6.12618">
        <ele>489.211</ele>
        <time>2022-10-10T13:02:47Z</time>
      </trkpt>
      <trkpt lat="47.17872" lon="6.12618">
        <ele>489.009</ele>
        <time>2022-10-10T13:02:48Z</time>
      </trkpt>
      <trkpt lat="47.17872" lon="6.12618">
        <ele>489.043</ele>
        <time>2022-10-10T13:02:49Z</time>
      </trkpt>
      <trkpt lat="47.17875" lon="6.12614">
        <ele>489.083</ele>
        <time>2022-10-10T13:02:53Z</time>
      </trkpt>
      <trkpt lat="47.17878" lon="6.12612">
        <ele>489.067</ele>
        <time>2022-10-10T13:02:55Z</time>
      </trkpt>
      <trkpt lat="47.17883" lon="6.12609">
        <ele>488.671</ele>
        <time>2022-10-10T13:02:57Z</time>
      </trkpt>
      <trkpt lat="47.17885" lon="6.12609">
        <ele>488.244</ele>
        <time>2022-10-10T13:02:58Z</time>
      </trkpt>
      <trkpt lat="47.17886" lon="6.12608">
        <ele>488.07</ele>
        <time>2022-10-10T13:02:59Z</time>
      </trkpt>
      <trkpt lat="47.17886" lon="6.12608">
        <ele>488.066</ele>
        <time>2022-10-10T13:03:00Z</time>
      </trkpt>
      <trkpt lat="47.17886" lon="6.12608">
        <ele>488.066</ele>
        <time>2022-10-10T13:03:01Z</time>
      </trkpt>
      <trkpt lat="47.17888" lon="6.12607">
        <ele>488.26</ele>
        <time>2022-10-10T13:03:06Z</time>
      </trkpt>
      <trkpt lat="47.17896" lon="6.12605">
        <ele>487.875</ele>
        <time>2022-10-10T13:03:13Z</time>
      </trkpt>
      <trkpt lat="47.179" lon="6.12606">
        <ele>487.628</ele>
        <time>2022-10-10T13:03:15Z</time>
      </trkpt>
      <trkpt lat="47.17903" lon="6.12606">
        <ele>487.62</ele>
        <time>2022-10-10T13:03:16Z</time>
      </trkpt>
      <trkpt lat="47.17905" lon="6.12606">
        <ele>487.609</ele>
        <time>2022-10-10T13:03:17Z</time>
      </trkpt>
      <trkpt lat="47.17912" lon="6.12607">
        <ele>487.228</ele>
        <time>2022-10-10T13:03:20Z</time>
      </trkpt>
      <trkpt lat="47.17914" lon="6.12607">
        <ele>487.088</ele>
        <time>2022-10-10T13:03:21Z</time>
      </trkpt>
      <trkpt lat="47.17927" lon="6.12607">
        <ele>486.882</ele>
        <time>2022-10-10T13:03:26Z</time>
      </trkpt>
      <trkpt lat="47.17949" lon="6.1261">
        <ele>485.646</ele>
        <time>2022-10-10T13:03:32Z</time>
      </trkpt>
      <trkpt lat="47.17952" lon="6.12611">
        <ele>485.659</ele>
        <time>2022-10-10T13:03:33Z</time>
      </trkpt>
      <trkpt lat="47.17956" lon="6.12613">
        <ele>485.475</ele>
        <time>2022-10-10T13:03:34Z</time>
      </trkpt>
      <trkpt lat="47.17959" lon="6.12614">
        <ele>485.441</ele>
        <time>2022-10-10T13:03:35Z</time>
      </trkpt>
      <trkpt lat="47.17962" lon="6.12615">
        <ele>485.471</ele>
        <time>2022-10-10T13:03:36Z</time>
      </trkpt>
      <trkpt lat="47.17965" lon="6.12614">
        <ele>485.425</ele>
        <time>2022-10-10T13:03:37Z</time>
      </trkpt>
      <trkpt lat="47.17968" lon="6.12612">
        <ele>485.424</ele>
        <time>2022-10-10T13:03:38Z</time>
      </trkpt>
      <trkpt lat="47.17971" lon="6.1261">
        <ele>485.404</ele>
        <time>2022-10-10T13:03:39Z</time>
      </trkpt>
      <trkpt lat="47.17974" lon="6.12609">
        <ele>485.414</ele>
        <time>2022-10-10T13:03:40Z</time>
      </trkpt>
      <trkpt lat="47.1798" lon="6.12604">
        <ele>485.809</ele>
        <time>2022-10-10T13:03:42Z</time>
      </trkpt>
      <trkpt lat="47.17984" lon="6.12602">
        <ele>485.813</ele>
        <time>2022-10-10T13:03:43Z</time>
      </trkpt>
      <trkpt lat="47.17987" lon="6.12599">
        <ele>486.283</ele>
        <time>2022-10-10T13:03:44Z</time>
      </trkpt>
      <trkpt lat="47.17989" lon="6.12597">
        <ele>486.647</ele>
        <time>2022-10-10T13:03:45Z</time>
      </trkpt>
      <trkpt lat="47.17992" lon="6.12595">
        <ele>487.041</ele>
        <time>2022-10-10T13:03:46Z</time>
      </trkpt>
      <trkpt lat="47.17994" lon="6.12593">
        <ele>487.054</ele>
        <time>2022-10-10T13:03:47Z</time>
      </trkpt>
      <trkpt lat="47.17996" lon="6.12591">
        <ele>487.26</ele>
        <time>2022-10-10T13:03:48Z</time>
      </trkpt>
      <trkpt lat="47.17998" lon="6.12591">
        <ele>487.236</ele>
        <time>2022-10-10T13:03:49Z</time>
      </trkpt>
      <trkpt lat="47.18003" lon="6.12588">
        <ele>487.226</ele>
        <time>2022-10-10T13:03:51Z</time>
      </trkpt>
      <trkpt lat="47.1801" lon="6.12583">
        <ele>487.05</ele>
        <time>2022-10-10T13:03:53Z</time>
      </trkpt>
      <trkpt lat="47.18015" lon="6.12578">
        <ele>487.058</ele>
        <time>2022-10-10T13:03:55Z</time>
      </trkpt>
      <trkpt lat="47.18018" lon="6.12575">
        <ele>487.052</ele>
        <time>2022-10-10T13:03:56Z</time>
      </trkpt>
      <trkpt lat="47.18021" lon="6.12573">
        <ele>487.217</ele>
        <time>2022-10-10T13:03:57Z</time>
      </trkpt>
      <trkpt lat="47.18028" lon="6.12563">
        <ele>487.609</ele>
        <time>2022-10-10T13:04:00Z</time>
      </trkpt>
      <trkpt lat="47.18031" lon="6.1256">
        <ele>488.026</ele>
        <time>2022-10-10T13:04:01Z</time>
      </trkpt>
      <trkpt lat="47.18033" lon="6.12557">
        <ele>488.036</ele>
        <time>2022-10-10T13:04:02Z</time>
      </trkpt>
      <trkpt lat="47.18042" lon="6.12546">
        <ele>488.29</ele>
        <time>2022-10-10T13:04:05Z</time>
      </trkpt>
      <trkpt lat="47.18048" lon="6.12539">
        <ele>488.674</ele>
        <time>2022-10-10T13:04:07Z</time>
      </trkpt>
      <trkpt lat="47.18054" lon="6.12533">
        <ele>489.287</ele>
        <time>2022-10-10T13:04:09Z</time>
      </trkpt>
      <trkpt lat="47.18056" lon="6.12529">
        <ele>489.633</ele>
        <time>2022-10-10T13:04:10Z</time>
      </trkpt>
      <trkpt lat="47.18058" lon="6.12525">
        <ele>489.629</ele>
        <time>2022-10-10T13:04:11Z</time>
      </trkpt>
      <trkpt lat="47.18061" lon="6.12521">
        <ele>489.619</ele>
        <time>2022-10-10T13:04:12Z</time>
      </trkpt>
      <trkpt lat="47.18063" lon="6.12517">
        <ele>490.073</ele>
        <time>2022-10-10T13:04:13Z</time>
      </trkpt>
      <trkpt lat="47.18066" lon="6.12514">
        <ele>490.098</ele>
        <time>2022-10-10T13:04:14Z</time>
      </trkpt>
      <trkpt lat="47.18068" lon="6.1251">
        <ele>490.415</ele>
        <time>2022-10-10T13:04:15Z</time>
      </trkpt>
      <trkpt lat="47.18071" lon="6.12506">
        <ele>490.426</ele>
        <time>2022-10-10T13:04:16Z</time>
      </trkpt>
      <trkpt lat="47.18072" lon="6.12501">
        <ele>490.809</ele>
        <time>2022-10-10T13:04:17Z</time>
      </trkpt>
      <trkpt lat="47.18074" lon="6.12497">
        <ele>491.04</ele>
        <time>2022-10-10T13:04:18Z</time>
      </trkpt>
      <trkpt lat="47.18076" lon="6.12493">
        <ele>491.28</ele>
        <time>2022-10-10T13:04:19Z</time>
      </trkpt>
      <trkpt lat="47.18077" lon="6.12488">
        <ele>491.234</ele>
        <time>2022-10-10T13:04:20Z</time>
      </trkpt>
      <trkpt lat="47.18079" lon="6.12484">
        <ele>491.818</ele>
        <time>2022-10-10T13:04:21Z</time>
      </trkpt>
      <trkpt lat="47.18081" lon="6.12479">
        <ele>492.081</ele>
        <time>2022-10-10T13:04:22Z</time>
      </trkpt>
      <trkpt lat="47.18082" lon="6.12475">
        <ele>492.287</ele>
        <time>2022-10-10T13:04:23Z</time>
      </trkpt>
      <trkpt lat="47.18084" lon="6.1247">
        <ele>492.423</ele>
        <time>2022-10-10T13:04:24Z</time>
      </trkpt>
      <trkpt lat="47.18085" lon="6.12466">
        <ele>492.873</ele>
        <time>2022-10-10T13:04:25Z</time>
      </trkpt>
      <trkpt lat="47.18086" lon="6.12463">
        <ele>492.847</ele>
        <time>2022-10-10T13:04:26Z</time>
      </trkpt>
      <trkpt lat="47.18087" lon="6.1246">
        <ele>493.012</ele>
        <time>2022-10-10T13:04:27Z</time>
      </trkpt>
      <trkpt lat="47.18088" lon="6.12456">
        <ele>493.032</ele>
        <time>2022-10-10T13:04:28Z</time>
      </trkpt>
      <trkpt lat="47.18088" lon="6.12453">
        <ele>493.405</ele>
        <time>2022-10-10T13:04:29Z</time>
      </trkpt>
      <trkpt lat="47.18088" lon="6.12449">
        <ele>493.409</ele>
        <time>2022-10-10T13:04:30Z</time>
      </trkpt>
      <trkpt lat="47.18089" lon="6.12447">
        <ele>493.622</ele>
        <time>2022-10-10T13:04:31Z</time>
      </trkpt>
      <trkpt lat="47.1809" lon="6.12444">
        <ele>493.632</ele>
        <time>2022-10-10T13:04:32Z</time>
      </trkpt>
      <trkpt lat="47.18091" lon="6.12442">
        <ele>493.636</ele>
        <time>2022-10-10T13:04:33Z</time>
      </trkpt>
      <trkpt lat="47.18092" lon="6.12441">
        <ele>493.64</ele>
        <time>2022-10-10T13:04:34Z</time>
      </trkpt>
      <trkpt lat="47.18093" lon="6.12439">
        <ele>493.693</ele>
        <time>2022-10-10T13:04:35Z</time>
      </trkpt>
      <trkpt lat="47.18095" lon="6.12436">
        <ele>493.689</ele>
        <time>2022-10-10T13:04:36Z</time>
      </trkpt>
      <trkpt lat="47.18098" lon="6.12434">
        <ele>493.235</ele>
        <time>2022-10-10T13:04:37Z</time>
      </trkpt>
      <trkpt lat="47.18101" lon="6.12431">
        <ele>493.035</ele>
        <time>2022-10-10T13:04:38Z</time>
      </trkpt>
      <trkpt lat="47.18104" lon="6.12428">
        <ele>492.069</ele>
        <time>2022-10-10T13:04:39Z</time>
      </trkpt>
      <trkpt lat="47.18107" lon="6.12425">
        <ele>491.284</ele>
        <time>2022-10-10T13:04:40Z</time>
      </trkpt>
      <trkpt lat="47.1811" lon="6.12422">
        <ele>490.807</ele>
        <time>2022-10-10T13:04:41Z</time>
      </trkpt>
      <trkpt lat="47.18112" lon="6.12419">
        <ele>490.417</ele>
        <time>2022-10-10T13:04:42Z</time>
      </trkpt>
      <trkpt lat="47.18115" lon="6.12415">
        <ele>490.009</ele>
        <time>2022-10-10T13:04:43Z</time>
      </trkpt>
      <trkpt lat="47.18121" lon="6.12409">
        <ele>489.279</ele>
        <time>2022-10-10T13:04:45Z</time>
      </trkpt>
      <trkpt lat="47.18124" lon="6.12406">
        <ele>488.449</ele>
        <time>2022-10-10T13:04:46Z</time>
      </trkpt>
      <trkpt lat="47.18126" lon="6.12404">
        <ele>488.453</ele>
        <time>2022-10-10T13:04:47Z</time>
      </trkpt>
      <trkpt lat="47.18129" lon="6.12403">
        <ele>488.427</ele>
        <time>2022-10-10T13:04:48Z</time>
      </trkpt>
      <trkpt lat="47.18132" lon="6.12403">
        <ele>488.04</ele>
        <time>2022-10-10T13:04:49Z</time>
      </trkpt>
      <trkpt lat="47.18136" lon="6.12403">
        <ele>487.666</ele>
        <time>2022-10-10T13:04:50Z</time>
      </trkpt>
      <trkpt lat="47.18139" lon="6.12403">
        <ele>487.022</ele>
        <time>2022-10-10T13:04:51Z</time>
      </trkpt>
      <trkpt lat="47.18145" lon="6.12402">
        <ele>485.822</ele>
        <time>2022-10-10T13:04:53Z</time>
      </trkpt>
      <trkpt lat="47.18152" lon="6.12399">
        <ele>484.626</ele>
        <time>2022-10-10T13:04:55Z</time>
      </trkpt>
      <trkpt lat="47.18158" lon="6.12393">
        <ele>483.236</ele>
        <time>2022-10-10T13:04:57Z</time>
      </trkpt>
      <trkpt lat="47.1816" lon="6.12389">
        <ele>482.817</ele>
        <time>2022-10-10T13:04:58Z</time>
      </trkpt>
      <trkpt lat="47.18162" lon="6.12384">
        <ele>482.418</ele>
        <time>2022-10-10T13:04:59Z</time>
      </trkpt>
      <trkpt lat="47.18164" lon="6.1238">
        <ele>482.409</ele>
        <time>2022-10-10T13:05:00Z</time>
      </trkpt>
      <trkpt lat="47.18167" lon="6.12376">
        <ele>481.814</ele>
        <time>2022-10-10T13:05:01Z</time>
      </trkpt>
      <trkpt lat="47.18169" lon="6.12372">
        <ele>481.444</ele>
        <time>2022-10-10T13:05:02Z</time>
      </trkpt>
      <trkpt lat="47.18171" lon="6.12369">
        <ele>480.688</ele>
        <time>2022-10-10T13:05:03Z</time>
      </trkpt>
      <trkpt lat="47.1818" lon="6.1236">
        <ele>480.272</ele>
        <time>2022-10-10T13:05:06Z</time>
      </trkpt>
      <trkpt lat="47.18186" lon="6.12355">
        <ele>479.425</ele>
        <time>2022-10-10T13:05:08Z</time>
      </trkpt>
      <trkpt lat="47.18193" lon="6.12348">
        <ele>479.481</ele>
        <time>2022-10-10T13:05:10Z</time>
      </trkpt>
      <trkpt lat="47.18196" lon="6.12345">
        <ele>479.467</ele>
        <time>2022-10-10T13:05:11Z</time>
      </trkpt>
      <trkpt lat="47.18199" lon="6.12343">
        <ele>479.467</ele>
        <time>2022-10-10T13:05:12Z</time>
      </trkpt>
      <trkpt lat="47.18202" lon="6.12341">
        <ele>479.471</ele>
        <time>2022-10-10T13:05:13Z</time>
      </trkpt>
      <trkpt lat="47.18215" lon="6.12337">
        <ele>479.899</ele>
        <time>2022-10-10T13:05:17Z</time>
      </trkpt>
      <trkpt lat="47.18219" lon="6.12336">
        <ele>480.007</ele>
        <time>2022-10-10T13:05:18Z</time>
      </trkpt>
      <trkpt lat="47.18222" lon="6.12335">
        <ele>480.827</ele>
        <time>2022-10-10T13:05:19Z</time>
      </trkpt>
      <trkpt lat="47.18225" lon="6.12335">
        <ele>481.209</ele>
        <time>2022-10-10T13:05:20Z</time>
      </trkpt>
      <trkpt lat="47.18229" lon="6.12334">
        <ele>481.67</ele>
        <time>2022-10-10T13:05:21Z</time>
      </trkpt>
      <trkpt lat="47.18232" lon="6.12333">
        <ele>482.45</ele>
        <time>2022-10-10T13:05:22Z</time>
      </trkpt>
      <trkpt lat="47.18234" lon="6.12333">
        <ele>483.224</ele>
        <time>2022-10-10T13:05:23Z</time>
      </trkpt>
      <trkpt lat="47.18237" lon="6.12332">
        <ele>483.638</ele>
        <time>2022-10-10T13:05:24Z</time>
      </trkpt>
      <trkpt lat="47.1824" lon="6.12331">
        <ele>483.891</ele>
        <time>2022-10-10T13:05:25Z</time>
      </trkpt>
      <trkpt lat="47.1825" lon="6.12328">
        <ele>484.477</ele>
        <time>2022-10-10T13:05:28Z</time>
      </trkpt>
      <trkpt lat="47.18254" lon="6.12326">
        <ele>484.623</ele>
        <time>2022-10-10T13:05:29Z</time>
      </trkpt>
      <trkpt lat="47.18257" lon="6.12323">
        <ele>484.653</ele>
        <time>2022-10-10T13:05:30Z</time>
      </trkpt>
      <trkpt lat="47.1826" lon="6.1232">
        <ele>484.637</ele>
        <time>2022-10-10T13:05:31Z</time>
      </trkpt>
      <trkpt lat="47.18263" lon="6.12317">
        <ele>485.251</ele>
        <time>2022-10-10T13:05:32Z</time>
      </trkpt>
      <trkpt lat="47.18266" lon="6.12314">
        <ele>485.601</ele>
        <time>2022-10-10T13:05:33Z</time>
      </trkpt>
      <trkpt lat="47.18269" lon="6.12312">
        <ele>486.411</ele>
        <time>2022-10-10T13:05:34Z</time>
      </trkpt>
      <trkpt lat="47.18272" lon="6.1231">
        <ele>487.009</ele>
        <time>2022-10-10T13:05:35Z</time>
      </trkpt>
      <trkpt lat="47.18275" lon="6.12309">
        <ele>487.276</ele>
        <time>2022-10-10T13:05:36Z</time>
      </trkpt>
      <trkpt lat="47.18279" lon="6.12309">
        <ele>487.266</ele>
        <time>2022-10-10T13:05:37Z</time>
      </trkpt>
      <trkpt lat="47.18283" lon="6.1231">
        <ele>487.88</ele>
        <time>2022-10-10T13:05:38Z</time>
      </trkpt>
      <trkpt lat="47.18286" lon="6.12311">
        <ele>488.054</ele>
        <time>2022-10-10T13:05:39Z</time>
      </trkpt>
      <trkpt lat="47.1829" lon="6.12312">
        <ele>488.237</ele>
        <time>2022-10-10T13:05:40Z</time>
      </trkpt>
      <trkpt lat="47.18293" lon="6.12312">
        <ele>489.073</ele>
        <time>2022-10-10T13:05:41Z</time>
      </trkpt>
      <trkpt lat="47.18296" lon="6.12313">
        <ele>489.279</ele>
        <time>2022-10-10T13:05:42Z</time>
      </trkpt>
      <trkpt lat="47.18299" lon="6.12314">
        <ele>489.419</ele>
        <time>2022-10-10T13:05:43Z</time>
      </trkpt>
      <trkpt lat="47.18303" lon="6.12316">
        <ele>490.493</ele>
        <time>2022-10-10T13:05:44Z</time>
      </trkpt>
      <trkpt lat="47.18306" lon="6.12317">
        <ele>490.418</ele>
        <time>2022-10-10T13:05:45Z</time>
      </trkpt>
      <trkpt lat="47.18309" lon="6.1232">
        <ele>491.698</ele>
        <time>2022-10-10T13:05:46Z</time>
      </trkpt>
      <trkpt lat="47.18312" lon="6.12322">
        <ele>491.817</ele>
        <time>2022-10-10T13:05:47Z</time>
      </trkpt>
      <trkpt lat="47.18313" lon="6.12325">
        <ele>492.009</ele>
        <time>2022-10-10T13:05:48Z</time>
      </trkpt>
      <trkpt lat="47.18315" lon="6.12328">
        <ele>492.272</ele>
        <time>2022-10-10T13:05:49Z</time>
      </trkpt>
      <trkpt lat="47.18317" lon="6.12333">
        <ele>492.242</ele>
        <time>2022-10-10T13:05:50Z</time>
      </trkpt>
      <trkpt lat="47.18319" lon="6.12338">
        <ele>492.416</ele>
        <time>2022-10-10T13:05:51Z</time>
      </trkpt>
      <trkpt lat="47.18321" lon="6.12343">
        <ele>492.46</ele>
        <time>2022-10-10T13:05:52Z</time>
      </trkpt>
      <trkpt lat="47.18322" lon="6.12348">
        <ele>493.063</ele>
        <time>2022-10-10T13:05:53Z</time>
      </trkpt>
      <trkpt lat="47.18325" lon="6.12353">
        <ele>493.489</ele>
        <time>2022-10-10T13:05:54Z</time>
      </trkpt>
      <trkpt lat="47.18327" lon="6.12358">
        <ele>493.425</ele>
        <time>2022-10-10T13:05:55Z</time>
      </trkpt>
      <trkpt lat="47.18328" lon="6.12363">
        <ele>493.475</ele>
        <time>2022-10-10T13:05:56Z</time>
      </trkpt>
      <trkpt lat="47.1833" lon="6.1237">
        <ele>493.439</ele>
        <time>2022-10-10T13:05:57Z</time>
      </trkpt>
      <trkpt lat="47.18331" lon="6.12375">
        <ele>493.652</ele>
        <time>2022-10-10T13:05:58Z</time>
      </trkpt>
      <trkpt lat="47.18332" lon="6.1238">
        <ele>493.653</ele>
        <time>2022-10-10T13:05:59Z</time>
      </trkpt>
      <trkpt lat="47.18334" lon="6.12387">
        <ele>493.608</ele>
        <time>2022-10-10T13:06:00Z</time>
      </trkpt>
      <trkpt lat="47.18336" lon="6.12393">
        <ele>494.009</ele>
        <time>2022-10-10T13:06:01Z</time>
      </trkpt>
      <trkpt lat="47.18337" lon="6.12398">
        <ele>494.436</ele>
        <time>2022-10-10T13:06:02Z</time>
      </trkpt>
      <trkpt lat="47.18338" lon="6.12404">
        <ele>494.446</ele>
        <time>2022-10-10T13:06:03Z</time>
      </trkpt>
      <trkpt lat="47.1834" lon="6.1241">
        <ele>494.42</ele>
        <time>2022-10-10T13:06:04Z</time>
      </trkpt>
      <trkpt lat="47.18341" lon="6.12415">
        <ele>494.434</ele>
        <time>2022-10-10T13:06:05Z</time>
      </trkpt>
      <trkpt lat="47.18342" lon="6.12419">
        <ele>494.817</ele>
        <time>2022-10-10T13:06:06Z</time>
      </trkpt>
      <trkpt lat="47.18345" lon="6.12425">
        <ele>495.283</ele>
        <time>2022-10-10T13:06:07Z</time>
      </trkpt>
      <trkpt lat="47.18347" lon="6.12429">
        <ele>495.259</ele>
        <time>2022-10-10T13:06:08Z</time>
      </trkpt>
      <trkpt lat="47.18349" lon="6.12433">
        <ele>495.469</ele>
        <time>2022-10-10T13:06:09Z</time>
      </trkpt>
      <trkpt lat="47.18352" lon="6.12436">
        <ele>495.663</ele>
        <time>2022-10-10T13:06:10Z</time>
      </trkpt>
      <trkpt lat="47.18355" lon="6.12438">
        <ele>496.069</ele>
        <time>2022-10-10T13:06:11Z</time>
      </trkpt>
      <trkpt lat="47.18358" lon="6.1244">
        <ele>496.204</ele>
        <time>2022-10-10T13:06:12Z</time>
      </trkpt>
      <trkpt lat="47.1836" lon="6.12444">
        <ele>496.424</ele>
        <time>2022-10-10T13:06:13Z</time>
      </trkpt>
      <trkpt lat="47.18361" lon="6.12447">
        <ele>496.409</ele>
        <time>2022-10-10T13:06:14Z</time>
      </trkpt>
      <trkpt lat="47.18363" lon="6.12451">
        <ele>496.667</ele>
        <time>2022-10-10T13:06:15Z</time>
      </trkpt>
      <trkpt lat="47.18365" lon="6.12456">
        <ele>496.877</ele>
        <time>2022-10-10T13:06:16Z</time>
      </trkpt>
      <trkpt lat="47.18368" lon="6.1246">
        <ele>497.051</ele>
        <time>2022-10-10T13:06:17Z</time>
      </trkpt>
      <trkpt lat="47.18371" lon="6.12462">
        <ele>497.075</ele>
        <time>2022-10-10T13:06:18Z</time>
      </trkpt>
      <trkpt lat="47.18374" lon="6.12465">
        <ele>497.058</ele>
        <time>2022-10-10T13:06:19Z</time>
      </trkpt>
      <trkpt lat="47.18377" lon="6.12467">
        <ele>497.074</ele>
        <time>2022-10-10T13:06:20Z</time>
      </trkpt>
      <trkpt lat="47.1838" lon="6.1247">
        <ele>497.84</ele>
        <time>2022-10-10T13:06:21Z</time>
      </trkpt>
      <trkpt lat="47.18383" lon="6.12471">
        <ele>497.82</ele>
        <time>2022-10-10T13:06:22Z</time>
      </trkpt>
      <trkpt lat="47.18385" lon="6.12471">
        <ele>497.844</ele>
        <time>2022-10-10T13:06:23Z</time>
      </trkpt>
      <trkpt lat="47.18388" lon="6.12473">
        <ele>498.033</ele>
        <time>2022-10-10T13:06:24Z</time>
      </trkpt>
      <trkpt lat="47.1839" lon="6.12476">
        <ele>498.223</ele>
        <time>2022-10-10T13:06:25Z</time>
      </trkpt>
      <trkpt lat="47.18392" lon="6.12479">
        <ele>498.215</ele>
        <time>2022-10-10T13:06:26Z</time>
      </trkpt>
      <trkpt lat="47.18394" lon="6.12483">
        <ele>498.409</ele>
        <time>2022-10-10T13:06:27Z</time>
      </trkpt>
      <trkpt lat="47.18397" lon="6.12486">
        <ele>498.484</ele>
        <time>2022-10-10T13:06:28Z</time>
      </trkpt>
      <trkpt lat="47.184" lon="6.12489">
        <ele>498.654</ele>
        <time>2022-10-10T13:06:29Z</time>
      </trkpt>
      <trkpt lat="47.18403" lon="6.12491">
        <ele>499.058</ele>
        <time>2022-10-10T13:06:30Z</time>
      </trkpt>
      <trkpt lat="47.18406" lon="6.12493">
        <ele>499.022</ele>
        <time>2022-10-10T13:06:31Z</time>
      </trkpt>
      <trkpt lat="47.18409" lon="6.12495">
        <ele>499.225</ele>
        <time>2022-10-10T13:06:32Z</time>
      </trkpt>
      <trkpt lat="47.18413" lon="6.12497">
        <ele>499.681</ele>
        <time>2022-10-10T13:06:33Z</time>
      </trkpt>
      <trkpt lat="47.18416" lon="6.125">
        <ele>499.687</ele>
        <time>2022-10-10T13:06:34Z</time>
      </trkpt>
      <trkpt lat="47.18419" lon="6.12504">
        <ele>500.027</ele>
        <time>2022-10-10T13:06:35Z</time>
      </trkpt>
      <trkpt lat="47.18422" lon="6.12507">
        <ele>500.271</ele>
        <time>2022-10-10T13:06:36Z</time>
      </trkpt>
      <trkpt lat="47.18424" lon="6.1251">
        <ele>500.481</ele>
        <time>2022-10-10T13:06:37Z</time>
      </trkpt>
      <trkpt lat="47.18427" lon="6.12514">
        <ele>501.061</ele>
        <time>2022-10-10T13:06:38Z</time>
      </trkpt>
      <trkpt lat="47.18429" lon="6.12518">
        <ele>501.017</ele>
        <time>2022-10-10T13:06:39Z</time>
      </trkpt>
      <trkpt lat="47.18431" lon="6.12522">
        <ele>501.009</ele>
        <time>2022-10-10T13:06:40Z</time>
      </trkpt>
      <trkpt lat="47.18433" lon="6.12528">
        <ele>501.239</ele>
        <time>2022-10-10T13:06:41Z</time>
      </trkpt>
      <trkpt lat="47.18435" lon="6.12532">
        <ele>501.429</ele>
        <time>2022-10-10T13:06:42Z</time>
      </trkpt>
      <trkpt lat="47.18436" lon="6.12537">
        <ele>501.833</ele>
        <time>2022-10-10T13:06:43Z</time>
      </trkpt>
      <trkpt lat="47.18437" lon="6.12542">
        <ele>502.237</ele>
        <time>2022-10-10T13:06:44Z</time>
      </trkpt>
      <trkpt lat="47.18438" lon="6.12546">
        <ele>502.42</ele>
        <time>2022-10-10T13:06:45Z</time>
      </trkpt>
      <trkpt lat="47.1844" lon="6.12553">
        <ele>502.696</ele>
        <time>2022-10-10T13:06:46Z</time>
      </trkpt>
      <trkpt lat="47.18441" lon="6.12558">
        <ele>502.852</ele>
        <time>2022-10-10T13:06:47Z</time>
      </trkpt>
      <trkpt lat="47.18442" lon="6.12563">
        <ele>503.082</ele>
        <time>2022-10-10T13:06:48Z</time>
      </trkpt>
      <trkpt lat="47.18444" lon="6.12569">
        <ele>503.026</ele>
        <time>2022-10-10T13:06:49Z</time>
      </trkpt>
      <trkpt lat="47.18446" lon="6.12574">
        <ele>503.037</ele>
        <time>2022-10-10T13:06:50Z</time>
      </trkpt>
      <trkpt lat="47.18448" lon="6.12579">
        <ele>503.249</ele>
        <time>2022-10-10T13:06:51Z</time>
      </trkpt>
      <trkpt lat="47.1845" lon="6.12582">
        <ele>503.013</ele>
        <time>2022-10-10T13:06:52Z</time>
      </trkpt>
      <trkpt lat="47.18453" lon="6.12585">
        <ele>503.209</ele>
        <time>2022-10-10T13:06:53Z</time>
      </trkpt>
      <trkpt lat="47.18457" lon="6.12588">
        <ele>503.064</ele>
        <time>2022-10-10T13:06:54Z</time>
      </trkpt>
      <trkpt lat="47.18461" lon="6.1259">
        <ele>503.074</ele>
        <time>2022-10-10T13:06:55Z</time>
      </trkpt>
      <trkpt lat="47.18465" lon="6.12592">
        <ele>503.078</ele>
        <time>2022-10-10T13:06:56Z</time>
      </trkpt>
      <trkpt lat="47.18469" lon="6.12594">
        <ele>502.662</ele>
        <time>2022-10-10T13:06:57Z</time>
      </trkpt>
      <trkpt lat="47.18474" lon="6.12596">
        <ele>501.235</ele>
        <time>2022-10-10T13:06:58Z</time>
      </trkpt>
      <trkpt lat="47.18478" lon="6.12598">
        <ele>501.271</ele>
        <time>2022-10-10T13:06:59Z</time>
      </trkpt>
      <trkpt lat="47.18481" lon="6.12599">
        <ele>501.057</ele>
        <time>2022-10-10T13:07:00Z</time>
      </trkpt>
      <trkpt lat="47.18483" lon="6.12601">
        <ele>501.037</ele>
        <time>2022-10-10T13:07:01Z</time>
      </trkpt>
      <trkpt lat="47.18485" lon="6.12602">
        <ele>501.061</ele>
        <time>2022-10-10T13:07:02Z</time>
      </trkpt>
      <trkpt lat="47.18485" lon="6.12603">
        <ele>501.083</ele>
        <time>2022-10-10T13:07:03Z</time>
      </trkpt>
      <trkpt lat="47.18485" lon="6.12604">
        <ele>501.025</ele>
        <time>2022-10-10T13:07:04Z</time>
      </trkpt>
      <trkpt lat="47.18485" lon="6.12604">
        <ele>501.017</ele>
        <time>2022-10-10T13:07:05Z</time>
      </trkpt>
      <trkpt lat="47.18485" lon="6.12604">
        <ele>501.009</ele>
        <time>2022-10-10T13:07:06Z</time>
      </trkpt>
      <trkpt lat="47.18486" lon="6.12608">
        <ele>500.869</ele>
        <time>2022-10-10T13:07:12Z</time>
      </trkpt>
      <trkpt lat="47.18488" lon="6.12621">
        <ele>500.869</ele>
        <time>2022-10-10T13:07:15Z</time>
      </trkpt>
      <trkpt lat="47.18489" lon="6.12626">
        <ele>500.843</ele>
        <time>2022-10-10T13:07:16Z</time>
      </trkpt>
      <trkpt lat="47.18492" lon="6.1265">
        <ele>500.427</ele>
        <time>2022-10-10T13:07:21Z</time>
      </trkpt>
      <trkpt lat="47.18493" lon="6.12655">
        <ele>500.25</ele>
        <time>2022-10-10T13:07:22Z</time>
      </trkpt>
      <trkpt lat="47.18494" lon="6.1266">
        <ele>500.076</ele>
        <time>2022-10-10T13:07:23Z</time>
      </trkpt>
      <trkpt lat="47.18495" lon="6.12664">
        <ele>499.842</ele>
        <time>2022-10-10T13:07:24Z</time>
      </trkpt>
      <trkpt lat="47.18496" lon="6.12668">
        <ele>499.672</ele>
        <time>2022-10-10T13:07:25Z</time>
      </trkpt>
      <trkpt lat="47.18496" lon="6.12671">
        <ele>499.666</ele>
        <time>2022-10-10T13:07:26Z</time>
      </trkpt>
      <trkpt lat="47.18497" lon="6.12672">
        <ele>499.699</ele>
        <time>2022-10-10T13:07:27Z</time>
      </trkpt>
      <trkpt lat="47.18497" lon="6.12672">
        <ele>499.607</ele>
        <time>2022-10-10T13:07:28Z</time>
      </trkpt>
      <trkpt lat="47.18497" lon="6.12672">
        <ele>499.627</ele>
        <time>2022-10-10T13:07:29Z</time>
      </trkpt>
      <trkpt lat="47.18497" lon="6.12672">
        <ele>499.609</ele>
        <time>2022-10-10T13:07:30Z</time>
      </trkpt>
      <trkpt lat="47.18497" lon="6.12673">
        <ele>499.69</ele>
        <time>2022-10-10T13:07:31Z</time>
      </trkpt>
      <trkpt lat="47.18499" lon="6.12676">
        <ele>499.27</ele>
        <time>2022-10-10T13:07:33Z</time>
      </trkpt>
      <trkpt lat="47.18502" lon="6.12673">
        <ele>499.084</ele>
        <time>2022-10-10T13:07:35Z</time>
      </trkpt>
      <trkpt lat="47.18512" lon="6.12662">
        <ele>498.278</ele>
        <time>2022-10-10T13:07:41Z</time>
      </trkpt>
      <trkpt lat="47.18514" lon="6.12659">
        <ele>498.041</ele>
        <time>2022-10-10T13:07:42Z</time>
      </trkpt>
      <trkpt lat="47.18516" lon="6.12656">
        <ele>497.847</ele>
        <time>2022-10-10T13:07:43Z</time>
      </trkpt>
      <trkpt lat="47.18518" lon="6.12655">
        <ele>497.893</ele>
        <time>2022-10-10T13:07:44Z</time>
      </trkpt>
      <trkpt lat="47.18521" lon="6.12654">
        <ele>497.843</ele>
        <time>2022-10-10T13:07:45Z</time>
      </trkpt>
      <trkpt lat="47.18525" lon="6.12653">
        <ele>497.287</ele>
        <time>2022-10-10T13:07:46Z</time>
      </trkpt>
      <trkpt lat="47.18528" lon="6.12653">
        <ele>497.012</ele>
        <time>2022-10-10T13:07:47Z</time>
      </trkpt>
      <trkpt lat="47.18535" lon="6.12653">
        <ele>496.832</ele>
        <time>2022-10-10T13:07:49Z</time>
      </trkpt>
      <trkpt lat="47.18542" lon="6.12652">
        <ele>497.005</ele>
        <time>2022-10-10T13:07:51Z</time>
      </trkpt>
      <trkpt lat="47.18545" lon="6.12651">
        <ele>497.009</ele>
        <time>2022-10-10T13:07:52Z</time>
      </trkpt>
      <trkpt lat="47.1856" lon="6.12652">
        <ele>497.822</ele>
        <time>2022-10-10T13:07:56Z</time>
      </trkpt>
      <trkpt lat="47.18563" lon="6.12652">
        <ele>498.062</ele>
        <time>2022-10-10T13:07:57Z</time>
      </trkpt>
      <trkpt lat="47.18567" lon="6.12652">
        <ele>497.886</ele>
        <time>2022-10-10T13:07:58Z</time>
      </trkpt>
      <trkpt lat="47.1857" lon="6.12652">
        <ele>498.08</ele>
        <time>2022-10-10T13:07:59Z</time>
      </trkpt>
      <trkpt lat="47.18574" lon="6.12653">
        <ele>498.243</ele>
        <time>2022-10-10T13:08:00Z</time>
      </trkpt>
      <trkpt lat="47.1858" lon="6.12657">
        <ele>498.449</ele>
        <time>2022-10-10T13:08:02Z</time>
      </trkpt>
      <trkpt lat="47.18582" lon="6.12661">
        <ele>498.435</ele>
        <time>2022-10-10T13:08:03Z</time>
      </trkpt>
      <trkpt lat="47.18584" lon="6.12665">
        <ele>498.455</ele>
        <time>2022-10-10T13:08:04Z</time>
      </trkpt>
      <trkpt lat="47.18587" lon="6.12672">
        <ele>498.299</ele>
        <time>2022-10-10T13:08:06Z</time>
      </trkpt>
      <trkpt lat="47.18589" lon="6.12675">
        <ele>497.855</ele>
        <time>2022-10-10T13:08:07Z</time>
      </trkpt>
      <trkpt lat="47.18591" lon="6.12683">
        <ele>497.807</ele>
        <time>2022-10-10T13:08:09Z</time>
      </trkpt>
      <trkpt lat="47.18592" lon="6.12687">
        <ele>497.617</ele>
        <time>2022-10-10T13:08:10Z</time>
      </trkpt>
      <trkpt lat="47.18593" lon="6.1269">
        <ele>497.609</ele>
        <time>2022-10-10T13:08:11Z</time>
      </trkpt>
      <trkpt lat="47.18594" lon="6.12706">
        <ele>497.066</ele>
        <time>2022-10-10T13:08:14Z</time>
      </trkpt>
      <trkpt lat="47.18595" lon="6.12717">
        <ele>496.876</ele>
        <time>2022-10-10T13:08:16Z</time>
      </trkpt>
      <trkpt lat="47.18595" lon="6.12723">
        <ele>495.82</ele>
        <time>2022-10-10T13:08:17Z</time>
      </trkpt>
      <trkpt lat="47.18595" lon="6.12728">
        <ele>495.624</ele>
        <time>2022-10-10T13:08:18Z</time>
      </trkpt>
      <trkpt lat="47.18594" lon="6.12742">
        <ele>494.657</ele>
        <time>2022-10-10T13:08:20Z</time>
      </trkpt>
      <trkpt lat="47.18595" lon="6.12748">
        <ele>494.423</ele>
        <time>2022-10-10T13:08:21Z</time>
      </trkpt>
      <trkpt lat="47.18596" lon="6.12755">
        <ele>494.239</ele>
        <time>2022-10-10T13:08:22Z</time>
      </trkpt>
      <trkpt lat="47.18596" lon="6.1276">
        <ele>494.089</ele>
        <time>2022-10-10T13:08:23Z</time>
      </trkpt>
      <trkpt lat="47.18597" lon="6.12765">
        <ele>493.843</ele>
        <time>2022-10-10T13:08:24Z</time>
      </trkpt>
      <trkpt lat="47.18597" lon="6.1277">
        <ele>493.626</ele>
        <time>2022-10-10T13:08:25Z</time>
      </trkpt>
      <trkpt lat="47.18597" lon="6.12774">
        <ele>493.647</ele>
        <time>2022-10-10T13:08:26Z</time>
      </trkpt>
      <trkpt lat="47.18598" lon="6.12778">
        <ele>493.211</ele>
        <time>2022-10-10T13:08:27Z</time>
      </trkpt>
      <trkpt lat="47.18599" lon="6.1278">
        <ele>493.209</ele>
        <time>2022-10-10T13:08:28Z</time>
      </trkpt>
      <trkpt lat="47.18601" lon="6.12781">
        <ele>493.283</ele>
        <time>2022-10-10T13:08:29Z</time>
      </trkpt>
      <trkpt lat="47.1861" lon="6.12781">
        <ele>493.283</ele>
        <time>2022-10-10T13:08:32Z</time>
      </trkpt>
      <trkpt lat="47.18614" lon="6.12779">
        <ele>493.237</ele>
        <time>2022-10-10T13:08:33Z</time>
      </trkpt>
      <trkpt lat="47.18617" lon="6.12778">
        <ele>493.271</ele>
        <time>2022-10-10T13:08:34Z</time>
      </trkpt>
      <trkpt lat="47.18621" lon="6.12777">
        <ele>493.234</ele>
        <time>2022-10-10T13:08:35Z</time>
      </trkpt>
      <trkpt lat="47.18639" lon="6.12775">
        <ele>491.88</ele>
        <time>2022-10-10T13:08:39Z</time>
      </trkpt>
      <trkpt lat="47.18649" lon="6.12773">
        <ele>490.896</ele>
        <time>2022-10-10T13:08:41Z</time>
      </trkpt>
      <trkpt lat="47.18666" lon="6.12769">
        <ele>489.826</ele>
        <time>2022-10-10T13:08:44Z</time>
      </trkpt>
      <trkpt lat="47.18671" lon="6.1277">
        <ele>489.87</ele>
        <time>2022-10-10T13:08:45Z</time>
      </trkpt>
      <trkpt lat="47.18676" lon="6.12773">
        <ele>489.637</ele>
        <time>2022-10-10T13:08:46Z</time>
      </trkpt>
      <trkpt lat="47.18682" lon="6.12772">
        <ele>488.249</ele>
        <time>2022-10-10T13:08:47Z</time>
      </trkpt>
      <trkpt lat="47.18686" lon="6.12771">
        <ele>487.213</ele>
        <time>2022-10-10T13:08:48Z</time>
      </trkpt>
      <trkpt lat="47.18691" lon="6.12769">
        <ele>487.209</ele>
        <time>2022-10-10T13:08:49Z</time>
      </trkpt>
      <trkpt lat="47.18696" lon="6.12768">
        <ele>486.884</ele>
        <time>2022-10-10T13:08:50Z</time>
      </trkpt>
      <trkpt lat="47.18701" lon="6.12767">
        <ele>485.874</ele>
        <time>2022-10-10T13:08:51Z</time>
      </trkpt>
      <trkpt lat="47.18705" lon="6.12765">
        <ele>484.828</ele>
        <time>2022-10-10T13:08:52Z</time>
      </trkpt>
      <trkpt lat="47.18709" lon="6.12764">
        <ele>484.222</ele>
        <time>2022-10-10T13:08:53Z</time>
      </trkpt>
      <trkpt lat="47.18713" lon="6.12764">
        <ele>483.865</ele>
        <time>2022-10-10T13:08:54Z</time>
      </trkpt>
      <trkpt lat="47.18717" lon="6.12763">
        <ele>483.641</ele>
        <time>2022-10-10T13:08:55Z</time>
      </trkpt>
      <trkpt lat="47.18721" lon="6.12763">
        <ele>481.877</ele>
        <time>2022-10-10T13:08:56Z</time>
      </trkpt>
      <trkpt lat="47.18725" lon="6.12762">
        <ele>481.257</ele>
        <time>2022-10-10T13:08:57Z</time>
      </trkpt>
      <trkpt lat="47.18729" lon="6.12762">
        <ele>480.071</ele>
        <time>2022-10-10T13:08:58Z</time>
      </trkpt>
      <trkpt lat="47.18732" lon="6.12762">
        <ele>478.653</ele>
        <time>2022-10-10T13:08:59Z</time>
      </trkpt>
      <trkpt lat="47.18739" lon="6.1276">
        <ele>477.804</ele>
        <time>2022-10-10T13:09:01Z</time>
      </trkpt>
      <trkpt lat="47.18743" lon="6.12758">
        <ele>477.014</ele>
        <time>2022-10-10T13:09:02Z</time>
      </trkpt>
      <trkpt lat="47.18747" lon="6.12755">
        <ele>475.209</ele>
        <time>2022-10-10T13:09:03Z</time>
      </trkpt>
      <trkpt lat="47.18752" lon="6.12753">
        <ele>474.686</ele>
        <time>2022-10-10T13:09:04Z</time>
      </trkpt>
      <trkpt lat="47.18756" lon="6.12752">
        <ele>474.616</ele>
        <time>2022-10-10T13:09:05Z</time>
      </trkpt>
      <trkpt lat="47.1876" lon="6.12752">
        <ele>474.08</ele>
        <time>2022-10-10T13:09:06Z</time>
      </trkpt>
      <trkpt lat="47.18763" lon="6.12751">
        <ele>473.854</ele>
        <time>2022-10-10T13:09:07Z</time>
      </trkpt>
      <trkpt lat="47.1877" lon="6.12748">
        <ele>471.437</ele>
        <time>2022-10-10T13:09:09Z</time>
      </trkpt>
      <trkpt lat="47.18773" lon="6.12746">
        <ele>470.233</ele>
        <time>2022-10-10T13:09:10Z</time>
      </trkpt>
      <trkpt lat="47.18777" lon="6.12745">
        <ele>470.079</ele>
        <time>2022-10-10T13:09:11Z</time>
      </trkpt>
      <trkpt lat="47.18779" lon="6.12744">
        <ele>469.449</ele>
        <time>2022-10-10T13:09:12Z</time>
      </trkpt>
      <trkpt lat="47.18782" lon="6.12744">
        <ele>469.223</ele>
        <time>2022-10-10T13:09:13Z</time>
      </trkpt>
      <trkpt lat="47.18785" lon="6.12743">
        <ele>467.243</ele>
        <time>2022-10-10T13:09:14Z</time>
      </trkpt>
      <trkpt lat="47.18788" lon="6.12741">
        <ele>467.064</ele>
        <time>2022-10-10T13:09:15Z</time>
      </trkpt>
      <trkpt lat="47.18793" lon="6.12738">
        <ele>465.61</ele>
        <time>2022-10-10T13:09:16Z</time>
      </trkpt>
      <trkpt lat="47.18797" lon="6.12735">
        <ele>464.409</ele>
        <time>2022-10-10T13:09:17Z</time>
      </trkpt>
      <trkpt lat="47.18802" lon="6.12733">
        <ele>463.835</ele>
        <time>2022-10-10T13:09:18Z</time>
      </trkpt>
      <trkpt lat="47.18806" lon="6.1273">
        <ele>462.655</ele>
        <time>2022-10-10T13:09:19Z</time>
      </trkpt>
      <trkpt lat="47.18811" lon="6.12728">
        <ele>460.069</ele>
        <time>2022-10-10T13:09:20Z</time>
      </trkpt>
      <trkpt lat="47.18826" lon="6.12722">
        <ele>458.083</ele>
        <time>2022-10-10T13:09:23Z</time>
      </trkpt>
      <trkpt lat="47.18831" lon="6.1272">
        <ele>457.456</ele>
        <time>2022-10-10T13:09:24Z</time>
      </trkpt>
      <trkpt lat="47.18836" lon="6.12717">
        <ele>457.052</ele>
        <time>2022-10-10T13:09:25Z</time>
      </trkpt>
      <trkpt lat="47.1884" lon="6.12715">
        <ele>455.438</ele>
        <time>2022-10-10T13:09:26Z</time>
      </trkpt>
      <trkpt lat="47.18849" lon="6.12712">
        <ele>455.018</ele>
        <time>2022-10-10T13:09:28Z</time>
      </trkpt>
      <trkpt lat="47.18854" lon="6.1271">
        <ele>453.062</ele>
        <time>2022-10-10T13:09:29Z</time>
      </trkpt>
      <trkpt lat="47.18859" lon="6.12709">
        <ele>452.466</ele>
        <time>2022-10-10T13:09:30Z</time>
      </trkpt>
      <trkpt lat="47.18863" lon="6.12707">
        <ele>451.829</ele>
        <time>2022-10-10T13:09:31Z</time>
      </trkpt>
      <trkpt lat="47.18876" lon="6.12702">
        <ele>450.221</ele>
        <time>2022-10-10T13:09:34Z</time>
      </trkpt>
      <trkpt lat="47.1888" lon="6.127">
        <ele>449.809</ele>
        <time>2022-10-10T13:09:35Z</time>
      </trkpt>
      <trkpt lat="47.1889" lon="6.12698">
        <ele>448.897</ele>
        <time>2022-10-10T13:09:37Z</time>
      </trkpt>
      <trkpt lat="47.18906" lon="6.12691">
        <ele>448.077</ele>
        <time>2022-10-10T13:09:40Z</time>
      </trkpt>
      <trkpt lat="47.18912" lon="6.12689">
        <ele>448.011</ele>
        <time>2022-10-10T13:09:41Z</time>
      </trkpt>
      <trkpt lat="47.18917" lon="6.12687">
        <ele>448.075</ele>
        <time>2022-10-10T13:09:42Z</time>
      </trkpt>
      <trkpt lat="47.18921" lon="6.12685">
        <ele>448.048</ele>
        <time>2022-10-10T13:09:43Z</time>
      </trkpt>
      <trkpt lat="47.18925" lon="6.12684">
        <ele>448.434</ele>
        <time>2022-10-10T13:09:44Z</time>
      </trkpt>
      <trkpt lat="47.18929" lon="6.12683">
        <ele>448.49</ele>
        <time>2022-10-10T13:09:45Z</time>
      </trkpt>
      <trkpt lat="47.18933" lon="6.12682">
        <ele>449.05</ele>
        <time>2022-10-10T13:09:46Z</time>
      </trkpt>
      <trkpt lat="47.18935" lon="6.1268">
        <ele>449.694</ele>
        <time>2022-10-10T13:09:47Z</time>
      </trkpt>
      <trkpt lat="47.18938" lon="6.12678">
        <ele>450.099</ele>
        <time>2022-10-10T13:09:48Z</time>
      </trkpt>
      <trkpt lat="47.18941" lon="6.12677">
        <ele>450.007</ele>
        <time>2022-10-10T13:09:49Z</time>
      </trkpt>
      <trkpt lat="47.18945" lon="6.12678">
        <ele>450.027</ele>
        <time>2022-10-10T13:09:50Z</time>
      </trkpt>
      <trkpt lat="47.18949" lon="6.1268">
        <ele>450.009</ele>
        <time>2022-10-10T13:09:51Z</time>
      </trkpt>
      <trkpt lat="47.18952" lon="6.1269">
        <ele>450.09</ele>
        <time>2022-10-10T13:09:53Z</time>
      </trkpt>
      <trkpt lat="47.18954" lon="6.127">
        <ele>449.65</ele>
        <time>2022-10-10T13:09:55Z</time>
      </trkpt>
      <trkpt lat="47.18955" lon="6.12705">
        <ele>449.664</ele>
        <time>2022-10-10T13:09:56Z</time>
      </trkpt>
      <trkpt lat="47.18956" lon="6.12711">
        <ele>449.028</ele>
        <time>2022-10-10T13:09:57Z</time>
      </trkpt>
      <trkpt lat="47.18957" lon="6.12717">
        <ele>448.691</ele>
        <time>2022-10-10T13:09:58Z</time>
      </trkpt>
      <trkpt lat="47.18957" lon="6.12721">
        <ele>448.647</ele>
        <time>2022-10-10T13:09:59Z</time>
      </trkpt>
      <trkpt lat="47.18958" lon="6.12725">
        <ele>448.443</ele>
        <time>2022-10-10T13:10:00Z</time>
      </trkpt>
      <trkpt lat="47.1896" lon="6.12727">
        <ele>448.413</ele>
        <time>2022-10-10T13:10:01Z</time>
      </trkpt>
      <trkpt lat="47.18965" lon="6.12729">
        <ele>448.457</ele>
        <time>2022-10-10T13:10:03Z</time>
      </trkpt>
      <trkpt lat="47.18968" lon="6.12729">
        <ele>448.272</ele>
        <time>2022-10-10T13:10:04Z</time>
      </trkpt>
      <trkpt lat="47.18971" lon="6.12728">
        <ele>448.213</ele>
        <time>2022-10-10T13:10:05Z</time>
      </trkpt>
      <trkpt lat="47.18974" lon="6.12727">
        <ele>448.214</ele>
        <time>2022-10-10T13:10:06Z</time>
      </trkpt>
      <trkpt lat="47.18977" lon="6.12725">
        <ele>448.209</ele>
        <time>2022-10-10T13:10:07Z</time>
      </trkpt>
      <trkpt lat="47.1898" lon="6.12723">
        <ele>448.288</ele>
        <time>2022-10-10T13:10:08Z</time>
      </trkpt>
      <trkpt lat="47.18983" lon="6.1272">
        <ele>448.238</ele>
        <time>2022-10-10T13:10:09Z</time>
      </trkpt>
      <trkpt lat="47.18997" lon="6.12705">
        <ele>448.062</ele>
        <time>2022-10-10T13:10:14Z</time>
      </trkpt>
      <trkpt lat="47.19004" lon="6.12699">
        <ele>448.056</ele>
        <time>2022-10-10T13:10:16Z</time>
      </trkpt>
      <trkpt lat="47.19008" lon="6.12697">
        <ele>447.069</ele>
        <time>2022-10-10T13:10:17Z</time>
      </trkpt>
      <trkpt lat="47.19012" lon="6.12695">
        <ele>446.655</ele>
        <time>2022-10-10T13:10:18Z</time>
      </trkpt>
      <trkpt lat="47.19017" lon="6.12693">
        <ele>445.861</ele>
        <time>2022-10-10T13:10:19Z</time>
      </trkpt>
      <trkpt lat="47.19021" lon="6.12691">
        <ele>445.651</ele>
        <time>2022-10-10T13:10:20Z</time>
      </trkpt>
      <trkpt lat="47.1903" lon="6.12688">
        <ele>444.635</ele>
        <time>2022-10-10T13:10:22Z</time>
      </trkpt>
      <trkpt lat="47.19035" lon="6.12687">
        <ele>443.818</ele>
        <time>2022-10-10T13:10:23Z</time>
      </trkpt>
      <trkpt lat="47.19039" lon="6.12686">
        <ele>443.898</ele>
        <time>2022-10-10T13:10:24Z</time>
      </trkpt>
      <trkpt lat="47.19043" lon="6.12687">
        <ele>443.417</ele>
        <time>2022-10-10T13:10:25Z</time>
      </trkpt>
      <trkpt lat="47.19047" lon="6.12688">
        <ele>442.809</ele>
        <time>2022-10-10T13:10:26Z</time>
      </trkpt>
      <trkpt lat="47.19052" lon="6.12688">
        <ele>442.292</ele>
        <time>2022-10-10T13:10:27Z</time>
      </trkpt>
      <trkpt lat="47.19056" lon="6.12689">
        <ele>441.242</ele>
        <time>2022-10-10T13:10:28Z</time>
      </trkpt>
      <trkpt lat="47.19061" lon="6.1269">
        <ele>441.016</ele>
        <time>2022-10-10T13:10:29Z</time>
      </trkpt>
      <trkpt lat="47.19066" lon="6.12692">
        <ele>439.85</ele>
        <time>2022-10-10T13:10:30Z</time>
      </trkpt>
      <trkpt lat="47.19079" lon="6.12694">
        <ele>438.893</ele>
        <time>2022-10-10T13:10:32Z</time>
      </trkpt>
      <trkpt lat="47.19083" lon="6.12695">
        <ele>438.699</ele>
        <time>2022-10-10T13:10:33Z</time>
      </trkpt>
      <trkpt lat="47.19094" lon="6.12699">
        <ele>438.695</ele>
        <time>2022-10-10T13:10:35Z</time>
      </trkpt>
      <trkpt lat="47.19099" lon="6.12703">
        <ele>438.625</ele>
        <time>2022-10-10T13:10:36Z</time>
      </trkpt>
      <trkpt lat="47.19103" lon="6.12707">
        <ele>438.029</ele>
        <time>2022-10-10T13:10:37Z</time>
      </trkpt>
      <trkpt lat="47.19107" lon="6.12712">
        <ele>438.012</ele>
        <time>2022-10-10T13:10:38Z</time>
      </trkpt>
      <trkpt lat="47.19111" lon="6.12716">
        <ele>438.032</ele>
        <time>2022-10-10T13:10:39Z</time>
      </trkpt>
      <trkpt lat="47.19114" lon="6.1272">
        <ele>438.005</ele>
        <time>2022-10-10T13:10:40Z</time>
      </trkpt>
      <trkpt lat="47.19116" lon="6.12725">
        <ele>438.009</ele>
        <time>2022-10-10T13:10:41Z</time>
      </trkpt>
      <trkpt lat="47.19119" lon="6.12727">
        <ele>438.022</ele>
        <time>2022-10-10T13:10:42Z</time>
      </trkpt>
      <trkpt lat="47.19123" lon="6.12728">
        <ele>438.072</ele>
        <time>2022-10-10T13:10:43Z</time>
      </trkpt>
      <trkpt lat="47.19127" lon="6.12728">
        <ele>437.656</ele>
        <time>2022-10-10T13:10:44Z</time>
      </trkpt>
      <trkpt lat="47.19131" lon="6.12728">
        <ele>437.65</ele>
        <time>2022-10-10T13:10:45Z</time>
      </trkpt>
      <trkpt lat="47.19135" lon="6.12728">
        <ele>437.653</ele>
        <time>2022-10-10T13:10:46Z</time>
      </trkpt>
      <trkpt lat="47.19142" lon="6.12731">
        <ele>437.459</ele>
        <time>2022-10-10T13:10:48Z</time>
      </trkpt>
      <trkpt lat="47.19159" lon="6.12738">
        <ele>437.025</ele>
        <time>2022-10-10T13:10:52Z</time>
      </trkpt>
      <trkpt lat="47.19171" lon="6.12743">
        <ele>437.075</ele>
        <time>2022-10-10T13:10:55Z</time>
      </trkpt>
      <trkpt lat="47.1919" lon="6.12748">
        <ele>436.839</ele>
        <time>2022-10-10T13:10:59Z</time>
      </trkpt>
      <trkpt lat="47.19199" lon="6.1275">
        <ele>436.666</ele>
        <time>2022-10-10T13:11:01Z</time>
      </trkpt>
      <trkpt lat="47.19204" lon="6.12752">
        <ele>436.629</ele>
        <time>2022-10-10T13:11:02Z</time>
      </trkpt>
      <trkpt lat="47.19209" lon="6.12754">
        <ele>436.221</ele>
        <time>2022-10-10T13:11:03Z</time>
      </trkpt>
      <trkpt lat="47.19214" lon="6.12756">
        <ele>436.209</ele>
        <time>2022-10-10T13:11:04Z</time>
      </trkpt>
      <trkpt lat="47.19219" lon="6.12756">
        <ele>436.257</ele>
        <time>2022-10-10T13:11:05Z</time>
      </trkpt>
      <trkpt lat="47.19223" lon="6.12756">
        <ele>436.227</ele>
        <time>2022-10-10T13:11:06Z</time>
      </trkpt>
      <trkpt lat="47.19237" lon="6.12754">
        <ele>436.461</ele>
        <time>2022-10-10T13:11:09Z</time>
      </trkpt>
      <trkpt lat="47.19252" lon="6.12754">
        <ele>436.445</ele>
        <time>2022-10-10T13:11:12Z</time>
      </trkpt>
      <trkpt lat="47.19262" lon="6.12754">
        <ele>435.628</ele>
        <time>2022-10-10T13:11:14Z</time>
      </trkpt>
      <trkpt lat="47.19273" lon="6.12751">
        <ele>435.024</ele>
        <time>2022-10-10T13:11:16Z</time>
      </trkpt>
      <trkpt lat="47.19278" lon="6.12749">
        <ele>435.04</ele>
        <time>2022-10-10T13:11:17Z</time>
      </trkpt>
      <trkpt lat="47.19282" lon="6.12746">
        <ele>435.05</ele>
        <time>2022-10-10T13:11:18Z</time>
      </trkpt>
      <trkpt lat="47.19285" lon="6.12742">
        <ele>435.044</ele>
        <time>2022-10-10T13:11:19Z</time>
      </trkpt>
      <trkpt lat="47.19288" lon="6.12738">
        <ele>434.424</ele>
        <time>2022-10-10T13:11:20Z</time>
      </trkpt>
      <trkpt lat="47.1929" lon="6.12734">
        <ele>434.804</ele>
        <time>2022-10-10T13:11:21Z</time>
      </trkpt>
      <trkpt lat="47.19291" lon="6.1273">
        <ele>434.814</ele>
        <time>2022-10-10T13:11:22Z</time>
      </trkpt>
      <trkpt lat="47.19291" lon="6.12724">
        <ele>434.809</ele>
        <time>2022-10-10T13:11:23Z</time>
      </trkpt>
      <trkpt lat="47.19292" lon="6.12719">
        <ele>434.623</ele>
        <time>2022-10-10T13:11:24Z</time>
      </trkpt>
      <trkpt lat="47.19295" lon="6.12714">
        <ele>434.433</ele>
        <time>2022-10-10T13:11:25Z</time>
      </trkpt>
      <trkpt lat="47.193" lon="6.12711">
        <ele>434.437</ele>
        <time>2022-10-10T13:11:26Z</time>
      </trkpt>
      <trkpt lat="47.1931" lon="6.12706">
        <ele>434.231</ele>
        <time>2022-10-10T13:11:28Z</time>
      </trkpt>
      <trkpt lat="47.19315" lon="6.12703">
        <ele>434.254</ele>
        <time>2022-10-10T13:11:29Z</time>
      </trkpt>
      <trkpt lat="47.19325" lon="6.12698">
        <ele>434.05</ele>
        <time>2022-10-10T13:11:31Z</time>
      </trkpt>
      <trkpt lat="47.1933" lon="6.12696">
        <ele>433.866</ele>
        <time>2022-10-10T13:11:32Z</time>
      </trkpt>
      <trkpt lat="47.19335" lon="6.12694">
        <ele>433.876</ele>
        <time>2022-10-10T13:11:33Z</time>
      </trkpt>
      <trkpt lat="47.1934" lon="6.12692">
        <ele>433.41</ele>
        <time>2022-10-10T13:11:34Z</time>
      </trkpt>
      <trkpt lat="47.19345" lon="6.1269">
        <ele>433.022</ele>
        <time>2022-10-10T13:11:35Z</time>
      </trkpt>
      <trkpt lat="47.1935" lon="6.12688">
        <ele>432.662</ele>
        <time>2022-10-10T13:11:36Z</time>
      </trkpt>
      <trkpt lat="47.19359" lon="6.12684">
        <ele>432.608</ele>
        <time>2022-10-10T13:11:38Z</time>
      </trkpt>
      <trkpt lat="47.19364" lon="6.12684">
        <ele>432.609</ele>
        <time>2022-10-10T13:11:39Z</time>
      </trkpt>
      <trkpt lat="47.19368" lon="6.12683">
        <ele>432.623</ele>
        <time>2022-10-10T13:11:40Z</time>
      </trkpt>
      <trkpt lat="47.19372" lon="6.12683">
        <ele>432.263</ele>
        <time>2022-10-10T13:11:41Z</time>
      </trkpt>
      <trkpt lat="47.19375" lon="6.12683">
        <ele>432.657</ele>
        <time>2022-10-10T13:11:42Z</time>
      </trkpt>
      <trkpt lat="47.19379" lon="6.12682">
        <ele>432.651</ele>
        <time>2022-10-10T13:11:43Z</time>
      </trkpt>
      <trkpt lat="47.19382" lon="6.12681">
        <ele>433.024</ele>
        <time>2022-10-10T13:11:44Z</time>
      </trkpt>
      <trkpt lat="47.19385" lon="6.12682">
        <ele>433.05</ele>
        <time>2022-10-10T13:11:45Z</time>
      </trkpt>
      <trkpt lat="47.19387" lon="6.12684">
        <ele>433.076</ele>
        <time>2022-10-10T13:11:46Z</time>
      </trkpt>
      <trkpt lat="47.1939" lon="6.12687">
        <ele>433.036</ele>
        <time>2022-10-10T13:11:47Z</time>
      </trkpt>
      <trkpt lat="47.19393" lon="6.1269">
        <ele>433.07</ele>
        <time>2022-10-10T13:11:48Z</time>
      </trkpt>
      <trkpt lat="47.19399" lon="6.12692">
        <ele>433.058</ele>
        <time>2022-10-10T13:11:50Z</time>
      </trkpt>
      <trkpt lat="47.19402" lon="6.12693">
        <ele>433.052</ele>
        <time>2022-10-10T13:11:51Z</time>
      </trkpt>
      <trkpt lat="47.19408" lon="6.12696">
        <ele>433.417</ele>
        <time>2022-10-10T13:11:53Z</time>
      </trkpt>
      <trkpt lat="47.19413" lon="6.12699">
        <ele>433.809</ele>
        <time>2022-10-10T13:11:55Z</time>
      </trkpt>
      <trkpt lat="47.19416" lon="6.12701">
        <ele>434.226</ele>
        <time>2022-10-10T13:11:56Z</time>
      </trkpt>
      <trkpt lat="47.19419" lon="6.12702">
        <ele>434.246</ele>
        <time>2022-10-10T13:11:57Z</time>
      </trkpt>
      <trkpt lat="47.19429" lon="6.12704">
        <ele>434.04</ele>
        <time>2022-10-10T13:12:00Z</time>
      </trkpt>
      <trkpt lat="47.19435" lon="6.12706">
        <ele>434.024</ele>
        <time>2022-10-10T13:12:02Z</time>
      </trkpt>
      <trkpt lat="47.19438" lon="6.12705">
        <ele>434.067</ele>
        <time>2022-10-10T13:12:03Z</time>
      </trkpt>
      <trkpt lat="47.19442" lon="6.12705">
        <ele>434.023</ele>
        <time>2022-10-10T13:12:04Z</time>
      </trkpt>
      <trkpt lat="47.19445" lon="6.12706">
        <ele>433.819</ele>
        <time>2022-10-10T13:12:05Z</time>
      </trkpt>
      <trkpt lat="47.19448" lon="6.12707">
        <ele>433.879</ele>
        <time>2022-10-10T13:12:06Z</time>
      </trkpt>
      <trkpt lat="47.1945" lon="6.12709">
        <ele>433.883</ele>
        <time>2022-10-10T13:12:07Z</time>
      </trkpt>
      <trkpt lat="47.19453" lon="6.1271">
        <ele>433.857</ele>
        <time>2022-10-10T13:12:08Z</time>
      </trkpt>
      <trkpt lat="47.19455" lon="6.1271">
        <ele>433.8</ele>
        <time>2022-10-10T13:12:09Z</time>
      </trkpt>
      <trkpt lat="47.19458" lon="6.12711">
        <ele>433.82</ele>
        <time>2022-10-10T13:12:10Z</time>
      </trkpt>
      <trkpt lat="47.19461" lon="6.12712">
        <ele>433.809</ele>
        <time>2022-10-10T13:12:11Z</time>
      </trkpt>
      <trkpt lat="47.19462" lon="6.12712">
        <ele>434.276</ele>
        <time>2022-10-10T13:12:12Z</time>
      </trkpt>
      <trkpt lat="47.19462" lon="6.12712">
        <ele>434.256</ele>
        <time>2022-10-10T13:12:13Z</time>
      </trkpt>
      <trkpt lat="47.19462" lon="6.12712">
        <ele>434.22</ele>
        <time>2022-10-10T13:12:14Z</time>
      </trkpt>
      <trkpt lat="47.19462" lon="6.12713">
        <ele>434.434</ele>
        <time>2022-10-10T13:12:15Z</time>
      </trkpt>
      <trkpt lat="47.19462" lon="6.12713">
        <ele>434.467</ele>
        <time>2022-10-10T13:12:19Z</time>
      </trkpt>
      <trkpt lat="47.19463" lon="6.12713">
        <ele>434.453</ele>
        <time>2022-10-10T13:12:20Z</time>
      </trkpt>
      <trkpt lat="47.19464" lon="6.12714">
        <ele>434.419</ele>
        <time>2022-10-10T13:12:21Z</time>
      </trkpt>
      <trkpt lat="47.19466" lon="6.12715">
        <ele>434.289</ele>
        <time>2022-10-10T13:12:22Z</time>
      </trkpt>
      <trkpt lat="47.19476" lon="6.12716">
        <ele>434.223</ele>
        <time>2022-10-10T13:12:26Z</time>
      </trkpt>
      <trkpt lat="47.19479" lon="6.12717">
        <ele>434.232</ele>
        <time>2022-10-10T13:12:27Z</time>
      </trkpt>
      <trkpt lat="47.19482" lon="6.1272">
        <ele>434.292</ele>
        <time>2022-10-10T13:12:28Z</time>
      </trkpt>
      <trkpt lat="47.19485" lon="6.12723">
        <ele>434.411</ele>
        <time>2022-10-10T13:12:29Z</time>
      </trkpt>
      <trkpt lat="47.19487" lon="6.12726">
        <ele>434.409</ele>
        <time>2022-10-10T13:12:30Z</time>
      </trkpt>
      <trkpt lat="47.1949" lon="6.12729">
        <ele>434.484</ele>
        <time>2022-10-10T13:12:31Z</time>
      </trkpt>
      <trkpt lat="47.19493" lon="6.12731">
        <ele>434.664</ele>
        <time>2022-10-10T13:12:32Z</time>
      </trkpt>
      <trkpt lat="47.19498" lon="6.12735">
        <ele>434.888</ele>
        <time>2022-10-10T13:12:34Z</time>
      </trkpt>
      <trkpt lat="47.19501" lon="6.12736">
        <ele>435.022</ele>
        <time>2022-10-10T13:12:35Z</time>
      </trkpt>
      <trkpt lat="47.19504" lon="6.12736">
        <ele>435.035</ele>
        <time>2022-10-10T13:12:36Z</time>
      </trkpt>
      <trkpt lat="47.19508" lon="6.12737">
        <ele>435.081</ele>
        <time>2022-10-10T13:12:37Z</time>
      </trkpt>
      <trkpt lat="47.19517" lon="6.12739">
        <ele>435.047</ele>
        <time>2022-10-10T13:12:39Z</time>
      </trkpt>
      <trkpt lat="47.19521" lon="6.12741">
        <ele>435.287</ele>
        <time>2022-10-10T13:12:40Z</time>
      </trkpt>
      <trkpt lat="47.19525" lon="6.12743">
        <ele>435.211</ele>
        <time>2022-10-10T13:12:41Z</time>
      </trkpt>
      <trkpt lat="47.19528" lon="6.12744">
        <ele>435.253</ele>
        <time>2022-10-10T13:12:42Z</time>
      </trkpt>
      <trkpt lat="47.19534" lon="6.12742">
        <ele>435.404</ele>
        <time>2022-10-10T13:12:44Z</time>
      </trkpt>
      <trkpt lat="47.19536" lon="6.12741">
        <ele>435.214</ele>
        <time>2022-10-10T13:12:45Z</time>
      </trkpt>
      <trkpt lat="47.19548" lon="6.12738">
        <ele>435.009</ele>
        <time>2022-10-10T13:12:48Z</time>
      </trkpt>
      <trkpt lat="47.19552" lon="6.12738">
        <ele>435.046</ele>
        <time>2022-10-10T13:12:49Z</time>
      </trkpt>
      <trkpt lat="47.19555" lon="6.12739">
        <ele>435.076</ele>
        <time>2022-10-10T13:12:50Z</time>
      </trkpt>
      <trkpt lat="47.19569" lon="6.1274">
        <ele>434.85</ele>
        <time>2022-10-10T13:12:54Z</time>
      </trkpt>
      <trkpt lat="47.19573" lon="6.12737">
        <ele>434.234</ele>
        <time>2022-10-10T13:12:55Z</time>
      </trkpt>
      <trkpt lat="47.19576" lon="6.12735">
        <ele>434.247</ele>
        <time>2022-10-10T13:12:56Z</time>
      </trkpt>
      <trkpt lat="47.1958" lon="6.12734">
        <ele>434.213</ele>
        <time>2022-10-10T13:12:57Z</time>
      </trkpt>
      <trkpt lat="47.19584" lon="6.12734">
        <ele>434.239</ele>
        <time>2022-10-10T13:12:58Z</time>
      </trkpt>
      <trkpt lat="47.19587" lon="6.12735">
        <ele>434.429</ele>
        <time>2022-10-10T13:12:59Z</time>
      </trkpt>
      <trkpt lat="47.19589" lon="6.12735">
        <ele>434.693</ele>
        <time>2022-10-10T13:13:00Z</time>
      </trkpt>
      <trkpt lat="47.1959" lon="6.12735">
        <ele>434.883</ele>
        <time>2022-10-10T13:13:01Z</time>
      </trkpt>
      <trkpt lat="47.19591" lon="6.12735">
        <ele>434.825</ele>
        <time>2022-10-10T13:13:02Z</time>
      </trkpt>
      <trkpt lat="47.19591" lon="6.12735">
        <ele>434.817</ele>
        <time>2022-10-10T13:13:03Z</time>
      </trkpt>
      <trkpt lat="47.19591" lon="6.12735">
        <ele>434.809</ele>
        <time>2022-10-10T13:13:04Z</time>
      </trkpt>
      <trkpt lat="47.19591" lon="6.12735">
        <ele>434.649</ele>
        <time>2022-10-10T13:13:05Z</time>
      </trkpt>
      <trkpt lat="47.19591" lon="6.12735">
        <ele>434.669</ele>
        <time>2022-10-10T13:13:06Z</time>
      </trkpt>
      <trkpt lat="47.19597" lon="6.12737">
        <ele>434.023</ele>
        <time>2022-10-10T13:13:13Z</time>
      </trkpt>
      <trkpt lat="47.19603" lon="6.12736">
        <ele>433.867</ele>
        <time>2022-10-10T13:13:15Z</time>
      </trkpt>
      <trkpt lat="47.19609" lon="6.12735">
        <ele>433.46</ele>
        <time>2022-10-10T13:13:17Z</time>
      </trkpt>
      <trkpt lat="47.19619" lon="6.12733">
        <ele>433.016</ele>
        <time>2022-10-10T13:13:20Z</time>
      </trkpt>
      <trkpt lat="47.19626" lon="6.12732">
        <ele>432.632</ele>
        <time>2022-10-10T13:13:22Z</time>
      </trkpt>
      <trkpt lat="47.19642" lon="6.12729">
        <ele>432.082</ele>
        <time>2022-10-10T13:13:26Z</time>
      </trkpt>
      <trkpt lat="47.19647" lon="6.12728">
        <ele>432.046</ele>
        <time>2022-10-10T13:13:27Z</time>
      </trkpt>
      <trkpt lat="47.19657" lon="6.1273">
        <ele>432.074</ele>
        <time>2022-10-10T13:13:29Z</time>
      </trkpt>
      <trkpt lat="47.19668" lon="6.12732">
        <ele>432.256</ele>
        <time>2022-10-10T13:13:31Z</time>
      </trkpt>
      <trkpt lat="47.19677" lon="6.12734">
        <ele>432.621</ele>
        <time>2022-10-10T13:13:33Z</time>
      </trkpt>
      <trkpt lat="47.19694" lon="6.12738">
        <ele>433.409</ele>
        <time>2022-10-10T13:13:37Z</time>
      </trkpt>
      <trkpt lat="47.19699" lon="6.12737">
        <ele>433.868</ele>
        <time>2022-10-10T13:13:38Z</time>
      </trkpt>
      <trkpt lat="47.19704" lon="6.12737">
        <ele>433.868</ele>
        <time>2022-10-10T13:13:39Z</time>
      </trkpt>
      <trkpt lat="47.19709" lon="6.12735">
        <ele>433.862</ele>
        <time>2022-10-10T13:13:40Z</time>
      </trkpt>
      <trkpt lat="47.19725" lon="6.12735">
        <ele>434.816</ele>
        <time>2022-10-10T13:13:44Z</time>
      </trkpt>
      <trkpt lat="47.19729" lon="6.12735">
        <ele>434.829</ele>
        <time>2022-10-10T13:13:45Z</time>
      </trkpt>
      <trkpt lat="47.19733" lon="6.12734">
        <ele>435.035</ele>
        <time>2022-10-10T13:13:46Z</time>
      </trkpt>
      <trkpt lat="47.19741" lon="6.12733">
        <ele>435.241</ele>
        <time>2022-10-10T13:13:48Z</time>
      </trkpt>
      <trkpt lat="47.1975" lon="6.12734">
        <ele>435.641</ele>
        <time>2022-10-10T13:13:50Z</time>
      </trkpt>
      <trkpt lat="47.19754" lon="6.12734">
        <ele>436.075</ele>
        <time>2022-10-10T13:13:51Z</time>
      </trkpt>
      <trkpt lat="47.19759" lon="6.12735">
        <ele>436.033</ele>
        <time>2022-10-10T13:13:52Z</time>
      </trkpt>
      <trkpt lat="47.19763" lon="6.12735">
        <ele>436.023</ele>
        <time>2022-10-10T13:13:53Z</time>
      </trkpt>
      <trkpt lat="47.19768" lon="6.12735">
        <ele>436.015</ele>
        <time>2022-10-10T13:13:54Z</time>
      </trkpt>
      <trkpt lat="47.19772" lon="6.12735">
        <ele>436.209</ele>
        <time>2022-10-10T13:13:55Z</time>
      </trkpt>
      <trkpt lat="47.19777" lon="6.12735">
        <ele>436.294</ele>
        <time>2022-10-10T13:13:56Z</time>
      </trkpt>
      <trkpt lat="47.19781" lon="6.12736">
        <ele>436.244</ele>
        <time>2022-10-10T13:13:57Z</time>
      </trkpt>
      <trkpt lat="47.19786" lon="6.12737">
        <ele>436.278</ele>
        <time>2022-10-10T13:13:58Z</time>
      </trkpt>
      <trkpt lat="47.1979" lon="6.12738">
        <ele>436.422</ele>
        <time>2022-10-10T13:13:59Z</time>
      </trkpt>
      <trkpt lat="47.19794" lon="6.12738">
        <ele>436.415</ele>
        <time>2022-10-10T13:14:00Z</time>
      </trkpt>
      <trkpt lat="47.19799" lon="6.12738">
        <ele>436.461</ele>
        <time>2022-10-10T13:14:01Z</time>
      </trkpt>
      <trkpt lat="47.19804" lon="6.12739">
        <ele>436.457</ele>
        <time>2022-10-10T13:14:02Z</time>
      </trkpt>
      <trkpt lat="47.19808" lon="6.12739">
        <ele>436.217</ele>
        <time>2022-10-10T13:14:03Z</time>
      </trkpt>
      <trkpt lat="47.19813" lon="6.12739">
        <ele>436.241</ele>
        <time>2022-10-10T13:14:04Z</time>
      </trkpt>
      <trkpt lat="47.19817" lon="6.1274">
        <ele>436.283</ele>
        <time>2022-10-10T13:14:05Z</time>
      </trkpt>
      <trkpt lat="47.19822" lon="6.12741">
        <ele>436.225</ele>
        <time>2022-10-10T13:14:06Z</time>
      </trkpt>
      <trkpt lat="47.19832" lon="6.12742">
        <ele>436.017</ele>
        <time>2022-10-10T13:14:08Z</time>
      </trkpt>
      <trkpt lat="47.19837" lon="6.12743">
        <ele>436.009</ele>
        <time>2022-10-10T13:14:09Z</time>
      </trkpt>
      <trkpt lat="47.19846" lon="6.12745">
        <ele>435.679</ele>
        <time>2022-10-10T13:14:11Z</time>
      </trkpt>
      <trkpt lat="47.19851" lon="6.12747">
        <ele>436.099</ele>
        <time>2022-10-10T13:14:12Z</time>
      </trkpt>
      <trkpt lat="47.19871" lon="6.12751">
        <ele>435.613</ele>
        <time>2022-10-10T13:14:16Z</time>
      </trkpt>
      <trkpt lat="47.19875" lon="6.12752">
        <ele>435.487</ele>
        <time>2022-10-10T13:14:17Z</time>
      </trkpt>
      <trkpt lat="47.1988" lon="6.12753">
        <ele>435.28</ele>
        <time>2022-10-10T13:14:18Z</time>
      </trkpt>
      <trkpt lat="47.19885" lon="6.12755">
        <ele>435.236</ele>
        <time>2022-10-10T13:14:19Z</time>
      </trkpt>
      <trkpt lat="47.19889" lon="6.12757">
        <ele>435.222</ele>
        <time>2022-10-10T13:14:20Z</time>
      </trkpt>
      <trkpt lat="47.19897" lon="6.12758">
        <ele>435.242</ele>
        <time>2022-10-10T13:14:22Z</time>
      </trkpt>
      <trkpt lat="47.19902" lon="6.12758">
        <ele>435.236</ele>
        <time>2022-10-10T13:14:23Z</time>
      </trkpt>
      <trkpt lat="47.19911" lon="6.1276">
        <ele>435.483</ele>
        <time>2022-10-10T13:14:25Z</time>
      </trkpt>
      <trkpt lat="47.19915" lon="6.12761">
        <ele>435.625</ele>
        <time>2022-10-10T13:14:26Z</time>
      </trkpt>
      <trkpt lat="47.1992" lon="6.12763">
        <ele>435.617</ele>
        <time>2022-10-10T13:14:27Z</time>
      </trkpt>
      <trkpt lat="47.19923" lon="6.12764">
        <ele>435.809</ele>
        <time>2022-10-10T13:14:28Z</time>
      </trkpt>
      <trkpt lat="47.19926" lon="6.12766">
        <ele>435.869</ele>
        <time>2022-10-10T13:14:29Z</time>
      </trkpt>
      <trkpt lat="47.1993" lon="6.12767">
        <ele>436.439</ele>
        <time>2022-10-10T13:14:30Z</time>
      </trkpt>
      <trkpt lat="47.19932" lon="6.12767">
        <ele>436.623</ele>
        <time>2022-10-10T13:14:31Z</time>
      </trkpt>
      <trkpt lat="47.19935" lon="6.12766">
        <ele>436.827</ele>
        <time>2022-10-10T13:14:32Z</time>
      </trkpt>
      <trkpt lat="47.19938" lon="6.12765">
        <ele>436.82</ele>
        <time>2022-10-10T13:14:33Z</time>
      </trkpt>
      <trkpt lat="47.19941" lon="6.12766">
        <ele>436.876</ele>
        <time>2022-10-10T13:14:34Z</time>
      </trkpt>
      <trkpt lat="47.19944" lon="6.12768">
        <ele>436.832</ele>
        <time>2022-10-10T13:14:35Z</time>
      </trkpt>
      <trkpt lat="47.19947" lon="6.1277">
        <ele>436.872</ele>
        <time>2022-10-10T13:14:36Z</time>
      </trkpt>
      <trkpt lat="47.1995" lon="6.1277">
        <ele>436.866</ele>
        <time>2022-10-10T13:14:37Z</time>
      </trkpt>
      <trkpt lat="47.19958" lon="6.12771">
        <ele>436.874</ele>
        <time>2022-10-10T13:14:39Z</time>
      </trkpt>
      <trkpt lat="47.19962" lon="6.12772">
        <ele>436.856</ele>
        <time>2022-10-10T13:14:40Z</time>
      </trkpt>
      <trkpt lat="47.19966" lon="6.12773">
        <ele>437.021</ele>
        <time>2022-10-10T13:14:41Z</time>
      </trkpt>
      <trkpt lat="47.19971" lon="6.12773">
        <ele>437.209</ele>
        <time>2022-10-10T13:14:42Z</time>
      </trkpt>
      <trkpt lat="47.19974" lon="6.12775">
        <ele>437.268</ele>
        <time>2022-10-10T13:14:43Z</time>
      </trkpt>
      <trkpt lat="47.19977" lon="6.12776">
        <ele>437.238</ele>
        <time>2022-10-10T13:14:44Z</time>
      </trkpt>
      <trkpt lat="47.1998" lon="6.12776">
        <ele>437.662</ele>
        <time>2022-10-10T13:14:45Z</time>
      </trkpt>
      <trkpt lat="47.19982" lon="6.12776">
        <ele>437.866</ele>
        <time>2022-10-10T13:14:46Z</time>
      </trkpt>
      <trkpt lat="47.19983" lon="6.12776">
        <ele>438.049</ele>
        <time>2022-10-10T13:14:47Z</time>
      </trkpt>
      <trkpt lat="47.19983" lon="6.12776">
        <ele>438.265</ele>
        <time>2022-10-10T13:14:48Z</time>
      </trkpt>
      <trkpt lat="47.19983" lon="6.12776">
        <ele>438.281</ele>
        <time>2022-10-10T13:14:49Z</time>
      </trkpt>
      <trkpt lat="47.19984" lon="6.12776">
        <ele>438.221</ele>
        <time>2022-10-10T13:14:50Z</time>
      </trkpt>
      <trkpt lat="47.19984" lon="6.12775">
        <ele>438.265</ele>
        <time>2022-10-10T13:14:53Z</time>
      </trkpt>
      <trkpt lat="47.19985" lon="6.12775">
        <ele>438.287</ele>
        <time>2022-10-10T13:14:56Z</time>
      </trkpt>
      <trkpt lat="47.19988" lon="6.12776">
        <ele>438.042</ele>
        <time>2022-10-10T13:14:59Z</time>
      </trkpt>
      <trkpt lat="47.19988" lon="6.12778">
        <ele>438.026</ele>
        <time>2022-10-10T13:15:00Z</time>
      </trkpt>
      <trkpt lat="47.19988" lon="6.12778">
        <ele>438.209</ele>
        <time>2022-10-10T13:15:01Z</time>
      </trkpt>
      <trkpt lat="47.19988" lon="6.12778">
        <ele>438.479</ele>
        <time>2022-10-10T13:15:02Z</time>
      </trkpt>
      <trkpt lat="47.19988" lon="6.12778">
        <ele>438.419</ele>
        <time>2022-10-10T13:15:03Z</time>
      </trkpt>
      <trkpt lat="47.19988" lon="6.12778">
        <ele>438.443</ele>
        <time>2022-10-10T13:15:05Z</time>
      </trkpt>
      <trkpt lat="47.19988" lon="6.12778">
        <ele>438.087</ele>
        <time>2022-10-10T13:15:06Z</time>
      </trkpt>
      <trkpt lat="47.19988" lon="6.12778">
        <ele>438.03</ele>
        <time>2022-10-10T13:15:07Z</time>
      </trkpt>
      <trkpt lat="47.19989" lon="6.12779">
        <ele>437.836</ele>
        <time>2022-10-10T13:15:09Z</time>
      </trkpt>
      <trkpt lat="47.19992" lon="6.12781">
        <ele>437.842</ele>
        <time>2022-10-10T13:15:10Z</time>
      </trkpt>
      <trkpt lat="47.19996" lon="6.12782">
        <ele>437.662</ele>
        <time>2022-10-10T13:15:11Z</time>
      </trkpt>
      <trkpt lat="47.19999" lon="6.12784">
        <ele>437.436</ele>
        <time>2022-10-10T13:15:12Z</time>
      </trkpt>
      <trkpt lat="47.20013" lon="6.12789">
        <ele>437.088</ele>
        <time>2022-10-10T13:15:16Z</time>
      </trkpt>
      <trkpt lat="47.20024" lon="6.12794">
        <ele>436.424</ele>
        <time>2022-10-10T13:15:19Z</time>
      </trkpt>
      <trkpt lat="47.20044" lon="6.12804">
        <ele>434.426</ele>
        <time>2022-10-10T13:15:24Z</time>
      </trkpt>
      <trkpt lat="47.20048" lon="6.12805">
        <ele>434.009</ele>
        <time>2022-10-10T13:15:25Z</time>
      </trkpt>
      <trkpt lat="47.20054" lon="6.12807">
        <ele>433.439</ele>
        <time>2022-10-10T13:15:26Z</time>
      </trkpt>
      <trkpt lat="47.20059" lon="6.12809">
        <ele>433.449</ele>
        <time>2022-10-10T13:15:27Z</time>
      </trkpt>
      <trkpt lat="47.20063" lon="6.12811">
        <ele>433.483</ele>
        <time>2022-10-10T13:15:28Z</time>
      </trkpt>
      <trkpt lat="47.20067" lon="6.12812">
        <ele>433.497</ele>
        <time>2022-10-10T13:15:29Z</time>
      </trkpt>
      <trkpt lat="47.20071" lon="6.12814">
        <ele>433.83</ele>
        <time>2022-10-10T13:15:30Z</time>
      </trkpt>
      <trkpt lat="47.20082" lon="6.12818">
        <ele>434.056</ele>
        <time>2022-10-10T13:15:33Z</time>
      </trkpt>
      <trkpt lat="47.20086" lon="6.12818">
        <ele>433.832</ele>
        <time>2022-10-10T13:15:34Z</time>
      </trkpt>
      <trkpt lat="47.2009" lon="6.1282">
        <ele>433.882</ele>
        <time>2022-10-10T13:15:35Z</time>
      </trkpt>
      <trkpt lat="47.20094" lon="6.12822">
        <ele>433.866</ele>
        <time>2022-10-10T13:15:36Z</time>
      </trkpt>
      <trkpt lat="47.20105" lon="6.12825">
        <ele>433.034</ele>
        <time>2022-10-10T13:15:39Z</time>
      </trkpt>
      <trkpt lat="47.20109" lon="6.12825">
        <ele>433.055</ele>
        <time>2022-10-10T13:15:40Z</time>
      </trkpt>
      <trkpt lat="47.20121" lon="6.1283">
        <ele>432.21</ele>
        <time>2022-10-10T13:15:43Z</time>
      </trkpt>
      <trkpt lat="47.20125" lon="6.12832">
        <ele>432.209</ele>
        <time>2022-10-10T13:15:44Z</time>
      </trkpt>
      <trkpt lat="47.20128" lon="6.12834">
        <ele>432.284</ele>
        <time>2022-10-10T13:15:45Z</time>
      </trkpt>
      <trkpt lat="47.20136" lon="6.12837">
        <ele>431.654</ele>
        <time>2022-10-10T13:15:47Z</time>
      </trkpt>
      <trkpt lat="47.20146" lon="6.12839">
        <ele>431.668</ele>
        <time>2022-10-10T13:15:49Z</time>
      </trkpt>
      <trkpt lat="47.20151" lon="6.1284">
        <ele>431.642</ele>
        <time>2022-10-10T13:15:50Z</time>
      </trkpt>
      <trkpt lat="47.20155" lon="6.12841">
        <ele>431.845</ele>
        <time>2022-10-10T13:15:51Z</time>
      </trkpt>
      <trkpt lat="47.20159" lon="6.12842">
        <ele>431.831</ele>
        <time>2022-10-10T13:15:52Z</time>
      </trkpt>
      <trkpt lat="47.20172" lon="6.12851">
        <ele>432.027</ele>
        <time>2022-10-10T13:15:55Z</time>
      </trkpt>
      <trkpt lat="47.20181" lon="6.12856">
        <ele>432.287</ele>
        <time>2022-10-10T13:15:57Z</time>
      </trkpt>
      <trkpt lat="47.20185" lon="6.12857">
        <ele>432.281</ele>
        <time>2022-10-10T13:15:58Z</time>
      </trkpt>
      <trkpt lat="47.20189" lon="6.12859">
        <ele>432.232</ele>
        <time>2022-10-10T13:15:59Z</time>
      </trkpt>
      <trkpt lat="47.20191" lon="6.1286">
        <ele>432.492</ele>
        <time>2022-10-10T13:16:00Z</time>
      </trkpt>
      <trkpt lat="47.20196" lon="6.12862">
        <ele>432.411</ele>
        <time>2022-10-10T13:16:01Z</time>
      </trkpt>
      <trkpt lat="47.20199" lon="6.12865">
        <ele>432.409</ele>
        <time>2022-10-10T13:16:02Z</time>
      </trkpt>
      <trkpt lat="47.20204" lon="6.12872">
        <ele>432.464</ele>
        <time>2022-10-10T13:16:04Z</time>
      </trkpt>
      <trkpt lat="47.20211" lon="6.1288">
        <ele>432.264</ele>
        <time>2022-10-10T13:16:06Z</time>
      </trkpt>
      <trkpt lat="47.20215" lon="6.12884">
        <ele>432.218</ele>
        <time>2022-10-10T13:16:07Z</time>
      </trkpt>
      <trkpt lat="47.20225" lon="6.12896">
        <ele>432.212</ele>
        <time>2022-10-10T13:16:10Z</time>
      </trkpt>
      <trkpt lat="47.20229" lon="6.129">
        <ele>432.035</ele>
        <time>2022-10-10T13:16:11Z</time>
      </trkpt>
      <trkpt lat="47.20232" lon="6.12903">
        <ele>432.011</ele>
        <time>2022-10-10T13:16:12Z</time>
      </trkpt>
      <trkpt lat="47.20235" lon="6.12906">
        <ele>431.897</ele>
        <time>2022-10-10T13:16:13Z</time>
      </trkpt>
      <trkpt lat="47.20239" lon="6.12911">
        <ele>431.637</ele>
        <time>2022-10-10T13:16:14Z</time>
      </trkpt>
      <trkpt lat="47.20241" lon="6.12915">
        <ele>431.651</ele>
        <time>2022-10-10T13:16:15Z</time>
      </trkpt>
      <trkpt lat="47.20244" lon="6.12919">
        <ele>430.045</ele>
        <time>2022-10-10T13:16:16Z</time>
      </trkpt>
      <trkpt lat="47.20248" lon="6.12923">
        <ele>429.647</ele>
        <time>2022-10-10T13:16:17Z</time>
      </trkpt>
      <trkpt lat="47.20258" lon="6.12934">
        <ele>429.011</ele>
        <time>2022-10-10T13:16:19Z</time>
      </trkpt>
      <trkpt lat="47.20263" lon="6.1294">
        <ele>426.409</ele>
        <time>2022-10-10T13:16:20Z</time>
      </trkpt>
      <trkpt lat="47.20268" lon="6.12946">
        <ele>426.415</ele>
        <time>2022-10-10T13:16:21Z</time>
      </trkpt>
      <trkpt lat="47.20272" lon="6.12951">
        <ele>426.425</ele>
        <time>2022-10-10T13:16:22Z</time>
      </trkpt>
      <trkpt lat="47.20278" lon="6.12957">
        <ele>426.419</ele>
        <time>2022-10-10T13:16:23Z</time>
      </trkpt>
      <trkpt lat="47.20282" lon="6.12961">
        <ele>427.263</ele>
        <time>2022-10-10T13:16:24Z</time>
      </trkpt>
      <trkpt lat="47.20286" lon="6.12965">
        <ele>427.676</ele>
        <time>2022-10-10T13:16:25Z</time>
      </trkpt>
      <trkpt lat="47.2029" lon="6.12969">
        <ele>427.862</ele>
        <time>2022-10-10T13:16:26Z</time>
      </trkpt>
      <trkpt lat="47.20292" lon="6.12971">
        <ele>428.258</ele>
        <time>2022-10-10T13:16:27Z</time>
      </trkpt>
      <trkpt lat="47.20294" lon="6.12973">
        <ele>429.058</ele>
        <time>2022-10-10T13:16:28Z</time>
      </trkpt>
      <trkpt lat="47.20296" lon="6.12976">
        <ele>429.262</ele>
        <time>2022-10-10T13:16:29Z</time>
      </trkpt>
      <trkpt lat="47.20298" lon="6.12978">
        <ele>429.467</ele>
        <time>2022-10-10T13:16:30Z</time>
      </trkpt>
      <trkpt lat="47.203" lon="6.1298">
        <ele>429.681</ele>
        <time>2022-10-10T13:16:31Z</time>
      </trkpt>
      <trkpt lat="47.2031" lon="6.12992">
        <ele>430.219</ele>
        <time>2022-10-10T13:16:35Z</time>
      </trkpt>
      <trkpt lat="47.20313" lon="6.12995">
        <ele>430.209</ele>
        <time>2022-10-10T13:16:36Z</time>
      </trkpt>
      <trkpt lat="47.20315" lon="6.12998">
        <ele>430.227</ele>
        <time>2022-10-10T13:16:37Z</time>
      </trkpt>
      <trkpt lat="47.20331" lon="6.1302">
        <ele>431.087</ele>
        <time>2022-10-10T13:16:43Z</time>
      </trkpt>
      <trkpt lat="47.20333" lon="6.13023">
        <ele>431.051</ele>
        <time>2022-10-10T13:16:44Z</time>
      </trkpt>
      <trkpt lat="47.20336" lon="6.13027">
        <ele>431.235</ele>
        <time>2022-10-10T13:16:45Z</time>
      </trkpt>
      <trkpt lat="47.20339" lon="6.13031">
        <ele>431.428</ele>
        <time>2022-10-10T13:16:46Z</time>
      </trkpt>
      <trkpt lat="47.20342" lon="6.13034">
        <ele>431.634</ele>
        <time>2022-10-10T13:16:47Z</time>
      </trkpt>
      <trkpt lat="47.2035" lon="6.13045">
        <ele>432.05</ele>
        <time>2022-10-10T13:16:50Z</time>
      </trkpt>
      <trkpt lat="47.20352" lon="6.13047">
        <ele>432.09</ele>
        <time>2022-10-10T13:16:51Z</time>
      </trkpt>
      <trkpt lat="47.20354" lon="6.13052">
        <ele>432.014</ele>
        <time>2022-10-10T13:16:52Z</time>
      </trkpt>
      <trkpt lat="47.20358" lon="6.13055">
        <ele>432.067</ele>
        <time>2022-10-10T13:16:53Z</time>
      </trkpt>
      <trkpt lat="47.20361" lon="6.1306">
        <ele>432.481</ele>
        <time>2022-10-10T13:16:54Z</time>
      </trkpt>
      <trkpt lat="47.20365" lon="6.13064">
        <ele>432.819</ele>
        <time>2022-10-10T13:16:55Z</time>
      </trkpt>
      <trkpt lat="47.20367" lon="6.13068">
        <ele>432.809</ele>
        <time>2022-10-10T13:16:56Z</time>
      </trkpt>
      <trkpt lat="47.20369" lon="6.13072">
        <ele>432.827</ele>
        <time>2022-10-10T13:16:57Z</time>
      </trkpt>
      <trkpt lat="47.20371" lon="6.13076">
        <ele>433.037</ele>
        <time>2022-10-10T13:16:58Z</time>
      </trkpt>
      <trkpt lat="47.20373" lon="6.1308">
        <ele>433.221</ele>
        <time>2022-10-10T13:16:59Z</time>
      </trkpt>
      <trkpt lat="47.20374" lon="6.13084">
        <ele>433.235</ele>
        <time>2022-10-10T13:17:00Z</time>
      </trkpt>
      <trkpt lat="47.20375" lon="6.13089">
        <ele>433.268</ele>
        <time>2022-10-10T13:17:01Z</time>
      </trkpt>
      <trkpt lat="47.20375" lon="6.13093">
        <ele>433.444</ele>
        <time>2022-10-10T13:17:02Z</time>
      </trkpt>
      <trkpt lat="47.20373" lon="6.131">
        <ele>433.67</ele>
        <time>2022-10-10T13:17:03Z</time>
      </trkpt>
      <trkpt lat="47.20371" lon="6.13105">
        <ele>433.65</ele>
        <time>2022-10-10T13:17:04Z</time>
      </trkpt>
      <trkpt lat="47.20369" lon="6.1311">
        <ele>433.634</ele>
        <time>2022-10-10T13:17:05Z</time>
      </trkpt>
      <trkpt lat="47.20366" lon="6.13116">
        <ele>433.643</ele>
        <time>2022-10-10T13:17:06Z</time>
      </trkpt>
      <trkpt lat="47.20364" lon="6.13122">
        <ele>433.664</ele>
        <time>2022-10-10T13:17:07Z</time>
      </trkpt>
      <trkpt lat="47.20362" lon="6.13129">
        <ele>433.81</ele>
        <time>2022-10-10T13:17:08Z</time>
      </trkpt>
      <trkpt lat="47.20359" lon="6.13137">
        <ele>433.809</ele>
        <time>2022-10-10T13:17:09Z</time>
      </trkpt>
      <trkpt lat="47.20356" lon="6.13143">
        <ele>433.835</ele>
        <time>2022-10-10T13:17:10Z</time>
      </trkpt>
      <trkpt lat="47.20354" lon="6.13149">
        <ele>433.885</ele>
        <time>2022-10-10T13:17:11Z</time>
      </trkpt>
      <trkpt lat="47.2035" lon="6.13158">
        <ele>433.859</ele>
        <time>2022-10-10T13:17:12Z</time>
      </trkpt>
      <trkpt lat="47.20348" lon="6.13166">
        <ele>433.843</ele>
        <time>2022-10-10T13:17:13Z</time>
      </trkpt>
      <trkpt lat="47.20346" lon="6.13174">
        <ele>433.866</ele>
        <time>2022-10-10T13:17:14Z</time>
      </trkpt>
      <trkpt lat="47.20341" lon="6.13187">
        <ele>433.812</ele>
        <time>2022-10-10T13:17:16Z</time>
      </trkpt>
      <trkpt lat="47.20335" lon="6.13205">
        <ele>434.028</ele>
        <time>2022-10-10T13:17:18Z</time>
      </trkpt>
      <trkpt lat="47.20334" lon="6.13213">
        <ele>434.038</ele>
        <time>2022-10-10T13:17:19Z</time>
      </trkpt>
      <trkpt lat="47.20332" lon="6.13219">
        <ele>434.282</ele>
        <time>2022-10-10T13:17:20Z</time>
      </trkpt>
      <trkpt lat="47.2033" lon="6.13229">
        <ele>434.239</ele>
        <time>2022-10-10T13:17:21Z</time>
      </trkpt>
      <trkpt lat="47.20326" lon="6.13245">
        <ele>434.601</ele>
        <time>2022-10-10T13:17:23Z</time>
      </trkpt>
      <trkpt lat="47.20322" lon="6.1326">
        <ele>435.021</ele>
        <time>2022-10-10T13:17:25Z</time>
      </trkpt>
      <trkpt lat="47.20321" lon="6.13266">
        <ele>435.009</ele>
        <time>2022-10-10T13:17:26Z</time>
      </trkpt>
      <trkpt lat="47.20319" lon="6.13275">
        <ele>436.064</ele>
        <time>2022-10-10T13:17:27Z</time>
      </trkpt>
      <trkpt lat="47.20313" lon="6.13298">
        <ele>436.664</ele>
        <time>2022-10-10T13:17:30Z</time>
      </trkpt>
      <trkpt lat="47.20311" lon="6.13306">
        <ele>436.858</ele>
        <time>2022-10-10T13:17:31Z</time>
      </trkpt>
      <trkpt lat="47.20309" lon="6.13314">
        <ele>437.042</ele>
        <time>2022-10-10T13:17:32Z</time>
      </trkpt>
      <trkpt lat="47.20308" lon="6.13321">
        <ele>437.045</ele>
        <time>2022-10-10T13:17:33Z</time>
      </trkpt>
      <trkpt lat="47.20305" lon="6.1333">
        <ele>437.081</ele>
        <time>2022-10-10T13:17:34Z</time>
      </trkpt>
      <trkpt lat="47.20304" lon="6.13337">
        <ele>437.637</ele>
        <time>2022-10-10T13:17:35Z</time>
      </trkpt>
      <trkpt lat="47.20302" lon="6.13345">
        <ele>437.657</ele>
        <time>2022-10-10T13:17:36Z</time>
      </trkpt>
      <trkpt lat="47.20301" lon="6.13351">
        <ele>437.671</ele>
        <time>2022-10-10T13:17:37Z</time>
      </trkpt>
      <trkpt lat="47.20299" lon="6.1336">
        <ele>437.857</ele>
        <time>2022-10-10T13:17:38Z</time>
      </trkpt>
      <trkpt lat="47.20297" lon="6.13368">
        <ele>437.8</ele>
        <time>2022-10-10T13:17:39Z</time>
      </trkpt>
      <trkpt lat="47.20295" lon="6.13375">
        <ele>437.82</ele>
        <time>2022-10-10T13:17:40Z</time>
      </trkpt>
      <trkpt lat="47.20294" lon="6.13382">
        <ele>438.009</ele>
        <time>2022-10-10T13:17:41Z</time>
      </trkpt>
      <trkpt lat="47.20292" lon="6.13389">
        <ele>438.086</ele>
        <time>2022-10-10T13:17:42Z</time>
      </trkpt>
      <trkpt lat="47.20291" lon="6.13397">
        <ele>438.026</ele>
        <time>2022-10-10T13:17:43Z</time>
      </trkpt>
      <trkpt lat="47.20289" lon="6.13405">
        <ele>438.26</ele>
        <time>2022-10-10T13:17:44Z</time>
      </trkpt>
      <trkpt lat="47.20287" lon="6.13413">
        <ele>438.434</ele>
        <time>2022-10-10T13:17:45Z</time>
      </trkpt>
      <trkpt lat="47.20286" lon="6.13418">
        <ele>438.457</ele>
        <time>2022-10-10T13:17:46Z</time>
      </trkpt>
      <trkpt lat="47.20284" lon="6.13426">
        <ele>438.653</ele>
        <time>2022-10-10T13:17:47Z</time>
      </trkpt>
      <trkpt lat="47.20283" lon="6.13434">
        <ele>438.469</ele>
        <time>2022-10-10T13:17:48Z</time>
      </trkpt>
      <trkpt lat="47.20281" lon="6.13441">
        <ele>438.239</ele>
        <time>2022-10-10T13:17:49Z</time>
      </trkpt>
      <trkpt lat="47.2028" lon="6.13447">
        <ele>438.213</ele>
        <time>2022-10-10T13:17:50Z</time>
      </trkpt>
      <trkpt lat="47.20278" lon="6.13454">
        <ele>438.265</ele>
        <time>2022-10-10T13:17:51Z</time>
      </trkpt>
      <trkpt lat="47.20277" lon="6.13464">
        <ele>438.268</ele>
        <time>2022-10-10T13:17:52Z</time>
      </trkpt>
      <trkpt lat="47.20275" lon="6.13471">
        <ele>438.614</ele>
        <time>2022-10-10T13:17:53Z</time>
      </trkpt>
      <trkpt lat="47.20274" lon="6.13478">
        <ele>438.409</ele>
        <time>2022-10-10T13:17:54Z</time>
      </trkpt>
      <trkpt lat="47.20273" lon="6.13484">
        <ele>438.647</ele>
        <time>2022-10-10T13:17:55Z</time>
      </trkpt>
      <trkpt lat="47.20264" lon="6.1353">
        <ele>437.627</ele>
        <time>2022-10-10T13:18:01Z</time>
      </trkpt>
      <trkpt lat="47.20262" lon="6.13538">
        <ele>437.061</ele>
        <time>2022-10-10T13:18:02Z</time>
      </trkpt>
      <trkpt lat="47.20259" lon="6.13554">
        <ele>436.225</ele>
        <time>2022-10-10T13:18:04Z</time>
      </trkpt>
      <trkpt lat="47.20254" lon="6.13571">
        <ele>435.098</ele>
        <time>2022-10-10T13:18:06Z</time>
      </trkpt>
      <trkpt lat="47.20251" lon="6.13579">
        <ele>434.244</ele>
        <time>2022-10-10T13:18:07Z</time>
      </trkpt>
      <trkpt lat="47.20248" lon="6.13587">
        <ele>433.48</ele>
        <time>2022-10-10T13:18:08Z</time>
      </trkpt>
      <trkpt lat="47.20245" lon="6.13594">
        <ele>432.66</ele>
        <time>2022-10-10T13:18:09Z</time>
      </trkpt>
      <trkpt lat="47.20243" lon="6.13601">
        <ele>431.854</ele>
        <time>2022-10-10T13:18:10Z</time>
      </trkpt>
      <trkpt lat="47.20241" lon="6.13606">
        <ele>431.647</ele>
        <time>2022-10-10T13:18:11Z</time>
      </trkpt>
      <trkpt lat="47.2024" lon="6.1361">
        <ele>431.429</ele>
        <time>2022-10-10T13:18:12Z</time>
      </trkpt>
      <trkpt lat="47.2024" lon="6.13612">
        <ele>431.421</ele>
        <time>2022-10-10T13:18:13Z</time>
      </trkpt>
      <trkpt lat="47.20239" lon="6.13612">
        <ele>431.409</ele>
        <time>2022-10-10T13:18:14Z</time>
      </trkpt>
      <trkpt lat="47.20239" lon="6.13612">
        <ele>431.425</ele>
        <time>2022-10-10T13:18:15Z</time>
      </trkpt>
      <trkpt lat="47.2024" lon="6.13613">
        <ele>431.425</ele>
        <time>2022-10-10T13:18:16Z</time>
      </trkpt>
      <trkpt lat="47.20241" lon="6.13613">
        <ele>431.439</ele>
        <time>2022-10-10T13:18:17Z</time>
      </trkpt>
      <trkpt lat="47.20241" lon="6.13613">
        <ele>431.293</ele>
        <time>2022-10-10T13:18:18Z</time>
      </trkpt>
      <trkpt lat="47.20241" lon="6.13613">
        <ele>431.276</ele>
        <time>2022-10-10T13:18:19Z</time>
      </trkpt>
      <trkpt lat="47.20241" lon="6.13613">
        <ele>431.222</ele>
        <time>2022-10-10T13:18:20Z</time>
      </trkpt>
      <trkpt lat="47.20241" lon="6.13613">
        <ele>431.058</ele>
        <time>2022-10-10T13:18:24Z</time>
      </trkpt>
      <trkpt lat="47.20241" lon="6.13613">
        <ele>430.818</ele>
        <time>2022-10-10T13:18:41Z</time>
      </trkpt>
      <trkpt lat="47.20243" lon="6.13614">
        <ele>430.642</ele>
        <time>2022-10-10T13:18:45Z</time>
      </trkpt>
      <trkpt lat="47.20244" lon="6.13614">
        <ele>430.627</ele>
        <time>2022-10-10T13:18:47Z</time>
      </trkpt>
      <trkpt lat="47.20244" lon="6.13614">
        <ele>430.668</ele>
        <time>2022-10-10T13:18:48Z</time>
      </trkpt>
      <trkpt lat="47.20244" lon="6.13614">
        <ele>430.614</ele>
        <time>2022-10-10T13:18:49Z</time>
      </trkpt>
      <trkpt lat="47.20244" lon="6.13614">
        <ele>430.609</ele>
        <time>2022-10-10T13:18:50Z</time>
      </trkpt>
      <trkpt lat="47.20244" lon="6.13614">
        <ele>430.653</ele>
        <time>2022-10-10T13:18:51Z</time>
      </trkpt>
      <trkpt lat="47.20246" lon="6.13612">
        <ele>430.663</ele>
        <time>2022-10-10T13:18:52Z</time>
      </trkpt>
      <trkpt lat="47.2025" lon="6.13608">
        <ele>430.667</ele>
        <time>2022-10-10T13:18:56Z</time>
      </trkpt>
      <trkpt lat="47.20262" lon="6.13611">
        <ele>430.621</ele>
        <time>2022-10-10T13:18:58Z</time>
      </trkpt>
      <trkpt lat="47.20263" lon="6.13611">
        <ele>430.674</ele>
        <time>2022-10-10T13:18:59Z</time>
      </trkpt>
      <trkpt lat="47.20267" lon="6.13638">
        <ele>430.86</ele>
        <time>2022-10-10T13:19:02Z</time>
      </trkpt>
      <trkpt lat="47.20269" lon="6.13642">
        <ele>430.846</ele>
        <time>2022-10-10T13:19:03Z</time>
      </trkpt>
      <trkpt lat="47.2027" lon="6.13647">
        <ele>431.036</ele>
        <time>2022-10-10T13:19:04Z</time>
      </trkpt>
      <trkpt lat="47.20271" lon="6.13651">
        <ele>431.02</ele>
        <time>2022-10-10T13:19:05Z</time>
      </trkpt>
      <trkpt lat="47.20271" lon="6.13659">
        <ele>431.671</ele>
        <time>2022-10-10T13:19:07Z</time>
      </trkpt>
      <trkpt lat="47.2027" lon="6.13664">
        <ele>432.041</ele>
        <time>2022-10-10T13:19:08Z</time>
      </trkpt>
      <trkpt lat="47.20269" lon="6.13668">
        <ele>432.215</ele>
        <time>2022-10-10T13:19:09Z</time>
      </trkpt>
      <trkpt lat="47.20268" lon="6.13671">
        <ele>432.409</ele>
        <time>2022-10-10T13:19:10Z</time>
      </trkpt>
      <trkpt lat="47.20266" lon="6.13675">
        <ele>432.618</ele>
        <time>2022-10-10T13:19:11Z</time>
      </trkpt>
      <trkpt lat="47.20263" lon="6.13679">
        <ele>432.878</ele>
        <time>2022-10-10T13:19:12Z</time>
      </trkpt>
      <trkpt lat="47.20259" lon="6.13686">
        <ele>433.822</ele>
        <time>2022-10-10T13:19:14Z</time>
      </trkpt>
      <trkpt lat="47.20257" lon="6.1369">
        <ele>433.876</ele>
        <time>2022-10-10T13:19:15Z</time>
      </trkpt>
      <trkpt lat="47.20256" lon="6.13695">
        <ele>433.849</ele>
        <time>2022-10-10T13:19:16Z</time>
      </trkpt>
      <trkpt lat="47.20255" lon="6.13699">
        <ele>434.065</ele>
        <time>2022-10-10T13:19:17Z</time>
      </trkpt>
      <trkpt lat="47.20256" lon="6.13703">
        <ele>434.011</ele>
        <time>2022-10-10T13:19:18Z</time>
      </trkpt>
      <trkpt lat="47.20258" lon="6.13708">
        <ele>434.031</ele>
        <time>2022-10-10T13:19:19Z</time>
      </trkpt>
      <trkpt lat="47.20261" lon="6.13712">
        <ele>434.055</ele>
        <time>2022-10-10T13:19:20Z</time>
      </trkpt>
      <trkpt lat="47.20263" lon="6.13715">
        <ele>434.082</ele>
        <time>2022-10-10T13:19:21Z</time>
      </trkpt>
      <trkpt lat="47.20267" lon="6.13718">
        <ele>434.043</ele>
        <time>2022-10-10T13:19:22Z</time>
      </trkpt>
      <trkpt lat="47.2027" lon="6.13722">
        <ele>433.817</ele>
        <time>2022-10-10T13:19:23Z</time>
      </trkpt>
      <trkpt lat="47.20274" lon="6.13726">
        <ele>433.809</ele>
        <time>2022-10-10T13:19:24Z</time>
      </trkpt>
      <trkpt lat="47.20278" lon="6.1373">
        <ele>433.859</ele>
        <time>2022-10-10T13:19:25Z</time>
      </trkpt>
      <trkpt lat="47.20281" lon="6.13734">
        <ele>433.839</ele>
        <time>2022-10-10T13:19:26Z</time>
      </trkpt>
      <trkpt lat="47.20285" lon="6.13739">
        <ele>433.823</ele>
        <time>2022-10-10T13:19:27Z</time>
      </trkpt>
      <trkpt lat="47.2029" lon="6.13744">
        <ele>434.017</ele>
        <time>2022-10-10T13:19:28Z</time>
      </trkpt>
      <trkpt lat="47.20293" lon="6.13748">
        <ele>433.88</ele>
        <time>2022-10-10T13:19:29Z</time>
      </trkpt>
      <trkpt lat="47.20297" lon="6.13753">
        <ele>433.866</ele>
        <time>2022-10-10T13:19:30Z</time>
      </trkpt>
      <trkpt lat="47.20319" lon="6.13778">
        <ele>433.212</ele>
        <time>2022-10-10T13:19:35Z</time>
      </trkpt>
      <trkpt lat="47.20328" lon="6.13786">
        <ele>433.282</ele>
        <time>2022-10-10T13:19:37Z</time>
      </trkpt>
      <trkpt lat="47.20342" lon="6.13799">
        <ele>433.616</ele>
        <time>2022-10-10T13:19:40Z</time>
      </trkpt>
      <trkpt lat="47.20346" lon="6.13805">
        <ele>433.692</ele>
        <time>2022-10-10T13:19:41Z</time>
      </trkpt>
      <trkpt lat="47.20354" lon="6.13815">
        <ele>433.673</ele>
        <time>2022-10-10T13:19:43Z</time>
      </trkpt>
      <trkpt lat="47.20363" lon="6.13824">
        <ele>433.62</ele>
        <time>2022-10-10T13:19:45Z</time>
      </trkpt>
      <trkpt lat="47.20374" lon="6.13839">
        <ele>433.209</ele>
        <time>2022-10-10T13:19:48Z</time>
      </trkpt>
      <trkpt lat="47.20378" lon="6.13843">
        <ele>433.48</ele>
        <time>2022-10-10T13:19:49Z</time>
      </trkpt>
      <trkpt lat="47.20395" lon="6.13859">
        <ele>434.02</ele>
        <time>2022-10-10T13:19:53Z</time>
      </trkpt>
      <trkpt lat="47.20404" lon="6.13867">
        <ele>434.084</ele>
        <time>2022-10-10T13:19:55Z</time>
      </trkpt>
      <trkpt lat="47.20408" lon="6.13871">
        <ele>434.038</ele>
        <time>2022-10-10T13:19:56Z</time>
      </trkpt>
      <trkpt lat="47.20413" lon="6.13875">
        <ele>434.031</ele>
        <time>2022-10-10T13:19:57Z</time>
      </trkpt>
      <trkpt lat="47.20417" lon="6.1388">
        <ele>434.077</ele>
        <time>2022-10-10T13:19:58Z</time>
      </trkpt>
      <trkpt lat="47.20421" lon="6.13885">
        <ele>434.043</ele>
        <time>2022-10-10T13:19:59Z</time>
      </trkpt>
      <trkpt lat="47.20425" lon="6.13889">
        <ele>434.083</ele>
        <time>2022-10-10T13:20:00Z</time>
      </trkpt>
      <trkpt lat="47.20429" lon="6.13893">
        <ele>434.077</ele>
        <time>2022-10-10T13:20:01Z</time>
      </trkpt>
      <trkpt lat="47.20433" lon="6.13897">
        <ele>434.081</ele>
        <time>2022-10-10T13:20:02Z</time>
      </trkpt>
      <trkpt lat="47.20437" lon="6.139">
        <ele>434.061</ele>
        <time>2022-10-10T13:20:03Z</time>
      </trkpt>
      <trkpt lat="47.2044" lon="6.13904">
        <ele>433.417</ele>
        <time>2022-10-10T13:20:04Z</time>
      </trkpt>
      <trkpt lat="47.20444" lon="6.13908">
        <ele>433.409</ele>
        <time>2022-10-10T13:20:05Z</time>
      </trkpt>
      <trkpt lat="47.20447" lon="6.13911">
        <ele>433.029</ele>
        <time>2022-10-10T13:20:06Z</time>
      </trkpt>
      <trkpt lat="47.20451" lon="6.13914">
        <ele>433.219</ele>
        <time>2022-10-10T13:20:07Z</time>
      </trkpt>
      <trkpt lat="47.20457" lon="6.13921">
        <ele>433.053</ele>
        <time>2022-10-10T13:20:09Z</time>
      </trkpt>
      <trkpt lat="47.20471" lon="6.13936">
        <ele>433.267</ele>
        <time>2022-10-10T13:20:13Z</time>
      </trkpt>
      <trkpt lat="47.20475" lon="6.13939">
        <ele>433.87</ele>
        <time>2022-10-10T13:20:14Z</time>
      </trkpt>
      <trkpt lat="47.20482" lon="6.13947">
        <ele>433.856</ele>
        <time>2022-10-10T13:20:16Z</time>
      </trkpt>
      <trkpt lat="47.20485" lon="6.13949">
        <ele>433.872</ele>
        <time>2022-10-10T13:20:17Z</time>
      </trkpt>
      <trkpt lat="47.20518" lon="6.1398">
        <ele>432.872</ele>
        <time>2022-10-10T13:20:25Z</time>
      </trkpt>
      <trkpt lat="47.20523" lon="6.13983">
        <ele>432.496</ele>
        <time>2022-10-10T13:20:26Z</time>
      </trkpt>
      <trkpt lat="47.20532" lon="6.1399">
        <ele>432.482</ele>
        <time>2022-10-10T13:20:28Z</time>
      </trkpt>
      <trkpt lat="47.20536" lon="6.13994">
        <ele>432.243</ele>
        <time>2022-10-10T13:20:29Z</time>
      </trkpt>
      <trkpt lat="47.20541" lon="6.13998">
        <ele>432.017</ele>
        <time>2022-10-10T13:20:30Z</time>
      </trkpt>
      <trkpt lat="47.20549" lon="6.14007">
        <ele>432.009</ele>
        <time>2022-10-10T13:20:32Z</time>
      </trkpt>
      <trkpt lat="47.20553" lon="6.14011">
        <ele>432.069</ele>
        <time>2022-10-10T13:20:33Z</time>
      </trkpt>
      <trkpt lat="47.20564" lon="6.14025">
        <ele>432.079</ele>
        <time>2022-10-10T13:20:36Z</time>
      </trkpt>
      <trkpt lat="47.20567" lon="6.1403">
        <ele>432.073</ele>
        <time>2022-10-10T13:20:37Z</time>
      </trkpt>
      <trkpt lat="47.20578" lon="6.14046">
        <ele>432.087</ele>
        <time>2022-10-10T13:20:40Z</time>
      </trkpt>
      <trkpt lat="47.20585" lon="6.14056">
        <ele>431.87</ele>
        <time>2022-10-10T13:20:42Z</time>
      </trkpt>
      <trkpt lat="47.20589" lon="6.1406">
        <ele>431.866</ele>
        <time>2022-10-10T13:20:43Z</time>
      </trkpt>
      <trkpt lat="47.20598" lon="6.14068">
        <ele>432.282</ele>
        <time>2022-10-10T13:20:45Z</time>
      </trkpt>
      <trkpt lat="47.20625" lon="6.14098">
        <ele>432.212</ele>
        <time>2022-10-10T13:20:52Z</time>
      </trkpt>
      <trkpt lat="47.20628" lon="6.14102">
        <ele>431.846</ele>
        <time>2022-10-10T13:20:53Z</time>
      </trkpt>
      <trkpt lat="47.20631" lon="6.14107">
        <ele>431.676</ele>
        <time>2022-10-10T13:20:54Z</time>
      </trkpt>
      <trkpt lat="47.20638" lon="6.14117">
        <ele>431.49</ele>
        <time>2022-10-10T13:20:56Z</time>
      </trkpt>
      <trkpt lat="47.20642" lon="6.14123">
        <ele>431.419</ele>
        <time>2022-10-10T13:20:57Z</time>
      </trkpt>
      <trkpt lat="47.20645" lon="6.14129">
        <ele>431.409</ele>
        <time>2022-10-10T13:20:58Z</time>
      </trkpt>
      <trkpt lat="47.20651" lon="6.14142">
        <ele>431.248</ele>
        <time>2022-10-10T13:21:00Z</time>
      </trkpt>
      <trkpt lat="47.20653" lon="6.14149">
        <ele>431.248</ele>
        <time>2022-10-10T13:21:01Z</time>
      </trkpt>
      <trkpt lat="47.20654" lon="6.14156">
        <ele>431.262</ele>
        <time>2022-10-10T13:21:02Z</time>
      </trkpt>
      <trkpt lat="47.20656" lon="6.14162">
        <ele>431.276</ele>
        <time>2022-10-10T13:21:03Z</time>
      </trkpt>
      <trkpt lat="47.2066" lon="6.14181">
        <ele>432.019</ele>
        <time>2022-10-10T13:21:06Z</time>
      </trkpt>
      <trkpt lat="47.20662" lon="6.14186">
        <ele>432.045</ele>
        <time>2022-10-10T13:21:07Z</time>
      </trkpt>
      <trkpt lat="47.20664" lon="6.14192">
        <ele>432.221</ele>
        <time>2022-10-10T13:21:08Z</time>
      </trkpt>
      <trkpt lat="47.20668" lon="6.14203">
        <ele>432.241</ele>
        <time>2022-10-10T13:21:10Z</time>
      </trkpt>
      <trkpt lat="47.20672" lon="6.14208">
        <ele>432.245</ele>
        <time>2022-10-10T13:21:11Z</time>
      </trkpt>
      <trkpt lat="47.20694" lon="6.14232">
        <ele>432.042</ele>
        <time>2022-10-10T13:21:16Z</time>
      </trkpt>
      <trkpt lat="47.20703" lon="6.14242">
        <ele>432.022</ele>
        <time>2022-10-10T13:21:18Z</time>
      </trkpt>
      <trkpt lat="47.20724" lon="6.14265">
        <ele>431.414</ele>
        <time>2022-10-10T13:21:23Z</time>
      </trkpt>
      <trkpt lat="47.20734" lon="6.14274">
        <ele>431.409</ele>
        <time>2022-10-10T13:21:25Z</time>
      </trkpt>
      <trkpt lat="47.20749" lon="6.14283">
        <ele>430.885</ele>
        <time>2022-10-10T13:21:28Z</time>
      </trkpt>
      <trkpt lat="47.20755" lon="6.14284">
        <ele>430.815</ele>
        <time>2022-10-10T13:21:29Z</time>
      </trkpt>
      <trkpt lat="47.2076" lon="6.14286">
        <ele>430.869</ele>
        <time>2022-10-10T13:21:30Z</time>
      </trkpt>
      <trkpt lat="47.20765" lon="6.14287">
        <ele>430.833</ele>
        <time>2022-10-10T13:21:31Z</time>
      </trkpt>
      <trkpt lat="47.2077" lon="6.14288">
        <ele>430.836</ele>
        <time>2022-10-10T13:21:32Z</time>
      </trkpt>
      <trkpt lat="47.20774" lon="6.1429">
        <ele>431.232</ele>
        <time>2022-10-10T13:21:33Z</time>
      </trkpt>
      <trkpt lat="47.20778" lon="6.14291">
        <ele>431.238</ele>
        <time>2022-10-10T13:21:34Z</time>
      </trkpt>
      <trkpt lat="47.20797" lon="6.14298">
        <ele>431.288</ele>
        <time>2022-10-10T13:21:38Z</time>
      </trkpt>
      <trkpt lat="47.20803" lon="6.14301">
        <ele>430.812</ele>
        <time>2022-10-10T13:21:39Z</time>
      </trkpt>
      <trkpt lat="47.20808" lon="6.14304">
        <ele>430.062</ele>
        <time>2022-10-10T13:21:40Z</time>
      </trkpt>
      <trkpt lat="47.20813" lon="6.14307">
        <ele>429.683</ele>
        <time>2022-10-10T13:21:41Z</time>
      </trkpt>
      <trkpt lat="47.20818" lon="6.1431">
        <ele>429.611</ele>
        <time>2022-10-10T13:21:42Z</time>
      </trkpt>
      <trkpt lat="47.20822" lon="6.14314">
        <ele>429.409</ele>
        <time>2022-10-10T13:21:43Z</time>
      </trkpt>
      <trkpt lat="47.20826" lon="6.14316">
        <ele>429.257</ele>
        <time>2022-10-10T13:21:44Z</time>
      </trkpt>
      <trkpt lat="47.2083" lon="6.14318">
        <ele>429.287</ele>
        <time>2022-10-10T13:21:45Z</time>
      </trkpt>
      <trkpt lat="47.20833" lon="6.14321">
        <ele>429.481</ele>
        <time>2022-10-10T13:21:46Z</time>
      </trkpt>
      <trkpt lat="47.20836" lon="6.14324">
        <ele>429.475</ele>
        <time>2022-10-10T13:21:47Z</time>
      </trkpt>
      <trkpt lat="47.20839" lon="6.14326">
        <ele>429.648</ele>
        <time>2022-10-10T13:21:48Z</time>
      </trkpt>
      <trkpt lat="47.20841" lon="6.14329">
        <ele>429.654</ele>
        <time>2022-10-10T13:21:49Z</time>
      </trkpt>
      <trkpt lat="47.20843" lon="6.14331">
        <ele>429.63</ele>
        <time>2022-10-10T13:21:50Z</time>
      </trkpt>
      <trkpt lat="47.20845" lon="6.14333">
        <ele>429.64</ele>
        <time>2022-10-10T13:21:51Z</time>
      </trkpt>
      <trkpt lat="47.20846" lon="6.14333">
        <ele>429.614</ele>
        <time>2022-10-10T13:21:52Z</time>
      </trkpt>
      <trkpt lat="47.20846" lon="6.14333">
        <ele>429.646</ele>
        <time>2022-10-10T13:21:53Z</time>
      </trkpt>
      <trkpt lat="47.20846" lon="6.14333">
        <ele>429.688</ele>
        <time>2022-10-10T13:21:54Z</time>
      </trkpt>
      <trkpt lat="47.20846" lon="6.14333">
        <ele>429.616</ele>
        <time>2022-10-10T13:22:04Z</time>
      </trkpt>
      <trkpt lat="47.20846" lon="6.14333">
        <ele>429.609</ele>
        <time>2022-10-10T13:22:09Z</time>
      </trkpt>
      <trkpt lat="47.20846" lon="6.14333">
        <ele>429.665</ele>
        <time>2022-10-10T13:22:24Z</time>
      </trkpt>
      <trkpt lat="47.20846" lon="6.14333">
        <ele>429.665</ele>
        <time>2022-10-10T13:22:27Z</time>
      </trkpt>
      <trkpt lat="47.20852" lon="6.14331">
        <ele>429.639</ele>
        <time>2022-10-10T13:22:29Z</time>
      </trkpt>
      <trkpt lat="47.20859" lon="6.14323">
        <ele>429.083</ele>
        <time>2022-10-10T13:22:31Z</time>
      </trkpt>
      <trkpt lat="47.20862" lon="6.14319">
        <ele>429.086</ele>
        <time>2022-10-10T13:22:32Z</time>
      </trkpt>
      <trkpt lat="47.20866" lon="6.14313">
        <ele>428.852</ele>
        <time>2022-10-10T13:22:33Z</time>
      </trkpt>
      <trkpt lat="47.2088" lon="6.14294">
        <ele>428.078</ele>
        <time>2022-10-10T13:22:37Z</time>
      </trkpt>
      <trkpt lat="47.20888" lon="6.14283">
        <ele>428.038</ele>
        <time>2022-10-10T13:22:39Z</time>
      </trkpt>
      <trkpt lat="47.20901" lon="6.14268">
        <ele>428.032</ele>
        <time>2022-10-10T13:22:42Z</time>
      </trkpt>
      <trkpt lat="47.20913" lon="6.14249">
        <ele>427.826</ele>
        <time>2022-10-10T13:22:45Z</time>
      </trkpt>
      <trkpt lat="47.20945" lon="6.14205">
        <ele>428.247</ele>
        <time>2022-10-10T13:22:52Z</time>
      </trkpt>
      <trkpt lat="47.20954" lon="6.14193">
        <ele>428.211</ele>
        <time>2022-10-10T13:22:54Z</time>
      </trkpt>
      <trkpt lat="47.20962" lon="6.1418">
        <ele>428.409</ele>
        <time>2022-10-10T13:22:56Z</time>
      </trkpt>
      <trkpt lat="47.20971" lon="6.14167">
        <ele>428.873</ele>
        <time>2022-10-10T13:22:58Z</time>
      </trkpt>
      <trkpt lat="47.2098" lon="6.14155">
        <ele>429.233</ele>
        <time>2022-10-10T13:23:00Z</time>
      </trkpt>
      <trkpt lat="47.20984" lon="6.14149">
        <ele>429.457</ele>
        <time>2022-10-10T13:23:01Z</time>
      </trkpt>
      <trkpt lat="47.20989" lon="6.14141">
        <ele>429.431</ele>
        <time>2022-10-10T13:23:02Z</time>
      </trkpt>
      <trkpt lat="47.20992" lon="6.14137">
        <ele>429.884</ele>
        <time>2022-10-10T13:23:03Z</time>
      </trkpt>
      <trkpt lat="47.20996" lon="6.14131">
        <ele>430.44</ele>
        <time>2022-10-10T13:23:04Z</time>
      </trkpt>
      <trkpt lat="47.21" lon="6.14126">
        <ele>430.476</ele>
        <time>2022-10-10T13:23:05Z</time>
      </trkpt>
      <trkpt lat="47.21004" lon="6.14121">
        <ele>431.266</ele>
        <time>2022-10-10T13:23:06Z</time>
      </trkpt>
      <trkpt lat="47.21007" lon="6.14116">
        <ele>431.43</ele>
        <time>2022-10-10T13:23:07Z</time>
      </trkpt>
      <trkpt lat="47.21011" lon="6.14111">
        <ele>431.639</ele>
        <time>2022-10-10T13:23:08Z</time>
      </trkpt>
      <trkpt lat="47.21018" lon="6.14101">
        <ele>432.001</ele>
        <time>2022-10-10T13:23:10Z</time>
      </trkpt>
      <trkpt lat="47.21021" lon="6.14096">
        <ele>432.221</ele>
        <time>2022-10-10T13:23:11Z</time>
      </trkpt>
      <trkpt lat="47.21024" lon="6.14091">
        <ele>432.609</ele>
        <time>2022-10-10T13:23:12Z</time>
      </trkpt>
      <trkpt lat="47.21028" lon="6.14087">
        <ele>433.294</ele>
        <time>2022-10-10T13:23:13Z</time>
      </trkpt>
      <trkpt lat="47.21031" lon="6.14083">
        <ele>433.634</ele>
        <time>2022-10-10T13:23:14Z</time>
      </trkpt>
      <trkpt lat="47.21034" lon="6.14081">
        <ele>433.838</ele>
        <time>2022-10-10T13:23:15Z</time>
      </trkpt>
      <trkpt lat="47.21037" lon="6.14082">
        <ele>433.842</ele>
        <time>2022-10-10T13:23:16Z</time>
      </trkpt>
      <trkpt lat="47.21039" lon="6.14085">
        <ele>434.645</ele>
        <time>2022-10-10T13:23:17Z</time>
      </trkpt>
      <trkpt lat="47.21041" lon="6.14089">
        <ele>434.641</ele>
        <time>2022-10-10T13:23:18Z</time>
      </trkpt>
      <trkpt lat="47.21042" lon="6.14093">
        <ele>434.647</ele>
        <time>2022-10-10T13:23:19Z</time>
      </trkpt>
      <trkpt lat="47.21044" lon="6.14098">
        <ele>434.627</ele>
        <time>2022-10-10T13:23:20Z</time>
      </trkpt>
      <trkpt lat="47.21046" lon="6.14102">
        <ele>434.611</ele>
        <time>2022-10-10T13:23:21Z</time>
      </trkpt>
      <trkpt lat="47.21048" lon="6.14105">
        <ele>434.636</ele>
        <time>2022-10-10T13:23:22Z</time>
      </trkpt>
      <trkpt lat="47.21051" lon="6.1411">
        <ele>434.617</ele>
        <time>2022-10-10T13:23:23Z</time>
      </trkpt>
      <trkpt lat="47.21053" lon="6.14115">
        <ele>434.618</ele>
        <time>2022-10-10T13:23:24Z</time>
      </trkpt>
      <trkpt lat="47.21056" lon="6.1412">
        <ele>434.609</ele>
        <time>2022-10-10T13:23:25Z</time>
      </trkpt>
      <trkpt lat="47.21059" lon="6.14126">
        <ele>434.444</ele>
        <time>2022-10-10T13:23:26Z</time>
      </trkpt>
      <trkpt lat="47.21063" lon="6.14132">
        <ele>434.094</ele>
        <time>2022-10-10T13:23:27Z</time>
      </trkpt>
      <trkpt lat="47.21068" lon="6.14139">
        <ele>433.878</ele>
        <time>2022-10-10T13:23:28Z</time>
      </trkpt>
      <trkpt lat="47.21071" lon="6.14145">
        <ele>433.452</ele>
        <time>2022-10-10T13:23:29Z</time>
      </trkpt>
      <trkpt lat="47.21074" lon="6.1415">
        <ele>433.455</ele>
        <time>2022-10-10T13:23:30Z</time>
      </trkpt>
      <trkpt lat="47.21078" lon="6.14156">
        <ele>433.231</ele>
        <time>2022-10-10T13:23:31Z</time>
      </trkpt>
      <trkpt lat="47.21082" lon="6.14161">
        <ele>433.047</ele>
        <time>2022-10-10T13:23:32Z</time>
      </trkpt>
      <trkpt lat="47.21086" lon="6.14167">
        <ele>433.057</ele>
        <time>2022-10-10T13:23:33Z</time>
      </trkpt>
      <trkpt lat="47.2109" lon="6.14172">
        <ele>432.671</ele>
        <time>2022-10-10T13:23:34Z</time>
      </trkpt>
      <trkpt lat="47.21094" lon="6.14178">
        <ele>432.647</ele>
        <time>2022-10-10T13:23:35Z</time>
      </trkpt>
      <trkpt lat="47.21098" lon="6.14183">
        <ele>432.629</ele>
        <time>2022-10-10T13:23:36Z</time>
      </trkpt>
      <trkpt lat="47.21101" lon="6.14188">
        <ele>432.421</ele>
        <time>2022-10-10T13:23:37Z</time>
      </trkpt>
      <trkpt lat="47.21105" lon="6.14192">
        <ele>432.009</ele>
        <time>2022-10-10T13:23:38Z</time>
      </trkpt>
      <trkpt lat="47.21108" lon="6.14196">
        <ele>432.475</ele>
        <time>2022-10-10T13:23:39Z</time>
      </trkpt>
      <trkpt lat="47.21112" lon="6.14201">
        <ele>432.445</ele>
        <time>2022-10-10T13:23:40Z</time>
      </trkpt>
      <trkpt lat="47.21115" lon="6.14206">
        <ele>432.479</ele>
        <time>2022-10-10T13:23:41Z</time>
      </trkpt>
      <trkpt lat="47.21121" lon="6.14215">
        <ele>432.073</ele>
        <time>2022-10-10T13:23:43Z</time>
      </trkpt>
      <trkpt lat="47.21124" lon="6.14219">
        <ele>432.066</ele>
        <time>2022-10-10T13:23:44Z</time>
      </trkpt>
      <trkpt lat="47.21128" lon="6.14222">
        <ele>431.882</ele>
        <time>2022-10-10T13:23:45Z</time>
      </trkpt>
      <trkpt lat="47.21133" lon="6.14223">
        <ele>431.818</ele>
        <time>2022-10-10T13:23:46Z</time>
      </trkpt>
      <trkpt lat="47.21138" lon="6.14225">
        <ele>431.888</ele>
        <time>2022-10-10T13:23:47Z</time>
      </trkpt>
      <trkpt lat="47.21142" lon="6.14225">
        <ele>431.832</ele>
        <time>2022-10-10T13:23:48Z</time>
      </trkpt>
      <trkpt lat="47.21146" lon="6.14226">
        <ele>431.823</ele>
        <time>2022-10-10T13:23:49Z</time>
      </trkpt>
      <trkpt lat="47.21148" lon="6.14226">
        <ele>431.683</ele>
        <time>2022-10-10T13:23:50Z</time>
      </trkpt>
      <trkpt lat="47.21151" lon="6.14227">
        <ele>431.011</ele>
        <time>2022-10-10T13:23:51Z</time>
      </trkpt>
      <trkpt lat="47.21153" lon="6.14228">
        <ele>431.009</ele>
        <time>2022-10-10T13:23:52Z</time>
      </trkpt>
      <trkpt lat="47.21155" lon="6.14228">
        <ele>431.063</ele>
        <time>2022-10-10T13:23:53Z</time>
      </trkpt>
      <trkpt lat="47.21155" lon="6.14228">
        <ele>430.823</ele>
        <time>2022-10-10T13:23:54Z</time>
      </trkpt>
      <trkpt lat="47.21155" lon="6.14228">
        <ele>431.037</ele>
        <time>2022-10-10T13:23:55Z</time>
      </trkpt>
      <trkpt lat="47.21155" lon="6.14229">
        <ele>430.821</ele>
        <time>2022-10-10T13:23:56Z</time>
      </trkpt>
      <trkpt lat="47.21157" lon="6.1423">
        <ele>430.894</ele>
        <time>2022-10-10T13:23:57Z</time>
      </trkpt>
      <trkpt lat="47.21162" lon="6.14234">
        <ele>430.07</ele>
        <time>2022-10-10T13:23:59Z</time>
      </trkpt>
      <trkpt lat="47.21169" lon="6.14238">
        <ele>429.056</ele>
        <time>2022-10-10T13:24:01Z</time>
      </trkpt>
      <trkpt lat="47.21173" lon="6.14242">
        <ele>428.816</ele>
        <time>2022-10-10T13:24:02Z</time>
      </trkpt>
      <trkpt lat="47.21176" lon="6.14244">
        <ele>428.24</ele>
        <time>2022-10-10T13:24:03Z</time>
      </trkpt>
      <trkpt lat="47.2118" lon="6.14246">
        <ele>428.082</ele>
        <time>2022-10-10T13:24:04Z</time>
      </trkpt>
      <trkpt lat="47.21183" lon="6.14248">
        <ele>427.843</ele>
        <time>2022-10-10T13:24:05Z</time>
      </trkpt>
      <trkpt lat="47.21185" lon="6.14251">
        <ele>427.617</ele>
        <time>2022-10-10T13:24:06Z</time>
      </trkpt>
      <trkpt lat="47.21191" lon="6.14256">
        <ele>427.609</ele>
        <time>2022-10-10T13:24:08Z</time>
      </trkpt>
      <trkpt lat="47.212" lon="6.14265">
        <ele>427.229</ele>
        <time>2022-10-10T13:24:11Z</time>
      </trkpt>
      <trkpt lat="47.21203" lon="6.14268">
        <ele>427.239</ele>
        <time>2022-10-10T13:24:12Z</time>
      </trkpt>
      <trkpt lat="47.21206" lon="6.1427">
        <ele>427.013</ele>
        <time>2022-10-10T13:24:13Z</time>
      </trkpt>
      <trkpt lat="47.2121" lon="6.14271">
        <ele>426.877</ele>
        <time>2022-10-10T13:24:14Z</time>
      </trkpt>
      <trkpt lat="47.21213" lon="6.14272">
        <ele>426.42</ele>
        <time>2022-10-10T13:24:15Z</time>
      </trkpt>
      <trkpt lat="47.2122" lon="6.14275">
        <ele>426.456</ele>
        <time>2022-10-10T13:24:17Z</time>
      </trkpt>
      <trkpt lat="47.21227" lon="6.14278">
        <ele>426.492</ele>
        <time>2022-10-10T13:24:19Z</time>
      </trkpt>
      <trkpt lat="47.2123" lon="6.14279">
        <ele>426.642</ele>
        <time>2022-10-10T13:24:20Z</time>
      </trkpt>
      <trkpt lat="47.21236" lon="6.14284">
        <ele>427.656</ele>
        <time>2022-10-10T13:24:22Z</time>
      </trkpt>
      <trkpt lat="47.21239" lon="6.14286">
        <ele>427.856</ele>
        <time>2022-10-10T13:24:23Z</time>
      </trkpt>
      <trkpt lat="47.21242" lon="6.14288">
        <ele>428.059</ele>
        <time>2022-10-10T13:24:24Z</time>
      </trkpt>
      <trkpt lat="47.21254" lon="6.14294">
        <ele>428.014</ele>
        <time>2022-10-10T13:24:28Z</time>
      </trkpt>
      <trkpt lat="47.21258" lon="6.14296">
        <ele>428.009</ele>
        <time>2022-10-10T13:24:29Z</time>
      </trkpt>
      <trkpt lat="47.21261" lon="6.14299">
        <ele>427.826</ele>
        <time>2022-10-10T13:24:30Z</time>
      </trkpt>
      <trkpt lat="47.21267" lon="6.14302">
        <ele>428.066</ele>
        <time>2022-10-10T13:24:32Z</time>
      </trkpt>
      <trkpt lat="47.21269" lon="6.14305">
        <ele>428.09</ele>
        <time>2022-10-10T13:24:33Z</time>
      </trkpt>
      <trkpt lat="47.21278" lon="6.14314">
        <ele>428.024</ele>
        <time>2022-10-10T13:24:37Z</time>
      </trkpt>
      <trkpt lat="47.21281" lon="6.14316">
        <ele>428.057</ele>
        <time>2022-10-10T13:24:38Z</time>
      </trkpt>
      <trkpt lat="47.21284" lon="6.14318">
        <ele>428.043</ele>
        <time>2022-10-10T13:24:39Z</time>
      </trkpt>
      <trkpt lat="47.21287" lon="6.14318">
        <ele>428.059</ele>
        <time>2022-10-10T13:24:40Z</time>
      </trkpt>
      <trkpt lat="47.21291" lon="6.1432">
        <ele>428.289</ele>
        <time>2022-10-10T13:24:42Z</time>
      </trkpt>
      <trkpt lat="47.21306" lon="6.14334">
        <ele>427.053</ele>
        <time>2022-10-10T13:24:48Z</time>
      </trkpt>
      <trkpt lat="47.21309" lon="6.14335">
        <ele>426.096</ele>
        <time>2022-10-10T13:24:49Z</time>
      </trkpt>
      <trkpt lat="47.21312" lon="6.14337">
        <ele>425.831</ele>
        <time>2022-10-10T13:24:50Z</time>
      </trkpt>
      <trkpt lat="47.21314" lon="6.14339">
        <ele>425.824</ele>
        <time>2022-10-10T13:24:51Z</time>
      </trkpt>
      <trkpt lat="47.21316" lon="6.14343">
        <ele>425.809</ele>
        <time>2022-10-10T13:24:52Z</time>
      </trkpt>
      <trkpt lat="47.21317" lon="6.14347">
        <ele>425.89</ele>
        <time>2022-10-10T13:24:53Z</time>
      </trkpt>
      <trkpt lat="47.21319" lon="6.14349">
        <ele>426.22</ele>
        <time>2022-10-10T13:24:54Z</time>
      </trkpt>
      <trkpt lat="47.21321" lon="6.1435">
        <ele>426.244</ele>
        <time>2022-10-10T13:24:55Z</time>
      </trkpt>
      <trkpt lat="47.21325" lon="6.14349">
        <ele>426.268</ele>
        <time>2022-10-10T13:24:56Z</time>
      </trkpt>
      <trkpt lat="47.21328" lon="6.14349">
        <ele>426.211</ele>
        <time>2022-10-10T13:24:57Z</time>
      </trkpt>
      <trkpt lat="47.21331" lon="6.1435">
        <ele>426.467</ele>
        <time>2022-10-10T13:24:58Z</time>
      </trkpt>
      <trkpt lat="47.21334" lon="6.14352">
        <ele>426.483</ele>
        <time>2022-10-10T13:24:59Z</time>
      </trkpt>
      <trkpt lat="47.21337" lon="6.14354">
        <ele>426.673</ele>
        <time>2022-10-10T13:25:00Z</time>
      </trkpt>
      <trkpt lat="47.21344" lon="6.14356">
        <ele>427.217</ele>
        <time>2022-10-10T13:25:02Z</time>
      </trkpt>
      <trkpt lat="47.21348" lon="6.14357">
        <ele>427.273</ele>
        <time>2022-10-10T13:25:03Z</time>
      </trkpt>
      <trkpt lat="47.21354" lon="6.14362">
        <ele>427.285</ele>
        <time>2022-10-10T13:25:05Z</time>
      </trkpt>
      <trkpt lat="47.21357" lon="6.14365">
        <ele>427.213</ele>
        <time>2022-10-10T13:25:06Z</time>
      </trkpt>
      <trkpt lat="47.21361" lon="6.14367">
        <ele>427.209</ele>
        <time>2022-10-10T13:25:07Z</time>
      </trkpt>
      <trkpt lat="47.21365" lon="6.14369">
        <ele>427.248</ele>
        <time>2022-10-10T13:25:08Z</time>
      </trkpt>
      <trkpt lat="47.21369" lon="6.1437">
        <ele>427.478</ele>
        <time>2022-10-10T13:25:09Z</time>
      </trkpt>
      <trkpt lat="47.21376" lon="6.14375">
        <ele>427.492</ele>
        <time>2022-10-10T13:25:11Z</time>
      </trkpt>
      <trkpt lat="47.2138" lon="6.14376">
        <ele>427.616</ele>
        <time>2022-10-10T13:25:12Z</time>
      </trkpt>
      <trkpt lat="47.21387" lon="6.14377">
        <ele>428.029</ele>
        <time>2022-10-10T13:25:14Z</time>
      </trkpt>
      <trkpt lat="47.21391" lon="6.1438">
        <ele>428.245</ele>
        <time>2022-10-10T13:25:15Z</time>
      </trkpt>
      <trkpt lat="47.21394" lon="6.14382">
        <ele>428.631</ele>
        <time>2022-10-10T13:25:16Z</time>
      </trkpt>
      <trkpt lat="47.21404" lon="6.14386">
        <ele>428.631</ele>
        <time>2022-10-10T13:25:19Z</time>
      </trkpt>
      <trkpt lat="47.21407" lon="6.14388">
        <ele>428.655</ele>
        <time>2022-10-10T13:25:20Z</time>
      </trkpt>
      <trkpt lat="47.21413" lon="6.14395">
        <ele>428.692</ele>
        <time>2022-10-10T13:25:22Z</time>
      </trkpt>
      <trkpt lat="47.21417" lon="6.14399">
        <ele>428.473</ele>
        <time>2022-10-10T13:25:23Z</time>
      </trkpt>
      <trkpt lat="47.2142" lon="6.14403">
        <ele>428.42</ele>
        <time>2022-10-10T13:25:24Z</time>
      </trkpt>
      <trkpt lat="47.21422" lon="6.14405">
        <ele>428.409</ele>
        <time>2022-10-10T13:25:25Z</time>
      </trkpt>
      <trkpt lat="47.21426" lon="6.14409">
        <ele>428.24</ele>
        <time>2022-10-10T13:25:26Z</time>
      </trkpt>
      <trkpt lat="47.21429" lon="6.14413">
        <ele>428.28</ele>
        <time>2022-10-10T13:25:27Z</time>
      </trkpt>
      <trkpt lat="47.21441" lon="6.14428">
        <ele>427.664</ele>
        <time>2022-10-10T13:25:31Z</time>
      </trkpt>
      <trkpt lat="47.21444" lon="6.14431">
        <ele>427.278</ele>
        <time>2022-10-10T13:25:32Z</time>
      </trkpt>
      <trkpt lat="47.21457" lon="6.14439">
        <ele>426.651</ele>
        <time>2022-10-10T13:25:35Z</time>
      </trkpt>
      <trkpt lat="47.21462" lon="6.14441">
        <ele>426.297</ele>
        <time>2022-10-10T13:25:36Z</time>
      </trkpt>
      <trkpt lat="47.21466" lon="6.14443">
        <ele>426.273</ele>
        <time>2022-10-10T13:25:37Z</time>
      </trkpt>
      <trkpt lat="47.2147" lon="6.14446">
        <ele>426.243</ele>
        <time>2022-10-10T13:25:38Z</time>
      </trkpt>
      <trkpt lat="47.21473" lon="6.14451">
        <ele>426.637</ele>
        <time>2022-10-10T13:25:39Z</time>
      </trkpt>
      <trkpt lat="47.21475" lon="6.14455">
        <ele>426.695</ele>
        <time>2022-10-10T13:25:40Z</time>
      </trkpt>
      <trkpt lat="47.21478" lon="6.14458">
        <ele>426.849</ele>
        <time>2022-10-10T13:25:41Z</time>
      </trkpt>
      <trkpt lat="47.21481" lon="6.14462">
        <ele>426.823</ele>
        <time>2022-10-10T13:25:42Z</time>
      </trkpt>
      <trkpt lat="47.21484" lon="6.14465">
        <ele>426.809</ele>
        <time>2022-10-10T13:25:43Z</time>
      </trkpt>
      <trkpt lat="47.21493" lon="6.14473">
        <ele>426.89</ele>
        <time>2022-10-10T13:25:46Z</time>
      </trkpt>
      <trkpt lat="47.21499" lon="6.14478">
        <ele>426.43</ele>
        <time>2022-10-10T13:25:48Z</time>
      </trkpt>
      <trkpt lat="47.21503" lon="6.14479">
        <ele>425.824</ele>
        <time>2022-10-10T13:25:49Z</time>
      </trkpt>
      <trkpt lat="47.21508" lon="6.1448">
        <ele>425.648</ele>
        <time>2022-10-10T13:25:50Z</time>
      </trkpt>
      <trkpt lat="47.21513" lon="6.14482">
        <ele>425.681</ele>
        <time>2022-10-10T13:25:51Z</time>
      </trkpt>
      <trkpt lat="47.21518" lon="6.14484">
        <ele>425.627</ele>
        <time>2022-10-10T13:25:52Z</time>
      </trkpt>
      <trkpt lat="47.21521" lon="6.14487">
        <ele>425.633</ele>
        <time>2022-10-10T13:25:53Z</time>
      </trkpt>
      <trkpt lat="47.21525" lon="6.14489">
        <ele>426.263</ele>
        <time>2022-10-10T13:25:54Z</time>
      </trkpt>
      <trkpt lat="47.21528" lon="6.14491">
        <ele>426.657</ele>
        <time>2022-10-10T13:25:55Z</time>
      </trkpt>
      <trkpt lat="47.2153" lon="6.14493">
        <ele>426.633</ele>
        <time>2022-10-10T13:25:56Z</time>
      </trkpt>
      <trkpt lat="47.21533" lon="6.14496">
        <ele>426.823</ele>
        <time>2022-10-10T13:25:57Z</time>
      </trkpt>
      <trkpt lat="47.21536" lon="6.14498">
        <ele>426.815</ele>
        <time>2022-10-10T13:25:58Z</time>
      </trkpt>
      <trkpt lat="47.21539" lon="6.14498">
        <ele>426.609</ele>
        <time>2022-10-10T13:25:59Z</time>
      </trkpt>
      <trkpt lat="47.21542" lon="6.14497">
        <ele>426.654</ele>
        <time>2022-10-10T13:26:00Z</time>
      </trkpt>
      <trkpt lat="47.21545" lon="6.14498">
        <ele>426.464</ele>
        <time>2022-10-10T13:26:01Z</time>
      </trkpt>
      <trkpt lat="47.21548" lon="6.145">
        <ele>426.488</ele>
        <time>2022-10-10T13:26:02Z</time>
      </trkpt>
      <trkpt lat="47.21551" lon="6.14502">
        <ele>426.462</ele>
        <time>2022-10-10T13:26:03Z</time>
      </trkpt>
      <trkpt lat="47.21554" lon="6.14502">
        <ele>426.495</ele>
        <time>2022-10-10T13:26:04Z</time>
      </trkpt>
      <trkpt lat="47.21557" lon="6.14501">
        <ele>426.451</ele>
        <time>2022-10-10T13:26:05Z</time>
      </trkpt>
      <trkpt lat="47.21561" lon="6.14501">
        <ele>426.227</ele>
        <time>2022-10-10T13:26:06Z</time>
      </trkpt>
      <trkpt lat="47.21565" lon="6.14501">
        <ele>426.297</ele>
        <time>2022-10-10T13:26:07Z</time>
      </trkpt>
      <trkpt lat="47.21573" lon="6.14503">
        <ele>426.251</ele>
        <time>2022-10-10T13:26:09Z</time>
      </trkpt>
      <trkpt lat="47.21578" lon="6.14503">
        <ele>426.222</ele>
        <time>2022-10-10T13:26:10Z</time>
      </trkpt>
      <trkpt lat="47.21582" lon="6.14503">
        <ele>426.462</ele>
        <time>2022-10-10T13:26:11Z</time>
      </trkpt>
      <trkpt lat="47.21585" lon="6.14504">
        <ele>426.608</ele>
        <time>2022-10-10T13:26:12Z</time>
      </trkpt>
      <trkpt lat="47.21588" lon="6.14505">
        <ele>426.809</ele>
        <time>2022-10-10T13:26:13Z</time>
      </trkpt>
      <trkpt lat="47.2159" lon="6.14508">
        <ele>427.873</ele>
        <time>2022-10-10T13:26:14Z</time>
      </trkpt>
      <trkpt lat="47.21592" lon="6.14511">
        <ele>428.083</ele>
        <time>2022-10-10T13:26:15Z</time>
      </trkpt>
      <trkpt lat="47.21595" lon="6.14513">
        <ele>428.047</ele>
        <time>2022-10-10T13:26:16Z</time>
      </trkpt>
      <trkpt lat="47.21597" lon="6.14517">
        <ele>428.471</ele>
        <time>2022-10-10T13:26:17Z</time>
      </trkpt>
      <trkpt lat="47.216" lon="6.14518">
        <ele>428.444</ele>
        <time>2022-10-10T13:26:18Z</time>
      </trkpt>
      <trkpt lat="47.21608" lon="6.14523">
        <ele>428.68</ele>
        <time>2022-10-10T13:26:21Z</time>
      </trkpt>
      <trkpt lat="47.2161" lon="6.14524">
        <ele>429.256</ele>
        <time>2022-10-10T13:26:22Z</time>
      </trkpt>
      <trkpt lat="47.21618" lon="6.14526">
        <ele>430.026</ele>
        <time>2022-10-10T13:26:25Z</time>
      </trkpt>
      <trkpt lat="47.21622" lon="6.14526">
        <ele>430.24</ele>
        <time>2022-10-10T13:26:26Z</time>
      </trkpt>
      <trkpt lat="47.21625" lon="6.14527">
        <ele>430.664</ele>
        <time>2022-10-10T13:26:27Z</time>
      </trkpt>
      <trkpt lat="47.21628" lon="6.14528">
        <ele>430.606</ele>
        <time>2022-10-10T13:26:28Z</time>
      </trkpt>
      <trkpt lat="47.21631" lon="6.14529">
        <ele>431.016</ele>
        <time>2022-10-10T13:26:29Z</time>
      </trkpt>
      <trkpt lat="47.21634" lon="6.1453">
        <ele>431.209</ele>
        <time>2022-10-10T13:26:30Z</time>
      </trkpt>
      <trkpt lat="47.21637" lon="6.14531">
        <ele>431.227</ele>
        <time>2022-10-10T13:26:31Z</time>
      </trkpt>
      <trkpt lat="47.2164" lon="6.14532">
        <ele>431.677</ele>
        <time>2022-10-10T13:26:32Z</time>
      </trkpt>
      <trkpt lat="47.21643" lon="6.14534">
        <ele>431.661</ele>
        <time>2022-10-10T13:26:33Z</time>
      </trkpt>
      <trkpt lat="47.21646" lon="6.14535">
        <ele>431.835</ele>
        <time>2022-10-10T13:26:34Z</time>
      </trkpt>
      <trkpt lat="47.21649" lon="6.14536">
        <ele>431.868</ele>
        <time>2022-10-10T13:26:35Z</time>
      </trkpt>
      <trkpt lat="47.21653" lon="6.14538">
        <ele>432.214</ele>
        <time>2022-10-10T13:26:36Z</time>
      </trkpt>
      <trkpt lat="47.21656" lon="6.14539">
        <ele>432.44</ele>
        <time>2022-10-10T13:26:37Z</time>
      </trkpt>
      <trkpt lat="47.2166" lon="6.1454">
        <ele>432.68</ele>
        <time>2022-10-10T13:26:38Z</time>
      </trkpt>
      <trkpt lat="47.21663" lon="6.14541">
        <ele>432.644</ele>
        <time>2022-10-10T13:26:39Z</time>
      </trkpt>
      <trkpt lat="47.21667" lon="6.14542">
        <ele>432.841</ele>
        <time>2022-10-10T13:26:40Z</time>
      </trkpt>
      <trkpt lat="47.2167" lon="6.14542">
        <ele>432.881</ele>
        <time>2022-10-10T13:26:41Z</time>
      </trkpt>
      <trkpt lat="47.21674" lon="6.14544">
        <ele>433.009</ele>
        <time>2022-10-10T13:26:42Z</time>
      </trkpt>
      <trkpt lat="47.21678" lon="6.14545">
        <ele>433.409</ele>
        <time>2022-10-10T13:26:43Z</time>
      </trkpt>
      <trkpt lat="47.21681" lon="6.14547">
        <ele>433.685</ele>
        <time>2022-10-10T13:26:44Z</time>
      </trkpt>
      <trkpt lat="47.21685" lon="6.14549">
        <ele>433.885</ele>
        <time>2022-10-10T13:26:45Z</time>
      </trkpt>
      <trkpt lat="47.21689" lon="6.1455">
        <ele>434.239</ele>
        <time>2022-10-10T13:26:46Z</time>
      </trkpt>
      <trkpt lat="47.21693" lon="6.14552">
        <ele>434.493</ele>
        <time>2022-10-10T13:26:47Z</time>
      </trkpt>
      <trkpt lat="47.21697" lon="6.14553">
        <ele>434.686</ele>
        <time>2022-10-10T13:26:48Z</time>
      </trkpt>
      <trkpt lat="47.21701" lon="6.14554">
        <ele>434.622</ele>
        <time>2022-10-10T13:26:49Z</time>
      </trkpt>
      <trkpt lat="47.21706" lon="6.14556">
        <ele>434.638</ele>
        <time>2022-10-10T13:26:50Z</time>
      </trkpt>
      <trkpt lat="47.2171" lon="6.14558">
        <ele>434.898</ele>
        <time>2022-10-10T13:26:51Z</time>
      </trkpt>
      <trkpt lat="47.21714" lon="6.14561">
        <ele>434.642</ele>
        <time>2022-10-10T13:26:52Z</time>
      </trkpt>
      <trkpt lat="47.21719" lon="6.14562">
        <ele>434.872</ele>
        <time>2022-10-10T13:26:53Z</time>
      </trkpt>
      <trkpt lat="47.21723" lon="6.14564">
        <ele>434.813</ele>
        <time>2022-10-10T13:26:54Z</time>
      </trkpt>
      <trkpt lat="47.21727" lon="6.14565">
        <ele>435.014</ele>
        <time>2022-10-10T13:26:55Z</time>
      </trkpt>
      <trkpt lat="47.21731" lon="6.14566">
        <ele>435.009</ele>
        <time>2022-10-10T13:26:56Z</time>
      </trkpt>
      <trkpt lat="47.21735" lon="6.14568">
        <ele>435.078</ele>
        <time>2022-10-10T13:26:57Z</time>
      </trkpt>
      <trkpt lat="47.2174" lon="6.1457">
        <ele>435.288</ele>
        <time>2022-10-10T13:26:58Z</time>
      </trkpt>
      <trkpt lat="47.21745" lon="6.14571">
        <ele>435.482</ele>
        <time>2022-10-10T13:26:59Z</time>
      </trkpt>
      <trkpt lat="47.2175" lon="6.14572">
        <ele>435.636</ele>
        <time>2022-10-10T13:27:00Z</time>
      </trkpt>
      <trkpt lat="47.21754" lon="6.14574">
        <ele>435.659</ele>
        <time>2022-10-10T13:27:01Z</time>
      </trkpt>
      <trkpt lat="47.21757" lon="6.14576">
        <ele>435.685</ele>
        <time>2022-10-10T13:27:02Z</time>
      </trkpt>
      <trkpt lat="47.21763" lon="6.14576">
        <ele>435.671</ele>
        <time>2022-10-10T13:27:03Z</time>
      </trkpt>
      <trkpt lat="47.21768" lon="6.14577">
        <ele>435.841</ele>
        <time>2022-10-10T13:27:04Z</time>
      </trkpt>
      <trkpt lat="47.21773" lon="6.14579">
        <ele>435.845</ele>
        <time>2022-10-10T13:27:05Z</time>
      </trkpt>
      <trkpt lat="47.21778" lon="6.14581">
        <ele>435.818</ele>
        <time>2022-10-10T13:27:06Z</time>
      </trkpt>
      <trkpt lat="47.21783" lon="6.14583">
        <ele>435.898</ele>
        <time>2022-10-10T13:27:07Z</time>
      </trkpt>
      <trkpt lat="47.21789" lon="6.14585">
        <ele>435.817</ele>
        <time>2022-10-10T13:27:08Z</time>
      </trkpt>
      <trkpt lat="47.21793" lon="6.14586">
        <ele>435.809</ele>
        <time>2022-10-10T13:27:09Z</time>
      </trkpt>
      <trkpt lat="47.21798" lon="6.14588">
        <ele>436.272</ele>
        <time>2022-10-10T13:27:10Z</time>
      </trkpt>
      <trkpt lat="47.21802" lon="6.14589">
        <ele>436.852</ele>
        <time>2022-10-10T13:27:11Z</time>
      </trkpt>
      <trkpt lat="47.21806" lon="6.14591">
        <ele>436.866</ele>
        <time>2022-10-10T13:27:12Z</time>
      </trkpt>
      <trkpt lat="47.21811" lon="6.14593">
        <ele>437.01</ele>
        <time>2022-10-10T13:27:13Z</time>
      </trkpt>
      <trkpt lat="47.21816" lon="6.14595">
        <ele>437.023</ele>
        <time>2022-10-10T13:27:14Z</time>
      </trkpt>
      <trkpt lat="47.2182" lon="6.14597">
        <ele>437.049</ele>
        <time>2022-10-10T13:27:15Z</time>
      </trkpt>
      <trkpt lat="47.21825" lon="6.14599">
        <ele>437.015</ele>
        <time>2022-10-10T13:27:16Z</time>
      </trkpt>
      <trkpt lat="47.2183" lon="6.146">
        <ele>437.265</ele>
        <time>2022-10-10T13:27:17Z</time>
      </trkpt>
      <trkpt lat="47.21835" lon="6.14602">
        <ele>437.239</ele>
        <time>2022-10-10T13:27:18Z</time>
      </trkpt>
      <trkpt lat="47.21839" lon="6.14604">
        <ele>437.288</ele>
        <time>2022-10-10T13:27:19Z</time>
      </trkpt>
      <trkpt lat="47.21844" lon="6.14606">
        <ele>437.824</ele>
        <time>2022-10-10T13:27:20Z</time>
      </trkpt>
      <trkpt lat="47.21849" lon="6.14608">
        <ele>437.826</ele>
        <time>2022-10-10T13:27:21Z</time>
      </trkpt>
      <trkpt lat="47.21854" lon="6.1461">
        <ele>438.009</ele>
        <time>2022-10-10T13:27:22Z</time>
      </trkpt>
      <trkpt lat="47.21858" lon="6.14611">
        <ele>438.079</ele>
        <time>2022-10-10T13:27:23Z</time>
      </trkpt>
      <trkpt lat="47.21863" lon="6.14612">
        <ele>438.069</ele>
        <time>2022-10-10T13:27:24Z</time>
      </trkpt>
      <trkpt lat="47.21868" lon="6.14614">
        <ele>438.083</ele>
        <time>2022-10-10T13:27:25Z</time>
      </trkpt>
      <trkpt lat="47.21872" lon="6.14616">
        <ele>438.017</ele>
        <time>2022-10-10T13:27:26Z</time>
      </trkpt>
      <trkpt lat="47.21876" lon="6.14618">
        <ele>438.03</ele>
        <time>2022-10-10T13:27:27Z</time>
      </trkpt>
      <trkpt lat="47.21881" lon="6.1462">
        <ele>438.056</ele>
        <time>2022-10-10T13:27:28Z</time>
      </trkpt>
      <trkpt lat="47.21886" lon="6.14621">
        <ele>438.262</ele>
        <time>2022-10-10T13:27:29Z</time>
      </trkpt>
      <trkpt lat="47.2189" lon="6.14624">
        <ele>438.422</ele>
        <time>2022-10-10T13:27:30Z</time>
      </trkpt>
      <trkpt lat="47.21895" lon="6.14626">
        <ele>438.286</ele>
        <time>2022-10-10T13:27:31Z</time>
      </trkpt>
      <trkpt lat="47.219" lon="6.14628">
        <ele>438.066</ele>
        <time>2022-10-10T13:27:32Z</time>
      </trkpt>
      <trkpt lat="47.21904" lon="6.1463">
        <ele>438.229</ele>
        <time>2022-10-10T13:27:33Z</time>
      </trkpt>
      <trkpt lat="47.21918" lon="6.14634">
        <ele>438.021</ele>
        <time>2022-10-10T13:27:36Z</time>
      </trkpt>
      <trkpt lat="47.21929" lon="6.14638">
        <ele>437.809</ele>
        <time>2022-10-10T13:27:38Z</time>
      </trkpt>
      <trkpt lat="47.21939" lon="6.1464">
        <ele>437.617</ele>
        <time>2022-10-10T13:27:40Z</time>
      </trkpt>
      <trkpt lat="47.21944" lon="6.14642">
        <ele>437.487</ele>
        <time>2022-10-10T13:27:41Z</time>
      </trkpt>
      <trkpt lat="47.21949" lon="6.14644">
        <ele>437.481</ele>
        <time>2022-10-10T13:27:42Z</time>
      </trkpt>
      <trkpt lat="47.21954" lon="6.14647">
        <ele>437.265</ele>
        <time>2022-10-10T13:27:43Z</time>
      </trkpt>
      <trkpt lat="47.21958" lon="6.14649">
        <ele>437.078</ele>
        <time>2022-10-10T13:27:44Z</time>
      </trkpt>
      <trkpt lat="47.21964" lon="6.14651">
        <ele>437.084</ele>
        <time>2022-10-10T13:27:45Z</time>
      </trkpt>
      <trkpt lat="47.21969" lon="6.14652">
        <ele>437.09</ele>
        <time>2022-10-10T13:27:46Z</time>
      </trkpt>
      <trkpt lat="47.21975" lon="6.14655">
        <ele>437.02</ele>
        <time>2022-10-10T13:27:47Z</time>
      </trkpt>
      <trkpt lat="47.2198" lon="6.14657">
        <ele>437.024</ele>
        <time>2022-10-10T13:27:48Z</time>
      </trkpt>
      <trkpt lat="47.21986" lon="6.1466">
        <ele>437.082</ele>
        <time>2022-10-10T13:27:49Z</time>
      </trkpt>
      <trkpt lat="47.21992" lon="6.14663">
        <ele>436.643</ele>
        <time>2022-10-10T13:27:50Z</time>
      </trkpt>
      <trkpt lat="47.21997" lon="6.14666">
        <ele>436.617</ele>
        <time>2022-10-10T13:27:51Z</time>
      </trkpt>
      <trkpt lat="47.22002" lon="6.14668">
        <ele>436.609</ele>
        <time>2022-10-10T13:27:52Z</time>
      </trkpt>
      <trkpt lat="47.22006" lon="6.1467">
        <ele>436.849</ele>
        <time>2022-10-10T13:27:53Z</time>
      </trkpt>
      <trkpt lat="47.2201" lon="6.1467">
        <ele>436.899</ele>
        <time>2022-10-10T13:27:54Z</time>
      </trkpt>
      <trkpt lat="47.22014" lon="6.14672">
        <ele>436.833</ele>
        <time>2022-10-10T13:27:55Z</time>
      </trkpt>
      <trkpt lat="47.22022" lon="6.14677">
        <ele>436.817</ele>
        <time>2022-10-10T13:27:58Z</time>
      </trkpt>
      <trkpt lat="47.22025" lon="6.14679">
        <ele>437.08</ele>
        <time>2022-10-10T13:27:59Z</time>
      </trkpt>
      <trkpt lat="47.22035" lon="6.14682">
        <ele>436.866</ele>
        <time>2022-10-10T13:28:02Z</time>
      </trkpt>
      <trkpt lat="47.2204" lon="6.14686">
        <ele>435.452</ele>
        <time>2022-10-10T13:28:03Z</time>
      </trkpt>
      <trkpt lat="47.22046" lon="6.14689">
        <ele>434.492</ele>
        <time>2022-10-10T13:28:04Z</time>
      </trkpt>
      <trkpt lat="47.22054" lon="6.14694">
        <ele>431.446</ele>
        <time>2022-10-10T13:28:05Z</time>
      </trkpt>
      <trkpt lat="47.22061" lon="6.14698">
        <ele>431.485</ele>
        <time>2022-10-10T13:28:06Z</time>
      </trkpt>
      <trkpt lat="47.22067" lon="6.14701">
        <ele>431.489</ele>
        <time>2022-10-10T13:28:07Z</time>
      </trkpt>
      <trkpt lat="47.22073" lon="6.14704">
        <ele>431.417</ele>
        <time>2022-10-10T13:28:08Z</time>
      </trkpt>
      <trkpt lat="47.22077" lon="6.14706">
        <ele>432.209</ele>
        <time>2022-10-10T13:28:09Z</time>
      </trkpt>
      <trkpt lat="47.22081" lon="6.14707">
        <ele>433.489</ele>
        <time>2022-10-10T13:28:10Z</time>
      </trkpt>
      <trkpt lat="47.22085" lon="6.14708">
        <ele>434.249</ele>
        <time>2022-10-10T13:28:11Z</time>
      </trkpt>
      <trkpt lat="47.22098" lon="6.14715">
        <ele>434.433</ele>
        <time>2022-10-10T13:28:14Z</time>
      </trkpt>
      <trkpt lat="47.22103" lon="6.14717">
        <ele>434.677</ele>
        <time>2022-10-10T13:28:15Z</time>
      </trkpt>
      <trkpt lat="47.22111" lon="6.14724">
        <ele>435.08</ele>
        <time>2022-10-10T13:28:17Z</time>
      </trkpt>
      <trkpt lat="47.22117" lon="6.14727">
        <ele>435.486</ele>
        <time>2022-10-10T13:28:18Z</time>
      </trkpt>
      <trkpt lat="47.22121" lon="6.1473">
        <ele>435.452</ele>
        <time>2022-10-10T13:28:19Z</time>
      </trkpt>
      <trkpt lat="47.22126" lon="6.14732">
        <ele>435.612</ele>
        <time>2022-10-10T13:28:20Z</time>
      </trkpt>
      <trkpt lat="47.2213" lon="6.14735">
        <ele>435.886</ele>
        <time>2022-10-10T13:28:21Z</time>
      </trkpt>
      <trkpt lat="47.22134" lon="6.14737">
        <ele>436.085</ele>
        <time>2022-10-10T13:28:22Z</time>
      </trkpt>
      <trkpt lat="47.22143" lon="6.14742">
        <ele>436.089</ele>
        <time>2022-10-10T13:28:24Z</time>
      </trkpt>
      <trkpt lat="47.22147" lon="6.14745">
        <ele>436.417</ele>
        <time>2022-10-10T13:28:25Z</time>
      </trkpt>
      <trkpt lat="47.22151" lon="6.14747">
        <ele>436.409</ele>
        <time>2022-10-10T13:28:26Z</time>
      </trkpt>
      <trkpt lat="47.22155" lon="6.14749">
        <ele>436.659</ele>
        <time>2022-10-10T13:28:27Z</time>
      </trkpt>
      <trkpt lat="47.22162" lon="6.14754">
        <ele>436.829</ele>
        <time>2022-10-10T13:28:29Z</time>
      </trkpt>
      <trkpt lat="47.22173" lon="6.14761">
        <ele>436.623</ele>
        <time>2022-10-10T13:28:32Z</time>
      </trkpt>
      <trkpt lat="47.22177" lon="6.14764">
        <ele>436.267</ele>
        <time>2022-10-10T13:28:33Z</time>
      </trkpt>
      <trkpt lat="47.22181" lon="6.14766">
        <ele>436.23</ele>
        <time>2022-10-10T13:28:34Z</time>
      </trkpt>
      <trkpt lat="47.22185" lon="6.14768">
        <ele>436.246</ele>
        <time>2022-10-10T13:28:35Z</time>
      </trkpt>
      <trkpt lat="47.22196" lon="6.14774">
        <ele>434.812</ele>
        <time>2022-10-10T13:28:38Z</time>
      </trkpt>
      <trkpt lat="47.22201" lon="6.14776">
        <ele>433.042</ele>
        <time>2022-10-10T13:28:39Z</time>
      </trkpt>
      <trkpt lat="47.22207" lon="6.14778">
        <ele>432.436</ele>
        <time>2022-10-10T13:28:40Z</time>
      </trkpt>
      <trkpt lat="47.22213" lon="6.14782">
        <ele>430.888</ele>
        <time>2022-10-10T13:28:41Z</time>
      </trkpt>
      <trkpt lat="47.22219" lon="6.14786">
        <ele>430.024</ele>
        <time>2022-10-10T13:28:42Z</time>
      </trkpt>
      <trkpt lat="47.22226" lon="6.14791">
        <ele>429.626</ele>
        <time>2022-10-10T13:28:43Z</time>
      </trkpt>
      <trkpt lat="47.22232" lon="6.14796">
        <ele>429.609</ele>
        <time>2022-10-10T13:28:44Z</time>
      </trkpt>
      <trkpt lat="47.22238" lon="6.148">
        <ele>429.639</ele>
        <time>2022-10-10T13:28:45Z</time>
      </trkpt>
      <trkpt lat="47.22244" lon="6.14803">
        <ele>429.619</ele>
        <time>2022-10-10T13:28:46Z</time>
      </trkpt>
      <trkpt lat="47.22249" lon="6.14806">
        <ele>429.873</ele>
        <time>2022-10-10T13:28:47Z</time>
      </trkpt>
      <trkpt lat="47.22254" lon="6.14809">
        <ele>430.067</ele>
        <time>2022-10-10T13:28:48Z</time>
      </trkpt>
      <trkpt lat="47.22258" lon="6.14811">
        <ele>430.62</ele>
        <time>2022-10-10T13:28:49Z</time>
      </trkpt>
      <trkpt lat="47.22263" lon="6.14814">
        <ele>431.246</ele>
        <time>2022-10-10T13:28:50Z</time>
      </trkpt>
      <trkpt lat="47.22268" lon="6.14818">
        <ele>431.642</ele>
        <time>2022-10-10T13:28:51Z</time>
      </trkpt>
      <trkpt lat="47.22273" lon="6.14821">
        <ele>432.432</ele>
        <time>2022-10-10T13:28:52Z</time>
      </trkpt>
      <trkpt lat="47.22278" lon="6.14823">
        <ele>432.476</ele>
        <time>2022-10-10T13:28:53Z</time>
      </trkpt>
      <trkpt lat="47.22282" lon="6.14824">
        <ele>432.619</ele>
        <time>2022-10-10T13:28:54Z</time>
      </trkpt>
      <trkpt lat="47.22286" lon="6.14825">
        <ele>433.009</ele>
        <time>2022-10-10T13:28:55Z</time>
      </trkpt>
      <trkpt lat="47.2229" lon="6.14829">
        <ele>433.619</ele>
        <time>2022-10-10T13:28:56Z</time>
      </trkpt>
      <trkpt lat="47.22307" lon="6.14843">
        <ele>435.409</ele>
        <time>2022-10-10T13:29:00Z</time>
      </trkpt>
      <trkpt lat="47.22311" lon="6.14846">
        <ele>435.652</ele>
        <time>2022-10-10T13:29:01Z</time>
      </trkpt>
      <trkpt lat="47.22316" lon="6.14848">
        <ele>435.852</ele>
        <time>2022-10-10T13:29:02Z</time>
      </trkpt>
      <trkpt lat="47.2232" lon="6.14851">
        <ele>436.446</ele>
        <time>2022-10-10T13:29:03Z</time>
      </trkpt>
      <trkpt lat="47.22324" lon="6.14853">
        <ele>437.47</ele>
        <time>2022-10-10T13:29:04Z</time>
      </trkpt>
      <trkpt lat="47.22329" lon="6.14856">
        <ele>437.433</ele>
        <time>2022-10-10T13:29:05Z</time>
      </trkpt>
      <trkpt lat="47.22332" lon="6.14858">
        <ele>437.459</ele>
        <time>2022-10-10T13:29:06Z</time>
      </trkpt>
      <trkpt lat="47.22336" lon="6.14861">
        <ele>438.465</ele>
        <time>2022-10-10T13:29:07Z</time>
      </trkpt>
      <trkpt lat="47.22339" lon="6.14863">
        <ele>438.495</ele>
        <time>2022-10-10T13:29:08Z</time>
      </trkpt>
      <trkpt lat="47.22341" lon="6.14864">
        <ele>438.659</ele>
        <time>2022-10-10T13:29:09Z</time>
      </trkpt>
      <trkpt lat="47.22344" lon="6.14866">
        <ele>438.828</ele>
        <time>2022-10-10T13:29:10Z</time>
      </trkpt>
      <trkpt lat="47.22346" lon="6.14868">
        <ele>439.089</ele>
        <time>2022-10-10T13:29:11Z</time>
      </trkpt>
      <trkpt lat="47.22347" lon="6.14869">
        <ele>439.017</ele>
        <time>2022-10-10T13:29:12Z</time>
      </trkpt>
      <trkpt lat="47.22348" lon="6.14869">
        <ele>439.209</ele>
        <time>2022-10-10T13:29:13Z</time>
      </trkpt>
      <trkpt lat="47.22348" lon="6.14869">
        <ele>439.263</ele>
        <time>2022-10-10T13:29:14Z</time>
      </trkpt>
      <trkpt lat="47.22348" lon="6.14869">
        <ele>439.253</ele>
        <time>2022-10-10T13:29:15Z</time>
      </trkpt>
      <trkpt lat="47.22349" lon="6.1487">
        <ele>439.237</ele>
        <time>2022-10-10T13:29:17Z</time>
      </trkpt>
      <trkpt lat="47.2235" lon="6.14871">
        <ele>439.251</ele>
        <time>2022-10-10T13:29:18Z</time>
      </trkpt>
      <trkpt lat="47.22351" lon="6.14873">
        <ele>439.244</ele>
        <time>2022-10-10T13:29:19Z</time>
      </trkpt>
      <trkpt lat="47.22353" lon="6.14874">
        <ele>439.25</ele>
        <time>2022-10-10T13:29:20Z</time>
      </trkpt>
      <trkpt lat="47.22357" lon="6.14873">
        <ele>439.246</ele>
        <time>2022-10-10T13:29:21Z</time>
      </trkpt>
      <trkpt lat="47.2236" lon="6.14873">
        <ele>439.216</ele>
        <time>2022-10-10T13:29:22Z</time>
      </trkpt>
      <trkpt lat="47.22364" lon="6.14872">
        <ele>439.27</ele>
        <time>2022-10-10T13:29:23Z</time>
      </trkpt>
      <trkpt lat="47.22366" lon="6.14872">
        <ele>439.276</ele>
        <time>2022-10-10T13:29:24Z</time>
      </trkpt>
      <trkpt lat="47.22369" lon="6.14872">
        <ele>439.69</ele>
        <time>2022-10-10T13:29:25Z</time>
      </trkpt>
      <trkpt lat="47.22371" lon="6.14871">
        <ele>439.619</ele>
        <time>2022-10-10T13:29:26Z</time>
      </trkpt>
      <trkpt lat="47.22374" lon="6.1487">
        <ele>439.809</ele>
        <time>2022-10-10T13:29:27Z</time>
      </trkpt>
      <trkpt lat="47.22377" lon="6.14869">
        <ele>439.848</ele>
        <time>2022-10-10T13:29:28Z</time>
      </trkpt>
      <trkpt lat="47.2238" lon="6.14868">
        <ele>440.028</ele>
        <time>2022-10-10T13:29:29Z</time>
      </trkpt>
      <trkpt lat="47.22384" lon="6.14867">
        <ele>440.212</ele>
        <time>2022-10-10T13:29:30Z</time>
      </trkpt>
      <trkpt lat="47.22388" lon="6.14867">
        <ele>440.246</ele>
        <time>2022-10-10T13:29:31Z</time>
      </trkpt>
      <trkpt lat="47.22392" lon="6.14867">
        <ele>441.249</ele>
        <time>2022-10-10T13:29:32Z</time>
      </trkpt>
      <trkpt lat="47.22395" lon="6.14865">
        <ele>441.225</ele>
        <time>2022-10-10T13:29:33Z</time>
      </trkpt>
      <trkpt lat="47.22399" lon="6.14864">
        <ele>441.651</ele>
        <time>2022-10-10T13:29:34Z</time>
      </trkpt>
      <trkpt lat="47.22402" lon="6.14863">
        <ele>441.651</ele>
        <time>2022-10-10T13:29:35Z</time>
      </trkpt>
      <trkpt lat="47.22406" lon="6.14862">
        <ele>442.285</ele>
        <time>2022-10-10T13:29:36Z</time>
      </trkpt>
      <trkpt lat="47.2241" lon="6.1486">
        <ele>442.464</ele>
        <time>2022-10-10T13:29:37Z</time>
      </trkpt>
      <trkpt lat="47.22414" lon="6.1486">
        <ele>442.406</ele>
        <time>2022-10-10T13:29:38Z</time>
      </trkpt>
      <trkpt lat="47.22418" lon="6.14859">
        <ele>443.216</ele>
        <time>2022-10-10T13:29:39Z</time>
      </trkpt>
      <trkpt lat="47.22421" lon="6.14858">
        <ele>443.409</ele>
        <time>2022-10-10T13:29:40Z</time>
      </trkpt>
      <trkpt lat="47.22425" lon="6.14857">
        <ele>443.417</ele>
        <time>2022-10-10T13:29:41Z</time>
      </trkpt>
      <trkpt lat="47.22428" lon="6.14856">
        <ele>443.637</ele>
        <time>2022-10-10T13:29:42Z</time>
      </trkpt>
      <trkpt lat="47.22432" lon="6.14855">
        <ele>444.021</ele>
        <time>2022-10-10T13:29:43Z</time>
      </trkpt>
      <trkpt lat="47.22436" lon="6.14853">
        <ele>444.065</ele>
        <time>2022-10-10T13:29:44Z</time>
      </trkpt>
      <trkpt lat="47.2244" lon="6.14852">
        <ele>444.458</ele>
        <time>2022-10-10T13:29:45Z</time>
      </trkpt>
      <trkpt lat="47.22445" lon="6.14851">
        <ele>445.024</ele>
        <time>2022-10-10T13:29:46Z</time>
      </trkpt>
      <trkpt lat="47.22449" lon="6.1485">
        <ele>445.01</ele>
        <time>2022-10-10T13:29:47Z</time>
      </trkpt>
      <trkpt lat="47.22453" lon="6.14849">
        <ele>445.08</ele>
        <time>2022-10-10T13:29:48Z</time>
      </trkpt>
      <trkpt lat="47.22458" lon="6.14848">
        <ele>445.214</ele>
        <time>2022-10-10T13:29:49Z</time>
      </trkpt>
      <trkpt lat="47.22462" lon="6.14846">
        <ele>445.226</ele>
        <time>2022-10-10T13:29:50Z</time>
      </trkpt>
      <trkpt lat="47.22467" lon="6.14845">
        <ele>445.847</ele>
        <time>2022-10-10T13:29:51Z</time>
      </trkpt>
      <trkpt lat="47.22471" lon="6.14844">
        <ele>445.811</ele>
        <time>2022-10-10T13:29:52Z</time>
      </trkpt>
      <trkpt lat="47.22475" lon="6.14843">
        <ele>446.009</ele>
        <time>2022-10-10T13:29:53Z</time>
      </trkpt>
      <trkpt lat="47.22479" lon="6.14841">
        <ele>446.223</ele>
        <time>2022-10-10T13:29:54Z</time>
      </trkpt>
      <trkpt lat="47.22482" lon="6.1484">
        <ele>446.483</ele>
        <time>2022-10-10T13:29:55Z</time>
      </trkpt>
      <trkpt lat="47.22486" lon="6.14838">
        <ele>447.267</ele>
        <time>2022-10-10T13:29:56Z</time>
      </trkpt>
      <trkpt lat="47.22489" lon="6.14836">
        <ele>447.211</ele>
        <time>2022-10-10T13:29:57Z</time>
      </trkpt>
      <trkpt lat="47.22493" lon="6.14835">
        <ele>447.254</ele>
        <time>2022-10-10T13:29:58Z</time>
      </trkpt>
      <trkpt lat="47.22497" lon="6.14834">
        <ele>447.43</ele>
        <time>2022-10-10T13:29:59Z</time>
      </trkpt>
      <trkpt lat="47.22501" lon="6.14835">
        <ele>447.446</ele>
        <time>2022-10-10T13:30:00Z</time>
      </trkpt>
      <trkpt lat="47.22504" lon="6.14834">
        <ele>447.496</ele>
        <time>2022-10-10T13:30:01Z</time>
      </trkpt>
      <trkpt lat="47.22508" lon="6.14833">
        <ele>447.23</ele>
        <time>2022-10-10T13:30:02Z</time>
      </trkpt>
      <trkpt lat="47.22511" lon="6.14831">
        <ele>447.257</ele>
        <time>2022-10-10T13:30:03Z</time>
      </trkpt>
      <trkpt lat="47.22515" lon="6.1483">
        <ele>447.2</ele>
        <time>2022-10-10T13:30:04Z</time>
      </trkpt>
      <trkpt lat="47.22519" lon="6.14829">
        <ele>447.22</ele>
        <time>2022-10-10T13:30:05Z</time>
      </trkpt>
      <trkpt lat="47.22524" lon="6.14828">
        <ele>446.609</ele>
        <time>2022-10-10T13:30:06Z</time>
      </trkpt>
      <trkpt lat="47.22529" lon="6.14827">
        <ele>446.066</ele>
        <time>2022-10-10T13:30:07Z</time>
      </trkpt>
      <trkpt lat="47.22534" lon="6.14825">
        <ele>445.646</ele>
        <time>2022-10-10T13:30:08Z</time>
      </trkpt>
      <trkpt lat="47.22538" lon="6.14824">
        <ele>444.83</ele>
        <time>2022-10-10T13:30:09Z</time>
      </trkpt>
      <trkpt lat="47.22543" lon="6.14823">
        <ele>444.844</ele>
        <time>2022-10-10T13:30:10Z</time>
      </trkpt>
      <trkpt lat="47.22548" lon="6.14822">
        <ele>443.897</ele>
        <time>2022-10-10T13:30:11Z</time>
      </trkpt>
      <trkpt lat="47.22552" lon="6.14822">
        <ele>443.633</ele>
        <time>2022-10-10T13:30:12Z</time>
      </trkpt>
      <trkpt lat="47.22556" lon="6.14822">
        <ele>442.859</ele>
        <time>2022-10-10T13:30:13Z</time>
      </trkpt>
      <trkpt lat="47.2256" lon="6.14821">
        <ele>442.479</ele>
        <time>2022-10-10T13:30:14Z</time>
      </trkpt>
      <trkpt lat="47.22563" lon="6.1482">
        <ele>442.263</ele>
        <time>2022-10-10T13:30:15Z</time>
      </trkpt>
      <trkpt lat="47.22565" lon="6.14819">
        <ele>441.478</ele>
        <time>2022-10-10T13:30:16Z</time>
      </trkpt>
      <trkpt lat="47.22567" lon="6.14819">
        <ele>441.433</ele>
        <time>2022-10-10T13:30:17Z</time>
      </trkpt>
      <trkpt lat="47.22569" lon="6.14819">
        <ele>441.226</ele>
        <time>2022-10-10T13:30:18Z</time>
      </trkpt>
      <trkpt lat="47.22569" lon="6.14819">
        <ele>441.209</ele>
        <time>2022-10-10T13:30:19Z</time>
      </trkpt>
      <trkpt lat="47.22569" lon="6.14819">
        <ele>441.258</ele>
        <time>2022-10-10T13:30:20Z</time>
      </trkpt>
      <trkpt lat="47.22569" lon="6.14819">
        <ele>441.078</ele>
        <time>2022-10-10T13:30:21Z</time>
      </trkpt>
      <trkpt lat="47.22569" lon="6.14818">
        <ele>441.032</ele>
        <time>2022-10-10T13:30:26Z</time>
      </trkpt>
      <trkpt lat="47.22569" lon="6.14818">
        <ele>441.096</ele>
        <time>2022-10-10T13:30:31Z</time>
      </trkpt>
      <trkpt lat="47.22569" lon="6.14818">
        <ele>441.029</ele>
        <time>2022-10-10T13:30:33Z</time>
      </trkpt>
      <trkpt lat="47.22569" lon="6.14818">
        <ele>440.845</ele>
        <time>2022-10-10T13:30:35Z</time>
      </trkpt>
      <trkpt lat="47.22569" lon="6.14818">
        <ele>440.871</ele>
        <time>2022-10-10T13:30:37Z</time>
      </trkpt>
      <trkpt lat="47.22569" lon="6.14818">
        <ele>440.641</ele>
        <time>2022-10-10T13:30:39Z</time>
      </trkpt>
      <trkpt lat="47.22569" lon="6.14818">
        <ele>440.635</ele>
        <time>2022-10-10T13:30:40Z</time>
      </trkpt>
      <trkpt lat="47.22569" lon="6.14818">
        <ele>440.624</ele>
        <time>2022-10-10T13:30:41Z</time>
      </trkpt>
      <trkpt lat="47.22569" lon="6.14818">
        <ele>440.604</ele>
        <time>2022-10-10T13:30:42Z</time>
      </trkpt>
      <trkpt lat="47.22569" lon="6.14818">
        <ele>440.414</ele>
        <time>2022-10-10T13:30:47Z</time>
      </trkpt>
      <trkpt lat="47.22569" lon="6.14818">
        <ele>440.209</ele>
        <time>2022-10-10T13:30:48Z</time>
      </trkpt>
      <trkpt lat="47.22569" lon="6.14818">
        <ele>439.863</ele>
        <time>2022-10-10T13:30:58Z</time>
      </trkpt>
      <trkpt lat="47.22574" lon="6.14818">
        <ele>439.653</ele>
        <time>2022-10-10T13:31:01Z</time>
      </trkpt>
      <trkpt lat="47.22577" lon="6.14818">
        <ele>439.487</ele>
        <time>2022-10-10T13:31:02Z</time>
      </trkpt>
      <trkpt lat="47.2258" lon="6.14818">
        <ele>439.061</ele>
        <time>2022-10-10T13:31:03Z</time>
      </trkpt>
      <trkpt lat="47.2259" lon="6.14819">
        <ele>437.624</ele>
        <time>2022-10-10T13:31:05Z</time>
      </trkpt>
      <trkpt lat="47.22595" lon="6.14819">
        <ele>437.25</ele>
        <time>2022-10-10T13:31:06Z</time>
      </trkpt>
      <trkpt lat="47.22607" lon="6.14821">
        <ele>435.836</ele>
        <time>2022-10-10T13:31:08Z</time>
      </trkpt>
      <trkpt lat="47.22621" lon="6.14822">
        <ele>433.446</ele>
        <time>2022-10-10T13:31:10Z</time>
      </trkpt>
      <trkpt lat="47.22628" lon="6.14823">
        <ele>433.23</ele>
        <time>2022-10-10T13:31:11Z</time>
      </trkpt>
      <trkpt lat="47.22643" lon="6.14823">
        <ele>432.054</ele>
        <time>2022-10-10T13:31:13Z</time>
      </trkpt>
      <trkpt lat="47.22651" lon="6.14823">
        <ele>431.656</ele>
        <time>2022-10-10T13:31:14Z</time>
      </trkpt>
      <trkpt lat="47.22667" lon="6.14825">
        <ele>431.011</ele>
        <time>2022-10-10T13:31:16Z</time>
      </trkpt>
      <trkpt lat="47.2268" lon="6.14823">
        <ele>430.209</ele>
        <time>2022-10-10T13:31:18Z</time>
      </trkpt>
      <trkpt lat="47.227" lon="6.14815">
        <ele>429.246</ele>
        <time>2022-10-10T13:31:21Z</time>
      </trkpt>
      <trkpt lat="47.22704" lon="6.14812">
        <ele>428.826</ele>
        <time>2022-10-10T13:31:22Z</time>
      </trkpt>
      <trkpt lat="47.2271" lon="6.14807">
        <ele>428.86</ele>
        <time>2022-10-10T13:31:23Z</time>
      </trkpt>
      <trkpt lat="47.22716" lon="6.14803">
        <ele>428.864</ele>
        <time>2022-10-10T13:31:24Z</time>
      </trkpt>
      <trkpt lat="47.22723" lon="6.14798">
        <ele>429.057</ele>
        <time>2022-10-10T13:31:25Z</time>
      </trkpt>
      <trkpt lat="47.22729" lon="6.14794">
        <ele>429.043</ele>
        <time>2022-10-10T13:31:26Z</time>
      </trkpt>
      <trkpt lat="47.22734" lon="6.14793">
        <ele>429.269</ele>
        <time>2022-10-10T13:31:27Z</time>
      </trkpt>
      <trkpt lat="47.2274" lon="6.14791">
        <ele>429.289</ele>
        <time>2022-10-10T13:31:28Z</time>
      </trkpt>
      <trkpt lat="47.22743" lon="6.1479">
        <ele>429.483</ele>
        <time>2022-10-10T13:31:29Z</time>
      </trkpt>
      <trkpt lat="47.22747" lon="6.14788">
        <ele>429.642</ele>
        <time>2022-10-10T13:31:30Z</time>
      </trkpt>
      <trkpt lat="47.22751" lon="6.14785">
        <ele>430.622</ele>
        <time>2022-10-10T13:31:31Z</time>
      </trkpt>
      <trkpt lat="47.22762" lon="6.14778">
        <ele>431.614</ele>
        <time>2022-10-10T13:31:35Z</time>
      </trkpt>
      <trkpt lat="47.22766" lon="6.14775">
        <ele>431.609</ele>
        <time>2022-10-10T13:31:36Z</time>
      </trkpt>
      <trkpt lat="47.22783" lon="6.14765">
        <ele>433.065</ele>
        <time>2022-10-10T13:31:41Z</time>
      </trkpt>
      <trkpt lat="47.22791" lon="6.14761">
        <ele>434.435</ele>
        <time>2022-10-10T13:31:43Z</time>
      </trkpt>
      <trkpt lat="47.22803" lon="6.14752">
        <ele>435.039</ele>
        <time>2022-10-10T13:31:46Z</time>
      </trkpt>
      <trkpt lat="47.22807" lon="6.14751">
        <ele>435.283</ele>
        <time>2022-10-10T13:31:47Z</time>
      </trkpt>
      <trkpt lat="47.22811" lon="6.14749">
        <ele>435.446</ele>
        <time>2022-10-10T13:31:48Z</time>
      </trkpt>
      <trkpt lat="47.22815" lon="6.14746">
        <ele>435.672</ele>
        <time>2022-10-10T13:31:49Z</time>
      </trkpt>
      <trkpt lat="47.2282" lon="6.14744">
        <ele>436.258</ele>
        <time>2022-10-10T13:31:50Z</time>
      </trkpt>
      <trkpt lat="47.22824" lon="6.14742">
        <ele>436.438</ele>
        <time>2022-10-10T13:31:51Z</time>
      </trkpt>
      <trkpt lat="47.22828" lon="6.14739">
        <ele>436.482</ele>
        <time>2022-10-10T13:31:52Z</time>
      </trkpt>
      <trkpt lat="47.22833" lon="6.14737">
        <ele>437.045</ele>
        <time>2022-10-10T13:31:53Z</time>
      </trkpt>
      <trkpt lat="47.22837" lon="6.14735">
        <ele>437.247</ele>
        <time>2022-10-10T13:31:54Z</time>
      </trkpt>
      <trkpt lat="47.22841" lon="6.14732">
        <ele>437.411</ele>
        <time>2022-10-10T13:31:55Z</time>
      </trkpt>
      <trkpt lat="47.22846" lon="6.14729">
        <ele>438.009</ele>
        <time>2022-10-10T13:31:56Z</time>
      </trkpt>
      <trkpt lat="47.2285" lon="6.14726">
        <ele>438.675</ele>
        <time>2022-10-10T13:31:57Z</time>
      </trkpt>
      <trkpt lat="47.22854" lon="6.14723">
        <ele>438.855</ele>
        <time>2022-10-10T13:31:58Z</time>
      </trkpt>
      <trkpt lat="47.22859" lon="6.14721">
        <ele>438.869</ele>
        <time>2022-10-10T13:31:59Z</time>
      </trkpt>
      <trkpt lat="47.22864" lon="6.14719">
        <ele>439.033</ele>
        <time>2022-10-10T13:32:00Z</time>
      </trkpt>
      <trkpt lat="47.22869" lon="6.14716">
        <ele>439.486</ele>
        <time>2022-10-10T13:32:01Z</time>
      </trkpt>
      <trkpt lat="47.22873" lon="6.14713">
        <ele>439.672</ele>
        <time>2022-10-10T13:32:02Z</time>
      </trkpt>
      <trkpt lat="47.22877" lon="6.1471">
        <ele>440.038</ele>
        <time>2022-10-10T13:32:03Z</time>
      </trkpt>
      <trkpt lat="47.2288" lon="6.14707">
        <ele>440.658</ele>
        <time>2022-10-10T13:32:04Z</time>
      </trkpt>
      <trkpt lat="47.22883" lon="6.14704">
        <ele>440.832</ele>
        <time>2022-10-10T13:32:05Z</time>
      </trkpt>
      <trkpt lat="47.22887" lon="6.14701">
        <ele>441.093</ele>
        <time>2022-10-10T13:32:06Z</time>
      </trkpt>
      <trkpt lat="47.2289" lon="6.14697">
        <ele>441.265</ele>
        <time>2022-10-10T13:32:07Z</time>
      </trkpt>
      <trkpt lat="47.22895" lon="6.14694">
        <ele>441.621</ele>
        <time>2022-10-10T13:32:08Z</time>
      </trkpt>
      <trkpt lat="47.22899" lon="6.14689">
        <ele>442.009</ele>
        <time>2022-10-10T13:32:09Z</time>
      </trkpt>
      <trkpt lat="47.22901" lon="6.14685">
        <ele>442.65</ele>
        <time>2022-10-10T13:32:10Z</time>
      </trkpt>
      <trkpt lat="47.22904" lon="6.1468">
        <ele>442.89</ele>
        <time>2022-10-10T13:32:11Z</time>
      </trkpt>
      <trkpt lat="47.22907" lon="6.14676">
        <ele>443.234</ele>
        <time>2022-10-10T13:32:12Z</time>
      </trkpt>
      <trkpt lat="47.2291" lon="6.14671">
        <ele>443.848</ele>
        <time>2022-10-10T13:32:13Z</time>
      </trkpt>
      <trkpt lat="47.22913" lon="6.14666">
        <ele>444.241</ele>
        <time>2022-10-10T13:32:14Z</time>
      </trkpt>
      <trkpt lat="47.22917" lon="6.14661">
        <ele>444.467</ele>
        <time>2022-10-10T13:32:15Z</time>
      </trkpt>
      <trkpt lat="47.22919" lon="6.14657">
        <ele>444.693</ele>
        <time>2022-10-10T13:32:16Z</time>
      </trkpt>
      <trkpt lat="47.22922" lon="6.14653">
        <ele>445.263</ele>
        <time>2022-10-10T13:32:17Z</time>
      </trkpt>
      <trkpt lat="47.22924" lon="6.14649">
        <ele>445.457</ele>
        <time>2022-10-10T13:32:18Z</time>
      </trkpt>
      <trkpt lat="47.22926" lon="6.14645">
        <ele>446.267</ele>
        <time>2022-10-10T13:32:19Z</time>
      </trkpt>
      <trkpt lat="47.22929" lon="6.1464">
        <ele>447.081</ele>
        <time>2022-10-10T13:32:20Z</time>
      </trkpt>
      <trkpt lat="47.22931" lon="6.14635">
        <ele>447.019</ele>
        <time>2022-10-10T13:32:21Z</time>
      </trkpt>
      <trkpt lat="47.22935" lon="6.14631">
        <ele>447.409</ele>
        <time>2022-10-10T13:32:22Z</time>
      </trkpt>
      <trkpt lat="47.22937" lon="6.14626">
        <ele>448.087</ele>
        <time>2022-10-10T13:32:23Z</time>
      </trkpt>
      <trkpt lat="47.2294" lon="6.14622">
        <ele>448.667</ele>
        <time>2022-10-10T13:32:24Z</time>
      </trkpt>
      <trkpt lat="47.22943" lon="6.14618">
        <ele>449.091</ele>
        <time>2022-10-10T13:32:25Z</time>
      </trkpt>
      <trkpt lat="47.22945" lon="6.14614">
        <ele>449.065</ele>
        <time>2022-10-10T13:32:26Z</time>
      </trkpt>
      <trkpt lat="47.22947" lon="6.1461">
        <ele>449.288</ele>
        <time>2022-10-10T13:32:27Z</time>
      </trkpt>
      <trkpt lat="47.2295" lon="6.14606">
        <ele>449.454</ele>
        <time>2022-10-10T13:32:28Z</time>
      </trkpt>
      <trkpt lat="47.22953" lon="6.14602">
        <ele>449.65</ele>
        <time>2022-10-10T13:32:29Z</time>
      </trkpt>
      <trkpt lat="47.22955" lon="6.14598">
        <ele>449.69</ele>
        <time>2022-10-10T13:32:30Z</time>
      </trkpt>
      <trkpt lat="47.22958" lon="6.14594">
        <ele>449.634</ele>
        <time>2022-10-10T13:32:31Z</time>
      </trkpt>
      <trkpt lat="47.22961" lon="6.1459">
        <ele>449.676</ele>
        <time>2022-10-10T13:32:32Z</time>
      </trkpt>
      <trkpt lat="47.22964" lon="6.14587">
        <ele>449.69</ele>
        <time>2022-10-10T13:32:33Z</time>
      </trkpt>
      <trkpt lat="47.22966" lon="6.14584">
        <ele>449.619</ele>
        <time>2022-10-10T13:32:34Z</time>
      </trkpt>
      <trkpt lat="47.22969" lon="6.14581">
        <ele>449.409</ele>
        <time>2022-10-10T13:32:35Z</time>
      </trkpt>
      <trkpt lat="47.22972" lon="6.14577">
        <ele>449.478</ele>
        <time>2022-10-10T13:32:36Z</time>
      </trkpt>
      <trkpt lat="47.22975" lon="6.14572">
        <ele>449.258</ele>
        <time>2022-10-10T13:32:37Z</time>
      </trkpt>
      <trkpt lat="47.22979" lon="6.14568">
        <ele>448.082</ele>
        <time>2022-10-10T13:32:38Z</time>
      </trkpt>
      <trkpt lat="47.22983" lon="6.14563">
        <ele>448.036</ele>
        <time>2022-10-10T13:32:39Z</time>
      </trkpt>
      <trkpt lat="47.22988" lon="6.14556">
        <ele>447.879</ele>
        <time>2022-10-10T13:32:40Z</time>
      </trkpt>
      <trkpt lat="47.22992" lon="6.14552">
        <ele>447.475</ele>
        <time>2022-10-10T13:32:41Z</time>
      </trkpt>
      <trkpt lat="47.22995" lon="6.14547">
        <ele>446.831</ele>
        <time>2022-10-10T13:32:42Z</time>
      </trkpt>
      <trkpt lat="47.23" lon="6.14542">
        <ele>446.461</ele>
        <time>2022-10-10T13:32:43Z</time>
      </trkpt>
      <trkpt lat="47.23005" lon="6.14536">
        <ele>446.055</ele>
        <time>2022-10-10T13:32:44Z</time>
      </trkpt>
      <trkpt lat="47.23014" lon="6.14522">
        <ele>445.863</ele>
        <time>2022-10-10T13:32:46Z</time>
      </trkpt>
      <trkpt lat="47.23022" lon="6.14512">
        <ele>445.044</ele>
        <time>2022-10-10T13:32:48Z</time>
      </trkpt>
      <trkpt lat="47.23026" lon="6.1451">
        <ele>443.818</ele>
        <time>2022-10-10T13:32:49Z</time>
      </trkpt>
      <trkpt lat="47.2303" lon="6.14505">
        <ele>443.809</ele>
        <time>2022-10-10T13:32:50Z</time>
      </trkpt>
      <trkpt lat="47.23036" lon="6.14501">
        <ele>442.477</ele>
        <time>2022-10-10T13:32:51Z</time>
      </trkpt>
      <trkpt lat="47.23044" lon="6.1449">
        <ele>441.277</ele>
        <time>2022-10-10T13:32:53Z</time>
      </trkpt>
      <trkpt lat="47.23047" lon="6.14485">
        <ele>441.281</ele>
        <time>2022-10-10T13:32:54Z</time>
      </trkpt>
      <trkpt lat="47.23051" lon="6.1448">
        <ele>440.055</ele>
        <time>2022-10-10T13:32:55Z</time>
      </trkpt>
      <trkpt lat="47.23057" lon="6.1447">
        <ele>438.868</ele>
        <time>2022-10-10T13:32:57Z</time>
      </trkpt>
      <trkpt lat="47.23061" lon="6.14465">
        <ele>438.034</ele>
        <time>2022-10-10T13:32:58Z</time>
      </trkpt>
      <trkpt lat="47.23066" lon="6.1446">
        <ele>437.83</ele>
        <time>2022-10-10T13:32:59Z</time>
      </trkpt>
      <trkpt lat="47.2307" lon="6.14455">
        <ele>436.06</ele>
        <time>2022-10-10T13:33:00Z</time>
      </trkpt>
      <trkpt lat="47.23075" lon="6.14449">
        <ele>436.064</ele>
        <time>2022-10-10T13:33:01Z</time>
      </trkpt>
      <trkpt lat="47.2308" lon="6.14444">
        <ele>436.051</ele>
        <time>2022-10-10T13:33:02Z</time>
      </trkpt>
      <trkpt lat="47.23085" lon="6.14439">
        <ele>436.001</ele>
        <time>2022-10-10T13:33:03Z</time>
      </trkpt>
      <trkpt lat="47.23089" lon="6.14434">
        <ele>436.811</ele>
        <time>2022-10-10T13:33:04Z</time>
      </trkpt>
      <trkpt lat="47.23094" lon="6.1443">
        <ele>436.809</ele>
        <time>2022-10-10T13:33:05Z</time>
      </trkpt>
      <trkpt lat="47.23098" lon="6.14427">
        <ele>437.666</ele>
        <time>2022-10-10T13:33:06Z</time>
      </trkpt>
      <trkpt lat="47.23106" lon="6.14422">
        <ele>439.046</ele>
        <time>2022-10-10T13:33:08Z</time>
      </trkpt>
      <trkpt lat="47.23109" lon="6.14419">
        <ele>439.22</ele>
        <time>2022-10-10T13:33:09Z</time>
      </trkpt>
      <trkpt lat="47.23116" lon="6.14411">
        <ele>439.894</ele>
        <time>2022-10-10T13:33:11Z</time>
      </trkpt>
      <trkpt lat="47.2312" lon="6.14407">
        <ele>440.237</ele>
        <time>2022-10-10T13:33:12Z</time>
      </trkpt>
      <trkpt lat="47.23134" lon="6.14396">
        <ele>440.643</ele>
        <time>2022-10-10T13:33:15Z</time>
      </trkpt>
      <trkpt lat="47.23137" lon="6.14392">
        <ele>440.869</ele>
        <time>2022-10-10T13:33:16Z</time>
      </trkpt>
      <trkpt lat="47.23145" lon="6.14385">
        <ele>441.249</ele>
        <time>2022-10-10T13:33:18Z</time>
      </trkpt>
      <trkpt lat="47.23149" lon="6.14381">
        <ele>441.883</ele>
        <time>2022-10-10T13:33:19Z</time>
      </trkpt>
      <trkpt lat="47.23156" lon="6.14374">
        <ele>442.022</ele>
        <time>2022-10-10T13:33:21Z</time>
      </trkpt>
      <trkpt lat="47.23159" lon="6.14371">
        <ele>442.062</ele>
        <time>2022-10-10T13:33:22Z</time>
      </trkpt>
      <trkpt lat="47.23176" lon="6.14348">
        <ele>442.208</ele>
        <time>2022-10-10T13:33:27Z</time>
      </trkpt>
      <trkpt lat="47.2318" lon="6.14345">
        <ele>442.209</ele>
        <time>2022-10-10T13:33:28Z</time>
      </trkpt>
      <trkpt lat="47.23184" lon="6.14341">
        <ele>442.063</ele>
        <time>2022-10-10T13:33:29Z</time>
      </trkpt>
      <trkpt lat="47.23188" lon="6.14336">
        <ele>441.823</ele>
        <time>2022-10-10T13:33:30Z</time>
      </trkpt>
      <trkpt lat="47.23192" lon="6.14331">
        <ele>441.437</ele>
        <time>2022-10-10T13:33:31Z</time>
      </trkpt>
      <trkpt lat="47.23196" lon="6.14326">
        <ele>441.481</ele>
        <time>2022-10-10T13:33:32Z</time>
      </trkpt>
      <trkpt lat="47.23205" lon="6.14316">
        <ele>440.874</ele>
        <time>2022-10-10T13:33:34Z</time>
      </trkpt>
      <trkpt lat="47.23214" lon="6.14307">
        <ele>439.87</ele>
        <time>2022-10-10T13:33:36Z</time>
      </trkpt>
      <trkpt lat="47.23219" lon="6.14302">
        <ele>439.656</ele>
        <time>2022-10-10T13:33:37Z</time>
      </trkpt>
      <trkpt lat="47.23224" lon="6.14297">
        <ele>438.476</ele>
        <time>2022-10-10T13:33:38Z</time>
      </trkpt>
      <trkpt lat="47.23229" lon="6.14293">
        <ele>438.45</ele>
        <time>2022-10-10T13:33:39Z</time>
      </trkpt>
      <trkpt lat="47.23233" lon="6.14288">
        <ele>438.411</ele>
        <time>2022-10-10T13:33:40Z</time>
      </trkpt>
      <trkpt lat="47.23252" lon="6.14273">
        <ele>438.421</ele>
        <time>2022-10-10T13:33:44Z</time>
      </trkpt>
      <trkpt lat="47.23256" lon="6.1427">
        <ele>438.803</ele>
        <time>2022-10-10T13:33:45Z</time>
      </trkpt>
      <trkpt lat="47.23261" lon="6.14266">
        <ele>438.809</ele>
        <time>2022-10-10T13:33:46Z</time>
      </trkpt>
      <trkpt lat="47.23269" lon="6.14262">
        <ele>438.842</ele>
        <time>2022-10-10T13:33:47Z</time>
      </trkpt>
      <trkpt lat="47.23279" lon="6.14254">
        <ele>439.062</ele>
        <time>2022-10-10T13:33:49Z</time>
      </trkpt>
      <trkpt lat="47.23283" lon="6.14251">
        <ele>439.246</ele>
        <time>2022-10-10T13:33:50Z</time>
      </trkpt>
      <trkpt lat="47.23287" lon="6.14247">
        <ele>439.47</ele>
        <time>2022-10-10T13:33:51Z</time>
      </trkpt>
      <trkpt lat="47.23292" lon="6.14242">
        <ele>439.823</ele>
        <time>2022-10-10T13:33:52Z</time>
      </trkpt>
      <trkpt lat="47.23304" lon="6.14232">
        <ele>440.019</ele>
        <time>2022-10-10T13:33:55Z</time>
      </trkpt>
      <trkpt lat="47.23318" lon="6.14217">
        <ele>439.825</ele>
        <time>2022-10-10T13:33:58Z</time>
      </trkpt>
      <trkpt lat="47.23339" lon="6.14201">
        <ele>439.085</ele>
        <time>2022-10-10T13:34:02Z</time>
      </trkpt>
      <trkpt lat="47.23343" lon="6.14197">
        <ele>438.829</ele>
        <time>2022-10-10T13:34:03Z</time>
      </trkpt>
      <trkpt lat="47.23348" lon="6.14192">
        <ele>438.826</ele>
        <time>2022-10-10T13:34:04Z</time>
      </trkpt>
      <trkpt lat="47.23353" lon="6.14189">
        <ele>438.447</ele>
        <time>2022-10-10T13:34:05Z</time>
      </trkpt>
      <trkpt lat="47.23357" lon="6.14186">
        <ele>438.411</ele>
        <time>2022-10-10T13:34:06Z</time>
      </trkpt>
      <trkpt lat="47.2336" lon="6.14184">
        <ele>438.409</ele>
        <time>2022-10-10T13:34:07Z</time>
      </trkpt>
      <trkpt lat="47.23363" lon="6.14184">
        <ele>438.443</ele>
        <time>2022-10-10T13:34:08Z</time>
      </trkpt>
      <trkpt lat="47.23366" lon="6.14185">
        <ele>438.243</ele>
        <time>2022-10-10T13:34:09Z</time>
      </trkpt>
      <trkpt lat="47.23368" lon="6.14186">
        <ele>438.257</ele>
        <time>2022-10-10T13:34:10Z</time>
      </trkpt>
      <trkpt lat="47.2337" lon="6.14187">
        <ele>438.231</ele>
        <time>2022-10-10T13:34:11Z</time>
      </trkpt>
      <trkpt lat="47.23372" lon="6.14186">
        <ele>438.284</ele>
        <time>2022-10-10T13:34:12Z</time>
      </trkpt>
      <trkpt lat="47.23374" lon="6.14186">
        <ele>438.25</ele>
        <time>2022-10-10T13:34:13Z</time>
      </trkpt>
      <trkpt lat="47.23377" lon="6.14185">
        <ele>438.236</ele>
        <time>2022-10-10T13:34:14Z</time>
      </trkpt>
      <trkpt lat="47.2338" lon="6.14183">
        <ele>437.846</ele>
        <time>2022-10-10T13:34:15Z</time>
      </trkpt>
      <trkpt lat="47.23381" lon="6.14183">
        <ele>437.68</ele>
        <time>2022-10-10T13:34:16Z</time>
      </trkpt>
      <trkpt lat="47.23382" lon="6.14182">
        <ele>437.632</ele>
        <time>2022-10-10T13:34:17Z</time>
      </trkpt>
      <trkpt lat="47.23382" lon="6.14182">
        <ele>437.692</ele>
        <time>2022-10-10T13:34:18Z</time>
      </trkpt>
      <trkpt lat="47.23382" lon="6.14182">
        <ele>437.411</ele>
        <time>2022-10-10T13:34:19Z</time>
      </trkpt>
      <trkpt lat="47.23382" lon="6.14182">
        <ele>437.409</ele>
        <time>2022-10-10T13:34:20Z</time>
      </trkpt>
      <trkpt lat="47.23383" lon="6.14181">
        <ele>437.214</ele>
        <time>2022-10-10T13:34:21Z</time>
      </trkpt>
      <trkpt lat="47.23389" lon="6.14172">
        <ele>437.074</ele>
        <time>2022-10-10T13:34:24Z</time>
      </trkpt>
      <trkpt lat="47.23396" lon="6.1416">
        <ele>436.258</ele>
        <time>2022-10-10T13:34:27Z</time>
      </trkpt>
      <trkpt lat="47.23402" lon="6.14153">
        <ele>436.082</ele>
        <time>2022-10-10T13:34:29Z</time>
      </trkpt>
      <trkpt lat="47.2341" lon="6.14141">
        <ele>435.215</ele>
        <time>2022-10-10T13:34:32Z</time>
      </trkpt>
      <trkpt lat="47.23413" lon="6.14136">
        <ele>435.251</ele>
        <time>2022-10-10T13:34:33Z</time>
      </trkpt>
      <trkpt lat="47.23415" lon="6.14132">
        <ele>434.657</ele>
        <time>2022-10-10T13:34:34Z</time>
      </trkpt>
      <trkpt lat="47.23418" lon="6.14129">
        <ele>434.297</ele>
        <time>2022-10-10T13:34:35Z</time>
      </trkpt>
      <trkpt lat="47.23421" lon="6.14126">
        <ele>434.271</ele>
        <time>2022-10-10T13:34:36Z</time>
      </trkpt>
      <trkpt lat="47.23424" lon="6.14125">
        <ele>433.445</ele>
        <time>2022-10-10T13:34:37Z</time>
      </trkpt>
      <trkpt lat="47.23427" lon="6.14125">
        <ele>433.047</ele>
        <time>2022-10-10T13:34:38Z</time>
      </trkpt>
      <trkpt lat="47.23431" lon="6.14123">
        <ele>432.611</ele>
        <time>2022-10-10T13:34:39Z</time>
      </trkpt>
      <trkpt lat="47.23433" lon="6.1412">
        <ele>432.409</ele>
        <time>2022-10-10T13:34:40Z</time>
      </trkpt>
      <trkpt lat="47.23436" lon="6.14115">
        <ele>432.025</ele>
        <time>2022-10-10T13:34:41Z</time>
      </trkpt>
      <trkpt lat="47.23439" lon="6.1411">
        <ele>431.675</ele>
        <time>2022-10-10T13:34:42Z</time>
      </trkpt>
      <trkpt lat="47.23442" lon="6.14104">
        <ele>430.299</ele>
        <time>2022-10-10T13:34:43Z</time>
      </trkpt>
      <trkpt lat="47.23445" lon="6.14099">
        <ele>430.063</ele>
        <time>2022-10-10T13:34:44Z</time>
      </trkpt>
      <trkpt lat="47.23448" lon="6.14094">
        <ele>429.236</ele>
        <time>2022-10-10T13:34:45Z</time>
      </trkpt>
      <trkpt lat="47.23451" lon="6.14089">
        <ele>429.082</ele>
        <time>2022-10-10T13:34:46Z</time>
      </trkpt>
      <trkpt lat="47.23453" lon="6.14084">
        <ele>429.088</ele>
        <time>2022-10-10T13:34:47Z</time>
      </trkpt>
      <trkpt lat="47.23454" lon="6.1408">
        <ele>429.058</ele>
        <time>2022-10-10T13:34:48Z</time>
      </trkpt>
      <trkpt lat="47.23455" lon="6.14075">
        <ele>428.672</ele>
        <time>2022-10-10T13:34:49Z</time>
      </trkpt>
      <trkpt lat="47.23457" lon="6.14072">
        <ele>428.098</ele>
        <time>2022-10-10T13:34:50Z</time>
      </trkpt>
      <trkpt lat="47.2346" lon="6.14069">
        <ele>428.015</ele>
        <time>2022-10-10T13:34:51Z</time>
      </trkpt>
      <trkpt lat="47.23464" lon="6.14068">
        <ele>427.626</ele>
        <time>2022-10-10T13:34:52Z</time>
      </trkpt>
      <trkpt lat="47.23467" lon="6.14065">
        <ele>427.609</ele>
        <time>2022-10-10T13:34:53Z</time>
      </trkpt>
      <trkpt lat="47.23473" lon="6.14056">
        <ele>426.26</ele>
        <time>2022-10-10T13:34:55Z</time>
      </trkpt>
      <trkpt lat="47.23483" lon="6.14044">
        <ele>425.42</ele>
        <time>2022-10-10T13:34:58Z</time>
      </trkpt>
      <trkpt lat="47.2349" lon="6.14039">
        <ele>425.044</ele>
        <time>2022-10-10T13:35:00Z</time>
      </trkpt>
      <trkpt lat="47.23495" lon="6.14037">
        <ele>424.468</ele>
        <time>2022-10-10T13:35:01Z</time>
      </trkpt>
      <trkpt lat="47.235" lon="6.14035">
        <ele>423.831</ele>
        <time>2022-10-10T13:35:02Z</time>
      </trkpt>
      <trkpt lat="47.23504" lon="6.14033">
        <ele>423.267</ele>
        <time>2022-10-10T13:35:03Z</time>
      </trkpt>
      <trkpt lat="47.23508" lon="6.14031">
        <ele>423.253</ele>
        <time>2022-10-10T13:35:04Z</time>
      </trkpt>
      <trkpt lat="47.23512" lon="6.14028">
        <ele>423.273</ele>
        <time>2022-10-10T13:35:05Z</time>
      </trkpt>
      <trkpt lat="47.23514" lon="6.14024">
        <ele>422.277</ele>
        <time>2022-10-10T13:35:06Z</time>
      </trkpt>
      <trkpt lat="47.23517" lon="6.1402">
        <ele>422.256</ele>
        <time>2022-10-10T13:35:07Z</time>
      </trkpt>
      <trkpt lat="47.2352" lon="6.14017">
        <ele>421.859</ele>
        <time>2022-10-10T13:35:08Z</time>
      </trkpt>
      <trkpt lat="47.23524" lon="6.14009">
        <ele>421.614</ele>
        <time>2022-10-10T13:35:10Z</time>
      </trkpt>
      <trkpt lat="47.23526" lon="6.14006">
        <ele>421.209</ele>
        <time>2022-10-10T13:35:11Z</time>
      </trkpt>
      <trkpt lat="47.23531" lon="6.14001">
        <ele>421.036</ele>
        <time>2022-10-10T13:35:13Z</time>
      </trkpt>
      <trkpt lat="47.23534" lon="6.13998">
        <ele>420.886</ele>
        <time>2022-10-10T13:35:14Z</time>
      </trkpt>
      <trkpt lat="47.23544" lon="6.13989">
        <ele>420.02</ele>
        <time>2022-10-10T13:35:17Z</time>
      </trkpt>
      <trkpt lat="47.23547" lon="6.13988">
        <ele>419.884</ele>
        <time>2022-10-10T13:35:18Z</time>
      </trkpt>
      <trkpt lat="47.2355" lon="6.13985">
        <ele>419.867</ele>
        <time>2022-10-10T13:35:19Z</time>
      </trkpt>
      <trkpt lat="47.23552" lon="6.13982">
        <ele>419.673</ele>
        <time>2022-10-10T13:35:20Z</time>
      </trkpt>
      <trkpt lat="47.23554" lon="6.1398">
        <ele>419.689</ele>
        <time>2022-10-10T13:35:21Z</time>
      </trkpt>
      <trkpt lat="47.23558" lon="6.13977">
        <ele>419.629</ele>
        <time>2022-10-10T13:35:23Z</time>
      </trkpt>
      <trkpt lat="47.2356" lon="6.13975">
        <ele>419.443</ele>
        <time>2022-10-10T13:35:24Z</time>
      </trkpt>
      <trkpt lat="47.23559" lon="6.13973">
        <ele>419.288</ele>
        <time>2022-10-10T13:35:25Z</time>
      </trkpt>
      <trkpt lat="47.23558" lon="6.1396">
        <ele>419.024</ele>
        <time>2022-10-10T13:35:28Z</time>
      </trkpt>
      <trkpt lat="47.23561" lon="6.13956">
        <ele>418.826</ele>
        <time>2022-10-10T13:35:29Z</time>
      </trkpt>
      <trkpt lat="47.23574" lon="6.13948">
        <ele>418.809</ele>
        <time>2022-10-10T13:35:33Z</time>
      </trkpt>
      <trkpt lat="47.23576" lon="6.13946">
        <ele>419.039</ele>
        <time>2022-10-10T13:35:34Z</time>
      </trkpt>
      <trkpt lat="47.23577" lon="6.13945">
        <ele>419.049</ele>
        <time>2022-10-10T13:35:35Z</time>
      </trkpt>
      <trkpt lat="47.23577" lon="6.13945">
        <ele>419.043</ele>
        <time>2022-10-10T13:35:36Z</time>
      </trkpt>
      <trkpt lat="47.23577" lon="6.13944">
        <ele>418.827</ele>
        <time>2022-10-10T13:35:37Z</time>
      </trkpt>
      <trkpt lat="47.23582" lon="6.13943">
        <ele>418.42</ele>
        <time>2022-10-10T13:35:40Z</time>
      </trkpt>
      <trkpt lat="47.23585" lon="6.13945">
        <ele>418.476</ele>
        <time>2022-10-10T13:35:41Z</time>
      </trkpt>
      <trkpt lat="47.23592" lon="6.13956">
        <ele>417.832</ele>
        <time>2022-10-10T13:35:44Z</time>
      </trkpt>
      <trkpt lat="47.23594" lon="6.1396">
        <ele>417.822</ele>
        <time>2022-10-10T13:35:45Z</time>
      </trkpt>
      <trkpt lat="47.23597" lon="6.13964">
        <ele>417.856</ele>
        <time>2022-10-10T13:35:46Z</time>
      </trkpt>
      <trkpt lat="47.23602" lon="6.13978">
        <ele>417.855</ele>
        <time>2022-10-10T13:35:49Z</time>
      </trkpt>
      <trkpt lat="47.23603" lon="6.13982">
        <ele>418.007</ele>
        <time>2022-10-10T13:35:50Z</time>
      </trkpt>
      <trkpt lat="47.23604" lon="6.13987">
        <ele>418.217</ele>
        <time>2022-10-10T13:35:51Z</time>
      </trkpt>
      <trkpt lat="47.23609" lon="6.13995">
        <ele>418.409</ele>
        <time>2022-10-10T13:35:54Z</time>
      </trkpt>
      <trkpt lat="47.23613" lon="6.13998">
        <ele>418.426</ele>
        <time>2022-10-10T13:35:55Z</time>
      </trkpt>
      <trkpt lat="47.23615" lon="6.14">
        <ele>418.466</ele>
        <time>2022-10-10T13:35:56Z</time>
      </trkpt>
      <trkpt lat="47.23619" lon="6.14006">
        <ele>417.86</ele>
        <time>2022-10-10T13:35:58Z</time>
      </trkpt>
      <trkpt lat="47.2362" lon="6.14011">
        <ele>417.044</ele>
        <time>2022-10-10T13:35:59Z</time>
      </trkpt>
      <trkpt lat="47.23622" lon="6.14016">
        <ele>417.047</ele>
        <time>2022-10-10T13:36:00Z</time>
      </trkpt>
      <trkpt lat="47.23624" lon="6.14021">
        <ele>417.073</ele>
        <time>2022-10-10T13:36:01Z</time>
      </trkpt>
      <trkpt lat="47.23627" lon="6.14025">
        <ele>417.079</ele>
        <time>2022-10-10T13:36:02Z</time>
      </trkpt>
      <trkpt lat="47.2363" lon="6.14029">
        <ele>417.069</ele>
        <time>2022-10-10T13:36:03Z</time>
      </trkpt>
      <trkpt lat="47.23633" lon="6.14031">
        <ele>417.243</ele>
        <time>2022-10-10T13:36:04Z</time>
      </trkpt>
      <trkpt lat="47.23637" lon="6.14034">
        <ele>417.683</ele>
        <time>2022-10-10T13:36:05Z</time>
      </trkpt>
      <trkpt lat="47.23641" lon="6.14035">
        <ele>417.625</ele>
        <time>2022-10-10T13:36:06Z</time>
      </trkpt>
      <trkpt lat="47.23645" lon="6.14036">
        <ele>417.817</ele>
        <time>2022-10-10T13:36:07Z</time>
      </trkpt>
      <trkpt lat="47.23649" lon="6.14038">
        <ele>418.009</ele>
        <time>2022-10-10T13:36:08Z</time>
      </trkpt>
      <trkpt lat="47.2366" lon="6.14042">
        <ele>418.229</ele>
        <time>2022-10-10T13:36:11Z</time>
      </trkpt>
      <trkpt lat="47.23672" lon="6.1405">
        <ele>418.289</ele>
        <time>2022-10-10T13:36:14Z</time>
      </trkpt>
      <trkpt lat="47.23679" lon="6.14057">
        <ele>417.883</ele>
        <time>2022-10-10T13:36:16Z</time>
      </trkpt>
      <trkpt lat="47.23684" lon="6.1406">
        <ele>417.477</ele>
        <time>2022-10-10T13:36:18Z</time>
      </trkpt>
      <trkpt lat="47.23689" lon="6.1406">
        <ele>417.27</ele>
        <time>2022-10-10T13:36:19Z</time>
      </trkpt>
      <trkpt lat="47.23693" lon="6.14059">
        <ele>417.266</ele>
        <time>2022-10-10T13:36:20Z</time>
      </trkpt>
      <trkpt lat="47.23697" lon="6.1406">
        <ele>416.672</ele>
        <time>2022-10-10T13:36:21Z</time>
      </trkpt>
      <trkpt lat="47.23701" lon="6.14062">
        <ele>416.432</ele>
        <time>2022-10-10T13:36:22Z</time>
      </trkpt>
      <trkpt lat="47.23704" lon="6.14064">
        <ele>416.466</ele>
        <time>2022-10-10T13:36:23Z</time>
      </trkpt>
      <trkpt lat="47.23707" lon="6.14067">
        <ele>416.488</ele>
        <time>2022-10-10T13:36:24Z</time>
      </trkpt>
      <trkpt lat="47.2371" lon="6.14069">
        <ele>416.224</ele>
        <time>2022-10-10T13:36:25Z</time>
      </trkpt>
      <trkpt lat="47.23713" lon="6.14068">
        <ele>416.426</ele>
        <time>2022-10-10T13:36:26Z</time>
      </trkpt>
      <trkpt lat="47.23717" lon="6.14068">
        <ele>416.609</ele>
        <time>2022-10-10T13:36:27Z</time>
      </trkpt>
      <trkpt lat="47.2372" lon="6.14067">
        <ele>416.649</ele>
        <time>2022-10-10T13:36:28Z</time>
      </trkpt>
      <trkpt lat="47.23723" lon="6.14067">
        <ele>416.679</ele>
        <time>2022-10-10T13:36:29Z</time>
      </trkpt>
      <trkpt lat="47.23726" lon="6.14067">
        <ele>417.263</ele>
        <time>2022-10-10T13:36:30Z</time>
      </trkpt>
      <trkpt lat="47.23728" lon="6.1407">
        <ele>417.237</ele>
        <time>2022-10-10T13:36:31Z</time>
      </trkpt>
      <trkpt lat="47.2373" lon="6.14073">
        <ele>417.42</ele>
        <time>2022-10-10T13:36:32Z</time>
      </trkpt>
      <trkpt lat="47.23733" lon="6.14083">
        <ele>417.866</ele>
        <time>2022-10-10T13:36:34Z</time>
      </trkpt>
      <trkpt lat="47.23735" lon="6.14086">
        <ele>418.072</ele>
        <time>2022-10-10T13:36:35Z</time>
      </trkpt>
      <trkpt lat="47.23737" lon="6.1409">
        <ele>418.092</ele>
        <time>2022-10-10T13:36:36Z</time>
      </trkpt>
      <trkpt lat="47.23741" lon="6.14093">
        <ele>418.616</ele>
        <time>2022-10-10T13:36:37Z</time>
      </trkpt>
      <trkpt lat="47.23744" lon="6.14096">
        <ele>418.834</ele>
        <time>2022-10-10T13:36:38Z</time>
      </trkpt>
      <trkpt lat="47.23747" lon="6.14097">
        <ele>419.055</ele>
        <time>2022-10-10T13:36:39Z</time>
      </trkpt>
      <trkpt lat="47.23758" lon="6.14103">
        <ele>419.41</ele>
        <time>2022-10-10T13:36:42Z</time>
      </trkpt>
      <trkpt lat="47.23761" lon="6.14105">
        <ele>419.609</ele>
        <time>2022-10-10T13:36:43Z</time>
      </trkpt>
      <trkpt lat="47.23765" lon="6.14106">
        <ele>419.654</ele>
        <time>2022-10-10T13:36:44Z</time>
      </trkpt>
      <trkpt lat="47.23768" lon="6.14108">
        <ele>420.254</ele>
        <time>2022-10-10T13:36:45Z</time>
      </trkpt>
      <trkpt lat="47.23771" lon="6.14111">
        <ele>420.428</ele>
        <time>2022-10-10T13:36:46Z</time>
      </trkpt>
      <trkpt lat="47.23774" lon="6.14114">
        <ele>420.452</ele>
        <time>2022-10-10T13:36:47Z</time>
      </trkpt>
      <trkpt lat="47.23775" lon="6.14116">
        <ele>420.635</ele>
        <time>2022-10-10T13:36:48Z</time>
      </trkpt>
      <trkpt lat="47.23777" lon="6.14117">
        <ele>420.871</ele>
        <time>2022-10-10T13:36:49Z</time>
      </trkpt>
      <trkpt lat="47.23777" lon="6.14118">
        <ele>420.897</ele>
        <time>2022-10-10T13:36:50Z</time>
      </trkpt>
      <trkpt lat="47.23779" lon="6.14119">
        <ele>421.067</ele>
        <time>2022-10-10T13:36:51Z</time>
      </trkpt>
      <trkpt lat="47.2378" lon="6.14119">
        <ele>421.011</ele>
        <time>2022-10-10T13:36:52Z</time>
      </trkpt>
      <trkpt lat="47.23781" lon="6.14121">
        <ele>421.039</ele>
        <time>2022-10-10T13:36:53Z</time>
      </trkpt>
      <trkpt lat="47.23782" lon="6.14123">
        <ele>421.001</ele>
        <time>2022-10-10T13:36:54Z</time>
      </trkpt>
      <trkpt lat="47.23783" lon="6.14126">
        <ele>421.221</ele>
        <time>2022-10-10T13:36:55Z</time>
      </trkpt>
      <trkpt lat="47.23784" lon="6.14129">
        <ele>421.009</ele>
        <time>2022-10-10T13:36:56Z</time>
      </trkpt>
      <trkpt lat="47.23786" lon="6.14132">
        <ele>421.084</ele>
        <time>2022-10-10T13:36:57Z</time>
      </trkpt>
      <trkpt lat="47.23788" lon="6.14136">
        <ele>421.084</ele>
        <time>2022-10-10T13:36:58Z</time>
      </trkpt>
      <trkpt lat="47.2379" lon="6.1414">
        <ele>421.248</ele>
        <time>2022-10-10T13:36:59Z</time>
      </trkpt>
      <trkpt lat="47.23792" lon="6.14144">
        <ele>421.252</ele>
        <time>2022-10-10T13:37:00Z</time>
      </trkpt>
      <trkpt lat="47.23794" lon="6.14148">
        <ele>421.285</ele>
        <time>2022-10-10T13:37:01Z</time>
      </trkpt>
      <trkpt lat="47.23797" lon="6.14153">
        <ele>421.281</ele>
        <time>2022-10-10T13:37:02Z</time>
      </trkpt>
      <trkpt lat="47.23799" lon="6.14156">
        <ele>421.477</ele>
        <time>2022-10-10T13:37:03Z</time>
      </trkpt>
      <trkpt lat="47.23802" lon="6.14162">
        <ele>421.487</ele>
        <time>2022-10-10T13:37:04Z</time>
      </trkpt>
      <trkpt lat="47.23803" lon="6.14167">
        <ele>421.651</ele>
        <time>2022-10-10T13:37:05Z</time>
      </trkpt>
      <trkpt lat="47.23805" lon="6.14172">
        <ele>422.038</ele>
        <time>2022-10-10T13:37:06Z</time>
      </trkpt>
      <trkpt lat="47.23807" lon="6.14176">
        <ele>422.67</ele>
        <time>2022-10-10T13:37:07Z</time>
      </trkpt>
      <trkpt lat="47.23808" lon="6.1418">
        <ele>422.617</ele>
        <time>2022-10-10T13:37:08Z</time>
      </trkpt>
      <trkpt lat="47.2381" lon="6.14184">
        <ele>422.809</ele>
        <time>2022-10-10T13:37:09Z</time>
      </trkpt>
      <trkpt lat="47.23811" lon="6.14188">
        <ele>422.864</ele>
        <time>2022-10-10T13:37:10Z</time>
      </trkpt>
      <trkpt lat="47.23812" lon="6.14191">
        <ele>422.834</ele>
        <time>2022-10-10T13:37:11Z</time>
      </trkpt>
      <trkpt lat="47.23813" lon="6.14194">
        <ele>422.878</ele>
        <time>2022-10-10T13:37:12Z</time>
      </trkpt>
      <trkpt lat="47.23815" lon="6.14197">
        <ele>423.082</ele>
        <time>2022-10-10T13:37:13Z</time>
      </trkpt>
      <trkpt lat="47.23817" lon="6.14201">
        <ele>423.085</ele>
        <time>2022-10-10T13:37:14Z</time>
      </trkpt>
      <trkpt lat="47.23819" lon="6.14204">
        <ele>423.081</ele>
        <time>2022-10-10T13:37:15Z</time>
      </trkpt>
      <trkpt lat="47.23822" lon="6.14207">
        <ele>423.017</ele>
        <time>2022-10-10T13:37:16Z</time>
      </trkpt>
      <trkpt lat="47.23825" lon="6.14211">
        <ele>423.037</ele>
        <time>2022-10-10T13:37:17Z</time>
      </trkpt>
      <trkpt lat="47.23828" lon="6.14214">
        <ele>422.871</ele>
        <time>2022-10-10T13:37:18Z</time>
      </trkpt>
      <trkpt lat="47.23831" lon="6.14218">
        <ele>422.838</ele>
        <time>2022-10-10T13:37:19Z</time>
      </trkpt>
      <trkpt lat="47.23832" lon="6.14221">
        <ele>422.67</ele>
        <time>2022-10-10T13:37:20Z</time>
      </trkpt>
      <trkpt lat="47.23836" lon="6.14224">
        <ele>422.617</ele>
        <time>2022-10-10T13:37:21Z</time>
      </trkpt>
      <trkpt lat="47.23838" lon="6.14229">
        <ele>422.609</ele>
        <time>2022-10-10T13:37:22Z</time>
      </trkpt>
      <trkpt lat="47.23843" lon="6.14237">
        <ele>423.234</ele>
        <time>2022-10-10T13:37:24Z</time>
      </trkpt>
      <trkpt lat="47.23845" lon="6.14241">
        <ele>423.254</ele>
        <time>2022-10-10T13:37:25Z</time>
      </trkpt>
      <trkpt lat="47.23848" lon="6.14244">
        <ele>424.078</ele>
        <time>2022-10-10T13:37:26Z</time>
      </trkpt>
      <trkpt lat="47.2385" lon="6.14244">
        <ele>424.062</ele>
        <time>2022-10-10T13:37:27Z</time>
      </trkpt>
      <trkpt lat="47.23851" lon="6.14244">
        <ele>424.265</ele>
        <time>2022-10-10T13:37:28Z</time>
      </trkpt>
      <trkpt lat="47.23854" lon="6.14245">
        <ele>424.261</ele>
        <time>2022-10-10T13:37:29Z</time>
      </trkpt>
      <trkpt lat="47.23855" lon="6.14249">
        <ele>424.467</ele>
        <time>2022-10-10T13:37:30Z</time>
      </trkpt>
      <trkpt lat="47.23856" lon="6.14253">
        <ele>424.697</ele>
        <time>2022-10-10T13:37:31Z</time>
      </trkpt>
      <trkpt lat="47.23856" lon="6.14253">
        <ele>424.821</ele>
        <time>2022-10-10T13:37:32Z</time>
      </trkpt>
      <trkpt lat="47.23856" lon="6.14253">
        <ele>425.059</ele>
        <time>2022-10-10T13:37:33Z</time>
      </trkpt>
      <trkpt lat="47.23856" lon="6.14253">
        <ele>425.003</ele>
        <time>2022-10-10T13:37:34Z</time>
      </trkpt>
      <trkpt lat="47.23857" lon="6.14254">
        <ele>424.823</ele>
        <time>2022-10-10T13:37:41Z</time>
      </trkpt>
      <trkpt lat="47.23857" lon="6.14254">
        <ele>424.809</ele>
        <time>2022-10-10T13:37:42Z</time>
      </trkpt>
      <trkpt lat="47.23857" lon="6.14254">
        <ele>424.866</ele>
        <time>2022-10-10T13:37:49Z</time>
      </trkpt>
      <trkpt lat="47.23857" lon="6.14254">
        <ele>424.856</ele>
        <time>2022-10-10T13:37:51Z</time>
      </trkpt>
      <trkpt lat="47.23857" lon="6.14254">
        <ele>424.63</ele>
        <time>2022-10-10T13:37:54Z</time>
      </trkpt>
      <trkpt lat="47.2386" lon="6.14261">
        <ele>424.264</ele>
        <time>2022-10-10T13:38:14Z</time>
      </trkpt>
      <trkpt lat="47.23861" lon="6.14263">
        <ele>424.437</ele>
        <time>2022-10-10T13:38:15Z</time>
      </trkpt>
      <trkpt lat="47.23864" lon="6.14267">
        <ele>424.853</ele>
        <time>2022-10-10T13:38:17Z</time>
      </trkpt>
      <trkpt lat="47.23867" lon="6.14271">
        <ele>424.839</ele>
        <time>2022-10-10T13:38:18Z</time>
      </trkpt>
      <trkpt lat="47.2387" lon="6.14274">
        <ele>425.039</ele>
        <time>2022-10-10T13:38:19Z</time>
      </trkpt>
      <trkpt lat="47.23873" lon="6.14276">
        <ele>425.213</ele>
        <time>2022-10-10T13:38:20Z</time>
      </trkpt>
      <trkpt lat="47.23876" lon="6.14277">
        <ele>425.265</ele>
        <time>2022-10-10T13:38:21Z</time>
      </trkpt>
      <trkpt lat="47.23878" lon="6.14278">
        <ele>425.468</ele>
        <time>2022-10-10T13:38:22Z</time>
      </trkpt>
      <trkpt lat="47.2388" lon="6.14278">
        <ele>425.414</ele>
        <time>2022-10-10T13:38:23Z</time>
      </trkpt>
      <trkpt lat="47.23882" lon="6.14279">
        <ele>425.409</ele>
        <time>2022-10-10T13:38:24Z</time>
      </trkpt>
      <trkpt lat="47.23884" lon="6.14279">
        <ele>425.667</ele>
        <time>2022-10-10T13:38:25Z</time>
      </trkpt>
      <trkpt lat="47.23888" lon="6.1428">
        <ele>425.827</ele>
        <time>2022-10-10T13:38:27Z</time>
      </trkpt>
      <trkpt lat="47.23891" lon="6.1428">
        <ele>425.891</ele>
        <time>2022-10-10T13:38:28Z</time>
      </trkpt>
      <trkpt lat="47.23893" lon="6.14281">
        <ele>426.055</ele>
        <time>2022-10-10T13:38:29Z</time>
      </trkpt>
      <trkpt lat="47.23895" lon="6.14282">
        <ele>426.028</ele>
        <time>2022-10-10T13:38:30Z</time>
      </trkpt>
      <trkpt lat="47.23896" lon="6.14281">
        <ele>426.044</ele>
        <time>2022-10-10T13:38:31Z</time>
      </trkpt>
      <trkpt lat="47.23897" lon="6.1428">
        <ele>426.05</ele>
        <time>2022-10-10T13:38:32Z</time>
      </trkpt>
      <trkpt lat="47.23899" lon="6.14279">
        <ele>426.27</ele>
        <time>2022-10-10T13:38:33Z</time>
      </trkpt>
      <trkpt lat="47.23903" lon="6.14281">
        <ele>426.214</ele>
        <time>2022-10-10T13:38:35Z</time>
      </trkpt>
      <trkpt lat="47.23903" lon="6.14281">
        <ele>426.276</ele>
        <time>2022-10-10T13:38:36Z</time>
      </trkpt>
      <trkpt lat="47.23903" lon="6.14281">
        <ele>426.49</ele>
        <time>2022-10-10T13:38:37Z</time>
      </trkpt>
      <trkpt lat="47.23903" lon="6.14281">
        <ele>426.419</ele>
        <time>2022-10-10T13:38:38Z</time>
      </trkpt>
      <trkpt lat="47.23905" lon="6.14283">
        <ele>426.409</ele>
        <time>2022-10-10T13:38:40Z</time>
      </trkpt>
      <trkpt lat="47.23911" lon="6.14288">
        <ele>426.418</ele>
        <time>2022-10-10T13:38:43Z</time>
      </trkpt>
      <trkpt lat="47.23914" lon="6.14289">
        <ele>426.858</ele>
        <time>2022-10-10T13:38:44Z</time>
      </trkpt>
      <trkpt lat="47.23919" lon="6.14294">
        <ele>427.042</ele>
        <time>2022-10-10T13:38:46Z</time>
      </trkpt>
      <trkpt lat="47.23922" lon="6.14295">
        <ele>427.276</ele>
        <time>2022-10-10T13:38:47Z</time>
      </trkpt>
      <trkpt lat="47.23934" lon="6.143">
        <ele>427.859</ele>
        <time>2022-10-10T13:38:51Z</time>
      </trkpt>
      <trkpt lat="47.2394" lon="6.14304">
        <ele>428.465</ele>
        <time>2022-10-10T13:38:53Z</time>
      </trkpt>
      <trkpt lat="47.23945" lon="6.14308">
        <ele>428.481</ele>
        <time>2022-10-10T13:38:55Z</time>
      </trkpt>
      <trkpt lat="47.23947" lon="6.14309">
        <ele>428.631</ele>
        <time>2022-10-10T13:38:56Z</time>
      </trkpt>
      <trkpt lat="47.23949" lon="6.14311">
        <ele>428.845</ele>
        <time>2022-10-10T13:38:57Z</time>
      </trkpt>
      <trkpt lat="47.23953" lon="6.14315">
        <ele>428.858</ele>
        <time>2022-10-10T13:38:58Z</time>
      </trkpt>
      <trkpt lat="47.23957" lon="6.14318">
        <ele>428.852</ele>
        <time>2022-10-10T13:38:59Z</time>
      </trkpt>
      <trkpt lat="47.2396" lon="6.14323">
        <ele>429.017</ele>
        <time>2022-10-10T13:39:00Z</time>
      </trkpt>
      <trkpt lat="47.23964" lon="6.14328">
        <ele>429.409</ele>
        <time>2022-10-10T13:39:01Z</time>
      </trkpt>
      <trkpt lat="47.23968" lon="6.14332">
        <ele>429.466</ele>
        <time>2022-10-10T13:39:02Z</time>
      </trkpt>
      <trkpt lat="47.23971" lon="6.14337">
        <ele>429.626</ele>
        <time>2022-10-10T13:39:03Z</time>
      </trkpt>
      <trkpt lat="47.23974" lon="6.14343">
        <ele>430.01</ele>
        <time>2022-10-10T13:39:04Z</time>
      </trkpt>
      <trkpt lat="47.23976" lon="6.14349">
        <ele>430.034</ele>
        <time>2022-10-10T13:39:05Z</time>
      </trkpt>
      <trkpt lat="47.23978" lon="6.14355">
        <ele>430.247</ele>
        <time>2022-10-10T13:39:06Z</time>
      </trkpt>
      <trkpt lat="47.2398" lon="6.14362">
        <ele>430.223</ele>
        <time>2022-10-10T13:39:07Z</time>
      </trkpt>
      <trkpt lat="47.23982" lon="6.14368">
        <ele>430.299</ele>
        <time>2022-10-10T13:39:08Z</time>
      </trkpt>
      <trkpt lat="47.23984" lon="6.14374">
        <ele>430.259</ele>
        <time>2022-10-10T13:39:09Z</time>
      </trkpt>
      <trkpt lat="47.23987" lon="6.1438">
        <ele>430.223</ele>
        <time>2022-10-10T13:39:10Z</time>
      </trkpt>
      <trkpt lat="47.23989" lon="6.14385">
        <ele>430.253</ele>
        <time>2022-10-10T13:39:11Z</time>
      </trkpt>
      <trkpt lat="47.23991" lon="6.14392">
        <ele>430.404</ele>
        <time>2022-10-10T13:39:12Z</time>
      </trkpt>
      <trkpt lat="47.23992" lon="6.14398">
        <ele>430.414</ele>
        <time>2022-10-10T13:39:13Z</time>
      </trkpt>
      <trkpt lat="47.23993" lon="6.14404">
        <ele>430.609</ele>
        <time>2022-10-10T13:39:14Z</time>
      </trkpt>
      <trkpt lat="47.23994" lon="6.1441">
        <ele>430.626</ele>
        <time>2022-10-10T13:39:15Z</time>
      </trkpt>
      <trkpt lat="47.23996" lon="6.14416">
        <ele>430.656</ele>
        <time>2022-10-10T13:39:16Z</time>
      </trkpt>
      <trkpt lat="47.23997" lon="6.14422">
        <ele>430.68</ele>
        <time>2022-10-10T13:39:17Z</time>
      </trkpt>
      <trkpt lat="47.23998" lon="6.14429">
        <ele>430.844</ele>
        <time>2022-10-10T13:39:18Z</time>
      </trkpt>
      <trkpt lat="47.23999" lon="6.14436">
        <ele>430.647</ele>
        <time>2022-10-10T13:39:19Z</time>
      </trkpt>
      <trkpt lat="47.24" lon="6.14443">
        <ele>430.613</ele>
        <time>2022-10-10T13:39:20Z</time>
      </trkpt>
      <trkpt lat="47.24001" lon="6.14449">
        <ele>430.619</ele>
        <time>2022-10-10T13:39:21Z</time>
      </trkpt>
      <trkpt lat="47.24004" lon="6.14468">
        <ele>430.679</ele>
        <time>2022-10-10T13:39:24Z</time>
      </trkpt>
      <trkpt lat="47.2401" lon="6.14498">
        <ele>430.263</ele>
        <time>2022-10-10T13:39:29Z</time>
      </trkpt>
      <trkpt lat="47.24011" lon="6.14504">
        <ele>430.058</ele>
        <time>2022-10-10T13:39:30Z</time>
      </trkpt>
      <trkpt lat="47.24014" lon="6.14517">
        <ele>429.852</ele>
        <time>2022-10-10T13:39:32Z</time>
      </trkpt>
      <trkpt lat="47.24015" lon="6.14532">
        <ele>429.417</ele>
        <time>2022-10-10T13:39:34Z</time>
      </trkpt>
      <trkpt lat="47.24015" lon="6.14539">
        <ele>429.209</ele>
        <time>2022-10-10T13:39:35Z</time>
      </trkpt>
      <trkpt lat="47.24015" lon="6.14546">
        <ele>429.236</ele>
        <time>2022-10-10T13:39:36Z</time>
      </trkpt>
      <trkpt lat="47.24014" lon="6.14552">
        <ele>429.296</ele>
        <time>2022-10-10T13:39:37Z</time>
      </trkpt>
      <trkpt lat="47.24013" lon="6.14558">
        <ele>429.25</ele>
        <time>2022-10-10T13:39:38Z</time>
      </trkpt>
      <trkpt lat="47.24013" lon="6.14564">
        <ele>429.674</ele>
        <time>2022-10-10T13:39:39Z</time>
      </trkpt>
      <trkpt lat="47.24012" lon="6.1457">
        <ele>429.627</ele>
        <time>2022-10-10T13:39:40Z</time>
      </trkpt>
      <trkpt lat="47.24012" lon="6.14576">
        <ele>429.823</ele>
        <time>2022-10-10T13:39:41Z</time>
      </trkpt>
      <trkpt lat="47.24011" lon="6.14582">
        <ele>429.829</ele>
        <time>2022-10-10T13:39:42Z</time>
      </trkpt>
      <trkpt lat="47.24008" lon="6.146">
        <ele>429.449</ele>
        <time>2022-10-10T13:39:45Z</time>
      </trkpt>
      <trkpt lat="47.24006" lon="6.14606">
        <ele>429.463</ele>
        <time>2022-10-10T13:39:46Z</time>
      </trkpt>
      <trkpt lat="47.24004" lon="6.14611">
        <ele>429.093</ele>
        <time>2022-10-10T13:39:47Z</time>
      </trkpt>
      <trkpt lat="47.24001" lon="6.14615">
        <ele>428.465</ele>
        <time>2022-10-10T13:39:48Z</time>
      </trkpt>
      <trkpt lat="47.23996" lon="6.14619">
        <ele>428.221</ele>
        <time>2022-10-10T13:39:49Z</time>
      </trkpt>
      <trkpt lat="47.23992" lon="6.14623">
        <ele>428.209</ele>
        <time>2022-10-10T13:39:50Z</time>
      </trkpt>
      <trkpt lat="47.23987" lon="6.14628">
        <ele>427.03</ele>
        <time>2022-10-10T13:39:51Z</time>
      </trkpt>
      <trkpt lat="47.23975" lon="6.14642">
        <ele>425.84</ele>
        <time>2022-10-10T13:39:54Z</time>
      </trkpt>
      <trkpt lat="47.23969" lon="6.14648">
        <ele>425.814</ele>
        <time>2022-10-10T13:39:55Z</time>
      </trkpt>
      <trkpt lat="47.23965" lon="6.14652">
        <ele>425.638</ele>
        <time>2022-10-10T13:39:56Z</time>
      </trkpt>
      <trkpt lat="47.23961" lon="6.14656">
        <ele>425.471</ele>
        <time>2022-10-10T13:39:57Z</time>
      </trkpt>
      <trkpt lat="47.23957" lon="6.14661">
        <ele>425.457</ele>
        <time>2022-10-10T13:39:58Z</time>
      </trkpt>
      <trkpt lat="47.23952" lon="6.14665">
        <ele>425.483</ele>
        <time>2022-10-10T13:39:59Z</time>
      </trkpt>
      <trkpt lat="47.23948" lon="6.1467">
        <ele>425.693</ele>
        <time>2022-10-10T13:40:00Z</time>
      </trkpt>
      <trkpt lat="47.23944" lon="6.14674">
        <ele>425.837</ele>
        <time>2022-10-10T13:40:01Z</time>
      </trkpt>
      <trkpt lat="47.2394" lon="6.14677">
        <ele>425.846</ele>
        <time>2022-10-10T13:40:02Z</time>
      </trkpt>
      <trkpt lat="47.23936" lon="6.14681">
        <ele>426.088</ele>
        <time>2022-10-10T13:40:03Z</time>
      </trkpt>
      <trkpt lat="47.23932" lon="6.14685">
        <ele>426.016</ele>
        <time>2022-10-10T13:40:04Z</time>
      </trkpt>
      <trkpt lat="47.2393" lon="6.14689">
        <ele>426.009</ele>
        <time>2022-10-10T13:40:05Z</time>
      </trkpt>
      <trkpt lat="47.23916" lon="6.14714">
        <ele>426.255</ele>
        <time>2022-10-10T13:40:10Z</time>
      </trkpt>
      <trkpt lat="47.23913" lon="6.14718">
        <ele>426.275</ele>
        <time>2022-10-10T13:40:11Z</time>
      </trkpt>
      <trkpt lat="47.23908" lon="6.14728">
        <ele>426.249</ele>
        <time>2022-10-10T13:40:13Z</time>
      </trkpt>
      <trkpt lat="47.23905" lon="6.1474">
        <ele>425.843</ele>
        <time>2022-10-10T13:40:15Z</time>
      </trkpt>
      <trkpt lat="47.23906" lon="6.14747">
        <ele>425.426</ele>
        <time>2022-10-10T13:40:16Z</time>
      </trkpt>
      <trkpt lat="47.23907" lon="6.14754">
        <ele>425.412</ele>
        <time>2022-10-10T13:40:17Z</time>
      </trkpt>
      <trkpt lat="47.23908" lon="6.14761">
        <ele>425.458</ele>
        <time>2022-10-10T13:40:18Z</time>
      </trkpt>
      <trkpt lat="47.23909" lon="6.14769">
        <ele>425.298</ele>
        <time>2022-10-10T13:40:19Z</time>
      </trkpt>
      <trkpt lat="47.2391" lon="6.14776">
        <ele>425.282</ele>
        <time>2022-10-10T13:40:20Z</time>
      </trkpt>
      <trkpt lat="47.23911" lon="6.14792">
        <ele>425.051</ele>
        <time>2022-10-10T13:40:22Z</time>
      </trkpt>
      <trkpt lat="47.23912" lon="6.14799">
        <ele>425.001</ele>
        <time>2022-10-10T13:40:23Z</time>
      </trkpt>
      <trkpt lat="47.23914" lon="6.14805">
        <ele>425.011</ele>
        <time>2022-10-10T13:40:24Z</time>
      </trkpt>
      <trkpt lat="47.23919" lon="6.14825">
        <ele>424.609</ele>
        <time>2022-10-10T13:40:27Z</time>
      </trkpt>
      <trkpt lat="47.23921" lon="6.14832">
        <ele>423.876</ele>
        <time>2022-10-10T13:40:28Z</time>
      </trkpt>
      <trkpt lat="47.23923" lon="6.14838">
        <ele>423.466</ele>
        <time>2022-10-10T13:40:29Z</time>
      </trkpt>
      <trkpt lat="47.23927" lon="6.14854">
        <ele>422.42</ele>
        <time>2022-10-10T13:40:31Z</time>
      </trkpt>
      <trkpt lat="47.23928" lon="6.14862">
        <ele>422.484</ele>
        <time>2022-10-10T13:40:32Z</time>
      </trkpt>
      <trkpt lat="47.23927" lon="6.14869">
        <ele>422.467</ele>
        <time>2022-10-10T13:40:33Z</time>
      </trkpt>
      <trkpt lat="47.23925" lon="6.14874">
        <ele>422.463</ele>
        <time>2022-10-10T13:40:34Z</time>
      </trkpt>
      <trkpt lat="47.23923" lon="6.14879">
        <ele>422.839</ele>
        <time>2022-10-10T13:40:35Z</time>
      </trkpt>
      <trkpt lat="47.23921" lon="6.14884">
        <ele>423.219</ele>
        <time>2022-10-10T13:40:36Z</time>
      </trkpt>
      <trkpt lat="47.23918" lon="6.14888">
        <ele>423.413</ele>
        <time>2022-10-10T13:40:37Z</time>
      </trkpt>
      <trkpt lat="47.23916" lon="6.14899">
        <ele>423.466</ele>
        <time>2022-10-10T13:40:39Z</time>
      </trkpt>
      <trkpt lat="47.23914" lon="6.14912">
        <ele>423.029</ele>
        <time>2022-10-10T13:40:41Z</time>
      </trkpt>
      <trkpt lat="47.23912" lon="6.14919">
        <ele>423.021</ele>
        <time>2022-10-10T13:40:42Z</time>
      </trkpt>
      <trkpt lat="47.2391" lon="6.14926">
        <ele>423.009</ele>
        <time>2022-10-10T13:40:43Z</time>
      </trkpt>
      <trkpt lat="47.23909" lon="6.14932">
        <ele>423.077</ele>
        <time>2022-10-10T13:40:44Z</time>
      </trkpt>
      <trkpt lat="47.23908" lon="6.14937">
        <ele>423.087</ele>
        <time>2022-10-10T13:40:45Z</time>
      </trkpt>
      <trkpt lat="47.23908" lon="6.14941">
        <ele>422.661</ele>
        <time>2022-10-10T13:40:46Z</time>
      </trkpt>
      <trkpt lat="47.23907" lon="6.14947">
        <ele>423.025</ele>
        <time>2022-10-10T13:40:47Z</time>
      </trkpt>
      <trkpt lat="47.23907" lon="6.14959">
        <ele>423.488</ele>
        <time>2022-10-10T13:40:49Z</time>
      </trkpt>
      <trkpt lat="47.23907" lon="6.14965">
        <ele>423.434</ele>
        <time>2022-10-10T13:40:50Z</time>
      </trkpt>
      <trkpt lat="47.23907" lon="6.14973">
        <ele>423.48</ele>
        <time>2022-10-10T13:40:51Z</time>
      </trkpt>
      <trkpt lat="47.23908" lon="6.14979">
        <ele>423.44</ele>
        <time>2022-10-10T13:40:52Z</time>
      </trkpt>
      <trkpt lat="47.23908" lon="6.14985">
        <ele>423.674</ele>
        <time>2022-10-10T13:40:53Z</time>
      </trkpt>
      <trkpt lat="47.23908" lon="6.14989">
        <ele>423.658</ele>
        <time>2022-10-10T13:40:54Z</time>
      </trkpt>
      <trkpt lat="47.23908" lon="6.14994">
        <ele>423.652</ele>
        <time>2022-10-10T13:40:55Z</time>
      </trkpt>
      <trkpt lat="47.23908" lon="6.14998">
        <ele>423.617</ele>
        <time>2022-10-10T13:40:56Z</time>
      </trkpt>
      <trkpt lat="47.23907" lon="6.15003">
        <ele>423.609</ele>
        <time>2022-10-10T13:40:57Z</time>
      </trkpt>
      <trkpt lat="47.23905" lon="6.15007">
        <ele>423.426</ele>
        <time>2022-10-10T13:40:58Z</time>
      </trkpt>
      <trkpt lat="47.23903" lon="6.1501">
        <ele>423.456</ele>
        <time>2022-10-10T13:40:59Z</time>
      </trkpt>
      <trkpt lat="47.23894" lon="6.15016">
        <ele>422.44</ele>
        <time>2022-10-10T13:41:01Z</time>
      </trkpt>
      <trkpt lat="47.2388" lon="6.15025">
        <ele>421.224</ele>
        <time>2022-10-10T13:41:04Z</time>
      </trkpt>
      <trkpt lat="47.23871" lon="6.1503">
        <ele>420.677</ele>
        <time>2022-10-10T13:41:06Z</time>
      </trkpt>
      <trkpt lat="47.23866" lon="6.15032">
        <ele>420.453</ele>
        <time>2022-10-10T13:41:07Z</time>
      </trkpt>
      <trkpt lat="47.23862" lon="6.15035">
        <ele>420.479</ele>
        <time>2022-10-10T13:41:08Z</time>
      </trkpt>
      <trkpt lat="47.23857" lon="6.15037">
        <ele>420.449</ele>
        <time>2022-10-10T13:41:09Z</time>
      </trkpt>
      <trkpt lat="47.23853" lon="6.15039">
        <ele>420.273</ele>
        <time>2022-10-10T13:41:10Z</time>
      </trkpt>
      <trkpt lat="47.23845" lon="6.15043">
        <ele>420.263</ele>
        <time>2022-10-10T13:41:12Z</time>
      </trkpt>
      <trkpt lat="47.23839" lon="6.15045">
        <ele>419.244</ele>
        <time>2022-10-10T13:41:13Z</time>
      </trkpt>
      <trkpt lat="47.2383" lon="6.15052">
        <ele>419.218</ele>
        <time>2022-10-10T13:41:15Z</time>
      </trkpt>
      <trkpt lat="47.23826" lon="6.15055">
        <ele>419.209</ele>
        <time>2022-10-10T13:41:16Z</time>
      </trkpt>
      <trkpt lat="47.23822" lon="6.15057">
        <ele>420.047</ele>
        <time>2022-10-10T13:41:17Z</time>
      </trkpt>
      <trkpt lat="47.23819" lon="6.15059">
        <ele>421.687</ele>
        <time>2022-10-10T13:41:18Z</time>
      </trkpt>
      <trkpt lat="47.23811" lon="6.15063">
        <ele>421.881</ele>
        <time>2022-10-10T13:41:20Z</time>
      </trkpt>
      <trkpt lat="47.23804" lon="6.15068">
        <ele>421.855</ele>
        <time>2022-10-10T13:41:22Z</time>
      </trkpt>
      <trkpt lat="47.23787" lon="6.15078">
        <ele>421.698</ele>
        <time>2022-10-10T13:41:26Z</time>
      </trkpt>
      <trkpt lat="47.23782" lon="6.15081">
        <ele>421.674</ele>
        <time>2022-10-10T13:41:27Z</time>
      </trkpt>
      <trkpt lat="47.23774" lon="6.15086">
        <ele>421.24</ele>
        <time>2022-10-10T13:41:29Z</time>
      </trkpt>
      <trkpt lat="47.23768" lon="6.1509">
        <ele>421.24</ele>
        <time>2022-10-10T13:41:30Z</time>
      </trkpt>
      <trkpt lat="47.23763" lon="6.15092">
        <ele>421.254</ele>
        <time>2022-10-10T13:41:31Z</time>
      </trkpt>
      <trkpt lat="47.2376" lon="6.15094">
        <ele>421.268</ele>
        <time>2022-10-10T13:41:32Z</time>
      </trkpt>
      <trkpt lat="47.23757" lon="6.15096">
        <ele>421.242</ele>
        <time>2022-10-10T13:41:33Z</time>
      </trkpt>
      <trkpt lat="47.23751" lon="6.151">
        <ele>420.626</ele>
        <time>2022-10-10T13:41:35Z</time>
      </trkpt>
      <trkpt lat="47.23743" lon="6.15104">
        <ele>420.209</ele>
        <time>2022-10-10T13:41:37Z</time>
      </trkpt>
      <trkpt lat="47.23734" lon="6.15108">
        <ele>419.027</ele>
        <time>2022-10-10T13:41:39Z</time>
      </trkpt>
      <trkpt lat="47.23729" lon="6.15109">
        <ele>419.027</ele>
        <time>2022-10-10T13:41:40Z</time>
      </trkpt>
      <trkpt lat="47.23707" lon="6.1512">
        <ele>419.041</ele>
        <time>2022-10-10T13:41:45Z</time>
      </trkpt>
      <trkpt lat="47.23703" lon="6.15121">
        <ele>419.015</ele>
        <time>2022-10-10T13:41:46Z</time>
      </trkpt>
      <trkpt lat="47.23693" lon="6.15127">
        <ele>418.658</ele>
        <time>2022-10-10T13:41:48Z</time>
      </trkpt>
      <trkpt lat="47.23689" lon="6.1513">
        <ele>418.664</ele>
        <time>2022-10-10T13:41:49Z</time>
      </trkpt>
      <trkpt lat="47.23685" lon="6.15131">
        <ele>419.05</ele>
        <time>2022-10-10T13:41:50Z</time>
      </trkpt>
      <trkpt lat="47.23675" lon="6.15137">
        <ele>419.63</ele>
        <time>2022-10-10T13:41:52Z</time>
      </trkpt>
      <trkpt lat="47.23656" lon="6.15147">
        <ele>420.234</ele>
        <time>2022-10-10T13:41:56Z</time>
      </trkpt>
      <trkpt lat="47.23641" lon="6.15157">
        <ele>420.224</ele>
        <time>2022-10-10T13:41:59Z</time>
      </trkpt>
      <trkpt lat="47.23636" lon="6.1516">
        <ele>420.404</ele>
        <time>2022-10-10T13:42:00Z</time>
      </trkpt>
      <trkpt lat="47.23633" lon="6.15163">
        <ele>420.414</ele>
        <time>2022-10-10T13:42:01Z</time>
      </trkpt>
      <trkpt lat="47.23628" lon="6.15166">
        <ele>420.609</ele>
        <time>2022-10-10T13:42:02Z</time>
      </trkpt>
      <trkpt lat="47.23621" lon="6.1517">
        <ele>421.063</ele>
        <time>2022-10-10T13:42:04Z</time>
      </trkpt>
      <trkpt lat="47.23618" lon="6.15175">
        <ele>421.273</ele>
        <time>2022-10-10T13:42:05Z</time>
      </trkpt>
      <trkpt lat="47.23616" lon="6.1518">
        <ele>421.267</ele>
        <time>2022-10-10T13:42:06Z</time>
      </trkpt>
      <trkpt lat="47.23613" lon="6.15186">
        <ele>421.451</ele>
        <time>2022-10-10T13:42:07Z</time>
      </trkpt>
      <trkpt lat="47.2361" lon="6.15188">
        <ele>421.424</ele>
        <time>2022-10-10T13:42:08Z</time>
      </trkpt>
      <trkpt lat="47.23604" lon="6.15191">
        <ele>421.65</ele>
        <time>2022-10-10T13:42:09Z</time>
      </trkpt>
      <trkpt lat="47.236" lon="6.15193">
        <ele>421.696</ele>
        <time>2022-10-10T13:42:10Z</time>
      </trkpt>
      <trkpt lat="47.23596" lon="6.15194">
        <ele>421.856</ele>
        <time>2022-10-10T13:42:11Z</time>
      </trkpt>
      <trkpt lat="47.23592" lon="6.15195">
        <ele>421.85</ele>
        <time>2022-10-10T13:42:12Z</time>
      </trkpt>
      <trkpt lat="47.23591" lon="6.15196">
        <ele>422.025</ele>
        <time>2022-10-10T13:42:13Z</time>
      </trkpt>
      <trkpt lat="47.23588" lon="6.15195">
        <ele>421.826</ele>
        <time>2022-10-10T13:42:14Z</time>
      </trkpt>
      <trkpt lat="47.23585" lon="6.15195">
        <ele>421.808</ele>
        <time>2022-10-10T13:42:15Z</time>
      </trkpt>
      <trkpt lat="47.23582" lon="6.15194">
        <ele>421.809</ele>
        <time>2022-10-10T13:42:16Z</time>
      </trkpt>
      <trkpt lat="47.23575" lon="6.15196">
        <ele>421.813</ele>
        <time>2022-10-10T13:42:18Z</time>
      </trkpt>
      <trkpt lat="47.23571" lon="6.15198">
        <ele>421.843</ele>
        <time>2022-10-10T13:42:19Z</time>
      </trkpt>
      <trkpt lat="47.23567" lon="6.152">
        <ele>421.667</ele>
        <time>2022-10-10T13:42:20Z</time>
      </trkpt>
      <trkpt lat="47.23563" lon="6.15202">
        <ele>421.651</ele>
        <time>2022-10-10T13:42:21Z</time>
      </trkpt>
      <trkpt lat="47.23561" lon="6.15203">
        <ele>421.674</ele>
        <time>2022-10-10T13:42:22Z</time>
      </trkpt>
      <trkpt lat="47.23561" lon="6.15204">
        <ele>421.87</ele>
        <time>2022-10-10T13:42:23Z</time>
      </trkpt>
      <trkpt lat="47.23561" lon="6.15204">
        <ele>421.616</ele>
        <time>2022-10-10T13:42:24Z</time>
      </trkpt>
      <trkpt lat="47.2356" lon="6.15208">
        <ele>421.486</ele>
        <time>2022-10-10T13:42:32Z</time>
      </trkpt>
      <trkpt lat="47.23561" lon="6.1521">
        <ele>421.45</ele>
        <time>2022-10-10T13:42:33Z</time>
      </trkpt>
      <trkpt lat="47.23561" lon="6.15213">
        <ele>421.644</ele>
        <time>2022-10-10T13:42:34Z</time>
      </trkpt>
      <trkpt lat="47.23559" lon="6.15215">
        <ele>421.605</ele>
        <time>2022-10-10T13:42:35Z</time>
      </trkpt>
      <trkpt lat="47.23556" lon="6.15217">
        <ele>421.615</ele>
        <time>2022-10-10T13:42:36Z</time>
      </trkpt>
      <trkpt lat="47.23549" lon="6.1522">
        <ele>421.409</ele>
        <time>2022-10-10T13:42:38Z</time>
      </trkpt>
      <trkpt lat="47.23546" lon="6.15222">
        <ele>421.455</ele>
        <time>2022-10-10T13:42:39Z</time>
      </trkpt>
      <trkpt lat="47.23542" lon="6.15224">
        <ele>421.275</ele>
        <time>2022-10-10T13:42:40Z</time>
      </trkpt>
      <trkpt lat="47.23526" lon="6.15236">
        <ele>421.069</ele>
        <time>2022-10-10T13:42:45Z</time>
      </trkpt>
      <trkpt lat="47.23523" lon="6.1524">
        <ele>420.463</ele>
        <time>2022-10-10T13:42:46Z</time>
      </trkpt>
      <trkpt lat="47.23516" lon="6.15244">
        <ele>420.256</ele>
        <time>2022-10-10T13:42:48Z</time>
      </trkpt>
      <trkpt lat="47.23512" lon="6.15246">
        <ele>419.642</ele>
        <time>2022-10-10T13:42:49Z</time>
      </trkpt>
      <trkpt lat="47.23508" lon="6.15247">
        <ele>419.668</ele>
        <time>2022-10-10T13:42:50Z</time>
      </trkpt>
      <trkpt lat="47.23505" lon="6.15249">
        <ele>419.678</ele>
        <time>2022-10-10T13:42:51Z</time>
      </trkpt>
      <trkpt lat="47.23503" lon="6.15249">
        <ele>419.662</ele>
        <time>2022-10-10T13:42:52Z</time>
      </trkpt>
      <trkpt lat="47.23503" lon="6.1525">
        <ele>419.625</ele>
        <time>2022-10-10T13:42:53Z</time>
      </trkpt>
      <trkpt lat="47.23503" lon="6.1525">
        <ele>419.626</ele>
        <time>2022-10-10T13:42:54Z</time>
      </trkpt>
      <trkpt lat="47.23503" lon="6.1525">
        <ele>419.408</ele>
        <time>2022-10-10T13:42:56Z</time>
      </trkpt>
      <trkpt lat="47.23501" lon="6.15252">
        <ele>419.209</ele>
        <time>2022-10-10T13:42:58Z</time>
      </trkpt>
      <trkpt lat="47.235" lon="6.15255">
        <ele>419.023</ele>
        <time>2022-10-10T13:42:59Z</time>
      </trkpt>
      <trkpt lat="47.235" lon="6.1526">
        <ele>418.653</ele>
        <time>2022-10-10T13:43:00Z</time>
      </trkpt>
      <trkpt lat="47.23499" lon="6.15265">
        <ele>417.627</ele>
        <time>2022-10-10T13:43:01Z</time>
      </trkpt>
      <trkpt lat="47.23498" lon="6.15271">
        <ele>417.691</ele>
        <time>2022-10-10T13:43:02Z</time>
      </trkpt>
      <trkpt lat="47.23492" lon="6.1528">
        <ele>416.414</ele>
        <time>2022-10-10T13:43:04Z</time>
      </trkpt>
      <trkpt lat="47.23489" lon="6.15284">
        <ele>416.01</ele>
        <time>2022-10-10T13:43:05Z</time>
      </trkpt>
      <trkpt lat="47.23486" lon="6.15287">
        <ele>415.426</ele>
        <time>2022-10-10T13:43:06Z</time>
      </trkpt>
      <trkpt lat="47.23482" lon="6.15292">
        <ele>415.416</ele>
        <time>2022-10-10T13:43:07Z</time>
      </trkpt>
      <trkpt lat="47.23479" lon="6.15296">
        <ele>415.43</ele>
        <time>2022-10-10T13:43:08Z</time>
      </trkpt>
      <trkpt lat="47.23472" lon="6.153">
        <ele>415.872</ele>
        <time>2022-10-10T13:43:10Z</time>
      </trkpt>
      <trkpt lat="47.23468" lon="6.15302">
        <ele>416.013</ele>
        <time>2022-10-10T13:43:11Z</time>
      </trkpt>
      <trkpt lat="47.23464" lon="6.15303">
        <ele>416.014</ele>
        <time>2022-10-10T13:43:12Z</time>
      </trkpt>
      <trkpt lat="47.23461" lon="6.15304">
        <ele>416.009</ele>
        <time>2022-10-10T13:43:13Z</time>
      </trkpt>
      <trkpt lat="47.23457" lon="6.15306">
        <ele>417.068</ele>
        <time>2022-10-10T13:43:14Z</time>
      </trkpt>
      <trkpt lat="47.2345" lon="6.1531">
        <ele>417.448</ele>
        <time>2022-10-10T13:43:16Z</time>
      </trkpt>
      <trkpt lat="47.23445" lon="6.15312">
        <ele>417.432</ele>
        <time>2022-10-10T13:43:17Z</time>
      </trkpt>
      <trkpt lat="47.23441" lon="6.15314">
        <ele>417.636</ele>
        <time>2022-10-10T13:43:18Z</time>
      </trkpt>
      <trkpt lat="47.23437" lon="6.15315">
        <ele>417.869</ele>
        <time>2022-10-10T13:43:19Z</time>
      </trkpt>
      <trkpt lat="47.23433" lon="6.15317">
        <ele>418.295</ele>
        <time>2022-10-10T13:43:20Z</time>
      </trkpt>
      <trkpt lat="47.23429" lon="6.15318">
        <ele>418.471</ele>
        <time>2022-10-10T13:43:21Z</time>
      </trkpt>
      <trkpt lat="47.23426" lon="6.15319">
        <ele>418.481</ele>
        <time>2022-10-10T13:43:22Z</time>
      </trkpt>
      <trkpt lat="47.23404" lon="6.15319">
        <ele>418.885</ele>
        <time>2022-10-10T13:43:26Z</time>
      </trkpt>
      <trkpt lat="47.23399" lon="6.15318">
        <ele>418.872</ele>
        <time>2022-10-10T13:43:27Z</time>
      </trkpt>
      <trkpt lat="47.23394" lon="6.15318">
        <ele>419.213</ele>
        <time>2022-10-10T13:43:28Z</time>
      </trkpt>
      <trkpt lat="47.2339" lon="6.15319">
        <ele>419.814</ele>
        <time>2022-10-10T13:43:29Z</time>
      </trkpt>
      <trkpt lat="47.23389" lon="6.15318">
        <ele>421.209</ele>
        <time>2022-10-10T13:43:30Z</time>
      </trkpt>
      <trkpt lat="47.23386" lon="6.1532">
        <ele>421.648</ele>
        <time>2022-10-10T13:43:31Z</time>
      </trkpt>
      <trkpt lat="47.23383" lon="6.15322">
        <ele>422.098</ele>
        <time>2022-10-10T13:43:32Z</time>
      </trkpt>
      <trkpt lat="47.23381" lon="6.15324">
        <ele>422.442</ele>
        <time>2022-10-10T13:43:33Z</time>
      </trkpt>
      <trkpt lat="47.23379" lon="6.15325">
        <ele>422.666</ele>
        <time>2022-10-10T13:43:34Z</time>
      </trkpt>
      <trkpt lat="47.23377" lon="6.15327">
        <ele>423.439</ele>
        <time>2022-10-10T13:43:35Z</time>
      </trkpt>
      <trkpt lat="47.23374" lon="6.15328">
        <ele>423.845</ele>
        <time>2022-10-10T13:43:36Z</time>
      </trkpt>
      <trkpt lat="47.23371" lon="6.15329">
        <ele>424.241</ele>
        <time>2022-10-10T13:43:37Z</time>
      </trkpt>
      <trkpt lat="47.23368" lon="6.1533">
        <ele>424.871</ele>
        <time>2022-10-10T13:43:38Z</time>
      </trkpt>
      <trkpt lat="47.23365" lon="6.15331">
        <ele>424.855</ele>
        <time>2022-10-10T13:43:39Z</time>
      </trkpt>
      <trkpt lat="47.23363" lon="6.15332">
        <ele>425.862</ele>
        <time>2022-10-10T13:43:40Z</time>
      </trkpt>
      <trkpt lat="47.2336" lon="6.15334">
        <ele>426.083</ele>
        <time>2022-10-10T13:43:41Z</time>
      </trkpt>
      <trkpt lat="47.23357" lon="6.15335">
        <ele>426.211</ele>
        <time>2022-10-10T13:43:42Z</time>
      </trkpt>
      <trkpt lat="47.23353" lon="6.15336">
        <ele>426.409</ele>
        <time>2022-10-10T13:43:43Z</time>
      </trkpt>
      <trkpt lat="47.2335" lon="6.15337">
        <ele>426.667</ele>
        <time>2022-10-10T13:43:44Z</time>
      </trkpt>
      <trkpt lat="47.23347" lon="6.15338">
        <ele>426.897</ele>
        <time>2022-10-10T13:43:45Z</time>
      </trkpt>
      <trkpt lat="47.23343" lon="6.1534">
        <ele>427.631</ele>
        <time>2022-10-10T13:43:46Z</time>
      </trkpt>
      <trkpt lat="47.2334" lon="6.15342">
        <ele>427.695</ele>
        <time>2022-10-10T13:43:47Z</time>
      </trkpt>
      <trkpt lat="47.23336" lon="6.15345">
        <ele>428.038</ele>
        <time>2022-10-10T13:43:48Z</time>
      </trkpt>
      <trkpt lat="47.23333" lon="6.15348">
        <ele>428.494</ele>
        <time>2022-10-10T13:43:49Z</time>
      </trkpt>
      <trkpt lat="47.2333" lon="6.15351">
        <ele>428.85</ele>
        <time>2022-10-10T13:43:50Z</time>
      </trkpt>
      <trkpt lat="47.23327" lon="6.15354">
        <ele>429.47</ele>
        <time>2022-10-10T13:43:51Z</time>
      </trkpt>
      <trkpt lat="47.23324" lon="6.15356">
        <ele>429.654</ele>
        <time>2022-10-10T13:43:52Z</time>
      </trkpt>
      <trkpt lat="47.23319" lon="6.15358">
        <ele>430.072</ele>
        <time>2022-10-10T13:43:53Z</time>
      </trkpt>
      <trkpt lat="47.23315" lon="6.1536">
        <ele>430.613</ele>
        <time>2022-10-10T13:43:54Z</time>
      </trkpt>
      <trkpt lat="47.23311" lon="6.15361">
        <ele>431.214</ele>
        <time>2022-10-10T13:43:55Z</time>
      </trkpt>
      <trkpt lat="47.23307" lon="6.15362">
        <ele>431.209</ele>
        <time>2022-10-10T13:43:56Z</time>
      </trkpt>
      <trkpt lat="47.23302" lon="6.15364">
        <ele>431.438</ele>
        <time>2022-10-10T13:43:57Z</time>
      </trkpt>
      <trkpt lat="47.23298" lon="6.15366">
        <ele>432.268</ele>
        <time>2022-10-10T13:43:58Z</time>
      </trkpt>
      <trkpt lat="47.23294" lon="6.15369">
        <ele>432.442</ele>
        <time>2022-10-10T13:43:59Z</time>
      </trkpt>
      <trkpt lat="47.2329" lon="6.15372">
        <ele>432.866</ele>
        <time>2022-10-10T13:44:00Z</time>
      </trkpt>
      <trkpt lat="47.23288" lon="6.15373">
        <ele>432.879</ele>
        <time>2022-10-10T13:44:01Z</time>
      </trkpt>
      <trkpt lat="47.23283" lon="6.15375">
        <ele>433.245</ele>
        <time>2022-10-10T13:44:02Z</time>
      </trkpt>
      <trkpt lat="47.2328" lon="6.15377">
        <ele>433.691</ele>
        <time>2022-10-10T13:44:03Z</time>
      </trkpt>
      <trkpt lat="47.23276" lon="6.1538">
        <ele>433.641</ele>
        <time>2022-10-10T13:44:04Z</time>
      </trkpt>
      <trkpt lat="47.23273" lon="6.15384">
        <ele>434.455</ele>
        <time>2022-10-10T13:44:05Z</time>
      </trkpt>
      <trkpt lat="47.2327" lon="6.15387">
        <ele>435.035</ele>
        <time>2022-10-10T13:44:06Z</time>
      </trkpt>
      <trkpt lat="47.23267" lon="6.1539">
        <ele>435.486</ele>
        <time>2022-10-10T13:44:07Z</time>
      </trkpt>
      <trkpt lat="47.23264" lon="6.15391">
        <ele>435.414</ele>
        <time>2022-10-10T13:44:08Z</time>
      </trkpt>
      <trkpt lat="47.23261" lon="6.15393">
        <ele>435.609</ele>
        <time>2022-10-10T13:44:09Z</time>
      </trkpt>
      <trkpt lat="47.23257" lon="6.15397">
        <ele>435.824</ele>
        <time>2022-10-10T13:44:10Z</time>
      </trkpt>
      <trkpt lat="47.23251" lon="6.15401">
        <ele>436.254</ele>
        <time>2022-10-10T13:44:11Z</time>
      </trkpt>
      <trkpt lat="47.23247" lon="6.15406">
        <ele>436.428</ele>
        <time>2022-10-10T13:44:12Z</time>
      </trkpt>
      <trkpt lat="47.23242" lon="6.15408">
        <ele>436.682</ele>
        <time>2022-10-10T13:44:13Z</time>
      </trkpt>
      <trkpt lat="47.23236" lon="6.15409">
        <ele>436.855</ele>
        <time>2022-10-10T13:44:14Z</time>
      </trkpt>
      <trkpt lat="47.23232" lon="6.15408">
        <ele>436.861</ele>
        <time>2022-10-10T13:44:15Z</time>
      </trkpt>
      <trkpt lat="47.23228" lon="6.15409">
        <ele>436.887</ele>
        <time>2022-10-10T13:44:16Z</time>
      </trkpt>
      <trkpt lat="47.23223" lon="6.1541">
        <ele>436.837</ele>
        <time>2022-10-10T13:44:17Z</time>
      </trkpt>
      <trkpt lat="47.23219" lon="6.15411">
        <ele>436.851</ele>
        <time>2022-10-10T13:44:18Z</time>
      </trkpt>
      <trkpt lat="47.23217" lon="6.15411">
        <ele>436.883</ele>
        <time>2022-10-10T13:44:19Z</time>
      </trkpt>
      <trkpt lat="47.23214" lon="6.15413">
        <ele>436.825</ele>
        <time>2022-10-10T13:44:20Z</time>
      </trkpt>
      <trkpt lat="47.23211" lon="6.15415">
        <ele>437.017</ele>
        <time>2022-10-10T13:44:21Z</time>
      </trkpt>
      <trkpt lat="47.23207" lon="6.15417">
        <ele>437.009</ele>
        <time>2022-10-10T13:44:22Z</time>
      </trkpt>
      <trkpt lat="47.23203" lon="6.15419">
        <ele>437.099</ele>
        <time>2022-10-10T13:44:23Z</time>
      </trkpt>
      <trkpt lat="47.23199" lon="6.1542">
        <ele>436.889</ele>
        <time>2022-10-10T13:44:24Z</time>
      </trkpt>
      <trkpt lat="47.23196" lon="6.15421">
        <ele>436.623</ele>
        <time>2022-10-10T13:44:25Z</time>
      </trkpt>
      <trkpt lat="47.23191" lon="6.15424">
        <ele>436.667</ele>
        <time>2022-10-10T13:44:26Z</time>
      </trkpt>
      <trkpt lat="47.23188" lon="6.15425">
        <ele>436.06</ele>
        <time>2022-10-10T13:44:27Z</time>
      </trkpt>
      <trkpt lat="47.23182" lon="6.15427">
        <ele>436.056</ele>
        <time>2022-10-10T13:44:28Z</time>
      </trkpt>
      <trkpt lat="47.23178" lon="6.15428">
        <ele>435.632</ele>
        <time>2022-10-10T13:44:29Z</time>
      </trkpt>
      <trkpt lat="47.23175" lon="6.15429">
        <ele>435.432</ele>
        <time>2022-10-10T13:44:30Z</time>
      </trkpt>
      <trkpt lat="47.23172" lon="6.1543">
        <ele>435.446</ele>
        <time>2022-10-10T13:44:31Z</time>
      </trkpt>
      <trkpt lat="47.2317" lon="6.15432">
        <ele>435.298</ele>
        <time>2022-10-10T13:44:32Z</time>
      </trkpt>
      <trkpt lat="47.23167" lon="6.15433">
        <ele>435.015</ele>
        <time>2022-10-10T13:44:33Z</time>
      </trkpt>
      <trkpt lat="47.23157" lon="6.15438">
        <ele>434.426</ele>
        <time>2022-10-10T13:44:36Z</time>
      </trkpt>
      <trkpt lat="47.23154" lon="6.15439">
        <ele>434.209</ele>
        <time>2022-10-10T13:44:37Z</time>
      </trkpt>
      <trkpt lat="47.2315" lon="6.1544">
        <ele>434.06</ele>
        <time>2022-10-10T13:44:38Z</time>
      </trkpt>
      <trkpt lat="47.23147" lon="6.15441">
        <ele>433.85</ele>
        <time>2022-10-10T13:44:39Z</time>
      </trkpt>
      <trkpt lat="47.23135" lon="6.15443">
        <ele>433.264</ele>
        <time>2022-10-10T13:44:42Z</time>
      </trkpt>
      <trkpt lat="47.23131" lon="6.15443">
        <ele>432.438</ele>
        <time>2022-10-10T13:44:43Z</time>
      </trkpt>
      <trkpt lat="47.23127" lon="6.15443">
        <ele>432.491</ele>
        <time>2022-10-10T13:44:44Z</time>
      </trkpt>
      <trkpt lat="47.23124" lon="6.15444">
        <ele>431.877</ele>
        <time>2022-10-10T13:44:45Z</time>
      </trkpt>
      <trkpt lat="47.23121" lon="6.15446">
        <ele>431.823</ele>
        <time>2022-10-10T13:44:46Z</time>
      </trkpt>
      <trkpt lat="47.23119" lon="6.15449">
        <ele>431.683</ele>
        <time>2022-10-10T13:44:47Z</time>
      </trkpt>
      <trkpt lat="47.23119" lon="6.15453">
        <ele>431.247</ele>
        <time>2022-10-10T13:44:48Z</time>
      </trkpt>
      <trkpt lat="47.23118" lon="6.15459">
        <ele>431.222</ele>
        <time>2022-10-10T13:44:49Z</time>
      </trkpt>
      <trkpt lat="47.23117" lon="6.15465">
        <ele>430.862</ele>
        <time>2022-10-10T13:44:50Z</time>
      </trkpt>
      <trkpt lat="47.23115" lon="6.1547">
        <ele>430.808</ele>
        <time>2022-10-10T13:44:51Z</time>
      </trkpt>
      <trkpt lat="47.23112" lon="6.15482">
        <ele>430.609</ele>
        <time>2022-10-10T13:44:53Z</time>
      </trkpt>
      <trkpt lat="47.23111" lon="6.15488">
        <ele>430.653</ele>
        <time>2022-10-10T13:44:54Z</time>
      </trkpt>
      <trkpt lat="47.23111" lon="6.15496">
        <ele>429.843</ele>
        <time>2022-10-10T13:44:55Z</time>
      </trkpt>
      <trkpt lat="47.23111" lon="6.15502">
        <ele>429.417</ele>
        <time>2022-10-10T13:44:56Z</time>
      </trkpt>
      <trkpt lat="47.23112" lon="6.15509">
        <ele>429.461</ele>
        <time>2022-10-10T13:44:57Z</time>
      </trkpt>
      <trkpt lat="47.23113" lon="6.15514">
        <ele>429.414</ele>
        <time>2022-10-10T13:44:58Z</time>
      </trkpt>
      <trkpt lat="47.23112" lon="6.15518">
        <ele>429.42</ele>
        <time>2022-10-10T13:44:59Z</time>
      </trkpt>
      <trkpt lat="47.2311" lon="6.15521">
        <ele>429.066</ele>
        <time>2022-10-10T13:45:00Z</time>
      </trkpt>
      <trkpt lat="47.23108" lon="6.15525">
        <ele>429.046</ele>
        <time>2022-10-10T13:45:01Z</time>
      </trkpt>
      <trkpt lat="47.23107" lon="6.1553">
        <ele>428.45</ele>
        <time>2022-10-10T13:45:02Z</time>
      </trkpt>
      <trkpt lat="47.23106" lon="6.15536">
        <ele>428.477</ele>
        <time>2022-10-10T13:45:03Z</time>
      </trkpt>
      <trkpt lat="47.23105" lon="6.15542">
        <ele>428.461</ele>
        <time>2022-10-10T13:45:04Z</time>
      </trkpt>
      <trkpt lat="47.23103" lon="6.15547">
        <ele>428.227</ele>
        <time>2022-10-10T13:45:05Z</time>
      </trkpt>
      <trkpt lat="47.23098" lon="6.15564">
        <ele>427.009</ele>
        <time>2022-10-10T13:45:08Z</time>
      </trkpt>
      <trkpt lat="47.23094" lon="6.15579">
        <ele>426.098</ele>
        <time>2022-10-10T13:45:10Z</time>
      </trkpt>
      <trkpt lat="47.23093" lon="6.15586">
        <ele>425.888</ele>
        <time>2022-10-10T13:45:11Z</time>
      </trkpt>
      <trkpt lat="47.23088" lon="6.15611">
        <ele>425.042</ele>
        <time>2022-10-10T13:45:14Z</time>
      </trkpt>
      <trkpt lat="47.23087" lon="6.15619">
        <ele>425.056</ele>
        <time>2022-10-10T13:45:15Z</time>
      </trkpt>
      <trkpt lat="47.23085" lon="6.15627">
        <ele>424.889</ele>
        <time>2022-10-10T13:45:16Z</time>
      </trkpt>
      <trkpt lat="47.23083" lon="6.15636">
        <ele>424.635</ele>
        <time>2022-10-10T13:45:17Z</time>
      </trkpt>
      <trkpt lat="47.23079" lon="6.15644">
        <ele>424.441</ele>
        <time>2022-10-10T13:45:18Z</time>
      </trkpt>
      <trkpt lat="47.23076" lon="6.1565">
        <ele>424.071</ele>
        <time>2022-10-10T13:45:19Z</time>
      </trkpt>
      <trkpt lat="47.23074" lon="6.15657">
        <ele>424.035</ele>
        <time>2022-10-10T13:45:20Z</time>
      </trkpt>
      <trkpt lat="47.23075" lon="6.15662">
        <ele>424.045</ele>
        <time>2022-10-10T13:45:21Z</time>
      </trkpt>
      <trkpt lat="47.23076" lon="6.15664">
        <ele>424.047</ele>
        <time>2022-10-10T13:45:22Z</time>
      </trkpt>
      <trkpt lat="47.23077" lon="6.15668">
        <ele>424.011</ele>
        <time>2022-10-10T13:45:23Z</time>
      </trkpt>
      <trkpt lat="47.23078" lon="6.15671">
        <ele>425.009</ele>
        <time>2022-10-10T13:45:24Z</time>
      </trkpt>
      <trkpt lat="47.23081" lon="6.15674">
        <ele>425.285</ele>
        <time>2022-10-10T13:45:25Z</time>
      </trkpt>
      <trkpt lat="47.23084" lon="6.15677">
        <ele>425.265</ele>
        <time>2022-10-10T13:45:26Z</time>
      </trkpt>
      <trkpt lat="47.23088" lon="6.15681">
        <ele>425.259</ele>
        <time>2022-10-10T13:45:28Z</time>
      </trkpt>
      <trkpt lat="47.23092" lon="6.15683">
        <ele>425.453</ele>
        <time>2022-10-10T13:45:30Z</time>
      </trkpt>
      <trkpt lat="47.23095" lon="6.15685">
        <ele>425.856</ele>
        <time>2022-10-10T13:45:31Z</time>
      </trkpt>
      <trkpt lat="47.23098" lon="6.15688">
        <ele>426.252</ele>
        <time>2022-10-10T13:45:32Z</time>
      </trkpt>
      <trkpt lat="47.231" lon="6.15689">
        <ele>426.218</ele>
        <time>2022-10-10T13:45:33Z</time>
      </trkpt>
      <trkpt lat="47.23106" lon="6.15694">
        <ele>427.238</ele>
        <time>2022-10-10T13:45:35Z</time>
      </trkpt>
      <trkpt lat="47.23109" lon="6.15697">
        <ele>427.222</ele>
        <time>2022-10-10T13:45:36Z</time>
      </trkpt>
      <trkpt lat="47.23113" lon="6.15704">
        <ele>427.247</ele>
        <time>2022-10-10T13:45:38Z</time>
      </trkpt>
      <trkpt lat="47.23116" lon="6.15709">
        <ele>427.229</ele>
        <time>2022-10-10T13:45:39Z</time>
      </trkpt>
      <trkpt lat="47.23121" lon="6.15717">
        <ele>427.621</ele>
        <time>2022-10-10T13:45:41Z</time>
      </trkpt>
      <trkpt lat="47.23125" lon="6.15725">
        <ele>427.809</ele>
        <time>2022-10-10T13:45:43Z</time>
      </trkpt>
      <trkpt lat="47.23131" lon="6.15736">
        <ele>428.095</ele>
        <time>2022-10-10T13:45:45Z</time>
      </trkpt>
      <trkpt lat="47.23134" lon="6.15741">
        <ele>428.615</ele>
        <time>2022-10-10T13:45:46Z</time>
      </trkpt>
      <trkpt lat="47.23136" lon="6.15745">
        <ele>428.649</ele>
        <time>2022-10-10T13:45:47Z</time>
      </trkpt>
      <trkpt lat="47.23138" lon="6.1575">
        <ele>428.653</ele>
        <time>2022-10-10T13:45:48Z</time>
      </trkpt>
      <trkpt lat="47.23141" lon="6.15756">
        <ele>428.856</ele>
        <time>2022-10-10T13:45:49Z</time>
      </trkpt>
      <trkpt lat="47.23143" lon="6.15761">
        <ele>428.822</ele>
        <time>2022-10-10T13:45:50Z</time>
      </trkpt>
      <trkpt lat="47.23144" lon="6.15767">
        <ele>429.028</ele>
        <time>2022-10-10T13:45:51Z</time>
      </trkpt>
      <trkpt lat="47.23145" lon="6.15773">
        <ele>429.018</ele>
        <time>2022-10-10T13:45:52Z</time>
      </trkpt>
      <trkpt lat="47.23147" lon="6.15779">
        <ele>429.072</ele>
        <time>2022-10-10T13:45:53Z</time>
      </trkpt>
      <trkpt lat="47.23148" lon="6.15785">
        <ele>429.242</ele>
        <time>2022-10-10T13:45:54Z</time>
      </trkpt>
      <trkpt lat="47.2315" lon="6.1579">
        <ele>429.222</ele>
        <time>2022-10-10T13:45:55Z</time>
      </trkpt>
      <trkpt lat="47.23153" lon="6.15795">
        <ele>429.214</ele>
        <time>2022-10-10T13:45:56Z</time>
      </trkpt>
      <trkpt lat="47.23155" lon="6.158">
        <ele>429.409</ele>
        <time>2022-10-10T13:45:57Z</time>
      </trkpt>
      <trkpt lat="47.23157" lon="6.15803">
        <ele>429.655</ele>
        <time>2022-10-10T13:45:58Z</time>
      </trkpt>
      <trkpt lat="47.23159" lon="6.15807">
        <ele>429.685</ele>
        <time>2022-10-10T13:45:59Z</time>
      </trkpt>
      <trkpt lat="47.23161" lon="6.15812">
        <ele>429.889</ele>
        <time>2022-10-10T13:46:00Z</time>
      </trkpt>
      <trkpt lat="47.23164" lon="6.15816">
        <ele>429.863</ele>
        <time>2022-10-10T13:46:01Z</time>
      </trkpt>
      <trkpt lat="47.23167" lon="6.15821">
        <ele>430.046</ele>
        <time>2022-10-10T13:46:02Z</time>
      </trkpt>
      <trkpt lat="47.23169" lon="6.15825">
        <ele>430.062</ele>
        <time>2022-10-10T13:46:03Z</time>
      </trkpt>
      <trkpt lat="47.23169" lon="6.15828">
        <ele>430.048</ele>
        <time>2022-10-10T13:46:04Z</time>
      </trkpt>
      <trkpt lat="47.23169" lon="6.15832">
        <ele>430.048</ele>
        <time>2022-10-10T13:46:05Z</time>
      </trkpt>
      <trkpt lat="47.23168" lon="6.15837">
        <ele>430.082</ele>
        <time>2022-10-10T13:46:06Z</time>
      </trkpt>
      <trkpt lat="47.23167" lon="6.15843">
        <ele>429.695</ele>
        <time>2022-10-10T13:46:07Z</time>
      </trkpt>
      <trkpt lat="47.23163" lon="6.15848">
        <ele>429.049</ele>
        <time>2022-10-10T13:46:08Z</time>
      </trkpt>
      <trkpt lat="47.23161" lon="6.15854">
        <ele>428.423</ele>
        <time>2022-10-10T13:46:09Z</time>
      </trkpt>
      <trkpt lat="47.23158" lon="6.15858">
        <ele>428.209</ele>
        <time>2022-10-10T13:46:10Z</time>
      </trkpt>
      <trkpt lat="47.23154" lon="6.15862">
        <ele>428.28</ele>
        <time>2022-10-10T13:46:11Z</time>
      </trkpt>
      <trkpt lat="47.23152" lon="6.15866">
        <ele>427.83</ele>
        <time>2022-10-10T13:46:12Z</time>
      </trkpt>
      <trkpt lat="47.23148" lon="6.15869">
        <ele>427.654</ele>
        <time>2022-10-10T13:46:13Z</time>
      </trkpt>
      <trkpt lat="47.23143" lon="6.1587">
        <ele>426.888</ele>
        <time>2022-10-10T13:46:14Z</time>
      </trkpt>
      <trkpt lat="47.23138" lon="6.15869">
        <ele>426.881</ele>
        <time>2022-10-10T13:46:15Z</time>
      </trkpt>
      <trkpt lat="47.23136" lon="6.1587">
        <ele>426.627</ele>
        <time>2022-10-10T13:46:16Z</time>
      </trkpt>
      <trkpt lat="47.23133" lon="6.15875">
        <ele>426.663</ele>
        <time>2022-10-10T13:46:18Z</time>
      </trkpt>
      <trkpt lat="47.23132" lon="6.15883">
        <ele>425.453</ele>
        <time>2022-10-10T13:46:20Z</time>
      </trkpt>
      <trkpt lat="47.23128" lon="6.15896">
        <ele>425.027</ele>
        <time>2022-10-10T13:46:23Z</time>
      </trkpt>
      <trkpt lat="47.23125" lon="6.15908">
        <ele>424.264</ele>
        <time>2022-10-10T13:46:25Z</time>
      </trkpt>
      <trkpt lat="47.23123" lon="6.15914">
        <ele>424.006</ele>
        <time>2022-10-10T13:46:26Z</time>
      </trkpt>
      <trkpt lat="47.23121" lon="6.1592">
        <ele>423.216</ele>
        <time>2022-10-10T13:46:27Z</time>
      </trkpt>
      <trkpt lat="47.23119" lon="6.15925">
        <ele>423.209</ele>
        <time>2022-10-10T13:46:28Z</time>
      </trkpt>
      <trkpt lat="47.23116" lon="6.15937">
        <ele>422.647</ele>
        <time>2022-10-10T13:46:30Z</time>
      </trkpt>
      <trkpt lat="47.23115" lon="6.15943">
        <ele>422.257</ele>
        <time>2022-10-10T13:46:31Z</time>
      </trkpt>
      <trkpt lat="47.23115" lon="6.1595">
        <ele>422.271</ele>
        <time>2022-10-10T13:46:32Z</time>
      </trkpt>
      <trkpt lat="47.23115" lon="6.15957">
        <ele>422.295</ele>
        <time>2022-10-10T13:46:33Z</time>
      </trkpt>
      <trkpt lat="47.23115" lon="6.15963">
        <ele>422.428</ele>
        <time>2022-10-10T13:46:34Z</time>
      </trkpt>
      <trkpt lat="47.23115" lon="6.15969">
        <ele>422.434</ele>
        <time>2022-10-10T13:46:35Z</time>
      </trkpt>
      <trkpt lat="47.23116" lon="6.15974">
        <ele>422.65</ele>
        <time>2022-10-10T13:46:36Z</time>
      </trkpt>
      <trkpt lat="47.23114" lon="6.1598">
        <ele>422.43</ele>
        <time>2022-10-10T13:46:37Z</time>
      </trkpt>
      <trkpt lat="47.23112" lon="6.15996">
        <ele>422.434</ele>
        <time>2022-10-10T13:46:40Z</time>
      </trkpt>
      <trkpt lat="47.23111" lon="6.16002">
        <ele>422.445</ele>
        <time>2022-10-10T13:46:41Z</time>
      </trkpt>
      <trkpt lat="47.23108" lon="6.16009">
        <ele>422.447</ele>
        <time>2022-10-10T13:46:42Z</time>
      </trkpt>
      <trkpt lat="47.23103" lon="6.16023">
        <ele>421.611</ele>
        <time>2022-10-10T13:46:44Z</time>
      </trkpt>
      <trkpt lat="47.23102" lon="6.16032">
        <ele>421.409</ele>
        <time>2022-10-10T13:46:45Z</time>
      </trkpt>
      <trkpt lat="47.23097" lon="6.16055">
        <ele>421.275</ele>
        <time>2022-10-10T13:46:48Z</time>
      </trkpt>
      <trkpt lat="47.2309" lon="6.16072">
        <ele>421.235</ele>
        <time>2022-10-10T13:46:50Z</time>
      </trkpt>
      <trkpt lat="47.23087" lon="6.16078">
        <ele>421.269</ele>
        <time>2022-10-10T13:46:51Z</time>
      </trkpt>
      <trkpt lat="47.23083" lon="6.16083">
        <ele>421.263</ele>
        <time>2022-10-10T13:46:52Z</time>
      </trkpt>
      <trkpt lat="47.23081" lon="6.16087">
        <ele>421.026</ele>
        <time>2022-10-10T13:46:53Z</time>
      </trkpt>
      <trkpt lat="47.23078" lon="6.16091">
        <ele>421.092</ele>
        <time>2022-10-10T13:46:54Z</time>
      </trkpt>
      <trkpt lat="47.23073" lon="6.16094">
        <ele>421.028</ele>
        <time>2022-10-10T13:46:55Z</time>
      </trkpt>
      <trkpt lat="47.23069" lon="6.16095">
        <ele>420.698</ele>
        <time>2022-10-10T13:46:56Z</time>
      </trkpt>
      <trkpt lat="47.23064" lon="6.16096">
        <ele>420.642</ele>
        <time>2022-10-10T13:46:57Z</time>
      </trkpt>
      <trkpt lat="47.23058" lon="6.16097">
        <ele>419.888</ele>
        <time>2022-10-10T13:46:58Z</time>
      </trkpt>
      <trkpt lat="47.23048" lon="6.16099">
        <ele>419.224</ele>
        <time>2022-10-10T13:47:00Z</time>
      </trkpt>
      <trkpt lat="47.23044" lon="6.16101">
        <ele>419.026</ele>
        <time>2022-10-10T13:47:01Z</time>
      </trkpt>
      <trkpt lat="47.23041" lon="6.16104">
        <ele>419.009</ele>
        <time>2022-10-10T13:47:02Z</time>
      </trkpt>
      <trkpt lat="47.23035" lon="6.16107">
        <ele>419.069</ele>
        <time>2022-10-10T13:47:03Z</time>
      </trkpt>
      <trkpt lat="47.23024" lon="6.16109">
        <ele>419.049</ele>
        <time>2022-10-10T13:47:05Z</time>
      </trkpt>
      <trkpt lat="47.23019" lon="6.16109">
        <ele>419.083</ele>
        <time>2022-10-10T13:47:06Z</time>
      </trkpt>
      <trkpt lat="47.23013" lon="6.16108">
        <ele>419.077</ele>
        <time>2022-10-10T13:47:07Z</time>
      </trkpt>
      <trkpt lat="47.23008" lon="6.16107">
        <ele>419.41</ele>
        <time>2022-10-10T13:47:08Z</time>
      </trkpt>
      <trkpt lat="47.22997" lon="6.16108">
        <ele>419.646</ele>
        <time>2022-10-10T13:47:10Z</time>
      </trkpt>
      <trkpt lat="47.22961" lon="6.16118">
        <ele>418.632</ele>
        <time>2022-10-10T13:47:16Z</time>
      </trkpt>
      <trkpt lat="47.22955" lon="6.16117">
        <ele>418.632</ele>
        <time>2022-10-10T13:47:17Z</time>
      </trkpt>
      <trkpt lat="47.22949" lon="6.16115">
        <ele>418.676</ele>
        <time>2022-10-10T13:47:18Z</time>
      </trkpt>
      <trkpt lat="47.22945" lon="6.16113">
        <ele>418.853</ele>
        <time>2022-10-10T13:47:19Z</time>
      </trkpt>
      <trkpt lat="47.2294" lon="6.16112">
        <ele>419.204</ele>
        <time>2022-10-10T13:47:20Z</time>
      </trkpt>
      <trkpt lat="47.22936" lon="6.16113">
        <ele>420.014</ele>
        <time>2022-10-10T13:47:21Z</time>
      </trkpt>
      <trkpt lat="47.22932" lon="6.16115">
        <ele>420.409</ele>
        <time>2022-10-10T13:47:22Z</time>
      </trkpt>
      <trkpt lat="47.22927" lon="6.16117">
        <ele>420.626</ele>
        <time>2022-10-10T13:47:23Z</time>
      </trkpt>
      <trkpt lat="47.22923" lon="6.16118">
        <ele>421.046</ele>
        <time>2022-10-10T13:47:24Z</time>
      </trkpt>
      <trkpt lat="47.22919" lon="6.16118">
        <ele>421.08</ele>
        <time>2022-10-10T13:47:25Z</time>
      </trkpt>
      <trkpt lat="47.22916" lon="6.16119">
        <ele>421.684</ele>
        <time>2022-10-10T13:47:26Z</time>
      </trkpt>
      <trkpt lat="47.22914" lon="6.1612">
        <ele>421.877</ele>
        <time>2022-10-10T13:47:27Z</time>
      </trkpt>
      <trkpt lat="47.22912" lon="6.16123">
        <ele>421.853</ele>
        <time>2022-10-10T13:47:28Z</time>
      </trkpt>
      <trkpt lat="47.2291" lon="6.16127">
        <ele>422.019</ele>
        <time>2022-10-10T13:47:29Z</time>
      </trkpt>
      <trkpt lat="47.22909" lon="6.16131">
        <ele>422.269</ele>
        <time>2022-10-10T13:47:30Z</time>
      </trkpt>
      <trkpt lat="47.22909" lon="6.16135">
        <ele>422.433</ele>
        <time>2022-10-10T13:47:31Z</time>
      </trkpt>
      <trkpt lat="47.2291" lon="6.1614">
        <ele>422.489</ele>
        <time>2022-10-10T13:47:32Z</time>
      </trkpt>
      <trkpt lat="47.22911" lon="6.16148">
        <ele>422.406</ele>
        <time>2022-10-10T13:47:33Z</time>
      </trkpt>
      <trkpt lat="47.22913" lon="6.16155">
        <ele>422.226</ele>
        <time>2022-10-10T13:47:34Z</time>
      </trkpt>
      <trkpt lat="47.22914" lon="6.16161">
        <ele>422.209</ele>
        <time>2022-10-10T13:47:35Z</time>
      </trkpt>
      <trkpt lat="47.22917" lon="6.16167">
        <ele>422.019</ele>
        <time>2022-10-10T13:47:36Z</time>
      </trkpt>
      <trkpt lat="47.2292" lon="6.16173">
        <ele>422.089</ele>
        <time>2022-10-10T13:47:37Z</time>
      </trkpt>
      <trkpt lat="47.22923" lon="6.16178">
        <ele>422.073</ele>
        <time>2022-10-10T13:47:38Z</time>
      </trkpt>
      <trkpt lat="47.22927" lon="6.16182">
        <ele>421.837</ele>
        <time>2022-10-10T13:47:39Z</time>
      </trkpt>
      <trkpt lat="47.22931" lon="6.16186">
        <ele>421.85</ele>
        <time>2022-10-10T13:47:40Z</time>
      </trkpt>
      <trkpt lat="47.22935" lon="6.16191">
        <ele>421.676</ele>
        <time>2022-10-10T13:47:41Z</time>
      </trkpt>
      <trkpt lat="47.22943" lon="6.162">
        <ele>421.472</ele>
        <time>2022-10-10T13:47:43Z</time>
      </trkpt>
      <trkpt lat="47.22958" lon="6.16213">
        <ele>421.482</ele>
        <time>2022-10-10T13:47:46Z</time>
      </trkpt>
      <trkpt lat="47.22963" lon="6.16218">
        <ele>421.056</ele>
        <time>2022-10-10T13:47:47Z</time>
      </trkpt>
      <trkpt lat="47.22968" lon="6.16222">
        <ele>421.043</ele>
        <time>2022-10-10T13:47:48Z</time>
      </trkpt>
      <trkpt lat="47.22972" lon="6.16226">
        <ele>421.064</ele>
        <time>2022-10-10T13:47:49Z</time>
      </trkpt>
      <trkpt lat="47.22982" lon="6.16234">
        <ele>421.01</ele>
        <time>2022-10-10T13:47:51Z</time>
      </trkpt>
      <trkpt lat="47.23003" lon="6.16251">
        <ele>421.009</ele>
        <time>2022-10-10T13:47:55Z</time>
      </trkpt>
      <trkpt lat="47.23008" lon="6.16255">
        <ele>420.855</ele>
        <time>2022-10-10T13:47:56Z</time>
      </trkpt>
      <trkpt lat="47.23014" lon="6.1626">
        <ele>420.855</ele>
        <time>2022-10-10T13:47:57Z</time>
      </trkpt>
      <trkpt lat="47.23029" lon="6.16272">
        <ele>420.289</ele>
        <time>2022-10-10T13:48:00Z</time>
      </trkpt>
      <trkpt lat="47.23058" lon="6.16295">
        <ele>420.213</ele>
        <time>2022-10-10T13:48:05Z</time>
      </trkpt>
      <trkpt lat="47.23069" lon="6.16304">
        <ele>420.636</ele>
        <time>2022-10-10T13:48:07Z</time>
      </trkpt>
      <trkpt lat="47.23075" lon="6.16309">
        <ele>420.652</ele>
        <time>2022-10-10T13:48:08Z</time>
      </trkpt>
      <trkpt lat="47.23092" lon="6.16321">
        <ele>420.018</ele>
        <time>2022-10-10T13:48:11Z</time>
      </trkpt>
      <trkpt lat="47.23098" lon="6.16325">
        <ele>419.878</ele>
        <time>2022-10-10T13:48:12Z</time>
      </trkpt>
      <trkpt lat="47.23124" lon="6.16344">
        <ele>418.452</ele>
        <time>2022-10-10T13:48:16Z</time>
      </trkpt>
      <trkpt lat="47.2313" lon="6.16349">
        <ele>418.278</ele>
        <time>2022-10-10T13:48:17Z</time>
      </trkpt>
      <trkpt lat="47.23151" lon="6.16365">
        <ele>417.233</ele>
        <time>2022-10-10T13:48:20Z</time>
      </trkpt>
      <trkpt lat="47.23155" lon="6.16369">
        <ele>416.826</ele>
        <time>2022-10-10T13:48:21Z</time>
      </trkpt>
      <trkpt lat="47.23167" lon="6.1638">
        <ele>416.609</ele>
        <time>2022-10-10T13:48:23Z</time>
      </trkpt>
      <trkpt lat="47.23179" lon="6.16391">
        <ele>416.478</ele>
        <time>2022-10-10T13:48:25Z</time>
      </trkpt>
      <trkpt lat="47.23184" lon="6.16397">
        <ele>416.488</ele>
        <time>2022-10-10T13:48:26Z</time>
      </trkpt>
      <trkpt lat="47.23189" lon="6.16403">
        <ele>416.412</ele>
        <time>2022-10-10T13:48:27Z</time>
      </trkpt>
      <trkpt lat="47.23194" lon="6.16408">
        <ele>416.446</ele>
        <time>2022-10-10T13:48:28Z</time>
      </trkpt>
      <trkpt lat="47.23199" lon="6.16413">
        <ele>416.689</ele>
        <time>2022-10-10T13:48:29Z</time>
      </trkpt>
      <trkpt lat="47.23203" lon="6.16418">
        <ele>417.685</ele>
        <time>2022-10-10T13:48:30Z</time>
      </trkpt>
      <trkpt lat="47.23216" lon="6.16432">
        <ele>418.681</ele>
        <time>2022-10-10T13:48:33Z</time>
      </trkpt>
      <trkpt lat="47.2323" lon="6.16447">
        <ele>419.041</ele>
        <time>2022-10-10T13:48:36Z</time>
      </trkpt>
      <trkpt lat="47.2324" lon="6.16458">
        <ele>417.685</ele>
        <time>2022-10-10T13:48:38Z</time>
      </trkpt>
      <trkpt lat="47.23245" lon="6.16464">
        <ele>418.656</ele>
        <time>2022-10-10T13:48:39Z</time>
      </trkpt>
      <trkpt lat="47.23256" lon="6.16475">
        <ele>417.659</ele>
        <time>2022-10-10T13:48:41Z</time>
      </trkpt>
      <trkpt lat="47.23266" lon="6.16487">
        <ele>417.814</ele>
        <time>2022-10-10T13:48:43Z</time>
      </trkpt>
      <trkpt lat="47.23271" lon="6.16493">
        <ele>417.809</ele>
        <time>2022-10-10T13:48:44Z</time>
      </trkpt>
      <trkpt lat="47.23286" lon="6.1651">
        <ele>417.866</ele>
        <time>2022-10-10T13:48:47Z</time>
      </trkpt>
      <trkpt lat="47.23291" lon="6.16515">
        <ele>417.816</ele>
        <time>2022-10-10T13:48:48Z</time>
      </trkpt>
      <trkpt lat="47.23296" lon="6.16521">
        <ele>417.88</ele>
        <time>2022-10-10T13:48:49Z</time>
      </trkpt>
      <trkpt lat="47.23311" lon="6.16538">
        <ele>417.864</ele>
        <time>2022-10-10T13:48:52Z</time>
      </trkpt>
      <trkpt lat="47.23327" lon="6.16555">
        <ele>418.277</ele>
        <time>2022-10-10T13:48:55Z</time>
      </trkpt>
      <trkpt lat="47.23337" lon="6.16567">
        <ele>418.223</ele>
        <time>2022-10-10T13:48:57Z</time>
      </trkpt>
      <trkpt lat="47.23342" lon="6.16572">
        <ele>418.649</ele>
        <time>2022-10-10T13:48:58Z</time>
      </trkpt>
      <trkpt lat="47.23347" lon="6.16577">
        <ele>418.889</ele>
        <time>2022-10-10T13:48:59Z</time>
      </trkpt>
      <trkpt lat="47.23352" lon="6.16583">
        <ele>418.863</ele>
        <time>2022-10-10T13:49:00Z</time>
      </trkpt>
      <trkpt lat="47.23357" lon="6.16588">
        <ele>418.828</ele>
        <time>2022-10-10T13:49:01Z</time>
      </trkpt>
      <trkpt lat="47.2336" lon="6.16594">
        <ele>418.889</ele>
        <time>2022-10-10T13:49:02Z</time>
      </trkpt>
      <trkpt lat="47.23362" lon="6.166">
        <ele>419.217</ele>
        <time>2022-10-10T13:49:03Z</time>
      </trkpt>
      <trkpt lat="47.23363" lon="6.16608">
        <ele>419.209</ele>
        <time>2022-10-10T13:49:04Z</time>
      </trkpt>
      <trkpt lat="47.23361" lon="6.16615">
        <ele>419.893</ele>
        <time>2022-10-10T13:49:05Z</time>
      </trkpt>
      <trkpt lat="47.23359" lon="6.16622">
        <ele>419.853</ele>
        <time>2022-10-10T13:49:06Z</time>
      </trkpt>
      <trkpt lat="47.23356" lon="6.16628">
        <ele>420.017</ele>
        <time>2022-10-10T13:49:07Z</time>
      </trkpt>
      <trkpt lat="47.23353" lon="6.16634">
        <ele>420.081</ele>
        <time>2022-10-10T13:49:08Z</time>
      </trkpt>
      <trkpt lat="47.23347" lon="6.16647">
        <ele>420.094</ele>
        <time>2022-10-10T13:49:10Z</time>
      </trkpt>
      <trkpt lat="47.23344" lon="6.16654">
        <ele>420.22</ele>
        <time>2022-10-10T13:49:11Z</time>
      </trkpt>
      <trkpt lat="47.23335" lon="6.16673">
        <ele>420.476</ele>
        <time>2022-10-10T13:49:14Z</time>
      </trkpt>
      <trkpt lat="47.23325" lon="6.16692">
        <ele>420.666</ele>
        <time>2022-10-10T13:49:17Z</time>
      </trkpt>
      <trkpt lat="47.23318" lon="6.16705">
        <ele>420.65</ele>
        <time>2022-10-10T13:49:19Z</time>
      </trkpt>
      <trkpt lat="47.23312" lon="6.16718">
        <ele>420.857</ele>
        <time>2022-10-10T13:49:21Z</time>
      </trkpt>
      <trkpt lat="47.23308" lon="6.16724">
        <ele>421</ele>
        <time>2022-10-10T13:49:22Z</time>
      </trkpt>
      <trkpt lat="47.23294" lon="6.16757">
        <ele>421.22</ele>
        <time>2022-10-10T13:49:27Z</time>
      </trkpt>
      <trkpt lat="47.23291" lon="6.16764">
        <ele>421.609</ele>
        <time>2022-10-10T13:49:28Z</time>
      </trkpt>
      <trkpt lat="47.23287" lon="6.1677">
        <ele>421.826</ele>
        <time>2022-10-10T13:49:29Z</time>
      </trkpt>
      <trkpt lat="47.23284" lon="6.16776">
        <ele>422.286</ele>
        <time>2022-10-10T13:49:30Z</time>
      </trkpt>
      <trkpt lat="47.23281" lon="6.16782">
        <ele>422.88</ele>
        <time>2022-10-10T13:49:31Z</time>
      </trkpt>
      <trkpt lat="47.23278" lon="6.16788">
        <ele>422.854</ele>
        <time>2022-10-10T13:49:32Z</time>
      </trkpt>
      <trkpt lat="47.23275" lon="6.16794">
        <ele>423.057</ele>
        <time>2022-10-10T13:49:33Z</time>
      </trkpt>
      <trkpt lat="47.23272" lon="6.168">
        <ele>423.253</ele>
        <time>2022-10-10T13:49:34Z</time>
      </trkpt>
      <trkpt lat="47.23269" lon="6.16805">
        <ele>423.299</ele>
        <time>2022-10-10T13:49:35Z</time>
      </trkpt>
      <trkpt lat="47.23265" lon="6.16811">
        <ele>423.439</ele>
        <time>2022-10-10T13:49:36Z</time>
      </trkpt>
      <trkpt lat="47.23262" lon="6.16816">
        <ele>423.823</ele>
        <time>2022-10-10T13:49:37Z</time>
      </trkpt>
      <trkpt lat="47.23257" lon="6.1682">
        <ele>424.028</ele>
        <time>2022-10-10T13:49:38Z</time>
      </trkpt>
      <trkpt lat="47.23252" lon="6.16824">
        <ele>424.089</ele>
        <time>2022-10-10T13:49:39Z</time>
      </trkpt>
      <trkpt lat="47.23248" lon="6.16828">
        <ele>424.017</ele>
        <time>2022-10-10T13:49:40Z</time>
      </trkpt>
      <trkpt lat="47.23242" lon="6.16832">
        <ele>424.009</ele>
        <time>2022-10-10T13:49:41Z</time>
      </trkpt>
      <trkpt lat="47.23236" lon="6.16834">
        <ele>424.023</ele>
        <time>2022-10-10T13:49:42Z</time>
      </trkpt>
      <trkpt lat="47.2323" lon="6.16836">
        <ele>423.893</ele>
        <time>2022-10-10T13:49:43Z</time>
      </trkpt>
      <trkpt lat="47.23224" lon="6.16838">
        <ele>423.827</ele>
        <time>2022-10-10T13:49:44Z</time>
      </trkpt>
      <trkpt lat="47.23218" lon="6.1684">
        <ele>423.831</ele>
        <time>2022-10-10T13:49:45Z</time>
      </trkpt>
      <trkpt lat="47.23212" lon="6.16843">
        <ele>423.664</ele>
        <time>2022-10-10T13:49:46Z</time>
      </trkpt>
      <trkpt lat="47.23207" lon="6.16845">
        <ele>423.48</ele>
        <time>2022-10-10T13:49:47Z</time>
      </trkpt>
      <trkpt lat="47.23201" lon="6.16847">
        <ele>423.256</ele>
        <time>2022-10-10T13:49:48Z</time>
      </trkpt>
      <trkpt lat="47.23195" lon="6.16849">
        <ele>423.226</ele>
        <time>2022-10-10T13:49:49Z</time>
      </trkpt>
      <trkpt lat="47.2319" lon="6.16851">
        <ele>423.26</ele>
        <time>2022-10-10T13:49:50Z</time>
      </trkpt>
      <trkpt lat="47.23184" lon="6.16853">
        <ele>423.272</ele>
        <time>2022-10-10T13:49:51Z</time>
      </trkpt>
      <trkpt lat="47.23179" lon="6.16855">
        <ele>423.213</ele>
        <time>2022-10-10T13:49:52Z</time>
      </trkpt>
      <trkpt lat="47.23175" lon="6.16858">
        <ele>423.214</ele>
        <time>2022-10-10T13:49:53Z</time>
      </trkpt>
      <trkpt lat="47.23172" lon="6.16862">
        <ele>423.209</ele>
        <time>2022-10-10T13:49:54Z</time>
      </trkpt>
      <trkpt lat="47.2317" lon="6.16867">
        <ele>423.238</ele>
        <time>2022-10-10T13:49:55Z</time>
      </trkpt>
      <trkpt lat="47.2317" lon="6.16881">
        <ele>422.878</ele>
        <time>2022-10-10T13:49:57Z</time>
      </trkpt>
      <trkpt lat="47.2317" lon="6.16889">
        <ele>422.882</ele>
        <time>2022-10-10T13:49:58Z</time>
      </trkpt>
      <trkpt lat="47.2317" lon="6.16898">
        <ele>422.836</ele>
        <time>2022-10-10T13:49:59Z</time>
      </trkpt>
      <trkpt lat="47.23171" lon="6.16908">
        <ele>421.699</ele>
        <time>2022-10-10T13:50:00Z</time>
      </trkpt>
      <trkpt lat="47.23171" lon="6.16918">
        <ele>419.835</ele>
        <time>2022-10-10T13:50:01Z</time>
      </trkpt>
      <trkpt lat="47.23172" lon="6.1693">
        <ele>418.841</ele>
        <time>2022-10-10T13:50:02Z</time>
      </trkpt>
      <trkpt lat="47.23172" lon="6.16941">
        <ele>417.451</ele>
        <time>2022-10-10T13:50:03Z</time>
      </trkpt>
      <trkpt lat="47.23174" lon="6.16965">
        <ele>416.445</ele>
        <time>2022-10-10T13:50:05Z</time>
      </trkpt>
      <trkpt lat="47.23176" lon="6.1699">
        <ele>415.082</ele>
        <time>2022-10-10T13:50:07Z</time>
      </trkpt>
      <trkpt lat="47.23178" lon="6.17002">
        <ele>414.643</ele>
        <time>2022-10-10T13:50:08Z</time>
      </trkpt>
      <trkpt lat="47.23179" lon="6.17013">
        <ele>414.617</ele>
        <time>2022-10-10T13:50:09Z</time>
      </trkpt>
      <trkpt lat="47.2318" lon="6.17025">
        <ele>414.609</ele>
        <time>2022-10-10T13:50:10Z</time>
      </trkpt>
      <trkpt lat="47.23181" lon="6.17033">
        <ele>414.689</ele>
        <time>2022-10-10T13:50:11Z</time>
      </trkpt>
      <trkpt lat="47.23183" lon="6.17044">
        <ele>414.629</ele>
        <time>2022-10-10T13:50:12Z</time>
      </trkpt>
      <trkpt lat="47.23185" lon="6.17055">
        <ele>414.663</ele>
        <time>2022-10-10T13:50:13Z</time>
      </trkpt>
      <trkpt lat="47.23185" lon="6.17066">
        <ele>415.057</ele>
        <time>2022-10-10T13:50:14Z</time>
      </trkpt>
      <trkpt lat="47.23185" lon="6.17078">
        <ele>415.07</ele>
        <time>2022-10-10T13:50:15Z</time>
      </trkpt>
      <trkpt lat="47.23183" lon="6.17088">
        <ele>415.056</ele>
        <time>2022-10-10T13:50:16Z</time>
      </trkpt>
      <trkpt lat="47.23181" lon="6.17097">
        <ele>415.092</ele>
        <time>2022-10-10T13:50:17Z</time>
      </trkpt>
      <trkpt lat="47.23179" lon="6.17106">
        <ele>415.292</ele>
        <time>2022-10-10T13:50:18Z</time>
      </trkpt>
      <trkpt lat="47.23176" lon="6.17115">
        <ele>415.266</ele>
        <time>2022-10-10T13:50:19Z</time>
      </trkpt>
      <trkpt lat="47.23174" lon="6.17122">
        <ele>415.468</ele>
        <time>2022-10-10T13:50:20Z</time>
      </trkpt>
      <trkpt lat="47.23171" lon="6.1713">
        <ele>415.842</ele>
        <time>2022-10-10T13:50:21Z</time>
      </trkpt>
      <trkpt lat="47.23163" lon="6.17153">
        <ele>416.226</ele>
        <time>2022-10-10T13:50:24Z</time>
      </trkpt>
      <trkpt lat="47.23154" lon="6.17186">
        <ele>416.409</ele>
        <time>2022-10-10T13:50:28Z</time>
      </trkpt>
      <trkpt lat="47.23152" lon="6.17212">
        <ele>416.877</ele>
        <time>2022-10-10T13:50:31Z</time>
      </trkpt>
      <trkpt lat="47.23153" lon="6.1723">
        <ele>416.877</ele>
        <time>2022-10-10T13:50:33Z</time>
      </trkpt>
      <trkpt lat="47.23156" lon="6.17269">
        <ele>416.251</ele>
        <time>2022-10-10T13:50:37Z</time>
      </trkpt>
      <trkpt lat="47.23157" lon="6.17288">
        <ele>415.855</ele>
        <time>2022-10-10T13:50:39Z</time>
      </trkpt>
      <trkpt lat="47.23158" lon="6.17298">
        <ele>415.858</ele>
        <time>2022-10-10T13:50:40Z</time>
      </trkpt>
      <trkpt lat="47.23159" lon="6.17307">
        <ele>415.654</ele>
        <time>2022-10-10T13:50:41Z</time>
      </trkpt>
      <trkpt lat="47.2316" lon="6.17317">
        <ele>415.64</ele>
        <time>2022-10-10T13:50:42Z</time>
      </trkpt>
      <trkpt lat="47.23161" lon="6.17326">
        <ele>415.48</ele>
        <time>2022-10-10T13:50:43Z</time>
      </trkpt>
      <trkpt lat="47.23161" lon="6.17335">
        <ele>415.484</ele>
        <time>2022-10-10T13:50:44Z</time>
      </trkpt>
      <trkpt lat="47.23161" lon="6.17344">
        <ele>415.444</ele>
        <time>2022-10-10T13:50:45Z</time>
      </trkpt>
      <trkpt lat="47.23162" lon="6.17352">
        <ele>415.405</ele>
        <time>2022-10-10T13:50:46Z</time>
      </trkpt>
      <trkpt lat="47.23162" lon="6.17363">
        <ele>415.815</ele>
        <time>2022-10-10T13:50:47Z</time>
      </trkpt>
      <trkpt lat="47.23162" lon="6.1737">
        <ele>416.009</ele>
        <time>2022-10-10T13:50:48Z</time>
      </trkpt>
      <trkpt lat="47.23162" lon="6.17388">
        <ele>416.075</ele>
        <time>2022-10-10T13:50:50Z</time>
      </trkpt>
      <trkpt lat="47.23162" lon="6.17404">
        <ele>416.245</ele>
        <time>2022-10-10T13:50:52Z</time>
      </trkpt>
      <trkpt lat="47.23163" lon="6.17413">
        <ele>416.669</ele>
        <time>2022-10-10T13:50:53Z</time>
      </trkpt>
      <trkpt lat="47.23163" lon="6.17422">
        <ele>416.653</ele>
        <time>2022-10-10T13:50:54Z</time>
      </trkpt>
      <trkpt lat="47.23163" lon="6.1743">
        <ele>416.636</ele>
        <time>2022-10-10T13:50:55Z</time>
      </trkpt>
      <trkpt lat="47.23165" lon="6.17478">
        <ele>417.262</ele>
        <time>2022-10-10T13:51:01Z</time>
      </trkpt>
      <trkpt lat="47.23165" lon="6.17486">
        <ele>417.488</ele>
        <time>2022-10-10T13:51:02Z</time>
      </trkpt>
      <trkpt lat="47.23165" lon="6.17494">
        <ele>417.448</ele>
        <time>2022-10-10T13:51:03Z</time>
      </trkpt>
      <trkpt lat="47.23169" lon="6.17529">
        <ele>417.842</ele>
        <time>2022-10-10T13:51:07Z</time>
      </trkpt>
      <trkpt lat="47.23171" lon="6.17554">
        <ele>418.282</ele>
        <time>2022-10-10T13:51:10Z</time>
      </trkpt>
      <trkpt lat="47.23173" lon="6.1757">
        <ele>418.643</ele>
        <time>2022-10-10T13:51:12Z</time>
      </trkpt>
      <trkpt lat="47.23174" lon="6.17579">
        <ele>418.817</ele>
        <time>2022-10-10T13:51:13Z</time>
      </trkpt>
      <trkpt lat="47.23176" lon="6.17604">
        <ele>419.209</ele>
        <time>2022-10-10T13:51:16Z</time>
      </trkpt>
      <trkpt lat="47.23177" lon="6.17613">
        <ele>419.829</ele>
        <time>2022-10-10T13:51:17Z</time>
      </trkpt>
      <trkpt lat="47.23178" lon="6.17623">
        <ele>419.879</ele>
        <time>2022-10-10T13:51:18Z</time>
      </trkpt>
      <trkpt lat="47.23178" lon="6.17631">
        <ele>419.823</ele>
        <time>2022-10-10T13:51:19Z</time>
      </trkpt>
      <trkpt lat="47.23178" lon="6.1764">
        <ele>420.287</ele>
        <time>2022-10-10T13:51:20Z</time>
      </trkpt>
      <trkpt lat="47.23178" lon="6.17648">
        <ele>420.26</ele>
        <time>2022-10-10T13:51:21Z</time>
      </trkpt>
      <trkpt lat="47.23177" lon="6.17656">
        <ele>420.626</ele>
        <time>2022-10-10T13:51:22Z</time>
      </trkpt>
      <trkpt lat="47.23176" lon="6.17664">
        <ele>420.642</ele>
        <time>2022-10-10T13:51:23Z</time>
      </trkpt>
      <trkpt lat="47.23173" lon="6.17673">
        <ele>420.622</ele>
        <time>2022-10-10T13:51:24Z</time>
      </trkpt>
      <trkpt lat="47.23171" lon="6.17681">
        <ele>420.886</ele>
        <time>2022-10-10T13:51:25Z</time>
      </trkpt>
      <trkpt lat="47.23168" lon="6.17689">
        <ele>421.032</ele>
        <time>2022-10-10T13:51:26Z</time>
      </trkpt>
      <trkpt lat="47.23164" lon="6.17697">
        <ele>421.092</ele>
        <time>2022-10-10T13:51:27Z</time>
      </trkpt>
      <trkpt lat="47.2316" lon="6.17704">
        <ele>421.011</ele>
        <time>2022-10-10T13:51:28Z</time>
      </trkpt>
      <trkpt lat="47.23156" lon="6.1771">
        <ele>421.209</ele>
        <time>2022-10-10T13:51:29Z</time>
      </trkpt>
      <trkpt lat="47.23152" lon="6.17717">
        <ele>421.614</ele>
        <time>2022-10-10T13:51:30Z</time>
      </trkpt>
      <trkpt lat="47.23148" lon="6.17723">
        <ele>421.614</ele>
        <time>2022-10-10T13:51:31Z</time>
      </trkpt>
      <trkpt lat="47.23144" lon="6.1773">
        <ele>422.028</ele>
        <time>2022-10-10T13:51:32Z</time>
      </trkpt>
      <trkpt lat="47.2314" lon="6.17736">
        <ele>422.042</ele>
        <time>2022-10-10T13:51:33Z</time>
      </trkpt>
      <trkpt lat="47.23135" lon="6.17742">
        <ele>422.065</ele>
        <time>2022-10-10T13:51:34Z</time>
      </trkpt>
      <trkpt lat="47.23131" lon="6.17748">
        <ele>422.851</ele>
        <time>2022-10-10T13:51:35Z</time>
      </trkpt>
      <trkpt lat="47.23126" lon="6.17755">
        <ele>422.827</ele>
        <time>2022-10-10T13:51:36Z</time>
      </trkpt>
      <trkpt lat="47.23123" lon="6.1776">
        <ele>423.457</ele>
        <time>2022-10-10T13:51:37Z</time>
      </trkpt>
      <trkpt lat="47.23119" lon="6.17766">
        <ele>423.461</ele>
        <time>2022-10-10T13:51:38Z</time>
      </trkpt>
      <trkpt lat="47.23116" lon="6.17771">
        <ele>424.033</ele>
        <time>2022-10-10T13:51:39Z</time>
      </trkpt>
      <trkpt lat="47.23112" lon="6.17777">
        <ele>425.423</ele>
        <time>2022-10-10T13:51:40Z</time>
      </trkpt>
      <trkpt lat="47.23108" lon="6.17783">
        <ele>426.015</ele>
        <time>2022-10-10T13:51:41Z</time>
      </trkpt>
      <trkpt lat="47.23105" lon="6.17788">
        <ele>426.209</ele>
        <time>2022-10-10T13:51:42Z</time>
      </trkpt>
      <trkpt lat="47.23101" lon="6.17793">
        <ele>426.644</ele>
        <time>2022-10-10T13:51:43Z</time>
      </trkpt>
      <trkpt lat="47.23098" lon="6.178">
        <ele>427.254</ele>
        <time>2022-10-10T13:51:44Z</time>
      </trkpt>
      <trkpt lat="47.23096" lon="6.17805">
        <ele>428.038</ele>
        <time>2022-10-10T13:51:45Z</time>
      </trkpt>
      <trkpt lat="47.23094" lon="6.17812">
        <ele>428.062</ele>
        <time>2022-10-10T13:51:46Z</time>
      </trkpt>
      <trkpt lat="47.23094" lon="6.17818">
        <ele>428.485</ele>
        <time>2022-10-10T13:51:47Z</time>
      </trkpt>
      <trkpt lat="47.23093" lon="6.17824">
        <ele>429.621</ele>
        <time>2022-10-10T13:51:48Z</time>
      </trkpt>
      <trkpt lat="47.23093" lon="6.17829">
        <ele>429.837</ele>
        <time>2022-10-10T13:51:49Z</time>
      </trkpt>
      <trkpt lat="47.23093" lon="6.17835">
        <ele>430.077</ele>
        <time>2022-10-10T13:51:50Z</time>
      </trkpt>
      <trkpt lat="47.23094" lon="6.17841">
        <ele>430.661</ele>
        <time>2022-10-10T13:51:51Z</time>
      </trkpt>
      <trkpt lat="47.23094" lon="6.17847">
        <ele>431.451</ele>
        <time>2022-10-10T13:51:52Z</time>
      </trkpt>
      <trkpt lat="47.23094" lon="6.17854">
        <ele>431.401</ele>
        <time>2022-10-10T13:51:53Z</time>
      </trkpt>
      <trkpt lat="47.23095" lon="6.1786">
        <ele>432.211</ele>
        <time>2022-10-10T13:51:54Z</time>
      </trkpt>
      <trkpt lat="47.23095" lon="6.17867">
        <ele>432.209</ele>
        <time>2022-10-10T13:51:55Z</time>
      </trkpt>
      <trkpt lat="47.23095" lon="6.17874">
        <ele>432.486</ele>
        <time>2022-10-10T13:51:56Z</time>
      </trkpt>
      <trkpt lat="47.23096" lon="6.1788">
        <ele>432.486</ele>
        <time>2022-10-10T13:51:57Z</time>
      </trkpt>
      <trkpt lat="47.23096" lon="6.17887">
        <ele>432.81</ele>
        <time>2022-10-10T13:51:58Z</time>
      </trkpt>
      <trkpt lat="47.23096" lon="6.17894">
        <ele>433.464</ele>
        <time>2022-10-10T13:51:59Z</time>
      </trkpt>
      <trkpt lat="47.23096" lon="6.17901">
        <ele>433.677</ele>
        <time>2022-10-10T13:52:00Z</time>
      </trkpt>
      <trkpt lat="47.23096" lon="6.17908">
        <ele>434.083</ele>
        <time>2022-10-10T13:52:01Z</time>
      </trkpt>
      <trkpt lat="47.23095" lon="6.17914">
        <ele>434.659</ele>
        <time>2022-10-10T13:52:02Z</time>
      </trkpt>
      <trkpt lat="47.23094" lon="6.17921">
        <ele>435.099</ele>
        <time>2022-10-10T13:52:03Z</time>
      </trkpt>
      <trkpt lat="47.23093" lon="6.17927">
        <ele>435.263</ele>
        <time>2022-10-10T13:52:04Z</time>
      </trkpt>
      <trkpt lat="47.23092" lon="6.17934">
        <ele>435.854</ele>
        <time>2022-10-10T13:52:05Z</time>
      </trkpt>
      <trkpt lat="47.23092" lon="6.1794">
        <ele>436.056</ele>
        <time>2022-10-10T13:52:06Z</time>
      </trkpt>
      <trkpt lat="47.23091" lon="6.17946">
        <ele>436.211</ele>
        <time>2022-10-10T13:52:07Z</time>
      </trkpt>
      <trkpt lat="47.23091" lon="6.17952">
        <ele>436.609</ele>
        <time>2022-10-10T13:52:08Z</time>
      </trkpt>
      <trkpt lat="47.2309" lon="6.17958">
        <ele>437.036</ele>
        <time>2022-10-10T13:52:09Z</time>
      </trkpt>
      <trkpt lat="47.2309" lon="6.17964">
        <ele>437.626</ele>
        <time>2022-10-10T13:52:10Z</time>
      </trkpt>
      <trkpt lat="47.2309" lon="6.1797">
        <ele>437.86</ele>
        <time>2022-10-10T13:52:11Z</time>
      </trkpt>
      <trkpt lat="47.23089" lon="6.17976">
        <ele>437.834</ele>
        <time>2022-10-10T13:52:12Z</time>
      </trkpt>
      <trkpt lat="47.23089" lon="6.17982">
        <ele>438.277</ele>
        <time>2022-10-10T13:52:13Z</time>
      </trkpt>
      <trkpt lat="47.23089" lon="6.17988">
        <ele>438.483</ele>
        <time>2022-10-10T13:52:14Z</time>
      </trkpt>
      <trkpt lat="47.23088" lon="6.17994">
        <ele>438.429</ele>
        <time>2022-10-10T13:52:15Z</time>
      </trkpt>
      <trkpt lat="47.23089" lon="6.17998">
        <ele>439.079</ele>
        <time>2022-10-10T13:52:16Z</time>
      </trkpt>
      <trkpt lat="47.23089" lon="6.18002">
        <ele>439.273</ele>
        <time>2022-10-10T13:52:17Z</time>
      </trkpt>
      <trkpt lat="47.23089" lon="6.18006">
        <ele>439.484</ele>
        <time>2022-10-10T13:52:18Z</time>
      </trkpt>
      <trkpt lat="47.23088" lon="6.18011">
        <ele>439.607</ele>
        <time>2022-10-10T13:52:19Z</time>
      </trkpt>
      <trkpt lat="47.23088" lon="6.18015">
        <ele>439.617</ele>
        <time>2022-10-10T13:52:20Z</time>
      </trkpt>
      <trkpt lat="47.23087" lon="6.18018">
        <ele>439.809</ele>
        <time>2022-10-10T13:52:21Z</time>
      </trkpt>
      <trkpt lat="47.23087" lon="6.1802">
        <ele>440.019</ele>
        <time>2022-10-10T13:52:22Z</time>
      </trkpt>
      <trkpt lat="47.23086" lon="6.18021">
        <ele>440.029</ele>
        <time>2022-10-10T13:52:23Z</time>
      </trkpt>
      <trkpt lat="47.23086" lon="6.18021">
        <ele>440.063</ele>
        <time>2022-10-10T13:52:24Z</time>
      </trkpt>
      <trkpt lat="47.23086" lon="6.18021">
        <ele>440.027</ele>
        <time>2022-10-10T13:52:25Z</time>
      </trkpt>
      <trkpt lat="47.23086" lon="6.18021">
        <ele>440.06</ele>
        <time>2022-10-10T13:52:27Z</time>
      </trkpt>
      <trkpt lat="47.23086" lon="6.18021">
        <ele>439.856</ele>
        <time>2022-10-10T13:52:29Z</time>
      </trkpt>
      <trkpt lat="47.23087" lon="6.18021">
        <ele>439.862</ele>
        <time>2022-10-10T13:52:39Z</time>
      </trkpt>
      <trkpt lat="47.23087" lon="6.18021">
        <ele>439.692</ele>
        <time>2022-10-10T13:52:45Z</time>
      </trkpt>
      <trkpt lat="47.23086" lon="6.18021">
        <ele>439.426</ele>
        <time>2022-10-10T13:52:49Z</time>
      </trkpt>
      <trkpt lat="47.23086" lon="6.18021">
        <ele>439.484</ele>
        <time>2022-10-10T13:52:53Z</time>
      </trkpt>
      <trkpt lat="47.23087" lon="6.18021">
        <ele>439.207</ele>
        <time>2022-10-10T13:53:16Z</time>
      </trkpt>
      <trkpt lat="47.23088" lon="6.18021">
        <ele>438.817</ele>
        <time>2022-10-10T13:53:33Z</time>
      </trkpt>
      <trkpt lat="47.23088" lon="6.18022">
        <ele>438.809</ele>
        <time>2022-10-10T13:53:34Z</time>
      </trkpt>
      <trkpt lat="47.23086" lon="6.18032">
        <ele>438.859</ele>
        <time>2022-10-10T13:53:36Z</time>
      </trkpt>
      <trkpt lat="47.23084" lon="6.18038">
        <ele>438.899</ele>
        <time>2022-10-10T13:53:37Z</time>
      </trkpt>
      <trkpt lat="47.23083" lon="6.18043">
        <ele>438.883</ele>
        <time>2022-10-10T13:53:38Z</time>
      </trkpt>
      <trkpt lat="47.23081" lon="6.18048">
        <ele>438.857</ele>
        <time>2022-10-10T13:53:39Z</time>
      </trkpt>
      <trkpt lat="47.23077" lon="6.18059">
        <ele>438.63</ele>
        <time>2022-10-10T13:53:41Z</time>
      </trkpt>
      <trkpt lat="47.23076" lon="6.18065">
        <ele>438.286</ele>
        <time>2022-10-10T13:53:42Z</time>
      </trkpt>
      <trkpt lat="47.23073" lon="6.18073">
        <ele>438.262</ele>
        <time>2022-10-10T13:53:43Z</time>
      </trkpt>
      <trkpt lat="47.23067" lon="6.18087">
        <ele>437.252</ele>
        <time>2022-10-10T13:53:45Z</time>
      </trkpt>
      <trkpt lat="47.23065" lon="6.18095">
        <ele>437.226</ele>
        <time>2022-10-10T13:53:46Z</time>
      </trkpt>
      <trkpt lat="47.23063" lon="6.18103">
        <ele>437.216</ele>
        <time>2022-10-10T13:53:47Z</time>
      </trkpt>
      <trkpt lat="47.2306" lon="6.1811">
        <ele>437.276</ele>
        <time>2022-10-10T13:53:48Z</time>
      </trkpt>
      <trkpt lat="47.23058" lon="6.18117">
        <ele>437.613</ele>
        <time>2022-10-10T13:53:49Z</time>
      </trkpt>
      <trkpt lat="47.23055" lon="6.18132">
        <ele>437.809</ele>
        <time>2022-10-10T13:53:51Z</time>
      </trkpt>
      <trkpt lat="47.23049" lon="6.18157">
        <ele>438.272</ele>
        <time>2022-10-10T13:53:54Z</time>
      </trkpt>
      <trkpt lat="47.23044" lon="6.18189">
        <ele>437.852</ele>
        <time>2022-10-10T13:53:58Z</time>
      </trkpt>
      <trkpt lat="47.23044" lon="6.18197">
        <ele>437.876</ele>
        <time>2022-10-10T13:53:59Z</time>
      </trkpt>
      <trkpt lat="47.23044" lon="6.18213">
        <ele>437.44</ele>
        <time>2022-10-10T13:54:01Z</time>
      </trkpt>
      <trkpt lat="47.23045" lon="6.18221">
        <ele>437.423</ele>
        <time>2022-10-10T13:54:02Z</time>
      </trkpt>
      <trkpt lat="47.23047" lon="6.18228">
        <ele>437.419</ele>
        <time>2022-10-10T13:54:03Z</time>
      </trkpt>
      <trkpt lat="47.23049" lon="6.18236">
        <ele>437.465</ele>
        <time>2022-10-10T13:54:04Z</time>
      </trkpt>
      <trkpt lat="47.23051" lon="6.18243">
        <ele>437.835</ele>
        <time>2022-10-10T13:54:05Z</time>
      </trkpt>
      <trkpt lat="47.23054" lon="6.18249">
        <ele>438.029</ele>
        <time>2022-10-10T13:54:06Z</time>
      </trkpt>
      <trkpt lat="47.23058" lon="6.18254">
        <ele>438.045</ele>
        <time>2022-10-10T13:54:07Z</time>
      </trkpt>
      <trkpt lat="47.23062" lon="6.18259">
        <ele>438.047</ele>
        <time>2022-10-10T13:54:08Z</time>
      </trkpt>
      <trkpt lat="47.23066" lon="6.18262">
        <ele>438.011</ele>
        <time>2022-10-10T13:54:09Z</time>
      </trkpt>
      <trkpt lat="47.23071" lon="6.18266">
        <ele>438.009</ele>
        <time>2022-10-10T13:54:10Z</time>
      </trkpt>
      <trkpt lat="47.23076" lon="6.1827">
        <ele>438.045</ele>
        <time>2022-10-10T13:54:11Z</time>
      </trkpt>
      <trkpt lat="47.23081" lon="6.18273">
        <ele>438.255</ele>
        <time>2022-10-10T13:54:12Z</time>
      </trkpt>
      <trkpt lat="47.23085" lon="6.18275">
        <ele>438.259</ele>
        <time>2022-10-10T13:54:13Z</time>
      </trkpt>
      <trkpt lat="47.2309" lon="6.18277">
        <ele>438.293</ele>
        <time>2022-10-10T13:54:14Z</time>
      </trkpt>
      <trkpt lat="47.23094" lon="6.18279">
        <ele>438.456</ele>
        <time>2022-10-10T13:54:15Z</time>
      </trkpt>
      <trkpt lat="47.23099" lon="6.1828">
        <ele>439.662</ele>
        <time>2022-10-10T13:54:16Z</time>
      </trkpt>
      <trkpt lat="47.23109" lon="6.18282">
        <ele>440.068</ele>
        <time>2022-10-10T13:54:18Z</time>
      </trkpt>
      <trkpt lat="47.23118" lon="6.18284">
        <ele>440.458</ele>
        <time>2022-10-10T13:54:20Z</time>
      </trkpt>
      <trkpt lat="47.23127" lon="6.18288">
        <ele>440.482</ele>
        <time>2022-10-10T13:54:22Z</time>
      </trkpt>
      <trkpt lat="47.23137" lon="6.1829">
        <ele>440.868</ele>
        <time>2022-10-10T13:54:24Z</time>
      </trkpt>
      <trkpt lat="47.23142" lon="6.18292">
        <ele>440.842</ele>
        <time>2022-10-10T13:54:25Z</time>
      </trkpt>
      <trkpt lat="47.23148" lon="6.18293">
        <ele>441.026</ele>
        <time>2022-10-10T13:54:26Z</time>
      </trkpt>
      <trkpt lat="47.23153" lon="6.18294">
        <ele>441.009</ele>
        <time>2022-10-10T13:54:27Z</time>
      </trkpt>
      <trkpt lat="47.23159" lon="6.18296">
        <ele>441.077</ele>
        <time>2022-10-10T13:54:28Z</time>
      </trkpt>
      <trkpt lat="47.23164" lon="6.18298">
        <ele>441.487</ele>
        <time>2022-10-10T13:54:29Z</time>
      </trkpt>
      <trkpt lat="47.2317" lon="6.18301">
        <ele>441.681</ele>
        <time>2022-10-10T13:54:30Z</time>
      </trkpt>
      <trkpt lat="47.23175" lon="6.18304">
        <ele>442.095</ele>
        <time>2022-10-10T13:54:31Z</time>
      </trkpt>
      <trkpt lat="47.2318" lon="6.18306">
        <ele>442.078</ele>
        <time>2022-10-10T13:54:32Z</time>
      </trkpt>
      <trkpt lat="47.23185" lon="6.18308">
        <ele>442.024</ele>
        <time>2022-10-10T13:54:33Z</time>
      </trkpt>
      <trkpt lat="47.23191" lon="6.1831">
        <ele>442.08</ele>
        <time>2022-10-10T13:54:34Z</time>
      </trkpt>
      <trkpt lat="47.23197" lon="6.18313">
        <ele>442.03</ele>
        <time>2022-10-10T13:54:35Z</time>
      </trkpt>
      <trkpt lat="47.23202" lon="6.18315">
        <ele>442.064</ele>
        <time>2022-10-10T13:54:36Z</time>
      </trkpt>
      <trkpt lat="47.23208" lon="6.18317">
        <ele>442.088</ele>
        <time>2022-10-10T13:54:37Z</time>
      </trkpt>
      <trkpt lat="47.23213" lon="6.18318">
        <ele>441.824</ele>
        <time>2022-10-10T13:54:38Z</time>
      </trkpt>
      <trkpt lat="47.23219" lon="6.18319">
        <ele>442.026</ele>
        <time>2022-10-10T13:54:39Z</time>
      </trkpt>
      <trkpt lat="47.23225" lon="6.18319">
        <ele>442.009</ele>
        <time>2022-10-10T13:54:40Z</time>
      </trkpt>
      <trkpt lat="47.23231" lon="6.18319">
        <ele>442.029</ele>
        <time>2022-10-10T13:54:41Z</time>
      </trkpt>
      <trkpt lat="47.23237" lon="6.18318">
        <ele>442.069</ele>
        <time>2022-10-10T13:54:42Z</time>
      </trkpt>
      <trkpt lat="47.23243" lon="6.18317">
        <ele>442.033</ele>
        <time>2022-10-10T13:54:43Z</time>
      </trkpt>
      <trkpt lat="47.23249" lon="6.18317">
        <ele>442.077</ele>
        <time>2022-10-10T13:54:44Z</time>
      </trkpt>
      <trkpt lat="47.23267" lon="6.18312">
        <ele>442.62</ele>
        <time>2022-10-10T13:54:47Z</time>
      </trkpt>
      <trkpt lat="47.23274" lon="6.18312">
        <ele>442.676</ele>
        <time>2022-10-10T13:54:48Z</time>
      </trkpt>
      <trkpt lat="47.2328" lon="6.18313">
        <ele>442.612</ele>
        <time>2022-10-10T13:54:49Z</time>
      </trkpt>
      <trkpt lat="47.23285" lon="6.18314">
        <ele>443.082</ele>
        <time>2022-10-10T13:54:50Z</time>
      </trkpt>
      <trkpt lat="47.23291" lon="6.18314">
        <ele>442.666</ele>
        <time>2022-10-10T13:54:51Z</time>
      </trkpt>
      <trkpt lat="47.23296" lon="6.18314">
        <ele>442.658</ele>
        <time>2022-10-10T13:54:52Z</time>
      </trkpt>
      <trkpt lat="47.23311" lon="6.18314">
        <ele>442.652</ele>
        <time>2022-10-10T13:54:55Z</time>
      </trkpt>
      <trkpt lat="47.23339" lon="6.1831">
        <ele>442.817</ele>
        <time>2022-10-10T13:55:00Z</time>
      </trkpt>
      <trkpt lat="47.23345" lon="6.18309">
        <ele>443.009</ele>
        <time>2022-10-10T13:55:01Z</time>
      </trkpt>
      <trkpt lat="47.2335" lon="6.18307">
        <ele>443.426</ele>
        <time>2022-10-10T13:55:02Z</time>
      </trkpt>
      <trkpt lat="47.23355" lon="6.18305">
        <ele>443.676</ele>
        <time>2022-10-10T13:55:03Z</time>
      </trkpt>
      <trkpt lat="47.2336" lon="6.18303">
        <ele>444.23</ele>
        <time>2022-10-10T13:55:04Z</time>
      </trkpt>
      <trkpt lat="47.23364" lon="6.18302">
        <ele>444.284</ele>
        <time>2022-10-10T13:55:05Z</time>
      </trkpt>
      <trkpt lat="47.23369" lon="6.183">
        <ele>444.837</ele>
        <time>2022-10-10T13:55:06Z</time>
      </trkpt>
      <trkpt lat="47.23374" lon="6.18298">
        <ele>445.023</ele>
        <time>2022-10-10T13:55:07Z</time>
      </trkpt>
      <trkpt lat="47.23378" lon="6.18297">
        <ele>445.049</ele>
        <time>2022-10-10T13:55:08Z</time>
      </trkpt>
      <trkpt lat="47.23383" lon="6.18295">
        <ele>445.289</ele>
        <time>2022-10-10T13:55:09Z</time>
      </trkpt>
      <trkpt lat="47.23387" lon="6.18293">
        <ele>445.473</ele>
        <time>2022-10-10T13:55:10Z</time>
      </trkpt>
      <trkpt lat="47.23391" lon="6.18291">
        <ele>446.077</ele>
        <time>2022-10-10T13:55:11Z</time>
      </trkpt>
      <trkpt lat="47.23396" lon="6.18289">
        <ele>446.661</ele>
        <time>2022-10-10T13:55:12Z</time>
      </trkpt>
      <trkpt lat="47.234" lon="6.18288">
        <ele>446.627</ele>
        <time>2022-10-10T13:55:13Z</time>
      </trkpt>
      <trkpt lat="47.23405" lon="6.18286">
        <ele>446.809</ele>
        <time>2022-10-10T13:55:14Z</time>
      </trkpt>
      <trkpt lat="47.23409" lon="6.18285">
        <ele>446.888</ele>
        <time>2022-10-10T13:55:15Z</time>
      </trkpt>
      <trkpt lat="47.23414" lon="6.18283">
        <ele>446.868</ele>
        <time>2022-10-10T13:55:16Z</time>
      </trkpt>
      <trkpt lat="47.23419" lon="6.18282">
        <ele>447.622</ele>
        <time>2022-10-10T13:55:17Z</time>
      </trkpt>
      <trkpt lat="47.23423" lon="6.1828">
        <ele>447.836</ele>
        <time>2022-10-10T13:55:18Z</time>
      </trkpt>
      <trkpt lat="47.23428" lon="6.18279">
        <ele>447.859</ele>
        <time>2022-10-10T13:55:19Z</time>
      </trkpt>
      <trkpt lat="47.23433" lon="6.18277">
        <ele>447.825</ele>
        <time>2022-10-10T13:55:20Z</time>
      </trkpt>
      <trkpt lat="47.23438" lon="6.18276">
        <ele>447.821</ele>
        <time>2022-10-10T13:55:21Z</time>
      </trkpt>
      <trkpt lat="47.23443" lon="6.18274">
        <ele>447.891</ele>
        <time>2022-10-10T13:55:22Z</time>
      </trkpt>
      <trkpt lat="47.23449" lon="6.18273">
        <ele>447.845</ele>
        <time>2022-10-10T13:55:23Z</time>
      </trkpt>
      <trkpt lat="47.23454" lon="6.18271">
        <ele>447.878</ele>
        <time>2022-10-10T13:55:24Z</time>
      </trkpt>
      <trkpt lat="47.23459" lon="6.18269">
        <ele>447.833</ele>
        <time>2022-10-10T13:55:25Z</time>
      </trkpt>
      <trkpt lat="47.23465" lon="6.18268">
        <ele>447.826</ele>
        <time>2022-10-10T13:55:26Z</time>
      </trkpt>
      <trkpt lat="47.2347" lon="6.18266">
        <ele>447.809</ele>
        <time>2022-10-10T13:55:27Z</time>
      </trkpt>
      <trkpt lat="47.23476" lon="6.18265">
        <ele>447.868</ele>
        <time>2022-10-10T13:55:28Z</time>
      </trkpt>
      <trkpt lat="47.23482" lon="6.18264">
        <ele>447.698</ele>
        <time>2022-10-10T13:55:29Z</time>
      </trkpt>
      <trkpt lat="47.23487" lon="6.18262">
        <ele>447.442</ele>
        <time>2022-10-10T13:55:30Z</time>
      </trkpt>
      <trkpt lat="47.23493" lon="6.18261">
        <ele>447.416</ele>
        <time>2022-10-10T13:55:31Z</time>
      </trkpt>
      <trkpt lat="47.23498" lon="6.18259">
        <ele>447.469</ele>
        <time>2022-10-10T13:55:32Z</time>
      </trkpt>
      <trkpt lat="47.23504" lon="6.18258">
        <ele>447.425</ele>
        <time>2022-10-10T13:55:33Z</time>
      </trkpt>
      <trkpt lat="47.23509" lon="6.18257">
        <ele>447.261</ele>
        <time>2022-10-10T13:55:34Z</time>
      </trkpt>
      <trkpt lat="47.23515" lon="6.18256">
        <ele>447.461</ele>
        <time>2022-10-10T13:55:35Z</time>
      </trkpt>
      <trkpt lat="47.23555" lon="6.18247">
        <ele>448.095</ele>
        <time>2022-10-10T13:55:42Z</time>
      </trkpt>
      <trkpt lat="47.2356" lon="6.18246">
        <ele>448.068</ele>
        <time>2022-10-10T13:55:43Z</time>
      </trkpt>
      <trkpt lat="47.23566" lon="6.18244">
        <ele>448.242</ele>
        <time>2022-10-10T13:55:44Z</time>
      </trkpt>
      <trkpt lat="47.23571" lon="6.18243">
        <ele>448.226</ele>
        <time>2022-10-10T13:55:45Z</time>
      </trkpt>
      <trkpt lat="47.23577" lon="6.18241">
        <ele>448.209</ele>
        <time>2022-10-10T13:55:46Z</time>
      </trkpt>
      <trkpt lat="47.23582" lon="6.1824">
        <ele>448.677</ele>
        <time>2022-10-10T13:55:47Z</time>
      </trkpt>
      <trkpt lat="47.23587" lon="6.18239">
        <ele>448.837</ele>
        <time>2022-10-10T13:55:48Z</time>
      </trkpt>
      <trkpt lat="47.23592" lon="6.18238">
        <ele>449.021</ele>
        <time>2022-10-10T13:55:49Z</time>
      </trkpt>
      <trkpt lat="47.23597" lon="6.18237">
        <ele>449.025</ele>
        <time>2022-10-10T13:55:50Z</time>
      </trkpt>
      <trkpt lat="47.23602" lon="6.18235">
        <ele>449.648</ele>
        <time>2022-10-10T13:55:51Z</time>
      </trkpt>
      <trkpt lat="47.23607" lon="6.18234">
        <ele>449.884</ele>
        <time>2022-10-10T13:55:52Z</time>
      </trkpt>
      <trkpt lat="47.23612" lon="6.18234">
        <ele>449.82</ele>
        <time>2022-10-10T13:55:53Z</time>
      </trkpt>
      <trkpt lat="47.23617" lon="6.18233">
        <ele>450.05</ele>
        <time>2022-10-10T13:55:54Z</time>
      </trkpt>
      <trkpt lat="47.23622" lon="6.18232">
        <ele>450.284</ele>
        <time>2022-10-10T13:55:55Z</time>
      </trkpt>
      <trkpt lat="47.23626" lon="6.18231">
        <ele>450.645</ele>
        <time>2022-10-10T13:55:56Z</time>
      </trkpt>
      <trkpt lat="47.2363" lon="6.18231">
        <ele>450.647</ele>
        <time>2022-10-10T13:55:57Z</time>
      </trkpt>
      <trkpt lat="47.23633" lon="6.18232">
        <ele>450.811</ele>
        <time>2022-10-10T13:55:58Z</time>
      </trkpt>
      <trkpt lat="47.23636" lon="6.18235">
        <ele>450.809</ele>
        <time>2022-10-10T13:55:59Z</time>
      </trkpt>
      <trkpt lat="47.23637" lon="6.1824">
        <ele>451.825</ele>
        <time>2022-10-10T13:56:00Z</time>
      </trkpt>
      <trkpt lat="47.23636" lon="6.18245">
        <ele>451.835</ele>
        <time>2022-10-10T13:56:01Z</time>
      </trkpt>
      <trkpt lat="47.23634" lon="6.18251">
        <ele>451.819</ele>
        <time>2022-10-10T13:56:02Z</time>
      </trkpt>
      <trkpt lat="47.23631" lon="6.18257">
        <ele>451.833</ele>
        <time>2022-10-10T13:56:03Z</time>
      </trkpt>
      <trkpt lat="47.23627" lon="6.18263">
        <ele>451.436</ele>
        <time>2022-10-10T13:56:04Z</time>
      </trkpt>
      <trkpt lat="47.23623" lon="6.1827">
        <ele>450.682</ele>
        <time>2022-10-10T13:56:05Z</time>
      </trkpt>
      <trkpt lat="47.23619" lon="6.18276">
        <ele>450.498</ele>
        <time>2022-10-10T13:56:06Z</time>
      </trkpt>
      <trkpt lat="47.23614" lon="6.18283">
        <ele>450.258</ele>
        <time>2022-10-10T13:56:07Z</time>
      </trkpt>
      <trkpt lat="47.2361" lon="6.1829">
        <ele>449.852</ele>
        <time>2022-10-10T13:56:08Z</time>
      </trkpt>
      <trkpt lat="47.23605" lon="6.18297">
        <ele>449.433</ele>
        <time>2022-10-10T13:56:09Z</time>
      </trkpt>
      <trkpt lat="47.236" lon="6.18304">
        <ele>449.423</ele>
        <time>2022-10-10T13:56:10Z</time>
      </trkpt>
      <trkpt lat="47.23596" lon="6.1831">
        <ele>449.415</ele>
        <time>2022-10-10T13:56:11Z</time>
      </trkpt>
      <trkpt lat="47.23587" lon="6.18323">
        <ele>449.409</ele>
        <time>2022-10-10T13:56:13Z</time>
      </trkpt>
      <trkpt lat="47.23582" lon="6.1833">
        <ele>449.424</ele>
        <time>2022-10-10T13:56:14Z</time>
      </trkpt>
      <trkpt lat="47.23573" lon="6.18344">
        <ele>449.454</ele>
        <time>2022-10-10T13:56:16Z</time>
      </trkpt>
      <trkpt lat="47.23569" lon="6.18351">
        <ele>449.228</ele>
        <time>2022-10-10T13:56:17Z</time>
      </trkpt>
      <trkpt lat="47.23564" lon="6.18357">
        <ele>449.282</ele>
        <time>2022-10-10T13:56:18Z</time>
      </trkpt>
      <trkpt lat="47.2356" lon="6.18363">
        <ele>449.455</ele>
        <time>2022-10-10T13:56:19Z</time>
      </trkpt>
      <trkpt lat="47.23555" lon="6.18369">
        <ele>449.431</ele>
        <time>2022-10-10T13:56:20Z</time>
      </trkpt>
      <trkpt lat="47.23551" lon="6.18376">
        <ele>449.817</ele>
        <time>2022-10-10T13:56:21Z</time>
      </trkpt>
      <trkpt lat="47.23547" lon="6.18382">
        <ele>450.617</ele>
        <time>2022-10-10T13:56:22Z</time>
      </trkpt>
      <trkpt lat="47.23543" lon="6.18389">
        <ele>451.021</ele>
        <time>2022-10-10T13:56:23Z</time>
      </trkpt>
      <trkpt lat="47.23527" lon="6.18414">
        <ele>452.023</ele>
        <time>2022-10-10T13:56:27Z</time>
      </trkpt>
      <trkpt lat="47.23519" lon="6.18427">
        <ele>452.283</ele>
        <time>2022-10-10T13:56:29Z</time>
      </trkpt>
      <trkpt lat="47.23514" lon="6.18433">
        <ele>452.411</ele>
        <time>2022-10-10T13:56:30Z</time>
      </trkpt>
      <trkpt lat="47.23502" lon="6.18453">
        <ele>452.609</ele>
        <time>2022-10-10T13:56:33Z</time>
      </trkpt>
      <trkpt lat="47.23497" lon="6.18459">
        <ele>452.663</ele>
        <time>2022-10-10T13:56:34Z</time>
      </trkpt>
      <trkpt lat="47.23493" lon="6.18466">
        <ele>452.623</ele>
        <time>2022-10-10T13:56:35Z</time>
      </trkpt>
      <trkpt lat="47.23489" lon="6.18472">
        <ele>452.447</ele>
        <time>2022-10-10T13:56:36Z</time>
      </trkpt>
      <trkpt lat="47.23484" lon="6.18479">
        <ele>452.481</ele>
        <time>2022-10-10T13:56:37Z</time>
      </trkpt>
      <trkpt lat="47.23479" lon="6.18486">
        <ele>452.464</ele>
        <time>2022-10-10T13:56:38Z</time>
      </trkpt>
      <trkpt lat="47.23475" lon="6.18492">
        <ele>452.41</ele>
        <time>2022-10-10T13:56:39Z</time>
      </trkpt>
      <trkpt lat="47.2347" lon="6.18499">
        <ele>452.436</ele>
        <time>2022-10-10T13:56:40Z</time>
      </trkpt>
      <trkpt lat="47.23465" lon="6.18506">
        <ele>452.256</ele>
        <time>2022-10-10T13:56:41Z</time>
      </trkpt>
      <trkpt lat="47.23461" lon="6.18512">
        <ele>452.29</ele>
        <time>2022-10-10T13:56:42Z</time>
      </trkpt>
      <trkpt lat="47.23452" lon="6.18526">
        <ele>451.627</ele>
        <time>2022-10-10T13:56:44Z</time>
      </trkpt>
      <trkpt lat="47.23447" lon="6.18532">
        <ele>451.668</ele>
        <time>2022-10-10T13:56:45Z</time>
      </trkpt>
      <trkpt lat="47.23438" lon="6.18546">
        <ele>452.014</ele>
        <time>2022-10-10T13:56:47Z</time>
      </trkpt>
      <trkpt lat="47.23429" lon="6.18559">
        <ele>452.009</ele>
        <time>2022-10-10T13:56:49Z</time>
      </trkpt>
      <trkpt lat="47.23421" lon="6.18571">
        <ele>451.433</ele>
        <time>2022-10-10T13:56:51Z</time>
      </trkpt>
      <trkpt lat="47.23416" lon="6.18577">
        <ele>450.623</ele>
        <time>2022-10-10T13:56:52Z</time>
      </trkpt>
      <trkpt lat="47.23412" lon="6.18583">
        <ele>450.677</ele>
        <time>2022-10-10T13:56:53Z</time>
      </trkpt>
      <trkpt lat="47.23379" lon="6.1863">
        <ele>448.421</ele>
        <time>2022-10-10T13:57:00Z</time>
      </trkpt>
      <trkpt lat="47.23374" lon="6.18638">
        <ele>447.834</ele>
        <time>2022-10-10T13:57:01Z</time>
      </trkpt>
      <trkpt lat="47.23368" lon="6.18646">
        <ele>447.62</ele>
        <time>2022-10-10T13:57:02Z</time>
      </trkpt>
      <trkpt lat="47.23362" lon="6.18654">
        <ele>446.836</ele>
        <time>2022-10-10T13:57:03Z</time>
      </trkpt>
      <trkpt lat="47.23359" lon="6.1866">
        <ele>446.646</ele>
        <time>2022-10-10T13:57:04Z</time>
      </trkpt>
      <trkpt lat="47.23352" lon="6.18667">
        <ele>446.28</ele>
        <time>2022-10-10T13:57:05Z</time>
      </trkpt>
      <trkpt lat="47.23348" lon="6.1867">
        <ele>446.235</ele>
        <time>2022-10-10T13:57:06Z</time>
      </trkpt>
      <trkpt lat="47.23344" lon="6.18673">
        <ele>446.286</ele>
        <time>2022-10-10T13:57:07Z</time>
      </trkpt>
      <trkpt lat="47.2334" lon="6.18675">
        <ele>446.214</ele>
        <time>2022-10-10T13:57:08Z</time>
      </trkpt>
      <trkpt lat="47.23336" lon="6.18676">
        <ele>446.009</ele>
        <time>2022-10-10T13:57:09Z</time>
      </trkpt>
      <trkpt lat="47.23333" lon="6.18678">
        <ele>446.054</ele>
        <time>2022-10-10T13:57:10Z</time>
      </trkpt>
      <trkpt lat="47.23331" lon="6.18681">
        <ele>446.034</ele>
        <time>2022-10-10T13:57:11Z</time>
      </trkpt>
      <trkpt lat="47.23328" lon="6.18684">
        <ele>445.878</ele>
        <time>2022-10-10T13:57:12Z</time>
      </trkpt>
      <trkpt lat="47.23326" lon="6.18689">
        <ele>445.682</ele>
        <time>2022-10-10T13:57:13Z</time>
      </trkpt>
      <trkpt lat="47.23323" lon="6.18693">
        <ele>445.655</ele>
        <time>2022-10-10T13:57:14Z</time>
      </trkpt>
      <trkpt lat="47.23319" lon="6.18697">
        <ele>445.471</ele>
        <time>2022-10-10T13:57:15Z</time>
      </trkpt>
      <trkpt lat="47.23316" lon="6.187">
        <ele>445.297</ele>
        <time>2022-10-10T13:57:16Z</time>
      </trkpt>
      <trkpt lat="47.23314" lon="6.18701">
        <ele>445.297</ele>
        <time>2022-10-10T13:57:17Z</time>
      </trkpt>
      <trkpt lat="47.23312" lon="6.18703">
        <ele>445.271</ele>
        <time>2022-10-10T13:57:18Z</time>
      </trkpt>
      <trkpt lat="47.23311" lon="6.18703">
        <ele>445.443</ele>
        <time>2022-10-10T13:57:19Z</time>
      </trkpt>
      <trkpt lat="47.2331" lon="6.18704">
        <ele>445.464</ele>
        <time>2022-10-10T13:57:20Z</time>
      </trkpt>
      <trkpt lat="47.2331" lon="6.18704">
        <ele>445.41</ele>
        <time>2022-10-10T13:57:21Z</time>
      </trkpt>
      <trkpt lat="47.23311" lon="6.18704">
        <ele>445.409</ele>
        <time>2022-10-10T13:57:22Z</time>
      </trkpt>
      <trkpt lat="47.23311" lon="6.18704">
        <ele>445.435</ele>
        <time>2022-10-10T13:57:23Z</time>
      </trkpt>
      <trkpt lat="47.23311" lon="6.18704">
        <ele>445.275</ele>
        <time>2022-10-10T13:57:29Z</time>
      </trkpt>
      <trkpt lat="47.23311" lon="6.18704">
        <ele>445.289</ele>
        <time>2022-10-10T13:57:32Z</time>
      </trkpt>
      <trkpt lat="47.23312" lon="6.18702">
        <ele>445.253</ele>
        <time>2022-10-10T13:57:37Z</time>
      </trkpt>
      <trkpt lat="47.23312" lon="6.18702">
        <ele>445.226</ele>
        <time>2022-10-10T13:57:38Z</time>
      </trkpt>
      <trkpt lat="47.23312" lon="6.18702">
        <ele>445.212</ele>
        <time>2022-10-10T13:57:39Z</time>
      </trkpt>
      <trkpt lat="47.23312" lon="6.18702">
        <ele>445.268</ele>
        <time>2022-10-10T13:57:40Z</time>
      </trkpt>
      <trkpt lat="47.23312" lon="6.18702">
        <ele>445.228</ele>
        <time>2022-10-10T13:57:44Z</time>
      </trkpt>
      <trkpt lat="47.23311" lon="6.187">
        <ele>445.222</ele>
        <time>2022-10-10T13:57:45Z</time>
      </trkpt>
      <trkpt lat="47.23303" lon="6.18693">
        <ele>445.046</ele>
        <time>2022-10-10T13:57:48Z</time>
      </trkpt>
      <trkpt lat="47.23298" lon="6.18688">
        <ele>445.088</ele>
        <time>2022-10-10T13:57:50Z</time>
      </trkpt>
      <trkpt lat="47.23297" lon="6.18686">
        <ele>445.016</ele>
        <time>2022-10-10T13:57:51Z</time>
      </trkpt>
      <trkpt lat="47.23296" lon="6.18684">
        <ele>445.009</ele>
        <time>2022-10-10T13:57:52Z</time>
      </trkpt>
      <trkpt lat="47.23294" lon="6.18681">
        <ele>445.075</ele>
        <time>2022-10-10T13:57:53Z</time>
      </trkpt>
      <trkpt lat="47.23293" lon="6.18678">
        <ele>445.055</ele>
        <time>2022-10-10T13:57:54Z</time>
      </trkpt>
      <trkpt lat="47.23291" lon="6.18674">
        <ele>445.059</ele>
        <time>2022-10-10T13:57:55Z</time>
      </trkpt>
      <trkpt lat="47.23283" lon="6.18655">
        <ele>445.463</ele>
        <time>2022-10-10T13:58:00Z</time>
      </trkpt>
      <trkpt lat="47.23281" lon="6.18652">
        <ele>445.436</ele>
        <time>2022-10-10T13:58:01Z</time>
      </trkpt>
      <trkpt lat="47.23279" lon="6.18649">
        <ele>445.882</ele>
        <time>2022-10-10T13:58:02Z</time>
      </trkpt>
      <trkpt lat="47.23278" lon="6.18646">
        <ele>445.888</ele>
        <time>2022-10-10T13:58:03Z</time>
      </trkpt>
      <trkpt lat="47.23277" lon="6.18643">
        <ele>445.868</ele>
        <time>2022-10-10T13:58:04Z</time>
      </trkpt>
      <trkpt lat="47.23276" lon="6.18642">
        <ele>445.862</ele>
        <time>2022-10-10T13:58:05Z</time>
      </trkpt>
      <trkpt lat="47.23276" lon="6.18642">
        <ele>445.872</ele>
        <time>2022-10-10T13:58:06Z</time>
      </trkpt>
      <trkpt lat="47.23276" lon="6.18642">
        <ele>445.813</ele>
        <time>2022-10-10T13:58:07Z</time>
      </trkpt>
      <trkpt lat="47.23278" lon="6.18637">
        <ele>445.814</ele>
        <time>2022-10-10T13:58:13Z</time>
      </trkpt>
      <trkpt lat="47.23279" lon="6.18635">
        <ele>446.209</ele>
        <time>2022-10-10T13:58:18Z</time>
      </trkpt>
      <trkpt lat="47.23279" lon="6.18633">
        <ele>446.468</ele>
        <time>2022-10-10T13:58:19Z</time>
      </trkpt>
      <trkpt lat="47.23279" lon="6.18632">
        <ele>446.448</ele>
        <time>2022-10-10T13:58:20Z</time>
      </trkpt>
      <trkpt lat="47.23279" lon="6.18631">
        <ele>446.472</ele>
        <time>2022-10-10T13:58:21Z</time>
      </trkpt>
      <trkpt lat="47.23279" lon="6.18629">
        <ele>446.496</ele>
        <time>2022-10-10T13:58:22Z</time>
      </trkpt>
      <trkpt lat="47.23279" lon="6.18628">
        <ele>446.429</ele>
        <time>2022-10-10T13:58:26Z</time>
      </trkpt>
      <trkpt lat="47.23279" lon="6.18627">
        <ele>446.455</ele>
        <time>2022-10-10T13:58:27Z</time>
      </trkpt>
      <trkpt lat="47.2328" lon="6.18626">
        <ele>446.411</ele>
        <time>2022-10-10T13:58:28Z</time>
      </trkpt>
      <trkpt lat="47.23279" lon="6.18624">
        <ele>446.421</ele>
        <time>2022-10-10T13:58:33Z</time>
      </trkpt>
      <trkpt lat="47.23279" lon="6.18623">
        <ele>446.625</ele>
        <time>2022-10-10T13:58:38Z</time>
      </trkpt>
      <trkpt lat="47.23279" lon="6.18623">
        <ele>446.633</ele>
        <time>2022-10-10T13:58:39Z</time>
      </trkpt>
      <trkpt lat="47.23279" lon="6.18623">
        <ele>447.023</ele>
        <time>2022-10-10T13:58:47Z</time>
      </trkpt>
      <trkpt lat="47.23277" lon="6.18622">
        <ele>446.815</ele>
        <time>2022-10-10T13:58:49Z</time>
      </trkpt>
      <trkpt lat="47.23272" lon="6.18619">
        <ele>446.209</ele>
        <time>2022-10-10T13:58:51Z</time>
      </trkpt>
      <trkpt lat="47.23265" lon="6.18612">
        <ele>445.064</ele>
        <time>2022-10-10T13:58:53Z</time>
      </trkpt>
      <trkpt lat="47.23258" lon="6.18604">
        <ele>443.884</ele>
        <time>2022-10-10T13:58:55Z</time>
      </trkpt>
      <trkpt lat="47.23253" lon="6.18599">
        <ele>443.648</ele>
        <time>2022-10-10T13:58:56Z</time>
      </trkpt>
      <trkpt lat="47.2325" lon="6.18598">
        <ele>442.232</ele>
        <time>2022-10-10T13:58:57Z</time>
      </trkpt>
      <trkpt lat="47.23245" lon="6.18599">
        <ele>442.275</ele>
        <time>2022-10-10T13:58:58Z</time>
      </trkpt>
      <trkpt lat="47.23241" lon="6.186">
        <ele>442.281</ele>
        <time>2022-10-10T13:58:59Z</time>
      </trkpt>
      <trkpt lat="47.23236" lon="6.18601">
        <ele>442.277</ele>
        <time>2022-10-10T13:59:00Z</time>
      </trkpt>
      <trkpt lat="47.23231" lon="6.186">
        <ele>442.227</ele>
        <time>2022-10-10T13:59:01Z</time>
      </trkpt>
      <trkpt lat="47.23228" lon="6.186">
        <ele>443.451</ele>
        <time>2022-10-10T13:59:02Z</time>
      </trkpt>
      <trkpt lat="47.23226" lon="6.186">
        <ele>443.812</ele>
        <time>2022-10-10T13:59:03Z</time>
      </trkpt>
      <trkpt lat="47.23222" lon="6.18602">
        <ele>443.832</ele>
        <time>2022-10-10T13:59:05Z</time>
      </trkpt>
      <trkpt lat="47.2322" lon="6.18605">
        <ele>443.805</ele>
        <time>2022-10-10T13:59:06Z</time>
      </trkpt>
      <trkpt lat="47.23216" lon="6.18608">
        <ele>443.809</ele>
        <time>2022-10-10T13:59:07Z</time>
      </trkpt>
      <trkpt lat="47.23213" lon="6.18609">
        <ele>443.442</ele>
        <time>2022-10-10T13:59:08Z</time>
      </trkpt>
      <trkpt lat="47.2321" lon="6.1861">
        <ele>443.042</ele>
        <time>2022-10-10T13:59:09Z</time>
      </trkpt>
      <trkpt lat="47.23206" lon="6.1861">
        <ele>442.856</ele>
        <time>2022-10-10T13:59:10Z</time>
      </trkpt>
      <trkpt lat="47.23201" lon="6.18603">
        <ele>442.49</ele>
        <time>2022-10-10T13:59:12Z</time>
      </trkpt>
      <trkpt lat="47.23199" lon="6.18599">
        <ele>442.263</ele>
        <time>2022-10-10T13:59:13Z</time>
      </trkpt>
      <trkpt lat="47.23197" lon="6.18593">
        <ele>442.279</ele>
        <time>2022-10-10T13:59:14Z</time>
      </trkpt>
      <trkpt lat="47.23195" lon="6.1859">
        <ele>442.255</ele>
        <time>2022-10-10T13:59:15Z</time>
      </trkpt>
      <trkpt lat="47.23193" lon="6.18585">
        <ele>442.225</ele>
        <time>2022-10-10T13:59:16Z</time>
      </trkpt>
      <trkpt lat="47.23192" lon="6.1858">
        <ele>442.449</ele>
        <time>2022-10-10T13:59:17Z</time>
      </trkpt>
      <trkpt lat="47.23187" lon="6.18574">
        <ele>442.426</ele>
        <time>2022-10-10T13:59:19Z</time>
      </trkpt>
      <trkpt lat="47.23175" lon="6.18569">
        <ele>442.447</ele>
        <time>2022-10-10T13:59:22Z</time>
      </trkpt>
      <trkpt lat="47.23169" lon="6.18566">
        <ele>441.411</ele>
        <time>2022-10-10T13:59:23Z</time>
      </trkpt>
      <trkpt lat="47.23165" lon="6.18563">
        <ele>441.409</ele>
        <time>2022-10-10T13:59:24Z</time>
      </trkpt>
      <trkpt lat="47.23162" lon="6.18559">
        <ele>441.483</ele>
        <time>2022-10-10T13:59:25Z</time>
      </trkpt>
      <trkpt lat="47.23158" lon="6.18558">
        <ele>441.053</ele>
        <time>2022-10-10T13:59:26Z</time>
      </trkpt>
      <trkpt lat="47.23156" lon="6.18559">
        <ele>440.867</ele>
        <time>2022-10-10T13:59:27Z</time>
      </trkpt>
      <trkpt lat="47.23153" lon="6.18564">
        <ele>440.841</ele>
        <time>2022-10-10T13:59:28Z</time>
      </trkpt>
      <trkpt lat="47.23146" lon="6.18575">
        <ele>439.624</ele>
        <time>2022-10-10T13:59:30Z</time>
      </trkpt>
      <trkpt lat="47.23141" lon="6.18582">
        <ele>439.67</ele>
        <time>2022-10-10T13:59:31Z</time>
      </trkpt>
      <trkpt lat="47.23136" lon="6.18588">
        <ele>438.456</ele>
        <time>2022-10-10T13:59:32Z</time>
      </trkpt>
      <trkpt lat="47.2313" lon="6.18595">
        <ele>436.686</ele>
        <time>2022-10-10T13:59:33Z</time>
      </trkpt>
      <trkpt lat="47.23122" lon="6.18605">
        <ele>435.07</ele>
        <time>2022-10-10T13:59:34Z</time>
      </trkpt>
      <trkpt lat="47.23115" lon="6.18613">
        <ele>433.432</ele>
        <time>2022-10-10T13:59:35Z</time>
      </trkpt>
      <trkpt lat="47.23109" lon="6.18619">
        <ele>431.492</ele>
        <time>2022-10-10T13:59:36Z</time>
      </trkpt>
      <trkpt lat="47.23095" lon="6.18635">
        <ele>430.011</ele>
        <time>2022-10-10T13:59:38Z</time>
      </trkpt>
      <trkpt lat="47.23081" lon="6.18652">
        <ele>429.609</ele>
        <time>2022-10-10T13:59:40Z</time>
      </trkpt>
      <trkpt lat="47.23075" lon="6.18659">
        <ele>429.074</ele>
        <time>2022-10-10T13:59:41Z</time>
      </trkpt>
      <trkpt lat="47.23068" lon="6.18667">
        <ele>428.664</ele>
        <time>2022-10-10T13:59:42Z</time>
      </trkpt>
      <trkpt lat="47.23062" lon="6.18674">
        <ele>427.468</ele>
        <time>2022-10-10T13:59:43Z</time>
      </trkpt>
      <trkpt lat="47.23055" lon="6.18681">
        <ele>426.652</ele>
        <time>2022-10-10T13:59:44Z</time>
      </trkpt>
      <trkpt lat="47.23049" lon="6.18689">
        <ele>426.615</ele>
        <time>2022-10-10T13:59:45Z</time>
      </trkpt>
      <trkpt lat="47.23043" lon="6.18695">
        <ele>426.681</ele>
        <time>2022-10-10T13:59:46Z</time>
      </trkpt>
      <trkpt lat="47.23038" lon="6.18701">
        <ele>426.697</ele>
        <time>2022-10-10T13:59:47Z</time>
      </trkpt>
      <trkpt lat="47.23033" lon="6.18708">
        <ele>426.637</ele>
        <time>2022-10-10T13:59:48Z</time>
      </trkpt>
      <trkpt lat="47.23028" lon="6.18714">
        <ele>426.421</ele>
        <time>2022-10-10T13:59:49Z</time>
      </trkpt>
      <trkpt lat="47.23022" lon="6.1872">
        <ele>426.478</ele>
        <time>2022-10-10T13:59:50Z</time>
      </trkpt>
      <trkpt lat="47.23016" lon="6.18726">
        <ele>426.033</ele>
        <time>2022-10-10T13:59:51Z</time>
      </trkpt>
      <trkpt lat="47.23009" lon="6.18733">
        <ele>425.626</ele>
        <time>2022-10-10T13:59:52Z</time>
      </trkpt>
      <trkpt lat="47.22999" lon="6.18744">
        <ele>425.409</ele>
        <time>2022-10-10T13:59:54Z</time>
      </trkpt>
      <trkpt lat="47.22993" lon="6.18752">
        <ele>425.428</ele>
        <time>2022-10-10T13:59:55Z</time>
      </trkpt>
      <trkpt lat="47.22989" lon="6.18758">
        <ele>425.428</ele>
        <time>2022-10-10T13:59:56Z</time>
      </trkpt>
      <trkpt lat="47.22985" lon="6.18762">
        <ele>425.642</ele>
        <time>2022-10-10T13:59:57Z</time>
      </trkpt>
      <trkpt lat="47.22981" lon="6.18767">
        <ele>426.286</ele>
        <time>2022-10-10T13:59:58Z</time>
      </trkpt>
      <trkpt lat="47.22976" lon="6.18771">
        <ele>426.279</ele>
        <time>2022-10-10T13:59:59Z</time>
      </trkpt>
      <trkpt lat="47.22973" lon="6.18774">
        <ele>426.445</ele>
        <time>2022-10-10T14:00:00Z</time>
      </trkpt>
      <trkpt lat="47.2297" lon="6.18778">
        <ele>427.071</ele>
        <time>2022-10-10T14:00:01Z</time>
      </trkpt>
      <trkpt lat="47.22966" lon="6.18782">
        <ele>427.041</ele>
        <time>2022-10-10T14:00:02Z</time>
      </trkpt>
      <trkpt lat="47.22955" lon="6.18796">
        <ele>427.085</ele>
        <time>2022-10-10T14:00:05Z</time>
      </trkpt>
      <trkpt lat="47.22951" lon="6.188">
        <ele>426.438</ele>
        <time>2022-10-10T14:00:06Z</time>
      </trkpt>
      <trkpt lat="47.22947" lon="6.18805">
        <ele>426.47</ele>
        <time>2022-10-10T14:00:07Z</time>
      </trkpt>
      <trkpt lat="47.22944" lon="6.18809">
        <ele>426.417</ele>
        <time>2022-10-10T14:00:08Z</time>
      </trkpt>
      <trkpt lat="47.22941" lon="6.18812">
        <ele>427.009</ele>
        <time>2022-10-10T14:00:09Z</time>
      </trkpt>
      <trkpt lat="47.22937" lon="6.18816">
        <ele>427.014</ele>
        <time>2022-10-10T14:00:10Z</time>
      </trkpt>
      <trkpt lat="47.22934" lon="6.1882">
        <ele>427.434</ele>
        <time>2022-10-10T14:00:11Z</time>
      </trkpt>
      <trkpt lat="47.22928" lon="6.18827">
        <ele>428.448</ele>
        <time>2022-10-10T14:00:13Z</time>
      </trkpt>
      <trkpt lat="47.22922" lon="6.18834">
        <ele>428.632</ele>
        <time>2022-10-10T14:00:15Z</time>
      </trkpt>
      <trkpt lat="47.22913" lon="6.18845">
        <ele>428.415</ele>
        <time>2022-10-10T14:00:18Z</time>
      </trkpt>
      <trkpt lat="47.22905" lon="6.18856">
        <ele>428.441</ele>
        <time>2022-10-10T14:00:20Z</time>
      </trkpt>
      <trkpt lat="47.22903" lon="6.18859">
        <ele>428.467</ele>
        <time>2022-10-10T14:00:21Z</time>
      </trkpt>
      <trkpt lat="47.22898" lon="6.18864">
        <ele>428.477</ele>
        <time>2022-10-10T14:00:22Z</time>
      </trkpt>
      <trkpt lat="47.22894" lon="6.18868">
        <ele>429.071</ele>
        <time>2022-10-10T14:00:23Z</time>
      </trkpt>
      <trkpt lat="47.22892" lon="6.18871">
        <ele>429.029</ele>
        <time>2022-10-10T14:00:24Z</time>
      </trkpt>
      <trkpt lat="47.22887" lon="6.18877">
        <ele>429.4</ele>
        <time>2022-10-10T14:00:26Z</time>
      </trkpt>
      <trkpt lat="47.22885" lon="6.18882">
        <ele>429.62</ele>
        <time>2022-10-10T14:00:27Z</time>
      </trkpt>
      <trkpt lat="47.22885" lon="6.18888">
        <ele>429.609</ele>
        <time>2022-10-10T14:00:28Z</time>
      </trkpt>
      <trkpt lat="47.22884" lon="6.18895">
        <ele>429.843</ele>
        <time>2022-10-10T14:00:29Z</time>
      </trkpt>
      <trkpt lat="47.22885" lon="6.18902">
        <ele>429.683</ele>
        <time>2022-10-10T14:00:30Z</time>
      </trkpt>
      <trkpt lat="47.22887" lon="6.18908">
        <ele>429.637</ele>
        <time>2022-10-10T14:00:31Z</time>
      </trkpt>
      <trkpt lat="47.22889" lon="6.18915">
        <ele>429.651</ele>
        <time>2022-10-10T14:00:32Z</time>
      </trkpt>
      <trkpt lat="47.22893" lon="6.18932">
        <ele>429.424</ele>
        <time>2022-10-10T14:00:34Z</time>
      </trkpt>
      <trkpt lat="47.22899" lon="6.18949">
        <ele>429.42</ele>
        <time>2022-10-10T14:00:36Z</time>
      </trkpt>
      <trkpt lat="47.22901" lon="6.18955">
        <ele>429.466</ele>
        <time>2022-10-10T14:00:37Z</time>
      </trkpt>
      <trkpt lat="47.22903" lon="6.18963">
        <ele>430.226</ele>
        <time>2022-10-10T14:00:38Z</time>
      </trkpt>
      <trkpt lat="47.22905" lon="6.18976">
        <ele>430.25</ele>
        <time>2022-10-10T14:00:40Z</time>
      </trkpt>
      <trkpt lat="47.22908" lon="6.18986">
        <ele>430.259</ele>
        <time>2022-10-10T14:00:41Z</time>
      </trkpt>
      <trkpt lat="47.22912" lon="6.18998">
        <ele>430.003</ele>
        <time>2022-10-10T14:00:43Z</time>
      </trkpt>
      <trkpt lat="47.22916" lon="6.19013">
        <ele>430.023</ele>
        <time>2022-10-10T14:00:45Z</time>
      </trkpt>
      <trkpt lat="47.22918" lon="6.19022">
        <ele>430.209</ele>
        <time>2022-10-10T14:00:46Z</time>
      </trkpt>
      <trkpt lat="47.2292" lon="6.19029">
        <ele>430.486</ele>
        <time>2022-10-10T14:00:47Z</time>
      </trkpt>
      <trkpt lat="47.22923" lon="6.19034">
        <ele>430.826</ele>
        <time>2022-10-10T14:00:48Z</time>
      </trkpt>
      <trkpt lat="47.22929" lon="6.19048">
        <ele>431.06</ele>
        <time>2022-10-10T14:00:50Z</time>
      </trkpt>
      <trkpt lat="47.22932" lon="6.19054">
        <ele>431.084</ele>
        <time>2022-10-10T14:00:51Z</time>
      </trkpt>
      <trkpt lat="47.22938" lon="6.19067">
        <ele>431.087</ele>
        <time>2022-10-10T14:00:53Z</time>
      </trkpt>
      <trkpt lat="47.22941" lon="6.19073">
        <ele>431.283</ele>
        <time>2022-10-10T14:00:54Z</time>
      </trkpt>
      <trkpt lat="47.22944" lon="6.1908">
        <ele>431.269</ele>
        <time>2022-10-10T14:00:55Z</time>
      </trkpt>
      <trkpt lat="47.22947" lon="6.19086">
        <ele>431.029</ele>
        <time>2022-10-10T14:00:56Z</time>
      </trkpt>
      <trkpt lat="47.22949" lon="6.19091">
        <ele>431.093</ele>
        <time>2022-10-10T14:00:57Z</time>
      </trkpt>
      <trkpt lat="47.22958" lon="6.1911">
        <ele>429.668</ele>
        <time>2022-10-10T14:01:00Z</time>
      </trkpt>
      <trkpt lat="47.2296" lon="6.19116">
        <ele>429.442</ele>
        <time>2022-10-10T14:01:01Z</time>
      </trkpt>
      <trkpt lat="47.22968" lon="6.19129">
        <ele>429.426</ele>
        <time>2022-10-10T14:01:03Z</time>
      </trkpt>
      <trkpt lat="47.22971" lon="6.19136">
        <ele>429.009</ele>
        <time>2022-10-10T14:01:04Z</time>
      </trkpt>
      <trkpt lat="47.22973" lon="6.19142">
        <ele>429.057</ele>
        <time>2022-10-10T14:01:05Z</time>
      </trkpt>
      <trkpt lat="47.22975" lon="6.19148">
        <ele>429.067</ele>
        <time>2022-10-10T14:01:06Z</time>
      </trkpt>
      <trkpt lat="47.22979" lon="6.1916">
        <ele>429.621</ele>
        <time>2022-10-10T14:01:08Z</time>
      </trkpt>
      <trkpt lat="47.2299" lon="6.19175">
        <ele>429.815</ele>
        <time>2022-10-10T14:01:11Z</time>
      </trkpt>
      <trkpt lat="47.22993" lon="6.1918">
        <ele>429.818</ele>
        <time>2022-10-10T14:01:12Z</time>
      </trkpt>
      <trkpt lat="47.22999" lon="6.19193">
        <ele>429.894</ele>
        <time>2022-10-10T14:01:14Z</time>
      </trkpt>
      <trkpt lat="47.23002" lon="6.19197">
        <ele>429.85</ele>
        <time>2022-10-10T14:01:15Z</time>
      </trkpt>
      <trkpt lat="47.23004" lon="6.19204">
        <ele>429.85</ele>
        <time>2022-10-10T14:01:16Z</time>
      </trkpt>
      <trkpt lat="47.23006" lon="6.19211">
        <ele>429.674</ele>
        <time>2022-10-10T14:01:17Z</time>
      </trkpt>
      <trkpt lat="47.2301" lon="6.19216">
        <ele>429.658</ele>
        <time>2022-10-10T14:01:18Z</time>
      </trkpt>
      <trkpt lat="47.23014" lon="6.19222">
        <ele>429.652</ele>
        <time>2022-10-10T14:01:19Z</time>
      </trkpt>
      <trkpt lat="47.23017" lon="6.19226">
        <ele>429.817</ele>
        <time>2022-10-10T14:01:20Z</time>
      </trkpt>
      <trkpt lat="47.23021" lon="6.19231">
        <ele>430.009</ele>
        <time>2022-10-10T14:01:21Z</time>
      </trkpt>
      <trkpt lat="47.23027" lon="6.19241">
        <ele>430.056</ele>
        <time>2022-10-10T14:01:23Z</time>
      </trkpt>
      <trkpt lat="47.23032" lon="6.19251">
        <ele>429.876</ele>
        <time>2022-10-10T14:01:25Z</time>
      </trkpt>
      <trkpt lat="47.23054" lon="6.19282">
        <ele>429.22</ele>
        <time>2022-10-10T14:01:31Z</time>
      </trkpt>
      <trkpt lat="47.23058" lon="6.19289">
        <ele>429.494</ele>
        <time>2022-10-10T14:01:32Z</time>
      </trkpt>
      <trkpt lat="47.23062" lon="6.19295">
        <ele>429.477</ele>
        <time>2022-10-10T14:01:33Z</time>
      </trkpt>
      <trkpt lat="47.23065" lon="6.193">
        <ele>429.483</ele>
        <time>2022-10-10T14:01:34Z</time>
      </trkpt>
      <trkpt lat="47.23069" lon="6.19306">
        <ele>429.679</ele>
        <time>2022-10-10T14:01:35Z</time>
      </trkpt>
      <trkpt lat="47.23073" lon="6.19311">
        <ele>429.669</ele>
        <time>2022-10-10T14:01:36Z</time>
      </trkpt>
      <trkpt lat="47.2308" lon="6.19322">
        <ele>429.473</ele>
        <time>2022-10-10T14:01:38Z</time>
      </trkpt>
      <trkpt lat="47.23083" lon="6.19328">
        <ele>429.433</ele>
        <time>2022-10-10T14:01:39Z</time>
      </trkpt>
      <trkpt lat="47.23098" lon="6.1935">
        <ele>428.423</ele>
        <time>2022-10-10T14:01:43Z</time>
      </trkpt>
      <trkpt lat="47.23109" lon="6.19368">
        <ele>427.615</ele>
        <time>2022-10-10T14:01:46Z</time>
      </trkpt>
      <trkpt lat="47.23112" lon="6.19373">
        <ele>427.209</ele>
        <time>2022-10-10T14:01:47Z</time>
      </trkpt>
      <trkpt lat="47.23115" lon="6.19378">
        <ele>426.634</ele>
        <time>2022-10-10T14:01:48Z</time>
      </trkpt>
      <trkpt lat="47.23118" lon="6.19382">
        <ele>426.654</ele>
        <time>2022-10-10T14:01:49Z</time>
      </trkpt>
      <trkpt lat="47.23121" lon="6.19387">
        <ele>426.438</ele>
        <time>2022-10-10T14:01:50Z</time>
      </trkpt>
      <trkpt lat="47.23124" lon="6.19392">
        <ele>425.892</ele>
        <time>2022-10-10T14:01:51Z</time>
      </trkpt>
      <trkpt lat="47.23128" lon="6.19398">
        <ele>424.845</ele>
        <time>2022-10-10T14:01:52Z</time>
      </trkpt>
      <trkpt lat="47.23136" lon="6.19409">
        <ele>424.811</ele>
        <time>2022-10-10T14:01:54Z</time>
      </trkpt>
      <trkpt lat="47.2314" lon="6.19415">
        <ele>424.877</ele>
        <time>2022-10-10T14:01:55Z</time>
      </trkpt>
      <trkpt lat="47.23147" lon="6.19426">
        <ele>425.427</ele>
        <time>2022-10-10T14:01:57Z</time>
      </trkpt>
      <trkpt lat="47.23151" lon="6.19431">
        <ele>426.211</ele>
        <time>2022-10-10T14:01:58Z</time>
      </trkpt>
      <trkpt lat="47.23159" lon="6.19442">
        <ele>427.028</ele>
        <time>2022-10-10T14:02:00Z</time>
      </trkpt>
      <trkpt lat="47.23163" lon="6.19447">
        <ele>427.089</ele>
        <time>2022-10-10T14:02:01Z</time>
      </trkpt>
      <trkpt lat="47.23168" lon="6.19452">
        <ele>427.217</ele>
        <time>2022-10-10T14:02:02Z</time>
      </trkpt>
      <trkpt lat="47.23176" lon="6.19461">
        <ele>427.209</ele>
        <time>2022-10-10T14:02:04Z</time>
      </trkpt>
      <trkpt lat="47.2318" lon="6.19465">
        <ele>427.833</ele>
        <time>2022-10-10T14:02:05Z</time>
      </trkpt>
      <trkpt lat="47.23184" lon="6.1947">
        <ele>428.043</ele>
        <time>2022-10-10T14:02:06Z</time>
      </trkpt>
      <trkpt lat="47.2319" lon="6.19481">
        <ele>428.067</ele>
        <time>2022-10-10T14:02:08Z</time>
      </trkpt>
      <trkpt lat="47.23195" lon="6.19487">
        <ele>428.061</ele>
        <time>2022-10-10T14:02:09Z</time>
      </trkpt>
      <trkpt lat="47.23198" lon="6.19492">
        <ele>428.034</ele>
        <time>2022-10-10T14:02:10Z</time>
      </trkpt>
      <trkpt lat="47.23203" lon="6.19498">
        <ele>428.25</ele>
        <time>2022-10-10T14:02:11Z</time>
      </trkpt>
      <trkpt lat="47.23206" lon="6.19503">
        <ele>428.266</ele>
        <time>2022-10-10T14:02:12Z</time>
      </trkpt>
      <trkpt lat="47.2321" lon="6.19508">
        <ele>428.256</ele>
        <time>2022-10-10T14:02:13Z</time>
      </trkpt>
      <trkpt lat="47.23212" lon="6.19513">
        <ele>427.83</ele>
        <time>2022-10-10T14:02:14Z</time>
      </trkpt>
      <trkpt lat="47.23218" lon="6.19521">
        <ele>427.475</ele>
        <time>2022-10-10T14:02:16Z</time>
      </trkpt>
      <trkpt lat="47.23226" lon="6.19529">
        <ele>427.628</ele>
        <time>2022-10-10T14:02:18Z</time>
      </trkpt>
      <trkpt lat="47.23228" lon="6.19532">
        <ele>427.62</ele>
        <time>2022-10-10T14:02:19Z</time>
      </trkpt>
      <trkpt lat="47.23232" lon="6.19536">
        <ele>427.609</ele>
        <time>2022-10-10T14:02:20Z</time>
      </trkpt>
      <trkpt lat="47.23236" lon="6.1954">
        <ele>427.888</ele>
        <time>2022-10-10T14:02:21Z</time>
      </trkpt>
      <trkpt lat="47.23238" lon="6.19543">
        <ele>428.228</ele>
        <time>2022-10-10T14:02:22Z</time>
      </trkpt>
      <trkpt lat="47.2324" lon="6.19548">
        <ele>427.822</ele>
        <time>2022-10-10T14:02:23Z</time>
      </trkpt>
      <trkpt lat="47.23241" lon="6.19552">
        <ele>427.816</ele>
        <time>2022-10-10T14:02:24Z</time>
      </trkpt>
      <trkpt lat="47.23246" lon="6.1956">
        <ele>427.859</ele>
        <time>2022-10-10T14:02:26Z</time>
      </trkpt>
      <trkpt lat="47.23249" lon="6.19564">
        <ele>427.845</ele>
        <time>2022-10-10T14:02:27Z</time>
      </trkpt>
      <trkpt lat="47.23251" lon="6.19567">
        <ele>428.041</ele>
        <time>2022-10-10T14:02:28Z</time>
      </trkpt>
      <trkpt lat="47.23254" lon="6.19571">
        <ele>428.071</ele>
        <time>2022-10-10T14:02:29Z</time>
      </trkpt>
      <trkpt lat="47.23256" lon="6.19574">
        <ele>428.475</ele>
        <time>2022-10-10T14:02:30Z</time>
      </trkpt>
      <trkpt lat="47.23263" lon="6.19585">
        <ele>428.828</ele>
        <time>2022-10-10T14:02:33Z</time>
      </trkpt>
      <trkpt lat="47.23274" lon="6.196">
        <ele>429.089</ele>
        <time>2022-10-10T14:02:37Z</time>
      </trkpt>
      <trkpt lat="47.23277" lon="6.19604">
        <ele>429.017</ele>
        <time>2022-10-10T14:02:38Z</time>
      </trkpt>
      <trkpt lat="47.23283" lon="6.19612">
        <ele>429.009</ele>
        <time>2022-10-10T14:02:40Z</time>
      </trkpt>
      <trkpt lat="47.23286" lon="6.19616">
        <ele>429.063</ele>
        <time>2022-10-10T14:02:41Z</time>
      </trkpt>
      <trkpt lat="47.23297" lon="6.19628">
        <ele>428.043</ele>
        <time>2022-10-10T14:02:44Z</time>
      </trkpt>
      <trkpt lat="47.23301" lon="6.19633">
        <ele>428.057</ele>
        <time>2022-10-10T14:02:45Z</time>
      </trkpt>
      <trkpt lat="47.23305" lon="6.19638">
        <ele>427.481</ele>
        <time>2022-10-10T14:02:46Z</time>
      </trkpt>
      <trkpt lat="47.23307" lon="6.19642">
        <ele>427.454</ele>
        <time>2022-10-10T14:02:47Z</time>
      </trkpt>
      <trkpt lat="47.2331" lon="6.19647">
        <ele>426.88</ele>
        <time>2022-10-10T14:02:48Z</time>
      </trkpt>
      <trkpt lat="47.23318" lon="6.19657">
        <ele>425.056</ele>
        <time>2022-10-10T14:02:50Z</time>
      </trkpt>
      <trkpt lat="47.23323" lon="6.19662">
        <ele>425.086</ele>
        <time>2022-10-10T14:02:51Z</time>
      </trkpt>
      <trkpt lat="47.23328" lon="6.19668">
        <ele>425.03</ele>
        <time>2022-10-10T14:02:52Z</time>
      </trkpt>
      <trkpt lat="47.23332" lon="6.19673">
        <ele>425.042</ele>
        <time>2022-10-10T14:02:53Z</time>
      </trkpt>
      <trkpt lat="47.23335" lon="6.19678">
        <ele>425.422</ele>
        <time>2022-10-10T14:02:54Z</time>
      </trkpt>
      <trkpt lat="47.23339" lon="6.19683">
        <ele>425.414</ele>
        <time>2022-10-10T14:02:55Z</time>
      </trkpt>
      <trkpt lat="47.23342" lon="6.19689">
        <ele>426.409</ele>
        <time>2022-10-10T14:02:56Z</time>
      </trkpt>
      <trkpt lat="47.23344" lon="6.19694">
        <ele>426.655</ele>
        <time>2022-10-10T14:02:57Z</time>
      </trkpt>
      <trkpt lat="47.2335" lon="6.19702">
        <ele>428.415</ele>
        <time>2022-10-10T14:02:59Z</time>
      </trkpt>
      <trkpt lat="47.23354" lon="6.19708">
        <ele>429.029</ele>
        <time>2022-10-10T14:03:01Z</time>
      </trkpt>
      <trkpt lat="47.23358" lon="6.19713">
        <ele>429.223</ele>
        <time>2022-10-10T14:03:02Z</time>
      </trkpt>
      <trkpt lat="47.23365" lon="6.19723">
        <ele>429.476</ele>
        <time>2022-10-10T14:03:04Z</time>
      </trkpt>
      <trkpt lat="47.23372" lon="6.19732">
        <ele>429.442</ele>
        <time>2022-10-10T14:03:06Z</time>
      </trkpt>
      <trkpt lat="47.23375" lon="6.19737">
        <ele>429.428</ele>
        <time>2022-10-10T14:03:07Z</time>
      </trkpt>
      <trkpt lat="47.23381" lon="6.19745">
        <ele>429.448</ele>
        <time>2022-10-10T14:03:09Z</time>
      </trkpt>
      <trkpt lat="47.23395" lon="6.19765">
        <ele>428.422</ele>
        <time>2022-10-10T14:03:13Z</time>
      </trkpt>
      <trkpt lat="47.23402" lon="6.19777">
        <ele>427.843</ele>
        <time>2022-10-10T14:03:15Z</time>
      </trkpt>
      <trkpt lat="47.23405" lon="6.19783">
        <ele>427.864</ele>
        <time>2022-10-10T14:03:16Z</time>
      </trkpt>
      <trkpt lat="47.23408" lon="6.19788">
        <ele>427.81</ele>
        <time>2022-10-10T14:03:17Z</time>
      </trkpt>
      <trkpt lat="47.2341" lon="6.19793">
        <ele>427.609</ele>
        <time>2022-10-10T14:03:18Z</time>
      </trkpt>
      <trkpt lat="47.23413" lon="6.19797">
        <ele>427.685</ele>
        <time>2022-10-10T14:03:19Z</time>
      </trkpt>
      <trkpt lat="47.23416" lon="6.19802">
        <ele>427.465</ele>
        <time>2022-10-10T14:03:20Z</time>
      </trkpt>
      <trkpt lat="47.2342" lon="6.19808">
        <ele>425.439</ele>
        <time>2022-10-10T14:03:21Z</time>
      </trkpt>
      <trkpt lat="47.23424" lon="6.19814">
        <ele>425.493</ele>
        <time>2022-10-10T14:03:22Z</time>
      </trkpt>
      <trkpt lat="47.23429" lon="6.1982">
        <ele>425.436</ele>
        <time>2022-10-10T14:03:23Z</time>
      </trkpt>
      <trkpt lat="47.23432" lon="6.19826">
        <ele>425.472</ele>
        <time>2022-10-10T14:03:24Z</time>
      </trkpt>
      <trkpt lat="47.23434" lon="6.19831">
        <ele>425.678</ele>
        <time>2022-10-10T14:03:25Z</time>
      </trkpt>
      <trkpt lat="47.23437" lon="6.19835">
        <ele>426.078</ele>
        <time>2022-10-10T14:03:26Z</time>
      </trkpt>
      <trkpt lat="47.2344" lon="6.1984">
        <ele>427.032</ele>
        <time>2022-10-10T14:03:27Z</time>
      </trkpt>
      <trkpt lat="47.23443" lon="6.19844">
        <ele>427.467</ele>
        <time>2022-10-10T14:03:28Z</time>
      </trkpt>
      <trkpt lat="47.23446" lon="6.19848">
        <ele>427.681</ele>
        <time>2022-10-10T14:03:29Z</time>
      </trkpt>
      <trkpt lat="47.2345" lon="6.19852">
        <ele>428.019</ele>
        <time>2022-10-10T14:03:30Z</time>
      </trkpt>
      <trkpt lat="47.23464" lon="6.1987">
        <ele>428.609</ele>
        <time>2022-10-10T14:03:34Z</time>
      </trkpt>
      <trkpt lat="47.23467" lon="6.19875">
        <ele>429.257</ele>
        <time>2022-10-10T14:03:35Z</time>
      </trkpt>
      <trkpt lat="47.23471" lon="6.1988">
        <ele>429.287</ele>
        <time>2022-10-10T14:03:36Z</time>
      </trkpt>
      <trkpt lat="47.23479" lon="6.1989">
        <ele>429.471</ele>
        <time>2022-10-10T14:03:38Z</time>
      </trkpt>
      <trkpt lat="47.23488" lon="6.19902">
        <ele>429.685</ele>
        <time>2022-10-10T14:03:40Z</time>
      </trkpt>
      <trkpt lat="47.23492" lon="6.19908">
        <ele>429.688</ele>
        <time>2022-10-10T14:03:41Z</time>
      </trkpt>
      <trkpt lat="47.23496" lon="6.19914">
        <ele>429.844</ele>
        <time>2022-10-10T14:03:42Z</time>
      </trkpt>
      <trkpt lat="47.235" lon="6.19919">
        <ele>429.84</ele>
        <time>2022-10-10T14:03:43Z</time>
      </trkpt>
      <trkpt lat="47.23507" lon="6.1993">
        <ele>430.03</ele>
        <time>2022-10-10T14:03:45Z</time>
      </trkpt>
      <trkpt lat="47.23511" lon="6.19934">
        <ele>430.244</ele>
        <time>2022-10-10T14:03:46Z</time>
      </trkpt>
      <trkpt lat="47.23515" lon="6.19939">
        <ele>430.271</ele>
        <time>2022-10-10T14:03:47Z</time>
      </trkpt>
      <trkpt lat="47.23519" lon="6.19945">
        <ele>430.241</ele>
        <time>2022-10-10T14:03:48Z</time>
      </trkpt>
      <trkpt lat="47.23524" lon="6.19951">
        <ele>430.215</ele>
        <time>2022-10-10T14:03:49Z</time>
      </trkpt>
      <trkpt lat="47.23527" lon="6.19956">
        <ele>430.009</ele>
        <time>2022-10-10T14:03:50Z</time>
      </trkpt>
      <trkpt lat="47.23531" lon="6.19961">
        <ele>429.888</ele>
        <time>2022-10-10T14:03:51Z</time>
      </trkpt>
      <trkpt lat="47.23534" lon="6.19966">
        <ele>429.428</ele>
        <time>2022-10-10T14:03:52Z</time>
      </trkpt>
      <trkpt lat="47.23538" lon="6.19972">
        <ele>429.432</ele>
        <time>2022-10-10T14:03:53Z</time>
      </trkpt>
      <trkpt lat="47.23538" lon="6.19975">
        <ele>429.446</ele>
        <time>2022-10-10T14:03:54Z</time>
      </trkpt>
      <trkpt lat="47.23541" lon="6.19979">
        <ele>429.439</ele>
        <time>2022-10-10T14:03:55Z</time>
      </trkpt>
      <trkpt lat="47.23544" lon="6.19984">
        <ele>429.475</ele>
        <time>2022-10-10T14:03:56Z</time>
      </trkpt>
      <trkpt lat="47.23547" lon="6.19988">
        <ele>429.431</ele>
        <time>2022-10-10T14:03:57Z</time>
      </trkpt>
      <trkpt lat="47.2355" lon="6.19993">
        <ele>429.481</ele>
        <time>2022-10-10T14:03:58Z</time>
      </trkpt>
      <trkpt lat="47.23554" lon="6.19998">
        <ele>429.445</ele>
        <time>2022-10-10T14:03:59Z</time>
      </trkpt>
      <trkpt lat="47.23558" lon="6.20002">
        <ele>429.454</ele>
        <time>2022-10-10T14:04:00Z</time>
      </trkpt>
      <trkpt lat="47.23561" lon="6.20007">
        <ele>429.456</ele>
        <time>2022-10-10T14:04:01Z</time>
      </trkpt>
      <trkpt lat="47.23564" lon="6.20011">
        <ele>429.811</ele>
        <time>2022-10-10T14:04:02Z</time>
      </trkpt>
      <trkpt lat="47.23566" lon="6.20015">
        <ele>429.809</ele>
        <time>2022-10-10T14:04:03Z</time>
      </trkpt>
      <trkpt lat="47.23569" lon="6.20018">
        <ele>430.286</ele>
        <time>2022-10-10T14:04:04Z</time>
      </trkpt>
      <trkpt lat="47.23572" lon="6.2002">
        <ele>430.426</ele>
        <time>2022-10-10T14:04:05Z</time>
      </trkpt>
      <trkpt lat="47.23587" lon="6.20033">
        <ele>431.45</ele>
        <time>2022-10-10T14:04:09Z</time>
      </trkpt>
      <trkpt lat="47.23619" lon="6.2006">
        <ele>431.654</ele>
        <time>2022-10-10T14:04:16Z</time>
      </trkpt>
      <trkpt lat="47.23625" lon="6.20064">
        <ele>431.697</ele>
        <time>2022-10-10T14:04:17Z</time>
      </trkpt>
      <trkpt lat="47.23643" lon="6.2008">
        <ele>431.853</ele>
        <time>2022-10-10T14:04:21Z</time>
      </trkpt>
      <trkpt lat="47.23653" lon="6.20089">
        <ele>431.899</ele>
        <time>2022-10-10T14:04:23Z</time>
      </trkpt>
      <trkpt lat="47.23656" lon="6.20094">
        <ele>431.879</ele>
        <time>2022-10-10T14:04:24Z</time>
      </trkpt>
      <trkpt lat="47.23659" lon="6.20098">
        <ele>432.063</ele>
        <time>2022-10-10T14:04:25Z</time>
      </trkpt>
      <trkpt lat="47.23663" lon="6.20103">
        <ele>432.273</ele>
        <time>2022-10-10T14:04:26Z</time>
      </trkpt>
      <trkpt lat="47.23664" lon="6.20106">
        <ele>432.485</ele>
        <time>2022-10-10T14:04:27Z</time>
      </trkpt>
      <trkpt lat="47.23664" lon="6.2011">
        <ele>432.413</ele>
        <time>2022-10-10T14:04:28Z</time>
      </trkpt>
      <trkpt lat="47.23663" lon="6.20114">
        <ele>432.409</ele>
        <time>2022-10-10T14:04:29Z</time>
      </trkpt>
      <trkpt lat="47.23659" lon="6.20128">
        <ele>433.088</ele>
        <time>2022-10-10T14:04:32Z</time>
      </trkpt>
      <trkpt lat="47.23658" lon="6.20132">
        <ele>433.258</ele>
        <time>2022-10-10T14:04:33Z</time>
      </trkpt>
      <trkpt lat="47.23658" lon="6.20137">
        <ele>433.292</ele>
        <time>2022-10-10T14:04:34Z</time>
      </trkpt>
      <trkpt lat="47.23657" lon="6.20142">
        <ele>433.826</ele>
        <time>2022-10-10T14:04:35Z</time>
      </trkpt>
      <trkpt lat="47.23657" lon="6.20147">
        <ele>434.069</ele>
        <time>2022-10-10T14:04:36Z</time>
      </trkpt>
      <trkpt lat="47.23656" lon="6.2015">
        <ele>434.075</ele>
        <time>2022-10-10T14:04:37Z</time>
      </trkpt>
      <trkpt lat="47.23656" lon="6.20153">
        <ele>434.021</ele>
        <time>2022-10-10T14:04:38Z</time>
      </trkpt>
      <trkpt lat="47.23656" lon="6.20156">
        <ele>434.271</ele>
        <time>2022-10-10T14:04:39Z</time>
      </trkpt>
      <trkpt lat="47.23656" lon="6.20158">
        <ele>434.435</ele>
        <time>2022-10-10T14:04:40Z</time>
      </trkpt>
      <trkpt lat="47.23656" lon="6.20159">
        <ele>434.481</ele>
        <time>2022-10-10T14:04:41Z</time>
      </trkpt>
      <trkpt lat="47.23656" lon="6.20159">
        <ele>434.461</ele>
        <time>2022-10-10T14:04:42Z</time>
      </trkpt>
      <trkpt lat="47.23656" lon="6.20159">
        <ele>434.417</ele>
        <time>2022-10-10T14:04:43Z</time>
      </trkpt>
      <trkpt lat="47.23656" lon="6.2016">
        <ele>434.209</ele>
        <time>2022-10-10T14:04:48Z</time>
      </trkpt>
      <trkpt lat="47.23657" lon="6.2016">
        <ele>434.069</ele>
        <time>2022-10-10T14:04:54Z</time>
      </trkpt>
      <trkpt lat="47.23657" lon="6.20161">
        <ele>434.029</ele>
        <time>2022-10-10T14:04:58Z</time>
      </trkpt>
      <trkpt lat="47.23656" lon="6.2017">
        <ele>434.253</ele>
        <time>2022-10-10T14:05:00Z</time>
      </trkpt>
      <trkpt lat="47.23654" lon="6.2018">
        <ele>434.487</ele>
        <time>2022-10-10T14:05:02Z</time>
      </trkpt>
      <trkpt lat="47.2365" lon="6.20201">
        <ele>434.45</ele>
        <time>2022-10-10T14:05:06Z</time>
      </trkpt>
      <trkpt lat="47.23644" lon="6.20229">
        <ele>434.656</ele>
        <time>2022-10-10T14:05:10Z</time>
      </trkpt>
      <trkpt lat="47.23639" lon="6.20246">
        <ele>434.822</ele>
        <time>2022-10-10T14:05:12Z</time>
      </trkpt>
      <trkpt lat="47.23638" lon="6.20252">
        <ele>435.282</ele>
        <time>2022-10-10T14:05:13Z</time>
      </trkpt>
      <trkpt lat="47.23625" lon="6.20302">
        <ele>435.836</ele>
        <time>2022-10-10T14:05:19Z</time>
      </trkpt>
      <trkpt lat="47.23624" lon="6.2031">
        <ele>435.865</ele>
        <time>2022-10-10T14:05:20Z</time>
      </trkpt>
      <trkpt lat="47.23612" lon="6.2036">
        <ele>435.868</ele>
        <time>2022-10-10T14:05:26Z</time>
      </trkpt>
      <trkpt lat="47.23606" lon="6.20377">
        <ele>435.414</ele>
        <time>2022-10-10T14:05:28Z</time>
      </trkpt>
      <trkpt lat="47.23603" lon="6.20385">
        <ele>435.409</ele>
        <time>2022-10-10T14:05:29Z</time>
      </trkpt>
      <trkpt lat="47.23591" lon="6.20407">
        <ele>435.077</ele>
        <time>2022-10-10T14:05:32Z</time>
      </trkpt>
      <trkpt lat="47.23582" lon="6.20422">
        <ele>434.217</ele>
        <time>2022-10-10T14:05:34Z</time>
      </trkpt>
      <trkpt lat="47.23567" lon="6.20443">
        <ele>433.451</ele>
        <time>2022-10-10T14:05:37Z</time>
      </trkpt>
      <trkpt lat="47.23561" lon="6.2045">
        <ele>433.495</ele>
        <time>2022-10-10T14:05:38Z</time>
      </trkpt>
      <trkpt lat="47.23556" lon="6.20457">
        <ele>433.478</ele>
        <time>2022-10-10T14:05:39Z</time>
      </trkpt>
      <trkpt lat="47.23552" lon="6.20463">
        <ele>433.484</ele>
        <time>2022-10-10T14:05:40Z</time>
      </trkpt>
      <trkpt lat="47.23547" lon="6.2047">
        <ele>433.67</ele>
        <time>2022-10-10T14:05:41Z</time>
      </trkpt>
      <trkpt lat="47.23543" lon="6.20476">
        <ele>433.64</ele>
        <time>2022-10-10T14:05:42Z</time>
      </trkpt>
      <trkpt lat="47.2354" lon="6.20483">
        <ele>434.224</ele>
        <time>2022-10-10T14:05:43Z</time>
      </trkpt>
      <trkpt lat="47.23536" lon="6.20489">
        <ele>434.257</ele>
        <time>2022-10-10T14:05:44Z</time>
      </trkpt>
      <trkpt lat="47.23527" lon="6.20503">
        <ele>434.4</ele>
        <time>2022-10-10T14:05:46Z</time>
      </trkpt>
      <trkpt lat="47.23523" lon="6.20508">
        <ele>434.62</ele>
        <time>2022-10-10T14:05:47Z</time>
      </trkpt>
      <trkpt lat="47.23504" lon="6.20538">
        <ele>434.809</ele>
        <time>2022-10-10T14:05:52Z</time>
      </trkpt>
      <trkpt lat="47.23472" lon="6.20587">
        <ele>433.486</ele>
        <time>2022-10-10T14:05:59Z</time>
      </trkpt>
      <trkpt lat="47.23467" lon="6.20594">
        <ele>432.476</ele>
        <time>2022-10-10T14:06:00Z</time>
      </trkpt>
      <trkpt lat="47.23463" lon="6.20601">
        <ele>432.43</ele>
        <time>2022-10-10T14:06:01Z</time>
      </trkpt>
      <trkpt lat="47.23459" lon="6.20607">
        <ele>432.474</ele>
        <time>2022-10-10T14:06:02Z</time>
      </trkpt>
      <trkpt lat="47.23455" lon="6.20614">
        <ele>433.257</ele>
        <time>2022-10-10T14:06:03Z</time>
      </trkpt>
      <trkpt lat="47.23451" lon="6.20621">
        <ele>433.283</ele>
        <time>2022-10-10T14:06:04Z</time>
      </trkpt>
      <trkpt lat="47.23447" lon="6.20627">
        <ele>433.289</ele>
        <time>2022-10-10T14:06:05Z</time>
      </trkpt>
      <trkpt lat="47.23443" lon="6.20635">
        <ele>433.279</ele>
        <time>2022-10-10T14:06:06Z</time>
      </trkpt>
      <trkpt lat="47.23439" lon="6.20642">
        <ele>433.273</ele>
        <time>2022-10-10T14:06:07Z</time>
      </trkpt>
      <trkpt lat="47.23435" lon="6.2065">
        <ele>433.216</ele>
        <time>2022-10-10T14:06:08Z</time>
      </trkpt>
      <trkpt lat="47.23421" lon="6.2067">
        <ele>433.476</ele>
        <time>2022-10-10T14:06:11Z</time>
      </trkpt>
      <trkpt lat="47.23407" lon="6.20689">
        <ele>433.213</ele>
        <time>2022-10-10T14:06:14Z</time>
      </trkpt>
      <trkpt lat="47.23402" lon="6.20695">
        <ele>433.209</ele>
        <time>2022-10-10T14:06:15Z</time>
      </trkpt>
      <trkpt lat="47.23387" lon="6.20713">
        <ele>433.082</ele>
        <time>2022-10-10T14:06:18Z</time>
      </trkpt>
      <trkpt lat="47.23368" lon="6.20729">
        <ele>432.612</ele>
        <time>2022-10-10T14:06:21Z</time>
      </trkpt>
      <trkpt lat="47.23362" lon="6.20734">
        <ele>432.066</ele>
        <time>2022-10-10T14:06:22Z</time>
      </trkpt>
      <trkpt lat="47.23355" lon="6.20738">
        <ele>432.02</ele>
        <time>2022-10-10T14:06:23Z</time>
      </trkpt>
      <trkpt lat="47.23318" lon="6.2076">
        <ele>431.233</ele>
        <time>2022-10-10T14:06:29Z</time>
      </trkpt>
      <trkpt lat="47.23296" lon="6.2077">
        <ele>430.269</ele>
        <time>2022-10-10T14:06:32Z</time>
      </trkpt>
      <trkpt lat="47.23288" lon="6.20772">
        <ele>429.835</ele>
        <time>2022-10-10T14:06:33Z</time>
      </trkpt>
      <trkpt lat="47.2328" lon="6.20772">
        <ele>429.865</ele>
        <time>2022-10-10T14:06:34Z</time>
      </trkpt>
      <trkpt lat="47.23274" lon="6.2077">
        <ele>429.859</ele>
        <time>2022-10-10T14:06:35Z</time>
      </trkpt>
      <trkpt lat="47.23268" lon="6.20767">
        <ele>429.845</ele>
        <time>2022-10-10T14:06:36Z</time>
      </trkpt>
      <trkpt lat="47.23261" lon="6.20763">
        <ele>430.247</ele>
        <time>2022-10-10T14:06:37Z</time>
      </trkpt>
      <trkpt lat="47.23258" lon="6.20759">
        <ele>431.211</ele>
        <time>2022-10-10T14:06:38Z</time>
      </trkpt>
      <trkpt lat="47.23253" lon="6.20755">
        <ele>431.209</ele>
        <time>2022-10-10T14:06:39Z</time>
      </trkpt>
      <trkpt lat="47.23249" lon="6.20751">
        <ele>431.865</ele>
        <time>2022-10-10T14:06:40Z</time>
      </trkpt>
      <trkpt lat="47.2324" lon="6.20743">
        <ele>432.245</ele>
        <time>2022-10-10T14:06:42Z</time>
      </trkpt>
      <trkpt lat="47.23235" lon="6.2074">
        <ele>433.069</ele>
        <time>2022-10-10T14:06:43Z</time>
      </trkpt>
      <trkpt lat="47.23215" lon="6.20726">
        <ele>433.253</ele>
        <time>2022-10-10T14:06:47Z</time>
      </trkpt>
      <trkpt lat="47.23186" lon="6.20717">
        <ele>433.426</ele>
        <time>2022-10-10T14:06:52Z</time>
      </trkpt>
      <trkpt lat="47.23179" lon="6.20717">
        <ele>433.862</ele>
        <time>2022-10-10T14:06:53Z</time>
      </trkpt>
      <trkpt lat="47.23149" lon="6.20725">
        <ele>434.048</ele>
        <time>2022-10-10T14:06:58Z</time>
      </trkpt>
      <trkpt lat="47.23137" lon="6.2073">
        <ele>434.058</ele>
        <time>2022-10-10T14:07:00Z</time>
      </trkpt>
      <trkpt lat="47.23131" lon="6.20732">
        <ele>434.062</ele>
        <time>2022-10-10T14:07:01Z</time>
      </trkpt>
      <trkpt lat="47.23123" lon="6.20736">
        <ele>434.247</ele>
        <time>2022-10-10T14:07:02Z</time>
      </trkpt>
      <trkpt lat="47.23095" lon="6.20749">
        <ele>434.629</ele>
        <time>2022-10-10T14:07:07Z</time>
      </trkpt>
      <trkpt lat="47.23045" lon="6.20764">
        <ele>433.221</ele>
        <time>2022-10-10T14:07:15Z</time>
      </trkpt>
      <trkpt lat="47.23037" lon="6.20764">
        <ele>432.609</ele>
        <time>2022-10-10T14:07:16Z</time>
      </trkpt>
      <trkpt lat="47.23016" lon="6.20767">
        <ele>431.485</ele>
        <time>2022-10-10T14:07:19Z</time>
      </trkpt>
      <trkpt lat="47.23007" lon="6.20767">
        <ele>430.625</ele>
        <time>2022-10-10T14:07:20Z</time>
      </trkpt>
      <trkpt lat="47.23001" lon="6.20768">
        <ele>430.659</ele>
        <time>2022-10-10T14:07:21Z</time>
      </trkpt>
      <trkpt lat="47.22993" lon="6.20769">
        <ele>430.693</ele>
        <time>2022-10-10T14:07:22Z</time>
      </trkpt>
      <trkpt lat="47.22986" lon="6.20769">
        <ele>430.656</ele>
        <time>2022-10-10T14:07:23Z</time>
      </trkpt>
      <trkpt lat="47.22945" lon="6.20774">
        <ele>429.882</ele>
        <time>2022-10-10T14:07:29Z</time>
      </trkpt>
      <trkpt lat="47.22923" lon="6.20776">
        <ele>429.048</ele>
        <time>2022-10-10T14:07:32Z</time>
      </trkpt>
      <trkpt lat="47.22917" lon="6.20775">
        <ele>428.418</ele>
        <time>2022-10-10T14:07:33Z</time>
      </trkpt>
      <trkpt lat="47.22908" lon="6.20771">
        <ele>427.822</ele>
        <time>2022-10-10T14:07:34Z</time>
      </trkpt>
      <trkpt lat="47.22902" lon="6.20767">
        <ele>427.859</ele>
        <time>2022-10-10T14:07:35Z</time>
      </trkpt>
      <trkpt lat="47.22897" lon="6.20762">
        <ele>427.803</ele>
        <time>2022-10-10T14:07:36Z</time>
      </trkpt>
      <trkpt lat="47.22891" lon="6.20757">
        <ele>427.823</ele>
        <time>2022-10-10T14:07:37Z</time>
      </trkpt>
      <trkpt lat="47.22886" lon="6.20752">
        <ele>428.009</ele>
        <time>2022-10-10T14:07:38Z</time>
      </trkpt>
      <trkpt lat="47.2288" lon="6.20746">
        <ele>428.416</ele>
        <time>2022-10-10T14:07:39Z</time>
      </trkpt>
      <trkpt lat="47.22876" lon="6.2074">
        <ele>429.016</ele>
        <time>2022-10-10T14:07:40Z</time>
      </trkpt>
      <trkpt lat="47.22872" lon="6.20736">
        <ele>429.43</ele>
        <time>2022-10-10T14:07:41Z</time>
      </trkpt>
      <trkpt lat="47.22869" lon="6.20732">
        <ele>429.624</ele>
        <time>2022-10-10T14:07:42Z</time>
      </trkpt>
      <trkpt lat="47.22864" lon="6.20727">
        <ele>429.857</ele>
        <time>2022-10-10T14:07:43Z</time>
      </trkpt>
      <trkpt lat="47.2286" lon="6.20723">
        <ele>429.813</ele>
        <time>2022-10-10T14:07:44Z</time>
      </trkpt>
      <trkpt lat="47.22857" lon="6.20718">
        <ele>430.049</ele>
        <time>2022-10-10T14:07:45Z</time>
      </trkpt>
      <trkpt lat="47.22854" lon="6.20714">
        <ele>430.629</ele>
        <time>2022-10-10T14:07:46Z</time>
      </trkpt>
      <trkpt lat="47.2285" lon="6.2071">
        <ele>430.823</ele>
        <time>2022-10-10T14:07:47Z</time>
      </trkpt>
      <trkpt lat="47.22841" lon="6.207">
        <ele>431.439</ele>
        <time>2022-10-10T14:07:49Z</time>
      </trkpt>
      <trkpt lat="47.22834" lon="6.20691">
        <ele>431.801</ele>
        <time>2022-10-10T14:07:51Z</time>
      </trkpt>
      <trkpt lat="47.2283" lon="6.20686">
        <ele>431.821</ele>
        <time>2022-10-10T14:07:52Z</time>
      </trkpt>
      <trkpt lat="47.22826" lon="6.20681">
        <ele>432.009</ele>
        <time>2022-10-10T14:07:53Z</time>
      </trkpt>
      <trkpt lat="47.2282" lon="6.20668">
        <ele>432.454</ele>
        <time>2022-10-10T14:07:55Z</time>
      </trkpt>
      <trkpt lat="47.22814" lon="6.20653">
        <ele>432.624</ele>
        <time>2022-10-10T14:07:57Z</time>
      </trkpt>
      <trkpt lat="47.22811" lon="6.20645">
        <ele>432.668</ele>
        <time>2022-10-10T14:07:58Z</time>
      </trkpt>
      <trkpt lat="47.22809" lon="6.20636">
        <ele>432.622</ele>
        <time>2022-10-10T14:07:59Z</time>
      </trkpt>
      <trkpt lat="47.22807" lon="6.20629">
        <ele>432.665</ele>
        <time>2022-10-10T14:08:00Z</time>
      </trkpt>
      <trkpt lat="47.22805" lon="6.20621">
        <ele>432.881</ele>
        <time>2022-10-10T14:08:01Z</time>
      </trkpt>
      <trkpt lat="47.22803" lon="6.20612">
        <ele>432.837</ele>
        <time>2022-10-10T14:08:02Z</time>
      </trkpt>
      <trkpt lat="47.22801" lon="6.20604">
        <ele>432.847</ele>
        <time>2022-10-10T14:08:03Z</time>
      </trkpt>
      <trkpt lat="47.22798" lon="6.20596">
        <ele>433.011</ele>
        <time>2022-10-10T14:08:04Z</time>
      </trkpt>
      <trkpt lat="47.22796" lon="6.20588">
        <ele>433.085</ele>
        <time>2022-10-10T14:08:05Z</time>
      </trkpt>
      <trkpt lat="47.22794" lon="6.2058">
        <ele>433.089</ele>
        <time>2022-10-10T14:08:06Z</time>
      </trkpt>
      <trkpt lat="47.22792" lon="6.20571">
        <ele>433.017</ele>
        <time>2022-10-10T14:08:07Z</time>
      </trkpt>
      <trkpt lat="47.22789" lon="6.20563">
        <ele>433.009</ele>
        <time>2022-10-10T14:08:08Z</time>
      </trkpt>
      <trkpt lat="47.22785" lon="6.20555">
        <ele>433.039</ele>
        <time>2022-10-10T14:08:09Z</time>
      </trkpt>
      <trkpt lat="47.22782" lon="6.20547">
        <ele>433.089</ele>
        <time>2022-10-10T14:08:10Z</time>
      </trkpt>
      <trkpt lat="47.22778" lon="6.2054">
        <ele>433.053</ele>
        <time>2022-10-10T14:08:11Z</time>
      </trkpt>
      <trkpt lat="47.22774" lon="6.20532">
        <ele>432.887</ele>
        <time>2022-10-10T14:08:12Z</time>
      </trkpt>
      <trkpt lat="47.22766" lon="6.20517">
        <ele>432.65</ele>
        <time>2022-10-10T14:08:14Z</time>
      </trkpt>
      <trkpt lat="47.22761" lon="6.20509">
        <ele>432.446</ele>
        <time>2022-10-10T14:08:15Z</time>
      </trkpt>
      <trkpt lat="47.22757" lon="6.20502">
        <ele>432.422</ele>
        <time>2022-10-10T14:08:16Z</time>
      </trkpt>
      <trkpt lat="47.22753" lon="6.20495">
        <ele>432.422</ele>
        <time>2022-10-10T14:08:17Z</time>
      </trkpt>
      <trkpt lat="47.22749" lon="6.20489">
        <ele>432.446</ele>
        <time>2022-10-10T14:08:18Z</time>
      </trkpt>
      <trkpt lat="47.22745" lon="6.20482">
        <ele>432.664</ele>
        <time>2022-10-10T14:08:19Z</time>
      </trkpt>
      <trkpt lat="47.22741" lon="6.20476">
        <ele>433.006</ele>
        <time>2022-10-10T14:08:20Z</time>
      </trkpt>
      <trkpt lat="47.22737" lon="6.20469">
        <ele>433.216</ele>
        <time>2022-10-10T14:08:21Z</time>
      </trkpt>
      <trkpt lat="47.22733" lon="6.20463">
        <ele>433.609</ele>
        <time>2022-10-10T14:08:22Z</time>
      </trkpt>
      <trkpt lat="47.22729" lon="6.20457">
        <ele>434.267</ele>
        <time>2022-10-10T14:08:23Z</time>
      </trkpt>
      <trkpt lat="47.22725" lon="6.20451">
        <ele>434.497</ele>
        <time>2022-10-10T14:08:24Z</time>
      </trkpt>
      <trkpt lat="47.22722" lon="6.20445">
        <ele>434.461</ele>
        <time>2022-10-10T14:08:25Z</time>
      </trkpt>
      <trkpt lat="47.22719" lon="6.20438">
        <ele>434.655</ele>
        <time>2022-10-10T14:08:26Z</time>
      </trkpt>
      <trkpt lat="47.22715" lon="6.20433">
        <ele>435.488</ele>
        <time>2022-10-10T14:08:27Z</time>
      </trkpt>
      <trkpt lat="47.22712" lon="6.20427">
        <ele>435.644</ele>
        <time>2022-10-10T14:08:28Z</time>
      </trkpt>
      <trkpt lat="47.22708" lon="6.20422">
        <ele>437.29</ele>
        <time>2022-10-10T14:08:29Z</time>
      </trkpt>
      <trkpt lat="47.22705" lon="6.20416">
        <ele>437.27</ele>
        <time>2022-10-10T14:08:30Z</time>
      </trkpt>
      <trkpt lat="47.22701" lon="6.2041">
        <ele>437.664</ele>
        <time>2022-10-10T14:08:31Z</time>
      </trkpt>
      <trkpt lat="47.22698" lon="6.20405">
        <ele>437.616</ele>
        <time>2022-10-10T14:08:32Z</time>
      </trkpt>
      <trkpt lat="47.22694" lon="6.204">
        <ele>437.876</ele>
        <time>2022-10-10T14:08:33Z</time>
      </trkpt>
      <trkpt lat="47.2269" lon="6.20394">
        <ele>438.013</ele>
        <time>2022-10-10T14:08:34Z</time>
      </trkpt>
      <trkpt lat="47.22684" lon="6.20388">
        <ele>438.209</ele>
        <time>2022-10-10T14:08:35Z</time>
      </trkpt>
      <trkpt lat="47.22681" lon="6.20384">
        <ele>438.242</ele>
        <time>2022-10-10T14:08:36Z</time>
      </trkpt>
      <trkpt lat="47.22676" lon="6.20378">
        <ele>438.252</ele>
        <time>2022-10-10T14:08:37Z</time>
      </trkpt>
      <trkpt lat="47.22671" lon="6.20373">
        <ele>438.276</ele>
        <time>2022-10-10T14:08:38Z</time>
      </trkpt>
      <trkpt lat="47.22665" lon="6.20368">
        <ele>438.27</ele>
        <time>2022-10-10T14:08:39Z</time>
      </trkpt>
      <trkpt lat="47.2266" lon="6.20363">
        <ele>438.223</ele>
        <time>2022-10-10T14:08:40Z</time>
      </trkpt>
      <trkpt lat="47.22655" lon="6.20358">
        <ele>438.299</ele>
        <time>2022-10-10T14:08:41Z</time>
      </trkpt>
      <trkpt lat="47.2265" lon="6.20353">
        <ele>438.295</ele>
        <time>2022-10-10T14:08:42Z</time>
      </trkpt>
      <trkpt lat="47.22645" lon="6.20348">
        <ele>438.235</ele>
        <time>2022-10-10T14:08:43Z</time>
      </trkpt>
      <trkpt lat="47.2264" lon="6.20342">
        <ele>438.229</ele>
        <time>2022-10-10T14:08:44Z</time>
      </trkpt>
      <trkpt lat="47.22635" lon="6.20336">
        <ele>438.278</ele>
        <time>2022-10-10T14:08:45Z</time>
      </trkpt>
      <trkpt lat="47.2263" lon="6.2033">
        <ele>438.233</ele>
        <time>2022-10-10T14:08:46Z</time>
      </trkpt>
      <trkpt lat="47.22625" lon="6.20325">
        <ele>438.226</ele>
        <time>2022-10-10T14:08:47Z</time>
      </trkpt>
      <trkpt lat="47.2262" lon="6.2032">
        <ele>438.209</ele>
        <time>2022-10-10T14:08:48Z</time>
      </trkpt>
      <trkpt lat="47.22615" lon="6.20315">
        <ele>438.658</ele>
        <time>2022-10-10T14:08:49Z</time>
      </trkpt>
      <trkpt lat="47.2261" lon="6.20311">
        <ele>439.248</ele>
        <time>2022-10-10T14:08:50Z</time>
      </trkpt>
      <trkpt lat="47.22604" lon="6.20307">
        <ele>439.442</ele>
        <time>2022-10-10T14:08:51Z</time>
      </trkpt>
      <trkpt lat="47.22598" lon="6.20304">
        <ele>440.046</ele>
        <time>2022-10-10T14:08:52Z</time>
      </trkpt>
      <trkpt lat="47.22593" lon="6.20301">
        <ele>440.249</ele>
        <time>2022-10-10T14:08:53Z</time>
      </trkpt>
      <trkpt lat="47.22588" lon="6.20298">
        <ele>440.265</ele>
        <time>2022-10-10T14:08:54Z</time>
      </trkpt>
      <trkpt lat="47.22583" lon="6.20295">
        <ele>440.251</ele>
        <time>2022-10-10T14:08:55Z</time>
      </trkpt>
      <trkpt lat="47.22577" lon="6.20293">
        <ele>440.631</ele>
        <time>2022-10-10T14:08:56Z</time>
      </trkpt>
      <trkpt lat="47.2257" lon="6.2029">
        <ele>440.845</ele>
        <time>2022-10-10T14:08:57Z</time>
      </trkpt>
      <trkpt lat="47.22566" lon="6.20288">
        <ele>440.848</ele>
        <time>2022-10-10T14:08:58Z</time>
      </trkpt>
      <trkpt lat="47.2256" lon="6.20286">
        <ele>440.861</ele>
        <time>2022-10-10T14:08:59Z</time>
      </trkpt>
      <trkpt lat="47.22554" lon="6.20284">
        <ele>440.817</ele>
        <time>2022-10-10T14:09:00Z</time>
      </trkpt>
      <trkpt lat="47.22548" lon="6.20281">
        <ele>441.009</ele>
        <time>2022-10-10T14:09:01Z</time>
      </trkpt>
      <trkpt lat="47.22542" lon="6.20279">
        <ele>441.055</ele>
        <time>2022-10-10T14:09:02Z</time>
      </trkpt>
      <trkpt lat="47.22536" lon="6.20276">
        <ele>441.015</ele>
        <time>2022-10-10T14:09:03Z</time>
      </trkpt>
      <trkpt lat="47.2253" lon="6.20274">
        <ele>441.239</ele>
        <time>2022-10-10T14:09:04Z</time>
      </trkpt>
      <trkpt lat="47.22524" lon="6.20272">
        <ele>441.273</ele>
        <time>2022-10-10T14:09:05Z</time>
      </trkpt>
      <trkpt lat="47.22518" lon="6.20269">
        <ele>441.476</ele>
        <time>2022-10-10T14:09:06Z</time>
      </trkpt>
      <trkpt lat="47.22512" lon="6.20267">
        <ele>441.442</ele>
        <time>2022-10-10T14:09:07Z</time>
      </trkpt>
      <trkpt lat="47.22505" lon="6.20265">
        <ele>441.658</ele>
        <time>2022-10-10T14:09:08Z</time>
      </trkpt>
      <trkpt lat="47.225" lon="6.20262">
        <ele>441.638</ele>
        <time>2022-10-10T14:09:09Z</time>
      </trkpt>
      <trkpt lat="47.22494" lon="6.20259">
        <ele>441.672</ele>
        <time>2022-10-10T14:09:10Z</time>
      </trkpt>
      <trkpt lat="47.22488" lon="6.20256">
        <ele>441.688</ele>
        <time>2022-10-10T14:09:11Z</time>
      </trkpt>
      <trkpt lat="47.22482" lon="6.20254">
        <ele>441.824</ele>
        <time>2022-10-10T14:09:12Z</time>
      </trkpt>
      <trkpt lat="47.22476" lon="6.20251">
        <ele>441.826</ele>
        <time>2022-10-10T14:09:13Z</time>
      </trkpt>
      <trkpt lat="47.22471" lon="6.20248">
        <ele>442.009</ele>
        <time>2022-10-10T14:09:14Z</time>
      </trkpt>
      <trkpt lat="47.22465" lon="6.20246">
        <ele>442.239</ele>
        <time>2022-10-10T14:09:15Z</time>
      </trkpt>
      <trkpt lat="47.22457" lon="6.20242">
        <ele>442.259</ele>
        <time>2022-10-10T14:09:16Z</time>
      </trkpt>
      <trkpt lat="47.22449" lon="6.2024">
        <ele>442.263</ele>
        <time>2022-10-10T14:09:17Z</time>
      </trkpt>
      <trkpt lat="47.22443" lon="6.20239">
        <ele>442.467</ele>
        <time>2022-10-10T14:09:18Z</time>
      </trkpt>
      <trkpt lat="47.22438" lon="6.20238">
        <ele>442.44</ele>
        <time>2022-10-10T14:09:19Z</time>
      </trkpt>
      <trkpt lat="47.22432" lon="6.20237">
        <ele>442.446</ele>
        <time>2022-10-10T14:09:20Z</time>
      </trkpt>
      <trkpt lat="47.22426" lon="6.20234">
        <ele>442.462</ele>
        <time>2022-10-10T14:09:21Z</time>
      </trkpt>
      <trkpt lat="47.2239" lon="6.20217">
        <ele>442.482</ele>
        <time>2022-10-10T14:09:27Z</time>
      </trkpt>
      <trkpt lat="47.22349" lon="6.20203">
        <ele>441.856</ele>
        <time>2022-10-10T14:09:33Z</time>
      </trkpt>
      <trkpt lat="47.2234" lon="6.202">
        <ele>441.478</ele>
        <time>2022-10-10T14:09:34Z</time>
      </trkpt>
      <trkpt lat="47.22326" lon="6.20196">
        <ele>440.233</ele>
        <time>2022-10-10T14:09:36Z</time>
      </trkpt>
      <trkpt lat="47.22312" lon="6.20191">
        <ele>439.226</ele>
        <time>2022-10-10T14:09:38Z</time>
      </trkpt>
      <trkpt lat="47.22295" lon="6.20183">
        <ele>439.009</ele>
        <time>2022-10-10T14:09:40Z</time>
      </trkpt>
      <trkpt lat="47.22273" lon="6.20174">
        <ele>438.048</ele>
        <time>2022-10-10T14:09:43Z</time>
      </trkpt>
      <trkpt lat="47.22266" lon="6.20171">
        <ele>438.068</ele>
        <time>2022-10-10T14:09:44Z</time>
      </trkpt>
      <trkpt lat="47.22258" lon="6.20169">
        <ele>438.022</ele>
        <time>2022-10-10T14:09:45Z</time>
      </trkpt>
      <trkpt lat="47.22253" lon="6.20165">
        <ele>438.036</ele>
        <time>2022-10-10T14:09:46Z</time>
      </trkpt>
      <trkpt lat="47.22245" lon="6.2016">
        <ele>438.239</ele>
        <time>2022-10-10T14:09:47Z</time>
      </trkpt>
      <trkpt lat="47.2224" lon="6.20157">
        <ele>438.275</ele>
        <time>2022-10-10T14:09:48Z</time>
      </trkpt>
      <trkpt lat="47.22233" lon="6.20152">
        <ele>438.281</ele>
        <time>2022-10-10T14:09:49Z</time>
      </trkpt>
      <trkpt lat="47.22228" lon="6.20149">
        <ele>438.431</ele>
        <time>2022-10-10T14:09:50Z</time>
      </trkpt>
      <trkpt lat="47.22224" lon="6.20146">
        <ele>438.415</ele>
        <time>2022-10-10T14:09:51Z</time>
      </trkpt>
      <trkpt lat="47.22218" lon="6.20139">
        <ele>439.064</ele>
        <time>2022-10-10T14:09:52Z</time>
      </trkpt>
      <trkpt lat="47.22213" lon="6.20134">
        <ele>439.206</ele>
        <time>2022-10-10T14:09:53Z</time>
      </trkpt>
      <trkpt lat="47.22203" lon="6.20124">
        <ele>439.416</ele>
        <time>2022-10-10T14:09:55Z</time>
      </trkpt>
      <trkpt lat="47.2219" lon="6.20106">
        <ele>439.809</ele>
        <time>2022-10-10T14:09:58Z</time>
      </trkpt>
      <trkpt lat="47.22181" lon="6.20093">
        <ele>440.437</ele>
        <time>2022-10-10T14:10:00Z</time>
      </trkpt>
      <trkpt lat="47.22158" lon="6.2006">
        <ele>440.467</ele>
        <time>2022-10-10T14:10:05Z</time>
      </trkpt>
      <trkpt lat="47.22143" lon="6.20038">
        <ele>440.681</ele>
        <time>2022-10-10T14:10:08Z</time>
      </trkpt>
      <trkpt lat="47.22133" lon="6.20027">
        <ele>440.615</ele>
        <time>2022-10-10T14:10:10Z</time>
      </trkpt>
      <trkpt lat="47.22124" lon="6.20017">
        <ele>440.848</ele>
        <time>2022-10-10T14:10:12Z</time>
      </trkpt>
      <trkpt lat="47.22101" lon="6.19999">
        <ele>440.864</ele>
        <time>2022-10-10T14:10:16Z</time>
      </trkpt>
      <trkpt lat="47.22096" lon="6.19996">
        <ele>440.81</ele>
        <time>2022-10-10T14:10:17Z</time>
      </trkpt>
      <trkpt lat="47.22085" lon="6.19989">
        <ele>440.86</ele>
        <time>2022-10-10T14:10:19Z</time>
      </trkpt>
      <trkpt lat="47.22068" lon="6.19978">
        <ele>440.854</ele>
        <time>2022-10-10T14:10:22Z</time>
      </trkpt>
      <trkpt lat="47.22056" lon="6.19971">
        <ele>440.851</ele>
        <time>2022-10-10T14:10:24Z</time>
      </trkpt>
      <trkpt lat="47.2205" lon="6.19966">
        <ele>441.201</ele>
        <time>2022-10-10T14:10:25Z</time>
      </trkpt>
      <trkpt lat="47.2204" lon="6.19959">
        <ele>441.211</ele>
        <time>2022-10-10T14:10:27Z</time>
      </trkpt>
      <trkpt lat="47.22018" lon="6.19945">
        <ele>441.209</ele>
        <time>2022-10-10T14:10:31Z</time>
      </trkpt>
      <trkpt lat="47.22013" lon="6.19942">
        <ele>441.476</ele>
        <time>2022-10-10T14:10:32Z</time>
      </trkpt>
      <trkpt lat="47.22007" lon="6.19938">
        <ele>441.466</ele>
        <time>2022-10-10T14:10:33Z</time>
      </trkpt>
      <trkpt lat="47.21994" lon="6.19931">
        <ele>441.65</ele>
        <time>2022-10-10T14:10:35Z</time>
      </trkpt>
      <trkpt lat="47.21983" lon="6.19926">
        <ele>441.694</ele>
        <time>2022-10-10T14:10:37Z</time>
      </trkpt>
      <trkpt lat="47.21938" lon="6.1992">
        <ele>442.027</ele>
        <time>2022-10-10T14:10:44Z</time>
      </trkpt>
      <trkpt lat="47.21912" lon="6.19918">
        <ele>441.623</ele>
        <time>2022-10-10T14:10:48Z</time>
      </trkpt>
      <trkpt lat="47.21897" lon="6.19918">
        <ele>441.499</ele>
        <time>2022-10-10T14:10:50Z</time>
      </trkpt>
      <trkpt lat="47.2189" lon="6.19918">
        <ele>441.479</ele>
        <time>2022-10-10T14:10:51Z</time>
      </trkpt>
      <trkpt lat="47.21883" lon="6.19917">
        <ele>441.473</ele>
        <time>2022-10-10T14:10:52Z</time>
      </trkpt>
      <trkpt lat="47.21876" lon="6.19918">
        <ele>441.437</ele>
        <time>2022-10-10T14:10:53Z</time>
      </trkpt>
      <trkpt lat="47.2187" lon="6.19919">
        <ele>441.449</ele>
        <time>2022-10-10T14:10:54Z</time>
      </trkpt>
      <trkpt lat="47.21844" lon="6.19919">
        <ele>441.013</ele>
        <time>2022-10-10T14:10:58Z</time>
      </trkpt>
      <trkpt lat="47.21824" lon="6.19918">
        <ele>440.609</ele>
        <time>2022-10-10T14:11:01Z</time>
      </trkpt>
      <trkpt lat="47.21818" lon="6.19917">
        <ele>440.674</ele>
        <time>2022-10-10T14:11:02Z</time>
      </trkpt>
      <trkpt lat="47.21811" lon="6.19917">
        <ele>440.644</ele>
        <time>2022-10-10T14:11:03Z</time>
      </trkpt>
      <trkpt lat="47.21805" lon="6.19917">
        <ele>440.678</ele>
        <time>2022-10-10T14:11:04Z</time>
      </trkpt>
      <trkpt lat="47.2179" lon="6.19917">
        <ele>441.082</ele>
        <time>2022-10-10T14:11:06Z</time>
      </trkpt>
      <trkpt lat="47.21771" lon="6.1992">
        <ele>441.015</ele>
        <time>2022-10-10T14:11:09Z</time>
      </trkpt>
      <trkpt lat="47.21766" lon="6.1992">
        <ele>441.211</ele>
        <time>2022-10-10T14:11:10Z</time>
      </trkpt>
      <trkpt lat="47.21754" lon="6.19918">
        <ele>441.237</ele>
        <time>2022-10-10T14:11:12Z</time>
      </trkpt>
      <trkpt lat="47.21729" lon="6.19916">
        <ele>441.257</ele>
        <time>2022-10-10T14:11:16Z</time>
      </trkpt>
      <trkpt lat="47.21721" lon="6.19916">
        <ele>441.241</ele>
        <time>2022-10-10T14:11:17Z</time>
      </trkpt>
      <trkpt lat="47.21708" lon="6.19915">
        <ele>441.272</ele>
        <time>2022-10-10T14:11:19Z</time>
      </trkpt>
      <trkpt lat="47.21702" lon="6.19913">
        <ele>441.213</ele>
        <time>2022-10-10T14:11:20Z</time>
      </trkpt>
      <trkpt lat="47.21697" lon="6.19913">
        <ele>441.414</ele>
        <time>2022-10-10T14:11:21Z</time>
      </trkpt>
      <trkpt lat="47.21689" lon="6.19913">
        <ele>441.609</ele>
        <time>2022-10-10T14:11:22Z</time>
      </trkpt>
      <trkpt lat="47.21684" lon="6.19913">
        <ele>441.698</ele>
        <time>2022-10-10T14:11:23Z</time>
      </trkpt>
      <trkpt lat="47.21677" lon="6.19913">
        <ele>441.648</ele>
        <time>2022-10-10T14:11:24Z</time>
      </trkpt>
      <trkpt lat="47.21666" lon="6.19912">
        <ele>441.892</ele>
        <time>2022-10-10T14:11:26Z</time>
      </trkpt>
      <trkpt lat="47.21658" lon="6.1991">
        <ele>442.266</ele>
        <time>2022-10-10T14:11:27Z</time>
      </trkpt>
      <trkpt lat="47.21653" lon="6.19908">
        <ele>442.659</ele>
        <time>2022-10-10T14:11:28Z</time>
      </trkpt>
      <trkpt lat="47.21628" lon="6.19891">
        <ele>442.855</ele>
        <time>2022-10-10T14:11:32Z</time>
      </trkpt>
      <trkpt lat="47.21613" lon="6.19879">
        <ele>442.881</ele>
        <time>2022-10-10T14:11:35Z</time>
      </trkpt>
      <trkpt lat="47.21607" lon="6.19875">
        <ele>442.881</ele>
        <time>2022-10-10T14:11:36Z</time>
      </trkpt>
      <trkpt lat="47.21591" lon="6.19859">
        <ele>442.875</ele>
        <time>2022-10-10T14:11:39Z</time>
      </trkpt>
      <trkpt lat="47.21561" lon="6.19825">
        <ele>443.283</ele>
        <time>2022-10-10T14:11:45Z</time>
      </trkpt>
      <trkpt lat="47.21555" lon="6.1982">
        <ele>443.225</ele>
        <time>2022-10-10T14:11:46Z</time>
      </trkpt>
      <trkpt lat="47.21548" lon="6.19814">
        <ele>443.217</ele>
        <time>2022-10-10T14:11:47Z</time>
      </trkpt>
      <trkpt lat="47.21543" lon="6.1981">
        <ele>442.809</ele>
        <time>2022-10-10T14:11:48Z</time>
      </trkpt>
      <trkpt lat="47.21536" lon="6.19806">
        <ele>443.049</ele>
        <time>2022-10-10T14:11:49Z</time>
      </trkpt>
      <trkpt lat="47.2153" lon="6.19804">
        <ele>443.019</ele>
        <time>2022-10-10T14:11:50Z</time>
      </trkpt>
      <trkpt lat="47.21524" lon="6.19803">
        <ele>443.033</ele>
        <time>2022-10-10T14:11:51Z</time>
      </trkpt>
      <trkpt lat="47.21519" lon="6.19802">
        <ele>443.057</ele>
        <time>2022-10-10T14:11:52Z</time>
      </trkpt>
      <trkpt lat="47.21513" lon="6.19803">
        <ele>443.07</ele>
        <time>2022-10-10T14:11:53Z</time>
      </trkpt>
      <trkpt lat="47.21508" lon="6.19804">
        <ele>443.266</ele>
        <time>2022-10-10T14:11:54Z</time>
      </trkpt>
      <trkpt lat="47.21502" lon="6.19807">
        <ele>443.862</ele>
        <time>2022-10-10T14:11:55Z</time>
      </trkpt>
      <trkpt lat="47.21497" lon="6.19809">
        <ele>444.442</ele>
        <time>2022-10-10T14:11:56Z</time>
      </trkpt>
      <trkpt lat="47.21493" lon="6.19812">
        <ele>444.676</ele>
        <time>2022-10-10T14:11:57Z</time>
      </trkpt>
      <trkpt lat="47.21489" lon="6.19816">
        <ele>445.836</ele>
        <time>2022-10-10T14:11:58Z</time>
      </trkpt>
      <trkpt lat="47.21485" lon="6.1982">
        <ele>446.217</ele>
        <time>2022-10-10T14:11:59Z</time>
      </trkpt>
      <trkpt lat="47.21482" lon="6.19823">
        <ele>446.618</ele>
        <time>2022-10-10T14:12:00Z</time>
      </trkpt>
      <trkpt lat="47.2148" lon="6.19826">
        <ele>447.009</ele>
        <time>2022-10-10T14:12:01Z</time>
      </trkpt>
      <trkpt lat="47.21479" lon="6.19827">
        <ele>447.074</ele>
        <time>2022-10-10T14:12:02Z</time>
      </trkpt>
      <trkpt lat="47.21477" lon="6.19828">
        <ele>447.274</ele>
        <time>2022-10-10T14:12:03Z</time>
      </trkpt>
      <trkpt lat="47.21476" lon="6.19829">
        <ele>447.278</ele>
        <time>2022-10-10T14:12:04Z</time>
      </trkpt>
      <trkpt lat="47.21475" lon="6.19829">
        <ele>447.222</ele>
        <time>2022-10-10T14:12:05Z</time>
      </trkpt>
      <trkpt lat="47.21475" lon="6.19829">
        <ele>447.295</ele>
        <time>2022-10-10T14:12:06Z</time>
      </trkpt>
      <trkpt lat="47.21475" lon="6.1983">
        <ele>447.471</ele>
        <time>2022-10-10T14:12:07Z</time>
      </trkpt>
      <trkpt lat="47.21475" lon="6.19832">
        <ele>447.427</ele>
        <time>2022-10-10T14:12:08Z</time>
      </trkpt>
      <trkpt lat="47.21475" lon="6.19834">
        <ele>447.237</ele>
        <time>2022-10-10T14:12:09Z</time>
      </trkpt>
      <trkpt lat="47.21476" lon="6.19835">
        <ele>447.261</ele>
        <time>2022-10-10T14:12:10Z</time>
      </trkpt>
      <trkpt lat="47.21476" lon="6.19836">
        <ele>447.235</ele>
        <time>2022-10-10T14:12:11Z</time>
      </trkpt>
      <trkpt lat="47.21475" lon="6.19839">
        <ele>447.286</ele>
        <time>2022-10-10T14:12:12Z</time>
      </trkpt>
      <trkpt lat="47.21472" lon="6.19842">
        <ele>447.414</ele>
        <time>2022-10-10T14:12:13Z</time>
      </trkpt>
      <trkpt lat="47.21469" lon="6.19844">
        <ele>447.409</ele>
        <time>2022-10-10T14:12:14Z</time>
      </trkpt>
      <trkpt lat="47.21465" lon="6.19849">
        <ele>447.474</ele>
        <time>2022-10-10T14:12:15Z</time>
      </trkpt>
      <trkpt lat="47.21462" lon="6.19852">
        <ele>447.424</ele>
        <time>2022-10-10T14:12:16Z</time>
      </trkpt>
      <trkpt lat="47.21456" lon="6.19855">
        <ele>447.478</ele>
        <time>2022-10-10T14:12:17Z</time>
      </trkpt>
      <trkpt lat="47.21451" lon="6.19859">
        <ele>447.422</ele>
        <time>2022-10-10T14:12:18Z</time>
      </trkpt>
      <trkpt lat="47.21448" lon="6.19861">
        <ele>447.455</ele>
        <time>2022-10-10T14:12:19Z</time>
      </trkpt>
      <trkpt lat="47.21443" lon="6.19866">
        <ele>447.681</ele>
        <time>2022-10-10T14:12:20Z</time>
      </trkpt>
      <trkpt lat="47.21438" lon="6.1987">
        <ele>447.667</ele>
        <time>2022-10-10T14:12:21Z</time>
      </trkpt>
      <trkpt lat="47.21432" lon="6.19875">
        <ele>447.627</ele>
        <time>2022-10-10T14:12:22Z</time>
      </trkpt>
      <trkpt lat="47.21427" lon="6.19878">
        <ele>447.661</ele>
        <time>2022-10-10T14:12:23Z</time>
      </trkpt>
      <trkpt lat="47.21424" lon="6.19879">
        <ele>447.622</ele>
        <time>2022-10-10T14:12:24Z</time>
      </trkpt>
      <trkpt lat="47.21418" lon="6.19877">
        <ele>447.662</ele>
        <time>2022-10-10T14:12:25Z</time>
      </trkpt>
      <trkpt lat="47.21414" lon="6.19873">
        <ele>448.008</ele>
        <time>2022-10-10T14:12:26Z</time>
      </trkpt>
      <trkpt lat="47.21411" lon="6.19873">
        <ele>448.409</ele>
        <time>2022-10-10T14:12:27Z</time>
      </trkpt>
      <trkpt lat="47.21407" lon="6.19871">
        <ele>448.483</ele>
        <time>2022-10-10T14:12:28Z</time>
      </trkpt>
      <trkpt lat="47.21404" lon="6.19869">
        <ele>448.493</ele>
        <time>2022-10-10T14:12:29Z</time>
      </trkpt>
      <trkpt lat="47.214" lon="6.19866">
        <ele>448.447</ele>
        <time>2022-10-10T14:12:30Z</time>
      </trkpt>
      <trkpt lat="47.21397" lon="6.19864">
        <ele>448.411</ele>
        <time>2022-10-10T14:12:31Z</time>
      </trkpt>
      <trkpt lat="47.21394" lon="6.19862">
        <ele>448.454</ele>
        <time>2022-10-10T14:12:32Z</time>
      </trkpt>
      <trkpt lat="47.21392" lon="6.19861">
        <ele>448.48</ele>
        <time>2022-10-10T14:12:33Z</time>
      </trkpt>
      <trkpt lat="47.21389" lon="6.19858">
        <ele>448.476</ele>
        <time>2022-10-10T14:12:34Z</time>
      </trkpt>
      <trkpt lat="47.21388" lon="6.19857">
        <ele>448.826</ele>
        <time>2022-10-10T14:12:35Z</time>
      </trkpt>
      <trkpt lat="47.21387" lon="6.19856">
        <ele>448.86</ele>
        <time>2022-10-10T14:12:36Z</time>
      </trkpt>
      <trkpt lat="47.21387" lon="6.19855">
        <ele>448.871</ele>
        <time>2022-10-10T14:12:37Z</time>
      </trkpt>
      <trkpt lat="47.21387" lon="6.19855">
        <ele>448.841</ele>
        <time>2022-10-10T14:12:38Z</time>
      </trkpt>
      <trkpt lat="47.21387" lon="6.19855">
        <ele>448.815</ele>
        <time>2022-10-10T14:12:39Z</time>
      </trkpt>
      <trkpt lat="47.21387" lon="6.19855">
        <ele>448.809</ele>
        <time>2022-10-10T14:12:40Z</time>
      </trkpt>
      <trkpt lat="47.21387" lon="6.19855">
        <ele>448.648</ele>
        <time>2022-10-10T14:12:43Z</time>
      </trkpt>
      <trkpt lat="47.21387" lon="6.19855">
        <ele>448.628</ele>
        <time>2022-10-10T14:12:47Z</time>
      </trkpt>
      <trkpt lat="47.21387" lon="6.19855">
        <ele>448.682</ele>
        <time>2022-10-10T14:12:51Z</time>
      </trkpt>
      <trkpt lat="47.21387" lon="6.19855">
        <ele>448.626</ele>
        <time>2022-10-10T14:12:56Z</time>
      </trkpt>
      <trkpt lat="47.21387" lon="6.19855">
        <ele>448.679</ele>
        <time>2022-10-10T14:13:02Z</time>
      </trkpt>
      <trkpt lat="47.21387" lon="6.19855">
        <ele>448.445</ele>
        <time>2022-10-10T14:13:10Z</time>
      </trkpt>
      <trkpt lat="47.21383" lon="6.19849">
        <ele>448.231</ele>
        <time>2022-10-10T14:13:19Z</time>
      </trkpt>
      <trkpt lat="47.2137" lon="6.19835">
        <ele>447.291</ele>
        <time>2022-10-10T14:13:24Z</time>
      </trkpt>
      <trkpt lat="47.21366" lon="6.19831">
        <ele>447.255</ele>
        <time>2022-10-10T14:13:25Z</time>
      </trkpt>
      <trkpt lat="47.21363" lon="6.19828">
        <ele>447.035</ele>
        <time>2022-10-10T14:13:26Z</time>
      </trkpt>
      <trkpt lat="47.21352" lon="6.19814">
        <ele>446.886</ele>
        <time>2022-10-10T14:13:30Z</time>
      </trkpt>
      <trkpt lat="47.21346" lon="6.19806">
        <ele>446.814</ele>
        <time>2022-10-10T14:13:32Z</time>
      </trkpt>
      <trkpt lat="47.21342" lon="6.19801">
        <ele>446.409</ele>
        <time>2022-10-10T14:13:33Z</time>
      </trkpt>
      <trkpt lat="47.21336" lon="6.19793">
        <ele>446.244</ele>
        <time>2022-10-10T14:13:35Z</time>
      </trkpt>
      <trkpt lat="47.2133" lon="6.19785">
        <ele>445.864</ele>
        <time>2022-10-10T14:13:37Z</time>
      </trkpt>
      <trkpt lat="47.21326" lon="6.1978">
        <ele>445.848</ele>
        <time>2022-10-10T14:13:38Z</time>
      </trkpt>
      <trkpt lat="47.2132" lon="6.19771">
        <ele>444.642</ele>
        <time>2022-10-10T14:13:40Z</time>
      </trkpt>
      <trkpt lat="47.21316" lon="6.19766">
        <ele>444.675</ele>
        <time>2022-10-10T14:13:41Z</time>
      </trkpt>
      <trkpt lat="47.21313" lon="6.19762">
        <ele>444.441</ele>
        <time>2022-10-10T14:13:42Z</time>
      </trkpt>
      <trkpt lat="47.21309" lon="6.19756">
        <ele>444.487</ele>
        <time>2022-10-10T14:13:43Z</time>
      </trkpt>
      <trkpt lat="47.21306" lon="6.19752">
        <ele>444.427</ele>
        <time>2022-10-10T14:13:44Z</time>
      </trkpt>
      <trkpt lat="47.21304" lon="6.1975">
        <ele>444.651</ele>
        <time>2022-10-10T14:13:45Z</time>
      </trkpt>
      <trkpt lat="47.21301" lon="6.19748">
        <ele>444.679</ele>
        <time>2022-10-10T14:13:46Z</time>
      </trkpt>
      <trkpt lat="47.21299" lon="6.19748">
        <ele>444.805</ele>
        <time>2022-10-10T14:13:47Z</time>
      </trkpt>
      <trkpt lat="47.21296" lon="6.1975">
        <ele>444.825</ele>
        <time>2022-10-10T14:13:48Z</time>
      </trkpt>
      <trkpt lat="47.21295" lon="6.19753">
        <ele>445.009</ele>
        <time>2022-10-10T14:13:49Z</time>
      </trkpt>
      <trkpt lat="47.21291" lon="6.19763">
        <ele>445.468</ele>
        <time>2022-10-10T14:13:51Z</time>
      </trkpt>
      <trkpt lat="47.21289" lon="6.19769">
        <ele>445.498</ele>
        <time>2022-10-10T14:13:52Z</time>
      </trkpt>
      <trkpt lat="47.21287" lon="6.19773">
        <ele>445.642</ele>
        <time>2022-10-10T14:13:53Z</time>
      </trkpt>
      <trkpt lat="47.21285" lon="6.19778">
        <ele>445.646</ele>
        <time>2022-10-10T14:13:54Z</time>
      </trkpt>
      <trkpt lat="47.21276" lon="6.19803">
        <ele>444.869</ele>
        <time>2022-10-10T14:13:58Z</time>
      </trkpt>
      <trkpt lat="47.21273" lon="6.19811">
        <ele>443.435</ele>
        <time>2022-10-10T14:13:59Z</time>
      </trkpt>
      <trkpt lat="47.2127" lon="6.1982">
        <ele>443.431</ele>
        <time>2022-10-10T14:14:00Z</time>
      </trkpt>
      <trkpt lat="47.21266" lon="6.19829">
        <ele>443.441</ele>
        <time>2022-10-10T14:14:01Z</time>
      </trkpt>
      <trkpt lat="47.21263" lon="6.19836">
        <ele>443.465</ele>
        <time>2022-10-10T14:14:02Z</time>
      </trkpt>
      <trkpt lat="47.21261" lon="6.19841">
        <ele>443.454</ele>
        <time>2022-10-10T14:14:03Z</time>
      </trkpt>
      <trkpt lat="47.21258" lon="6.19848">
        <ele>444.256</ele>
        <time>2022-10-10T14:14:04Z</time>
      </trkpt>
      <trkpt lat="47.21254" lon="6.1986">
        <ele>445.011</ele>
        <time>2022-10-10T14:14:06Z</time>
      </trkpt>
      <trkpt lat="47.21252" lon="6.19865">
        <ele>445.209</ele>
        <time>2022-10-10T14:14:07Z</time>
      </trkpt>
      <trkpt lat="47.21249" lon="6.19871">
        <ele>446.026</ele>
        <time>2022-10-10T14:14:08Z</time>
      </trkpt>
      <trkpt lat="47.21247" lon="6.19876">
        <ele>446.276</ele>
        <time>2022-10-10T14:14:09Z</time>
      </trkpt>
      <trkpt lat="47.21244" lon="6.19882">
        <ele>446.64</ele>
        <time>2022-10-10T14:14:10Z</time>
      </trkpt>
      <trkpt lat="47.21241" lon="6.19887">
        <ele>447.084</ele>
        <time>2022-10-10T14:14:11Z</time>
      </trkpt>
      <trkpt lat="47.2124" lon="6.19891">
        <ele>447.427</ele>
        <time>2022-10-10T14:14:12Z</time>
      </trkpt>
      <trkpt lat="47.21237" lon="6.19897">
        <ele>447.653</ele>
        <time>2022-10-10T14:14:13Z</time>
      </trkpt>
      <trkpt lat="47.21236" lon="6.19901">
        <ele>448.279</ele>
        <time>2022-10-10T14:14:14Z</time>
      </trkpt>
      <trkpt lat="47.21234" lon="6.19906">
        <ele>448.439</ele>
        <time>2022-10-10T14:14:15Z</time>
      </trkpt>
      <trkpt lat="47.21232" lon="6.1991">
        <ele>448.653</ele>
        <time>2022-10-10T14:14:16Z</time>
      </trkpt>
      <trkpt lat="47.21229" lon="6.19914">
        <ele>448.852</ele>
        <time>2022-10-10T14:14:17Z</time>
      </trkpt>
      <trkpt lat="47.21225" lon="6.19915">
        <ele>449.453</ele>
        <time>2022-10-10T14:14:18Z</time>
      </trkpt>
      <trkpt lat="47.21221" lon="6.19914">
        <ele>449.408</ele>
        <time>2022-10-10T14:14:19Z</time>
      </trkpt>
      <trkpt lat="47.21218" lon="6.1991">
        <ele>449.409</ele>
        <time>2022-10-10T14:14:20Z</time>
      </trkpt>
      <trkpt lat="47.21216" lon="6.19905">
        <ele>449.836</ele>
        <time>2022-10-10T14:14:21Z</time>
      </trkpt>
      <trkpt lat="47.21213" lon="6.199">
        <ele>449.836</ele>
        <time>2022-10-10T14:14:22Z</time>
      </trkpt>
      <trkpt lat="47.2121" lon="6.19894">
        <ele>449.82</ele>
        <time>2022-10-10T14:14:23Z</time>
      </trkpt>
      <trkpt lat="47.21208" lon="6.19888">
        <ele>449.854</ele>
        <time>2022-10-10T14:14:24Z</time>
      </trkpt>
      <trkpt lat="47.21206" lon="6.19882">
        <ele>449.817</ele>
        <time>2022-10-10T14:14:25Z</time>
      </trkpt>
      <trkpt lat="47.21203" lon="6.19874">
        <ele>449.833</ele>
        <time>2022-10-10T14:14:26Z</time>
      </trkpt>
      <trkpt lat="47.212" lon="6.19868">
        <ele>449.899</ele>
        <time>2022-10-10T14:14:27Z</time>
      </trkpt>
      <trkpt lat="47.21197" lon="6.19862">
        <ele>449.419</ele>
        <time>2022-10-10T14:14:28Z</time>
      </trkpt>
      <trkpt lat="47.21194" lon="6.19857">
        <ele>449.473</ele>
        <time>2022-10-10T14:14:29Z</time>
      </trkpt>
      <trkpt lat="47.2119" lon="6.19853">
        <ele>449.433</ele>
        <time>2022-10-10T14:14:30Z</time>
      </trkpt>
      <trkpt lat="47.21185" lon="6.19848">
        <ele>449.423</ele>
        <time>2022-10-10T14:14:31Z</time>
      </trkpt>
      <trkpt lat="47.21181" lon="6.19844">
        <ele>450.015</ele>
        <time>2022-10-10T14:14:32Z</time>
      </trkpt>
      <trkpt lat="47.21176" lon="6.19842">
        <ele>450.409</ele>
        <time>2022-10-10T14:14:33Z</time>
      </trkpt>
      <trkpt lat="47.21173" lon="6.1984">
        <ele>450.654</ele>
        <time>2022-10-10T14:14:34Z</time>
      </trkpt>
      <trkpt lat="47.21168" lon="6.19837">
        <ele>451.074</ele>
        <time>2022-10-10T14:14:35Z</time>
      </trkpt>
      <trkpt lat="47.21163" lon="6.19834">
        <ele>451.078</ele>
        <time>2022-10-10T14:14:36Z</time>
      </trkpt>
      <trkpt lat="47.21158" lon="6.1983">
        <ele>451.642</ele>
        <time>2022-10-10T14:14:37Z</time>
      </trkpt>
      <trkpt lat="47.21153" lon="6.19827">
        <ele>451.635</ele>
        <time>2022-10-10T14:14:38Z</time>
      </trkpt>
      <trkpt lat="47.21149" lon="6.19825">
        <ele>452.091</ele>
        <time>2022-10-10T14:14:39Z</time>
      </trkpt>
      <trkpt lat="47.21144" lon="6.19822">
        <ele>452.687</ele>
        <time>2022-10-10T14:14:40Z</time>
      </trkpt>
      <trkpt lat="47.21139" lon="6.1982">
        <ele>453.287</ele>
        <time>2022-10-10T14:14:41Z</time>
      </trkpt>
      <trkpt lat="47.21134" lon="6.19818">
        <ele>454.061</ele>
        <time>2022-10-10T14:14:42Z</time>
      </trkpt>
      <trkpt lat="47.2113" lon="6.19816">
        <ele>454.252</ele>
        <time>2022-10-10T14:14:43Z</time>
      </trkpt>
      <trkpt lat="47.21125" lon="6.19815">
        <ele>454.453</ele>
        <time>2022-10-10T14:14:44Z</time>
      </trkpt>
      <trkpt lat="47.21121" lon="6.19813">
        <ele>454.808</ele>
        <time>2022-10-10T14:14:45Z</time>
      </trkpt>
      <trkpt lat="47.21115" lon="6.1981">
        <ele>455.609</ele>
        <time>2022-10-10T14:14:46Z</time>
      </trkpt>
      <trkpt lat="47.2111" lon="6.19809">
        <ele>455.876</ele>
        <time>2022-10-10T14:14:47Z</time>
      </trkpt>
      <trkpt lat="47.21106" lon="6.19807">
        <ele>456.036</ele>
        <time>2022-10-10T14:14:48Z</time>
      </trkpt>
      <trkpt lat="47.21101" lon="6.19805">
        <ele>456.03</ele>
        <time>2022-10-10T14:14:49Z</time>
      </trkpt>
      <trkpt lat="47.21095" lon="6.19804">
        <ele>456.444</ele>
        <time>2022-10-10T14:14:50Z</time>
      </trkpt>
      <trkpt lat="47.2109" lon="6.19803">
        <ele>456.877</ele>
        <time>2022-10-10T14:14:51Z</time>
      </trkpt>
      <trkpt lat="47.21087" lon="6.19803">
        <ele>456.823</ele>
        <time>2022-10-10T14:14:52Z</time>
      </trkpt>
      <trkpt lat="47.21081" lon="6.19803">
        <ele>457.029</ele>
        <time>2022-10-10T14:14:53Z</time>
      </trkpt>
      <trkpt lat="47.21076" lon="6.19802">
        <ele>457.489</ele>
        <time>2022-10-10T14:14:54Z</time>
      </trkpt>
      <trkpt lat="47.2107" lon="6.19801">
        <ele>457.673</ele>
        <time>2022-10-10T14:14:55Z</time>
      </trkpt>
      <trkpt lat="47.21064" lon="6.19801">
        <ele>457.696</ele>
        <time>2022-10-10T14:14:56Z</time>
      </trkpt>
      <trkpt lat="47.2106" lon="6.198">
        <ele>458.231</ele>
        <time>2022-10-10T14:14:57Z</time>
      </trkpt>
      <trkpt lat="47.21055" lon="6.198">
        <ele>458.624</ele>
        <time>2022-10-10T14:14:58Z</time>
      </trkpt>
      <trkpt lat="47.21049" lon="6.19798">
        <ele>459.409</ele>
        <time>2022-10-10T14:14:59Z</time>
      </trkpt>
      <trkpt lat="47.21043" lon="6.19798">
        <ele>459.66</ele>
        <time>2022-10-10T14:15:00Z</time>
      </trkpt>
      <trkpt lat="47.21039" lon="6.19798">
        <ele>459.88</ele>
        <time>2022-10-10T14:15:01Z</time>
      </trkpt>
      <trkpt lat="47.21033" lon="6.19797">
        <ele>460.054</ele>
        <time>2022-10-10T14:15:02Z</time>
      </trkpt>
      <trkpt lat="47.21027" lon="6.19796">
        <ele>460.458</ele>
        <time>2022-10-10T14:15:03Z</time>
      </trkpt>
      <trkpt lat="47.21021" lon="6.19795">
        <ele>460.691</ele>
        <time>2022-10-10T14:15:04Z</time>
      </trkpt>
      <trkpt lat="47.21015" lon="6.19795">
        <ele>460.657</ele>
        <time>2022-10-10T14:15:05Z</time>
      </trkpt>
      <trkpt lat="47.21011" lon="6.19794">
        <ele>460.843</ele>
        <time>2022-10-10T14:15:06Z</time>
      </trkpt>
      <trkpt lat="47.21004" lon="6.19794">
        <ele>460.833</ele>
        <time>2022-10-10T14:15:07Z</time>
      </trkpt>
      <trkpt lat="47.20998" lon="6.19793">
        <ele>460.857</ele>
        <time>2022-10-10T14:15:08Z</time>
      </trkpt>
      <trkpt lat="47.20993" lon="6.19792">
        <ele>461.447</ele>
        <time>2022-10-10T14:15:09Z</time>
      </trkpt>
      <trkpt lat="47.20988" lon="6.19791">
        <ele>461.829</ele>
        <time>2022-10-10T14:15:10Z</time>
      </trkpt>
      <trkpt lat="47.20982" lon="6.19788">
        <ele>462.221</ele>
        <time>2022-10-10T14:15:11Z</time>
      </trkpt>
      <trkpt lat="47.20976" lon="6.19786">
        <ele>462.209</ele>
        <time>2022-10-10T14:15:12Z</time>
      </trkpt>
      <trkpt lat="47.20971" lon="6.19784">
        <ele>462.665</ele>
        <time>2022-10-10T14:15:13Z</time>
      </trkpt>
      <trkpt lat="47.20966" lon="6.19782">
        <ele>463.035</ele>
        <time>2022-10-10T14:15:14Z</time>
      </trkpt>
      <trkpt lat="47.20961" lon="6.1978">
        <ele>463.449</ele>
        <time>2022-10-10T14:15:15Z</time>
      </trkpt>
      <trkpt lat="47.20954" lon="6.19777">
        <ele>463.633</ele>
        <time>2022-10-10T14:15:16Z</time>
      </trkpt>
      <trkpt lat="47.20949" lon="6.19775">
        <ele>463.656</ele>
        <time>2022-10-10T14:15:17Z</time>
      </trkpt>
      <trkpt lat="47.20945" lon="6.19772">
        <ele>464.062</ele>
        <time>2022-10-10T14:15:18Z</time>
      </trkpt>
      <trkpt lat="47.2094" lon="6.19769">
        <ele>464.468</ele>
        <time>2022-10-10T14:15:19Z</time>
      </trkpt>
      <trkpt lat="47.20934" lon="6.19765">
        <ele>464.478</ele>
        <time>2022-10-10T14:15:20Z</time>
      </trkpt>
      <trkpt lat="47.20929" lon="6.19761">
        <ele>464.632</ele>
        <time>2022-10-10T14:15:21Z</time>
      </trkpt>
      <trkpt lat="47.20924" lon="6.19758">
        <ele>464.885</ele>
        <time>2022-10-10T14:15:22Z</time>
      </trkpt>
      <trkpt lat="47.20919" lon="6.19755">
        <ele>464.889</ele>
        <time>2022-10-10T14:15:23Z</time>
      </trkpt>
      <trkpt lat="47.20915" lon="6.19753">
        <ele>464.817</ele>
        <time>2022-10-10T14:15:24Z</time>
      </trkpt>
      <trkpt lat="47.20908" lon="6.19751">
        <ele>465.209</ele>
        <time>2022-10-10T14:15:25Z</time>
      </trkpt>
      <trkpt lat="47.20903" lon="6.1975">
        <ele>465.469</ele>
        <time>2022-10-10T14:15:26Z</time>
      </trkpt>
      <trkpt lat="47.20897" lon="6.1975">
        <ele>465.669</ele>
        <time>2022-10-10T14:15:27Z</time>
      </trkpt>
      <trkpt lat="47.20893" lon="6.19751">
        <ele>465.613</ele>
        <time>2022-10-10T14:15:28Z</time>
      </trkpt>
      <trkpt lat="47.20887" lon="6.19753">
        <ele>465.877</ele>
        <time>2022-10-10T14:15:29Z</time>
      </trkpt>
      <trkpt lat="47.20882" lon="6.19755">
        <ele>466.62</ele>
        <time>2022-10-10T14:15:30Z</time>
      </trkpt>
      <trkpt lat="47.20875" lon="6.19757">
        <ele>466.846</ele>
        <time>2022-10-10T14:15:31Z</time>
      </trkpt>
      <trkpt lat="47.2087" lon="6.1976">
        <ele>467.042</ele>
        <time>2022-10-10T14:15:32Z</time>
      </trkpt>
      <trkpt lat="47.20866" lon="6.19762">
        <ele>467.022</ele>
        <time>2022-10-10T14:15:33Z</time>
      </trkpt>
      <trkpt lat="47.2086" lon="6.19764">
        <ele>467.076</ele>
        <time>2022-10-10T14:15:34Z</time>
      </trkpt>
      <trkpt lat="47.20854" lon="6.19766">
        <ele>467.098</ele>
        <time>2022-10-10T14:15:35Z</time>
      </trkpt>
      <trkpt lat="47.20849" lon="6.19768">
        <ele>467.215</ele>
        <time>2022-10-10T14:15:36Z</time>
      </trkpt>
      <trkpt lat="47.20843" lon="6.1977">
        <ele>467.226</ele>
        <time>2022-10-10T14:15:37Z</time>
      </trkpt>
      <trkpt lat="47.20836" lon="6.19771">
        <ele>467.209</ele>
        <time>2022-10-10T14:15:38Z</time>
      </trkpt>
      <trkpt lat="47.20832" lon="6.19773">
        <ele>467.28</ele>
        <time>2022-10-10T14:15:39Z</time>
      </trkpt>
      <trkpt lat="47.20826" lon="6.19774">
        <ele>467.46</ele>
        <time>2022-10-10T14:15:40Z</time>
      </trkpt>
      <trkpt lat="47.20819" lon="6.19775">
        <ele>467.484</ele>
        <time>2022-10-10T14:15:41Z</time>
      </trkpt>
      <trkpt lat="47.20814" lon="6.19776">
        <ele>467.438</ele>
        <time>2022-10-10T14:15:42Z</time>
      </trkpt>
      <trkpt lat="47.20807" lon="6.19777">
        <ele>467.851</ele>
        <time>2022-10-10T14:15:43Z</time>
      </trkpt>
      <trkpt lat="47.20801" lon="6.19778">
        <ele>468.077</ele>
        <time>2022-10-10T14:15:44Z</time>
      </trkpt>
      <trkpt lat="47.20795" lon="6.1978">
        <ele>468.053</ele>
        <time>2022-10-10T14:15:45Z</time>
      </trkpt>
      <trkpt lat="47.2079" lon="6.19782">
        <ele>468.043</ele>
        <time>2022-10-10T14:15:46Z</time>
      </trkpt>
      <trkpt lat="47.20784" lon="6.19785">
        <ele>468.087</ele>
        <time>2022-10-10T14:15:47Z</time>
      </trkpt>
      <trkpt lat="47.20777" lon="6.19787">
        <ele>468.253</ele>
        <time>2022-10-10T14:15:48Z</time>
      </trkpt>
      <trkpt lat="47.2077" lon="6.19789">
        <ele>468.404</ele>
        <time>2022-10-10T14:15:49Z</time>
      </trkpt>
      <trkpt lat="47.20764" lon="6.19791">
        <ele>468.614</ele>
        <time>2022-10-10T14:15:50Z</time>
      </trkpt>
      <trkpt lat="47.2076" lon="6.19793">
        <ele>468.609</ele>
        <time>2022-10-10T14:15:51Z</time>
      </trkpt>
      <trkpt lat="47.20754" lon="6.19795">
        <ele>469.286</ele>
        <time>2022-10-10T14:15:52Z</time>
      </trkpt>
      <trkpt lat="47.20749" lon="6.19796">
        <ele>469.466</ele>
        <time>2022-10-10T14:15:53Z</time>
      </trkpt>
      <trkpt lat="47.20745" lon="6.19798">
        <ele>470.45</ele>
        <time>2022-10-10T14:15:54Z</time>
      </trkpt>
      <trkpt lat="47.20742" lon="6.198">
        <ele>472.084</ele>
        <time>2022-10-10T14:15:55Z</time>
      </trkpt>
      <trkpt lat="47.20738" lon="6.19802">
        <ele>472.827</ele>
        <time>2022-10-10T14:15:56Z</time>
      </trkpt>
      <trkpt lat="47.20735" lon="6.19803">
        <ele>474.263</ele>
        <time>2022-10-10T14:15:57Z</time>
      </trkpt>
      <trkpt lat="47.20731" lon="6.19805">
        <ele>474.299</ele>
        <time>2022-10-10T14:15:58Z</time>
      </trkpt>
      <trkpt lat="47.20728" lon="6.19807">
        <ele>474.879</ele>
        <time>2022-10-10T14:15:59Z</time>
      </trkpt>
      <trkpt lat="47.20725" lon="6.19809">
        <ele>475.063</ele>
        <time>2022-10-10T14:16:00Z</time>
      </trkpt>
      <trkpt lat="47.20721" lon="6.19811">
        <ele>475.445</ele>
        <time>2022-10-10T14:16:01Z</time>
      </trkpt>
      <trkpt lat="47.20717" lon="6.19812">
        <ele>475.847</ele>
        <time>2022-10-10T14:16:02Z</time>
      </trkpt>
      <trkpt lat="47.20712" lon="6.19814">
        <ele>476.011</ele>
        <time>2022-10-10T14:16:03Z</time>
      </trkpt>
      <trkpt lat="47.20709" lon="6.19815">
        <ele>476.209</ele>
        <time>2022-10-10T14:16:04Z</time>
      </trkpt>
      <trkpt lat="47.20705" lon="6.19815">
        <ele>476.835</ele>
        <time>2022-10-10T14:16:05Z</time>
      </trkpt>
      <trkpt lat="47.207" lon="6.19815">
        <ele>476.825</ele>
        <time>2022-10-10T14:16:06Z</time>
      </trkpt>
      <trkpt lat="47.20695" lon="6.19815">
        <ele>477.639</ele>
        <time>2022-10-10T14:16:07Z</time>
      </trkpt>
      <trkpt lat="47.2069" lon="6.19814">
        <ele>477.653</ele>
        <time>2022-10-10T14:16:08Z</time>
      </trkpt>
      <trkpt lat="47.20687" lon="6.19814">
        <ele>477.886</ele>
        <time>2022-10-10T14:16:09Z</time>
      </trkpt>
      <trkpt lat="47.20681" lon="6.19813">
        <ele>478.242</ele>
        <time>2022-10-10T14:16:10Z</time>
      </trkpt>
      <trkpt lat="47.20677" lon="6.19812">
        <ele>478.438</ele>
        <time>2022-10-10T14:16:11Z</time>
      </trkpt>
      <trkpt lat="47.20673" lon="6.19811">
        <ele>478.628</ele>
        <time>2022-10-10T14:16:12Z</time>
      </trkpt>
      <trkpt lat="47.20669" lon="6.19809">
        <ele>479.072</ele>
        <time>2022-10-10T14:16:13Z</time>
      </trkpt>
      <trkpt lat="47.20664" lon="6.19807">
        <ele>479.279</ele>
        <time>2022-10-10T14:16:14Z</time>
      </trkpt>
      <trkpt lat="47.2066" lon="6.19805">
        <ele>479.405</ele>
        <time>2022-10-10T14:16:15Z</time>
      </trkpt>
      <trkpt lat="47.20654" lon="6.19803">
        <ele>479.825</ele>
        <time>2022-10-10T14:16:16Z</time>
      </trkpt>
      <trkpt lat="47.2065" lon="6.198">
        <ele>480.009</ele>
        <time>2022-10-10T14:16:17Z</time>
      </trkpt>
      <trkpt lat="47.20646" lon="6.19798">
        <ele>480.248</ele>
        <time>2022-10-10T14:16:18Z</time>
      </trkpt>
      <trkpt lat="47.20641" lon="6.19795">
        <ele>480.238</ele>
        <time>2022-10-10T14:16:19Z</time>
      </trkpt>
      <trkpt lat="47.20636" lon="6.19793">
        <ele>480.492</ele>
        <time>2022-10-10T14:16:20Z</time>
      </trkpt>
      <trkpt lat="47.20632" lon="6.19791">
        <ele>480.656</ele>
        <time>2022-10-10T14:16:21Z</time>
      </trkpt>
      <trkpt lat="47.20627" lon="6.19789">
        <ele>480.629</ele>
        <time>2022-10-10T14:16:22Z</time>
      </trkpt>
      <trkpt lat="47.20622" lon="6.19787">
        <ele>481.055</ele>
        <time>2022-10-10T14:16:23Z</time>
      </trkpt>
      <trkpt lat="47.20617" lon="6.19785">
        <ele>481.271</ele>
        <time>2022-10-10T14:16:24Z</time>
      </trkpt>
      <trkpt lat="47.20611" lon="6.19784">
        <ele>481.881</ele>
        <time>2022-10-10T14:16:25Z</time>
      </trkpt>
      <trkpt lat="47.20606" lon="6.19783">
        <ele>482.075</ele>
        <time>2022-10-10T14:16:26Z</time>
      </trkpt>
      <trkpt lat="47.20602" lon="6.19783">
        <ele>482.089</ele>
        <time>2022-10-10T14:16:27Z</time>
      </trkpt>
      <trkpt lat="47.20596" lon="6.19784">
        <ele>482.006</ele>
        <time>2022-10-10T14:16:28Z</time>
      </trkpt>
      <trkpt lat="47.20591" lon="6.19786">
        <ele>482.026</ele>
        <time>2022-10-10T14:16:29Z</time>
      </trkpt>
      <trkpt lat="47.20587" lon="6.19789">
        <ele>482.209</ele>
        <time>2022-10-10T14:16:30Z</time>
      </trkpt>
      <trkpt lat="47.20583" lon="6.19792">
        <ele>482.219</ele>
        <time>2022-10-10T14:16:31Z</time>
      </trkpt>
      <trkpt lat="47.20578" lon="6.19796">
        <ele>481.669</ele>
        <time>2022-10-10T14:16:32Z</time>
      </trkpt>
      <trkpt lat="47.20574" lon="6.19801">
        <ele>481.673</ele>
        <time>2022-10-10T14:16:33Z</time>
      </trkpt>
      <trkpt lat="47.2057" lon="6.19806">
        <ele>481.617</ele>
        <time>2022-10-10T14:16:34Z</time>
      </trkpt>
      <trkpt lat="47.20564" lon="6.19812">
        <ele>481.61</ele>
        <time>2022-10-10T14:16:35Z</time>
      </trkpt>
      <trkpt lat="47.2056" lon="6.19817">
        <ele>481.676</ele>
        <time>2022-10-10T14:16:36Z</time>
      </trkpt>
      <trkpt lat="47.20554" lon="6.19824">
        <ele>481.672</ele>
        <time>2022-10-10T14:16:37Z</time>
      </trkpt>
      <trkpt lat="47.20549" lon="6.1983">
        <ele>480.632</ele>
        <time>2022-10-10T14:16:38Z</time>
      </trkpt>
      <trkpt lat="47.20545" lon="6.19836">
        <ele>480.286</ele>
        <time>2022-10-10T14:16:39Z</time>
      </trkpt>
      <trkpt lat="47.2054" lon="6.19842">
        <ele>479.836</ele>
        <time>2022-10-10T14:16:40Z</time>
      </trkpt>
      <trkpt lat="47.20536" lon="6.19849">
        <ele>479.017</ele>
        <time>2022-10-10T14:16:41Z</time>
      </trkpt>
      <trkpt lat="47.20522" lon="6.1987">
        <ele>478.818</ele>
        <time>2022-10-10T14:16:44Z</time>
      </trkpt>
      <trkpt lat="47.20518" lon="6.19876">
        <ele>478.809</ele>
        <time>2022-10-10T14:16:45Z</time>
      </trkpt>
      <trkpt lat="47.20514" lon="6.19883">
        <ele>478.824</ele>
        <time>2022-10-10T14:16:46Z</time>
      </trkpt>
      <trkpt lat="47.20509" lon="6.1989">
        <ele>478.834</ele>
        <time>2022-10-10T14:16:47Z</time>
      </trkpt>
      <trkpt lat="47.20501" lon="6.19902">
        <ele>478.668</ele>
        <time>2022-10-10T14:16:49Z</time>
      </trkpt>
      <trkpt lat="47.20497" lon="6.19909">
        <ele>478.672</ele>
        <time>2022-10-10T14:16:50Z</time>
      </trkpt>
      <trkpt lat="47.20477" lon="6.19942">
        <ele>480.055</ele>
        <time>2022-10-10T14:16:55Z</time>
      </trkpt>
      <trkpt lat="47.20468" lon="6.19954">
        <ele>480.261</ele>
        <time>2022-10-10T14:16:57Z</time>
      </trkpt>
      <trkpt lat="47.20442" lon="6.1999">
        <ele>480.657</ele>
        <time>2022-10-10T14:17:03Z</time>
      </trkpt>
      <trkpt lat="47.20437" lon="6.19996">
        <ele>480.657</ele>
        <time>2022-10-10T14:17:04Z</time>
      </trkpt>
      <trkpt lat="47.20433" lon="6.20002">
        <ele>480.661</ele>
        <time>2022-10-10T14:17:05Z</time>
      </trkpt>
      <trkpt lat="47.20415" lon="6.2003">
        <ele>481.065</ele>
        <time>2022-10-10T14:17:09Z</time>
      </trkpt>
      <trkpt lat="47.20399" lon="6.20057">
        <ele>481.468</ele>
        <time>2022-10-10T14:17:13Z</time>
      </trkpt>
      <trkpt lat="47.20388" lon="6.20079">
        <ele>481.614</ele>
        <time>2022-10-10T14:17:16Z</time>
      </trkpt>
      <trkpt lat="47.20379" lon="6.20103">
        <ele>481.609</ele>
        <time>2022-10-10T14:17:19Z</time>
      </trkpt>
      <trkpt lat="47.20374" lon="6.20119">
        <ele>481.897</ele>
        <time>2022-10-10T14:17:21Z</time>
      </trkpt>
      <trkpt lat="47.20356" lon="6.20156">
        <ele>481.887</ele>
        <time>2022-10-10T14:17:26Z</time>
      </trkpt>
      <trkpt lat="47.20351" lon="6.20163">
        <ele>481.281</ele>
        <time>2022-10-10T14:17:27Z</time>
      </trkpt>
      <trkpt lat="47.20327" lon="6.20189">
        <ele>479.825</ele>
        <time>2022-10-10T14:17:31Z</time>
      </trkpt>
      <trkpt lat="47.2032" lon="6.20196">
        <ele>479.488</ele>
        <time>2022-10-10T14:17:32Z</time>
      </trkpt>
      <trkpt lat="47.20314" lon="6.20203">
        <ele>478.614</ele>
        <time>2022-10-10T14:17:33Z</time>
      </trkpt>
      <trkpt lat="47.20308" lon="6.2021">
        <ele>478.68</ele>
        <time>2022-10-10T14:17:34Z</time>
      </trkpt>
      <trkpt lat="47.20304" lon="6.20214">
        <ele>478.68</ele>
        <time>2022-10-10T14:17:35Z</time>
      </trkpt>
      <trkpt lat="47.20296" lon="6.20219">
        <ele>478.464</ele>
        <time>2022-10-10T14:17:36Z</time>
      </trkpt>
      <trkpt lat="47.2029" lon="6.20223">
        <ele>478.425</ele>
        <time>2022-10-10T14:17:37Z</time>
      </trkpt>
      <trkpt lat="47.20284" lon="6.20225">
        <ele>478.426</ele>
        <time>2022-10-10T14:17:38Z</time>
      </trkpt>
      <trkpt lat="47.20279" lon="6.20224">
        <ele>478.208</ele>
        <time>2022-10-10T14:17:39Z</time>
      </trkpt>
      <trkpt lat="47.20275" lon="6.20222">
        <ele>478.209</ele>
        <time>2022-10-10T14:17:40Z</time>
      </trkpt>
      <trkpt lat="47.20271" lon="6.20217">
        <ele>478.453</ele>
        <time>2022-10-10T14:17:41Z</time>
      </trkpt>
      <trkpt lat="47.2027" lon="6.20212">
        <ele>478.463</ele>
        <time>2022-10-10T14:17:42Z</time>
      </trkpt>
      <trkpt lat="47.20269" lon="6.20206">
        <ele>478.457</ele>
        <time>2022-10-10T14:17:43Z</time>
      </trkpt>
      <trkpt lat="47.20269" lon="6.20201">
        <ele>478.421</ele>
        <time>2022-10-10T14:17:44Z</time>
      </trkpt>
      <trkpt lat="47.20269" lon="6.20195">
        <ele>478.424</ele>
        <time>2022-10-10T14:17:45Z</time>
      </trkpt>
      <trkpt lat="47.20268" lon="6.20191">
        <ele>478.44</ele>
        <time>2022-10-10T14:17:46Z</time>
      </trkpt>
      <trkpt lat="47.20266" lon="6.20188">
        <ele>478.496</ele>
        <time>2022-10-10T14:17:47Z</time>
      </trkpt>
      <trkpt lat="47.20264" lon="6.20185">
        <ele>477.816</ele>
        <time>2022-10-10T14:17:48Z</time>
      </trkpt>
      <trkpt lat="47.2026" lon="6.20182">
        <ele>477.64</ele>
        <time>2022-10-10T14:17:49Z</time>
      </trkpt>
      <trkpt lat="47.20254" lon="6.20178">
        <ele>477.299</ele>
        <time>2022-10-10T14:17:50Z</time>
      </trkpt>
      <trkpt lat="47.2025" lon="6.20175">
        <ele>476.407</ele>
        <time>2022-10-10T14:17:51Z</time>
      </trkpt>
      <trkpt lat="47.20234" lon="6.20163">
        <ele>475.227</ele>
        <time>2022-10-10T14:17:54Z</time>
      </trkpt>
      <trkpt lat="47.20228" lon="6.20158">
        <ele>474.009</ele>
        <time>2022-10-10T14:17:55Z</time>
      </trkpt>
      <trkpt lat="47.20223" lon="6.20155">
        <ele>474.02</ele>
        <time>2022-10-10T14:17:56Z</time>
      </trkpt>
      <trkpt lat="47.20218" lon="6.20154">
        <ele>473.82</ele>
        <time>2022-10-10T14:17:57Z</time>
      </trkpt>
      <trkpt lat="47.20212" lon="6.20152">
        <ele>473.674</ele>
        <time>2022-10-10T14:17:58Z</time>
      </trkpt>
      <trkpt lat="47.20205" lon="6.20149">
        <ele>473.648</ele>
        <time>2022-10-10T14:17:59Z</time>
      </trkpt>
      <trkpt lat="47.20193" lon="6.20143">
        <ele>473.031</ele>
        <time>2022-10-10T14:18:01Z</time>
      </trkpt>
      <trkpt lat="47.20189" lon="6.2014">
        <ele>472.837</ele>
        <time>2022-10-10T14:18:02Z</time>
      </trkpt>
      <trkpt lat="47.20181" lon="6.20137">
        <ele>472.883</ele>
        <time>2022-10-10T14:18:03Z</time>
      </trkpt>
      <trkpt lat="47.20175" lon="6.20134">
        <ele>472.653</ele>
        <time>2022-10-10T14:18:04Z</time>
      </trkpt>
      <trkpt lat="47.20168" lon="6.20132">
        <ele>472.457</ele>
        <time>2022-10-10T14:18:05Z</time>
      </trkpt>
      <trkpt lat="47.20158" lon="6.20128">
        <ele>472.496</ele>
        <time>2022-10-10T14:18:07Z</time>
      </trkpt>
      <trkpt lat="47.20151" lon="6.20125">
        <ele>472.431</ele>
        <time>2022-10-10T14:18:08Z</time>
      </trkpt>
      <trkpt lat="47.20145" lon="6.20124">
        <ele>472.424</ele>
        <time>2022-10-10T14:18:09Z</time>
      </trkpt>
      <trkpt lat="47.20141" lon="6.20123">
        <ele>472.409</ele>
        <time>2022-10-10T14:18:10Z</time>
      </trkpt>
      <trkpt lat="47.20129" lon="6.20118">
        <ele>473.07</ele>
        <time>2022-10-10T14:18:12Z</time>
      </trkpt>
      <trkpt lat="47.20123" lon="6.20116">
        <ele>473.02</ele>
        <time>2022-10-10T14:18:13Z</time>
      </trkpt>
      <trkpt lat="47.20118" lon="6.20113">
        <ele>473.094</ele>
        <time>2022-10-10T14:18:14Z</time>
      </trkpt>
      <trkpt lat="47.2011" lon="6.20108">
        <ele>472.688</ele>
        <time>2022-10-10T14:18:16Z</time>
      </trkpt>
      <trkpt lat="47.20103" lon="6.20105">
        <ele>472.421</ele>
        <time>2022-10-10T14:18:17Z</time>
      </trkpt>
      <trkpt lat="47.20092" lon="6.20103">
        <ele>472.017</ele>
        <time>2022-10-10T14:18:19Z</time>
      </trkpt>
      <trkpt lat="47.20087" lon="6.20104">
        <ele>471.623</ele>
        <time>2022-10-10T14:18:20Z</time>
      </trkpt>
      <trkpt lat="47.20081" lon="6.20105">
        <ele>471.643</ele>
        <time>2022-10-10T14:18:21Z</time>
      </trkpt>
      <trkpt lat="47.20076" lon="6.20107">
        <ele>471.437</ele>
        <time>2022-10-10T14:18:22Z</time>
      </trkpt>
      <trkpt lat="47.20072" lon="6.20111">
        <ele>471.488</ele>
        <time>2022-10-10T14:18:23Z</time>
      </trkpt>
      <trkpt lat="47.20068" lon="6.20115">
        <ele>471.624</ele>
        <time>2022-10-10T14:18:24Z</time>
      </trkpt>
      <trkpt lat="47.20064" lon="6.20119">
        <ele>471.626</ele>
        <time>2022-10-10T14:18:25Z</time>
      </trkpt>
      <trkpt lat="47.20057" lon="6.20123">
        <ele>471.609</ele>
        <time>2022-10-10T14:18:26Z</time>
      </trkpt>
      <trkpt lat="47.20053" lon="6.20126">
        <ele>471.659</ele>
        <time>2022-10-10T14:18:27Z</time>
      </trkpt>
      <trkpt lat="47.20049" lon="6.20128">
        <ele>472.669</ele>
        <time>2022-10-10T14:18:28Z</time>
      </trkpt>
      <trkpt lat="47.20047" lon="6.20129">
        <ele>472.873</ele>
        <time>2022-10-10T14:18:29Z</time>
      </trkpt>
      <trkpt lat="47.2004" lon="6.20134">
        <ele>473.237</ele>
        <time>2022-10-10T14:18:31Z</time>
      </trkpt>
      <trkpt lat="47.20037" lon="6.20139">
        <ele>473.23</ele>
        <time>2022-10-10T14:18:32Z</time>
      </trkpt>
      <trkpt lat="47.20034" lon="6.20141">
        <ele>473.266</ele>
        <time>2022-10-10T14:18:33Z</time>
      </trkpt>
      <trkpt lat="47.20031" lon="6.20143">
        <ele>473.282</ele>
        <time>2022-10-10T14:18:34Z</time>
      </trkpt>
      <trkpt lat="47.20025" lon="6.20146">
        <ele>473.212</ele>
        <time>2022-10-10T14:18:35Z</time>
      </trkpt>
      <trkpt lat="47.20018" lon="6.20145">
        <ele>473.646</ele>
        <time>2022-10-10T14:18:37Z</time>
      </trkpt>
      <trkpt lat="47.20015" lon="6.20143">
        <ele>473.858</ele>
        <time>2022-10-10T14:18:38Z</time>
      </trkpt>
      <trkpt lat="47.20011" lon="6.20142">
        <ele>473.852</ele>
        <time>2022-10-10T14:18:39Z</time>
      </trkpt>
      <trkpt lat="47.20003" lon="6.20137">
        <ele>473.817</ele>
        <time>2022-10-10T14:18:41Z</time>
      </trkpt>
      <trkpt lat="47.2" lon="6.20134">
        <ele>473.809</ele>
        <time>2022-10-10T14:18:42Z</time>
      </trkpt>
      <trkpt lat="47.19982" lon="6.20115">
        <ele>473.686</ele>
        <time>2022-10-10T14:18:46Z</time>
      </trkpt>
      <trkpt lat="47.19979" lon="6.20112">
        <ele>474.096</ele>
        <time>2022-10-10T14:18:47Z</time>
      </trkpt>
      <trkpt lat="47.19975" lon="6.20108">
        <ele>474.43</ele>
        <time>2022-10-10T14:18:48Z</time>
      </trkpt>
      <trkpt lat="47.19971" lon="6.20105">
        <ele>474.474</ele>
        <time>2022-10-10T14:18:49Z</time>
      </trkpt>
      <trkpt lat="47.19968" lon="6.20103">
        <ele>475.037</ele>
        <time>2022-10-10T14:18:50Z</time>
      </trkpt>
      <trkpt lat="47.19964" lon="6.20102">
        <ele>475.833</ele>
        <time>2022-10-10T14:18:51Z</time>
      </trkpt>
      <trkpt lat="47.19961" lon="6.201">
        <ele>477.079</ele>
        <time>2022-10-10T14:18:52Z</time>
      </trkpt>
      <trkpt lat="47.19958" lon="6.20097">
        <ele>477.479</ele>
        <time>2022-10-10T14:18:53Z</time>
      </trkpt>
      <trkpt lat="47.19954" lon="6.20094">
        <ele>478.273</ele>
        <time>2022-10-10T14:18:54Z</time>
      </trkpt>
      <trkpt lat="47.19951" lon="6.20091">
        <ele>478.616</ele>
        <time>2022-10-10T14:18:55Z</time>
      </trkpt>
      <trkpt lat="47.19949" lon="6.20089">
        <ele>479.076</ele>
        <time>2022-10-10T14:18:56Z</time>
      </trkpt>
      <trkpt lat="47.19946" lon="6.20085">
        <ele>479.413</ele>
        <time>2022-10-10T14:18:57Z</time>
      </trkpt>
      <trkpt lat="47.19943" lon="6.20083">
        <ele>479.809</ele>
        <time>2022-10-10T14:18:58Z</time>
      </trkpt>
      <trkpt lat="47.19939" lon="6.20079">
        <ele>480.662</ele>
        <time>2022-10-10T14:18:59Z</time>
      </trkpt>
      <trkpt lat="47.19935" lon="6.20076">
        <ele>480.642</ele>
        <time>2022-10-10T14:19:00Z</time>
      </trkpt>
      <trkpt lat="47.19932" lon="6.20074">
        <ele>481.266</ele>
        <time>2022-10-10T14:19:01Z</time>
      </trkpt>
      <trkpt lat="47.19928" lon="6.20072">
        <ele>481.67</ele>
        <time>2022-10-10T14:19:02Z</time>
      </trkpt>
      <trkpt lat="47.19925" lon="6.20069">
        <ele>482.093</ele>
        <time>2022-10-10T14:19:03Z</time>
      </trkpt>
      <trkpt lat="47.19922" lon="6.20067">
        <ele>482.279</ele>
        <time>2022-10-10T14:19:04Z</time>
      </trkpt>
      <trkpt lat="47.19919" lon="6.20064">
        <ele>483.065</ele>
        <time>2022-10-10T14:19:05Z</time>
      </trkpt>
      <trkpt lat="47.19915" lon="6.20061">
        <ele>483.255</ele>
        <time>2022-10-10T14:19:06Z</time>
      </trkpt>
      <trkpt lat="47.19911" lon="6.20058">
        <ele>483.869</ele>
        <time>2022-10-10T14:19:07Z</time>
      </trkpt>
      <trkpt lat="47.19908" lon="6.20055">
        <ele>484.851</ele>
        <time>2022-10-10T14:19:08Z</time>
      </trkpt>
      <trkpt lat="47.19905" lon="6.20053">
        <ele>485.601</ele>
        <time>2022-10-10T14:19:09Z</time>
      </trkpt>
      <trkpt lat="47.19903" lon="6.20051">
        <ele>486.011</ele>
        <time>2022-10-10T14:19:10Z</time>
      </trkpt>
      <trkpt lat="47.199" lon="6.20048">
        <ele>486.209</ele>
        <time>2022-10-10T14:19:11Z</time>
      </trkpt>
      <trkpt lat="47.19897" lon="6.20045">
        <ele>487.266</ele>
        <time>2022-10-10T14:19:12Z</time>
      </trkpt>
      <trkpt lat="47.19895" lon="6.20043">
        <ele>487.276</ele>
        <time>2022-10-10T14:19:13Z</time>
      </trkpt>
      <trkpt lat="47.19892" lon="6.20043">
        <ele>488.25</ele>
        <time>2022-10-10T14:19:14Z</time>
      </trkpt>
      <trkpt lat="47.19887" lon="6.20042">
        <ele>489.034</ele>
        <time>2022-10-10T14:19:15Z</time>
      </trkpt>
      <trkpt lat="47.19885" lon="6.20041">
        <ele>489.447</ele>
        <time>2022-10-10T14:19:16Z</time>
      </trkpt>
      <trkpt lat="47.19881" lon="6.20038">
        <ele>489.853</ele>
        <time>2022-10-10T14:19:17Z</time>
      </trkpt>
      <trkpt lat="47.19879" lon="6.20036">
        <ele>490.239</ele>
        <time>2022-10-10T14:19:18Z</time>
      </trkpt>
      <trkpt lat="47.19876" lon="6.20034">
        <ele>490.849</ele>
        <time>2022-10-10T14:19:19Z</time>
      </trkpt>
      <trkpt lat="47.19873" lon="6.2003">
        <ele>491.023</ele>
        <time>2022-10-10T14:19:20Z</time>
      </trkpt>
      <trkpt lat="47.19871" lon="6.20026">
        <ele>491.273</ele>
        <time>2022-10-10T14:19:21Z</time>
      </trkpt>
      <trkpt lat="47.19869" lon="6.20024">
        <ele>491.885</ele>
        <time>2022-10-10T14:19:22Z</time>
      </trkpt>
      <trkpt lat="47.19866" lon="6.20021">
        <ele>492.013</ele>
        <time>2022-10-10T14:19:23Z</time>
      </trkpt>
      <trkpt lat="47.19862" lon="6.20018">
        <ele>492.209</ele>
        <time>2022-10-10T14:19:24Z</time>
      </trkpt>
      <trkpt lat="47.1986" lon="6.20016">
        <ele>492.428</ele>
        <time>2022-10-10T14:19:25Z</time>
      </trkpt>
      <trkpt lat="47.19856" lon="6.20012">
        <ele>493.088</ele>
        <time>2022-10-10T14:19:26Z</time>
      </trkpt>
      <trkpt lat="47.19853" lon="6.2001">
        <ele>493.042</ele>
        <time>2022-10-10T14:19:27Z</time>
      </trkpt>
      <trkpt lat="47.1985" lon="6.20006">
        <ele>493.246</ele>
        <time>2022-10-10T14:19:28Z</time>
      </trkpt>
      <trkpt lat="47.19845" lon="6.20001">
        <ele>493.439</ele>
        <time>2022-10-10T14:19:29Z</time>
      </trkpt>
      <trkpt lat="47.19841" lon="6.19997">
        <ele>494.095</ele>
        <time>2022-10-10T14:19:30Z</time>
      </trkpt>
      <trkpt lat="47.19837" lon="6.19995">
        <ele>494.051</ele>
        <time>2022-10-10T14:19:31Z</time>
      </trkpt>
      <trkpt lat="47.19834" lon="6.19993">
        <ele>494.271</ele>
        <time>2022-10-10T14:19:32Z</time>
      </trkpt>
      <trkpt lat="47.19829" lon="6.1999">
        <ele>494.845</ele>
        <time>2022-10-10T14:19:33Z</time>
      </trkpt>
      <trkpt lat="47.19826" lon="6.19987">
        <ele>495.236</ele>
        <time>2022-10-10T14:19:34Z</time>
      </trkpt>
      <trkpt lat="47.19822" lon="6.19984">
        <ele>495.217</ele>
        <time>2022-10-10T14:19:35Z</time>
      </trkpt>
      <trkpt lat="47.19819" lon="6.1998">
        <ele>496.218</ele>
        <time>2022-10-10T14:19:36Z</time>
      </trkpt>
      <trkpt lat="47.19815" lon="6.19977">
        <ele>496.809</ele>
        <time>2022-10-10T14:19:37Z</time>
      </trkpt>
      <trkpt lat="47.19811" lon="6.19973">
        <ele>496.834</ele>
        <time>2022-10-10T14:19:38Z</time>
      </trkpt>
      <trkpt lat="47.19807" lon="6.19969">
        <ele>496.824</ele>
        <time>2022-10-10T14:19:39Z</time>
      </trkpt>
      <trkpt lat="47.19803" lon="6.19966">
        <ele>496.618</ele>
        <time>2022-10-10T14:19:40Z</time>
      </trkpt>
      <trkpt lat="47.198" lon="6.19963">
        <ele>496.812</ele>
        <time>2022-10-10T14:19:41Z</time>
      </trkpt>
      <trkpt lat="47.19796" lon="6.1996">
        <ele>496.875</ele>
        <time>2022-10-10T14:19:42Z</time>
      </trkpt>
      <trkpt lat="47.19792" lon="6.19956">
        <ele>496.611</ele>
        <time>2022-10-10T14:19:43Z</time>
      </trkpt>
      <trkpt lat="47.19787" lon="6.19952">
        <ele>496.427</ele>
        <time>2022-10-10T14:19:44Z</time>
      </trkpt>
      <trkpt lat="47.19782" lon="6.19948">
        <ele>496.487</ele>
        <time>2022-10-10T14:19:45Z</time>
      </trkpt>
      <trkpt lat="47.19779" lon="6.19945">
        <ele>496.241</ele>
        <time>2022-10-10T14:19:46Z</time>
      </trkpt>
      <trkpt lat="47.19773" lon="6.19941">
        <ele>496.239</ele>
        <time>2022-10-10T14:19:47Z</time>
      </trkpt>
      <trkpt lat="47.19768" lon="6.19937">
        <ele>496.001</ele>
        <time>2022-10-10T14:19:48Z</time>
      </trkpt>
      <trkpt lat="47.19763" lon="6.19932">
        <ele>495.821</ele>
        <time>2022-10-10T14:19:49Z</time>
      </trkpt>
      <trkpt lat="47.1976" lon="6.19929">
        <ele>495.609</ele>
        <time>2022-10-10T14:19:50Z</time>
      </trkpt>
      <trkpt lat="47.19756" lon="6.19925">
        <ele>495.664</ele>
        <time>2022-10-10T14:19:51Z</time>
      </trkpt>
      <trkpt lat="47.19751" lon="6.19921">
        <ele>495.624</ele>
        <time>2022-10-10T14:19:52Z</time>
      </trkpt>
      <trkpt lat="47.19747" lon="6.19918">
        <ele>496.038</ele>
        <time>2022-10-10T14:19:53Z</time>
      </trkpt>
      <trkpt lat="47.19743" lon="6.19915">
        <ele>497.022</ele>
        <time>2022-10-10T14:19:54Z</time>
      </trkpt>
      <trkpt lat="47.1974" lon="6.19912">
        <ele>497.875</ele>
        <time>2022-10-10T14:19:55Z</time>
      </trkpt>
      <trkpt lat="47.19736" lon="6.19907">
        <ele>498.021</ele>
        <time>2022-10-10T14:19:56Z</time>
      </trkpt>
      <trkpt lat="47.19734" lon="6.19904">
        <ele>498.077</ele>
        <time>2022-10-10T14:19:57Z</time>
      </trkpt>
      <trkpt lat="47.1973" lon="6.199">
        <ele>497.887</ele>
        <time>2022-10-10T14:19:58Z</time>
      </trkpt>
      <trkpt lat="47.19728" lon="6.19898">
        <ele>497.871</ele>
        <time>2022-10-10T14:19:59Z</time>
      </trkpt>
      <trkpt lat="47.19725" lon="6.19896">
        <ele>497.852</ele>
        <time>2022-10-10T14:20:00Z</time>
      </trkpt>
      <trkpt lat="47.19719" lon="6.19893">
        <ele>497.653</ele>
        <time>2022-10-10T14:20:01Z</time>
      </trkpt>
      <trkpt lat="47.19714" lon="6.19891">
        <ele>497.208</ele>
        <time>2022-10-10T14:20:02Z</time>
      </trkpt>
      <trkpt lat="47.19708" lon="6.19888">
        <ele>497.209</ele>
        <time>2022-10-10T14:20:03Z</time>
      </trkpt>
      <trkpt lat="47.19704" lon="6.19885">
        <ele>497.286</ele>
        <time>2022-10-10T14:20:04Z</time>
      </trkpt>
      <trkpt lat="47.197" lon="6.19882">
        <ele>497.216</ele>
        <time>2022-10-10T14:20:05Z</time>
      </trkpt>
      <trkpt lat="47.19698" lon="6.19879">
        <ele>497.46</ele>
        <time>2022-10-10T14:20:06Z</time>
      </trkpt>
      <trkpt lat="47.19695" lon="6.19875">
        <ele>498.254</ele>
        <time>2022-10-10T14:20:07Z</time>
      </trkpt>
      <trkpt lat="47.19694" lon="6.19872">
        <ele>498.447</ele>
        <time>2022-10-10T14:20:08Z</time>
      </trkpt>
      <trkpt lat="47.19694" lon="6.19868">
        <ele>498.863</ele>
        <time>2022-10-10T14:20:09Z</time>
      </trkpt>
      <trkpt lat="47.19694" lon="6.19861">
        <ele>498.879</ele>
        <time>2022-10-10T14:20:10Z</time>
      </trkpt>
      <trkpt lat="47.19695" lon="6.19856">
        <ele>498.819</ele>
        <time>2022-10-10T14:20:11Z</time>
      </trkpt>
      <trkpt lat="47.19695" lon="6.19837">
        <ele>498.833</ele>
        <time>2022-10-10T14:20:14Z</time>
      </trkpt>
      <trkpt lat="47.19694" lon="6.1983">
        <ele>498.636</ele>
        <time>2022-10-10T14:20:15Z</time>
      </trkpt>
      <trkpt lat="47.19693" lon="6.19824">
        <ele>498.617</ele>
        <time>2022-10-10T14:20:16Z</time>
      </trkpt>
      <trkpt lat="47.19691" lon="6.1982">
        <ele>499.018</ele>
        <time>2022-10-10T14:20:17Z</time>
      </trkpt>
      <trkpt lat="47.19688" lon="6.19813">
        <ele>499.009</ele>
        <time>2022-10-10T14:20:18Z</time>
      </trkpt>
      <trkpt lat="47.19686" lon="6.19807">
        <ele>499.074</ele>
        <time>2022-10-10T14:20:19Z</time>
      </trkpt>
      <trkpt lat="47.19677" lon="6.19788">
        <ele>499.684</ele>
        <time>2022-10-10T14:20:22Z</time>
      </trkpt>
      <trkpt lat="47.19671" lon="6.19776">
        <ele>500.258</ele>
        <time>2022-10-10T14:20:24Z</time>
      </trkpt>
      <trkpt lat="47.19667" lon="6.1977">
        <ele>500.822</ele>
        <time>2022-10-10T14:20:25Z</time>
      </trkpt>
      <trkpt lat="47.19663" lon="6.19767">
        <ele>500.885</ele>
        <time>2022-10-10T14:20:26Z</time>
      </trkpt>
      <trkpt lat="47.1966" lon="6.19765">
        <ele>501.011</ele>
        <time>2022-10-10T14:20:27Z</time>
      </trkpt>
      <trkpt lat="47.19654" lon="6.19763">
        <ele>501.257</ele>
        <time>2022-10-10T14:20:28Z</time>
      </trkpt>
      <trkpt lat="47.1965" lon="6.19763">
        <ele>501.457</ele>
        <time>2022-10-10T14:20:29Z</time>
      </trkpt>
      <trkpt lat="47.19646" lon="6.19763">
        <ele>501.441</ele>
        <time>2022-10-10T14:20:30Z</time>
      </trkpt>
      <trkpt lat="47.19641" lon="6.19764">
        <ele>501.487</ele>
        <time>2022-10-10T14:20:31Z</time>
      </trkpt>
      <trkpt lat="47.19635" lon="6.19765">
        <ele>501.442</ele>
        <time>2022-10-10T14:20:32Z</time>
      </trkpt>
      <trkpt lat="47.19629" lon="6.19767">
        <ele>501.426</ele>
        <time>2022-10-10T14:20:33Z</time>
      </trkpt>
      <trkpt lat="47.19624" lon="6.19768">
        <ele>501.209</ele>
        <time>2022-10-10T14:20:34Z</time>
      </trkpt>
      <trkpt lat="47.19619" lon="6.1977">
        <ele>501.279</ele>
        <time>2022-10-10T14:20:35Z</time>
      </trkpt>
      <trkpt lat="47.19616" lon="6.19772">
        <ele>501.229</ele>
        <time>2022-10-10T14:20:36Z</time>
      </trkpt>
      <trkpt lat="47.19612" lon="6.19776">
        <ele>501.243</ele>
        <time>2022-10-10T14:20:37Z</time>
      </trkpt>
      <trkpt lat="47.19608" lon="6.19781">
        <ele>501.237</ele>
        <time>2022-10-10T14:20:38Z</time>
      </trkpt>
      <trkpt lat="47.19606" lon="6.19785">
        <ele>501.25</ele>
        <time>2022-10-10T14:20:39Z</time>
      </trkpt>
      <trkpt lat="47.19603" lon="6.1979">
        <ele>501.276</ele>
        <time>2022-10-10T14:20:40Z</time>
      </trkpt>
      <trkpt lat="47.19599" lon="6.19797">
        <ele>501.672</ele>
        <time>2022-10-10T14:20:41Z</time>
      </trkpt>
      <trkpt lat="47.19596" lon="6.19803">
        <ele>501.882</ele>
        <time>2022-10-10T14:20:42Z</time>
      </trkpt>
      <trkpt lat="47.19592" lon="6.19809">
        <ele>501.846</ele>
        <time>2022-10-10T14:20:43Z</time>
      </trkpt>
      <trkpt lat="47.19589" lon="6.19814">
        <ele>502.042</ele>
        <time>2022-10-10T14:20:44Z</time>
      </trkpt>
      <trkpt lat="47.19586" lon="6.19818">
        <ele>502.422</ele>
        <time>2022-10-10T14:20:45Z</time>
      </trkpt>
      <trkpt lat="47.19583" lon="6.19822">
        <ele>503.614</ele>
        <time>2022-10-10T14:20:46Z</time>
      </trkpt>
      <trkpt lat="47.19582" lon="6.19823">
        <ele>503.609</ele>
        <time>2022-10-10T14:20:47Z</time>
      </trkpt>
      <trkpt lat="47.19581" lon="6.19824">
        <ele>503.825</ele>
        <time>2022-10-10T14:20:48Z</time>
      </trkpt>
      <trkpt lat="47.19582" lon="6.19825">
        <ele>503.645</ele>
        <time>2022-10-10T14:20:49Z</time>
      </trkpt>
      <trkpt lat="47.19582" lon="6.19825">
        <ele>503.829</ele>
        <time>2022-10-10T14:20:56Z</time>
      </trkpt>
      <trkpt lat="47.19582" lon="6.19824">
        <ele>503.663</ele>
        <time>2022-10-10T14:21:00Z</time>
      </trkpt>
      <trkpt lat="47.19582" lon="6.19824">
        <ele>503.656</ele>
        <time>2022-10-10T14:21:01Z</time>
      </trkpt>
      <trkpt lat="47.19582" lon="6.19824">
        <ele>503.692</ele>
        <time>2022-10-10T14:21:02Z</time>
      </trkpt>
      <trkpt lat="47.19583" lon="6.19822">
        <ele>503.488</ele>
        <time>2022-10-10T14:21:03Z</time>
      </trkpt>
      <trkpt lat="47.19591" lon="6.19811">
        <ele>503.268</ele>
        <time>2022-10-10T14:21:06Z</time>
      </trkpt>
      <trkpt lat="47.19593" lon="6.19807">
        <ele>503.092</ele>
        <time>2022-10-10T14:21:07Z</time>
      </trkpt>
      <trkpt lat="47.19595" lon="6.19804">
        <ele>502.854</ele>
        <time>2022-10-10T14:21:08Z</time>
      </trkpt>
      <trkpt lat="47.19597" lon="6.198">
        <ele>502.856</ele>
        <time>2022-10-10T14:21:09Z</time>
      </trkpt>
      <trkpt lat="47.19598" lon="6.19797">
        <ele>502.811</ele>
        <time>2022-10-10T14:21:10Z</time>
      </trkpt>
      <trkpt lat="47.196" lon="6.19793">
        <ele>502.809</ele>
        <time>2022-10-10T14:21:11Z</time>
      </trkpt>
      <trkpt lat="47.19601" lon="6.19791">
        <ele>502.846</ele>
        <time>2022-10-10T14:21:12Z</time>
      </trkpt>
      <trkpt lat="47.19603" lon="6.19788">
        <ele>502.896</ele>
        <time>2022-10-10T14:21:13Z</time>
      </trkpt>
      <trkpt lat="47.19606" lon="6.19782">
        <ele>502.81</ele>
        <time>2022-10-10T14:21:15Z</time>
      </trkpt>
      <trkpt lat="47.19608" lon="6.19779">
        <ele>502.884</ele>
        <time>2022-10-10T14:21:16Z</time>
      </trkpt>
      <trkpt lat="47.19609" lon="6.19778">
        <ele>502.867</ele>
        <time>2022-10-10T14:21:17Z</time>
      </trkpt>
      <trkpt lat="47.19609" lon="6.19778">
        <ele>502.813</ele>
        <time>2022-10-10T14:21:18Z</time>
      </trkpt>
      <trkpt lat="47.19609" lon="6.19778">
        <ele>503.019</ele>
        <time>2022-10-10T14:21:19Z</time>
      </trkpt>
      <trkpt lat="47.19609" lon="6.19778">
        <ele>502.859</ele>
        <time>2022-10-10T14:21:20Z</time>
      </trkpt>
      <trkpt lat="47.19616" lon="6.19773">
        <ele>502.623</ele>
        <time>2022-10-10T14:21:32Z</time>
      </trkpt>
      <trkpt lat="47.19618" lon="6.19772">
        <ele>502.663</ele>
        <time>2022-10-10T14:21:33Z</time>
      </trkpt>
      <trkpt lat="47.1962" lon="6.19771">
        <ele>502.644</ele>
        <time>2022-10-10T14:21:35Z</time>
      </trkpt>
      <trkpt lat="47.19618" lon="6.19767">
        <ele>502.618</ele>
        <time>2022-10-10T14:21:37Z</time>
      </trkpt>
      <trkpt lat="47.19616" lon="6.19765">
        <ele>502.409</ele>
        <time>2022-10-10T14:21:38Z</time>
      </trkpt>
      <trkpt lat="47.19613" lon="6.19763">
        <ele>502.267</ele>
        <time>2022-10-10T14:21:39Z</time>
      </trkpt>
      <trkpt lat="47.19611" lon="6.19761">
        <ele>502.027</ele>
        <time>2022-10-10T14:21:40Z</time>
      </trkpt>
      <trkpt lat="47.19607" lon="6.1976">
        <ele>501.871</ele>
        <time>2022-10-10T14:21:41Z</time>
      </trkpt>
      <trkpt lat="47.19603" lon="6.19759">
        <ele>501.825</ele>
        <time>2022-10-10T14:21:42Z</time>
      </trkpt>
      <trkpt lat="47.19599" lon="6.19757">
        <ele>502.038</ele>
        <time>2022-10-10T14:21:43Z</time>
      </trkpt>
      <trkpt lat="47.19595" lon="6.19756">
        <ele>501.844</ele>
        <time>2022-10-10T14:21:44Z</time>
      </trkpt>
      <trkpt lat="47.19579" lon="6.19747">
        <ele>502.04</ele>
        <time>2022-10-10T14:21:48Z</time>
      </trkpt>
      <trkpt lat="47.19575" lon="6.19744">
        <ele>502.03</ele>
        <time>2022-10-10T14:21:49Z</time>
      </trkpt>
      <trkpt lat="47.19571" lon="6.19743">
        <ele>502.464</ele>
        <time>2022-10-10T14:21:50Z</time>
      </trkpt>
      <trkpt lat="47.19568" lon="6.19743">
        <ele>503.047</ele>
        <time>2022-10-10T14:21:51Z</time>
      </trkpt>
      <trkpt lat="47.19564" lon="6.19744">
        <ele>503.429</ele>
        <time>2022-10-10T14:21:52Z</time>
      </trkpt>
      <trkpt lat="47.1956" lon="6.19745">
        <ele>503.621</ele>
        <time>2022-10-10T14:21:53Z</time>
      </trkpt>
      <trkpt lat="47.19556" lon="6.19746">
        <ele>504.209</ele>
        <time>2022-10-10T14:21:54Z</time>
      </trkpt>
      <trkpt lat="47.19553" lon="6.19747">
        <ele>504.615</ele>
        <time>2022-10-10T14:21:55Z</time>
      </trkpt>
      <trkpt lat="47.19551" lon="6.19747">
        <ele>505.445</ele>
        <time>2022-10-10T14:21:56Z</time>
      </trkpt>
      <trkpt lat="47.19548" lon="6.19748">
        <ele>506.029</ele>
        <time>2022-10-10T14:21:57Z</time>
      </trkpt>
      <trkpt lat="47.19545" lon="6.19748">
        <ele>506.643</ele>
        <time>2022-10-10T14:21:58Z</time>
      </trkpt>
      <trkpt lat="47.19542" lon="6.19748">
        <ele>506.846</ele>
        <time>2022-10-10T14:21:59Z</time>
      </trkpt>
      <trkpt lat="47.1954" lon="6.19747">
        <ele>507.872</ele>
        <time>2022-10-10T14:22:00Z</time>
      </trkpt>
      <trkpt lat="47.19537" lon="6.19746">
        <ele>508.038</ele>
        <time>2022-10-10T14:22:01Z</time>
      </trkpt>
      <trkpt lat="47.19535" lon="6.19745">
        <ele>508.018</ele>
        <time>2022-10-10T14:22:02Z</time>
      </trkpt>
      <trkpt lat="47.19531" lon="6.19745">
        <ele>508.842</ele>
        <time>2022-10-10T14:22:03Z</time>
      </trkpt>
      <trkpt lat="47.19529" lon="6.19744">
        <ele>509.476</ele>
        <time>2022-10-10T14:22:04Z</time>
      </trkpt>
      <trkpt lat="47.19526" lon="6.19744">
        <ele>510.09</ele>
        <time>2022-10-10T14:22:05Z</time>
      </trkpt>
      <trkpt lat="47.19524" lon="6.19744">
        <ele>510.219</ele>
        <time>2022-10-10T14:22:06Z</time>
      </trkpt>
      <trkpt lat="47.19521" lon="6.19744">
        <ele>510.609</ele>
        <time>2022-10-10T14:22:07Z</time>
      </trkpt>
      <trkpt lat="47.19518" lon="6.19743">
        <ele>510.678</ele>
        <time>2022-10-10T14:22:08Z</time>
      </trkpt>
      <trkpt lat="47.19515" lon="6.19743">
        <ele>511.268</ele>
        <time>2022-10-10T14:22:09Z</time>
      </trkpt>
      <trkpt lat="47.19513" lon="6.19743">
        <ele>511.692</ele>
        <time>2022-10-10T14:22:10Z</time>
      </trkpt>
      <trkpt lat="47.19511" lon="6.19744">
        <ele>511.696</ele>
        <time>2022-10-10T14:22:11Z</time>
      </trkpt>
      <trkpt lat="47.19508" lon="6.19744">
        <ele>512.659</ele>
        <time>2022-10-10T14:22:12Z</time>
      </trkpt>
      <trkpt lat="47.19506" lon="6.19743">
        <ele>512.855</ele>
        <time>2022-10-10T14:22:13Z</time>
      </trkpt>
      <trkpt lat="47.19504" lon="6.19743">
        <ele>513.021</ele>
        <time>2022-10-10T14:22:14Z</time>
      </trkpt>
      <trkpt lat="47.19502" lon="6.19743">
        <ele>513.081</ele>
        <time>2022-10-10T14:22:15Z</time>
      </trkpt>
      <trkpt lat="47.19499" lon="6.19746">
        <ele>513.435</ele>
        <time>2022-10-10T14:22:16Z</time>
      </trkpt>
      <trkpt lat="47.19498" lon="6.19748">
        <ele>513.475</ele>
        <time>2022-10-10T14:22:17Z</time>
      </trkpt>
      <trkpt lat="47.19496" lon="6.19752">
        <ele>513.628</ele>
        <time>2022-10-10T14:22:18Z</time>
      </trkpt>
      <trkpt lat="47.19496" lon="6.19756">
        <ele>514.02</ele>
        <time>2022-10-10T14:22:19Z</time>
      </trkpt>
      <trkpt lat="47.19495" lon="6.1976">
        <ele>515.009</ele>
        <time>2022-10-10T14:22:20Z</time>
      </trkpt>
      <trkpt lat="47.19495" lon="6.19764">
        <ele>515.088</ele>
        <time>2022-10-10T14:22:21Z</time>
      </trkpt>
      <trkpt lat="47.19494" lon="6.19768">
        <ele>516.078</ele>
        <time>2022-10-10T14:22:22Z</time>
      </trkpt>
      <trkpt lat="47.19493" lon="6.19773">
        <ele>516.072</ele>
        <time>2022-10-10T14:22:23Z</time>
      </trkpt>
      <trkpt lat="47.19492" lon="6.19776">
        <ele>516.216</ele>
        <time>2022-10-10T14:22:24Z</time>
      </trkpt>
      <trkpt lat="47.19491" lon="6.19781">
        <ele>516.229</ele>
        <time>2022-10-10T14:22:25Z</time>
      </trkpt>
      <trkpt lat="47.1949" lon="6.19786">
        <ele>516.885</ele>
        <time>2022-10-10T14:22:26Z</time>
      </trkpt>
      <trkpt lat="47.19489" lon="6.1979">
        <ele>516.891</ele>
        <time>2022-10-10T14:22:27Z</time>
      </trkpt>
      <trkpt lat="47.19488" lon="6.19794">
        <ele>517.021</ele>
        <time>2022-10-10T14:22:28Z</time>
      </trkpt>
      <trkpt lat="47.19488" lon="6.19799">
        <ele>517.435</ele>
        <time>2022-10-10T14:22:29Z</time>
      </trkpt>
      <trkpt lat="47.19487" lon="6.19805">
        <ele>518.627</ele>
        <time>2022-10-10T14:22:30Z</time>
      </trkpt>
      <trkpt lat="47.19486" lon="6.19809">
        <ele>518.868</ele>
        <time>2022-10-10T14:22:31Z</time>
      </trkpt>
      <trkpt lat="47.19486" lon="6.19814">
        <ele>519.614</ele>
        <time>2022-10-10T14:22:32Z</time>
      </trkpt>
      <trkpt lat="47.19485" lon="6.19818">
        <ele>519.609</ele>
        <time>2022-10-10T14:22:33Z</time>
      </trkpt>
      <trkpt lat="47.19483" lon="6.19822">
        <ele>520.053</ele>
        <time>2022-10-10T14:22:34Z</time>
      </trkpt>
      <trkpt lat="47.1948" lon="6.19827">
        <ele>520.443</ele>
        <time>2022-10-10T14:22:35Z</time>
      </trkpt>
      <trkpt lat="47.19478" lon="6.1983">
        <ele>521.087</ele>
        <time>2022-10-10T14:22:36Z</time>
      </trkpt>
      <trkpt lat="47.19475" lon="6.19833">
        <ele>521.621</ele>
        <time>2022-10-10T14:22:37Z</time>
      </trkpt>
      <trkpt lat="47.19473" lon="6.19836">
        <ele>522.064</ele>
        <time>2022-10-10T14:22:38Z</time>
      </trkpt>
      <trkpt lat="47.19471" lon="6.1984">
        <ele>522.42</ele>
        <time>2022-10-10T14:22:39Z</time>
      </trkpt>
      <trkpt lat="47.19469" lon="6.19844">
        <ele>522.646</ele>
        <time>2022-10-10T14:22:40Z</time>
      </trkpt>
      <trkpt lat="47.19468" lon="6.19848">
        <ele>523.856</ele>
        <time>2022-10-10T14:22:41Z</time>
      </trkpt>
      <trkpt lat="47.19467" lon="6.19853">
        <ele>523.87</ele>
        <time>2022-10-10T14:22:42Z</time>
      </trkpt>
      <trkpt lat="47.19468" lon="6.19857">
        <ele>524.278</ele>
        <time>2022-10-10T14:22:43Z</time>
      </trkpt>
      <trkpt lat="47.19468" lon="6.19864">
        <ele>524.633</ele>
        <time>2022-10-10T14:22:44Z</time>
      </trkpt>
      <trkpt lat="47.19467" lon="6.19869">
        <ele>524.626</ele>
        <time>2022-10-10T14:22:45Z</time>
      </trkpt>
      <trkpt lat="47.19467" lon="6.19873">
        <ele>525.209</ele>
        <time>2022-10-10T14:22:46Z</time>
      </trkpt>
      <trkpt lat="47.19466" lon="6.19878">
        <ele>525.298</ele>
        <time>2022-10-10T14:22:47Z</time>
      </trkpt>
      <trkpt lat="47.19465" lon="6.19884">
        <ele>525.228</ele>
        <time>2022-10-10T14:22:48Z</time>
      </trkpt>
      <trkpt lat="47.19464" lon="6.19889">
        <ele>525.612</ele>
        <time>2022-10-10T14:22:49Z</time>
      </trkpt>
      <trkpt lat="47.19463" lon="6.19895">
        <ele>525.846</ele>
        <time>2022-10-10T14:22:50Z</time>
      </trkpt>
      <trkpt lat="47.19462" lon="6.199">
        <ele>526.079</ele>
        <time>2022-10-10T14:22:51Z</time>
      </trkpt>
      <trkpt lat="47.19461" lon="6.19904">
        <ele>526.445</ele>
        <time>2022-10-10T14:22:52Z</time>
      </trkpt>
      <trkpt lat="47.19459" lon="6.1991">
        <ele>526.631</ele>
        <time>2022-10-10T14:22:53Z</time>
      </trkpt>
      <trkpt lat="47.19458" lon="6.19914">
        <ele>526.681</ele>
        <time>2022-10-10T14:22:54Z</time>
      </trkpt>
      <trkpt lat="47.19455" lon="6.19919">
        <ele>527.085</ele>
        <time>2022-10-10T14:22:55Z</time>
      </trkpt>
      <trkpt lat="47.19454" lon="6.19923">
        <ele>527.456</ele>
        <time>2022-10-10T14:22:56Z</time>
      </trkpt>
      <trkpt lat="47.19451" lon="6.19928">
        <ele>528.459</ele>
        <time>2022-10-10T14:22:57Z</time>
      </trkpt>
      <trkpt lat="47.19448" lon="6.19932">
        <ele>528.614</ele>
        <time>2022-10-10T14:22:58Z</time>
      </trkpt>
      <trkpt lat="47.19445" lon="6.19936">
        <ele>528.609</ele>
        <time>2022-10-10T14:22:59Z</time>
      </trkpt>
      <trkpt lat="47.19443" lon="6.19939">
        <ele>529.236</ele>
        <time>2022-10-10T14:23:00Z</time>
      </trkpt>
      <trkpt lat="47.1944" lon="6.19943">
        <ele>530.076</ele>
        <time>2022-10-10T14:23:01Z</time>
      </trkpt>
      <trkpt lat="47.19437" lon="6.19948">
        <ele>530.21</ele>
        <time>2022-10-10T14:23:02Z</time>
      </trkpt>
      <trkpt lat="47.19435" lon="6.19953">
        <ele>530.634</ele>
        <time>2022-10-10T14:23:03Z</time>
      </trkpt>
      <trkpt lat="47.19433" lon="6.19956">
        <ele>531.287</ele>
        <time>2022-10-10T14:23:04Z</time>
      </trkpt>
      <trkpt lat="47.19431" lon="6.19961">
        <ele>531.273</ele>
        <time>2022-10-10T14:23:05Z</time>
      </trkpt>
      <trkpt lat="47.1943" lon="6.19966">
        <ele>531.299</ele>
        <time>2022-10-10T14:23:06Z</time>
      </trkpt>
      <trkpt lat="47.19429" lon="6.19971">
        <ele>532.449</ele>
        <time>2022-10-10T14:23:07Z</time>
      </trkpt>
      <trkpt lat="47.19428" lon="6.19977">
        <ele>532.643</ele>
        <time>2022-10-10T14:23:08Z</time>
      </trkpt>
      <trkpt lat="47.19426" lon="6.19982">
        <ele>532.677</ele>
        <time>2022-10-10T14:23:09Z</time>
      </trkpt>
      <trkpt lat="47.19424" lon="6.19986">
        <ele>533.461</ele>
        <time>2022-10-10T14:23:10Z</time>
      </trkpt>
      <trkpt lat="47.19422" lon="6.1999">
        <ele>533.827</ele>
        <time>2022-10-10T14:23:11Z</time>
      </trkpt>
      <trkpt lat="47.19419" lon="6.19993">
        <ele>534.209</ele>
        <time>2022-10-10T14:23:12Z</time>
      </trkpt>
      <trkpt lat="47.19416" lon="6.19996">
        <ele>534.828</ele>
        <time>2022-10-10T14:23:13Z</time>
      </trkpt>
      <trkpt lat="47.19414" lon="6.2">
        <ele>535.238</ele>
        <time>2022-10-10T14:23:14Z</time>
      </trkpt>
      <trkpt lat="47.19412" lon="6.20004">
        <ele>535.242</ele>
        <time>2022-10-10T14:23:15Z</time>
      </trkpt>
      <trkpt lat="47.19411" lon="6.20009">
        <ele>535.856</ele>
        <time>2022-10-10T14:23:16Z</time>
      </trkpt>
      <trkpt lat="47.1941" lon="6.20015">
        <ele>536.229</ele>
        <time>2022-10-10T14:23:17Z</time>
      </trkpt>
      <trkpt lat="47.19408" lon="6.2002">
        <ele>536.695</ele>
        <time>2022-10-10T14:23:18Z</time>
      </trkpt>
      <trkpt lat="47.19407" lon="6.20026">
        <ele>536.621</ele>
        <time>2022-10-10T14:23:19Z</time>
      </trkpt>
      <trkpt lat="47.19406" lon="6.2003">
        <ele>536.851</ele>
        <time>2022-10-10T14:23:20Z</time>
      </trkpt>
      <trkpt lat="47.19404" lon="6.20035">
        <ele>538.075</ele>
        <time>2022-10-10T14:23:21Z</time>
      </trkpt>
      <trkpt lat="47.19403" lon="6.2004">
        <ele>538.259</ele>
        <time>2022-10-10T14:23:22Z</time>
      </trkpt>
      <trkpt lat="47.19401" lon="6.20045">
        <ele>538.203</ele>
        <time>2022-10-10T14:23:23Z</time>
      </trkpt>
      <trkpt lat="47.19399" lon="6.2005">
        <ele>538.423</ele>
        <time>2022-10-10T14:23:24Z</time>
      </trkpt>
      <trkpt lat="47.19398" lon="6.20056">
        <ele>538.409</ele>
        <time>2022-10-10T14:23:25Z</time>
      </trkpt>
      <trkpt lat="47.19396" lon="6.20061">
        <ele>538.656</ele>
        <time>2022-10-10T14:23:26Z</time>
      </trkpt>
      <trkpt lat="47.19395" lon="6.20066">
        <ele>539.226</ele>
        <time>2022-10-10T14:23:27Z</time>
      </trkpt>
      <trkpt lat="47.19393" lon="6.2007">
        <ele>539.86</ele>
        <time>2022-10-10T14:23:28Z</time>
      </trkpt>
      <trkpt lat="47.1939" lon="6.20076">
        <ele>540.214</ele>
        <time>2022-10-10T14:23:29Z</time>
      </trkpt>
      <trkpt lat="47.19388" lon="6.2008">
        <ele>540.277</ele>
        <time>2022-10-10T14:23:30Z</time>
      </trkpt>
      <trkpt lat="47.19385" lon="6.20084">
        <ele>540.273</ele>
        <time>2022-10-10T14:23:31Z</time>
      </trkpt>
      <trkpt lat="47.19383" lon="6.20087">
        <ele>540.449</ele>
        <time>2022-10-10T14:23:32Z</time>
      </trkpt>
      <trkpt lat="47.19381" lon="6.20091">
        <ele>540.889</ele>
        <time>2022-10-10T14:23:33Z</time>
      </trkpt>
      <trkpt lat="47.19378" lon="6.20095">
        <ele>540.843</ele>
        <time>2022-10-10T14:23:34Z</time>
      </trkpt>
      <trkpt lat="47.19375" lon="6.20098">
        <ele>541.652</ele>
        <time>2022-10-10T14:23:35Z</time>
      </trkpt>
      <trkpt lat="47.19373" lon="6.20102">
        <ele>542.653</ele>
        <time>2022-10-10T14:23:36Z</time>
      </trkpt>
      <trkpt lat="47.19371" lon="6.20106">
        <ele>543.008</ele>
        <time>2022-10-10T14:23:37Z</time>
      </trkpt>
      <trkpt lat="47.19368" lon="6.20111">
        <ele>543.209</ele>
        <time>2022-10-10T14:23:38Z</time>
      </trkpt>
      <trkpt lat="47.19365" lon="6.20115">
        <ele>543.656</ele>
        <time>2022-10-10T14:23:39Z</time>
      </trkpt>
      <trkpt lat="47.19362" lon="6.20118">
        <ele>543.866</ele>
        <time>2022-10-10T14:23:40Z</time>
      </trkpt>
      <trkpt lat="47.19359" lon="6.20121">
        <ele>544.22</ele>
        <time>2022-10-10T14:23:41Z</time>
      </trkpt>
      <trkpt lat="47.19357" lon="6.20124">
        <ele>544.644</ele>
        <time>2022-10-10T14:23:42Z</time>
      </trkpt>
      <trkpt lat="47.19355" lon="6.20127">
        <ele>544.887</ele>
        <time>2022-10-10T14:23:43Z</time>
      </trkpt>
      <trkpt lat="47.19353" lon="6.20131">
        <ele>545.473</ele>
        <time>2022-10-10T14:23:44Z</time>
      </trkpt>
      <trkpt lat="47.19352" lon="6.20135">
        <ele>545.629</ele>
        <time>2022-10-10T14:23:45Z</time>
      </trkpt>
      <trkpt lat="47.19351" lon="6.2014">
        <ele>545.699</ele>
        <time>2022-10-10T14:23:46Z</time>
      </trkpt>
      <trkpt lat="47.1935" lon="6.20147">
        <ele>546.053</ele>
        <time>2022-10-10T14:23:47Z</time>
      </trkpt>
      <trkpt lat="47.1935" lon="6.20154">
        <ele>546.086</ele>
        <time>2022-10-10T14:23:48Z</time>
      </trkpt>
      <trkpt lat="47.19349" lon="6.2016">
        <ele>546.06</ele>
        <time>2022-10-10T14:23:49Z</time>
      </trkpt>
      <trkpt lat="47.19348" lon="6.20166">
        <ele>546.226</ele>
        <time>2022-10-10T14:23:50Z</time>
      </trkpt>
      <trkpt lat="47.19346" lon="6.20173">
        <ele>546.409</ele>
        <time>2022-10-10T14:23:51Z</time>
      </trkpt>
      <trkpt lat="47.19343" lon="6.20179">
        <ele>546.459</ele>
        <time>2022-10-10T14:23:52Z</time>
      </trkpt>
      <trkpt lat="47.1934" lon="6.20184">
        <ele>546.469</ele>
        <time>2022-10-10T14:23:53Z</time>
      </trkpt>
      <trkpt lat="47.19337" lon="6.2019">
        <ele>546.623</ele>
        <time>2022-10-10T14:23:54Z</time>
      </trkpt>
      <trkpt lat="47.19334" lon="6.20196">
        <ele>546.637</ele>
        <time>2022-10-10T14:23:55Z</time>
      </trkpt>
      <trkpt lat="47.19331" lon="6.20203">
        <ele>546.66</ele>
        <time>2022-10-10T14:23:56Z</time>
      </trkpt>
      <trkpt lat="47.19329" lon="6.20209">
        <ele>546.886</ele>
        <time>2022-10-10T14:23:57Z</time>
      </trkpt>
      <trkpt lat="47.19326" lon="6.20215">
        <ele>546.862</ele>
        <time>2022-10-10T14:23:58Z</time>
      </trkpt>
      <trkpt lat="47.19324" lon="6.20221">
        <ele>546.872</ele>
        <time>2022-10-10T14:23:59Z</time>
      </trkpt>
      <trkpt lat="47.19322" lon="6.20227">
        <ele>546.876</ele>
        <time>2022-10-10T14:24:00Z</time>
      </trkpt>
      <trkpt lat="47.19319" lon="6.20233">
        <ele>547.085</ele>
        <time>2022-10-10T14:24:01Z</time>
      </trkpt>
      <trkpt lat="47.19317" lon="6.20238">
        <ele>546.889</ele>
        <time>2022-10-10T14:24:02Z</time>
      </trkpt>
      <trkpt lat="47.19314" lon="6.20244">
        <ele>546.817</ele>
        <time>2022-10-10T14:24:03Z</time>
      </trkpt>
      <trkpt lat="47.19311" lon="6.2025">
        <ele>546.609</ele>
        <time>2022-10-10T14:24:04Z</time>
      </trkpt>
      <trkpt lat="47.19308" lon="6.20257">
        <ele>546.229</ele>
        <time>2022-10-10T14:24:05Z</time>
      </trkpt>
      <trkpt lat="47.19305" lon="6.20264">
        <ele>546.299</ele>
        <time>2022-10-10T14:24:06Z</time>
      </trkpt>
      <trkpt lat="47.19301" lon="6.20271">
        <ele>546.283</ele>
        <time>2022-10-10T14:24:07Z</time>
      </trkpt>
      <trkpt lat="47.19299" lon="6.20278">
        <ele>546.247</ele>
        <time>2022-10-10T14:24:08Z</time>
      </trkpt>
      <trkpt lat="47.19296" lon="6.20284">
        <ele>546.44</ele>
        <time>2022-10-10T14:24:09Z</time>
      </trkpt>
      <trkpt lat="47.19294" lon="6.2029">
        <ele>546.826</ele>
        <time>2022-10-10T14:24:10Z</time>
      </trkpt>
      <trkpt lat="47.1929" lon="6.20301">
        <ele>547.852</ele>
        <time>2022-10-10T14:24:12Z</time>
      </trkpt>
      <trkpt lat="47.19278" lon="6.20335">
        <ele>547.872</ele>
        <time>2022-10-10T14:24:17Z</time>
      </trkpt>
      <trkpt lat="47.19276" lon="6.20342">
        <ele>547.446</ele>
        <time>2022-10-10T14:24:18Z</time>
      </trkpt>
      <trkpt lat="47.19269" lon="6.20362">
        <ele>547.269</ele>
        <time>2022-10-10T14:24:21Z</time>
      </trkpt>
      <trkpt lat="47.19267" lon="6.20369">
        <ele>547.004</ele>
        <time>2022-10-10T14:24:22Z</time>
      </trkpt>
      <trkpt lat="47.19264" lon="6.20383">
        <ele>546.824</ele>
        <time>2022-10-10T14:24:24Z</time>
      </trkpt>
      <trkpt lat="47.19263" lon="6.2039">
        <ele>546.209</ele>
        <time>2022-10-10T14:24:25Z</time>
      </trkpt>
      <trkpt lat="47.19261" lon="6.20404">
        <ele>546.017</ele>
        <time>2022-10-10T14:24:27Z</time>
      </trkpt>
      <trkpt lat="47.1926" lon="6.20412">
        <ele>545.697</ele>
        <time>2022-10-10T14:24:28Z</time>
      </trkpt>
      <trkpt lat="47.19259" lon="6.2042">
        <ele>545.051</ele>
        <time>2022-10-10T14:24:29Z</time>
      </trkpt>
      <trkpt lat="47.19258" lon="6.20428">
        <ele>544.885</ele>
        <time>2022-10-10T14:24:30Z</time>
      </trkpt>
      <trkpt lat="47.19256" lon="6.20453">
        <ele>544.488</ele>
        <time>2022-10-10T14:24:33Z</time>
      </trkpt>
      <trkpt lat="47.19253" lon="6.2047">
        <ele>544.284</ele>
        <time>2022-10-10T14:24:35Z</time>
      </trkpt>
      <trkpt lat="47.19251" lon="6.20478">
        <ele>543.23</ele>
        <time>2022-10-10T14:24:36Z</time>
      </trkpt>
      <trkpt lat="47.19247" lon="6.20496">
        <ele>541.66</ele>
        <time>2022-10-10T14:24:38Z</time>
      </trkpt>
      <trkpt lat="47.19244" lon="6.20505">
        <ele>541.654</ele>
        <time>2022-10-10T14:24:39Z</time>
      </trkpt>
      <trkpt lat="47.1924" lon="6.20523">
        <ele>541.457</ele>
        <time>2022-10-10T14:24:41Z</time>
      </trkpt>
      <trkpt lat="47.19234" lon="6.20539">
        <ele>540.8</ele>
        <time>2022-10-10T14:24:43Z</time>
      </trkpt>
      <trkpt lat="47.19231" lon="6.20547">
        <ele>540.22</ele>
        <time>2022-10-10T14:24:44Z</time>
      </trkpt>
      <trkpt lat="47.19222" lon="6.20563">
        <ele>539.009</ele>
        <time>2022-10-10T14:24:46Z</time>
      </trkpt>
      <trkpt lat="47.19217" lon="6.2057">
        <ele>538.656</ele>
        <time>2022-10-10T14:24:47Z</time>
      </trkpt>
      <trkpt lat="47.19213" lon="6.20577">
        <ele>538.636</ele>
        <time>2022-10-10T14:24:48Z</time>
      </trkpt>
      <trkpt lat="47.19209" lon="6.20583">
        <ele>538.66</ele>
        <time>2022-10-10T14:24:49Z</time>
      </trkpt>
      <trkpt lat="47.19206" lon="6.20587">
        <ele>538.664</ele>
        <time>2022-10-10T14:24:50Z</time>
      </trkpt>
      <trkpt lat="47.19203" lon="6.2059">
        <ele>538.647</ele>
        <time>2022-10-10T14:24:51Z</time>
      </trkpt>
      <trkpt lat="47.19203" lon="6.20591">
        <ele>538.663</ele>
        <time>2022-10-10T14:24:52Z</time>
      </trkpt>
      <trkpt lat="47.19203" lon="6.20591">
        <ele>538.699</ele>
        <time>2022-10-10T14:24:53Z</time>
      </trkpt>
      <trkpt lat="47.19202" lon="6.20591">
        <ele>538.639</ele>
        <time>2022-10-10T14:24:54Z</time>
      </trkpt>
      <trkpt lat="47.19201" lon="6.20592">
        <ele>538.673</ele>
        <time>2022-10-10T14:24:55Z</time>
      </trkpt>
      <trkpt lat="47.192" lon="6.20594">
        <ele>538.665</ele>
        <time>2022-10-10T14:24:56Z</time>
      </trkpt>
      <trkpt lat="47.19188" lon="6.206">
        <ele>537.068</ele>
        <time>2022-10-10T14:24:59Z</time>
      </trkpt>
      <trkpt lat="47.19184" lon="6.20602">
        <ele>537.014</ele>
        <time>2022-10-10T14:25:00Z</time>
      </trkpt>
      <trkpt lat="47.1918" lon="6.20604">
        <ele>536.609</ele>
        <time>2022-10-10T14:25:01Z</time>
      </trkpt>
      <trkpt lat="47.19175" lon="6.20607">
        <ele>535.877</ele>
        <time>2022-10-10T14:25:02Z</time>
      </trkpt>
      <trkpt lat="47.1917" lon="6.2061">
        <ele>535.837</ele>
        <time>2022-10-10T14:25:03Z</time>
      </trkpt>
      <trkpt lat="47.19166" lon="6.20614">
        <ele>534.261</ele>
        <time>2022-10-10T14:25:04Z</time>
      </trkpt>
      <trkpt lat="47.19161" lon="6.20617">
        <ele>534.255</ele>
        <time>2022-10-10T14:25:05Z</time>
      </trkpt>
      <trkpt lat="47.19156" lon="6.2062">
        <ele>534.268</ele>
        <time>2022-10-10T14:25:06Z</time>
      </trkpt>
      <trkpt lat="47.19152" lon="6.20624">
        <ele>534.034</ele>
        <time>2022-10-10T14:25:07Z</time>
      </trkpt>
      <trkpt lat="47.19147" lon="6.20629">
        <ele>533.44</ele>
        <time>2022-10-10T14:25:08Z</time>
      </trkpt>
      <trkpt lat="47.19144" lon="6.20632">
        <ele>533.45</ele>
        <time>2022-10-10T14:25:09Z</time>
      </trkpt>
      <trkpt lat="47.19143" lon="6.20633">
        <ele>533.234</ele>
        <time>2022-10-10T14:25:10Z</time>
      </trkpt>
      <trkpt lat="47.19143" lon="6.20634">
        <ele>533.013</ele>
        <time>2022-10-10T14:25:11Z</time>
      </trkpt>
      <trkpt lat="47.19142" lon="6.20635">
        <ele>532.843</ele>
        <time>2022-10-10T14:25:12Z</time>
      </trkpt>
      <trkpt lat="47.19138" lon="6.20638">
        <ele>532.807</ele>
        <time>2022-10-10T14:25:14Z</time>
      </trkpt>
      <trkpt lat="47.19135" lon="6.2064">
        <ele>532.609</ele>
        <time>2022-10-10T14:25:15Z</time>
      </trkpt>
      <trkpt lat="47.19127" lon="6.2065">
        <ele>531.662</ele>
        <time>2022-10-10T14:25:17Z</time>
      </trkpt>
      <trkpt lat="47.19122" lon="6.20654">
        <ele>530.232</ele>
        <time>2022-10-10T14:25:18Z</time>
      </trkpt>
      <trkpt lat="47.19117" lon="6.20659">
        <ele>529.026</ele>
        <time>2022-10-10T14:25:19Z</time>
      </trkpt>
      <trkpt lat="47.19105" lon="6.20668">
        <ele>528.45</ele>
        <time>2022-10-10T14:25:21Z</time>
      </trkpt>
      <trkpt lat="47.191" lon="6.20672">
        <ele>527.453</ele>
        <time>2022-10-10T14:25:22Z</time>
      </trkpt>
      <trkpt lat="47.19095" lon="6.20676">
        <ele>526.229</ele>
        <time>2022-10-10T14:25:23Z</time>
      </trkpt>
      <trkpt lat="47.19085" lon="6.20687">
        <ele>525.855</ele>
        <time>2022-10-10T14:25:25Z</time>
      </trkpt>
      <trkpt lat="47.19082" lon="6.20694">
        <ele>525.645</ele>
        <time>2022-10-10T14:25:26Z</time>
      </trkpt>
      <trkpt lat="47.19078" lon="6.207">
        <ele>525.669</ele>
        <time>2022-10-10T14:25:27Z</time>
      </trkpt>
      <trkpt lat="47.19076" lon="6.20706">
        <ele>524.892</ele>
        <time>2022-10-10T14:25:28Z</time>
      </trkpt>
      <trkpt lat="47.19074" lon="6.20711">
        <ele>524.673</ele>
        <time>2022-10-10T14:25:29Z</time>
      </trkpt>
      <trkpt lat="47.19072" lon="6.20714">
        <ele>524.62</ele>
        <time>2022-10-10T14:25:30Z</time>
      </trkpt>
      <trkpt lat="47.19071" lon="6.20715">
        <ele>524.609</ele>
        <time>2022-10-10T14:25:31Z</time>
      </trkpt>
      <trkpt lat="47.1907" lon="6.20715">
        <ele>524.62</ele>
        <time>2022-10-10T14:25:32Z</time>
      </trkpt>
      <trkpt lat="47.1907" lon="6.20714">
        <ele>524.47</ele>
        <time>2022-10-10T14:25:33Z</time>
      </trkpt>
      <trkpt lat="47.19068" lon="6.20719">
        <ele>524.224</ele>
        <time>2022-10-10T14:25:35Z</time>
      </trkpt>
      <trkpt lat="47.19066" lon="6.20722">
        <ele>523.818</ele>
        <time>2022-10-10T14:25:36Z</time>
      </trkpt>
      <trkpt lat="47.19063" lon="6.20727">
        <ele>523.841</ele>
        <time>2022-10-10T14:25:37Z</time>
      </trkpt>
      <trkpt lat="47.1906" lon="6.20731">
        <ele>523.287</ele>
        <time>2022-10-10T14:25:38Z</time>
      </trkpt>
      <trkpt lat="47.19051" lon="6.20738">
        <ele>521.893</ele>
        <time>2022-10-10T14:25:40Z</time>
      </trkpt>
      <trkpt lat="47.19046" lon="6.20741">
        <ele>521.423</ele>
        <time>2022-10-10T14:25:41Z</time>
      </trkpt>
      <trkpt lat="47.19042" lon="6.20744">
        <ele>521.447</ele>
        <time>2022-10-10T14:25:42Z</time>
      </trkpt>
      <trkpt lat="47.19038" lon="6.20746">
        <ele>521.241</ele>
        <time>2022-10-10T14:25:43Z</time>
      </trkpt>
      <trkpt lat="47.19035" lon="6.20747">
        <ele>521.281</ele>
        <time>2022-10-10T14:25:44Z</time>
      </trkpt>
      <trkpt lat="47.19032" lon="6.20747">
        <ele>521.009</ele>
        <time>2022-10-10T14:25:45Z</time>
      </trkpt>
      <trkpt lat="47.19029" lon="6.20745">
        <ele>520.609</ele>
        <time>2022-10-10T14:25:46Z</time>
      </trkpt>
      <trkpt lat="47.19022" lon="6.20738">
        <ele>520.675</ele>
        <time>2022-10-10T14:25:48Z</time>
      </trkpt>
      <trkpt lat="47.19019" lon="6.20734">
        <ele>520.685</ele>
        <time>2022-10-10T14:25:49Z</time>
      </trkpt>
      <trkpt lat="47.19016" lon="6.2073">
        <ele>520.639</ele>
        <time>2022-10-10T14:25:50Z</time>
      </trkpt>
      <trkpt lat="47.19006" lon="6.20719">
        <ele>520.663</ele>
        <time>2022-10-10T14:25:53Z</time>
      </trkpt>
      <trkpt lat="47.18996" lon="6.2071">
        <ele>520.086</ele>
        <time>2022-10-10T14:25:55Z</time>
      </trkpt>
      <trkpt lat="47.18982" lon="6.20698">
        <ele>520.012</ele>
        <time>2022-10-10T14:25:58Z</time>
      </trkpt>
      <trkpt lat="47.18965" lon="6.20689">
        <ele>520.818</ele>
        <time>2022-10-10T14:26:01Z</time>
      </trkpt>
      <trkpt lat="47.18937" lon="6.20674">
        <ele>521.628</ele>
        <time>2022-10-10T14:26:06Z</time>
      </trkpt>
      <trkpt lat="47.18926" lon="6.20669">
        <ele>521.882</ele>
        <time>2022-10-10T14:26:08Z</time>
      </trkpt>
      <trkpt lat="47.18898" lon="6.20657">
        <ele>522.457</ele>
        <time>2022-10-10T14:26:13Z</time>
      </trkpt>
      <trkpt lat="47.18886" lon="6.20652">
        <ele>522.4</ele>
        <time>2022-10-10T14:26:15Z</time>
      </trkpt>
      <trkpt lat="47.18849" lon="6.20636">
        <ele>521.62</ele>
        <time>2022-10-10T14:26:21Z</time>
      </trkpt>
      <trkpt lat="47.18842" lon="6.20634">
        <ele>521.409</ele>
        <time>2022-10-10T14:26:22Z</time>
      </trkpt>
      <trkpt lat="47.18834" lon="6.20633">
        <ele>520.296</ele>
        <time>2022-10-10T14:26:23Z</time>
      </trkpt>
      <trkpt lat="47.18811" lon="6.20628">
        <ele>518.436</ele>
        <time>2022-10-10T14:26:26Z</time>
      </trkpt>
      <trkpt lat="47.18803" lon="6.20627">
        <ele>518.49</ele>
        <time>2022-10-10T14:26:27Z</time>
      </trkpt>
      <trkpt lat="47.18779" lon="6.20622">
        <ele>517.814</ele>
        <time>2022-10-10T14:26:30Z</time>
      </trkpt>
      <trkpt lat="47.18772" lon="6.20621">
        <ele>517.657</ele>
        <time>2022-10-10T14:26:31Z</time>
      </trkpt>
      <trkpt lat="47.18764" lon="6.20619">
        <ele>517.623</ele>
        <time>2022-10-10T14:26:32Z</time>
      </trkpt>
      <trkpt lat="47.18757" lon="6.20618">
        <ele>517.679</ele>
        <time>2022-10-10T14:26:33Z</time>
      </trkpt>
      <trkpt lat="47.18749" lon="6.20617">
        <ele>517.649</ele>
        <time>2022-10-10T14:26:34Z</time>
      </trkpt>
      <trkpt lat="47.18742" lon="6.20616">
        <ele>517.443</ele>
        <time>2022-10-10T14:26:35Z</time>
      </trkpt>
      <trkpt lat="47.18735" lon="6.20617">
        <ele>517.228</ele>
        <time>2022-10-10T14:26:36Z</time>
      </trkpt>
      <trkpt lat="47.18727" lon="6.20618">
        <ele>516.889</ele>
        <time>2022-10-10T14:26:37Z</time>
      </trkpt>
      <trkpt lat="47.1872" lon="6.2062">
        <ele>516.617</ele>
        <time>2022-10-10T14:26:38Z</time>
      </trkpt>
      <trkpt lat="47.18713" lon="6.20623">
        <ele>516.609</ele>
        <time>2022-10-10T14:26:39Z</time>
      </trkpt>
      <trkpt lat="47.18707" lon="6.20626">
        <ele>516.643</ele>
        <time>2022-10-10T14:26:40Z</time>
      </trkpt>
      <trkpt lat="47.187" lon="6.20628">
        <ele>516.643</ele>
        <time>2022-10-10T14:26:41Z</time>
      </trkpt>
      <trkpt lat="47.18693" lon="6.2063">
        <ele>516.627</ele>
        <time>2022-10-10T14:26:42Z</time>
      </trkpt>
      <trkpt lat="47.18681" lon="6.20632">
        <ele>516.621</ele>
        <time>2022-10-10T14:26:44Z</time>
      </trkpt>
      <trkpt lat="47.18675" lon="6.20632">
        <ele>516.634</ele>
        <time>2022-10-10T14:26:45Z</time>
      </trkpt>
      <trkpt lat="47.18669" lon="6.2063">
        <ele>516.62</ele>
        <time>2022-10-10T14:26:46Z</time>
      </trkpt>
      <trkpt lat="47.18663" lon="6.20627">
        <ele>516.886</ele>
        <time>2022-10-10T14:26:47Z</time>
      </trkpt>
      <trkpt lat="47.18657" lon="6.20624">
        <ele>516.836</ele>
        <time>2022-10-10T14:26:48Z</time>
      </trkpt>
      <trkpt lat="47.18652" lon="6.2062">
        <ele>517.48</ele>
        <time>2022-10-10T14:26:49Z</time>
      </trkpt>
      <trkpt lat="47.18646" lon="6.20615">
        <ele>517.432</ele>
        <time>2022-10-10T14:26:50Z</time>
      </trkpt>
      <trkpt lat="47.18637" lon="6.20604">
        <ele>518.492</ele>
        <time>2022-10-10T14:26:52Z</time>
      </trkpt>
      <trkpt lat="47.18628" lon="6.20593">
        <ele>518.811</ele>
        <time>2022-10-10T14:26:54Z</time>
      </trkpt>
      <trkpt lat="47.18623" lon="6.20587">
        <ele>519.009</ele>
        <time>2022-10-10T14:26:55Z</time>
      </trkpt>
      <trkpt lat="47.18618" lon="6.20581">
        <ele>519.434</ele>
        <time>2022-10-10T14:26:56Z</time>
      </trkpt>
      <trkpt lat="47.18613" lon="6.20576">
        <ele>519.654</ele>
        <time>2022-10-10T14:26:57Z</time>
      </trkpt>
      <trkpt lat="47.1859" lon="6.20548">
        <ele>520.468</ele>
        <time>2022-10-10T14:27:02Z</time>
      </trkpt>
      <trkpt lat="47.18585" lon="6.20542">
        <ele>520.862</ele>
        <time>2022-10-10T14:27:03Z</time>
      </trkpt>
      <trkpt lat="47.18581" lon="6.20535">
        <ele>521.025</ele>
        <time>2022-10-10T14:27:04Z</time>
      </trkpt>
      <trkpt lat="47.18578" lon="6.20529">
        <ele>521.261</ele>
        <time>2022-10-10T14:27:05Z</time>
      </trkpt>
      <trkpt lat="47.18574" lon="6.20523">
        <ele>521.447</ele>
        <time>2022-10-10T14:27:06Z</time>
      </trkpt>
      <trkpt lat="47.18571" lon="6.20516">
        <ele>522.037</ele>
        <time>2022-10-10T14:27:07Z</time>
      </trkpt>
      <trkpt lat="47.18568" lon="6.2051">
        <ele>522.621</ele>
        <time>2022-10-10T14:27:08Z</time>
      </trkpt>
      <trkpt lat="47.18565" lon="6.20503">
        <ele>523.023</ele>
        <time>2022-10-10T14:27:09Z</time>
      </trkpt>
      <trkpt lat="47.18562" lon="6.20495">
        <ele>524.083</ele>
        <time>2022-10-10T14:27:10Z</time>
      </trkpt>
      <trkpt lat="47.18559" lon="6.20488">
        <ele>524.211</ele>
        <time>2022-10-10T14:27:11Z</time>
      </trkpt>
      <trkpt lat="47.18557" lon="6.20481">
        <ele>524.809</ele>
        <time>2022-10-10T14:27:12Z</time>
      </trkpt>
      <trkpt lat="47.18554" lon="6.20474">
        <ele>524.853</ele>
        <time>2022-10-10T14:27:13Z</time>
      </trkpt>
      <trkpt lat="47.18552" lon="6.20466">
        <ele>525.283</ele>
        <time>2022-10-10T14:27:14Z</time>
      </trkpt>
      <trkpt lat="47.18549" lon="6.20459">
        <ele>525.427</ele>
        <time>2022-10-10T14:27:15Z</time>
      </trkpt>
      <trkpt lat="47.18546" lon="6.20452">
        <ele>525.681</ele>
        <time>2022-10-10T14:27:16Z</time>
      </trkpt>
      <trkpt lat="47.18543" lon="6.20445">
        <ele>525.684</ele>
        <time>2022-10-10T14:27:17Z</time>
      </trkpt>
      <trkpt lat="47.1854" lon="6.20439">
        <ele>526.07</ele>
        <time>2022-10-10T14:27:18Z</time>
      </trkpt>
      <trkpt lat="47.18536" lon="6.20433">
        <ele>526.236</ele>
        <time>2022-10-10T14:27:19Z</time>
      </trkpt>
      <trkpt lat="47.18532" lon="6.20427">
        <ele>526.476</ele>
        <time>2022-10-10T14:27:20Z</time>
      </trkpt>
      <trkpt lat="47.18528" lon="6.20422">
        <ele>526.68</ele>
        <time>2022-10-10T14:27:21Z</time>
      </trkpt>
      <trkpt lat="47.18523" lon="6.20416">
        <ele>527.049</ele>
        <time>2022-10-10T14:27:22Z</time>
      </trkpt>
      <trkpt lat="47.18519" lon="6.20411">
        <ele>527.202</ele>
        <time>2022-10-10T14:27:23Z</time>
      </trkpt>
      <trkpt lat="47.18514" lon="6.20406">
        <ele>527.222</ele>
        <time>2022-10-10T14:27:24Z</time>
      </trkpt>
      <trkpt lat="47.18509" lon="6.20402">
        <ele>527.409</ele>
        <time>2022-10-10T14:27:25Z</time>
      </trkpt>
      <trkpt lat="47.18504" lon="6.20398">
        <ele>528.085</ele>
        <time>2022-10-10T14:27:26Z</time>
      </trkpt>
      <trkpt lat="47.18499" lon="6.20393">
        <ele>528.215</ele>
        <time>2022-10-10T14:27:27Z</time>
      </trkpt>
      <trkpt lat="47.18494" lon="6.20388">
        <ele>528.669</ele>
        <time>2022-10-10T14:27:28Z</time>
      </trkpt>
      <trkpt lat="47.1849" lon="6.20383">
        <ele>528.843</ele>
        <time>2022-10-10T14:27:29Z</time>
      </trkpt>
      <trkpt lat="47.18485" lon="6.20378">
        <ele>529.646</ele>
        <time>2022-10-10T14:27:30Z</time>
      </trkpt>
      <trkpt lat="47.18481" lon="6.20372">
        <ele>529.682</ele>
        <time>2022-10-10T14:27:31Z</time>
      </trkpt>
      <trkpt lat="47.18478" lon="6.20365">
        <ele>530.028</ele>
        <time>2022-10-10T14:27:32Z</time>
      </trkpt>
      <trkpt lat="47.18476" lon="6.20358">
        <ele>531.628</ele>
        <time>2022-10-10T14:27:33Z</time>
      </trkpt>
      <trkpt lat="47.18474" lon="6.20351">
        <ele>531.682</ele>
        <time>2022-10-10T14:27:34Z</time>
      </trkpt>
      <trkpt lat="47.18472" lon="6.20344">
        <ele>531.854</ele>
        <time>2022-10-10T14:27:35Z</time>
      </trkpt>
      <trkpt lat="47.1847" lon="6.20337">
        <ele>533.056</ele>
        <time>2022-10-10T14:27:36Z</time>
      </trkpt>
      <trkpt lat="47.18468" lon="6.2033">
        <ele>533.611</ele>
        <time>2022-10-10T14:27:37Z</time>
      </trkpt>
      <trkpt lat="47.18466" lon="6.20324">
        <ele>534.009</ele>
        <time>2022-10-10T14:27:38Z</time>
      </trkpt>
      <trkpt lat="47.18464" lon="6.20318">
        <ele>534.266</ele>
        <time>2022-10-10T14:27:39Z</time>
      </trkpt>
      <trkpt lat="47.18462" lon="6.20311">
        <ele>534.876</ele>
        <time>2022-10-10T14:27:40Z</time>
      </trkpt>
      <trkpt lat="47.18461" lon="6.20305">
        <ele>534.85</ele>
        <time>2022-10-10T14:27:41Z</time>
      </trkpt>
      <trkpt lat="47.18459" lon="6.20298">
        <ele>535.674</ele>
        <time>2022-10-10T14:27:42Z</time>
      </trkpt>
      <trkpt lat="47.18457" lon="6.20292">
        <ele>536.457</ele>
        <time>2022-10-10T14:27:43Z</time>
      </trkpt>
      <trkpt lat="47.18455" lon="6.20286">
        <ele>536.473</ele>
        <time>2022-10-10T14:27:44Z</time>
      </trkpt>
      <trkpt lat="47.18453" lon="6.2028">
        <ele>536.459</ele>
        <time>2022-10-10T14:27:45Z</time>
      </trkpt>
      <trkpt lat="47.18451" lon="6.20274">
        <ele>537.429</ele>
        <time>2022-10-10T14:27:46Z</time>
      </trkpt>
      <trkpt lat="47.18448" lon="6.20268">
        <ele>538.073</ele>
        <time>2022-10-10T14:27:47Z</time>
      </trkpt>
      <trkpt lat="47.18447" lon="6.20262">
        <ele>538.829</ele>
        <time>2022-10-10T14:27:48Z</time>
      </trkpt>
      <trkpt lat="47.18445" lon="6.20255">
        <ele>538.8</ele>
        <time>2022-10-10T14:27:49Z</time>
      </trkpt>
      <trkpt lat="47.18444" lon="6.20249">
        <ele>539.42</ele>
        <time>2022-10-10T14:27:50Z</time>
      </trkpt>
      <trkpt lat="47.18443" lon="6.20242">
        <ele>539.809</ele>
        <time>2022-10-10T14:27:51Z</time>
      </trkpt>
      <trkpt lat="47.18441" lon="6.20236">
        <ele>540.253</ele>
        <time>2022-10-10T14:27:52Z</time>
      </trkpt>
      <trkpt lat="47.1844" lon="6.20229">
        <ele>540.453</ele>
        <time>2022-10-10T14:27:53Z</time>
      </trkpt>
      <trkpt lat="47.18439" lon="6.20222">
        <ele>540.477</ele>
        <time>2022-10-10T14:27:54Z</time>
      </trkpt>
      <trkpt lat="47.18439" lon="6.20215">
        <ele>540.621</ele>
        <time>2022-10-10T14:27:55Z</time>
      </trkpt>
      <trkpt lat="47.18438" lon="6.20208">
        <ele>541.214</ele>
        <time>2022-10-10T14:27:56Z</time>
      </trkpt>
      <trkpt lat="47.18438" lon="6.20202">
        <ele>541.69</ele>
        <time>2022-10-10T14:27:57Z</time>
      </trkpt>
      <trkpt lat="47.18439" lon="6.20195">
        <ele>542.226</ele>
        <time>2022-10-10T14:27:58Z</time>
      </trkpt>
      <trkpt lat="47.18439" lon="6.20188">
        <ele>542.636</ele>
        <time>2022-10-10T14:27:59Z</time>
      </trkpt>
      <trkpt lat="47.1844" lon="6.20181">
        <ele>543.07</ele>
        <time>2022-10-10T14:28:00Z</time>
      </trkpt>
      <trkpt lat="47.1844" lon="6.20174">
        <ele>543.687</ele>
        <time>2022-10-10T14:28:01Z</time>
      </trkpt>
      <trkpt lat="47.1844" lon="6.20167">
        <ele>543.842</ele>
        <time>2022-10-10T14:28:02Z</time>
      </trkpt>
      <trkpt lat="47.1844" lon="6.20159">
        <ele>544.226</ele>
        <time>2022-10-10T14:28:03Z</time>
      </trkpt>
      <trkpt lat="47.1844" lon="6.20152">
        <ele>544.609</ele>
        <time>2022-10-10T14:28:04Z</time>
      </trkpt>
      <trkpt lat="47.1844" lon="6.20145">
        <ele>544.669</ele>
        <time>2022-10-10T14:28:05Z</time>
      </trkpt>
      <trkpt lat="47.18439" lon="6.20138">
        <ele>545.029</ele>
        <time>2022-10-10T14:28:06Z</time>
      </trkpt>
      <trkpt lat="47.18438" lon="6.20131">
        <ele>545.063</ele>
        <time>2022-10-10T14:28:07Z</time>
      </trkpt>
      <trkpt lat="47.18437" lon="6.20123">
        <ele>545.417</ele>
        <time>2022-10-10T14:28:08Z</time>
      </trkpt>
      <trkpt lat="47.18435" lon="6.20115">
        <ele>545.47</ele>
        <time>2022-10-10T14:28:09Z</time>
      </trkpt>
      <trkpt lat="47.18434" lon="6.20108">
        <ele>545.646</ele>
        <time>2022-10-10T14:28:10Z</time>
      </trkpt>
      <trkpt lat="47.18431" lon="6.201">
        <ele>545.842</ele>
        <time>2022-10-10T14:28:11Z</time>
      </trkpt>
      <trkpt lat="47.18429" lon="6.20093">
        <ele>545.832</ele>
        <time>2022-10-10T14:28:12Z</time>
      </trkpt>
      <trkpt lat="47.18426" lon="6.20086">
        <ele>545.856</ele>
        <time>2022-10-10T14:28:13Z</time>
      </trkpt>
      <trkpt lat="47.18423" lon="6.20079">
        <ele>546.032</ele>
        <time>2022-10-10T14:28:14Z</time>
      </trkpt>
      <trkpt lat="47.1842" lon="6.20073">
        <ele>546.492</ele>
        <time>2022-10-10T14:28:15Z</time>
      </trkpt>
      <trkpt lat="47.18416" lon="6.20067">
        <ele>546.611</ele>
        <time>2022-10-10T14:28:16Z</time>
      </trkpt>
      <trkpt lat="47.18412" lon="6.20061">
        <ele>547.009</ele>
        <time>2022-10-10T14:28:17Z</time>
      </trkpt>
      <trkpt lat="47.18408" lon="6.20055">
        <ele>547.084</ele>
        <time>2022-10-10T14:28:18Z</time>
      </trkpt>
      <trkpt lat="47.18404" lon="6.20049">
        <ele>547.064</ele>
        <time>2022-10-10T14:28:19Z</time>
      </trkpt>
      <trkpt lat="47.184" lon="6.20044">
        <ele>547.018</ele>
        <time>2022-10-10T14:28:20Z</time>
      </trkpt>
      <trkpt lat="47.18395" lon="6.20038">
        <ele>547.062</ele>
        <time>2022-10-10T14:28:21Z</time>
      </trkpt>
      <trkpt lat="47.1839" lon="6.20032">
        <ele>547.225</ele>
        <time>2022-10-10T14:28:22Z</time>
      </trkpt>
      <trkpt lat="47.18386" lon="6.20027">
        <ele>547.421</ele>
        <time>2022-10-10T14:28:23Z</time>
      </trkpt>
      <trkpt lat="47.18381" lon="6.20022">
        <ele>547.447</ele>
        <time>2022-10-10T14:28:24Z</time>
      </trkpt>
      <trkpt lat="47.18376" lon="6.20016">
        <ele>547.427</ele>
        <time>2022-10-10T14:28:25Z</time>
      </trkpt>
      <trkpt lat="47.18371" lon="6.20011">
        <ele>547.471</ele>
        <time>2022-10-10T14:28:26Z</time>
      </trkpt>
      <trkpt lat="47.18366" lon="6.20006">
        <ele>547.433</ele>
        <time>2022-10-10T14:28:27Z</time>
      </trkpt>
      <trkpt lat="47.18361" lon="6.20001">
        <ele>547.823</ele>
        <time>2022-10-10T14:28:28Z</time>
      </trkpt>
      <trkpt lat="47.18356" lon="6.19995">
        <ele>547.815</ele>
        <time>2022-10-10T14:28:29Z</time>
      </trkpt>
      <trkpt lat="47.1835" lon="6.1999">
        <ele>548.209</ele>
        <time>2022-10-10T14:28:30Z</time>
      </trkpt>
      <trkpt lat="47.18345" lon="6.19986">
        <ele>548.274</ele>
        <time>2022-10-10T14:28:31Z</time>
      </trkpt>
      <trkpt lat="47.1834" lon="6.19983">
        <ele>548.414</ele>
        <time>2022-10-10T14:28:32Z</time>
      </trkpt>
      <trkpt lat="47.18334" lon="6.19981">
        <ele>548.458</ele>
        <time>2022-10-10T14:28:33Z</time>
      </trkpt>
      <trkpt lat="47.18328" lon="6.19979">
        <ele>548.482</ele>
        <time>2022-10-10T14:28:34Z</time>
      </trkpt>
      <trkpt lat="47.18322" lon="6.1998">
        <ele>548.655</ele>
        <time>2022-10-10T14:28:35Z</time>
      </trkpt>
      <trkpt lat="47.18316" lon="6.19981">
        <ele>548.851</ele>
        <time>2022-10-10T14:28:36Z</time>
      </trkpt>
      <trkpt lat="47.18309" lon="6.19983">
        <ele>548.837</ele>
        <time>2022-10-10T14:28:37Z</time>
      </trkpt>
      <trkpt lat="47.18303" lon="6.19986">
        <ele>548.857</ele>
        <time>2022-10-10T14:28:38Z</time>
      </trkpt>
      <trkpt lat="47.18298" lon="6.19988">
        <ele>549.281</ele>
        <time>2022-10-10T14:28:39Z</time>
      </trkpt>
      <trkpt lat="47.18292" lon="6.19991">
        <ele>549.267</ele>
        <time>2022-10-10T14:28:40Z</time>
      </trkpt>
      <trkpt lat="47.18286" lon="6.19994">
        <ele>549.281</ele>
        <time>2022-10-10T14:28:41Z</time>
      </trkpt>
      <trkpt lat="47.1828" lon="6.19996">
        <ele>549.219</ele>
        <time>2022-10-10T14:28:42Z</time>
      </trkpt>
      <trkpt lat="47.18274" lon="6.19999">
        <ele>549.209</ele>
        <time>2022-10-10T14:28:43Z</time>
      </trkpt>
      <trkpt lat="47.18268" lon="6.20001">
        <ele>549.257</ele>
        <time>2022-10-10T14:28:44Z</time>
      </trkpt>
      <trkpt lat="47.18263" lon="6.20004">
        <ele>549.687</ele>
        <time>2022-10-10T14:28:45Z</time>
      </trkpt>
      <trkpt lat="47.18257" lon="6.20006">
        <ele>549.841</ele>
        <time>2022-10-10T14:28:46Z</time>
      </trkpt>
      <trkpt lat="47.18252" lon="6.20009">
        <ele>552.015</ele>
        <time>2022-10-10T14:28:47Z</time>
      </trkpt>
      <trkpt lat="47.18246" lon="6.2001">
        <ele>552.048</ele>
        <time>2022-10-10T14:28:48Z</time>
      </trkpt>
      <trkpt lat="47.18239" lon="6.20011">
        <ele>552.014</ele>
        <time>2022-10-10T14:28:49Z</time>
      </trkpt>
      <trkpt lat="47.18233" lon="6.20011">
        <ele>552.04</ele>
        <time>2022-10-10T14:28:50Z</time>
      </trkpt>
      <trkpt lat="47.18226" lon="6.20012">
        <ele>550.47</ele>
        <time>2022-10-10T14:28:51Z</time>
      </trkpt>
      <trkpt lat="47.1822" lon="6.20012">
        <ele>550.244</ele>
        <time>2022-10-10T14:28:52Z</time>
      </trkpt>
      <trkpt lat="47.18213" lon="6.20012">
        <ele>550.286</ele>
        <time>2022-10-10T14:28:53Z</time>
      </trkpt>
      <trkpt lat="47.18206" lon="6.20011">
        <ele>550.26</ele>
        <time>2022-10-10T14:28:54Z</time>
      </trkpt>
      <trkpt lat="47.18199" lon="6.20009">
        <ele>550.426</ele>
        <time>2022-10-10T14:28:55Z</time>
      </trkpt>
      <trkpt lat="47.18194" lon="6.20008">
        <ele>550.409</ele>
        <time>2022-10-10T14:28:56Z</time>
      </trkpt>
      <trkpt lat="47.18188" lon="6.20006">
        <ele>550.849</ele>
        <time>2022-10-10T14:28:57Z</time>
      </trkpt>
      <trkpt lat="47.18182" lon="6.20003">
        <ele>550.869</ele>
        <time>2022-10-10T14:28:58Z</time>
      </trkpt>
      <trkpt lat="47.18176" lon="6.20001">
        <ele>550.813</ele>
        <time>2022-10-10T14:28:59Z</time>
      </trkpt>
      <trkpt lat="47.1817" lon="6.19999">
        <ele>551.077</ele>
        <time>2022-10-10T14:29:00Z</time>
      </trkpt>
      <trkpt lat="47.18158" lon="6.19998">
        <ele>551.48</ele>
        <time>2022-10-10T14:29:02Z</time>
      </trkpt>
      <trkpt lat="47.18152" lon="6.19998">
        <ele>552.036</ele>
        <time>2022-10-10T14:29:03Z</time>
      </trkpt>
      <trkpt lat="47.18145" lon="6.19997">
        <ele>552.092</ele>
        <time>2022-10-10T14:29:04Z</time>
      </trkpt>
      <trkpt lat="47.18129" lon="6.2">
        <ele>552.462</ele>
        <time>2022-10-10T14:29:07Z</time>
      </trkpt>
      <trkpt lat="47.18106" lon="6.2001">
        <ele>553.646</ele>
        <time>2022-10-10T14:29:11Z</time>
      </trkpt>
      <trkpt lat="47.181" lon="6.20012">
        <ele>554.244</ele>
        <time>2022-10-10T14:29:12Z</time>
      </trkpt>
      <trkpt lat="47.18094" lon="6.20014">
        <ele>554.205</ele>
        <time>2022-10-10T14:29:13Z</time>
      </trkpt>
      <trkpt lat="47.18088" lon="6.20016">
        <ele>554.615</ele>
        <time>2022-10-10T14:29:14Z</time>
      </trkpt>
      <trkpt lat="47.18082" lon="6.20019">
        <ele>555.009</ele>
        <time>2022-10-10T14:29:15Z</time>
      </trkpt>
      <trkpt lat="47.18076" lon="6.20021">
        <ele>555.035</ele>
        <time>2022-10-10T14:29:16Z</time>
      </trkpt>
      <trkpt lat="47.1807" lon="6.20024">
        <ele>555.215</ele>
        <time>2022-10-10T14:29:17Z</time>
      </trkpt>
      <trkpt lat="47.18065" lon="6.20027">
        <ele>555.879</ele>
        <time>2022-10-10T14:29:18Z</time>
      </trkpt>
      <trkpt lat="47.18059" lon="6.20031">
        <ele>556.043</ele>
        <time>2022-10-10T14:29:19Z</time>
      </trkpt>
      <trkpt lat="47.18054" lon="6.20036">
        <ele>556.066</ele>
        <time>2022-10-10T14:29:20Z</time>
      </trkpt>
      <trkpt lat="47.18049" lon="6.2004">
        <ele>556.422</ele>
        <time>2022-10-10T14:29:21Z</time>
      </trkpt>
      <trkpt lat="47.18044" lon="6.20045">
        <ele>557.278</ele>
        <time>2022-10-10T14:29:22Z</time>
      </trkpt>
      <trkpt lat="47.18039" lon="6.2005">
        <ele>557.678</ele>
        <time>2022-10-10T14:29:23Z</time>
      </trkpt>
      <trkpt lat="47.18034" lon="6.20056">
        <ele>557.672</ele>
        <time>2022-10-10T14:29:24Z</time>
      </trkpt>
      <trkpt lat="47.1803" lon="6.20062">
        <ele>557.842</ele>
        <time>2022-10-10T14:29:25Z</time>
      </trkpt>
      <trkpt lat="47.18026" lon="6.20068">
        <ele>558.022</ele>
        <time>2022-10-10T14:29:26Z</time>
      </trkpt>
      <trkpt lat="47.18022" lon="6.20075">
        <ele>558.214</ele>
        <time>2022-10-10T14:29:27Z</time>
      </trkpt>
      <trkpt lat="47.18019" lon="6.2008">
        <ele>558.609</ele>
        <time>2022-10-10T14:29:28Z</time>
      </trkpt>
      <trkpt lat="47.18013" lon="6.20089">
        <ele>559.215</ele>
        <time>2022-10-10T14:29:29Z</time>
      </trkpt>
      <trkpt lat="47.18009" lon="6.20096">
        <ele>559.485</ele>
        <time>2022-10-10T14:29:30Z</time>
      </trkpt>
      <trkpt lat="47.18005" lon="6.20103">
        <ele>559.479</ele>
        <time>2022-10-10T14:29:31Z</time>
      </trkpt>
      <trkpt lat="47.18001" lon="6.2011">
        <ele>559.453</ele>
        <time>2022-10-10T14:29:32Z</time>
      </trkpt>
      <trkpt lat="47.17998" lon="6.20116">
        <ele>559.426</ele>
        <time>2022-10-10T14:29:33Z</time>
      </trkpt>
      <trkpt lat="47.17994" lon="6.20123">
        <ele>559.242</ele>
        <time>2022-10-10T14:29:34Z</time>
      </trkpt>
      <trkpt lat="47.1799" lon="6.2013">
        <ele>559.498</ele>
        <time>2022-10-10T14:29:35Z</time>
      </trkpt>
      <trkpt lat="47.17986" lon="6.20137">
        <ele>559.238</ele>
        <time>2022-10-10T14:29:36Z</time>
      </trkpt>
      <trkpt lat="47.17982" lon="6.20144">
        <ele>559.262</ele>
        <time>2022-10-10T14:29:37Z</time>
      </trkpt>
      <trkpt lat="47.17978" lon="6.20151">
        <ele>559.233</ele>
        <time>2022-10-10T14:29:38Z</time>
      </trkpt>
      <trkpt lat="47.17973" lon="6.20159">
        <ele>560.223</ele>
        <time>2022-10-10T14:29:39Z</time>
      </trkpt>
      <trkpt lat="47.17969" lon="6.20165">
        <ele>561.215</ele>
        <time>2022-10-10T14:29:40Z</time>
      </trkpt>
      <trkpt lat="47.17965" lon="6.20171">
        <ele>561.409</ele>
        <time>2022-10-10T14:29:41Z</time>
      </trkpt>
      <trkpt lat="47.1796" lon="6.20177">
        <ele>561.474</ele>
        <time>2022-10-10T14:29:42Z</time>
      </trkpt>
      <trkpt lat="47.17956" lon="6.20182">
        <ele>562.024</ele>
        <time>2022-10-10T14:29:43Z</time>
      </trkpt>
      <trkpt lat="47.17952" lon="6.20187">
        <ele>562.888</ele>
        <time>2022-10-10T14:29:44Z</time>
      </trkpt>
      <trkpt lat="47.17947" lon="6.20193">
        <ele>562.832</ele>
        <time>2022-10-10T14:29:45Z</time>
      </trkpt>
      <trkpt lat="47.17942" lon="6.20198">
        <ele>563.655</ele>
        <time>2022-10-10T14:29:46Z</time>
      </trkpt>
      <trkpt lat="47.17937" lon="6.20202">
        <ele>564.091</ele>
        <time>2022-10-10T14:29:47Z</time>
      </trkpt>
      <trkpt lat="47.17932" lon="6.20207">
        <ele>564.687</ele>
        <time>2022-10-10T14:29:48Z</time>
      </trkpt>
      <trkpt lat="47.17927" lon="6.20212">
        <ele>564.647</ele>
        <time>2022-10-10T14:29:49Z</time>
      </trkpt>
      <trkpt lat="47.17921" lon="6.20217">
        <ele>565.251</ele>
        <time>2022-10-10T14:29:50Z</time>
      </trkpt>
      <trkpt lat="47.17915" lon="6.20222">
        <ele>565.427</ele>
        <time>2022-10-10T14:29:51Z</time>
      </trkpt>
      <trkpt lat="47.1791" lon="6.20226">
        <ele>565.668</ele>
        <time>2022-10-10T14:29:52Z</time>
      </trkpt>
      <trkpt lat="47.17905" lon="6.2023">
        <ele>565.814</ele>
        <time>2022-10-10T14:29:53Z</time>
      </trkpt>
      <trkpt lat="47.17901" lon="6.20233">
        <ele>566.209</ele>
        <time>2022-10-10T14:29:54Z</time>
      </trkpt>
      <trkpt lat="47.17894" lon="6.20238">
        <ele>566.633</ele>
        <time>2022-10-10T14:29:55Z</time>
      </trkpt>
      <trkpt lat="47.17889" lon="6.20242">
        <ele>567.013</ele>
        <time>2022-10-10T14:29:56Z</time>
      </trkpt>
      <trkpt lat="47.17883" lon="6.20246">
        <ele>567.267</ele>
        <time>2022-10-10T14:29:57Z</time>
      </trkpt>
      <trkpt lat="47.17878" lon="6.20249">
        <ele>567.491</ele>
        <time>2022-10-10T14:29:58Z</time>
      </trkpt>
      <trkpt lat="47.17872" lon="6.20254">
        <ele>567.664</ele>
        <time>2022-10-10T14:29:59Z</time>
      </trkpt>
      <trkpt lat="47.17866" lon="6.20258">
        <ele>568.01</ele>
        <time>2022-10-10T14:30:00Z</time>
      </trkpt>
      <trkpt lat="47.1786" lon="6.20262">
        <ele>568.076</ele>
        <time>2022-10-10T14:30:01Z</time>
      </trkpt>
      <trkpt lat="47.17855" lon="6.20266">
        <ele>568.446</ele>
        <time>2022-10-10T14:30:02Z</time>
      </trkpt>
      <trkpt lat="47.17849" lon="6.20269">
        <ele>568.48</ele>
        <time>2022-10-10T14:30:03Z</time>
      </trkpt>
      <trkpt lat="47.17845" lon="6.20273">
        <ele>568.688</ele>
        <time>2022-10-10T14:30:04Z</time>
      </trkpt>
      <trkpt lat="47.17839" lon="6.20278">
        <ele>568.624</ele>
        <time>2022-10-10T14:30:05Z</time>
      </trkpt>
      <trkpt lat="47.17833" lon="6.20282">
        <ele>568.626</ele>
        <time>2022-10-10T14:30:06Z</time>
      </trkpt>
      <trkpt lat="47.17828" lon="6.20287">
        <ele>569.409</ele>
        <time>2022-10-10T14:30:07Z</time>
      </trkpt>
      <trkpt lat="47.17823" lon="6.20292">
        <ele>569.449</ele>
        <time>2022-10-10T14:30:08Z</time>
      </trkpt>
      <trkpt lat="47.17817" lon="6.20296">
        <ele>569.859</ele>
        <time>2022-10-10T14:30:09Z</time>
      </trkpt>
      <trkpt lat="47.17812" lon="6.20302">
        <ele>569.873</ele>
        <time>2022-10-10T14:30:10Z</time>
      </trkpt>
      <trkpt lat="47.17807" lon="6.20307">
        <ele>569.887</ele>
        <time>2022-10-10T14:30:11Z</time>
      </trkpt>
      <trkpt lat="47.17802" lon="6.20311">
        <ele>569.85</ele>
        <time>2022-10-10T14:30:12Z</time>
      </trkpt>
      <trkpt lat="47.17796" lon="6.20316">
        <ele>569.876</ele>
        <time>2022-10-10T14:30:13Z</time>
      </trkpt>
      <trkpt lat="47.17791" lon="6.20321">
        <ele>569.852</ele>
        <time>2022-10-10T14:30:14Z</time>
      </trkpt>
      <trkpt lat="47.17786" lon="6.20326">
        <ele>569.862</ele>
        <time>2022-10-10T14:30:15Z</time>
      </trkpt>
      <trkpt lat="47.1778" lon="6.20332">
        <ele>569.846</ele>
        <time>2022-10-10T14:30:16Z</time>
      </trkpt>
      <trkpt lat="47.17775" lon="6.20337">
        <ele>569.846</ele>
        <time>2022-10-10T14:30:17Z</time>
      </trkpt>
      <trkpt lat="47.1777" lon="6.20342">
        <ele>569.888</ele>
        <time>2022-10-10T14:30:18Z</time>
      </trkpt>
      <trkpt lat="47.17765" lon="6.20347">
        <ele>569.816</ele>
        <time>2022-10-10T14:30:19Z</time>
      </trkpt>
      <trkpt lat="47.1776" lon="6.20353">
        <ele>569.809</ele>
        <time>2022-10-10T14:30:20Z</time>
      </trkpt>
      <trkpt lat="47.17755" lon="6.20358">
        <ele>570.065</ele>
        <time>2022-10-10T14:30:21Z</time>
      </trkpt>
      <trkpt lat="47.17749" lon="6.20363">
        <ele>570.055</ele>
        <time>2022-10-10T14:30:22Z</time>
      </trkpt>
      <trkpt lat="47.17744" lon="6.20368">
        <ele>570.299</ele>
        <time>2022-10-10T14:30:23Z</time>
      </trkpt>
      <trkpt lat="47.17739" lon="6.20373">
        <ele>570.293</ele>
        <time>2022-10-10T14:30:24Z</time>
      </trkpt>
      <trkpt lat="47.17734" lon="6.20378">
        <ele>570.276</ele>
        <time>2022-10-10T14:30:25Z</time>
      </trkpt>
      <trkpt lat="47.17729" lon="6.20383">
        <ele>570.412</ele>
        <time>2022-10-10T14:30:26Z</time>
      </trkpt>
      <trkpt lat="47.17724" lon="6.20388">
        <ele>570.418</ele>
        <time>2022-10-10T14:30:27Z</time>
      </trkpt>
      <trkpt lat="47.17719" lon="6.20393">
        <ele>570.658</ele>
        <time>2022-10-10T14:30:28Z</time>
      </trkpt>
      <trkpt lat="47.17714" lon="6.20398">
        <ele>571.032</ele>
        <time>2022-10-10T14:30:29Z</time>
      </trkpt>
      <trkpt lat="47.17709" lon="6.20403">
        <ele>571.694</ele>
        <time>2022-10-10T14:30:30Z</time>
      </trkpt>
      <trkpt lat="47.17703" lon="6.20408">
        <ele>572.257</ele>
        <time>2022-10-10T14:30:31Z</time>
      </trkpt>
      <trkpt lat="47.17699" lon="6.20413">
        <ele>572.222</ele>
        <time>2022-10-10T14:30:32Z</time>
      </trkpt>
      <trkpt lat="47.17694" lon="6.20419">
        <ele>572.409</ele>
        <time>2022-10-10T14:30:33Z</time>
      </trkpt>
      <trkpt lat="47.17689" lon="6.20424">
        <ele>572.47</ele>
        <time>2022-10-10T14:30:34Z</time>
      </trkpt>
      <trkpt lat="47.17685" lon="6.2043">
        <ele>573.08</ele>
        <time>2022-10-10T14:30:35Z</time>
      </trkpt>
      <trkpt lat="47.17681" lon="6.20437">
        <ele>573.264</ele>
        <time>2022-10-10T14:30:36Z</time>
      </trkpt>
      <trkpt lat="47.17677" lon="6.20444">
        <ele>573.298</ele>
        <time>2022-10-10T14:30:37Z</time>
      </trkpt>
      <trkpt lat="47.17673" lon="6.20452">
        <ele>573.221</ele>
        <time>2022-10-10T14:30:38Z</time>
      </trkpt>
      <trkpt lat="47.1767" lon="6.2046">
        <ele>573.287</ele>
        <time>2022-10-10T14:30:39Z</time>
      </trkpt>
      <trkpt lat="47.17667" lon="6.20469">
        <ele>573.293</ele>
        <time>2022-10-10T14:30:40Z</time>
      </trkpt>
      <trkpt lat="47.17665" lon="6.20478">
        <ele>573.063</ele>
        <time>2022-10-10T14:30:41Z</time>
      </trkpt>
      <trkpt lat="47.17663" lon="6.20487">
        <ele>572.817</ele>
        <time>2022-10-10T14:30:42Z</time>
      </trkpt>
      <trkpt lat="47.17661" lon="6.20497">
        <ele>572.882</ele>
        <time>2022-10-10T14:30:43Z</time>
      </trkpt>
      <trkpt lat="47.1766" lon="6.20507">
        <ele>572.643</ele>
        <time>2022-10-10T14:30:44Z</time>
      </trkpt>
      <trkpt lat="47.17658" lon="6.20517">
        <ele>572.617</ele>
        <time>2022-10-10T14:30:45Z</time>
      </trkpt>
      <trkpt lat="47.17657" lon="6.20527">
        <ele>572.609</ele>
        <time>2022-10-10T14:30:46Z</time>
      </trkpt>
      <trkpt lat="47.17654" lon="6.20537">
        <ele>572.669</ele>
        <time>2022-10-10T14:30:47Z</time>
      </trkpt>
      <trkpt lat="47.17652" lon="6.20546">
        <ele>572.679</ele>
        <time>2022-10-10T14:30:48Z</time>
      </trkpt>
      <trkpt lat="47.1765" lon="6.20555">
        <ele>572.653</ele>
        <time>2022-10-10T14:30:49Z</time>
      </trkpt>
      <trkpt lat="47.17647" lon="6.20563">
        <ele>573.077</ele>
        <time>2022-10-10T14:30:50Z</time>
      </trkpt>
      <trkpt lat="47.17644" lon="6.20571">
        <ele>573.48</ele>
        <time>2022-10-10T14:30:51Z</time>
      </trkpt>
      <trkpt lat="47.17641" lon="6.20578">
        <ele>573.486</ele>
        <time>2022-10-10T14:30:52Z</time>
      </trkpt>
      <trkpt lat="47.17625" lon="6.20606">
        <ele>574.092</ele>
        <time>2022-10-10T14:30:56Z</time>
      </trkpt>
      <trkpt lat="47.17617" lon="6.2062">
        <ele>574.222</ele>
        <time>2022-10-10T14:30:58Z</time>
      </trkpt>
      <trkpt lat="47.17601" lon="6.20651">
        <ele>573.026</ele>
        <time>2022-10-10T14:31:02Z</time>
      </trkpt>
      <trkpt lat="47.17597" lon="6.2066">
        <ele>572.473</ele>
        <time>2022-10-10T14:31:03Z</time>
      </trkpt>
      <trkpt lat="47.17588" lon="6.20679">
        <ele>571.285</ele>
        <time>2022-10-10T14:31:05Z</time>
      </trkpt>
      <trkpt lat="47.17584" lon="6.20688">
        <ele>570.213</ele>
        <time>2022-10-10T14:31:06Z</time>
      </trkpt>
      <trkpt lat="47.17574" lon="6.20706">
        <ele>569.609</ele>
        <time>2022-10-10T14:31:08Z</time>
      </trkpt>
      <trkpt lat="47.17564" lon="6.20724">
        <ele>569.268</ele>
        <time>2022-10-10T14:31:10Z</time>
      </trkpt>
      <trkpt lat="47.17559" lon="6.20733">
        <ele>568.848</ele>
        <time>2022-10-10T14:31:11Z</time>
      </trkpt>
      <trkpt lat="47.17554" lon="6.20741">
        <ele>568.852</ele>
        <time>2022-10-10T14:31:12Z</time>
      </trkpt>
      <trkpt lat="47.17549" lon="6.2075">
        <ele>568.856</ele>
        <time>2022-10-10T14:31:13Z</time>
      </trkpt>
      <trkpt lat="47.17544" lon="6.20758">
        <ele>568.859</ele>
        <time>2022-10-10T14:31:14Z</time>
      </trkpt>
      <trkpt lat="47.17539" lon="6.20766">
        <ele>569.075</ele>
        <time>2022-10-10T14:31:15Z</time>
      </trkpt>
      <trkpt lat="47.17535" lon="6.20773">
        <ele>569.281</ele>
        <time>2022-10-10T14:31:16Z</time>
      </trkpt>
      <trkpt lat="47.1753" lon="6.2078">
        <ele>569.261</ele>
        <time>2022-10-10T14:31:17Z</time>
      </trkpt>
      <trkpt lat="47.17526" lon="6.20788">
        <ele>569.255</ele>
        <time>2022-10-10T14:31:18Z</time>
      </trkpt>
      <trkpt lat="47.17521" lon="6.20795">
        <ele>569.439</ele>
        <time>2022-10-10T14:31:19Z</time>
      </trkpt>
      <trkpt lat="47.17517" lon="6.20801">
        <ele>569.601</ele>
        <time>2022-10-10T14:31:20Z</time>
      </trkpt>
      <trkpt lat="47.17514" lon="6.20807">
        <ele>569.621</ele>
        <time>2022-10-10T14:31:21Z</time>
      </trkpt>
      <trkpt lat="47.17509" lon="6.20815">
        <ele>569.609</ele>
        <time>2022-10-10T14:31:22Z</time>
      </trkpt>
      <trkpt lat="47.17501" lon="6.20829">
        <ele>570.274</ele>
        <time>2022-10-10T14:31:24Z</time>
      </trkpt>
      <trkpt lat="47.17485" lon="6.20856">
        <ele>571.824</ele>
        <time>2022-10-10T14:31:28Z</time>
      </trkpt>
      <trkpt lat="47.17481" lon="6.20863">
        <ele>572.088</ele>
        <time>2022-10-10T14:31:29Z</time>
      </trkpt>
      <trkpt lat="47.17473" lon="6.20877">
        <ele>573.052</ele>
        <time>2022-10-10T14:31:31Z</time>
      </trkpt>
      <trkpt lat="47.17455" lon="6.20904">
        <ele>574.245</ele>
        <time>2022-10-10T14:31:35Z</time>
      </trkpt>
      <trkpt lat="47.17451" lon="6.2091">
        <ele>574.461</ele>
        <time>2022-10-10T14:31:36Z</time>
      </trkpt>
      <trkpt lat="47.17447" lon="6.20917">
        <ele>574.647</ele>
        <time>2022-10-10T14:31:37Z</time>
      </trkpt>
      <trkpt lat="47.17443" lon="6.20924">
        <ele>575.047</ele>
        <time>2022-10-10T14:31:38Z</time>
      </trkpt>
      <trkpt lat="47.17438" lon="6.20931">
        <ele>575.251</ele>
        <time>2022-10-10T14:31:39Z</time>
      </trkpt>
      <trkpt lat="47.17434" lon="6.20937">
        <ele>575.249</ele>
        <time>2022-10-10T14:31:40Z</time>
      </trkpt>
      <trkpt lat="47.1743" lon="6.20944">
        <ele>575.402</ele>
        <time>2022-10-10T14:31:41Z</time>
      </trkpt>
      <trkpt lat="47.17426" lon="6.20949">
        <ele>575.422</ele>
        <time>2022-10-10T14:31:42Z</time>
      </trkpt>
      <trkpt lat="47.17422" lon="6.20956">
        <ele>575.409</ele>
        <time>2022-10-10T14:31:43Z</time>
      </trkpt>
      <trkpt lat="47.17417" lon="6.20964">
        <ele>575.485</ele>
        <time>2022-10-10T14:31:44Z</time>
      </trkpt>
      <trkpt lat="47.17414" lon="6.20969">
        <ele>575.675</ele>
        <time>2022-10-10T14:31:45Z</time>
      </trkpt>
      <trkpt lat="47.1741" lon="6.20976">
        <ele>575.819</ele>
        <time>2022-10-10T14:31:46Z</time>
      </trkpt>
      <trkpt lat="47.17405" lon="6.20984">
        <ele>576.453</ele>
        <time>2022-10-10T14:31:47Z</time>
      </trkpt>
      <trkpt lat="47.17401" lon="6.20991">
        <ele>576.666</ele>
        <time>2022-10-10T14:31:48Z</time>
      </trkpt>
      <trkpt lat="47.17397" lon="6.20997">
        <ele>576.672</ele>
        <time>2022-10-10T14:31:49Z</time>
      </trkpt>
      <trkpt lat="47.17393" lon="6.21003">
        <ele>576.688</ele>
        <time>2022-10-10T14:31:50Z</time>
      </trkpt>
      <trkpt lat="47.1739" lon="6.21008">
        <ele>576.678</ele>
        <time>2022-10-10T14:31:51Z</time>
      </trkpt>
      <trkpt lat="47.17386" lon="6.21015">
        <ele>576.622</ele>
        <time>2022-10-10T14:31:52Z</time>
      </trkpt>
      <trkpt lat="47.17381" lon="6.21023">
        <ele>576.625</ele>
        <time>2022-10-10T14:31:53Z</time>
      </trkpt>
      <trkpt lat="47.17378" lon="6.2103">
        <ele>576.626</ele>
        <time>2022-10-10T14:31:54Z</time>
      </trkpt>
      <trkpt lat="47.17375" lon="6.21038">
        <ele>576.408</ele>
        <time>2022-10-10T14:31:55Z</time>
      </trkpt>
      <trkpt lat="47.17372" lon="6.21046">
        <ele>575.809</ele>
        <time>2022-10-10T14:31:56Z</time>
      </trkpt>
      <trkpt lat="47.17372" lon="6.21046">
        <ele>574.833</ele>
        <time>2022-10-10T14:31:57Z</time>
      </trkpt>
      <trkpt lat="47.17366" lon="6.21062">
        <ele>574.823</ele>
        <time>2022-10-10T14:31:58Z</time>
      </trkpt>
      <trkpt lat="47.17363" lon="6.21071">
        <ele>574.237</ele>
        <time>2022-10-10T14:31:59Z</time>
      </trkpt>
      <trkpt lat="47.1736" lon="6.21081">
        <ele>573.861</ele>
        <time>2022-10-10T14:32:00Z</time>
      </trkpt>
      <trkpt lat="47.17357" lon="6.21092">
        <ele>573.024</ele>
        <time>2022-10-10T14:32:01Z</time>
      </trkpt>
      <trkpt lat="47.17354" lon="6.21102">
        <ele>572.22</ele>
        <time>2022-10-10T14:32:02Z</time>
      </trkpt>
      <trkpt lat="47.17349" lon="6.21124">
        <ele>571.646</ele>
        <time>2022-10-10T14:32:04Z</time>
      </trkpt>
      <trkpt lat="47.17343" lon="6.21147">
        <ele>571.056</ele>
        <time>2022-10-10T14:32:06Z</time>
      </trkpt>
      <trkpt lat="47.17338" lon="6.21171">
        <ele>569.65</ele>
        <time>2022-10-10T14:32:08Z</time>
      </trkpt>
      <trkpt lat="47.17335" lon="6.21184">
        <ele>569.264</ele>
        <time>2022-10-10T14:32:09Z</time>
      </trkpt>
      <trkpt lat="47.17332" lon="6.21196">
        <ele>568.606</ele>
        <time>2022-10-10T14:32:10Z</time>
      </trkpt>
      <trkpt lat="47.1733" lon="6.21207">
        <ele>568.616</ele>
        <time>2022-10-10T14:32:11Z</time>
      </trkpt>
      <trkpt lat="47.17327" lon="6.21218">
        <ele>568.609</ele>
        <time>2022-10-10T14:32:12Z</time>
      </trkpt>
      <trkpt lat="47.17325" lon="6.21228">
        <ele>569.087</ele>
        <time>2022-10-10T14:32:13Z</time>
      </trkpt>
      <trkpt lat="47.17322" lon="6.21238">
        <ele>569.077</ele>
        <time>2022-10-10T14:32:14Z</time>
      </trkpt>
      <trkpt lat="47.1732" lon="6.21248">
        <ele>569.051</ele>
        <time>2022-10-10T14:32:15Z</time>
      </trkpt>
      <trkpt lat="47.17318" lon="6.21257">
        <ele>569.045</ele>
        <time>2022-10-10T14:32:16Z</time>
      </trkpt>
      <trkpt lat="47.17316" lon="6.21266">
        <ele>569.468</ele>
        <time>2022-10-10T14:32:17Z</time>
      </trkpt>
      <trkpt lat="47.17313" lon="6.21275">
        <ele>569.874</ele>
        <time>2022-10-10T14:32:18Z</time>
      </trkpt>
      <trkpt lat="47.1731" lon="6.21282">
        <ele>569.89</ele>
        <time>2022-10-10T14:32:19Z</time>
      </trkpt>
      <trkpt lat="47.17306" lon="6.21286">
        <ele>570.07</ele>
        <time>2022-10-10T14:32:20Z</time>
      </trkpt>
      <trkpt lat="47.17303" lon="6.21286">
        <ele>570.054</ele>
        <time>2022-10-10T14:32:21Z</time>
      </trkpt>
      <trkpt lat="47.17298" lon="6.21283">
        <ele>570.447</ele>
        <time>2022-10-10T14:32:22Z</time>
      </trkpt>
      <trkpt lat="47.1729" lon="6.21273">
        <ele>570.629</ele>
        <time>2022-10-10T14:32:24Z</time>
      </trkpt>
      <trkpt lat="47.17283" lon="6.2126">
        <ele>570.621</ele>
        <time>2022-10-10T14:32:26Z</time>
      </trkpt>
      <trkpt lat="47.17263" lon="6.21225">
        <ele>570.609</ele>
        <time>2022-10-10T14:32:31Z</time>
      </trkpt>
      <trkpt lat="47.17255" lon="6.21213">
        <ele>570.445</ele>
        <time>2022-10-10T14:32:33Z</time>
      </trkpt>
      <trkpt lat="47.17245" lon="6.21201">
        <ele>569.675</ele>
        <time>2022-10-10T14:32:35Z</time>
      </trkpt>
      <trkpt lat="47.17239" lon="6.21194">
        <ele>569.249</ele>
        <time>2022-10-10T14:32:36Z</time>
      </trkpt>
      <trkpt lat="47.17236" lon="6.21189">
        <ele>569.223</ele>
        <time>2022-10-10T14:32:37Z</time>
      </trkpt>
      <trkpt lat="47.1723" lon="6.21182">
        <ele>569.286</ele>
        <time>2022-10-10T14:32:38Z</time>
      </trkpt>
      <trkpt lat="47.17225" lon="6.21176">
        <ele>569.012</ele>
        <time>2022-10-10T14:32:39Z</time>
      </trkpt>
      <trkpt lat="47.17222" lon="6.21172">
        <ele>569.068</ele>
        <time>2022-10-10T14:32:40Z</time>
      </trkpt>
      <trkpt lat="47.17217" lon="6.21166">
        <ele>569.058</ele>
        <time>2022-10-10T14:32:41Z</time>
      </trkpt>
      <trkpt lat="47.17212" lon="6.2116">
        <ele>568.872</ele>
        <time>2022-10-10T14:32:42Z</time>
      </trkpt>
      <trkpt lat="47.17197" lon="6.21143">
        <ele>568.818</ele>
        <time>2022-10-10T14:32:45Z</time>
      </trkpt>
      <trkpt lat="47.17193" lon="6.21139">
        <ele>568.498</ele>
        <time>2022-10-10T14:32:46Z</time>
      </trkpt>
      <trkpt lat="47.17187" lon="6.21133">
        <ele>568.417</ele>
        <time>2022-10-10T14:32:47Z</time>
      </trkpt>
      <trkpt lat="47.17182" lon="6.21128">
        <ele>568.409</ele>
        <time>2022-10-10T14:32:48Z</time>
      </trkpt>
      <trkpt lat="47.17178" lon="6.21123">
        <ele>568.472</ele>
        <time>2022-10-10T14:32:49Z</time>
      </trkpt>
      <trkpt lat="47.17174" lon="6.21119">
        <ele>568.422</ele>
        <time>2022-10-10T14:32:50Z</time>
      </trkpt>
      <trkpt lat="47.17174" lon="6.21119">
        <ele>568.426</ele>
        <time>2022-10-10T14:32:51Z</time>
      </trkpt>
      <trkpt lat="47.17167" lon="6.2112">
        <ele>568.65</ele>
        <time>2022-10-10T14:32:52Z</time>
      </trkpt>
      <trkpt lat="47.17164" lon="6.21125">
        <ele>568.653</ele>
        <time>2022-10-10T14:32:53Z</time>
      </trkpt>
      <trkpt lat="47.17161" lon="6.21131">
        <ele>568.889</ele>
        <time>2022-10-10T14:32:54Z</time>
      </trkpt>
      <trkpt lat="47.17158" lon="6.21135">
        <ele>569.085</ele>
        <time>2022-10-10T14:32:55Z</time>
      </trkpt>
      <trkpt lat="47.17155" lon="6.21139">
        <ele>569.025</ele>
        <time>2022-10-10T14:32:56Z</time>
      </trkpt>
      <trkpt lat="47.17151" lon="6.21139">
        <ele>569.039</ele>
        <time>2022-10-10T14:32:57Z</time>
      </trkpt>
      <trkpt lat="47.1715" lon="6.2113">
        <ele>569.047</ele>
        <time>2022-10-10T14:32:59Z</time>
      </trkpt>
      <trkpt lat="47.17153" lon="6.21125">
        <ele>568.029</ele>
        <time>2022-10-10T14:33:00Z</time>
      </trkpt>
      <trkpt lat="47.17157" lon="6.21121">
        <ele>566.421</ele>
        <time>2022-10-10T14:33:01Z</time>
      </trkpt>
      <trkpt lat="47.17159" lon="6.21117">
        <ele>566.409</ele>
        <time>2022-10-10T14:33:02Z</time>
      </trkpt>
      <trkpt lat="47.1716" lon="6.21109">
        <ele>566.285</ele>
        <time>2022-10-10T14:33:04Z</time>
      </trkpt>
      <trkpt lat="47.1716" lon="6.21105">
        <ele>565.885</ele>
        <time>2022-10-10T14:33:05Z</time>
      </trkpt>
      <trkpt lat="47.17159" lon="6.21101">
        <ele>565.899</ele>
        <time>2022-10-10T14:33:06Z</time>
      </trkpt>
      <trkpt lat="47.17155" lon="6.21097">
        <ele>565.873</ele>
        <time>2022-10-10T14:33:07Z</time>
      </trkpt>
      <trkpt lat="47.17151" lon="6.21093">
        <ele>565.886</ele>
        <time>2022-10-10T14:33:08Z</time>
      </trkpt>
      <trkpt lat="47.17145" lon="6.21092">
        <ele>565.882</ele>
        <time>2022-10-10T14:33:09Z</time>
      </trkpt>
      <trkpt lat="47.17141" lon="6.21093">
        <ele>566.678</ele>
        <time>2022-10-10T14:33:10Z</time>
      </trkpt>
      <trkpt lat="47.17137" lon="6.21096">
        <ele>567.428</ele>
        <time>2022-10-10T14:33:11Z</time>
      </trkpt>
      <trkpt lat="47.17129" lon="6.21106">
        <ele>567.852</ele>
        <time>2022-10-10T14:33:13Z</time>
      </trkpt>
      <trkpt lat="47.17125" lon="6.21111">
        <ele>567.862</ele>
        <time>2022-10-10T14:33:14Z</time>
      </trkpt>
      <trkpt lat="47.17119" lon="6.21115">
        <ele>567.883</ele>
        <time>2022-10-10T14:33:15Z</time>
      </trkpt>
      <trkpt lat="47.17104" lon="6.21126">
        <ele>569.011</ele>
        <time>2022-10-10T14:33:18Z</time>
      </trkpt>
      <trkpt lat="47.17091" lon="6.21136">
        <ele>569.609</ele>
        <time>2022-10-10T14:33:21Z</time>
      </trkpt>
      <trkpt lat="47.17086" lon="6.21139">
        <ele>569.667</ele>
        <time>2022-10-10T14:33:22Z</time>
      </trkpt>
      <trkpt lat="47.17079" lon="6.21142">
        <ele>570.297</ele>
        <time>2022-10-10T14:33:23Z</time>
      </trkpt>
      <trkpt lat="47.17075" lon="6.21145">
        <ele>570.681</ele>
        <time>2022-10-10T14:33:24Z</time>
      </trkpt>
      <trkpt lat="47.1707" lon="6.21147">
        <ele>571.445</ele>
        <time>2022-10-10T14:33:25Z</time>
      </trkpt>
      <trkpt lat="47.17066" lon="6.21149">
        <ele>572.058</ele>
        <time>2022-10-10T14:33:26Z</time>
      </trkpt>
      <trkpt lat="47.17062" lon="6.21151">
        <ele>572.844</ele>
        <time>2022-10-10T14:33:27Z</time>
      </trkpt>
      <trkpt lat="47.17056" lon="6.21154">
        <ele>573.27</ele>
        <time>2022-10-10T14:33:28Z</time>
      </trkpt>
      <trkpt lat="47.17052" lon="6.21157">
        <ele>573.47</ele>
        <time>2022-10-10T14:33:29Z</time>
      </trkpt>
      <trkpt lat="47.17047" lon="6.2116">
        <ele>574.454</ele>
        <time>2022-10-10T14:33:30Z</time>
      </trkpt>
      <trkpt lat="47.17044" lon="6.21162">
        <ele>574.665</ele>
        <time>2022-10-10T14:33:31Z</time>
      </trkpt>
      <trkpt lat="47.17039" lon="6.21166">
        <ele>574.668</ele>
        <time>2022-10-10T14:33:32Z</time>
      </trkpt>
      <trkpt lat="47.17034" lon="6.2117">
        <ele>574.814</ele>
        <time>2022-10-10T14:33:33Z</time>
      </trkpt>
      <trkpt lat="47.17029" lon="6.21173">
        <ele>574.809</ele>
        <time>2022-10-10T14:33:34Z</time>
      </trkpt>
      <trkpt lat="47.17024" lon="6.21177">
        <ele>574.877</ele>
        <time>2022-10-10T14:33:35Z</time>
      </trkpt>
      <trkpt lat="47.1702" lon="6.2118">
        <ele>574.847</ele>
        <time>2022-10-10T14:33:36Z</time>
      </trkpt>
      <trkpt lat="47.17014" lon="6.21185">
        <ele>574.641</ele>
        <time>2022-10-10T14:33:37Z</time>
      </trkpt>
      <trkpt lat="47.17009" lon="6.21189">
        <ele>574.415</ele>
        <time>2022-10-10T14:33:38Z</time>
      </trkpt>
      <trkpt lat="47.17003" lon="6.21193">
        <ele>574.018</ele>
        <time>2022-10-10T14:33:39Z</time>
      </trkpt>
      <trkpt lat="47.16998" lon="6.21197">
        <ele>573.444</ele>
        <time>2022-10-10T14:33:40Z</time>
      </trkpt>
      <trkpt lat="47.16991" lon="6.21202">
        <ele>573.28</ele>
        <time>2022-10-10T14:33:41Z</time>
      </trkpt>
      <trkpt lat="47.16987" lon="6.21206">
        <ele>572.86</ele>
        <time>2022-10-10T14:33:42Z</time>
      </trkpt>
      <trkpt lat="47.1698" lon="6.2121">
        <ele>572.684</ele>
        <time>2022-10-10T14:33:43Z</time>
      </trkpt>
      <trkpt lat="47.16973" lon="6.21215">
        <ele>572.023</ele>
        <time>2022-10-10T14:33:44Z</time>
      </trkpt>
      <trkpt lat="47.16966" lon="6.21219">
        <ele>571.283</ele>
        <time>2022-10-10T14:33:45Z</time>
      </trkpt>
      <trkpt lat="47.16961" lon="6.21223">
        <ele>570.611</ele>
        <time>2022-10-10T14:33:46Z</time>
      </trkpt>
      <trkpt lat="47.16961" lon="6.21223">
        <ele>570.609</ele>
        <time>2022-10-10T14:33:47Z</time>
      </trkpt>
      <trkpt lat="47.16948" lon="6.21231">
        <ele>570.643</ele>
        <time>2022-10-10T14:33:48Z</time>
      </trkpt>
      <trkpt lat="47.16942" lon="6.21235">
        <ele>570.653</ele>
        <time>2022-10-10T14:33:49Z</time>
      </trkpt>
      <trkpt lat="47.16937" lon="6.21239">
        <ele>570.887</ele>
        <time>2022-10-10T14:33:50Z</time>
      </trkpt>
      <trkpt lat="47.16931" lon="6.21242">
        <ele>571.641</ele>
        <time>2022-10-10T14:33:51Z</time>
      </trkpt>
      <trkpt lat="47.16925" lon="6.21244">
        <ele>571.624</ele>
        <time>2022-10-10T14:33:52Z</time>
      </trkpt>
      <trkpt lat="47.16921" lon="6.21243">
        <ele>572.28</ele>
        <time>2022-10-10T14:33:53Z</time>
      </trkpt>
      <trkpt lat="47.16917" lon="6.2124">
        <ele>572.856</ele>
        <time>2022-10-10T14:33:54Z</time>
      </trkpt>
      <trkpt lat="47.16913" lon="6.21236">
        <ele>573.046</ele>
        <time>2022-10-10T14:33:55Z</time>
      </trkpt>
      <trkpt lat="47.1691" lon="6.21231">
        <ele>573.03</ele>
        <time>2022-10-10T14:33:56Z</time>
      </trkpt>
      <trkpt lat="47.16906" lon="6.21225">
        <ele>573.276</ele>
        <time>2022-10-10T14:33:57Z</time>
      </trkpt>
      <trkpt lat="47.16892" lon="6.21201">
        <ele>573.69</ele>
        <time>2022-10-10T14:34:01Z</time>
      </trkpt>
      <trkpt lat="47.16888" lon="6.21195">
        <ele>573.819</ele>
        <time>2022-10-10T14:34:02Z</time>
      </trkpt>
      <trkpt lat="47.16874" lon="6.21175">
        <ele>574.009</ele>
        <time>2022-10-10T14:34:05Z</time>
      </trkpt>
      <trkpt lat="47.16867" lon="6.21163">
        <ele>574.258</ele>
        <time>2022-10-10T14:34:07Z</time>
      </trkpt>
      <trkpt lat="47.16829" lon="6.21113">
        <ele>573.448</ele>
        <time>2022-10-10T14:34:15Z</time>
      </trkpt>
      <trkpt lat="47.16824" lon="6.21107">
        <ele>573.422</ele>
        <time>2022-10-10T14:34:16Z</time>
      </trkpt>
      <trkpt lat="47.16815" lon="6.21096">
        <ele>573.676</ele>
        <time>2022-10-10T14:34:18Z</time>
      </trkpt>
      <trkpt lat="47.16809" lon="6.21089">
        <ele>573.659</ele>
        <time>2022-10-10T14:34:19Z</time>
      </trkpt>
      <trkpt lat="47.168" lon="6.21076">
        <ele>573.095</ele>
        <time>2022-10-10T14:34:21Z</time>
      </trkpt>
      <trkpt lat="47.16792" lon="6.21064">
        <ele>573.071</ele>
        <time>2022-10-10T14:34:23Z</time>
      </trkpt>
      <trkpt lat="47.16788" lon="6.21057">
        <ele>573.021</ele>
        <time>2022-10-10T14:34:24Z</time>
      </trkpt>
      <trkpt lat="47.16782" lon="6.21049">
        <ele>573.085</ele>
        <time>2022-10-10T14:34:25Z</time>
      </trkpt>
      <trkpt lat="47.16778" lon="6.21043">
        <ele>573.076</ele>
        <time>2022-10-10T14:34:26Z</time>
      </trkpt>
      <trkpt lat="47.16774" lon="6.21037">
        <ele>573.09</ele>
        <time>2022-10-10T14:34:27Z</time>
      </trkpt>
      <trkpt lat="47.1677" lon="6.21031">
        <ele>573.019</ele>
        <time>2022-10-10T14:34:28Z</time>
      </trkpt>
      <trkpt lat="47.16766" lon="6.21024">
        <ele>573.209</ele>
        <time>2022-10-10T14:34:29Z</time>
      </trkpt>
      <trkpt lat="47.16761" lon="6.21017">
        <ele>573.868</ele>
        <time>2022-10-10T14:34:30Z</time>
      </trkpt>
      <trkpt lat="47.16754" lon="6.21006">
        <ele>574.268</ele>
        <time>2022-10-10T14:34:32Z</time>
      </trkpt>
      <trkpt lat="47.1675" lon="6.20999">
        <ele>574.422</ele>
        <time>2022-10-10T14:34:33Z</time>
      </trkpt>
      <trkpt lat="47.16746" lon="6.20993">
        <ele>574.646</ele>
        <time>2022-10-10T14:34:34Z</time>
      </trkpt>
      <trkpt lat="47.16742" lon="6.20986">
        <ele>575.049</ele>
        <time>2022-10-10T14:34:35Z</time>
      </trkpt>
      <trkpt lat="47.16737" lon="6.2098">
        <ele>575.255</ele>
        <time>2022-10-10T14:34:36Z</time>
      </trkpt>
      <trkpt lat="47.16734" lon="6.20975">
        <ele>575.211</ele>
        <time>2022-10-10T14:34:37Z</time>
      </trkpt>
      <trkpt lat="47.1673" lon="6.20969">
        <ele>575.481</ele>
        <time>2022-10-10T14:34:38Z</time>
      </trkpt>
      <trkpt lat="47.16726" lon="6.20964">
        <ele>576.465</ele>
        <time>2022-10-10T14:34:39Z</time>
      </trkpt>
      <trkpt lat="47.16723" lon="6.20958">
        <ele>577.425</ele>
        <time>2022-10-10T14:34:40Z</time>
      </trkpt>
      <trkpt lat="47.16716" lon="6.20948">
        <ele>578.626</ele>
        <time>2022-10-10T14:34:42Z</time>
      </trkpt>
      <trkpt lat="47.16713" lon="6.20943">
        <ele>578.808</ele>
        <time>2022-10-10T14:34:43Z</time>
      </trkpt>
      <trkpt lat="47.16711" lon="6.20939">
        <ele>578.809</ele>
        <time>2022-10-10T14:34:44Z</time>
      </trkpt>
      <trkpt lat="47.16708" lon="6.20933">
        <ele>579.043</ele>
        <time>2022-10-10T14:34:45Z</time>
      </trkpt>
      <trkpt lat="47.16705" lon="6.20928">
        <ele>579.883</ele>
        <time>2022-10-10T14:34:46Z</time>
      </trkpt>
      <trkpt lat="47.16702" lon="6.20924">
        <ele>580.077</ele>
        <time>2022-10-10T14:34:47Z</time>
      </trkpt>
      <trkpt lat="47.16699" lon="6.20919">
        <ele>580.461</ele>
        <time>2022-10-10T14:34:48Z</time>
      </trkpt>
      <trkpt lat="47.16696" lon="6.20914">
        <ele>580.464</ele>
        <time>2022-10-10T14:34:49Z</time>
      </trkpt>
      <trkpt lat="47.16694" lon="6.2091">
        <ele>580.63</ele>
        <time>2022-10-10T14:34:50Z</time>
      </trkpt>
      <trkpt lat="47.1669" lon="6.20903">
        <ele>580.836</ele>
        <time>2022-10-10T14:34:51Z</time>
      </trkpt>
      <trkpt lat="47.16687" lon="6.20899">
        <ele>581.086</ele>
        <time>2022-10-10T14:34:52Z</time>
      </trkpt>
      <trkpt lat="47.16683" lon="6.20894">
        <ele>581.03</ele>
        <time>2022-10-10T14:34:53Z</time>
      </trkpt>
      <trkpt lat="47.1668" lon="6.2089">
        <ele>581.049</ele>
        <time>2022-10-10T14:34:54Z</time>
      </trkpt>
      <trkpt lat="47.16675" lon="6.20885">
        <ele>581.002</ele>
        <time>2022-10-10T14:34:55Z</time>
      </trkpt>
      <trkpt lat="47.16671" lon="6.20879">
        <ele>581.222</ele>
        <time>2022-10-10T14:34:56Z</time>
      </trkpt>
      <trkpt lat="47.16666" lon="6.20872">
        <ele>581.209</ele>
        <time>2022-10-10T14:34:57Z</time>
      </trkpt>
      <trkpt lat="47.16662" lon="6.20867">
        <ele>581.245</ele>
        <time>2022-10-10T14:34:58Z</time>
      </trkpt>
      <trkpt lat="47.16658" lon="6.20861">
        <ele>581.485</ele>
        <time>2022-10-10T14:34:59Z</time>
      </trkpt>
      <trkpt lat="47.16654" lon="6.20856">
        <ele>581.479</ele>
        <time>2022-10-10T14:35:00Z</time>
      </trkpt>
      <trkpt lat="47.16649" lon="6.20851">
        <ele>581.623</ele>
        <time>2022-10-10T14:35:01Z</time>
      </trkpt>
      <trkpt lat="47.16646" lon="6.20845">
        <ele>581.686</ele>
        <time>2022-10-10T14:35:02Z</time>
      </trkpt>
      <trkpt lat="47.16641" lon="6.20839">
        <ele>581.652</ele>
        <time>2022-10-10T14:35:03Z</time>
      </trkpt>
      <trkpt lat="47.16637" lon="6.20833">
        <ele>581.848</ele>
        <time>2022-10-10T14:35:04Z</time>
      </trkpt>
      <trkpt lat="47.16633" lon="6.20827">
        <ele>581.668</ele>
        <time>2022-10-10T14:35:05Z</time>
      </trkpt>
      <trkpt lat="47.1663" lon="6.20822">
        <ele>581.822</ele>
        <time>2022-10-10T14:35:06Z</time>
      </trkpt>
      <trkpt lat="47.16625" lon="6.20815">
        <ele>581.826</ele>
        <time>2022-10-10T14:35:07Z</time>
      </trkpt>
      <trkpt lat="47.1662" lon="6.20809">
        <ele>582.047</ele>
        <time>2022-10-10T14:35:08Z</time>
      </trkpt>
      <trkpt lat="47.16616" lon="6.20803">
        <ele>581.811</ele>
        <time>2022-10-10T14:35:09Z</time>
      </trkpt>
      <trkpt lat="47.16611" lon="6.20796">
        <ele>581.809</ele>
        <time>2022-10-10T14:35:10Z</time>
      </trkpt>
      <trkpt lat="47.16608" lon="6.20791">
        <ele>581.833</ele>
        <time>2022-10-10T14:35:11Z</time>
      </trkpt>
      <trkpt lat="47.16604" lon="6.20783">
        <ele>582.013</ele>
        <time>2022-10-10T14:35:12Z</time>
      </trkpt>
      <trkpt lat="47.166" lon="6.20777">
        <ele>582.017</ele>
        <time>2022-10-10T14:35:13Z</time>
      </trkpt>
      <trkpt lat="47.16596" lon="6.20771">
        <ele>581.861</ele>
        <time>2022-10-10T14:35:14Z</time>
      </trkpt>
      <trkpt lat="47.16592" lon="6.20765">
        <ele>581.824</ele>
        <time>2022-10-10T14:35:15Z</time>
      </trkpt>
      <trkpt lat="47.16588" lon="6.2076">
        <ele>581.09</ele>
        <time>2022-10-10T14:35:16Z</time>
      </trkpt>
      <trkpt lat="47.16584" lon="6.20751">
        <ele>581.086</ele>
        <time>2022-10-10T14:35:17Z</time>
      </trkpt>
      <trkpt lat="47.16578" lon="6.20734">
        <ele>580.636</ele>
        <time>2022-10-10T14:35:19Z</time>
      </trkpt>
      <trkpt lat="47.16575" lon="6.20726">
        <ele>580.66</ele>
        <time>2022-10-10T14:35:20Z</time>
      </trkpt>
      <trkpt lat="47.1657" lon="6.2071">
        <ele>580.064</ele>
        <time>2022-10-10T14:35:22Z</time>
      </trkpt>
      <trkpt lat="47.16567" lon="6.20702">
        <ele>579.406</ele>
        <time>2022-10-10T14:35:23Z</time>
      </trkpt>
      <trkpt lat="47.16561" lon="6.20685">
        <ele>579.416</ele>
        <time>2022-10-10T14:35:25Z</time>
      </trkpt>
      <trkpt lat="47.16553" lon="6.20671">
        <ele>579.409</ele>
        <time>2022-10-10T14:35:27Z</time>
      </trkpt>
      <trkpt lat="47.16548" lon="6.20664">
        <ele>579.417</ele>
        <time>2022-10-10T14:35:28Z</time>
      </trkpt>
      <trkpt lat="47.1653" lon="6.20637">
        <ele>578.687</ele>
        <time>2022-10-10T14:35:32Z</time>
      </trkpt>
      <trkpt lat="47.16525" lon="6.20632">
        <ele>578.061</ele>
        <time>2022-10-10T14:35:33Z</time>
      </trkpt>
      <trkpt lat="47.1652" lon="6.20627">
        <ele>578.085</ele>
        <time>2022-10-10T14:35:34Z</time>
      </trkpt>
      <trkpt lat="47.16514" lon="6.20622">
        <ele>578.088</ele>
        <time>2022-10-10T14:35:35Z</time>
      </trkpt>
      <trkpt lat="47.16495" lon="6.20612">
        <ele>577.844</ele>
        <time>2022-10-10T14:35:38Z</time>
      </trkpt>
      <trkpt lat="47.1647" lon="6.20598">
        <ele>577.44</ele>
        <time>2022-10-10T14:35:42Z</time>
      </trkpt>
      <trkpt lat="47.16463" lon="6.20593">
        <ele>576.63</ele>
        <time>2022-10-10T14:35:43Z</time>
      </trkpt>
      <trkpt lat="47.16458" lon="6.20588">
        <ele>576.224</ele>
        <time>2022-10-10T14:35:44Z</time>
      </trkpt>
      <trkpt lat="47.16453" lon="6.20582">
        <ele>575.253</ele>
        <time>2022-10-10T14:35:45Z</time>
      </trkpt>
      <trkpt lat="47.1644" lon="6.20565">
        <ele>574.204</ele>
        <time>2022-10-10T14:35:47Z</time>
      </trkpt>
      <trkpt lat="47.1643" lon="6.20549">
        <ele>574.014</ele>
        <time>2022-10-10T14:35:49Z</time>
      </trkpt>
      <trkpt lat="47.16415" lon="6.20527">
        <ele>572.809</ele>
        <time>2022-10-10T14:35:52Z</time>
      </trkpt>
      <trkpt lat="47.16404" lon="6.20511">
        <ele>572.046</ele>
        <time>2022-10-10T14:35:54Z</time>
      </trkpt>
      <trkpt lat="47.16393" lon="6.20498">
        <ele>571.676</ele>
        <time>2022-10-10T14:35:56Z</time>
      </trkpt>
      <trkpt lat="47.16386" lon="6.20492">
        <ele>571.44</ele>
        <time>2022-10-10T14:35:57Z</time>
      </trkpt>
      <trkpt lat="47.1638" lon="6.20487">
        <ele>571.494</ele>
        <time>2022-10-10T14:35:58Z</time>
      </trkpt>
      <trkpt lat="47.16374" lon="6.20482">
        <ele>571.477</ele>
        <time>2022-10-10T14:35:59Z</time>
      </trkpt>
      <trkpt lat="47.16369" lon="6.20476">
        <ele>571.473</ele>
        <time>2022-10-10T14:36:00Z</time>
      </trkpt>
      <trkpt lat="47.16364" lon="6.2047">
        <ele>571.659</ele>
        <time>2022-10-10T14:36:01Z</time>
      </trkpt>
      <trkpt lat="47.1636" lon="6.20465">
        <ele>571.649</ele>
        <time>2022-10-10T14:36:02Z</time>
      </trkpt>
      <trkpt lat="47.16356" lon="6.2046">
        <ele>571.693</ele>
        <time>2022-10-10T14:36:03Z</time>
      </trkpt>
      <trkpt lat="47.16338" lon="6.2044">
        <ele>571.413</ele>
        <time>2022-10-10T14:36:07Z</time>
      </trkpt>
      <trkpt lat="47.16333" lon="6.20436">
        <ele>570.643</ele>
        <time>2022-10-10T14:36:08Z</time>
      </trkpt>
      <trkpt lat="47.16327" lon="6.20431">
        <ele>570.407</ele>
        <time>2022-10-10T14:36:09Z</time>
      </trkpt>
      <trkpt lat="47.1631" lon="6.20413">
        <ele>569.409</ele>
        <time>2022-10-10T14:36:12Z</time>
      </trkpt>
      <trkpt lat="47.16294" lon="6.20395">
        <ele>568.462</ele>
        <time>2022-10-10T14:36:15Z</time>
      </trkpt>
      <trkpt lat="47.16284" lon="6.20383">
        <ele>567.082</ele>
        <time>2022-10-10T14:36:18Z</time>
      </trkpt>
      <trkpt lat="47.16267" lon="6.20362">
        <ele>565.826</ele>
        <time>2022-10-10T14:36:20Z</time>
      </trkpt>
      <trkpt lat="47.16262" lon="6.20355">
        <ele>565.87</ele>
        <time>2022-10-10T14:36:21Z</time>
      </trkpt>
      <trkpt lat="47.16251" lon="6.20342">
        <ele>565.483</ele>
        <time>2022-10-10T14:36:23Z</time>
      </trkpt>
      <trkpt lat="47.16246" lon="6.20336">
        <ele>564.629</ele>
        <time>2022-10-10T14:36:24Z</time>
      </trkpt>
      <trkpt lat="47.16235" lon="6.20324">
        <ele>563.845</ele>
        <time>2022-10-10T14:36:26Z</time>
      </trkpt>
      <trkpt lat="47.16224" lon="6.20311">
        <ele>563.085</ele>
        <time>2022-10-10T14:36:28Z</time>
      </trkpt>
      <trkpt lat="47.16215" lon="6.20295">
        <ele>562.039</ele>
        <time>2022-10-10T14:36:30Z</time>
      </trkpt>
      <trkpt lat="47.16209" lon="6.20285">
        <ele>562.098</ele>
        <time>2022-10-10T14:36:31Z</time>
      </trkpt>
      <trkpt lat="47.16206" lon="6.20278">
        <ele>561.815</ele>
        <time>2022-10-10T14:36:32Z</time>
      </trkpt>
      <trkpt lat="47.16201" lon="6.2027">
        <ele>561.626</ele>
        <time>2022-10-10T14:36:33Z</time>
      </trkpt>
      <trkpt lat="47.16197" lon="6.20263">
        <ele>561.409</ele>
        <time>2022-10-10T14:36:34Z</time>
      </trkpt>
      <trkpt lat="47.16191" lon="6.20255">
        <ele>561.04</ele>
        <time>2022-10-10T14:36:35Z</time>
      </trkpt>
      <trkpt lat="47.16187" lon="6.20247">
        <ele>561.09</ele>
        <time>2022-10-10T14:36:36Z</time>
      </trkpt>
      <trkpt lat="47.16183" lon="6.20239">
        <ele>561.064</ele>
        <time>2022-10-10T14:36:37Z</time>
      </trkpt>
      <trkpt lat="47.16179" lon="6.20232">
        <ele>560.858</ele>
        <time>2022-10-10T14:36:38Z</time>
      </trkpt>
      <trkpt lat="47.16175" lon="6.20224">
        <ele>560.631</ele>
        <time>2022-10-10T14:36:39Z</time>
      </trkpt>
      <trkpt lat="47.16163" lon="6.20202">
        <ele>559.647</ele>
        <time>2022-10-10T14:36:42Z</time>
      </trkpt>
      <trkpt lat="47.16156" lon="6.20184">
        <ele>559.273</ele>
        <time>2022-10-10T14:36:44Z</time>
      </trkpt>
      <trkpt lat="47.16148" lon="6.20165">
        <ele>558.283</ele>
        <time>2022-10-10T14:36:46Z</time>
      </trkpt>
      <trkpt lat="47.16144" lon="6.20145">
        <ele>557.237</ele>
        <time>2022-10-10T14:36:48Z</time>
      </trkpt>
      <trkpt lat="47.16141" lon="6.20135">
        <ele>556.633</ele>
        <time>2022-10-10T14:36:49Z</time>
      </trkpt>
      <trkpt lat="47.16139" lon="6.20125">
        <ele>556.423</ele>
        <time>2022-10-10T14:36:50Z</time>
      </trkpt>
      <trkpt lat="47.16137" lon="6.20115">
        <ele>556.015</ele>
        <time>2022-10-10T14:36:51Z</time>
      </trkpt>
      <trkpt lat="47.16136" lon="6.20105">
        <ele>555.609</ele>
        <time>2022-10-10T14:36:52Z</time>
      </trkpt>
      <trkpt lat="47.16135" lon="6.20095">
        <ele>555.254</ele>
        <time>2022-10-10T14:36:53Z</time>
      </trkpt>
      <trkpt lat="47.16134" lon="6.20085">
        <ele>555.224</ele>
        <time>2022-10-10T14:36:54Z</time>
      </trkpt>
      <trkpt lat="47.16134" lon="6.20076">
        <ele>555.268</ele>
        <time>2022-10-10T14:36:55Z</time>
      </trkpt>
      <trkpt lat="47.16133" lon="6.20067">
        <ele>555.642</ele>
        <time>2022-10-10T14:36:56Z</time>
      </trkpt>
      <trkpt lat="47.16131" lon="6.20059">
        <ele>556.265</ele>
        <time>2022-10-10T14:36:57Z</time>
      </trkpt>
      <trkpt lat="47.1613" lon="6.20051">
        <ele>556.251</ele>
        <time>2022-10-10T14:36:58Z</time>
      </trkpt>
      <trkpt lat="47.16123" lon="6.20019">
        <ele>556.077</ele>
        <time>2022-10-10T14:37:02Z</time>
      </trkpt>
      <trkpt lat="47.16122" lon="6.20009">
        <ele>556.017</ele>
        <time>2022-10-10T14:37:03Z</time>
      </trkpt>
      <trkpt lat="47.16121" lon="6.20002">
        <ele>556.071</ele>
        <time>2022-10-10T14:37:04Z</time>
      </trkpt>
      <trkpt lat="47.1612" lon="6.19985">
        <ele>556.247</ele>
        <time>2022-10-10T14:37:06Z</time>
      </trkpt>
      <trkpt lat="47.1612" lon="6.19976">
        <ele>556.629</ele>
        <time>2022-10-10T14:37:07Z</time>
      </trkpt>
      <trkpt lat="47.1612" lon="6.19966">
        <ele>556.821</ele>
        <time>2022-10-10T14:37:08Z</time>
      </trkpt>
      <trkpt lat="47.1612" lon="6.19959">
        <ele>556.809</ele>
        <time>2022-10-10T14:37:09Z</time>
      </trkpt>
      <trkpt lat="47.1612" lon="6.19953">
        <ele>558.625</ele>
        <time>2022-10-10T14:37:10Z</time>
      </trkpt>
      <trkpt lat="47.16119" lon="6.19948">
        <ele>559.075</ele>
        <time>2022-10-10T14:37:11Z</time>
      </trkpt>
      <trkpt lat="47.16118" lon="6.19943">
        <ele>559.839</ele>
        <time>2022-10-10T14:37:12Z</time>
      </trkpt>
      <trkpt lat="47.16116" lon="6.19936">
        <ele>560.043</ele>
        <time>2022-10-10T14:37:13Z</time>
      </trkpt>
      <trkpt lat="47.16113" lon="6.19931">
        <ele>560.046</ele>
        <time>2022-10-10T14:37:14Z</time>
      </trkpt>
      <trkpt lat="47.1611" lon="6.19926">
        <ele>560.022</ele>
        <time>2022-10-10T14:37:15Z</time>
      </trkpt>
      <trkpt lat="47.16106" lon="6.1992">
        <ele>560.048</ele>
        <time>2022-10-10T14:37:16Z</time>
      </trkpt>
      <trkpt lat="47.16098" lon="6.19909">
        <ele>560.088</ele>
        <time>2022-10-10T14:37:18Z</time>
      </trkpt>
      <trkpt lat="47.16094" lon="6.19902">
        <ele>560.042</ele>
        <time>2022-10-10T14:37:19Z</time>
      </trkpt>
      <trkpt lat="47.1609" lon="6.19895">
        <ele>560.028</ele>
        <time>2022-10-10T14:37:20Z</time>
      </trkpt>
      <trkpt lat="47.16087" lon="6.1989">
        <ele>560.089</ele>
        <time>2022-10-10T14:37:21Z</time>
      </trkpt>
      <trkpt lat="47.16083" lon="6.19881">
        <ele>560.017</ele>
        <time>2022-10-10T14:37:22Z</time>
      </trkpt>
      <trkpt lat="47.16079" lon="6.19874">
        <ele>560.009</ele>
        <time>2022-10-10T14:37:23Z</time>
      </trkpt>
      <trkpt lat="47.16076" lon="6.19867">
        <ele>559.823</ele>
        <time>2022-10-10T14:37:24Z</time>
      </trkpt>
      <trkpt lat="47.16072" lon="6.1986">
        <ele>558.873</ele>
        <time>2022-10-10T14:37:25Z</time>
      </trkpt>
      <trkpt lat="47.16069" lon="6.19855">
        <ele>558.627</ele>
        <time>2022-10-10T14:37:26Z</time>
      </trkpt>
      <trkpt lat="47.16064" lon="6.19847">
        <ele>558.271</ele>
        <time>2022-10-10T14:37:27Z</time>
      </trkpt>
      <trkpt lat="47.1606" lon="6.1984">
        <ele>558.264</ele>
        <time>2022-10-10T14:37:28Z</time>
      </trkpt>
      <trkpt lat="47.1605" lon="6.19829">
        <ele>558.01</ele>
        <time>2022-10-10T14:37:30Z</time>
      </trkpt>
      <trkpt lat="47.16045" lon="6.19823">
        <ele>557.456</ele>
        <time>2022-10-10T14:37:31Z</time>
      </trkpt>
      <trkpt lat="47.1604" lon="6.19817">
        <ele>557.096</ele>
        <time>2022-10-10T14:37:32Z</time>
      </trkpt>
      <trkpt lat="47.16036" lon="6.1981">
        <ele>556.02</ele>
        <time>2022-10-10T14:37:33Z</time>
      </trkpt>
      <trkpt lat="47.16032" lon="6.19802">
        <ele>555.885</ele>
        <time>2022-10-10T14:37:34Z</time>
      </trkpt>
      <trkpt lat="47.16023" lon="6.19776">
        <ele>554.089</ele>
        <time>2022-10-10T14:37:37Z</time>
      </trkpt>
      <trkpt lat="47.16016" lon="6.19756">
        <ele>552.817</ele>
        <time>2022-10-10T14:37:39Z</time>
      </trkpt>
      <trkpt lat="47.16014" lon="6.19746">
        <ele>551.609</ele>
        <time>2022-10-10T14:37:40Z</time>
      </trkpt>
      <trkpt lat="47.1601" lon="6.19725">
        <ele>550.869</ele>
        <time>2022-10-10T14:37:42Z</time>
      </trkpt>
      <trkpt lat="47.1601" lon="6.19714">
        <ele>550.869</ele>
        <time>2022-10-10T14:37:43Z</time>
      </trkpt>
      <trkpt lat="47.1601" lon="6.19702">
        <ele>549.833</ele>
        <time>2022-10-10T14:37:44Z</time>
      </trkpt>
      <trkpt lat="47.1601" lon="6.1969">
        <ele>549.037</ele>
        <time>2022-10-10T14:37:45Z</time>
      </trkpt>
      <trkpt lat="47.1601" lon="6.19677">
        <ele>548.24</ele>
        <time>2022-10-10T14:37:46Z</time>
      </trkpt>
      <trkpt lat="47.16009" lon="6.19656">
        <ele>547.616</ele>
        <time>2022-10-10T14:37:48Z</time>
      </trkpt>
      <trkpt lat="47.16007" lon="6.19642">
        <ele>547.462</ele>
        <time>2022-10-10T14:37:49Z</time>
      </trkpt>
      <trkpt lat="47.16004" lon="6.19631">
        <ele>547.482</ele>
        <time>2022-10-10T14:37:50Z</time>
      </trkpt>
      <trkpt lat="47.16002" lon="6.19621">
        <ele>547.476</ele>
        <time>2022-10-10T14:37:51Z</time>
      </trkpt>
      <trkpt lat="47.16001" lon="6.19614">
        <ele>547.688</ele>
        <time>2022-10-10T14:37:52Z</time>
      </trkpt>
      <trkpt lat="47.15999" lon="6.19603">
        <ele>548.024</ele>
        <time>2022-10-10T14:37:53Z</time>
      </trkpt>
      <trkpt lat="47.15997" lon="6.19595">
        <ele>548.026</ele>
        <time>2022-10-10T14:37:54Z</time>
      </trkpt>
      <trkpt lat="47.15997" lon="6.19589">
        <ele>549.009</ele>
        <time>2022-10-10T14:37:55Z</time>
      </trkpt>
      <trkpt lat="47.15996" lon="6.19583">
        <ele>549.839</ele>
        <time>2022-10-10T14:37:56Z</time>
      </trkpt>
      <trkpt lat="47.15996" lon="6.19577">
        <ele>550.029</ele>
        <time>2022-10-10T14:37:57Z</time>
      </trkpt>
      <trkpt lat="47.15996" lon="6.19558">
        <ele>550.883</ele>
        <time>2022-10-10T14:38:00Z</time>
      </trkpt>
      <trkpt lat="47.15996" lon="6.19552">
        <ele>551.257</ele>
        <time>2022-10-10T14:38:01Z</time>
      </trkpt>
      <trkpt lat="47.15994" lon="6.19532">
        <ele>551.45</ele>
        <time>2022-10-10T14:38:04Z</time>
      </trkpt>
      <trkpt lat="47.15994" lon="6.19526">
        <ele>551.456</ele>
        <time>2022-10-10T14:38:05Z</time>
      </trkpt>
      <trkpt lat="47.15993" lon="6.1952">
        <ele>552.092</ele>
        <time>2022-10-10T14:38:06Z</time>
      </trkpt>
      <trkpt lat="47.15991" lon="6.19505">
        <ele>552.262</ele>
        <time>2022-10-10T14:38:08Z</time>
      </trkpt>
      <trkpt lat="47.15989" lon="6.19499">
        <ele>552.676</ele>
        <time>2022-10-10T14:38:09Z</time>
      </trkpt>
      <trkpt lat="47.15988" lon="6.19493">
        <ele>553.076</ele>
        <time>2022-10-10T14:38:10Z</time>
      </trkpt>
      <trkpt lat="47.15986" lon="6.19489">
        <ele>554.29</ele>
        <time>2022-10-10T14:38:11Z</time>
      </trkpt>
      <trkpt lat="47.1598" lon="6.19478">
        <ele>555.419</ele>
        <time>2022-10-10T14:38:13Z</time>
      </trkpt>
      <trkpt lat="47.15977" lon="6.19474">
        <ele>555.409</ele>
        <time>2022-10-10T14:38:14Z</time>
      </trkpt>
      <trkpt lat="47.15974" lon="6.1947">
        <ele>556.098</ele>
        <time>2022-10-10T14:38:15Z</time>
      </trkpt>
      <trkpt lat="47.15971" lon="6.19467">
        <ele>556.438</ele>
        <time>2022-10-10T14:38:16Z</time>
      </trkpt>
      <trkpt lat="47.15967" lon="6.19463">
        <ele>556.412</ele>
        <time>2022-10-10T14:38:17Z</time>
      </trkpt>
      <trkpt lat="47.15962" lon="6.19458">
        <ele>556.476</ele>
        <time>2022-10-10T14:38:18Z</time>
      </trkpt>
      <trkpt lat="47.15959" lon="6.19455">
        <ele>556.459</ele>
        <time>2022-10-10T14:38:19Z</time>
      </trkpt>
      <trkpt lat="47.15955" lon="6.19451">
        <ele>556.495</ele>
        <time>2022-10-10T14:38:20Z</time>
      </trkpt>
      <trkpt lat="47.1595" lon="6.19446">
        <ele>556.461</ele>
        <time>2022-10-10T14:38:21Z</time>
      </trkpt>
      <trkpt lat="47.15945" lon="6.19442">
        <ele>556.461</ele>
        <time>2022-10-10T14:38:22Z</time>
      </trkpt>
      <trkpt lat="47.1594" lon="6.19436">
        <ele>556.425</ele>
        <time>2022-10-10T14:38:23Z</time>
      </trkpt>
      <trkpt lat="47.15936" lon="6.19433">
        <ele>556.046</ele>
        <time>2022-10-10T14:38:24Z</time>
      </trkpt>
      <trkpt lat="47.15932" lon="6.19428">
        <ele>556.088</ele>
        <time>2022-10-10T14:38:25Z</time>
      </trkpt>
      <trkpt lat="47.15928" lon="6.19421">
        <ele>556.016</ele>
        <time>2022-10-10T14:38:26Z</time>
      </trkpt>
      <trkpt lat="47.15925" lon="6.19413">
        <ele>556.009</ele>
        <time>2022-10-10T14:38:27Z</time>
      </trkpt>
      <trkpt lat="47.15921" lon="6.19406">
        <ele>556.025</ele>
        <time>2022-10-10T14:38:28Z</time>
      </trkpt>
      <trkpt lat="47.15919" lon="6.19401">
        <ele>556.055</ele>
        <time>2022-10-10T14:38:29Z</time>
      </trkpt>
      <trkpt lat="47.15915" lon="6.19394">
        <ele>556.029</ele>
        <time>2022-10-10T14:38:30Z</time>
      </trkpt>
      <trkpt lat="47.15911" lon="6.19387">
        <ele>556.073</ele>
        <time>2022-10-10T14:38:31Z</time>
      </trkpt>
      <trkpt lat="47.15908" lon="6.19382">
        <ele>555.876</ele>
        <time>2022-10-10T14:38:32Z</time>
      </trkpt>
      <trkpt lat="47.15904" lon="6.19373">
        <ele>555.222</ele>
        <time>2022-10-10T14:38:33Z</time>
      </trkpt>
      <trkpt lat="47.159" lon="6.19365">
        <ele>554.478</ele>
        <time>2022-10-10T14:38:34Z</time>
      </trkpt>
      <trkpt lat="47.15897" lon="6.19357">
        <ele>553.838</ele>
        <time>2022-10-10T14:38:35Z</time>
      </trkpt>
      <trkpt lat="47.15893" lon="6.19349">
        <ele>553.662</ele>
        <time>2022-10-10T14:38:36Z</time>
      </trkpt>
      <trkpt lat="47.1589" lon="6.19341">
        <ele>553.664</ele>
        <time>2022-10-10T14:38:37Z</time>
      </trkpt>
      <trkpt lat="47.15886" lon="6.19333">
        <ele>553.606</ele>
        <time>2022-10-10T14:38:38Z</time>
      </trkpt>
      <trkpt lat="47.1588" lon="6.19318">
        <ele>553.416</ele>
        <time>2022-10-10T14:38:40Z</time>
      </trkpt>
      <trkpt lat="47.15876" lon="6.1931">
        <ele>553.409</ele>
        <time>2022-10-10T14:38:41Z</time>
      </trkpt>
      <trkpt lat="47.15873" lon="6.19304">
        <ele>552.647</ele>
        <time>2022-10-10T14:38:42Z</time>
      </trkpt>
      <trkpt lat="47.15869" lon="6.19296">
        <ele>552.687</ele>
        <time>2022-10-10T14:38:43Z</time>
      </trkpt>
      <trkpt lat="47.15866" lon="6.1929">
        <ele>552.621</ele>
        <time>2022-10-10T14:38:44Z</time>
      </trkpt>
      <trkpt lat="47.1586" lon="6.19281">
        <ele>552.075</ele>
        <time>2022-10-10T14:38:45Z</time>
      </trkpt>
      <trkpt lat="47.15857" lon="6.19276">
        <ele>551.848</ele>
        <time>2022-10-10T14:38:46Z</time>
      </trkpt>
      <trkpt lat="47.15852" lon="6.19268">
        <ele>551.874</ele>
        <time>2022-10-10T14:38:47Z</time>
      </trkpt>
      <trkpt lat="47.15848" lon="6.19263">
        <ele>551.84</ele>
        <time>2022-10-10T14:38:48Z</time>
      </trkpt>
      <trkpt lat="47.15844" lon="6.19255">
        <ele>551.84</ele>
        <time>2022-10-10T14:38:49Z</time>
      </trkpt>
      <trkpt lat="47.1584" lon="6.19248">
        <ele>552.084</ele>
        <time>2022-10-10T14:38:50Z</time>
      </trkpt>
      <trkpt lat="47.15837" lon="6.19242">
        <ele>552.033</ele>
        <time>2022-10-10T14:38:51Z</time>
      </trkpt>
      <trkpt lat="47.15829" lon="6.19229">
        <ele>553.023</ele>
        <time>2022-10-10T14:38:53Z</time>
      </trkpt>
      <trkpt lat="47.15811" lon="6.19211">
        <ele>553.615</ele>
        <time>2022-10-10T14:38:57Z</time>
      </trkpt>
      <trkpt lat="47.15804" lon="6.19207">
        <ele>553.809</ele>
        <time>2022-10-10T14:38:58Z</time>
      </trkpt>
      <trkpt lat="47.15789" lon="6.19198">
        <ele>554.044</ele>
        <time>2022-10-10T14:39:01Z</time>
      </trkpt>
      <trkpt lat="47.15765" lon="6.19188">
        <ele>553.664</ele>
        <time>2022-10-10T14:39:05Z</time>
      </trkpt>
      <trkpt lat="47.15753" lon="6.19185">
        <ele>553.698</ele>
        <time>2022-10-10T14:39:07Z</time>
      </trkpt>
      <trkpt lat="47.15748" lon="6.19183">
        <ele>553.422</ele>
        <time>2022-10-10T14:39:08Z</time>
      </trkpt>
      <trkpt lat="47.15735" lon="6.19175">
        <ele>552.675</ele>
        <time>2022-10-10T14:39:10Z</time>
      </trkpt>
      <trkpt lat="47.1573" lon="6.19168">
        <ele>552.461</ele>
        <time>2022-10-10T14:39:11Z</time>
      </trkpt>
      <trkpt lat="47.15719" lon="6.19155">
        <ele>551.097</ele>
        <time>2022-10-10T14:39:13Z</time>
      </trkpt>
      <trkpt lat="47.15707" lon="6.19145">
        <ele>549.867</ele>
        <time>2022-10-10T14:39:15Z</time>
      </trkpt>
      <trkpt lat="47.15687" lon="6.1913">
        <ele>548.471</ele>
        <time>2022-10-10T14:39:18Z</time>
      </trkpt>
      <trkpt lat="47.15681" lon="6.19125">
        <ele>547.012</ele>
        <time>2022-10-10T14:39:19Z</time>
      </trkpt>
      <trkpt lat="47.15674" lon="6.1912">
        <ele>546.032</ele>
        <time>2022-10-10T14:39:20Z</time>
      </trkpt>
      <trkpt lat="47.15667" lon="6.19114">
        <ele>545.005</ele>
        <time>2022-10-10T14:39:21Z</time>
      </trkpt>
      <trkpt lat="47.1566" lon="6.19109">
        <ele>544.809</ele>
        <time>2022-10-10T14:39:22Z</time>
      </trkpt>
      <trkpt lat="47.15639" lon="6.19092">
        <ele>543.852</ele>
        <time>2022-10-10T14:39:25Z</time>
      </trkpt>
      <trkpt lat="47.15633" lon="6.19088">
        <ele>543.822</ele>
        <time>2022-10-10T14:39:26Z</time>
      </trkpt>
      <trkpt lat="47.15626" lon="6.19083">
        <ele>542.686</ele>
        <time>2022-10-10T14:39:27Z</time>
      </trkpt>
      <trkpt lat="47.15619" lon="6.19078">
        <ele>542.67</ele>
        <time>2022-10-10T14:39:28Z</time>
      </trkpt>
      <trkpt lat="47.15612" lon="6.19073">
        <ele>542.223</ele>
        <time>2022-10-10T14:39:29Z</time>
      </trkpt>
      <trkpt lat="47.15606" lon="6.1907">
        <ele>542.029</ele>
        <time>2022-10-10T14:39:30Z</time>
      </trkpt>
      <trkpt lat="47.15599" lon="6.19066">
        <ele>542.085</ele>
        <time>2022-10-10T14:39:31Z</time>
      </trkpt>
      <trkpt lat="47.15593" lon="6.19062">
        <ele>542.015</ele>
        <time>2022-10-10T14:39:32Z</time>
      </trkpt>
      <trkpt lat="47.15587" lon="6.19057">
        <ele>542.079</ele>
        <time>2022-10-10T14:39:33Z</time>
      </trkpt>
      <trkpt lat="47.15582" lon="6.19052">
        <ele>542.073</ele>
        <time>2022-10-10T14:39:34Z</time>
      </trkpt>
      <trkpt lat="47.15575" lon="6.19046">
        <ele>542.085</ele>
        <time>2022-10-10T14:39:35Z</time>
      </trkpt>
      <trkpt lat="47.1557" lon="6.1904">
        <ele>542.213</ele>
        <time>2022-10-10T14:39:36Z</time>
      </trkpt>
      <trkpt lat="47.15566" lon="6.19036">
        <ele>542.609</ele>
        <time>2022-10-10T14:39:37Z</time>
      </trkpt>
      <trkpt lat="47.15543" lon="6.19015">
        <ele>542.648</ele>
        <time>2022-10-10T14:39:41Z</time>
      </trkpt>
      <trkpt lat="47.15538" lon="6.19009">
        <ele>543.058</ele>
        <time>2022-10-10T14:39:42Z</time>
      </trkpt>
      <trkpt lat="47.15535" lon="6.19004">
        <ele>543.042</ele>
        <time>2022-10-10T14:39:43Z</time>
      </trkpt>
      <trkpt lat="47.15529" lon="6.18998">
        <ele>543.226</ele>
        <time>2022-10-10T14:39:44Z</time>
      </trkpt>
      <trkpt lat="47.15514" lon="6.18984">
        <ele>543.269</ele>
        <time>2022-10-10T14:39:47Z</time>
      </trkpt>
      <trkpt lat="47.15486" lon="6.18954">
        <ele>541.225</ele>
        <time>2022-10-10T14:39:52Z</time>
      </trkpt>
      <trkpt lat="47.15469" lon="6.18935">
        <ele>540.211</ele>
        <time>2022-10-10T14:39:55Z</time>
      </trkpt>
      <trkpt lat="47.15463" lon="6.18928">
        <ele>539.271</ele>
        <time>2022-10-10T14:39:56Z</time>
      </trkpt>
      <trkpt lat="47.15459" lon="6.18923">
        <ele>539.255</ele>
        <time>2022-10-10T14:39:57Z</time>
      </trkpt>
      <trkpt lat="47.15453" lon="6.18918">
        <ele>539.264</ele>
        <time>2022-10-10T14:39:58Z</time>
      </trkpt>
      <trkpt lat="47.15445" lon="6.18913">
        <ele>538.806</ele>
        <time>2022-10-10T14:39:59Z</time>
      </trkpt>
      <trkpt lat="47.15439" lon="6.18909">
        <ele>538.816</ele>
        <time>2022-10-10T14:40:00Z</time>
      </trkpt>
      <trkpt lat="47.15427" lon="6.18901">
        <ele>539.009</ele>
        <time>2022-10-10T14:40:02Z</time>
      </trkpt>
      <trkpt lat="47.15421" lon="6.18897">
        <ele>539.057</ele>
        <time>2022-10-10T14:40:03Z</time>
      </trkpt>
      <trkpt lat="47.15415" lon="6.18893">
        <ele>539.287</ele>
        <time>2022-10-10T14:40:04Z</time>
      </trkpt>
      <trkpt lat="47.15409" lon="6.18889">
        <ele>539.271</ele>
        <time>2022-10-10T14:40:05Z</time>
      </trkpt>
      <trkpt lat="47.15403" lon="6.18885">
        <ele>539.265</ele>
        <time>2022-10-10T14:40:06Z</time>
      </trkpt>
      <trkpt lat="47.15398" lon="6.18881">
        <ele>539.078</ele>
        <time>2022-10-10T14:40:07Z</time>
      </trkpt>
      <trkpt lat="47.15392" lon="6.18878">
        <ele>539.234</ele>
        <time>2022-10-10T14:40:08Z</time>
      </trkpt>
      <trkpt lat="47.15387" lon="6.18876">
        <ele>539.21</ele>
        <time>2022-10-10T14:40:09Z</time>
      </trkpt>
      <trkpt lat="47.15381" lon="6.18875">
        <ele>539.24</ele>
        <time>2022-10-10T14:40:10Z</time>
      </trkpt>
      <trkpt lat="47.15376" lon="6.18877">
        <ele>540.834</ele>
        <time>2022-10-10T14:40:11Z</time>
      </trkpt>
      <trkpt lat="47.15372" lon="6.18879">
        <ele>541.035</ele>
        <time>2022-10-10T14:40:12Z</time>
      </trkpt>
      <trkpt lat="47.15367" lon="6.18882">
        <ele>541.486</ele>
        <time>2022-10-10T14:40:13Z</time>
      </trkpt>
      <trkpt lat="47.15357" lon="6.18882">
        <ele>541.614</ele>
        <time>2022-10-10T14:40:15Z</time>
      </trkpt>
      <trkpt lat="47.15352" lon="6.1888">
        <ele>541.609</ele>
        <time>2022-10-10T14:40:16Z</time>
      </trkpt>
      <trkpt lat="47.15347" lon="6.18878">
        <ele>541.614</ele>
        <time>2022-10-10T14:40:17Z</time>
      </trkpt>
      <trkpt lat="47.15338" lon="6.18871">
        <ele>541.684</ele>
        <time>2022-10-10T14:40:19Z</time>
      </trkpt>
      <trkpt lat="47.15334" lon="6.18864">
        <ele>541.648</ele>
        <time>2022-10-10T14:40:20Z</time>
      </trkpt>
      <trkpt lat="47.15332" lon="6.18855">
        <ele>541.652</ele>
        <time>2022-10-10T14:40:21Z</time>
      </trkpt>
      <trkpt lat="47.1533" lon="6.18846">
        <ele>541.665</ele>
        <time>2022-10-10T14:40:22Z</time>
      </trkpt>
      <trkpt lat="47.15329" lon="6.18836">
        <ele>540.411</ele>
        <time>2022-10-10T14:40:23Z</time>
      </trkpt>
      <trkpt lat="47.15328" lon="6.18826">
        <ele>539.657</ele>
        <time>2022-10-10T14:40:24Z</time>
      </trkpt>
      <trkpt lat="47.15327" lon="6.18816">
        <ele>539.087</ele>
        <time>2022-10-10T14:40:25Z</time>
      </trkpt>
      <trkpt lat="47.15326" lon="6.18806">
        <ele>538.881</ele>
        <time>2022-10-10T14:40:26Z</time>
      </trkpt>
      <trkpt lat="47.15325" lon="6.18796">
        <ele>538.827</ele>
        <time>2022-10-10T14:40:27Z</time>
      </trkpt>
      <trkpt lat="47.15324" lon="6.18786">
        <ele>538.868</ele>
        <time>2022-10-10T14:40:28Z</time>
      </trkpt>
      <trkpt lat="47.15323" lon="6.18777">
        <ele>538.814</ele>
        <time>2022-10-10T14:40:29Z</time>
      </trkpt>
      <trkpt lat="47.15323" lon="6.1876">
        <ele>539.609</ele>
        <time>2022-10-10T14:40:31Z</time>
      </trkpt>
      <trkpt lat="47.15323" lon="6.18752">
        <ele>539.693</ele>
        <time>2022-10-10T14:40:32Z</time>
      </trkpt>
      <trkpt lat="47.15322" lon="6.18735">
        <ele>540.033</ele>
        <time>2022-10-10T14:40:34Z</time>
      </trkpt>
      <trkpt lat="47.15321" lon="6.18726">
        <ele>540.027</ele>
        <time>2022-10-10T14:40:35Z</time>
      </trkpt>
      <trkpt lat="47.15318" lon="6.18719">
        <ele>540.051</ele>
        <time>2022-10-10T14:40:36Z</time>
      </trkpt>
      <trkpt lat="47.15315" lon="6.18713">
        <ele>540.024</ele>
        <time>2022-10-10T14:40:37Z</time>
      </trkpt>
      <trkpt lat="47.15312" lon="6.18707">
        <ele>540.07</ele>
        <time>2022-10-10T14:40:38Z</time>
      </trkpt>
      <trkpt lat="47.15308" lon="6.18701">
        <ele>540.026</ele>
        <time>2022-10-10T14:40:39Z</time>
      </trkpt>
      <trkpt lat="47.15293" lon="6.18671">
        <ele>539.226</ele>
        <time>2022-10-10T14:40:43Z</time>
      </trkpt>
      <trkpt lat="47.15285" lon="6.18655">
        <ele>538.64</ele>
        <time>2022-10-10T14:40:45Z</time>
      </trkpt>
      <trkpt lat="47.15281" lon="6.18647">
        <ele>538.652</ele>
        <time>2022-10-10T14:40:46Z</time>
      </trkpt>
      <trkpt lat="47.15278" lon="6.18639">
        <ele>538.653</ele>
        <time>2022-10-10T14:40:47Z</time>
      </trkpt>
      <trkpt lat="47.15274" lon="6.1863">
        <ele>538.608</ele>
        <time>2022-10-10T14:40:48Z</time>
      </trkpt>
      <trkpt lat="47.15266" lon="6.18614">
        <ele>538.609</ele>
        <time>2022-10-10T14:40:50Z</time>
      </trkpt>
      <trkpt lat="47.15255" lon="6.1859">
        <ele>538.646</ele>
        <time>2022-10-10T14:40:53Z</time>
      </trkpt>
      <trkpt lat="47.15241" lon="6.18557">
        <ele>537.846</ele>
        <time>2022-10-10T14:40:57Z</time>
      </trkpt>
      <trkpt lat="47.15238" lon="6.18551">
        <ele>537.65</ele>
        <time>2022-10-10T14:40:58Z</time>
      </trkpt>
      <trkpt lat="47.15234" lon="6.18541">
        <ele>537.824</ele>
        <time>2022-10-10T14:40:59Z</time>
      </trkpt>
      <trkpt lat="47.15232" lon="6.18535">
        <ele>537.857</ele>
        <time>2022-10-10T14:41:00Z</time>
      </trkpt>
      <trkpt lat="47.15228" lon="6.18527">
        <ele>537.853</ele>
        <time>2022-10-10T14:41:01Z</time>
      </trkpt>
      <trkpt lat="47.15226" lon="6.1852">
        <ele>538.229</ele>
        <time>2022-10-10T14:41:02Z</time>
      </trkpt>
      <trkpt lat="47.15217" lon="6.18496">
        <ele>538.489</ele>
        <time>2022-10-10T14:41:05Z</time>
      </trkpt>
      <trkpt lat="47.15205" lon="6.18473">
        <ele>538.463</ele>
        <time>2022-10-10T14:41:08Z</time>
      </trkpt>
      <trkpt lat="47.15194" lon="6.18448">
        <ele>538.012</ele>
        <time>2022-10-10T14:41:11Z</time>
      </trkpt>
      <trkpt lat="47.1519" lon="6.1844">
        <ele>537.432</ele>
        <time>2022-10-10T14:41:12Z</time>
      </trkpt>
      <trkpt lat="47.15187" lon="6.18432">
        <ele>537.405</ele>
        <time>2022-10-10T14:41:13Z</time>
      </trkpt>
      <trkpt lat="47.15184" lon="6.18424">
        <ele>537.009</ele>
        <time>2022-10-10T14:41:14Z</time>
      </trkpt>
      <trkpt lat="47.15181" lon="6.18417">
        <ele>537.092</ele>
        <time>2022-10-10T14:41:15Z</time>
      </trkpt>
      <trkpt lat="47.15178" lon="6.18411">
        <ele>537.052</ele>
        <time>2022-10-10T14:41:16Z</time>
      </trkpt>
      <trkpt lat="47.15176" lon="6.18406">
        <ele>537.046</ele>
        <time>2022-10-10T14:41:17Z</time>
      </trkpt>
      <trkpt lat="47.15173" lon="6.18402">
        <ele>537.05</ele>
        <time>2022-10-10T14:41:18Z</time>
      </trkpt>
      <trkpt lat="47.1517" lon="6.18399">
        <ele>537.223</ele>
        <time>2022-10-10T14:41:19Z</time>
      </trkpt>
      <trkpt lat="47.15165" lon="6.18392">
        <ele>537.619</ele>
        <time>2022-10-10T14:41:21Z</time>
      </trkpt>
      <trkpt lat="47.15154" lon="6.18376">
        <ele>536.825</ele>
        <time>2022-10-10T14:41:25Z</time>
      </trkpt>
      <trkpt lat="47.15148" lon="6.18367">
        <ele>536.855</ele>
        <time>2022-10-10T14:41:27Z</time>
      </trkpt>
      <trkpt lat="47.15145" lon="6.18362">
        <ele>536.899</ele>
        <time>2022-10-10T14:41:28Z</time>
      </trkpt>
      <trkpt lat="47.15142" lon="6.18357">
        <ele>537.245</ele>
        <time>2022-10-10T14:41:29Z</time>
      </trkpt>
      <trkpt lat="47.1514" lon="6.18352">
        <ele>536.847</ele>
        <time>2022-10-10T14:41:30Z</time>
      </trkpt>
      <trkpt lat="47.15135" lon="6.18341">
        <ele>537.211</ele>
        <time>2022-10-10T14:41:32Z</time>
      </trkpt>
      <trkpt lat="47.15133" lon="6.18335">
        <ele>537.409</ele>
        <time>2022-10-10T14:41:33Z</time>
      </trkpt>
      <trkpt lat="47.15131" lon="6.18329">
        <ele>537.475</ele>
        <time>2022-10-10T14:41:34Z</time>
      </trkpt>
      <trkpt lat="47.1513" lon="6.18323">
        <ele>537.215</ele>
        <time>2022-10-10T14:41:35Z</time>
      </trkpt>
      <trkpt lat="47.15128" lon="6.18317">
        <ele>537.299</ele>
        <time>2022-10-10T14:41:36Z</time>
      </trkpt>
      <trkpt lat="47.15126" lon="6.18312">
        <ele>537.243</ele>
        <time>2022-10-10T14:41:37Z</time>
      </trkpt>
      <trkpt lat="47.15125" lon="6.18308">
        <ele>537.086</ele>
        <time>2022-10-10T14:41:38Z</time>
      </trkpt>
      <trkpt lat="47.15124" lon="6.18303">
        <ele>537.022</ele>
        <time>2022-10-10T14:41:39Z</time>
      </trkpt>
      <trkpt lat="47.15123" lon="6.18298">
        <ele>537.058</ele>
        <time>2022-10-10T14:41:40Z</time>
      </trkpt>
      <trkpt lat="47.15121" lon="6.18294">
        <ele>537.088</ele>
        <time>2022-10-10T14:41:41Z</time>
      </trkpt>
      <trkpt lat="47.15119" lon="6.18282">
        <ele>536.632</ele>
        <time>2022-10-10T14:41:43Z</time>
      </trkpt>
      <trkpt lat="47.15117" lon="6.18269">
        <ele>536.483</ele>
        <time>2022-10-10T14:41:45Z</time>
      </trkpt>
      <trkpt lat="47.15115" lon="6.18255">
        <ele>536.225</ele>
        <time>2022-10-10T14:41:47Z</time>
      </trkpt>
      <trkpt lat="47.15114" lon="6.18248">
        <ele>536.217</ele>
        <time>2022-10-10T14:41:48Z</time>
      </trkpt>
      <trkpt lat="47.15113" lon="6.18242">
        <ele>536.209</ele>
        <time>2022-10-10T14:41:49Z</time>
      </trkpt>
      <trkpt lat="47.15111" lon="6.18234">
        <ele>536.649</ele>
        <time>2022-10-10T14:41:50Z</time>
      </trkpt>
      <trkpt lat="47.15109" lon="6.18226">
        <ele>537.439</ele>
        <time>2022-10-10T14:41:51Z</time>
      </trkpt>
      <trkpt lat="47.15106" lon="6.18219">
        <ele>537.813</ele>
        <time>2022-10-10T14:41:52Z</time>
      </trkpt>
      <trkpt lat="47.15096" lon="6.18186">
        <ele>537.637</ele>
        <time>2022-10-10T14:41:56Z</time>
      </trkpt>
      <trkpt lat="47.15088" lon="6.18159">
        <ele>536.03</ele>
        <time>2022-10-10T14:41:59Z</time>
      </trkpt>
      <trkpt lat="47.15086" lon="6.18149">
        <ele>535.876</ele>
        <time>2022-10-10T14:42:00Z</time>
      </trkpt>
      <trkpt lat="47.15083" lon="6.18131">
        <ele>535.482</ele>
        <time>2022-10-10T14:42:02Z</time>
      </trkpt>
      <trkpt lat="47.15079" lon="6.18102">
        <ele>534.412</ele>
        <time>2022-10-10T14:42:05Z</time>
      </trkpt>
      <trkpt lat="47.15079" lon="6.18081">
        <ele>533.436</ele>
        <time>2022-10-10T14:42:07Z</time>
      </trkpt>
      <trkpt lat="47.15078" lon="6.18071">
        <ele>532.828</ele>
        <time>2022-10-10T14:42:08Z</time>
      </trkpt>
      <trkpt lat="47.15072" lon="6.18051">
        <ele>531.089</ele>
        <time>2022-10-10T14:42:10Z</time>
      </trkpt>
      <trkpt lat="47.15068" lon="6.18043">
        <ele>531.017</ele>
        <time>2022-10-10T14:42:11Z</time>
      </trkpt>
      <trkpt lat="47.15062" lon="6.18036">
        <ele>531.009</ele>
        <time>2022-10-10T14:42:12Z</time>
      </trkpt>
      <trkpt lat="47.15057" lon="6.18029">
        <ele>531.083</ele>
        <time>2022-10-10T14:42:13Z</time>
      </trkpt>
      <trkpt lat="47.15051" lon="6.18022">
        <ele>531.073</ele>
        <time>2022-10-10T14:42:14Z</time>
      </trkpt>
      <trkpt lat="47.15047" lon="6.18017">
        <ele>531.427</ele>
        <time>2022-10-10T14:42:15Z</time>
      </trkpt>
      <trkpt lat="47.15043" lon="6.1801">
        <ele>531.821</ele>
        <time>2022-10-10T14:42:16Z</time>
      </trkpt>
      <trkpt lat="47.15031" lon="6.17988">
        <ele>531.454</ele>
        <time>2022-10-10T14:42:19Z</time>
      </trkpt>
      <trkpt lat="47.15028" lon="6.17979">
        <ele>531.41</ele>
        <time>2022-10-10T14:42:20Z</time>
      </trkpt>
      <trkpt lat="47.15026" lon="6.17971">
        <ele>531.296</ele>
        <time>2022-10-10T14:42:21Z</time>
      </trkpt>
      <trkpt lat="47.15015" lon="6.17936">
        <ele>530.876</ele>
        <time>2022-10-10T14:42:25Z</time>
      </trkpt>
      <trkpt lat="47.14996" lon="6.17885">
        <ele>529.62</ele>
        <time>2022-10-10T14:42:31Z</time>
      </trkpt>
      <trkpt lat="47.14985" lon="6.17859">
        <ele>529.092</ele>
        <time>2022-10-10T14:42:34Z</time>
      </trkpt>
      <trkpt lat="47.1498" lon="6.1785">
        <ele>528.873</ele>
        <time>2022-10-10T14:42:35Z</time>
      </trkpt>
      <trkpt lat="47.14975" lon="6.17841">
        <ele>528.22</ele>
        <time>2022-10-10T14:42:36Z</time>
      </trkpt>
      <trkpt lat="47.14965" lon="6.17827">
        <ele>527.609</ele>
        <time>2022-10-10T14:42:38Z</time>
      </trkpt>
      <trkpt lat="47.14959" lon="6.17821">
        <ele>527.62</ele>
        <time>2022-10-10T14:42:39Z</time>
      </trkpt>
      <trkpt lat="47.14953" lon="6.17816">
        <ele>527.65</ele>
        <time>2022-10-10T14:42:40Z</time>
      </trkpt>
      <trkpt lat="47.14948" lon="6.17811">
        <ele>527.634</ele>
        <time>2022-10-10T14:42:41Z</time>
      </trkpt>
      <trkpt lat="47.14936" lon="6.17802">
        <ele>528.658</ele>
        <time>2022-10-10T14:42:43Z</time>
      </trkpt>
      <trkpt lat="47.14931" lon="6.17798">
        <ele>528.641</ele>
        <time>2022-10-10T14:42:44Z</time>
      </trkpt>
      <trkpt lat="47.14925" lon="6.17794">
        <ele>528.627</ele>
        <time>2022-10-10T14:42:45Z</time>
      </trkpt>
      <trkpt lat="47.1492" lon="6.17791">
        <ele>529.083</ele>
        <time>2022-10-10T14:42:46Z</time>
      </trkpt>
      <trkpt lat="47.14915" lon="6.17789">
        <ele>529.033</ele>
        <time>2022-10-10T14:42:47Z</time>
      </trkpt>
      <trkpt lat="47.1491" lon="6.17787">
        <ele>528.617</ele>
        <time>2022-10-10T14:42:48Z</time>
      </trkpt>
      <trkpt lat="47.14905" lon="6.17785">
        <ele>528.618</ele>
        <time>2022-10-10T14:42:49Z</time>
      </trkpt>
      <trkpt lat="47.14899" lon="6.17782">
        <ele>528.698</ele>
        <time>2022-10-10T14:42:50Z</time>
      </trkpt>
      <trkpt lat="47.14879" lon="6.17769">
        <ele>528.417</ele>
        <time>2022-10-10T14:42:54Z</time>
      </trkpt>
      <trkpt lat="47.14872" lon="6.17765">
        <ele>528.409</ele>
        <time>2022-10-10T14:42:55Z</time>
      </trkpt>
      <trkpt lat="47.14862" lon="6.17758">
        <ele>528.432</ele>
        <time>2022-10-10T14:42:57Z</time>
      </trkpt>
      <trkpt lat="47.14856" lon="6.17755">
        <ele>528.442</ele>
        <time>2022-10-10T14:42:58Z</time>
      </trkpt>
      <trkpt lat="47.14851" lon="6.17753">
        <ele>528.846</ele>
        <time>2022-10-10T14:42:59Z</time>
      </trkpt>
      <trkpt lat="47.14844" lon="6.17751">
        <ele>529.27</ele>
        <time>2022-10-10T14:43:00Z</time>
      </trkpt>
      <trkpt lat="47.1484" lon="6.17749">
        <ele>530.083</ele>
        <time>2022-10-10T14:43:01Z</time>
      </trkpt>
      <trkpt lat="47.14834" lon="6.17747">
        <ele>530.499</ele>
        <time>2022-10-10T14:43:02Z</time>
      </trkpt>
      <trkpt lat="47.14829" lon="6.17745">
        <ele>530.635</ele>
        <time>2022-10-10T14:43:03Z</time>
      </trkpt>
      <trkpt lat="47.14824" lon="6.17743">
        <ele>531.885</ele>
        <time>2022-10-10T14:43:04Z</time>
      </trkpt>
      <trkpt lat="47.14819" lon="6.1774">
        <ele>531.869</ele>
        <time>2022-10-10T14:43:05Z</time>
      </trkpt>
      <trkpt lat="47.14809" lon="6.17735">
        <ele>531.879</ele>
        <time>2022-10-10T14:43:07Z</time>
      </trkpt>
      <trkpt lat="47.14799" lon="6.17728">
        <ele>532.005</ele>
        <time>2022-10-10T14:43:09Z</time>
      </trkpt>
      <trkpt lat="47.14793" lon="6.17724">
        <ele>531.825</ele>
        <time>2022-10-10T14:43:10Z</time>
      </trkpt>
      <trkpt lat="47.14787" lon="6.1772">
        <ele>531.809</ele>
        <time>2022-10-10T14:43:11Z</time>
      </trkpt>
      <trkpt lat="47.14781" lon="6.17717">
        <ele>531.888</ele>
        <time>2022-10-10T14:43:12Z</time>
      </trkpt>
      <trkpt lat="47.14776" lon="6.17714">
        <ele>531.258</ele>
        <time>2022-10-10T14:43:13Z</time>
      </trkpt>
      <trkpt lat="47.14769" lon="6.1771">
        <ele>530.872</ele>
        <time>2022-10-10T14:43:14Z</time>
      </trkpt>
      <trkpt lat="47.14763" lon="6.17707">
        <ele>530.666</ele>
        <time>2022-10-10T14:43:15Z</time>
      </trkpt>
      <trkpt lat="47.14756" lon="6.17704">
        <ele>530.419</ele>
        <time>2022-10-10T14:43:16Z</time>
      </trkpt>
      <trkpt lat="47.1475" lon="6.17701">
        <ele>530.225</ele>
        <time>2022-10-10T14:43:17Z</time>
      </trkpt>
      <trkpt lat="47.14737" lon="6.17692">
        <ele>529.411</ele>
        <time>2022-10-10T14:43:19Z</time>
      </trkpt>
      <trkpt lat="47.1473" lon="6.17686">
        <ele>528.241</ele>
        <time>2022-10-10T14:43:20Z</time>
      </trkpt>
      <trkpt lat="47.14723" lon="6.1768">
        <ele>527.645</ele>
        <time>2022-10-10T14:43:21Z</time>
      </trkpt>
      <trkpt lat="47.14716" lon="6.17673">
        <ele>526.689</ele>
        <time>2022-10-10T14:43:22Z</time>
      </trkpt>
      <trkpt lat="47.14702" lon="6.1766">
        <ele>525.006</ele>
        <time>2022-10-10T14:43:24Z</time>
      </trkpt>
      <trkpt lat="47.14694" lon="6.17655">
        <ele>524.426</ele>
        <time>2022-10-10T14:43:25Z</time>
      </trkpt>
      <trkpt lat="47.14685" lon="6.17652">
        <ele>523.009</ele>
        <time>2022-10-10T14:43:26Z</time>
      </trkpt>
      <trkpt lat="47.14677" lon="6.1765">
        <ele>523.099</ele>
        <time>2022-10-10T14:43:27Z</time>
      </trkpt>
      <trkpt lat="47.14668" lon="6.17648">
        <ele>523.029</ele>
        <time>2022-10-10T14:43:28Z</time>
      </trkpt>
      <trkpt lat="47.14661" lon="6.17647">
        <ele>523.053</ele>
        <time>2022-10-10T14:43:29Z</time>
      </trkpt>
      <trkpt lat="47.14651" lon="6.17645">
        <ele>523.657</ele>
        <time>2022-10-10T14:43:30Z</time>
      </trkpt>
      <trkpt lat="47.14644" lon="6.17643">
        <ele>523.67</ele>
        <time>2022-10-10T14:43:31Z</time>
      </trkpt>
      <trkpt lat="47.14636" lon="6.17642">
        <ele>524.426</ele>
        <time>2022-10-10T14:43:32Z</time>
      </trkpt>
      <trkpt lat="47.14629" lon="6.17641">
        <ele>524.472</ele>
        <time>2022-10-10T14:43:33Z</time>
      </trkpt>
      <trkpt lat="47.14622" lon="6.17641">
        <ele>524.892</ele>
        <time>2022-10-10T14:43:34Z</time>
      </trkpt>
      <trkpt lat="47.14616" lon="6.17641">
        <ele>525.046</ele>
        <time>2022-10-10T14:43:35Z</time>
      </trkpt>
      <trkpt lat="47.14609" lon="6.1764">
        <ele>525.266</ele>
        <time>2022-10-10T14:43:36Z</time>
      </trkpt>
      <trkpt lat="47.14603" lon="6.1764">
        <ele>525.829</ele>
        <time>2022-10-10T14:43:37Z</time>
      </trkpt>
      <trkpt lat="47.1459" lon="6.17641">
        <ele>526.421</ele>
        <time>2022-10-10T14:43:39Z</time>
      </trkpt>
      <trkpt lat="47.14584" lon="6.17642">
        <ele>527.209</ele>
        <time>2022-10-10T14:43:40Z</time>
      </trkpt>
      <trkpt lat="47.14572" lon="6.17643">
        <ele>527.457</ele>
        <time>2022-10-10T14:43:42Z</time>
      </trkpt>
      <trkpt lat="47.14559" lon="6.17644">
        <ele>527.637</ele>
        <time>2022-10-10T14:43:44Z</time>
      </trkpt>
      <trkpt lat="47.1454" lon="6.17644">
        <ele>528.651</ele>
        <time>2022-10-10T14:43:47Z</time>
      </trkpt>
      <trkpt lat="47.14528" lon="6.17644">
        <ele>529.245</ele>
        <time>2022-10-10T14:43:49Z</time>
      </trkpt>
      <trkpt lat="47.14522" lon="6.17644">
        <ele>529.698</ele>
        <time>2022-10-10T14:43:50Z</time>
      </trkpt>
      <trkpt lat="47.14516" lon="6.17644">
        <ele>529.874</ele>
        <time>2022-10-10T14:43:51Z</time>
      </trkpt>
      <trkpt lat="47.1451" lon="6.17644">
        <ele>529.86</ele>
        <time>2022-10-10T14:43:52Z</time>
      </trkpt>
      <trkpt lat="47.14504" lon="6.17643">
        <ele>530.06</ele>
        <time>2022-10-10T14:43:53Z</time>
      </trkpt>
      <trkpt lat="47.14498" lon="6.17644">
        <ele>530.234</ele>
        <time>2022-10-10T14:43:54Z</time>
      </trkpt>
      <trkpt lat="47.14492" lon="6.17643">
        <ele>530.642</ele>
        <time>2022-10-10T14:43:55Z</time>
      </trkpt>
      <trkpt lat="47.14486" lon="6.17643">
        <ele>530.622</ele>
        <time>2022-10-10T14:43:56Z</time>
      </trkpt>
      <trkpt lat="47.1448" lon="6.17642">
        <ele>530.614</ele>
        <time>2022-10-10T14:43:57Z</time>
      </trkpt>
      <trkpt lat="47.14474" lon="6.17642">
        <ele>530.609</ele>
        <time>2022-10-10T14:43:58Z</time>
      </trkpt>
      <trkpt lat="47.14469" lon="6.17641">
        <ele>531.265</ele>
        <time>2022-10-10T14:43:59Z</time>
      </trkpt>
      <trkpt lat="47.14463" lon="6.1764">
        <ele>531.485</ele>
        <time>2022-10-10T14:44:00Z</time>
      </trkpt>
      <trkpt lat="47.14455" lon="6.17638">
        <ele>531.469</ele>
        <time>2022-10-10T14:44:01Z</time>
      </trkpt>
      <trkpt lat="47.1445" lon="6.17636">
        <ele>531.423</ele>
        <time>2022-10-10T14:44:02Z</time>
      </trkpt>
      <trkpt lat="47.14444" lon="6.17635">
        <ele>531.636</ele>
        <time>2022-10-10T14:44:03Z</time>
      </trkpt>
      <trkpt lat="47.14438" lon="6.17633">
        <ele>531.852</ele>
        <time>2022-10-10T14:44:04Z</time>
      </trkpt>
      <trkpt lat="47.14432" lon="6.17632">
        <ele>532.038</ele>
        <time>2022-10-10T14:44:05Z</time>
      </trkpt>
      <trkpt lat="47.14426" lon="6.17631">
        <ele>532.438</ele>
        <time>2022-10-10T14:44:06Z</time>
      </trkpt>
      <trkpt lat="47.14421" lon="6.1763">
        <ele>533.062</ele>
        <time>2022-10-10T14:44:07Z</time>
      </trkpt>
      <trkpt lat="47.14415" lon="6.17628">
        <ele>533.447</ele>
        <time>2022-10-10T14:44:08Z</time>
      </trkpt>
      <trkpt lat="47.14409" lon="6.17626">
        <ele>533.429</ele>
        <time>2022-10-10T14:44:09Z</time>
      </trkpt>
      <trkpt lat="47.14403" lon="6.17624">
        <ele>533.621</ele>
        <time>2022-10-10T14:44:10Z</time>
      </trkpt>
      <trkpt lat="47.14397" lon="6.17622">
        <ele>533.809</ele>
        <time>2022-10-10T14:44:11Z</time>
      </trkpt>
      <trkpt lat="47.14391" lon="6.17619">
        <ele>533.865</ele>
        <time>2022-10-10T14:44:12Z</time>
      </trkpt>
      <trkpt lat="47.14386" lon="6.17617">
        <ele>534.225</ele>
        <time>2022-10-10T14:44:13Z</time>
      </trkpt>
      <trkpt lat="47.1438" lon="6.17615">
        <ele>534.289</ele>
        <time>2022-10-10T14:44:14Z</time>
      </trkpt>
      <trkpt lat="47.14374" lon="6.17613">
        <ele>534.873</ele>
        <time>2022-10-10T14:44:15Z</time>
      </trkpt>
      <trkpt lat="47.14369" lon="6.17611">
        <ele>534.646</ele>
        <time>2022-10-10T14:44:16Z</time>
      </trkpt>
      <trkpt lat="47.14363" lon="6.17609">
        <ele>534.672</ele>
        <time>2022-10-10T14:44:17Z</time>
      </trkpt>
      <trkpt lat="47.14358" lon="6.17606">
        <ele>534.688</ele>
        <time>2022-10-10T14:44:18Z</time>
      </trkpt>
      <trkpt lat="47.14352" lon="6.17603">
        <ele>535.058</ele>
        <time>2022-10-10T14:44:19Z</time>
      </trkpt>
      <trkpt lat="47.14346" lon="6.17599">
        <ele>535.482</ele>
        <time>2022-10-10T14:44:20Z</time>
      </trkpt>
      <trkpt lat="47.14341" lon="6.17596">
        <ele>535.868</ele>
        <time>2022-10-10T14:44:21Z</time>
      </trkpt>
      <trkpt lat="47.14336" lon="6.17593">
        <ele>535.842</ele>
        <time>2022-10-10T14:44:22Z</time>
      </trkpt>
      <trkpt lat="47.1433" lon="6.1759">
        <ele>536.626</ele>
        <time>2022-10-10T14:44:23Z</time>
      </trkpt>
      <trkpt lat="47.14325" lon="6.17587">
        <ele>537.009</ele>
        <time>2022-10-10T14:44:24Z</time>
      </trkpt>
      <trkpt lat="47.14319" lon="6.17584">
        <ele>537.037</ele>
        <time>2022-10-10T14:44:25Z</time>
      </trkpt>
      <trkpt lat="47.14313" lon="6.1758">
        <ele>537.237</ele>
        <time>2022-10-10T14:44:26Z</time>
      </trkpt>
      <trkpt lat="47.14308" lon="6.17577">
        <ele>537.631</ele>
        <time>2022-10-10T14:44:27Z</time>
      </trkpt>
      <trkpt lat="47.14302" lon="6.17574">
        <ele>538.025</ele>
        <time>2022-10-10T14:44:28Z</time>
      </trkpt>
      <trkpt lat="47.14297" lon="6.1757">
        <ele>538.048</ele>
        <time>2022-10-10T14:44:29Z</time>
      </trkpt>
      <trkpt lat="47.14291" lon="6.17567">
        <ele>538.464</ele>
        <time>2022-10-10T14:44:30Z</time>
      </trkpt>
      <trkpt lat="47.14285" lon="6.17564">
        <ele>538.62</ele>
        <time>2022-10-10T14:44:31Z</time>
      </trkpt>
      <trkpt lat="47.14279" lon="6.17561">
        <ele>539.07</ele>
        <time>2022-10-10T14:44:32Z</time>
      </trkpt>
      <trkpt lat="47.14274" lon="6.17557">
        <ele>539.224</ele>
        <time>2022-10-10T14:44:33Z</time>
      </trkpt>
      <trkpt lat="47.14268" lon="6.17553">
        <ele>539.673</ele>
        <time>2022-10-10T14:44:34Z</time>
      </trkpt>
      <trkpt lat="47.14263" lon="6.17549">
        <ele>540.085</ele>
        <time>2022-10-10T14:44:35Z</time>
      </trkpt>
      <trkpt lat="47.14257" lon="6.17546">
        <ele>540.213</ele>
        <time>2022-10-10T14:44:36Z</time>
      </trkpt>
      <trkpt lat="47.14252" lon="6.17542">
        <ele>540.609</ele>
        <time>2022-10-10T14:44:37Z</time>
      </trkpt>
      <trkpt lat="47.14247" lon="6.17537">
        <ele>540.828</ele>
        <time>2022-10-10T14:44:38Z</time>
      </trkpt>
      <trkpt lat="47.14242" lon="6.17532">
        <ele>541.058</ele>
        <time>2022-10-10T14:44:39Z</time>
      </trkpt>
      <trkpt lat="47.14238" lon="6.17526">
        <ele>541.082</ele>
        <time>2022-10-10T14:44:40Z</time>
      </trkpt>
      <trkpt lat="47.14233" lon="6.1752">
        <ele>541.276</ele>
        <time>2022-10-10T14:44:41Z</time>
      </trkpt>
      <trkpt lat="47.1423" lon="6.17513">
        <ele>541.479</ele>
        <time>2022-10-10T14:44:42Z</time>
      </trkpt>
      <trkpt lat="47.14225" lon="6.17507">
        <ele>541.685</ele>
        <time>2022-10-10T14:44:43Z</time>
      </trkpt>
      <trkpt lat="47.14222" lon="6.17501">
        <ele>542.011</ele>
        <time>2022-10-10T14:44:44Z</time>
      </trkpt>
      <trkpt lat="47.14219" lon="6.17494">
        <ele>542.051</ele>
        <time>2022-10-10T14:44:45Z</time>
      </trkpt>
      <trkpt lat="47.14214" lon="6.17486">
        <ele>542.045</ele>
        <time>2022-10-10T14:44:46Z</time>
      </trkpt>
      <trkpt lat="47.14212" lon="6.17479">
        <ele>542.225</ele>
        <time>2022-10-10T14:44:47Z</time>
      </trkpt>
      <trkpt lat="47.14209" lon="6.17472">
        <ele>542.426</ele>
        <time>2022-10-10T14:44:48Z</time>
      </trkpt>
      <trkpt lat="47.14206" lon="6.17464">
        <ele>542.608</ele>
        <time>2022-10-10T14:44:49Z</time>
      </trkpt>
      <trkpt lat="47.14204" lon="6.17456">
        <ele>542.609</ele>
        <time>2022-10-10T14:44:50Z</time>
      </trkpt>
      <trkpt lat="47.14201" lon="6.17447">
        <ele>542.643</ele>
        <time>2022-10-10T14:44:51Z</time>
      </trkpt>
      <trkpt lat="47.14199" lon="6.17439">
        <ele>542.643</ele>
        <time>2022-10-10T14:44:52Z</time>
      </trkpt>
      <trkpt lat="47.14196" lon="6.1743">
        <ele>542.627</ele>
        <time>2022-10-10T14:44:53Z</time>
      </trkpt>
      <trkpt lat="47.14194" lon="6.17421">
        <ele>542.281</ele>
        <time>2022-10-10T14:44:54Z</time>
      </trkpt>
      <trkpt lat="47.1419" lon="6.1741">
        <ele>542.224</ele>
        <time>2022-10-10T14:44:55Z</time>
      </trkpt>
      <trkpt lat="47.14188" lon="6.17404">
        <ele>542.27</ele>
        <time>2022-10-10T14:44:56Z</time>
      </trkpt>
      <trkpt lat="47.14184" lon="6.17396">
        <ele>542.246</ele>
        <time>2022-10-10T14:44:57Z</time>
      </trkpt>
      <trkpt lat="47.1418" lon="6.17388">
        <ele>542.226</ele>
        <time>2022-10-10T14:44:58Z</time>
      </trkpt>
      <trkpt lat="47.14175" lon="6.1738">
        <ele>542.22</ele>
        <time>2022-10-10T14:44:59Z</time>
      </trkpt>
      <trkpt lat="47.14171" lon="6.17373">
        <ele>542.234</ele>
        <time>2022-10-10T14:45:00Z</time>
      </trkpt>
      <trkpt lat="47.14166" lon="6.17366">
        <ele>542.255</ele>
        <time>2022-10-10T14:45:01Z</time>
      </trkpt>
      <trkpt lat="47.14163" lon="6.17361">
        <ele>542.21</ele>
        <time>2022-10-10T14:45:02Z</time>
      </trkpt>
      <trkpt lat="47.14158" lon="6.17355">
        <ele>542.409</ele>
        <time>2022-10-10T14:45:03Z</time>
      </trkpt>
      <trkpt lat="47.14154" lon="6.17349">
        <ele>542.454</ele>
        <time>2022-10-10T14:45:04Z</time>
      </trkpt>
      <trkpt lat="47.14149" lon="6.17343">
        <ele>542.644</ele>
        <time>2022-10-10T14:45:05Z</time>
      </trkpt>
      <trkpt lat="47.14113" lon="6.17292">
        <ele>543.458</ele>
        <time>2022-10-10T14:45:13Z</time>
      </trkpt>
      <trkpt lat="47.14102" lon="6.17281">
        <ele>543.642</ele>
        <time>2022-10-10T14:45:15Z</time>
      </trkpt>
      <trkpt lat="47.14096" lon="6.17276">
        <ele>543.815</ele>
        <time>2022-10-10T14:45:16Z</time>
      </trkpt>
      <trkpt lat="47.14092" lon="6.17273">
        <ele>543.831</ele>
        <time>2022-10-10T14:45:17Z</time>
      </trkpt>
      <trkpt lat="47.14069" lon="6.1726">
        <ele>545.027</ele>
        <time>2022-10-10T14:45:21Z</time>
      </trkpt>
      <trkpt lat="47.14057" lon="6.17251">
        <ele>545.047</ele>
        <time>2022-10-10T14:45:23Z</time>
      </trkpt>
      <trkpt lat="47.14046" lon="6.17243">
        <ele>545.231</ele>
        <time>2022-10-10T14:45:25Z</time>
      </trkpt>
      <trkpt lat="47.14041" lon="6.17239">
        <ele>545.257</ele>
        <time>2022-10-10T14:45:26Z</time>
      </trkpt>
      <trkpt lat="47.14035" lon="6.17236">
        <ele>545.4</ele>
        <time>2022-10-10T14:45:27Z</time>
      </trkpt>
      <trkpt lat="47.1403" lon="6.17232">
        <ele>545.42</ele>
        <time>2022-10-10T14:45:28Z</time>
      </trkpt>
      <trkpt lat="47.14024" lon="6.17229">
        <ele>545.409</ele>
        <time>2022-10-10T14:45:29Z</time>
      </trkpt>
      <trkpt lat="47.14019" lon="6.17227">
        <ele>546.486</ele>
        <time>2022-10-10T14:45:30Z</time>
      </trkpt>
      <trkpt lat="47.14014" lon="6.17224">
        <ele>546.866</ele>
        <time>2022-10-10T14:45:31Z</time>
      </trkpt>
      <trkpt lat="47.14007" lon="6.17221">
        <ele>546.83</ele>
        <time>2022-10-10T14:45:32Z</time>
      </trkpt>
      <trkpt lat="47.14001" lon="6.17219">
        <ele>546.844</ele>
        <time>2022-10-10T14:45:33Z</time>
      </trkpt>
      <trkpt lat="47.13996" lon="6.17217">
        <ele>546.847</ele>
        <time>2022-10-10T14:45:34Z</time>
      </trkpt>
      <trkpt lat="47.13991" lon="6.17214">
        <ele>547.023</ele>
        <time>2022-10-10T14:45:35Z</time>
      </trkpt>
      <trkpt lat="47.13985" lon="6.1721">
        <ele>547.269</ele>
        <time>2022-10-10T14:45:36Z</time>
      </trkpt>
      <trkpt lat="47.13979" lon="6.17207">
        <ele>547.489</ele>
        <time>2022-10-10T14:45:37Z</time>
      </trkpt>
      <trkpt lat="47.13973" lon="6.17202">
        <ele>547.863</ele>
        <time>2022-10-10T14:45:38Z</time>
      </trkpt>
      <trkpt lat="47.13967" lon="6.17199">
        <ele>548.032</ele>
        <time>2022-10-10T14:45:39Z</time>
      </trkpt>
      <trkpt lat="47.13963" lon="6.17197">
        <ele>548.292</ele>
        <time>2022-10-10T14:45:40Z</time>
      </trkpt>
      <trkpt lat="47.13957" lon="6.17193">
        <ele>548.211</ele>
        <time>2022-10-10T14:45:41Z</time>
      </trkpt>
      <trkpt lat="47.13952" lon="6.1719">
        <ele>548.609</ele>
        <time>2022-10-10T14:45:42Z</time>
      </trkpt>
      <trkpt lat="47.13946" lon="6.17186">
        <ele>548.644</ele>
        <time>2022-10-10T14:45:43Z</time>
      </trkpt>
      <trkpt lat="47.1394" lon="6.17183">
        <ele>548.634</ele>
        <time>2022-10-10T14:45:44Z</time>
      </trkpt>
      <trkpt lat="47.13935" lon="6.17179">
        <ele>548.698</ele>
        <time>2022-10-10T14:45:45Z</time>
      </trkpt>
      <trkpt lat="47.13929" lon="6.17176">
        <ele>548.272</ele>
        <time>2022-10-10T14:45:46Z</time>
      </trkpt>
      <trkpt lat="47.13923" lon="6.17172">
        <ele>548.225</ele>
        <time>2022-10-10T14:45:47Z</time>
      </trkpt>
      <trkpt lat="47.13917" lon="6.17169">
        <ele>548.251</ele>
        <time>2022-10-10T14:45:48Z</time>
      </trkpt>
      <trkpt lat="47.13911" lon="6.17165">
        <ele>548.217</ele>
        <time>2022-10-10T14:45:49Z</time>
      </trkpt>
      <trkpt lat="47.13905" lon="6.17161">
        <ele>548.037</ele>
        <time>2022-10-10T14:45:50Z</time>
      </trkpt>
      <trkpt lat="47.13899" lon="6.17158">
        <ele>547.821</ele>
        <time>2022-10-10T14:45:51Z</time>
      </trkpt>
      <trkpt lat="47.13893" lon="6.17155">
        <ele>547.884</ele>
        <time>2022-10-10T14:45:52Z</time>
      </trkpt>
      <trkpt lat="47.13887" lon="6.17152">
        <ele>547.807</ele>
        <time>2022-10-10T14:45:53Z</time>
      </trkpt>
      <trkpt lat="47.13881" lon="6.17149">
        <ele>547.617</ele>
        <time>2022-10-10T14:45:54Z</time>
      </trkpt>
      <trkpt lat="47.13876" lon="6.17145">
        <ele>547.609</ele>
        <time>2022-10-10T14:45:55Z</time>
      </trkpt>
      <trkpt lat="47.1387" lon="6.17142">
        <ele>547.649</ele>
        <time>2022-10-10T14:45:56Z</time>
      </trkpt>
      <trkpt lat="47.13865" lon="6.17139">
        <ele>547.629</ele>
        <time>2022-10-10T14:45:57Z</time>
      </trkpt>
      <trkpt lat="47.13859" lon="6.17137">
        <ele>548.613</ele>
        <time>2022-10-10T14:45:58Z</time>
      </trkpt>
      <trkpt lat="47.13848" lon="6.17136">
        <ele>549.487</ele>
        <time>2022-10-10T14:46:00Z</time>
      </trkpt>
      <trkpt lat="47.13841" lon="6.17137">
        <ele>549.68</ele>
        <time>2022-10-10T14:46:01Z</time>
      </trkpt>
      <trkpt lat="47.13829" lon="6.1714">
        <ele>550.676</ele>
        <time>2022-10-10T14:46:03Z</time>
      </trkpt>
      <trkpt lat="47.13817" lon="6.1714">
        <ele>550.692</ele>
        <time>2022-10-10T14:46:05Z</time>
      </trkpt>
      <trkpt lat="47.1381" lon="6.17136">
        <ele>550.652</ele>
        <time>2022-10-10T14:46:06Z</time>
      </trkpt>
      <trkpt lat="47.13806" lon="6.17131">
        <ele>549.836</ele>
        <time>2022-10-10T14:46:07Z</time>
      </trkpt>
      <trkpt lat="47.13802" lon="6.17124">
        <ele>549.438</ele>
        <time>2022-10-10T14:46:08Z</time>
      </trkpt>
      <trkpt lat="47.13799" lon="6.17114">
        <ele>549.07</ele>
        <time>2022-10-10T14:46:09Z</time>
      </trkpt>
      <trkpt lat="47.13797" lon="6.17106">
        <ele>548.617</ele>
        <time>2022-10-10T14:46:10Z</time>
      </trkpt>
      <trkpt lat="47.13795" lon="6.17097">
        <ele>548.209</ele>
        <time>2022-10-10T14:46:11Z</time>
      </trkpt>
      <trkpt lat="47.13788" lon="6.17064">
        <ele>548.054</ele>
        <time>2022-10-10T14:46:15Z</time>
      </trkpt>
      <trkpt lat="47.13782" lon="6.17037">
        <ele>547.034</ele>
        <time>2022-10-10T14:46:18Z</time>
      </trkpt>
      <trkpt lat="47.13774" lon="6.16998">
        <ele>545.868</ele>
        <time>2022-10-10T14:46:22Z</time>
      </trkpt>
      <trkpt lat="47.13772" lon="6.16988">
        <ele>545.662</ele>
        <time>2022-10-10T14:46:23Z</time>
      </trkpt>
      <trkpt lat="47.13763" lon="6.16951">
        <ele>545.265</ele>
        <time>2022-10-10T14:46:27Z</time>
      </trkpt>
      <trkpt lat="47.13761" lon="6.16942">
        <ele>545.291</ele>
        <time>2022-10-10T14:46:28Z</time>
      </trkpt>
      <trkpt lat="47.13756" lon="6.16924">
        <ele>545.227</ele>
        <time>2022-10-10T14:46:30Z</time>
      </trkpt>
      <trkpt lat="47.13749" lon="6.16897">
        <ele>545.487</ele>
        <time>2022-10-10T14:46:33Z</time>
      </trkpt>
      <trkpt lat="47.13742" lon="6.16869">
        <ele>545.681</ele>
        <time>2022-10-10T14:46:36Z</time>
      </trkpt>
      <trkpt lat="47.1374" lon="6.1686">
        <ele>546.265</ele>
        <time>2022-10-10T14:46:37Z</time>
      </trkpt>
      <trkpt lat="47.13738" lon="6.16852">
        <ele>546.268</ele>
        <time>2022-10-10T14:46:38Z</time>
      </trkpt>
      <trkpt lat="47.13736" lon="6.16843">
        <ele>546.214</ele>
        <time>2022-10-10T14:46:39Z</time>
      </trkpt>
      <trkpt lat="47.13734" lon="6.16834">
        <ele>546.809</ele>
        <time>2022-10-10T14:46:40Z</time>
      </trkpt>
      <trkpt lat="47.13732" lon="6.16826">
        <ele>546.897</ele>
        <time>2022-10-10T14:46:41Z</time>
      </trkpt>
      <trkpt lat="47.1373" lon="6.16819">
        <ele>546.867</ele>
        <time>2022-10-10T14:46:42Z</time>
      </trkpt>
      <trkpt lat="47.13729" lon="6.16811">
        <ele>546.861</ele>
        <time>2022-10-10T14:46:43Z</time>
      </trkpt>
      <trkpt lat="47.1373" lon="6.16804">
        <ele>546.825</ele>
        <time>2022-10-10T14:46:44Z</time>
      </trkpt>
      <trkpt lat="47.13733" lon="6.16798">
        <ele>547.068</ele>
        <time>2022-10-10T14:46:45Z</time>
      </trkpt>
      <trkpt lat="47.13738" lon="6.16794">
        <ele>547.064</ele>
        <time>2022-10-10T14:46:46Z</time>
      </trkpt>
      <trkpt lat="47.13748" lon="6.16791">
        <ele>547.06</ele>
        <time>2022-10-10T14:46:48Z</time>
      </trkpt>
      <trkpt lat="47.13754" lon="6.1679">
        <ele>547.06</ele>
        <time>2022-10-10T14:46:49Z</time>
      </trkpt>
      <trkpt lat="47.13771" lon="6.16781">
        <ele>546.284</ele>
        <time>2022-10-10T14:46:52Z</time>
      </trkpt>
      <trkpt lat="47.13778" lon="6.16776">
        <ele>544.865</ele>
        <time>2022-10-10T14:46:53Z</time>
      </trkpt>
      <trkpt lat="47.13784" lon="6.1677">
        <ele>543.668</ele>
        <time>2022-10-10T14:46:54Z</time>
      </trkpt>
      <trkpt lat="47.13798" lon="6.16756">
        <ele>541.414</ele>
        <time>2022-10-10T14:46:56Z</time>
      </trkpt>
      <trkpt lat="47.13813" lon="6.16743">
        <ele>539.809</ele>
        <time>2022-10-10T14:46:58Z</time>
      </trkpt>
      <trkpt lat="47.13828" lon="6.16731">
        <ele>536.857</ele>
        <time>2022-10-10T14:47:00Z</time>
      </trkpt>
      <trkpt lat="47.13836" lon="6.16725">
        <ele>536.087</ele>
        <time>2022-10-10T14:47:01Z</time>
      </trkpt>
      <trkpt lat="47.13843" lon="6.16718">
        <ele>535.471</ele>
        <time>2022-10-10T14:47:02Z</time>
      </trkpt>
      <trkpt lat="47.1385" lon="6.16712">
        <ele>534.825</ele>
        <time>2022-10-10T14:47:03Z</time>
      </trkpt>
      <trkpt lat="47.13857" lon="6.16706">
        <ele>533.668</ele>
        <time>2022-10-10T14:47:04Z</time>
      </trkpt>
      <trkpt lat="47.13869" lon="6.16694">
        <ele>533.214</ele>
        <time>2022-10-10T14:47:06Z</time>
      </trkpt>
      <trkpt lat="47.1388" lon="6.16677">
        <ele>531.65</ele>
        <time>2022-10-10T14:47:08Z</time>
      </trkpt>
      <trkpt lat="47.13885" lon="6.16667">
        <ele>529.65</ele>
        <time>2022-10-10T14:47:09Z</time>
      </trkpt>
      <trkpt lat="47.1389" lon="6.16656">
        <ele>528.454</ele>
        <time>2022-10-10T14:47:10Z</time>
      </trkpt>
      <trkpt lat="47.13901" lon="6.16635">
        <ele>527.467</ele>
        <time>2022-10-10T14:47:12Z</time>
      </trkpt>
      <trkpt lat="47.13906" lon="6.16623">
        <ele>524.881</ele>
        <time>2022-10-10T14:47:13Z</time>
      </trkpt>
      <trkpt lat="47.13911" lon="6.16611">
        <ele>523.819</ele>
        <time>2022-10-10T14:47:14Z</time>
      </trkpt>
      <trkpt lat="47.13915" lon="6.16599">
        <ele>523.209</ele>
        <time>2022-10-10T14:47:15Z</time>
      </trkpt>
      <trkpt lat="47.13918" lon="6.16586">
        <ele>522.847</ele>
        <time>2022-10-10T14:47:16Z</time>
      </trkpt>
      <trkpt lat="47.1392" lon="6.16573">
        <ele>521.477</ele>
        <time>2022-10-10T14:47:17Z</time>
      </trkpt>
      <trkpt lat="47.13923" lon="6.16561">
        <ele>521.071</ele>
        <time>2022-10-10T14:47:18Z</time>
      </trkpt>
      <trkpt lat="47.13927" lon="6.16548">
        <ele>520.045</ele>
        <time>2022-10-10T14:47:19Z</time>
      </trkpt>
      <trkpt lat="47.13939" lon="6.16525">
        <ele>516.488</ele>
        <time>2022-10-10T14:47:21Z</time>
      </trkpt>
      <trkpt lat="47.13946" lon="6.16514">
        <ele>515.474</ele>
        <time>2022-10-10T14:47:22Z</time>
      </trkpt>
      <trkpt lat="47.13953" lon="6.16504">
        <ele>514.43</ele>
        <time>2022-10-10T14:47:23Z</time>
      </trkpt>
      <trkpt lat="47.13962" lon="6.16495">
        <ele>514.28</ele>
        <time>2022-10-10T14:47:24Z</time>
      </trkpt>
      <trkpt lat="47.1397" lon="6.16488">
        <ele>514.214</ele>
        <time>2022-10-10T14:47:25Z</time>
      </trkpt>
      <trkpt lat="47.13979" lon="6.16482">
        <ele>514.274</ele>
        <time>2022-10-10T14:47:26Z</time>
      </trkpt>
      <trkpt lat="47.13987" lon="6.16476">
        <ele>514.256</ele>
        <time>2022-10-10T14:47:27Z</time>
      </trkpt>
      <trkpt lat="47.13995" lon="6.16471">
        <ele>514.221</ele>
        <time>2022-10-10T14:47:28Z</time>
      </trkpt>
      <trkpt lat="47.14002" lon="6.16466">
        <ele>514.209</ele>
        <time>2022-10-10T14:47:29Z</time>
      </trkpt>
      <trkpt lat="47.14015" lon="6.16456">
        <ele>513.628</ele>
        <time>2022-10-10T14:47:31Z</time>
      </trkpt>
      <trkpt lat="47.14021" lon="6.16449">
        <ele>512.418</ele>
        <time>2022-10-10T14:47:32Z</time>
      </trkpt>
      <trkpt lat="47.14027" lon="6.1644">
        <ele>512.482</ele>
        <time>2022-10-10T14:47:33Z</time>
      </trkpt>
      <trkpt lat="47.14037" lon="6.16424">
        <ele>510.886</ele>
        <time>2022-10-10T14:47:35Z</time>
      </trkpt>
      <trkpt lat="47.14042" lon="6.16415">
        <ele>510.689</ele>
        <time>2022-10-10T14:47:36Z</time>
      </trkpt>
      <trkpt lat="47.14047" lon="6.16403">
        <ele>509.475</ele>
        <time>2022-10-10T14:47:37Z</time>
      </trkpt>
      <trkpt lat="47.14055" lon="6.16387">
        <ele>508.671</ele>
        <time>2022-10-10T14:47:39Z</time>
      </trkpt>
      <trkpt lat="47.14061" lon="6.16377">
        <ele>508.231</ele>
        <time>2022-10-10T14:47:40Z</time>
      </trkpt>
      <trkpt lat="47.14071" lon="6.16361">
        <ele>506.415</ele>
        <time>2022-10-10T14:47:42Z</time>
      </trkpt>
      <trkpt lat="47.14077" lon="6.16353">
        <ele>506.024</ele>
        <time>2022-10-10T14:47:43Z</time>
      </trkpt>
      <trkpt lat="47.14082" lon="6.16345">
        <ele>504.404</ele>
        <time>2022-10-10T14:47:44Z</time>
      </trkpt>
      <trkpt lat="47.14087" lon="6.16338">
        <ele>504.014</ele>
        <time>2022-10-10T14:47:45Z</time>
      </trkpt>
      <trkpt lat="47.14091" lon="6.16331">
        <ele>503.609</ele>
        <time>2022-10-10T14:47:46Z</time>
      </trkpt>
      <trkpt lat="47.14095" lon="6.16324">
        <ele>502.683</ele>
        <time>2022-10-10T14:47:47Z</time>
      </trkpt>
      <trkpt lat="47.14098" lon="6.16317">
        <ele>502.493</ele>
        <time>2022-10-10T14:47:48Z</time>
      </trkpt>
      <trkpt lat="47.141" lon="6.16311">
        <ele>501.867</ele>
        <time>2022-10-10T14:47:49Z</time>
      </trkpt>
      <trkpt lat="47.14101" lon="6.16304">
        <ele>501.451</ele>
        <time>2022-10-10T14:47:50Z</time>
      </trkpt>
      <trkpt lat="47.14101" lon="6.16295">
        <ele>500.034</ele>
        <time>2022-10-10T14:47:51Z</time>
      </trkpt>
      <trkpt lat="47.14101" lon="6.16288">
        <ele>499.82</ele>
        <time>2022-10-10T14:47:52Z</time>
      </trkpt>
      <trkpt lat="47.14101" lon="6.1628">
        <ele>498.066</ele>
        <time>2022-10-10T14:47:53Z</time>
      </trkpt>
      <trkpt lat="47.141" lon="6.16271">
        <ele>496.496</ele>
        <time>2022-10-10T14:47:54Z</time>
      </trkpt>
      <trkpt lat="47.14098" lon="6.16261">
        <ele>495.44</ele>
        <time>2022-10-10T14:47:55Z</time>
      </trkpt>
      <trkpt lat="47.14096" lon="6.16256">
        <ele>495.488</ele>
        <time>2022-10-10T14:47:56Z</time>
      </trkpt>
      <trkpt lat="47.14094" lon="6.16251">
        <ele>495.424</ele>
        <time>2022-10-10T14:47:57Z</time>
      </trkpt>
      <trkpt lat="47.14093" lon="6.16246">
        <ele>495.426</ele>
        <time>2022-10-10T14:47:58Z</time>
      </trkpt>
      <trkpt lat="47.14093" lon="6.16242">
        <ele>495.409</ele>
        <time>2022-10-10T14:47:59Z</time>
      </trkpt>
      <trkpt lat="47.14094" lon="6.1624">
        <ele>495.449</ele>
        <time>2022-10-10T14:48:00Z</time>
      </trkpt>
      <trkpt lat="47.14096" lon="6.16237">
        <ele>495.219</ele>
        <time>2022-10-10T14:48:01Z</time>
      </trkpt>
      <trkpt lat="47.14101" lon="6.16231">
        <ele>494.623</ele>
        <time>2022-10-10T14:48:03Z</time>
      </trkpt>
      <trkpt lat="47.14104" lon="6.16228">
        <ele>494.037</ele>
        <time>2022-10-10T14:48:04Z</time>
      </trkpt>
      <trkpt lat="47.14109" lon="6.16226">
        <ele>492.88</ele>
        <time>2022-10-10T14:48:06Z</time>
      </trkpt>
      <trkpt lat="47.14112" lon="6.16226">
        <ele>492.446</ele>
        <time>2022-10-10T14:48:07Z</time>
      </trkpt>
      <trkpt lat="47.14115" lon="6.16228">
        <ele>492.232</ele>
        <time>2022-10-10T14:48:08Z</time>
      </trkpt>
      <trkpt lat="47.14118" lon="6.16229">
        <ele>492.012</ele>
        <time>2022-10-10T14:48:09Z</time>
      </trkpt>
      <trkpt lat="47.14122" lon="6.16231">
        <ele>491.846</ele>
        <time>2022-10-10T14:48:10Z</time>
      </trkpt>
      <trkpt lat="47.14126" lon="6.16232">
        <ele>491.683</ele>
        <time>2022-10-10T14:48:11Z</time>
      </trkpt>
      <trkpt lat="47.14136" lon="6.16237">
        <ele>491.425</ele>
        <time>2022-10-10T14:48:13Z</time>
      </trkpt>
      <trkpt lat="47.14145" lon="6.1624">
        <ele>490.617</ele>
        <time>2022-10-10T14:48:15Z</time>
      </trkpt>
      <trkpt lat="47.14149" lon="6.16241">
        <ele>490.409</ele>
        <time>2022-10-10T14:48:16Z</time>
      </trkpt>
      <trkpt lat="47.1416" lon="6.16241">
        <ele>489.259</ele>
        <time>2022-10-10T14:48:18Z</time>
      </trkpt>
      <trkpt lat="47.14179" lon="6.16242">
        <ele>487.289</ele>
        <time>2022-10-10T14:48:21Z</time>
      </trkpt>
      <trkpt lat="47.14185" lon="6.16246">
        <ele>486.063</ele>
        <time>2022-10-10T14:48:22Z</time>
      </trkpt>
      <trkpt lat="47.14192" lon="6.16252">
        <ele>484.667</ele>
        <time>2022-10-10T14:48:23Z</time>
      </trkpt>
      <trkpt lat="47.14197" lon="6.1626">
        <ele>484.29</ele>
        <time>2022-10-10T14:48:24Z</time>
      </trkpt>
      <trkpt lat="47.14202" lon="6.16268">
        <ele>483.686</ele>
        <time>2022-10-10T14:48:25Z</time>
      </trkpt>
      <trkpt lat="47.14207" lon="6.16276">
        <ele>483.662</ele>
        <time>2022-10-10T14:48:26Z</time>
      </trkpt>
      <trkpt lat="47.1421" lon="6.16282">
        <ele>483.462</ele>
        <time>2022-10-10T14:48:27Z</time>
      </trkpt>
      <trkpt lat="47.14215" lon="6.16286">
        <ele>483.426</ele>
        <time>2022-10-10T14:48:28Z</time>
      </trkpt>
      <trkpt lat="47.14219" lon="6.16289">
        <ele>483.428</ele>
        <time>2022-10-10T14:48:29Z</time>
      </trkpt>
      <trkpt lat="47.14223" lon="6.16288">
        <ele>483.489</ele>
        <time>2022-10-10T14:48:30Z</time>
      </trkpt>
      <trkpt lat="47.14225" lon="6.16286">
        <ele>483.017</ele>
        <time>2022-10-10T14:48:31Z</time>
      </trkpt>
      <trkpt lat="47.14225" lon="6.16283">
        <ele>483.009</ele>
        <time>2022-10-10T14:48:32Z</time>
      </trkpt>
      <trkpt lat="47.14218" lon="6.1627">
        <ele>482.833</ele>
        <time>2022-10-10T14:48:35Z</time>
      </trkpt>
      <trkpt lat="47.14214" lon="6.16265">
        <ele>482.683</ele>
        <time>2022-10-10T14:48:36Z</time>
      </trkpt>
      <trkpt lat="47.14211" lon="6.16258">
        <ele>482.217</ele>
        <time>2022-10-10T14:48:37Z</time>
      </trkpt>
      <trkpt lat="47.14198" lon="6.16238">
        <ele>481.061</ele>
        <time>2022-10-10T14:48:40Z</time>
      </trkpt>
      <trkpt lat="47.1419" lon="6.16226">
        <ele>480.684</ele>
        <time>2022-10-10T14:48:42Z</time>
      </trkpt>
      <trkpt lat="47.14166" lon="6.16196">
        <ele>480.29</ele>
        <time>2022-10-10T14:48:47Z</time>
      </trkpt>
      <trkpt lat="47.14161" lon="6.1619">
        <ele>479.866</ele>
        <time>2022-10-10T14:48:48Z</time>
      </trkpt>
      <trkpt lat="47.14156" lon="6.16184">
        <ele>479.616</ele>
        <time>2022-10-10T14:48:49Z</time>
      </trkpt>
      <trkpt lat="47.1414" lon="6.16167">
        <ele>478.84</ele>
        <time>2022-10-10T14:48:52Z</time>
      </trkpt>
      <trkpt lat="47.14111" lon="6.16136">
        <ele>477.633</ele>
        <time>2022-10-10T14:48:57Z</time>
      </trkpt>
      <trkpt lat="47.14106" lon="6.1613">
        <ele>477.223</ele>
        <time>2022-10-10T14:48:58Z</time>
      </trkpt>
      <trkpt lat="47.14084" lon="6.161">
        <ele>476.415</ele>
        <time>2022-10-10T14:49:02Z</time>
      </trkpt>
      <trkpt lat="47.1408" lon="6.16092">
        <ele>476.409</ele>
        <time>2022-10-10T14:49:03Z</time>
      </trkpt>
      <trkpt lat="47.14075" lon="6.16085">
        <ele>476.214</ele>
        <time>2022-10-10T14:49:04Z</time>
      </trkpt>
      <trkpt lat="47.1406" lon="6.16057">
        <ele>475.824</ele>
        <time>2022-10-10T14:49:07Z</time>
      </trkpt>
      <trkpt lat="47.14047" lon="6.16027">
        <ele>475.288</ele>
        <time>2022-10-10T14:49:10Z</time>
      </trkpt>
      <trkpt lat="47.14035" lon="6.15996">
        <ele>474.482</ele>
        <time>2022-10-10T14:49:13Z</time>
      </trkpt>
      <trkpt lat="47.1403" lon="6.15977">
        <ele>473.855</ele>
        <time>2022-10-10T14:49:15Z</time>
      </trkpt>
      <trkpt lat="47.14023" lon="6.15953">
        <ele>473.431</ele>
        <time>2022-10-10T14:49:17Z</time>
      </trkpt>
      <trkpt lat="47.14011" lon="6.15909">
        <ele>472.497</ele>
        <time>2022-10-10T14:49:21Z</time>
      </trkpt>
      <trkpt lat="47.13998" lon="6.15866">
        <ele>471.277</ele>
        <time>2022-10-10T14:49:25Z</time>
      </trkpt>
      <trkpt lat="47.13995" lon="6.15855">
        <ele>471.081</ele>
        <time>2022-10-10T14:49:26Z</time>
      </trkpt>
      <trkpt lat="47.1398" lon="6.15814">
        <ele>470.295</ele>
        <time>2022-10-10T14:49:30Z</time>
      </trkpt>
      <trkpt lat="47.13972" lon="6.15795">
        <ele>469.849</ele>
        <time>2022-10-10T14:49:32Z</time>
      </trkpt>
      <trkpt lat="47.13951" lon="6.15756">
        <ele>468.623</ele>
        <time>2022-10-10T14:49:36Z</time>
      </trkpt>
      <trkpt lat="47.13945" lon="6.15747">
        <ele>468.409</ele>
        <time>2022-10-10T14:49:37Z</time>
      </trkpt>
      <trkpt lat="47.13922" lon="6.15717">
        <ele>467.46</ele>
        <time>2022-10-10T14:49:41Z</time>
      </trkpt>
      <trkpt lat="47.13902" lon="6.15695">
        <ele>466.82</ele>
        <time>2022-10-10T14:49:44Z</time>
      </trkpt>
      <trkpt lat="47.13889" lon="6.1568">
        <ele>466.494</ele>
        <time>2022-10-10T14:49:46Z</time>
      </trkpt>
      <trkpt lat="47.13856" lon="6.15642">
        <ele>465.258</ele>
        <time>2022-10-10T14:49:51Z</time>
      </trkpt>
      <trkpt lat="47.1385" lon="6.15635">
        <ele>465.081</ele>
        <time>2022-10-10T14:49:52Z</time>
      </trkpt>
      <trkpt lat="47.13813" lon="6.15582">
        <ele>464.287</ele>
        <time>2022-10-10T14:49:58Z</time>
      </trkpt>
      <trkpt lat="47.13808" lon="6.15572">
        <ele>463.683</ele>
        <time>2022-10-10T14:49:59Z</time>
      </trkpt>
      <trkpt lat="47.1379" lon="6.15531">
        <ele>462.813</ele>
        <time>2022-10-10T14:50:03Z</time>
      </trkpt>
      <trkpt lat="47.13786" lon="6.1552">
        <ele>462.637</ele>
        <time>2022-10-10T14:50:04Z</time>
      </trkpt>
      <trkpt lat="47.13782" lon="6.1551">
        <ele>462.434</ele>
        <time>2022-10-10T14:50:05Z</time>
      </trkpt>
      <trkpt lat="47.13776" lon="6.15488">
        <ele>462.255</ele>
        <time>2022-10-10T14:50:07Z</time>
      </trkpt>
      <trkpt lat="47.13773" lon="6.15477">
        <ele>462.01</ele>
        <time>2022-10-10T14:50:08Z</time>
      </trkpt>
      <trkpt lat="47.13767" lon="6.15455">
        <ele>461.409</ele>
        <time>2022-10-10T14:50:10Z</time>
      </trkpt>
      <trkpt lat="47.13765" lon="6.15446">
        <ele>461.294</ele>
        <time>2022-10-10T14:50:11Z</time>
      </trkpt>
      <trkpt lat="47.13762" lon="6.15433">
        <ele>460.824</ele>
        <time>2022-10-10T14:50:12Z</time>
      </trkpt>
      <trkpt lat="47.1376" lon="6.15422">
        <ele>460.658</ele>
        <time>2022-10-10T14:50:13Z</time>
      </trkpt>
      <trkpt lat="47.13758" lon="6.15411">
        <ele>460.472</ele>
        <time>2022-10-10T14:50:14Z</time>
      </trkpt>
      <trkpt lat="47.13756" lon="6.15401">
        <ele>460.255</ele>
        <time>2022-10-10T14:50:15Z</time>
      </trkpt>
      <trkpt lat="47.13754" lon="6.1539">
        <ele>460.071</ele>
        <time>2022-10-10T14:50:16Z</time>
      </trkpt>
      <trkpt lat="47.13752" lon="6.15379">
        <ele>460.077</ele>
        <time>2022-10-10T14:50:17Z</time>
      </trkpt>
      <trkpt lat="47.13749" lon="6.15369">
        <ele>459.897</ele>
        <time>2022-10-10T14:50:18Z</time>
      </trkpt>
      <trkpt lat="47.13742" lon="6.15339">
        <ele>459.231</ele>
        <time>2022-10-10T14:50:21Z</time>
      </trkpt>
      <trkpt lat="47.13739" lon="6.15327">
        <ele>459.237</ele>
        <time>2022-10-10T14:50:22Z</time>
      </trkpt>
      <trkpt lat="47.1373" lon="6.15288">
        <ele>458.849</ele>
        <time>2022-10-10T14:50:26Z</time>
      </trkpt>
      <trkpt lat="47.13722" lon="6.15256">
        <ele>457.813</ele>
        <time>2022-10-10T14:50:29Z</time>
      </trkpt>
      <trkpt lat="47.13704" lon="6.15205">
        <ele>457.609</ele>
        <time>2022-10-10T14:50:34Z</time>
      </trkpt>
      <trkpt lat="47.13695" lon="6.15184">
        <ele>456.844</ele>
        <time>2022-10-10T14:50:36Z</time>
      </trkpt>
      <trkpt lat="47.13691" lon="6.15174">
        <ele>455.624</ele>
        <time>2022-10-10T14:50:37Z</time>
      </trkpt>
      <trkpt lat="47.13686" lon="6.15165">
        <ele>455.258</ele>
        <time>2022-10-10T14:50:38Z</time>
      </trkpt>
      <trkpt lat="47.13677" lon="6.15147">
        <ele>455.232</ele>
        <time>2022-10-10T14:50:40Z</time>
      </trkpt>
      <trkpt lat="47.13667" lon="6.15129">
        <ele>455.265</ele>
        <time>2022-10-10T14:50:42Z</time>
      </trkpt>
      <trkpt lat="47.13662" lon="6.15121">
        <ele>455.211</ele>
        <time>2022-10-10T14:50:43Z</time>
      </trkpt>
      <trkpt lat="47.13658" lon="6.15114">
        <ele>454.237</ele>
        <time>2022-10-10T14:50:44Z</time>
      </trkpt>
      <trkpt lat="47.13653" lon="6.15103">
        <ele>453.837</ele>
        <time>2022-10-10T14:50:45Z</time>
      </trkpt>
      <trkpt lat="47.13648" lon="6.15094">
        <ele>453.871</ele>
        <time>2022-10-10T14:50:46Z</time>
      </trkpt>
      <trkpt lat="47.13644" lon="6.15086">
        <ele>453.698</ele>
        <time>2022-10-10T14:50:47Z</time>
      </trkpt>
      <trkpt lat="47.1364" lon="6.15079">
        <ele>453.615</ele>
        <time>2022-10-10T14:50:48Z</time>
      </trkpt>
      <trkpt lat="47.13636" lon="6.15073">
        <ele>453.626</ele>
        <time>2022-10-10T14:50:49Z</time>
      </trkpt>
      <trkpt lat="47.13633" lon="6.15066">
        <ele>453.809</ele>
        <time>2022-10-10T14:50:50Z</time>
      </trkpt>
      <trkpt lat="47.1363" lon="6.15061">
        <ele>453.84</ele>
        <time>2022-10-10T14:50:51Z</time>
      </trkpt>
      <trkpt lat="47.13628" lon="6.15055">
        <ele>453.89</ele>
        <time>2022-10-10T14:50:52Z</time>
      </trkpt>
      <trkpt lat="47.13622" lon="6.15035">
        <ele>453.694</ele>
        <time>2022-10-10T14:50:55Z</time>
      </trkpt>
      <trkpt lat="47.13602" lon="6.14782">
        <ele>448.438</ele>
        <time>2022-10-10T14:51:22Z</time>
      </trkpt>
      <trkpt lat="47.13605" lon="6.14767">
        <ele>448.051</ele>
        <time>2022-10-10T14:51:23Z</time>
      </trkpt>
      <trkpt lat="47.13607" lon="6.14756">
        <ele>447.447</ele>
        <time>2022-10-10T14:51:24Z</time>
      </trkpt>
      <trkpt lat="47.13608" lon="6.14746">
        <ele>446.853</ele>
        <time>2022-10-10T14:51:25Z</time>
      </trkpt>
      <trkpt lat="47.13614" lon="6.14696">
        <ele>446.033</ele>
        <time>2022-10-10T14:51:29Z</time>
      </trkpt>
      <trkpt lat="47.13618" lon="6.14672">
        <ele>445.637</ele>
        <time>2022-10-10T14:51:31Z</time>
      </trkpt>
      <trkpt lat="47.13619" lon="6.14661">
        <ele>445.653</ele>
        <time>2022-10-10T14:51:32Z</time>
      </trkpt>
      <trkpt lat="47.13621" lon="6.14612">
        <ele>444.604</ele>
        <time>2022-10-10T14:51:36Z</time>
      </trkpt>
      <trkpt lat="47.13622" lon="6.14587">
        <ele>444.414</ele>
        <time>2022-10-10T14:51:38Z</time>
      </trkpt>
      <trkpt lat="47.13622" lon="6.14553">
        <ele>443.409</ele>
        <time>2022-10-10T14:51:41Z</time>
      </trkpt>
      <trkpt lat="47.13623" lon="6.14502">
        <ele>442.446</ele>
        <time>2022-10-10T14:51:45Z</time>
      </trkpt>
      <trkpt lat="47.13624" lon="6.1449">
        <ele>442.026</ele>
        <time>2022-10-10T14:51:46Z</time>
      </trkpt>
      <trkpt lat="47.13625" lon="6.14478">
        <ele>441.82</ele>
        <time>2022-10-10T14:51:47Z</time>
      </trkpt>
      <trkpt lat="47.13626" lon="6.14466">
        <ele>441.494</ele>
        <time>2022-10-10T14:51:48Z</time>
      </trkpt>
      <trkpt lat="47.13627" lon="6.14454">
        <ele>440.227</ele>
        <time>2022-10-10T14:51:49Z</time>
      </trkpt>
      <trkpt lat="47.13629" lon="6.14443">
        <ele>439.863</ele>
        <time>2022-10-10T14:51:50Z</time>
      </trkpt>
      <trkpt lat="47.13632" lon="6.1442">
        <ele>439.649</ele>
        <time>2022-10-10T14:51:52Z</time>
      </trkpt>
      <trkpt lat="47.13635" lon="6.14409">
        <ele>439.479</ele>
        <time>2022-10-10T14:51:53Z</time>
      </trkpt>
      <trkpt lat="47.13644" lon="6.14377">
        <ele>439.013</ele>
        <time>2022-10-10T14:51:56Z</time>
      </trkpt>
      <trkpt lat="47.13651" lon="6.14356">
        <ele>439.074</ele>
        <time>2022-10-10T14:51:58Z</time>
      </trkpt>
      <trkpt lat="47.13661" lon="6.14323">
        <ele>438.056</ele>
        <time>2022-10-10T14:52:01Z</time>
      </trkpt>
      <trkpt lat="47.13675" lon="6.14281">
        <ele>437.621</ele>
        <time>2022-10-10T14:52:05Z</time>
      </trkpt>
      <trkpt lat="47.13678" lon="6.14271">
        <ele>437.609</ele>
        <time>2022-10-10T14:52:06Z</time>
      </trkpt>
      <trkpt lat="47.13681" lon="6.1426">
        <ele>437.058</ele>
        <time>2022-10-10T14:52:07Z</time>
      </trkpt>
      <trkpt lat="47.13691" lon="6.14227">
        <ele>436.638</ele>
        <time>2022-10-10T14:52:10Z</time>
      </trkpt>
      <trkpt lat="47.13701" lon="6.14184">
        <ele>436.442</ele>
        <time>2022-10-10T14:52:14Z</time>
      </trkpt>
      <trkpt lat="47.13706" lon="6.14138">
        <ele>435.066</ele>
        <time>2022-10-10T14:52:18Z</time>
      </trkpt>
      <trkpt lat="47.13707" lon="6.14114">
        <ele>434.029</ele>
        <time>2022-10-10T14:52:20Z</time>
      </trkpt>
      <trkpt lat="47.13707" lon="6.14067">
        <ele>433.615</ele>
        <time>2022-10-10T14:52:24Z</time>
      </trkpt>
      <trkpt lat="47.13706" lon="6.1404">
        <ele>433.221</ele>
        <time>2022-10-10T14:52:26Z</time>
      </trkpt>
      <trkpt lat="47.13701" lon="6.14007">
        <ele>433.041</ele>
        <time>2022-10-10T14:52:29Z</time>
      </trkpt>
      <trkpt lat="47.13693" lon="6.1397">
        <ele>432.475</ele>
        <time>2022-10-10T14:52:32Z</time>
      </trkpt>
      <trkpt lat="47.13688" lon="6.13949">
        <ele>431.466</ele>
        <time>2022-10-10T14:52:34Z</time>
      </trkpt>
      <trkpt lat="47.13674" lon="6.13904">
        <ele>430.629</ele>
        <time>2022-10-10T14:52:38Z</time>
      </trkpt>
      <trkpt lat="47.13669" lon="6.1389">
        <ele>430.421</ele>
        <time>2022-10-10T14:52:39Z</time>
      </trkpt>
      <trkpt lat="47.13652" lon="6.13836">
        <ele>429.009</ele>
        <time>2022-10-10T14:52:44Z</time>
      </trkpt>
      <trkpt lat="47.1364" lon="6.138">
        <ele>428.697</ele>
        <time>2022-10-10T14:52:47Z</time>
      </trkpt>
      <trkpt lat="47.1363" lon="6.13769">
        <ele>428.027</ele>
        <time>2022-10-10T14:52:50Z</time>
      </trkpt>
      <trkpt lat="47.13625" lon="6.13746">
        <ele>427.881</ele>
        <time>2022-10-10T14:52:52Z</time>
      </trkpt>
      <trkpt lat="47.13618" lon="6.13707">
        <ele>426.635</ele>
        <time>2022-10-10T14:52:55Z</time>
      </trkpt>
      <trkpt lat="47.13611" lon="6.13657">
        <ele>425.848</ele>
        <time>2022-10-10T14:52:59Z</time>
      </trkpt>
      <trkpt lat="47.1361" lon="6.13645">
        <ele>425.444</ele>
        <time>2022-10-10T14:53:00Z</time>
      </trkpt>
      <trkpt lat="47.13604" lon="6.13597">
        <ele>424.08</ele>
        <time>2022-10-10T14:53:04Z</time>
      </trkpt>
      <trkpt lat="47.13598" lon="6.13546">
        <ele>423.42</ele>
        <time>2022-10-10T14:53:08Z</time>
      </trkpt>
      <trkpt lat="47.13592" lon="6.135">
        <ele>423.024</ele>
        <time>2022-10-10T14:53:12Z</time>
      </trkpt>
      <trkpt lat="47.13588" lon="6.13474">
        <ele>421.857</ele>
        <time>2022-10-10T14:53:14Z</time>
      </trkpt>
      <trkpt lat="47.13586" lon="6.13462">
        <ele>421.8</ele>
        <time>2022-10-10T14:53:15Z</time>
      </trkpt>
      <trkpt lat="47.13574" lon="6.13414">
        <ele>420.62</ele>
        <time>2022-10-10T14:53:19Z</time>
      </trkpt>
      <trkpt lat="47.13567" lon="6.13394">
        <ele>420.409</ele>
        <time>2022-10-10T14:53:21Z</time>
      </trkpt>
      <trkpt lat="47.13558" lon="6.13372">
        <ele>419.676</ele>
        <time>2022-10-10T14:53:23Z</time>
      </trkpt>
      <trkpt lat="47.13549" lon="6.13351">
        <ele>418.896</ele>
        <time>2022-10-10T14:53:25Z</time>
      </trkpt>
      <trkpt lat="47.13539" lon="6.1333">
        <ele>418.63</ele>
        <time>2022-10-10T14:53:27Z</time>
      </trkpt>
      <trkpt lat="47.13533" lon="6.1332">
        <ele>418.624</ele>
        <time>2022-10-10T14:53:28Z</time>
      </trkpt>
      <trkpt lat="47.13528" lon="6.13309">
        <ele>418.027</ele>
        <time>2022-10-10T14:53:29Z</time>
      </trkpt>
      <trkpt lat="47.13523" lon="6.13299">
        <ele>418.083</ele>
        <time>2022-10-10T14:53:30Z</time>
      </trkpt>
      <trkpt lat="47.13518" lon="6.13289">
        <ele>417.879</ele>
        <time>2022-10-10T14:53:31Z</time>
      </trkpt>
      <trkpt lat="47.13501" lon="6.13257">
        <ele>417.689</ele>
        <time>2022-10-10T14:53:34Z</time>
      </trkpt>
      <trkpt lat="47.13487" lon="6.13229">
        <ele>416.623</ele>
        <time>2022-10-10T14:53:37Z</time>
      </trkpt>
      <trkpt lat="47.1348" lon="6.13217">
        <ele>416.664</ele>
        <time>2022-10-10T14:53:38Z</time>
      </trkpt>
      <trkpt lat="47.13475" lon="6.13207">
        <ele>416.406</ele>
        <time>2022-10-10T14:53:39Z</time>
      </trkpt>
      <trkpt lat="47.13457" lon="6.13169">
        <ele>415.816</ele>
        <time>2022-10-10T14:53:43Z</time>
      </trkpt>
      <trkpt lat="47.13452" lon="6.13156">
        <ele>415.609</ele>
        <time>2022-10-10T14:53:44Z</time>
      </trkpt>
      <trkpt lat="47.13448" lon="6.13148">
        <ele>415.617</ele>
        <time>2022-10-10T14:53:45Z</time>
      </trkpt>
      <trkpt lat="47.13444" lon="6.13139">
        <ele>415.427</ele>
        <time>2022-10-10T14:53:46Z</time>
      </trkpt>
      <trkpt lat="47.13439" lon="6.13129">
        <ele>415.481</ele>
        <time>2022-10-10T14:53:47Z</time>
      </trkpt>
      <trkpt lat="47.13433" lon="6.13117">
        <ele>415.485</ele>
        <time>2022-10-10T14:53:48Z</time>
      </trkpt>
      <trkpt lat="47.1343" lon="6.13109">
        <ele>415.048</ele>
        <time>2022-10-10T14:53:49Z</time>
      </trkpt>
      <trkpt lat="47.13426" lon="6.13099">
        <ele>414.844</ele>
        <time>2022-10-10T14:53:50Z</time>
      </trkpt>
      <trkpt lat="47.13422" lon="6.1309">
        <ele>414.48</ele>
        <time>2022-10-10T14:53:51Z</time>
      </trkpt>
      <trkpt lat="47.13416" lon="6.13078">
        <ele>414.45</ele>
        <time>2022-10-10T14:53:52Z</time>
      </trkpt>
      <trkpt lat="47.13412" lon="6.13068">
        <ele>414.234</ele>
        <time>2022-10-10T14:53:53Z</time>
      </trkpt>
      <trkpt lat="47.13407" lon="6.13059">
        <ele>414.086</ele>
        <time>2022-10-10T14:53:54Z</time>
      </trkpt>
      <trkpt lat="47.13403" lon="6.1305">
        <ele>414.06</ele>
        <time>2022-10-10T14:53:55Z</time>
      </trkpt>
      <trkpt lat="47.13398" lon="6.13041">
        <ele>413.226</ele>
        <time>2022-10-10T14:53:56Z</time>
      </trkpt>
      <trkpt lat="47.13394" lon="6.13032">
        <ele>413.209</ele>
        <time>2022-10-10T14:53:57Z</time>
      </trkpt>
      <trkpt lat="47.13389" lon="6.13024">
        <ele>412.829</ele>
        <time>2022-10-10T14:53:58Z</time>
      </trkpt>
      <trkpt lat="47.13384" lon="6.13016">
        <ele>412.839</ele>
        <time>2022-10-10T14:53:59Z</time>
      </trkpt>
      <trkpt lat="47.1338" lon="6.1301">
        <ele>412.843</ele>
        <time>2022-10-10T14:54:00Z</time>
      </trkpt>
      <trkpt lat="47.13376" lon="6.13002">
        <ele>412.877</ele>
        <time>2022-10-10T14:54:01Z</time>
      </trkpt>
      <trkpt lat="47.13372" lon="6.12997">
        <ele>413.07</ele>
        <time>2022-10-10T14:54:02Z</time>
      </trkpt>
      <trkpt lat="47.13369" lon="6.12992">
        <ele>413.086</ele>
        <time>2022-10-10T14:54:03Z</time>
      </trkpt>
      <trkpt lat="47.1335" lon="6.1297">
        <ele>412.042</ele>
        <time>2022-10-10T14:54:07Z</time>
      </trkpt>
      <trkpt lat="47.13345" lon="6.12964">
        <ele>411.852</ele>
        <time>2022-10-10T14:54:08Z</time>
      </trkpt>
      <trkpt lat="47.13333" lon="6.12953">
        <ele>411.246</ele>
        <time>2022-10-10T14:54:10Z</time>
      </trkpt>
      <trkpt lat="47.13327" lon="6.12948">
        <ele>410.426</ele>
        <time>2022-10-10T14:54:11Z</time>
      </trkpt>
      <trkpt lat="47.13313" lon="6.12936">
        <ele>410.047</ele>
        <time>2022-10-10T14:54:13Z</time>
      </trkpt>
      <trkpt lat="47.13293" lon="6.12921">
        <ele>408.811</ele>
        <time>2022-10-10T14:54:16Z</time>
      </trkpt>
      <trkpt lat="47.13273" lon="6.1291">
        <ele>408.209</ele>
        <time>2022-10-10T14:54:19Z</time>
      </trkpt>
      <trkpt lat="47.1325" lon="6.129">
        <ele>408.013</ele>
        <time>2022-10-10T14:54:22Z</time>
      </trkpt>
      <trkpt lat="47.13237" lon="6.12894">
        <ele>407.633</ele>
        <time>2022-10-10T14:54:24Z</time>
      </trkpt>
      <trkpt lat="47.13229" lon="6.12891">
        <ele>407.677</ele>
        <time>2022-10-10T14:54:25Z</time>
      </trkpt>
      <trkpt lat="47.13209" lon="6.12884">
        <ele>407.211</ele>
        <time>2022-10-10T14:54:28Z</time>
      </trkpt>
      <trkpt lat="47.13202" lon="6.12882">
        <ele>407.074</ele>
        <time>2022-10-10T14:54:29Z</time>
      </trkpt>
      <trkpt lat="47.13179" lon="6.12871">
        <ele>406.62</ele>
        <time>2022-10-10T14:54:32Z</time>
      </trkpt>
      <trkpt lat="47.13172" lon="6.12867">
        <ele>406.656</ele>
        <time>2022-10-10T14:54:33Z</time>
      </trkpt>
      <trkpt lat="47.13151" lon="6.12856">
        <ele>406.026</ele>
        <time>2022-10-10T14:54:36Z</time>
      </trkpt>
      <trkpt lat="47.1313" lon="6.12845">
        <ele>405.24</ele>
        <time>2022-10-10T14:54:39Z</time>
      </trkpt>
      <trkpt lat="47.13122" lon="6.12839">
        <ele>405.234</ele>
        <time>2022-10-10T14:54:40Z</time>
      </trkpt>
      <trkpt lat="47.13101" lon="6.12819">
        <ele>404.255</ele>
        <time>2022-10-10T14:54:43Z</time>
      </trkpt>
      <trkpt lat="47.13076" lon="6.12789">
        <ele>403.01</ele>
        <time>2022-10-10T14:54:47Z</time>
      </trkpt>
      <trkpt lat="47.13059" lon="6.12767">
        <ele>402.409</ele>
        <time>2022-10-10T14:54:50Z</time>
      </trkpt>
      <trkpt lat="47.13052" lon="6.12756">
        <ele>402.074</ele>
        <time>2022-10-10T14:54:51Z</time>
      </trkpt>
      <trkpt lat="47.13028" lon="6.12724">
        <ele>401.074</ele>
        <time>2022-10-10T14:54:55Z</time>
      </trkpt>
      <trkpt lat="47.1301" lon="6.127">
        <ele>400.238</ele>
        <time>2022-10-10T14:54:58Z</time>
      </trkpt>
      <trkpt lat="47.13004" lon="6.12692">
        <ele>400.252</ele>
        <time>2022-10-10T14:54:59Z</time>
      </trkpt>
      <trkpt lat="47.12998" lon="6.12683">
        <ele>400.245</ele>
        <time>2022-10-10T14:55:00Z</time>
      </trkpt>
      <trkpt lat="47.12992" lon="6.12675">
        <ele>400.211</ele>
        <time>2022-10-10T14:55:01Z</time>
      </trkpt>
      <trkpt lat="47.12986" lon="6.12668">
        <ele>399.887</ele>
        <time>2022-10-10T14:55:02Z</time>
      </trkpt>
      <trkpt lat="47.12981" lon="6.1266">
        <ele>399.847</ele>
        <time>2022-10-10T14:55:03Z</time>
      </trkpt>
      <trkpt lat="47.12975" lon="6.12652">
        <ele>399.631</ele>
        <time>2022-10-10T14:55:04Z</time>
      </trkpt>
      <trkpt lat="47.1297" lon="6.12645">
        <ele>398.814</ele>
        <time>2022-10-10T14:55:05Z</time>
      </trkpt>
      <trkpt lat="47.12964" lon="6.12638">
        <ele>398.654</ele>
        <time>2022-10-10T14:55:06Z</time>
      </trkpt>
      <trkpt lat="47.12959" lon="6.12631">
        <ele>398.209</ele>
        <time>2022-10-10T14:55:07Z</time>
      </trkpt>
      <trkpt lat="47.12954" lon="6.12623">
        <ele>398.009</ele>
        <time>2022-10-10T14:55:08Z</time>
      </trkpt>
      <trkpt lat="47.12949" lon="6.12615">
        <ele>398.052</ele>
        <time>2022-10-10T14:55:09Z</time>
      </trkpt>
      <trkpt lat="47.12945" lon="6.12608">
        <ele>397.612</ele>
        <time>2022-10-10T14:55:10Z</time>
      </trkpt>
      <trkpt lat="47.1294" lon="6.126">
        <ele>397.646</ele>
        <time>2022-10-10T14:55:11Z</time>
      </trkpt>
      <trkpt lat="47.12936" lon="6.12592">
        <ele>397.49</ele>
        <time>2022-10-10T14:55:12Z</time>
      </trkpt>
      <trkpt lat="47.12932" lon="6.12583">
        <ele>397.433</ele>
        <time>2022-10-10T14:55:13Z</time>
      </trkpt>
      <trkpt lat="47.12924" lon="6.12565">
        <ele>397.059</ele>
        <time>2022-10-10T14:55:15Z</time>
      </trkpt>
      <trkpt lat="47.12919" lon="6.12557">
        <ele>396.845</ele>
        <time>2022-10-10T14:55:16Z</time>
      </trkpt>
      <trkpt lat="47.12909" lon="6.1254">
        <ele>396.655</ele>
        <time>2022-10-10T14:55:18Z</time>
      </trkpt>
      <trkpt lat="47.12887" lon="6.12508">
        <ele>395.879</ele>
        <time>2022-10-10T14:55:22Z</time>
      </trkpt>
      <trkpt lat="47.12883" lon="6.12503">
        <ele>395.423</ele>
        <time>2022-10-10T14:55:23Z</time>
      </trkpt>
      <trkpt lat="47.12876" lon="6.12495">
        <ele>395.283</ele>
        <time>2022-10-10T14:55:24Z</time>
      </trkpt>
      <trkpt lat="47.1287" lon="6.12489">
        <ele>395.211</ele>
        <time>2022-10-10T14:55:25Z</time>
      </trkpt>
      <trkpt lat="47.12865" lon="6.12482">
        <ele>395.209</ele>
        <time>2022-10-10T14:55:26Z</time>
      </trkpt>
      <trkpt lat="47.1286" lon="6.12476">
        <ele>395.013</ele>
        <time>2022-10-10T14:55:27Z</time>
      </trkpt>
      <trkpt lat="47.12848" lon="6.12464">
        <ele>394.663</ele>
        <time>2022-10-10T14:55:29Z</time>
      </trkpt>
      <trkpt lat="47.12844" lon="6.1246">
        <ele>394.627</ele>
        <time>2022-10-10T14:55:30Z</time>
      </trkpt>
      <trkpt lat="47.12838" lon="6.12455">
        <ele>394.461</ele>
        <time>2022-10-10T14:55:31Z</time>
      </trkpt>
      <trkpt lat="47.12832" lon="6.12451">
        <ele>394.464</ele>
        <time>2022-10-10T14:55:32Z</time>
      </trkpt>
      <trkpt lat="47.12807" lon="6.12434">
        <ele>393.64</ele>
        <time>2022-10-10T14:55:36Z</time>
      </trkpt>
      <trkpt lat="47.12781" lon="6.12423">
        <ele>393.096</ele>
        <time>2022-10-10T14:55:40Z</time>
      </trkpt>
      <trkpt lat="47.12769" lon="6.12419">
        <ele>392.416</ele>
        <time>2022-10-10T14:55:42Z</time>
      </trkpt>
      <trkpt lat="47.12761" lon="6.12419">
        <ele>392.49</ele>
        <time>2022-10-10T14:55:43Z</time>
      </trkpt>
      <trkpt lat="47.12757" lon="6.12421">
        <ele>392.467</ele>
        <time>2022-10-10T14:55:44Z</time>
      </trkpt>
      <trkpt lat="47.12752" lon="6.12425">
        <ele>392.881</ele>
        <time>2022-10-10T14:55:45Z</time>
      </trkpt>
      <trkpt lat="47.12747" lon="6.12427">
        <ele>392.819</ele>
        <time>2022-10-10T14:55:46Z</time>
      </trkpt>
      <trkpt lat="47.12743" lon="6.12429">
        <ele>393.009</ele>
        <time>2022-10-10T14:55:47Z</time>
      </trkpt>
      <trkpt lat="47.12741" lon="6.1243">
        <ele>393.037</ele>
        <time>2022-10-10T14:55:48Z</time>
      </trkpt>
      <trkpt lat="47.1274" lon="6.12431">
        <ele>393.237</ele>
        <time>2022-10-10T14:55:49Z</time>
      </trkpt>
      <trkpt lat="47.12739" lon="6.12431">
        <ele>393.471</ele>
        <time>2022-10-10T14:55:50Z</time>
      </trkpt>
      <trkpt lat="47.12739" lon="6.12431">
        <ele>393.625</ele>
        <time>2022-10-10T14:55:51Z</time>
      </trkpt>
      <trkpt lat="47.12739" lon="6.12431">
        <ele>393.618</ele>
        <time>2022-10-10T14:55:52Z</time>
      </trkpt>
      <trkpt lat="47.12739" lon="6.12431">
        <ele>393.484</ele>
        <time>2022-10-10T14:55:53Z</time>
      </trkpt>
      <trkpt lat="47.12739" lon="6.12431">
        <ele>393.69</ele>
        <time>2022-10-10T14:55:54Z</time>
      </trkpt>
      <trkpt lat="47.12739" lon="6.12431">
        <ele>393.46</ele>
        <time>2022-10-10T14:56:02Z</time>
      </trkpt>
      <trkpt lat="47.12739" lon="6.1243">
        <ele>392.874</ele>
        <time>2022-10-10T14:56:05Z</time>
      </trkpt>
      <trkpt lat="47.12734" lon="6.12422">
        <ele>392.814</ele>
        <time>2022-10-10T14:56:07Z</time>
      </trkpt>
      <trkpt lat="47.12732" lon="6.12417">
        <ele>392.654</ele>
        <time>2022-10-10T14:56:08Z</time>
      </trkpt>
      <trkpt lat="47.12728" lon="6.12412">
        <ele>391.809</ele>
        <time>2022-10-10T14:56:09Z</time>
      </trkpt>
      <trkpt lat="47.12723" lon="6.12409">
        <ele>391.609</ele>
        <time>2022-10-10T14:56:10Z</time>
      </trkpt>
      <trkpt lat="47.12717" lon="6.12406">
        <ele>391.452</ele>
        <time>2022-10-10T14:56:11Z</time>
      </trkpt>
      <trkpt lat="47.12712" lon="6.12404">
        <ele>391.232</ele>
        <time>2022-10-10T14:56:12Z</time>
      </trkpt>
      <trkpt lat="47.12704" lon="6.12402">
        <ele>390.676</ele>
        <time>2022-10-10T14:56:13Z</time>
      </trkpt>
      <trkpt lat="47.12697" lon="6.124">
        <ele>390.68</ele>
        <time>2022-10-10T14:56:14Z</time>
      </trkpt>
      <trkpt lat="47.12676" lon="6.12395">
        <ele>389.463</ele>
        <time>2022-10-10T14:56:17Z</time>
      </trkpt>
      <trkpt lat="47.12654" lon="6.12388">
        <ele>389.259</ele>
        <time>2022-10-10T14:56:20Z</time>
      </trkpt>
      <trkpt lat="47.12647" lon="6.12386">
        <ele>388.845</ele>
        <time>2022-10-10T14:56:21Z</time>
      </trkpt>
      <trkpt lat="47.12632" lon="6.1238">
        <ele>388.415</ele>
        <time>2022-10-10T14:56:23Z</time>
      </trkpt>
      <trkpt lat="47.12602" lon="6.12369">
        <ele>387.429</ele>
        <time>2022-10-10T14:56:27Z</time>
      </trkpt>
      <trkpt lat="47.12596" lon="6.12365">
        <ele>387.475</ele>
        <time>2022-10-10T14:56:28Z</time>
      </trkpt>
      <trkpt lat="47.12589" lon="6.12361">
        <ele>386.828</ele>
        <time>2022-10-10T14:56:29Z</time>
      </trkpt>
      <trkpt lat="47.12543" lon="6.12333">
        <ele>385.22</ele>
        <time>2022-10-10T14:56:35Z</time>
      </trkpt>
      <trkpt lat="47.12536" lon="6.12328">
        <ele>385.009</ele>
        <time>2022-10-10T14:56:36Z</time>
      </trkpt>
      <trkpt lat="47.12529" lon="6.12323">
        <ele>384.678</ele>
        <time>2022-10-10T14:56:37Z</time>
      </trkpt>
      <trkpt lat="47.12515" lon="6.12313">
        <ele>384.228</ele>
        <time>2022-10-10T14:56:39Z</time>
      </trkpt>
      <trkpt lat="47.12507" lon="6.12308">
        <ele>384.022</ele>
        <time>2022-10-10T14:56:40Z</time>
      </trkpt>
      <trkpt lat="47.12486" lon="6.1229">
        <ele>383.436</ele>
        <time>2022-10-10T14:56:43Z</time>
      </trkpt>
      <trkpt lat="47.12481" lon="6.12285">
        <ele>383.079</ele>
        <time>2022-10-10T14:56:44Z</time>
      </trkpt>
      <trkpt lat="47.12449" lon="6.1225">
        <ele>382.015</ele>
        <time>2022-10-10T14:56:49Z</time>
      </trkpt>
      <trkpt lat="47.12441" lon="6.12241">
        <ele>381.881</ele>
        <time>2022-10-10T14:56:50Z</time>
      </trkpt>
      <trkpt lat="47.12409" lon="6.12207">
        <ele>380.451</ele>
        <time>2022-10-10T14:56:55Z</time>
      </trkpt>
      <trkpt lat="47.12395" lon="6.12193">
        <ele>379.895</ele>
        <time>2022-10-10T14:56:57Z</time>
      </trkpt>
      <trkpt lat="47.12358" lon="6.12166">
        <ele>379.427</ele>
        <time>2022-10-10T14:57:02Z</time>
      </trkpt>
      <trkpt lat="47.1235" lon="6.12162">
        <ele>379.068</ele>
        <time>2022-10-10T14:57:03Z</time>
      </trkpt>
      <trkpt lat="47.12335" lon="6.12155">
        <ele>378.414</ele>
        <time>2022-10-10T14:57:05Z</time>
      </trkpt>
      <trkpt lat="47.12311" lon="6.12148">
        <ele>378.009</ele>
        <time>2022-10-10T14:57:08Z</time>
      </trkpt>
      <trkpt lat="47.12303" lon="6.12145">
        <ele>378.073</ele>
        <time>2022-10-10T14:57:09Z</time>
      </trkpt>
      <trkpt lat="47.12262" lon="6.12139">
        <ele>376.833</ele>
        <time>2022-10-10T14:57:14Z</time>
      </trkpt>
      <trkpt lat="47.12245" lon="6.12136">
        <ele>376.437</ele>
        <time>2022-10-10T14:57:16Z</time>
      </trkpt>
      <trkpt lat="47.12238" lon="6.12136">
        <ele>375.851</ele>
        <time>2022-10-10T14:57:17Z</time>
      </trkpt>
      <trkpt lat="47.1223" lon="6.12135">
        <ele>375.874</ele>
        <time>2022-10-10T14:57:18Z</time>
      </trkpt>
      <trkpt lat="47.12194" lon="6.1213">
        <ele>374.45</ele>
        <time>2022-10-10T14:57:22Z</time>
      </trkpt>
      <trkpt lat="47.12176" lon="6.12127">
        <ele>373.626</ele>
        <time>2022-10-10T14:57:24Z</time>
      </trkpt>
      <trkpt lat="47.1216" lon="6.12121">
        <ele>373.426</ele>
        <time>2022-10-10T14:57:26Z</time>
      </trkpt>
      <trkpt lat="47.12151" lon="6.12117">
        <ele>373.47</ele>
        <time>2022-10-10T14:57:27Z</time>
      </trkpt>
      <trkpt lat="47.12135" lon="6.12109">
        <ele>373.477</ele>
        <time>2022-10-10T14:57:29Z</time>
      </trkpt>
      <trkpt lat="47.12127" lon="6.12105">
        <ele>373.261</ele>
        <time>2022-10-10T14:57:30Z</time>
      </trkpt>
      <trkpt lat="47.12097" lon="6.12083">
        <ele>372.027</ele>
        <time>2022-10-10T14:57:34Z</time>
      </trkpt>
      <trkpt lat="47.12082" lon="6.12071">
        <ele>372.009</ele>
        <time>2022-10-10T14:57:36Z</time>
      </trkpt>
      <trkpt lat="47.12067" lon="6.12057">
        <ele>371.068</ele>
        <time>2022-10-10T14:57:38Z</time>
      </trkpt>
      <trkpt lat="47.12048" lon="6.12033">
        <ele>370.668</ele>
        <time>2022-10-10T14:57:41Z</time>
      </trkpt>
      <trkpt lat="47.1203" lon="6.12004">
        <ele>369.872</ele>
        <time>2022-10-10T14:57:44Z</time>
      </trkpt>
      <trkpt lat="47.12012" lon="6.11976">
        <ele>368.486</ele>
        <time>2022-10-10T14:57:47Z</time>
      </trkpt>
      <trkpt lat="47.12" lon="6.11958">
        <ele>368.079</ele>
        <time>2022-10-10T14:57:49Z</time>
      </trkpt>
      <trkpt lat="47.11989" lon="6.11941">
        <ele>367.255</ele>
        <time>2022-10-10T14:57:51Z</time>
      </trkpt>
      <trkpt lat="47.11969" lon="6.11912">
        <ele>366.051</ele>
        <time>2022-10-10T14:57:54Z</time>
      </trkpt>
      <trkpt lat="47.11956" lon="6.11898">
        <ele>366.031</ele>
        <time>2022-10-10T14:57:56Z</time>
      </trkpt>
      <trkpt lat="47.1194" lon="6.11882">
        <ele>365.675</ele>
        <time>2022-10-10T14:57:58Z</time>
      </trkpt>
      <trkpt lat="47.11935" lon="6.11877">
        <ele>365.432</ele>
        <time>2022-10-10T14:57:59Z</time>
      </trkpt>
      <trkpt lat="47.11927" lon="6.11871">
        <ele>365.492</ele>
        <time>2022-10-10T14:58:00Z</time>
      </trkpt>
      <trkpt lat="47.11913" lon="6.1186">
        <ele>365.211</ele>
        <time>2022-10-10T14:58:02Z</time>
      </trkpt>
      <trkpt lat="47.11888" lon="6.11844">
        <ele>364.809</ele>
        <time>2022-10-10T14:58:05Z</time>
      </trkpt>
      <trkpt lat="47.11858" lon="6.11829">
        <ele>363.834</ele>
        <time>2022-10-10T14:58:09Z</time>
      </trkpt>
      <trkpt lat="47.1185" lon="6.11825">
        <ele>363.874</ele>
        <time>2022-10-10T14:58:10Z</time>
      </trkpt>
      <trkpt lat="47.11809" lon="6.11806">
        <ele>362.218</ele>
        <time>2022-10-10T14:58:15Z</time>
      </trkpt>
      <trkpt lat="47.11784" lon="6.11792">
        <ele>361.692</ele>
        <time>2022-10-10T14:58:18Z</time>
      </trkpt>
      <trkpt lat="47.11767" lon="6.11782">
        <ele>360.645</ele>
        <time>2022-10-10T14:58:20Z</time>
      </trkpt>
      <trkpt lat="47.11736" lon="6.1176">
        <ele>359.851</ele>
        <time>2022-10-10T14:58:24Z</time>
      </trkpt>
      <trkpt lat="47.11731" lon="6.11754">
        <ele>359.467</ele>
        <time>2022-10-10T14:58:25Z</time>
      </trkpt>
      <trkpt lat="47.11701" lon="6.11726">
        <ele>358.217</ele>
        <time>2022-10-10T14:58:29Z</time>
      </trkpt>
      <trkpt lat="47.11685" lon="6.11711">
        <ele>358.071</ele>
        <time>2022-10-10T14:58:31Z</time>
      </trkpt>
      <trkpt lat="47.11671" lon="6.11698">
        <ele>357.659</ele>
        <time>2022-10-10T14:58:33Z</time>
      </trkpt>
      <trkpt lat="47.11657" lon="6.11686">
        <ele>357.203</ele>
        <time>2022-10-10T14:58:35Z</time>
      </trkpt>
      <trkpt lat="47.11648" lon="6.11678">
        <ele>357.223</ele>
        <time>2022-10-10T14:58:36Z</time>
      </trkpt>
      <trkpt lat="47.11619" lon="6.11652">
        <ele>356.209</ele>
        <time>2022-10-10T14:58:40Z</time>
      </trkpt>
      <trkpt lat="47.11582" lon="6.11617">
        <ele>355.286</ele>
        <time>2022-10-10T14:58:45Z</time>
      </trkpt>
      <trkpt lat="47.11545" lon="6.1159">
        <ele>354.046</ele>
        <time>2022-10-10T14:58:50Z</time>
      </trkpt>
      <trkpt lat="47.11528" lon="6.1158">
        <ele>353.63</ele>
        <time>2022-10-10T14:58:52Z</time>
      </trkpt>
      <trkpt lat="47.11496" lon="6.11567">
        <ele>353.024</ele>
        <time>2022-10-10T14:58:56Z</time>
      </trkpt>
      <trkpt lat="47.11486" lon="6.11564">
        <ele>352.887</ele>
        <time>2022-10-10T14:58:57Z</time>
      </trkpt>
      <trkpt lat="47.1148" lon="6.11563">
        <ele>352.853</ele>
        <time>2022-10-10T14:58:58Z</time>
      </trkpt>
      <trkpt lat="47.11446" lon="6.11557">
        <ele>351.669</ele>
        <time>2022-10-10T14:59:02Z</time>
      </trkpt>
      <trkpt lat="47.11436" lon="6.11557">
        <ele>351.619</ele>
        <time>2022-10-10T14:59:03Z</time>
      </trkpt>
      <trkpt lat="47.11428" lon="6.11558">
        <ele>351.633</ele>
        <time>2022-10-10T14:59:04Z</time>
      </trkpt>
      <trkpt lat="47.1142" lon="6.11559">
        <ele>351.656</ele>
        <time>2022-10-10T14:59:05Z</time>
      </trkpt>
      <trkpt lat="47.11404" lon="6.11561">
        <ele>351.859</ele>
        <time>2022-10-10T14:59:07Z</time>
      </trkpt>
      <trkpt lat="47.11396" lon="6.11562">
        <ele>351.814</ele>
        <time>2022-10-10T14:59:08Z</time>
      </trkpt>
      <trkpt lat="47.1139" lon="6.11564">
        <ele>351.809</ele>
        <time>2022-10-10T14:59:09Z</time>
      </trkpt>
      <trkpt lat="47.11381" lon="6.11567">
        <ele>351.836</ele>
        <time>2022-10-10T14:59:10Z</time>
      </trkpt>
      <trkpt lat="47.11375" lon="6.11569">
        <ele>351.666</ele>
        <time>2022-10-10T14:59:11Z</time>
      </trkpt>
      <trkpt lat="47.11367" lon="6.11572">
        <ele>351.63</ele>
        <time>2022-10-10T14:59:12Z</time>
      </trkpt>
      <trkpt lat="47.11359" lon="6.11575">
        <ele>351.634</ele>
        <time>2022-10-10T14:59:13Z</time>
      </trkpt>
      <trkpt lat="47.11352" lon="6.11579">
        <ele>351.677</ele>
        <time>2022-10-10T14:59:14Z</time>
      </trkpt>
      <trkpt lat="47.11346" lon="6.11582">
        <ele>351.613</ele>
        <time>2022-10-10T14:59:15Z</time>
      </trkpt>
      <trkpt lat="47.1134" lon="6.11585">
        <ele>351.659</ele>
        <time>2022-10-10T14:59:16Z</time>
      </trkpt>
      <trkpt lat="47.11333" lon="6.11589">
        <ele>351.429</ele>
        <time>2022-10-10T14:59:17Z</time>
      </trkpt>
      <trkpt lat="47.11325" lon="6.11594">
        <ele>351.413</ele>
        <time>2022-10-10T14:59:18Z</time>
      </trkpt>
      <trkpt lat="47.11313" lon="6.11602">
        <ele>351.291</ele>
        <time>2022-10-10T14:59:20Z</time>
      </trkpt>
      <trkpt lat="47.11307" lon="6.11606">
        <ele>351.281</ele>
        <time>2022-10-10T14:59:21Z</time>
      </trkpt>
      <trkpt lat="47.11283" lon="6.11628">
        <ele>351.019</ele>
        <time>2022-10-10T14:59:25Z</time>
      </trkpt>
      <trkpt lat="47.11272" lon="6.1164">
        <ele>350.409</ele>
        <time>2022-10-10T14:59:27Z</time>
      </trkpt>
      <trkpt lat="47.11256" lon="6.1166">
        <ele>350.02</ele>
        <time>2022-10-10T14:59:30Z</time>
      </trkpt>
      <trkpt lat="47.11251" lon="6.11667">
        <ele>350.07</ele>
        <time>2022-10-10T14:59:31Z</time>
      </trkpt>
      <trkpt lat="47.11246" lon="6.11674">
        <ele>350.084</ele>
        <time>2022-10-10T14:59:32Z</time>
      </trkpt>
      <trkpt lat="47.1124" lon="6.11683">
        <ele>350.068</ele>
        <time>2022-10-10T14:59:33Z</time>
      </trkpt>
      <trkpt lat="47.11233" lon="6.11696">
        <ele>350.021</ele>
        <time>2022-10-10T14:59:35Z</time>
      </trkpt>
      <trkpt lat="47.11229" lon="6.11704">
        <ele>350.047</ele>
        <time>2022-10-10T14:59:36Z</time>
      </trkpt>
      <trkpt lat="47.11225" lon="6.11711">
        <ele>350.243</ele>
        <time>2022-10-10T14:59:37Z</time>
      </trkpt>
      <trkpt lat="47.11221" lon="6.11719">
        <ele>350.223</ele>
        <time>2022-10-10T14:59:38Z</time>
      </trkpt>
      <trkpt lat="47.11217" lon="6.11726">
        <ele>350.267</ele>
        <time>2022-10-10T14:59:39Z</time>
      </trkpt>
      <trkpt lat="47.11214" lon="6.11734">
        <ele>350.643</ele>
        <time>2022-10-10T14:59:40Z</time>
      </trkpt>
      <trkpt lat="47.11211" lon="6.11742">
        <ele>350.664</ele>
        <time>2022-10-10T14:59:41Z</time>
      </trkpt>
      <trkpt lat="47.11208" lon="6.11749">
        <ele>350.61</ele>
        <time>2022-10-10T14:59:42Z</time>
      </trkpt>
      <trkpt lat="47.11204" lon="6.11757">
        <ele>350.809</ele>
        <time>2022-10-10T14:59:43Z</time>
      </trkpt>
      <trkpt lat="47.11202" lon="6.11764">
        <ele>351.015</ele>
        <time>2022-10-10T14:59:44Z</time>
      </trkpt>
      <trkpt lat="47.11199" lon="6.1177">
        <ele>351.055</ele>
        <time>2022-10-10T14:59:45Z</time>
      </trkpt>
      <trkpt lat="47.11198" lon="6.11776">
        <ele>351.489</ele>
        <time>2022-10-10T14:59:46Z</time>
      </trkpt>
      <trkpt lat="47.11197" lon="6.11781">
        <ele>351.893</ele>
        <time>2022-10-10T14:59:47Z</time>
      </trkpt>
      <trkpt lat="47.11195" lon="6.11786">
        <ele>352.816</ele>
        <time>2022-10-10T14:59:48Z</time>
      </trkpt>
      <trkpt lat="47.11192" lon="6.11794">
        <ele>353.222</ele>
        <time>2022-10-10T14:59:50Z</time>
      </trkpt>
      <trkpt lat="47.1119" lon="6.11799">
        <ele>353.288</ele>
        <time>2022-10-10T14:59:51Z</time>
      </trkpt>
      <trkpt lat="47.11185" lon="6.11822">
        <ele>351.888</ele>
        <time>2022-10-10T14:59:54Z</time>
      </trkpt>
      <trkpt lat="47.11183" lon="6.11831">
        <ele>351.472</ele>
        <time>2022-10-10T14:59:55Z</time>
      </trkpt>
      <trkpt lat="47.11181" lon="6.11841">
        <ele>350.265</ele>
        <time>2022-10-10T14:59:56Z</time>
      </trkpt>
      <trkpt lat="47.11175" lon="6.11882">
        <ele>349.868</ele>
        <time>2022-10-10T15:00:00Z</time>
      </trkpt>
      <trkpt lat="47.11171" lon="6.11902">
        <ele>349.614</ele>
        <time>2022-10-10T15:00:02Z</time>
      </trkpt>
      <trkpt lat="47.11169" lon="6.11912">
        <ele>349.809</ele>
        <time>2022-10-10T15:00:03Z</time>
      </trkpt>
      <trkpt lat="47.11166" lon="6.11922">
        <ele>349.617</ele>
        <time>2022-10-10T15:00:04Z</time>
      </trkpt>
      <trkpt lat="47.11161" lon="6.1194">
        <ele>349.657</ele>
        <time>2022-10-10T15:00:06Z</time>
      </trkpt>
      <trkpt lat="47.1115" lon="6.11988">
        <ele>349.671</ele>
        <time>2022-10-10T15:00:11Z</time>
      </trkpt>
      <trkpt lat="47.11148" lon="6.11997">
        <ele>349.615</ele>
        <time>2022-10-10T15:00:12Z</time>
      </trkpt>
      <trkpt lat="47.11146" lon="6.12006">
        <ele>349.668</ele>
        <time>2022-10-10T15:00:13Z</time>
      </trkpt>
      <trkpt lat="47.11143" lon="6.12017">
        <ele>349.624</ele>
        <time>2022-10-10T15:00:14Z</time>
      </trkpt>
      <trkpt lat="47.1114" lon="6.12036">
        <ele>349.67</ele>
        <time>2022-10-10T15:00:16Z</time>
      </trkpt>
      <trkpt lat="47.11132" lon="6.12071">
        <ele>349.84</ele>
        <time>2022-10-10T15:00:20Z</time>
      </trkpt>
      <trkpt lat="47.11125" lon="6.12107">
        <ele>350.254</ele>
        <time>2022-10-10T15:00:24Z</time>
      </trkpt>
      <trkpt lat="47.11123" lon="6.12116">
        <ele>350.258</ele>
        <time>2022-10-10T15:00:25Z</time>
      </trkpt>
      <trkpt lat="47.11121" lon="6.12125">
        <ele>350.252</ele>
        <time>2022-10-10T15:00:26Z</time>
      </trkpt>
      <trkpt lat="47.11118" lon="6.12143">
        <ele>350.217</ele>
        <time>2022-10-10T15:00:28Z</time>
      </trkpt>
      <trkpt lat="47.11112" lon="6.1217">
        <ele>350.209</ele>
        <time>2022-10-10T15:00:31Z</time>
      </trkpt>
      <trkpt lat="47.11107" lon="6.12197">
        <ele>350.446</ele>
        <time>2022-10-10T15:00:34Z</time>
      </trkpt>
      <trkpt lat="47.11099" lon="6.12234">
        <ele>350.646</ele>
        <time>2022-10-10T15:00:38Z</time>
      </trkpt>
      <trkpt lat="47.11096" lon="6.12242">
        <ele>350.64</ele>
        <time>2022-10-10T15:00:39Z</time>
      </trkpt>
      <trkpt lat="47.11094" lon="6.12251">
        <ele>350.664</ele>
        <time>2022-10-10T15:00:40Z</time>
      </trkpt>
      <trkpt lat="47.11092" lon="6.1226">
        <ele>350.657</ele>
        <time>2022-10-10T15:00:41Z</time>
      </trkpt>
      <trkpt lat="47.11083" lon="6.12285">
        <ele>350.663</ele>
        <time>2022-10-10T15:00:44Z</time>
      </trkpt>
      <trkpt lat="47.11074" lon="6.12309">
        <ele>350.459</ele>
        <time>2022-10-10T15:00:47Z</time>
      </trkpt>
      <trkpt lat="47.1107" lon="6.12317">
        <ele>350.419</ele>
        <time>2022-10-10T15:00:48Z</time>
      </trkpt>
      <trkpt lat="47.11045" lon="6.12371">
        <ele>350.443</ele>
        <time>2022-10-10T15:00:55Z</time>
      </trkpt>
      <trkpt lat="47.11038" lon="6.12387">
        <ele>350.427</ele>
        <time>2022-10-10T15:00:57Z</time>
      </trkpt>
      <trkpt lat="47.11034" lon="6.12394">
        <ele>350.468</ele>
        <time>2022-10-10T15:00:58Z</time>
      </trkpt>
      <trkpt lat="47.11024" lon="6.1242">
        <ele>350.614</ele>
        <time>2022-10-10T15:01:01Z</time>
      </trkpt>
      <trkpt lat="47.11021" lon="6.12426">
        <ele>350.809</ele>
        <time>2022-10-10T15:01:02Z</time>
      </trkpt>
      <trkpt lat="47.11017" lon="6.12433">
        <ele>350.893</ele>
        <time>2022-10-10T15:01:03Z</time>
      </trkpt>
      <trkpt lat="47.11014" lon="6.1244">
        <ele>350.863</ele>
        <time>2022-10-10T15:01:04Z</time>
      </trkpt>
      <trkpt lat="47.11011" lon="6.12448">
        <ele>350.887</ele>
        <time>2022-10-10T15:01:05Z</time>
      </trkpt>
      <trkpt lat="47.11009" lon="6.12455">
        <ele>351.081</ele>
        <time>2022-10-10T15:01:06Z</time>
      </trkpt>
      <trkpt lat="47.11006" lon="6.12461">
        <ele>351.024</ele>
        <time>2022-10-10T15:01:07Z</time>
      </trkpt>
      <trkpt lat="47.11003" lon="6.12467">
        <ele>351.04</ele>
        <time>2022-10-10T15:01:08Z</time>
      </trkpt>
      <trkpt lat="47.11" lon="6.12472">
        <ele>351.026</ele>
        <time>2022-10-10T15:01:09Z</time>
      </trkpt>
      <trkpt lat="47.10983" lon="6.12498">
        <ele>349.646</ele>
        <time>2022-10-10T15:01:13Z</time>
      </trkpt>
      <trkpt lat="47.10974" lon="6.12512">
        <ele>349.49</ele>
        <time>2022-10-10T15:01:15Z</time>
      </trkpt>
      <trkpt lat="47.10965" lon="6.12525">
        <ele>349.256</ele>
        <time>2022-10-10T15:01:17Z</time>
      </trkpt>
      <trkpt lat="47.1096" lon="6.12531">
        <ele>349.459</ele>
        <time>2022-10-10T15:01:18Z</time>
      </trkpt>
      <trkpt lat="47.10955" lon="6.12537">
        <ele>349.414</ele>
        <time>2022-10-10T15:01:19Z</time>
      </trkpt>
      <trkpt lat="47.10951" lon="6.12543">
        <ele>349.409</ele>
        <time>2022-10-10T15:01:20Z</time>
      </trkpt>
      <trkpt lat="47.10942" lon="6.12555">
        <ele>350.046</ele>
        <time>2022-10-10T15:01:22Z</time>
      </trkpt>
      <trkpt lat="47.10938" lon="6.12561">
        <ele>350.296</ele>
        <time>2022-10-10T15:01:23Z</time>
      </trkpt>
      <trkpt lat="47.10934" lon="6.12563">
        <ele>350.46</ele>
        <time>2022-10-10T15:01:24Z</time>
      </trkpt>
      <trkpt lat="47.1093" lon="6.12563">
        <ele>350.854</ele>
        <time>2022-10-10T15:01:25Z</time>
      </trkpt>
      <trkpt lat="47.10926" lon="6.12564">
        <ele>351.077</ele>
        <time>2022-10-10T15:01:26Z</time>
      </trkpt>
      <trkpt lat="47.10924" lon="6.12567">
        <ele>351.293</ele>
        <time>2022-10-10T15:01:27Z</time>
      </trkpt>
      <trkpt lat="47.10922" lon="6.12573">
        <ele>351.289</ele>
        <time>2022-10-10T15:01:28Z</time>
      </trkpt>
      <trkpt lat="47.10922" lon="6.1258">
        <ele>351.499</ele>
        <time>2022-10-10T15:01:29Z</time>
      </trkpt>
      <trkpt lat="47.10921" lon="6.12587">
        <ele>351.433</ele>
        <time>2022-10-10T15:01:30Z</time>
      </trkpt>
      <trkpt lat="47.10918" lon="6.12594">
        <ele>351.446</ele>
        <time>2022-10-10T15:01:31Z</time>
      </trkpt>
      <trkpt lat="47.10915" lon="6.12601">
        <ele>351.888</ele>
        <time>2022-10-10T15:01:32Z</time>
      </trkpt>
      <trkpt lat="47.10912" lon="6.12606">
        <ele>352.016</ele>
        <time>2022-10-10T15:01:33Z</time>
      </trkpt>
      <trkpt lat="47.10908" lon="6.1261">
        <ele>352.409</ele>
        <time>2022-10-10T15:01:34Z</time>
      </trkpt>
      <trkpt lat="47.10905" lon="6.12615">
        <ele>352.485</ele>
        <time>2022-10-10T15:01:35Z</time>
      </trkpt>
      <trkpt lat="47.10902" lon="6.1262">
        <ele>352.645</ele>
        <time>2022-10-10T15:01:36Z</time>
      </trkpt>
      <trkpt lat="47.10899" lon="6.12624">
        <ele>352.899</ele>
        <time>2022-10-10T15:01:37Z</time>
      </trkpt>
      <trkpt lat="47.10896" lon="6.12629">
        <ele>353.213</ele>
        <time>2022-10-10T15:01:38Z</time>
      </trkpt>
      <trkpt lat="47.10893" lon="6.12633">
        <ele>353.276</ele>
        <time>2022-10-10T15:01:39Z</time>
      </trkpt>
      <trkpt lat="47.1089" lon="6.12637">
        <ele>353.282</ele>
        <time>2022-10-10T15:01:40Z</time>
      </trkpt>
      <trkpt lat="47.10887" lon="6.12641">
        <ele>353.278</ele>
        <time>2022-10-10T15:01:41Z</time>
      </trkpt>
      <trkpt lat="47.10885" lon="6.12645">
        <ele>353.478</ele>
        <time>2022-10-10T15:01:42Z</time>
      </trkpt>
      <trkpt lat="47.10882" lon="6.12648">
        <ele>353.832</ele>
        <time>2022-10-10T15:01:43Z</time>
      </trkpt>
      <trkpt lat="47.1088" lon="6.12651">
        <ele>354.252</ele>
        <time>2022-10-10T15:01:44Z</time>
      </trkpt>
      <trkpt lat="47.10877" lon="6.12653">
        <ele>354.453</ele>
        <time>2022-10-10T15:01:45Z</time>
      </trkpt>
      <trkpt lat="47.10876" lon="6.12655">
        <ele>354.408</ele>
        <time>2022-10-10T15:01:46Z</time>
      </trkpt>
      <trkpt lat="47.10875" lon="6.12656">
        <ele>354.409</ele>
        <time>2022-10-10T15:01:47Z</time>
      </trkpt>
      <trkpt lat="47.10874" lon="6.12657">
        <ele>354.476</ele>
        <time>2022-10-10T15:01:48Z</time>
      </trkpt>
      <trkpt lat="47.10874" lon="6.12657">
        <ele>354.676</ele>
        <time>2022-10-10T15:01:49Z</time>
      </trkpt>
      <trkpt lat="47.10874" lon="6.12657">
        <ele>354.69</ele>
        <time>2022-10-10T15:01:50Z</time>
      </trkpt>
      <trkpt lat="47.10874" lon="6.12657">
        <ele>354.684</ele>
        <time>2022-10-10T15:01:51Z</time>
      </trkpt>
      <trkpt lat="47.10873" lon="6.12659">
        <ele>354.417</ele>
        <time>2022-10-10T15:01:52Z</time>
      </trkpt>
      <trkpt lat="47.10871" lon="6.12662">
        <ele>354.493</ele>
        <time>2022-10-10T15:01:53Z</time>
      </trkpt>
      <trkpt lat="47.10868" lon="6.12666">
        <ele>353.899</ele>
        <time>2022-10-10T15:01:54Z</time>
      </trkpt>
      <trkpt lat="47.10864" lon="6.1267">
        <ele>353.859</ele>
        <time>2022-10-10T15:01:55Z</time>
      </trkpt>
      <trkpt lat="47.1086" lon="6.12675">
        <ele>353.883</ele>
        <time>2022-10-10T15:01:56Z</time>
      </trkpt>
      <trkpt lat="47.10856" lon="6.12679">
        <ele>353.872</ele>
        <time>2022-10-10T15:01:57Z</time>
      </trkpt>
      <trkpt lat="47.10852" lon="6.12684">
        <ele>353.813</ele>
        <time>2022-10-10T15:01:58Z</time>
      </trkpt>
      <trkpt lat="47.10848" lon="6.12688">
        <ele>354.414</ele>
        <time>2022-10-10T15:01:59Z</time>
      </trkpt>
      <trkpt lat="47.10844" lon="6.12693">
        <ele>354.809</ele>
        <time>2022-10-10T15:02:00Z</time>
      </trkpt>
      <trkpt lat="47.1084" lon="6.12697">
        <ele>354.888</ele>
        <time>2022-10-10T15:02:01Z</time>
      </trkpt>
      <trkpt lat="47.10837" lon="6.12701">
        <ele>355.438</ele>
        <time>2022-10-10T15:02:02Z</time>
      </trkpt>
      <trkpt lat="47.10835" lon="6.12704">
        <ele>355.422</ele>
        <time>2022-10-10T15:02:03Z</time>
      </trkpt>
      <trkpt lat="47.10833" lon="6.12707">
        <ele>355.426</ele>
        <time>2022-10-10T15:02:04Z</time>
      </trkpt>
      <trkpt lat="47.10826" lon="6.12715">
        <ele>355.689</ele>
        <time>2022-10-10T15:02:06Z</time>
      </trkpt>
      <trkpt lat="47.10818" lon="6.12725">
        <ele>355.825</ele>
        <time>2022-10-10T15:02:08Z</time>
      </trkpt>
      <trkpt lat="47.10793" lon="6.12749">
        <ele>355.681</ele>
        <time>2022-10-10T15:02:13Z</time>
      </trkpt>
      <trkpt lat="47.10788" lon="6.12754">
        <ele>355.851</ele>
        <time>2022-10-10T15:02:14Z</time>
      </trkpt>
      <trkpt lat="47.10779" lon="6.12765">
        <ele>356.265</ele>
        <time>2022-10-10T15:02:16Z</time>
      </trkpt>
      <trkpt lat="47.10769" lon="6.12776">
        <ele>357.286</ele>
        <time>2022-10-10T15:02:18Z</time>
      </trkpt>
      <trkpt lat="47.10764" lon="6.12782">
        <ele>357.66</ele>
        <time>2022-10-10T15:02:19Z</time>
      </trkpt>
      <trkpt lat="47.10755" lon="6.12793">
        <ele>357.626</ele>
        <time>2022-10-10T15:02:21Z</time>
      </trkpt>
      <trkpt lat="47.1075" lon="6.12798">
        <ele>357.809</ele>
        <time>2022-10-10T15:02:22Z</time>
      </trkpt>
      <trkpt lat="47.10744" lon="6.12805">
        <ele>358.029</ele>
        <time>2022-10-10T15:02:23Z</time>
      </trkpt>
      <trkpt lat="47.1074" lon="6.1281">
        <ele>358.239</ele>
        <time>2022-10-10T15:02:24Z</time>
      </trkpt>
      <trkpt lat="47.10736" lon="6.12815">
        <ele>358.643</ele>
        <time>2022-10-10T15:02:25Z</time>
      </trkpt>
      <trkpt lat="47.10732" lon="6.1282">
        <ele>358.887</ele>
        <time>2022-10-10T15:02:26Z</time>
      </trkpt>
      <trkpt lat="47.10727" lon="6.12825">
        <ele>358.87</ele>
        <time>2022-10-10T15:02:27Z</time>
      </trkpt>
      <trkpt lat="47.10722" lon="6.12831">
        <ele>358.876</ele>
        <time>2022-10-10T15:02:28Z</time>
      </trkpt>
      <trkpt lat="47.10716" lon="6.12838">
        <ele>358.822</ele>
        <time>2022-10-10T15:02:29Z</time>
      </trkpt>
      <trkpt lat="47.10711" lon="6.12844">
        <ele>358.832</ele>
        <time>2022-10-10T15:02:30Z</time>
      </trkpt>
      <trkpt lat="47.10706" lon="6.1285">
        <ele>358.836</ele>
        <time>2022-10-10T15:02:31Z</time>
      </trkpt>
      <trkpt lat="47.10702" lon="6.12854">
        <ele>358.859</ele>
        <time>2022-10-10T15:02:32Z</time>
      </trkpt>
      <trkpt lat="47.10697" lon="6.12861">
        <ele>359.203</ele>
        <time>2022-10-10T15:02:33Z</time>
      </trkpt>
      <trkpt lat="47.10692" lon="6.12867">
        <ele>359.223</ele>
        <time>2022-10-10T15:02:34Z</time>
      </trkpt>
      <trkpt lat="47.10687" lon="6.12873">
        <ele>359.409</ele>
        <time>2022-10-10T15:02:35Z</time>
      </trkpt>
      <trkpt lat="47.10682" lon="6.12879">
        <ele>359.466</ele>
        <time>2022-10-10T15:02:36Z</time>
      </trkpt>
      <trkpt lat="47.10677" lon="6.12885">
        <ele>359.656</ele>
        <time>2022-10-10T15:02:37Z</time>
      </trkpt>
      <trkpt lat="47.10672" lon="6.12891">
        <ele>359.87</ele>
        <time>2022-10-10T15:02:38Z</time>
      </trkpt>
      <trkpt lat="47.10667" lon="6.12897">
        <ele>359.874</ele>
        <time>2022-10-10T15:02:39Z</time>
      </trkpt>
      <trkpt lat="47.10662" lon="6.12903">
        <ele>359.857</ele>
        <time>2022-10-10T15:02:40Z</time>
      </trkpt>
      <trkpt lat="47.10657" lon="6.12909">
        <ele>359.833</ele>
        <time>2022-10-10T15:02:41Z</time>
      </trkpt>
      <trkpt lat="47.10652" lon="6.12915">
        <ele>360.089</ele>
        <time>2022-10-10T15:02:42Z</time>
      </trkpt>
      <trkpt lat="47.10647" lon="6.12921">
        <ele>360.089</ele>
        <time>2022-10-10T15:02:43Z</time>
      </trkpt>
      <trkpt lat="47.10642" lon="6.12927">
        <ele>360.053</ele>
        <time>2022-10-10T15:02:44Z</time>
      </trkpt>
      <trkpt lat="47.10637" lon="6.12933">
        <ele>360.434</ele>
        <time>2022-10-10T15:02:45Z</time>
      </trkpt>
      <trkpt lat="47.10632" lon="6.12939">
        <ele>360.455</ele>
        <time>2022-10-10T15:02:46Z</time>
      </trkpt>
      <trkpt lat="47.10626" lon="6.12945">
        <ele>360.41</ele>
        <time>2022-10-10T15:02:47Z</time>
      </trkpt>
      <trkpt lat="47.10621" lon="6.12951">
        <ele>360.609</ele>
        <time>2022-10-10T15:02:48Z</time>
      </trkpt>
      <trkpt lat="47.10616" lon="6.12957">
        <ele>360.674</ele>
        <time>2022-10-10T15:02:49Z</time>
      </trkpt>
      <trkpt lat="47.10611" lon="6.12963">
        <ele>360.674</ele>
        <time>2022-10-10T15:02:50Z</time>
      </trkpt>
      <trkpt lat="47.10606" lon="6.12969">
        <ele>360.678</ele>
        <time>2022-10-10T15:02:51Z</time>
      </trkpt>
      <trkpt lat="47.10601" lon="6.12975">
        <ele>360.652</ele>
        <time>2022-10-10T15:02:52Z</time>
      </trkpt>
      <trkpt lat="47.10596" lon="6.12981">
        <ele>360.475</ele>
        <time>2022-10-10T15:02:53Z</time>
      </trkpt>
      <trkpt lat="47.10591" lon="6.12987">
        <ele>360.471</ele>
        <time>2022-10-10T15:02:54Z</time>
      </trkpt>
      <trkpt lat="47.10575" lon="6.13005">
        <ele>360.427</ele>
        <time>2022-10-10T15:02:57Z</time>
      </trkpt>
      <trkpt lat="47.10537" lon="6.1305">
        <ele>359.847</ele>
        <time>2022-10-10T15:03:04Z</time>
      </trkpt>
      <trkpt lat="47.10525" lon="6.13063">
        <ele>359.861</ele>
        <time>2022-10-10T15:03:06Z</time>
      </trkpt>
      <trkpt lat="47.1052" lon="6.1307">
        <ele>359.464</ele>
        <time>2022-10-10T15:03:07Z</time>
      </trkpt>
      <trkpt lat="47.10514" lon="6.13077">
        <ele>359.406</ele>
        <time>2022-10-10T15:03:08Z</time>
      </trkpt>
      <trkpt lat="47.10498" lon="6.13101">
        <ele>358.616</ele>
        <time>2022-10-10T15:03:11Z</time>
      </trkpt>
      <trkpt lat="47.10494" lon="6.13111">
        <ele>357.809</ele>
        <time>2022-10-10T15:03:12Z</time>
      </trkpt>
      <trkpt lat="47.1049" lon="6.13121">
        <ele>357.827</ele>
        <time>2022-10-10T15:03:13Z</time>
      </trkpt>
      <trkpt lat="47.10482" lon="6.13155">
        <ele>357.637</ele>
        <time>2022-10-10T15:03:16Z</time>
      </trkpt>
      <trkpt lat="47.1048" lon="6.13204">
        <ele>356.221</ele>
        <time>2022-10-10T15:03:20Z</time>
      </trkpt>
      <trkpt lat="47.10492" lon="6.13253">
        <ele>355.245</ele>
        <time>2022-10-10T15:03:24Z</time>
      </trkpt>
      <trkpt lat="47.10505" lon="6.13288">
        <ele>354.078</ele>
        <time>2022-10-10T15:03:27Z</time>
      </trkpt>
      <trkpt lat="47.10518" lon="6.13325">
        <ele>352.634</ele>
        <time>2022-10-10T15:03:30Z</time>
      </trkpt>
      <trkpt lat="47.10528" lon="6.13349">
        <ele>352.09</ele>
        <time>2022-10-10T15:03:32Z</time>
      </trkpt>
      <trkpt lat="47.10538" lon="6.13372">
        <ele>351.63</ele>
        <time>2022-10-10T15:03:34Z</time>
      </trkpt>
      <trkpt lat="47.1056" lon="6.13417">
        <ele>350.244</ele>
        <time>2022-10-10T15:03:38Z</time>
      </trkpt>
      <trkpt lat="47.10572" lon="6.13444">
        <ele>349.448</ele>
        <time>2022-10-10T15:03:40Z</time>
      </trkpt>
      <trkpt lat="47.10578" lon="6.13456">
        <ele>348.861</ele>
        <time>2022-10-10T15:03:41Z</time>
      </trkpt>
      <trkpt lat="47.10595" lon="6.13491">
        <ele>347.617</ele>
        <time>2022-10-10T15:03:44Z</time>
      </trkpt>
      <trkpt lat="47.10614" lon="6.13534">
        <ele>346.809</ele>
        <time>2022-10-10T15:03:47Z</time>
      </trkpt>
      <trkpt lat="47.10618" lon="6.13548">
        <ele>346.025</ele>
        <time>2022-10-10T15:03:48Z</time>
      </trkpt>
      <trkpt lat="47.10623" lon="6.13566">
        <ele>345.235</ele>
        <time>2022-10-10T15:03:49Z</time>
      </trkpt>
      <trkpt lat="47.10625" lon="6.13578">
        <ele>344.619</ele>
        <time>2022-10-10T15:03:50Z</time>
      </trkpt>
      <trkpt lat="47.10628" lon="6.13593">
        <ele>344.233</ele>
        <time>2022-10-10T15:03:51Z</time>
      </trkpt>
      <trkpt lat="47.10632" lon="6.13607">
        <ele>344.296</ele>
        <time>2022-10-10T15:03:52Z</time>
      </trkpt>
      <trkpt lat="47.10636" lon="6.13621">
        <ele>344.252</ele>
        <time>2022-10-10T15:03:53Z</time>
      </trkpt>
      <trkpt lat="47.10641" lon="6.13634">
        <ele>344.048</ele>
        <time>2022-10-10T15:03:54Z</time>
      </trkpt>
      <trkpt lat="47.10647" lon="6.13646">
        <ele>344.088</ele>
        <time>2022-10-10T15:03:55Z</time>
      </trkpt>
      <trkpt lat="47.10652" lon="6.13658">
        <ele>344.262</ele>
        <time>2022-10-10T15:03:56Z</time>
      </trkpt>
      <trkpt lat="47.10657" lon="6.13669">
        <ele>343.694</ele>
        <time>2022-10-10T15:03:57Z</time>
      </trkpt>
      <trkpt lat="47.10663" lon="6.13684">
        <ele>343.657</ele>
        <time>2022-10-10T15:03:58Z</time>
      </trkpt>
      <trkpt lat="47.10664" lon="6.13694">
        <ele>343.622</ele>
        <time>2022-10-10T15:03:59Z</time>
      </trkpt>
      <trkpt lat="47.10663" lon="6.13708">
        <ele>344.009</ele>
        <time>2022-10-10T15:04:00Z</time>
      </trkpt>
      <trkpt lat="47.10659" lon="6.13719">
        <ele>344.21</ele>
        <time>2022-10-10T15:04:01Z</time>
      </trkpt>
      <trkpt lat="47.10655" lon="6.13729">
        <ele>344.23</ele>
        <time>2022-10-10T15:04:02Z</time>
      </trkpt>
      <trkpt lat="47.10651" lon="6.1375">
        <ele>344.224</ele>
        <time>2022-10-10T15:04:04Z</time>
      </trkpt>
      <trkpt lat="47.10652" lon="6.13765">
        <ele>344.228</ele>
        <time>2022-10-10T15:04:05Z</time>
      </trkpt>
      <trkpt lat="47.10653" lon="6.13778">
        <ele>344.271</ele>
        <time>2022-10-10T15:04:06Z</time>
      </trkpt>
      <trkpt lat="47.10652" lon="6.1379">
        <ele>343.627</ele>
        <time>2022-10-10T15:04:07Z</time>
      </trkpt>
      <trkpt lat="47.10651" lon="6.13801">
        <ele>343.453</ele>
        <time>2022-10-10T15:04:08Z</time>
      </trkpt>
      <trkpt lat="47.10649" lon="6.13816">
        <ele>342.063</ele>
        <time>2022-10-10T15:04:09Z</time>
      </trkpt>
      <trkpt lat="47.10645" lon="6.13856">
        <ele>341.257</ele>
        <time>2022-10-10T15:04:12Z</time>
      </trkpt>
      <trkpt lat="47.10645" lon="6.13866">
        <ele>341.051</ele>
        <time>2022-10-10T15:04:13Z</time>
      </trkpt>
      <trkpt lat="47.10646" lon="6.13882">
        <ele>340.801</ele>
        <time>2022-10-10T15:04:14Z</time>
      </trkpt>
      <trkpt lat="47.10647" lon="6.13895">
        <ele>340.811</ele>
        <time>2022-10-10T15:04:15Z</time>
      </trkpt>
      <trkpt lat="47.10649" lon="6.13905">
        <ele>341.009</ele>
        <time>2022-10-10T15:04:16Z</time>
      </trkpt>
      <trkpt lat="47.1065" lon="6.13917">
        <ele>341.026</ele>
        <time>2022-10-10T15:04:17Z</time>
      </trkpt>
      <trkpt lat="47.10652" lon="6.13929">
        <ele>341.076</ele>
        <time>2022-10-10T15:04:18Z</time>
      </trkpt>
      <trkpt lat="47.10654" lon="6.13943">
        <ele>341.23</ele>
        <time>2022-10-10T15:04:19Z</time>
      </trkpt>
      <trkpt lat="47.10655" lon="6.13955">
        <ele>341.454</ele>
        <time>2022-10-10T15:04:20Z</time>
      </trkpt>
      <trkpt lat="47.10657" lon="6.13967">
        <ele>341.427</ele>
        <time>2022-10-10T15:04:21Z</time>
      </trkpt>
      <trkpt lat="47.10658" lon="6.13978">
        <ele>341.483</ele>
        <time>2022-10-10T15:04:22Z</time>
      </trkpt>
      <trkpt lat="47.10661" lon="6.13999">
        <ele>341.499</ele>
        <time>2022-10-10T15:04:24Z</time>
      </trkpt>
      <trkpt lat="47.10663" lon="6.14012">
        <ele>341.479</ele>
        <time>2022-10-10T15:04:25Z</time>
      </trkpt>
      <trkpt lat="47.10664" lon="6.14021">
        <ele>341.653</ele>
        <time>2022-10-10T15:04:26Z</time>
      </trkpt>
      <trkpt lat="47.10668" lon="6.14053">
        <ele>342.038</ele>
        <time>2022-10-10T15:04:29Z</time>
      </trkpt>
      <trkpt lat="47.10673" lon="6.14097">
        <ele>342.27</ele>
        <time>2022-10-10T15:04:33Z</time>
      </trkpt>
      <trkpt lat="47.10677" lon="6.14151">
        <ele>340.817</ele>
        <time>2022-10-10T15:04:38Z</time>
      </trkpt>
      <trkpt lat="47.10678" lon="6.14196">
        <ele>339.609</ele>
        <time>2022-10-10T15:04:42Z</time>
      </trkpt>
      <trkpt lat="47.10677" lon="6.14244">
        <ele>338.414</ele>
        <time>2022-10-10T15:04:46Z</time>
      </trkpt>
      <trkpt lat="47.10676" lon="6.14283">
        <ele>337.244</ele>
        <time>2022-10-10T15:04:49Z</time>
      </trkpt>
      <trkpt lat="47.10676" lon="6.14296">
        <ele>337.028</ele>
        <time>2022-10-10T15:04:50Z</time>
      </trkpt>
      <trkpt lat="47.10675" lon="6.14318">
        <ele>336.242</ele>
        <time>2022-10-10T15:04:52Z</time>
      </trkpt>
      <trkpt lat="47.10674" lon="6.14357">
        <ele>335.665</ele>
        <time>2022-10-10T15:04:55Z</time>
      </trkpt>
      <trkpt lat="47.10675" lon="6.14379">
        <ele>335.261</ele>
        <time>2022-10-10T15:04:57Z</time>
      </trkpt>
      <trkpt lat="47.10677" lon="6.14393">
        <ele>335.097</ele>
        <time>2022-10-10T15:04:58Z</time>
      </trkpt>
      <trkpt lat="47.1068" lon="6.14402">
        <ele>335.047</ele>
        <time>2022-10-10T15:04:59Z</time>
      </trkpt>
      <trkpt lat="47.10685" lon="6.14415">
        <ele>334.881</ele>
        <time>2022-10-10T15:05:00Z</time>
      </trkpt>
      <trkpt lat="47.10689" lon="6.14423">
        <ele>334.683</ele>
        <time>2022-10-10T15:05:01Z</time>
      </trkpt>
      <trkpt lat="47.10693" lon="6.14433">
        <ele>334.225</ele>
        <time>2022-10-10T15:05:02Z</time>
      </trkpt>
      <trkpt lat="47.10698" lon="6.14444">
        <ele>333.617</ele>
        <time>2022-10-10T15:05:03Z</time>
      </trkpt>
      <trkpt lat="47.10703" lon="6.14457">
        <ele>333.009</ele>
        <time>2022-10-10T15:05:04Z</time>
      </trkpt>
      <trkpt lat="47.10704" lon="6.14466">
        <ele>332.859</ele>
        <time>2022-10-10T15:05:05Z</time>
      </trkpt>
      <trkpt lat="47.10705" lon="6.14477">
        <ele>332.659</ele>
        <time>2022-10-10T15:05:06Z</time>
      </trkpt>
      <trkpt lat="47.10705" lon="6.1449">
        <ele>332.633</ele>
        <time>2022-10-10T15:05:07Z</time>
      </trkpt>
      <trkpt lat="47.10704" lon="6.14501">
        <ele>332.637</ele>
        <time>2022-10-10T15:05:08Z</time>
      </trkpt>
      <trkpt lat="47.10702" lon="6.14511">
        <ele>332.63</ele>
        <time>2022-10-10T15:05:09Z</time>
      </trkpt>
      <trkpt lat="47.107" lon="6.14521">
        <ele>332.686</ele>
        <time>2022-10-10T15:05:10Z</time>
      </trkpt>
      <trkpt lat="47.10697" lon="6.14529">
        <ele>332.662</ele>
        <time>2022-10-10T15:05:11Z</time>
      </trkpt>
      <trkpt lat="47.10694" lon="6.14539">
        <ele>332.412</ele>
        <time>2022-10-10T15:05:12Z</time>
      </trkpt>
      <trkpt lat="47.10691" lon="6.14551">
        <ele>332.486</ele>
        <time>2022-10-10T15:05:13Z</time>
      </trkpt>
      <trkpt lat="47.10689" lon="6.14561">
        <ele>332.432</ele>
        <time>2022-10-10T15:05:14Z</time>
      </trkpt>
      <trkpt lat="47.10687" lon="6.14568">
        <ele>332.492</ele>
        <time>2022-10-10T15:05:15Z</time>
      </trkpt>
      <trkpt lat="47.10684" lon="6.14578">
        <ele>332.411</ele>
        <time>2022-10-10T15:05:16Z</time>
      </trkpt>
      <trkpt lat="47.10682" lon="6.14587">
        <ele>332.409</ele>
        <time>2022-10-10T15:05:17Z</time>
      </trkpt>
      <trkpt lat="47.10679" lon="6.14598">
        <ele>332.464</ele>
        <time>2022-10-10T15:05:18Z</time>
      </trkpt>
      <trkpt lat="47.10677" lon="6.14605">
        <ele>332.474</ele>
        <time>2022-10-10T15:05:19Z</time>
      </trkpt>
      <trkpt lat="47.10674" lon="6.14614">
        <ele>332.478</ele>
        <time>2022-10-10T15:05:20Z</time>
      </trkpt>
      <trkpt lat="47.10671" lon="6.14622">
        <ele>332.642</ele>
        <time>2022-10-10T15:05:21Z</time>
      </trkpt>
      <trkpt lat="47.10665" lon="6.14639">
        <ele>332.895</ele>
        <time>2022-10-10T15:05:23Z</time>
      </trkpt>
      <trkpt lat="47.10661" lon="6.14646">
        <ele>333.081</ele>
        <time>2022-10-10T15:05:24Z</time>
      </trkpt>
      <trkpt lat="47.10657" lon="6.14653">
        <ele>333.037</ele>
        <time>2022-10-10T15:05:25Z</time>
      </trkpt>
      <trkpt lat="47.10625" lon="6.14697">
        <ele>333.667</ele>
        <time>2022-10-10T15:05:32Z</time>
      </trkpt>
      <trkpt lat="47.10612" lon="6.14718">
        <ele>333.271</ele>
        <time>2022-10-10T15:05:35Z</time>
      </trkpt>
      <trkpt lat="47.10608" lon="6.14726">
        <ele>333.211</ele>
        <time>2022-10-10T15:05:36Z</time>
      </trkpt>
      <trkpt lat="47.10604" lon="6.14733">
        <ele>333.221</ele>
        <time>2022-10-10T15:05:37Z</time>
      </trkpt>
      <trkpt lat="47.106" lon="6.1474">
        <ele>333.203</ele>
        <time>2022-10-10T15:05:38Z</time>
      </trkpt>
      <trkpt lat="47.10596" lon="6.14747">
        <ele>333.409</ele>
        <time>2022-10-10T15:05:39Z</time>
      </trkpt>
      <trkpt lat="47.10588" lon="6.14761">
        <ele>333.422</ele>
        <time>2022-10-10T15:05:41Z</time>
      </trkpt>
      <trkpt lat="47.10585" lon="6.14768">
        <ele>333.632</ele>
        <time>2022-10-10T15:05:42Z</time>
      </trkpt>
      <trkpt lat="47.10581" lon="6.14775">
        <ele>333.656</ele>
        <time>2022-10-10T15:05:43Z</time>
      </trkpt>
      <trkpt lat="47.10577" lon="6.14782">
        <ele>333.82</ele>
        <time>2022-10-10T15:05:44Z</time>
      </trkpt>
      <trkpt lat="47.10566" lon="6.14802">
        <ele>334.263</ele>
        <time>2022-10-10T15:05:47Z</time>
      </trkpt>
      <trkpt lat="47.10529" lon="6.14864">
        <ele>333.849</ele>
        <time>2022-10-10T15:05:56Z</time>
      </trkpt>
      <trkpt lat="47.10524" lon="6.14871">
        <ele>333.645</ele>
        <time>2022-10-10T15:05:57Z</time>
      </trkpt>
      <trkpt lat="47.1052" lon="6.14877">
        <ele>333.425</ele>
        <time>2022-10-10T15:05:58Z</time>
      </trkpt>
      <trkpt lat="47.10497" lon="6.14907">
        <ele>333.219</ele>
        <time>2022-10-10T15:06:03Z</time>
      </trkpt>
      <trkpt lat="47.10483" lon="6.14925">
        <ele>333.412</ele>
        <time>2022-10-10T15:06:06Z</time>
      </trkpt>
      <trkpt lat="47.10464" lon="6.14952">
        <ele>333.432</ele>
        <time>2022-10-10T15:06:10Z</time>
      </trkpt>
      <trkpt lat="47.10456" lon="6.14966">
        <ele>333.605</ele>
        <time>2022-10-10T15:06:12Z</time>
      </trkpt>
      <trkpt lat="47.10449" lon="6.14983">
        <ele>333.809</ele>
        <time>2022-10-10T15:06:14Z</time>
      </trkpt>
      <trkpt lat="47.10446" lon="6.14991">
        <ele>333.882</ele>
        <time>2022-10-10T15:06:15Z</time>
      </trkpt>
      <trkpt lat="47.10438" lon="6.15018">
        <ele>334.682</ele>
        <time>2022-10-10T15:06:18Z</time>
      </trkpt>
      <trkpt lat="47.10436" lon="6.15025">
        <ele>334.666</ele>
        <time>2022-10-10T15:06:19Z</time>
      </trkpt>
      <trkpt lat="47.10422" lon="6.15069">
        <ele>334.68</ele>
        <time>2022-10-10T15:06:24Z</time>
      </trkpt>
      <trkpt lat="47.10409" lon="6.15103">
        <ele>334.683</ele>
        <time>2022-10-10T15:06:28Z</time>
      </trkpt>
      <trkpt lat="47.104" lon="6.15128">
        <ele>334.489</ele>
        <time>2022-10-10T15:06:31Z</time>
      </trkpt>
      <trkpt lat="47.10396" lon="6.15137">
        <ele>334.475</ele>
        <time>2022-10-10T15:06:32Z</time>
      </trkpt>
      <trkpt lat="47.10393" lon="6.15145">
        <ele>334.065</ele>
        <time>2022-10-10T15:06:33Z</time>
      </trkpt>
      <trkpt lat="47.10389" lon="6.15153">
        <ele>334.029</ele>
        <time>2022-10-10T15:06:34Z</time>
      </trkpt>
      <trkpt lat="47.10385" lon="6.1516">
        <ele>334.035</ele>
        <time>2022-10-10T15:06:35Z</time>
      </trkpt>
      <trkpt lat="47.10377" lon="6.15175">
        <ele>334.086</ele>
        <time>2022-10-10T15:06:37Z</time>
      </trkpt>
      <trkpt lat="47.10373" lon="6.15182">
        <ele>334.014</ele>
        <time>2022-10-10T15:06:38Z</time>
      </trkpt>
      <trkpt lat="47.10364" lon="6.15196">
        <ele>334.409</ele>
        <time>2022-10-10T15:06:40Z</time>
      </trkpt>
      <trkpt lat="47.10356" lon="6.15211">
        <ele>334.644</ele>
        <time>2022-10-10T15:06:42Z</time>
      </trkpt>
      <trkpt lat="47.10352" lon="6.15218">
        <ele>334.864</ele>
        <time>2022-10-10T15:06:43Z</time>
      </trkpt>
      <trkpt lat="47.10339" lon="6.15239">
        <ele>334.818</ele>
        <time>2022-10-10T15:06:46Z</time>
      </trkpt>
      <trkpt lat="47.10334" lon="6.15245">
        <ele>335.052</ele>
        <time>2022-10-10T15:06:47Z</time>
      </trkpt>
      <trkpt lat="47.1033" lon="6.15252">
        <ele>335.275</ele>
        <time>2022-10-10T15:06:48Z</time>
      </trkpt>
      <trkpt lat="47.10326" lon="6.15258">
        <ele>335.491</ele>
        <time>2022-10-10T15:06:49Z</time>
      </trkpt>
      <trkpt lat="47.10322" lon="6.15265">
        <ele>335.487</ele>
        <time>2022-10-10T15:06:50Z</time>
      </trkpt>
      <trkpt lat="47.10319" lon="6.15271">
        <ele>335.847</ele>
        <time>2022-10-10T15:06:51Z</time>
      </trkpt>
      <trkpt lat="47.10315" lon="6.15278">
        <ele>336.021</ele>
        <time>2022-10-10T15:06:52Z</time>
      </trkpt>
      <trkpt lat="47.10306" lon="6.15298">
        <ele>336.446</ele>
        <time>2022-10-10T15:06:55Z</time>
      </trkpt>
      <trkpt lat="47.10303" lon="6.15306">
        <ele>336.688</ele>
        <time>2022-10-10T15:06:56Z</time>
      </trkpt>
      <trkpt lat="47.103" lon="6.15313">
        <ele>336.616</ele>
        <time>2022-10-10T15:06:57Z</time>
      </trkpt>
      <trkpt lat="47.10297" lon="6.1532">
        <ele>336.809</ele>
        <time>2022-10-10T15:06:58Z</time>
      </trkpt>
      <trkpt lat="47.10294" lon="6.15327">
        <ele>337.015</ele>
        <time>2022-10-10T15:06:59Z</time>
      </trkpt>
      <trkpt lat="47.10288" lon="6.1534">
        <ele>337.485</ele>
        <time>2022-10-10T15:07:01Z</time>
      </trkpt>
      <trkpt lat="47.10285" lon="6.15347">
        <ele>337.649</ele>
        <time>2022-10-10T15:07:02Z</time>
      </trkpt>
      <trkpt lat="47.10283" lon="6.15355">
        <ele>337.653</ele>
        <time>2022-10-10T15:07:03Z</time>
      </trkpt>
      <trkpt lat="47.1028" lon="6.15362">
        <ele>337.866</ele>
        <time>2022-10-10T15:07:04Z</time>
      </trkpt>
      <trkpt lat="47.10278" lon="6.15369">
        <ele>338.082</ele>
        <time>2022-10-10T15:07:05Z</time>
      </trkpt>
      <trkpt lat="47.10275" lon="6.15377">
        <ele>338.298</ele>
        <time>2022-10-10T15:07:06Z</time>
      </trkpt>
      <trkpt lat="47.10273" lon="6.15384">
        <ele>338.878</ele>
        <time>2022-10-10T15:07:07Z</time>
      </trkpt>
      <trkpt lat="47.10271" lon="6.15392">
        <ele>339.232</ele>
        <time>2022-10-10T15:07:08Z</time>
      </trkpt>
      <trkpt lat="47.1027" lon="6.154">
        <ele>339.285</ele>
        <time>2022-10-10T15:07:09Z</time>
      </trkpt>
      <trkpt lat="47.10268" lon="6.15408">
        <ele>339.289</ele>
        <time>2022-10-10T15:07:10Z</time>
      </trkpt>
      <trkpt lat="47.10267" lon="6.15416">
        <ele>339.417</ele>
        <time>2022-10-10T15:07:11Z</time>
      </trkpt>
      <trkpt lat="47.10265" lon="6.15423">
        <ele>339.809</ele>
        <time>2022-10-10T15:07:12Z</time>
      </trkpt>
      <trkpt lat="47.10264" lon="6.15431">
        <ele>340.469</ele>
        <time>2022-10-10T15:07:13Z</time>
      </trkpt>
      <trkpt lat="47.10263" lon="6.15439">
        <ele>340.479</ele>
        <time>2022-10-10T15:07:14Z</time>
      </trkpt>
      <trkpt lat="47.10261" lon="6.15448">
        <ele>340.453</ele>
        <time>2022-10-10T15:07:15Z</time>
      </trkpt>
      <trkpt lat="47.1026" lon="6.15456">
        <ele>340.487</ele>
        <time>2022-10-10T15:07:16Z</time>
      </trkpt>
      <trkpt lat="47.10259" lon="6.15464">
        <ele>340.67</ele>
        <time>2022-10-10T15:07:17Z</time>
      </trkpt>
      <trkpt lat="47.10258" lon="6.15472">
        <ele>340.456</ele>
        <time>2022-10-10T15:07:18Z</time>
      </trkpt>
      <trkpt lat="47.10257" lon="6.1548">
        <ele>340.422</ele>
        <time>2022-10-10T15:07:19Z</time>
      </trkpt>
      <trkpt lat="47.10255" lon="6.15488">
        <ele>340.452</ele>
        <time>2022-10-10T15:07:20Z</time>
      </trkpt>
      <trkpt lat="47.10254" lon="6.15496">
        <ele>340.456</ele>
        <time>2022-10-10T15:07:21Z</time>
      </trkpt>
      <trkpt lat="47.10253" lon="6.15505">
        <ele>340.473</ele>
        <time>2022-10-10T15:07:22Z</time>
      </trkpt>
      <trkpt lat="47.10252" lon="6.15514">
        <ele>340.085</ele>
        <time>2022-10-10T15:07:23Z</time>
      </trkpt>
      <trkpt lat="47.10251" lon="6.15523">
        <ele>339.813</ele>
        <time>2022-10-10T15:07:24Z</time>
      </trkpt>
      <trkpt lat="47.10251" lon="6.15532">
        <ele>339.809</ele>
        <time>2022-10-10T15:07:25Z</time>
      </trkpt>
      <trkpt lat="47.10251" lon="6.1554">
        <ele>339.898</ele>
        <time>2022-10-10T15:07:26Z</time>
      </trkpt>
      <trkpt lat="47.10252" lon="6.15549">
        <ele>339.868</ele>
        <time>2022-10-10T15:07:27Z</time>
      </trkpt>
      <trkpt lat="47.10252" lon="6.15555">
        <ele>340.062</ele>
        <time>2022-10-10T15:07:28Z</time>
      </trkpt>
      <trkpt lat="47.10254" lon="6.15564">
        <ele>340.236</ele>
        <time>2022-10-10T15:07:29Z</time>
      </trkpt>
      <trkpt lat="47.10256" lon="6.15571">
        <ele>340.269</ele>
        <time>2022-10-10T15:07:30Z</time>
      </trkpt>
      <trkpt lat="47.10259" lon="6.15578">
        <ele>340.485</ele>
        <time>2022-10-10T15:07:31Z</time>
      </trkpt>
      <trkpt lat="47.10262" lon="6.15583">
        <ele>340.471</ele>
        <time>2022-10-10T15:07:32Z</time>
      </trkpt>
      <trkpt lat="47.10265" lon="6.15588">
        <ele>340.831</ele>
        <time>2022-10-10T15:07:33Z</time>
      </trkpt>
      <trkpt lat="47.10268" lon="6.15595">
        <ele>340.875</ele>
        <time>2022-10-10T15:07:34Z</time>
      </trkpt>
      <trkpt lat="47.1027" lon="6.15599">
        <ele>340.828</ele>
        <time>2022-10-10T15:07:35Z</time>
      </trkpt>
    </trkseg>
  </trk>
</gpx>